<?xml version="1.0" encoding="UTF-8" standalone="no" ?><gpx xmlns="http://www.topografix.com/GPX/1/1" xmlns:gpxx="http://www.garmin.com/xmlschemas/GpxExtensions/v3" xmlns:gpxtrkx="http://www.garmin.com/xmlschemas/TrackStatsExtension/v1" xmlns:wptx1="http://www.garmin.com/xmlschemas/WaypointExtension/v1" xmlns:gpxtpx="http://www.garmin.com/xmlschemas/TrackPointExtension/v1" creator="Alpha 300i" version="1.1" xmlns:xsi="http://www.w3.org/2001/XMLSchema-instance" xsi:schemaLocation="http://www.topografix.com/GPX/1/1 http://www.topografix.com/GPX/1/1/gpx.xsd http://www.garmin.com/xmlschemas/GpxExtensions/v3 http://www8.garmin.com/xmlschemas/GpxExtensionsv3.xsd http://www.garmin.com/xmlschemas/TrackStatsExtension/v1 http://www8.garmin.com/xmlschemas/TrackStatsExtension.xsd http://www.garmin.com/xmlschemas/WaypointExtension/v1 http://www8.garmin.com/xmlschemas/WaypointExtensionv1.xsd http://www.garmin.com/xmlschemas/TrackPointExtension/v1 http://www.garmin.com/xmlschemas/TrackPointExtensionv1.xsd"><metadata><link href="http://www.garmin.com"><text>Garmin International</text></link><time>2026-09-02T22:57:00Z</time></metadata><trk><name>2026-09-03 01:56:23</name><extensions><gpxx:TrackExtension><gpxx:DisplayColor>Cyan</gpxx:DisplayColor></gpxx:TrackExtension><gpxtrkx:TrackStatsExtension><gpxtrkx:Distance>7541.000</gpxtrkx:Distance><gpxtrkx:TimerTime>18029</gpxtrkx:TimerTime><gpxtrkx:TotalElapsedTime>18029</gpxtrkx:TotalElapsedTime><gpxtrkx:MovingSpeed>0.979</gpxtrkx:MovingSpeed><gpxtrkx:MaxElevation>253.600</gpxtrkx:MaxElevation><gpxtrkx:MinElevation>230.200</gpxtrkx:MinElevation><gpxtrkx:Ascent>85.000</gpxtrkx:Ascent><gpxtrkx:Descent>91.000</gpxtrkx:Descent><gpxtrkx:Calories>254</gpxtrkx:Calories><gpxtrkx:AvgCadence>0</gpxtrkx:AvgCadence></gpxtrkx:TrackStatsExtension></extensions><trkseg><trkpt lat="59.5565998647" lon="31.2600681558"><ele>252.96</ele><time>2026-09-02T17:55:55Z</time></trkpt><trkpt lat="59.5565998647" lon="31.2600681558"><ele>252.96</ele><time>2026-09-02T17:55:56Z</time></trkpt><trkpt lat="59.5565998647" lon="31.2600681558"><ele>252.96</ele><time>2026-09-02T17:55:57Z</time></trkpt><trkpt lat="59.5565998647" lon="31.2600681558"><ele>252.96</ele><time>2026-09-02T17:55:58Z</time></trkpt><trkpt lat="59.5565998647" lon="31.2600681558"><ele>252.96</ele><time>2026-09-02T17:55:59Z</time></trkpt><trkpt lat="59.5565998647" lon="31.2600681558"><ele>252.96</ele><time>2026-09-02T17:56:00Z</time></trkpt><trkpt lat="59.5565998647" lon="31.2600681558"><ele>252.96</ele><time>2026-09-02T17:56:01Z</time></trkpt><trkpt lat="59.5565998647" lon="31.2600681558"><ele>252.96</ele><time>2026-09-02T17:56:02Z</time></trkpt><trkpt lat="59.5565998647" lon="31.2600681558"><ele>252.96</ele><time>2026-09-02T17:56:03Z</time></trkpt><trkpt lat="59.5565998647" lon="31.2600681558"><ele>252.96</ele><time>2026-09-02T17:56:04Z</time></trkpt><trkpt lat="59.5565998647" lon="31.2600681558"><ele>252.96</ele><time>2026-09-02T17:56:05Z</time></trkpt><trkpt lat="59.5565998647" lon="31.2600681558"><ele>252.96</ele><time>2026-09-02T17:56:06Z</time></trkpt><trkpt lat="59.5565998647" lon="31.2600681558"><ele>252.96</ele><time>2026-09-02T17:56:07Z</time></trkpt><trkpt lat="59.5565998647" lon="31.2600681558"><ele>252.96</ele><time>2026-09-02T17:56:08Z</time></trkpt><trkpt lat="59.5565998647" lon="31.2600681558"><ele>252.96</ele><time>2026-09-02T17:56:09Z</time></trkpt><trkpt lat="59.5565998647" lon="31.2600681558"><ele>252.96</ele><time>2026-09-02T17:56:10Z</time></trkpt><trkpt lat="59.5565998647" lon="31.2600681558"><ele>252.96</ele><time>2026-09-02T17:56:11Z</time></trkpt><trkpt lat="59.5565998647" lon="31.2600681558"><ele>252.96</ele><time>2026-09-02T17:56:12Z</time></trkpt><trkpt lat="59.5565998647" lon="31.2600681558"><ele>252.96</ele><time>2026-09-02T17:56:13Z</time></trkpt><trkpt lat="59.5565998647" lon="31.2600681558"><ele>252.96</ele><time>2026-09-02T17:56:14Z</time></trkpt><trkpt lat="59.5565998647" lon="31.2600681558"><ele>252.96</ele><time>2026-09-02T17:56:15Z</time></trkpt><trkpt lat="59.5565998647" lon="31.2600681558"><ele>252.96</ele><time>2026-09-02T17:56:16Z</time></trkpt><trkpt lat="59.5565998647" lon="31.2600681558"><ele>252.96</ele><time>2026-09-02T17:56:17Z</time></trkpt><trkpt lat="59.5565998647" lon="31.2600681558"><ele>252.96</ele><time>2026-09-02T17:56:18Z</time></trkpt><trkpt lat="59.5565998647" lon="31.2600681558"><ele>252.96</ele><time>2026-09-02T17:56:19Z</time></trkpt><trkpt lat="59.5565998647" lon="31.2600681558"><ele>252.96</ele><time>2026-09-02T17:56:20Z</time></trkpt><trkpt lat="59.5565998647" lon="31.2600681558"><ele>252.96</ele><time>2026-09-02T17:56:21Z</time></trkpt><trkpt lat="59.5565998647" lon="31.2600681558"><ele>252.96</ele><time>2026-09-02T17:56:22Z</time></trkpt><trkpt lat="59.5565998647" lon="31.2600681558"><ele>252.96</ele><time>2026-09-02T17:56:23Z</time></trkpt><trkpt lat="59.5565998647" lon="31.2600681558"><ele>252.96</ele><time>2026-09-02T17:56:24Z</time></trkpt><trkpt lat="59.5565998647" lon="31.2600681558"><ele>252.96</ele><time>2026-09-02T17:56:25Z</time></trkpt><trkpt lat="59.5565998647" lon="31.2600681558"><ele>252.96</ele><time>2026-09-02T17:56:26Z</time></trkpt><trkpt lat="59.5565998647" lon="31.2600681558"><ele>252.96</ele><time>2026-09-02T17:56:27Z</time></trkpt><trkpt lat="59.5565998647" lon="31.2600681558"><ele>252.96</ele><time>2026-09-02T17:56:28Z</time></trkpt><trkpt lat="59.5565998647" lon="31.2600681558"><ele>252.96</ele><time>2026-09-02T17:56:29Z</time></trkpt><trkpt lat="59.5565998647" lon="31.2600681558"><ele>252.96</ele><time>2026-09-02T17:56:30Z</time></trkpt><trkpt lat="59.5565998647" lon="31.2600681558"><ele>252.96</ele><time>2026-09-02T17:56:31Z</time></trkpt><trkpt lat="59.5565998647" lon="31.2600681558"><ele>252.96</ele><time>2026-09-02T17:56:32Z</time></trkpt><trkpt lat="59.5565998647" lon="31.2600681558"><ele>252.96</ele><time>2026-09-02T17:56:33Z</time></trkpt><trkpt lat="59.5565998647" lon="31.2600681558"><ele>252.96</ele><time>2026-09-02T17:56:34Z</time></trkpt><trkpt lat="59.5565998647" lon="31.2600681558"><ele>252.96</ele><time>2026-09-02T17:56:35Z</time></trkpt><trkpt lat="59.5565998647" lon="31.2600681558"><ele>252.96</ele><time>2026-09-02T17:56:36Z</time></trkpt><trkpt lat="59.5565998647" lon="31.2600681558"><ele>252.96</ele><time>2026-09-02T17:56:37Z</time></trkpt><trkpt lat="59.5565998647" lon="31.2600681558"><ele>252.96</ele><time>2026-09-02T17:56:38Z</time></trkpt><trkpt lat="59.5565998647" lon="31.2600681558"><ele>252.96</ele><time>2026-09-02T17:56:39Z</time></trkpt><trkpt lat="59.5565998647" lon="31.2600681558"><ele>252.96</ele><time>2026-09-02T17:56:40Z</time></trkpt><trkpt lat="59.5565998647" lon="31.2600681558"><ele>252.96</ele><time>2026-09-02T17:56:41Z</time></trkpt><trkpt lat="59.5565998647" lon="31.2600681558"><ele>252.96</ele><time>2026-09-02T17:56:42Z</time></trkpt><trkpt lat="59.5565998647" lon="31.2600681558"><ele>252.96</ele><time>2026-09-02T17:56:43Z</time></trkpt><trkpt lat="59.5565998647" lon="31.2600681558"><ele>252.96</ele><time>2026-09-02T17:56:44Z</time></trkpt><trkpt lat="59.5565998647" lon="31.2600681558"><ele>252.96</ele><time>2026-09-02T17:56:45Z</time></trkpt><trkpt lat="59.5565998647" lon="31.2600681558"><ele>252.96</ele><time>2026-09-02T17:56:46Z</time></trkpt><trkpt lat="59.5565998647" lon="31.2600681558"><ele>252.96</ele><time>2026-09-02T17:56:47Z</time></trkpt><trkpt lat="59.5565998647" lon="31.2600681558"><ele>252.96</ele><time>2026-09-02T17:56:48Z</time></trkpt><trkpt lat="59.5565998647" lon="31.2600681558"><ele>252.96</ele><time>2026-09-02T17:56:49Z</time></trkpt><trkpt lat="59.5565998647" lon="31.2600681558"><ele>252.96</ele><time>2026-09-02T17:56:50Z</time></trkpt><trkpt lat="59.5565998647" lon="31.2600681558"><ele>252.96</ele><time>2026-09-02T17:56:51Z</time></trkpt><trkpt lat="59.5565998647" lon="31.2600681558"><ele>252.96</ele><time>2026-09-02T17:56:52Z</time></trkpt><trkpt lat="59.5565998647" lon="31.2600681558"><ele>252.96</ele><time>2026-09-02T17:56:53Z</time></trkpt><trkpt lat="59.5565998647" lon="31.2600681558"><ele>252.96</ele><time>2026-09-02T17:56:54Z</time></trkpt><trkpt lat="59.5565998647" lon="31.2600681558"><ele>252.96</ele><time>2026-09-02T17:56:55Z</time></trkpt><trkpt lat="59.5565998647" lon="31.2600681558"><ele>252.96</ele><time>2026-09-02T17:56:56Z</time></trkpt><trkpt lat="59.5565998647" lon="31.2600681558"><ele>252.96</ele><time>2026-09-02T17:56:57Z</time></trkpt><trkpt lat="59.5565998647" lon="31.2600681558"><ele>252.96</ele><time>2026-09-02T17:56:58Z</time></trkpt><trkpt lat="59.5565998647" lon="31.2600681558"><ele>252.96</ele><time>2026-09-02T17:56:59Z</time></trkpt><trkpt lat="59.5565998647" lon="31.2600681558"><ele>252.96</ele><time>2026-09-02T17:57:00Z</time></trkpt><trkpt lat="59.5565998647" lon="31.2600681558"><ele>252.96</ele><time>2026-09-02T17:57:01Z</time></trkpt><trkpt lat="59.5565998647" lon="31.2600681558"><ele>252.96</ele><time>2026-09-02T17:57:02Z</time></trkpt><trkpt lat="59.5565998647" lon="31.2600681558"><ele>252.96</ele><time>2026-09-02T17:57:03Z</time></trkpt><trkpt lat="59.5565998647" lon="31.2600681558"><ele>252.96</ele><time>2026-09-02T17:57:04Z</time></trkpt><trkpt lat="59.5565998647" lon="31.2600681558"><ele>252.96</ele><time>2026-09-02T17:57:05Z</time></trkpt><trkpt lat="59.5565998647" lon="31.2600681558"><ele>252.96</ele><time>2026-09-02T17:57:06Z</time></trkpt><trkpt lat="59.5565998647" lon="31.2600681558"><ele>252.96</ele><time>2026-09-02T17:57:07Z</time></trkpt><trkpt lat="59.5565998647" lon="31.2600681558"><ele>252.96</ele><time>2026-09-02T17:57:08Z</time></trkpt><trkpt lat="59.5565998647" lon="31.2600681558"><ele>252.96</ele><time>2026-09-02T17:57:09Z</time></trkpt><trkpt lat="59.5565998647" lon="31.2600681558"><ele>252.96</ele><time>2026-09-02T17:57:10Z</time></trkpt><trkpt lat="59.5565998647" lon="31.2600681558"><ele>252.96</ele><time>2026-09-02T17:57:11Z</time></trkpt><trkpt lat="59.5565998647" lon="31.2600681558"><ele>252.96</ele><time>2026-09-02T17:57:12Z</time></trkpt><trkpt lat="59.5565998647" lon="31.2600681558"><ele>252.96</ele><time>2026-09-02T17:57:13Z</time></trkpt><trkpt lat="59.5565998647" lon="31.2600681558"><ele>252.96</ele><time>2026-09-02T17:57:14Z</time></trkpt><trkpt lat="59.5565998647" lon="31.2600681558"><ele>252.96</ele><time>2026-09-02T17:57:15Z</time></trkpt><trkpt lat="59.5565998647" lon="31.2600681558"><ele>252.96</ele><time>2026-09-02T17:57:16Z</time></trkpt><trkpt lat="59.5565998647" lon="31.2600681558"><ele>252.96</ele><time>2026-09-02T17:57:17Z</time></trkpt><trkpt lat="59.5565998647" lon="31.2600681558"><ele>252.96</ele><time>2026-09-02T17:57:18Z</time></trkpt><trkpt lat="59.5565998647" lon="31.2600681558"><ele>252.96</ele><time>2026-09-02T17:57:19Z</time></trkpt><trkpt lat="59.5565998647" lon="31.2600681558"><ele>252.96</ele><time>2026-09-02T17:57:20Z</time></trkpt><trkpt lat="59.5565998647" lon="31.2600681558"><ele>252.96</ele><time>2026-09-02T17:57:21Z</time></trkpt><trkpt lat="59.5565998647" lon="31.2600681558"><ele>252.96</ele><time>2026-09-02T17:57:22Z</time></trkpt><trkpt lat="59.5565998647" lon="31.2600681558"><ele>252.96</ele><time>2026-09-02T17:57:23Z</time></trkpt><trkpt lat="59.5565998647" lon="31.2600681558"><ele>252.96</ele><time>2026-09-02T17:57:24Z</time></trkpt><trkpt lat="59.5565998647" lon="31.2600681558"><ele>252.96</ele><time>2026-09-02T17:57:25Z</time></trkpt><trkpt lat="59.5565998647" lon="31.2600681558"><ele>252.96</ele><time>2026-09-02T17:57:26Z</time></trkpt><trkpt lat="59.5565998647" lon="31.2600681558"><ele>252.96</ele><time>2026-09-02T17:57:27Z</time></trkpt><trkpt lat="59.5565998647" lon="31.2600681558"><ele>252.96</ele><time>2026-09-02T17:57:28Z</time></trkpt><trkpt lat="59.5566207357" lon="31.2601338699"><ele>252.96</ele><time>2026-09-02T17:57:29Z</time></trkpt><trkpt lat="59.5566249266" lon="31.2601489574"><ele>252.96</ele><time>2026-09-02T17:57:30Z</time></trkpt><trkpt lat="59.5566305425" lon="31.2601643801"><ele>252.96</ele><time>2026-09-02T17:57:31Z</time></trkpt><trkpt lat="59.5566341467" lon="31.2601746898"><ele>252.96</ele><time>2026-09-02T17:57:32Z</time></trkpt><trkpt lat="59.5566395950" lon="31.2601830717"><ele>252.96</ele><time>2026-09-02T17:57:33Z</time></trkpt><trkpt lat="59.5566457976" lon="31.2601914536"><ele>252.96</ele><time>2026-09-02T17:57:34Z</time></trkpt><trkpt lat="59.5566509943" lon="31.2601984944"><ele>252.96</ele><time>2026-09-02T17:57:35Z</time></trkpt><trkpt lat="59.5566576999" lon="31.2602079660"><ele>252.96</ele><time>2026-09-02T17:57:36Z</time></trkpt><trkpt lat="59.5566618908" lon="31.2602200359"><ele>252.96</ele><time>2026-09-02T17:57:37Z</time></trkpt><trkpt lat="59.5566656627" lon="31.2602300942"><ele>252.96</ele><time>2026-09-02T17:57:38Z</time></trkpt><trkpt lat="59.5566739608" lon="31.2602407392"><ele>252.96</ele><time>2026-09-02T17:57:39Z</time></trkpt><trkpt lat="59.5566798281" lon="31.2602586765"><ele>252.96</ele><time>2026-09-02T17:57:40Z</time></trkpt><trkpt lat="59.5566846896" lon="31.2602803856"><ele>252.96</ele><time>2026-09-02T17:57:41Z</time></trkpt><trkpt lat="59.5566899702" lon="31.2602941319"><ele>252.96</ele><time>2026-09-02T17:57:42Z</time></trkpt><trkpt lat="59.5566945802" lon="31.2603118178"><ele>252.96</ele><time>2026-09-02T17:57:43Z</time></trkpt><trkpt lat="59.5566976815" lon="31.2603345327"><ele>252.96</ele><time>2026-09-02T17:57:44Z</time></trkpt><trkpt lat="59.5567059796" lon="31.2603512965"><ele>252.96</ele><time>2026-09-02T17:57:45Z</time></trkpt><trkpt lat="59.5567155350" lon="31.2603653781"><ele>252.96</ele><time>2026-09-02T17:57:46Z</time></trkpt><trkpt lat="59.5567223243" lon="31.2603837345"><ele>252.96</ele><time>2026-09-02T17:57:47Z</time></trkpt><trkpt lat="59.5567290299" lon="31.2604001630"><ele>252.96</ele><time>2026-09-02T17:57:48Z</time></trkpt><trkpt lat="59.5567348972" lon="31.2604204472"><ele>252.96</ele><time>2026-09-02T17:57:49Z</time></trkpt><trkpt lat="59.5567383338" lon="31.2604388874"><ele>252.96</ele><time>2026-09-02T17:57:50Z</time></trkpt><trkpt lat="59.5567463804" lon="31.2604545616"><ele>252.96</ele><time>2026-09-02T17:57:51Z</time></trkpt><trkpt lat="59.5567532536" lon="31.2604713254"><ele>252.96</ele><time>2026-09-02T17:57:52Z</time></trkpt><trkpt lat="59.5567589533" lon="31.2604897656"><ele>252.96</ele><time>2026-09-02T17:57:53Z</time></trkpt><trkpt lat="59.5567631442" lon="31.2605104689"><ele>252.96</ele><time>2026-09-02T17:57:54Z</time></trkpt><trkpt lat="59.5567661617" lon="31.2605350278"><ele>252.96</ele><time>2026-09-02T17:57:55Z</time></trkpt><trkpt lat="59.5567719452" lon="31.2605563179"><ele>252.96</ele><time>2026-09-02T17:57:56Z</time></trkpt><trkpt lat="59.5567779802" lon="31.2605770212"><ele>252.96</ele><time>2026-09-02T17:57:57Z</time></trkpt><trkpt lat="59.5567826740" lon="31.2605950423"><ele>252.96</ele><time>2026-09-02T17:57:58Z</time></trkpt><trkpt lat="59.5567907207" lon="31.2606161647"><ele>252.96</ele><time>2026-09-02T17:57:59Z</time></trkpt><trkpt lat="59.5567948278" lon="31.2606402207"><ele>252.96</ele><time>2026-09-02T17:58:00Z</time></trkpt><trkpt lat="59.5568001922" lon="31.2606651988"><ele>252.96</ele><time>2026-09-02T17:58:01Z</time></trkpt><trkpt lat="59.5568057243" lon="31.2606887519"><ele>252.96</ele><time>2026-09-02T17:58:02Z</time></trkpt><trkpt lat="59.5568079874" lon="31.2607170828"><ele>252.96</ele><time>2026-09-02T17:58:03Z</time></trkpt><trkpt lat="59.5568123460" lon="31.2607415579"><ele>252.96</ele><time>2026-09-02T17:58:04Z</time></trkpt><trkpt lat="59.5568126813" lon="31.2607692182"><ele>252.96</ele><time>2026-09-02T17:58:05Z</time></trkpt><trkpt lat="59.5568128489" lon="31.2607941963"><ele>252.96</ele><time>2026-09-02T17:58:06Z</time></trkpt><trkpt lat="59.5568116754" lon="31.2608166598"><ele>252.96</ele><time>2026-09-02T17:58:07Z</time></trkpt><trkpt lat="59.5568091609" lon="31.2608403806"><ele>252.96</ele><time>2026-09-02T17:58:08Z</time></trkpt><trkpt lat="59.5568061434" lon="31.2608579826"><ele>252.96</ele><time>2026-09-02T17:58:09Z</time></trkpt><trkpt lat="59.5568065625" lon="31.2608821224"><ele>252.96</ele><time>2026-09-02T17:58:10Z</time></trkpt><trkpt lat="59.5568045508" lon="31.2609011494"><ele>252.96</ele><time>2026-09-02T17:58:11Z</time></trkpt><trkpt lat="59.5568006951" lon="31.2609194219"><ele>252.96</ele><time>2026-09-02T17:58:12Z</time></trkpt><trkpt lat="59.5567984320" lon="31.2609378621"><ele>252.96</ele><time>2026-09-02T17:58:13Z</time></trkpt><trkpt lat="59.5567964204" lon="31.2609510217"><ele>252.96</ele><time>2026-09-02T17:58:14Z</time></trkpt><trkpt lat="59.5567973424" lon="31.2609536201"><ele>252.96</ele><time>2026-09-02T17:58:15Z</time></trkpt><trkpt lat="59.5567976777" lon="31.2609582301"><ele>252.96</ele><time>2026-09-02T17:58:16Z</time></trkpt><trkpt lat="59.5567944925" lon="31.2609632593"><ele>252.96</ele><time>2026-09-02T17:58:17Z</time></trkpt><trkpt lat="59.5567944925" lon="31.2609632593"><ele>252.96</ele><time>2026-09-02T17:58:18Z</time></trkpt><trkpt lat="59.5567944925" lon="31.2609632593"><ele>252.96</ele><time>2026-09-02T17:58:19Z</time></trkpt><trkpt lat="59.5567944925" lon="31.2609632593"><ele>252.96</ele><time>2026-09-02T17:58:20Z</time></trkpt><trkpt lat="59.5567944925" lon="31.2609632593"><ele>252.96</ele><time>2026-09-02T17:58:21Z</time></trkpt><trkpt lat="59.5567944925" lon="31.2609632593"><ele>252.96</ele><time>2026-09-02T17:58:22Z</time></trkpt><trkpt lat="59.5567944925" lon="31.2609632593"><ele>252.96</ele><time>2026-09-02T17:58:23Z</time></trkpt><trkpt lat="59.5567944925" lon="31.2609632593"><ele>252.96</ele><time>2026-09-02T17:58:24Z</time></trkpt><trkpt lat="59.5567944925" lon="31.2609632593"><ele>252.96</ele><time>2026-09-02T17:58:25Z</time></trkpt><trkpt lat="59.5567944925" lon="31.2609632593"><ele>252.96</ele><time>2026-09-02T17:58:26Z</time></trkpt><trkpt lat="59.5567944925" lon="31.2609632593"><ele>252.96</ele><time>2026-09-02T17:58:27Z</time></trkpt><trkpt lat="59.5567944925" lon="31.2609632593"><ele>252.96</ele><time>2026-09-02T17:58:28Z</time></trkpt><trkpt lat="59.5567837637" lon="31.2610098626"><ele>252.96</ele><time>2026-09-02T17:58:29Z</time></trkpt><trkpt lat="59.5567792375" lon="31.2610304821"><ele>252.96</ele><time>2026-09-02T17:58:30Z</time></trkpt><trkpt lat="59.5567749627" lon="31.2610512692"><ele>252.96</ele><time>2026-09-02T17:58:31Z</time></trkpt><trkpt lat="59.5567714423" lon="31.2610695418"><ele>252.96</ele><time>2026-09-02T17:58:32Z</time></trkpt><trkpt lat="59.5567681734" lon="31.2610825337"><ele>252.96</ele><time>2026-09-02T17:58:33Z</time></trkpt><trkpt lat="59.5567666646" lon="31.2610893231"><ele>252.96</ele><time>2026-09-02T17:58:34Z</time></trkpt><trkpt lat="59.5567662455" lon="31.2610937655"><ele>252.96</ele><time>2026-09-02T17:58:35Z</time></trkpt><trkpt lat="59.5567676704" lon="31.2610941846"><ele>252.96</ele><time>2026-09-02T17:58:36Z</time></trkpt><trkpt lat="59.5567676704" lon="31.2610941846"><ele>252.96</ele><time>2026-09-02T17:58:37Z</time></trkpt><trkpt lat="59.5567676704" lon="31.2610941846"><ele>253.44</ele><time>2026-09-02T17:58:38Z</time></trkpt><trkpt lat="59.5567676704" lon="31.2610941846"><ele>253.44</ele><time>2026-09-02T17:58:39Z</time></trkpt><trkpt lat="59.5567676704" lon="31.2610941846"><ele>252.96</ele><time>2026-09-02T17:58:40Z</time></trkpt><trkpt lat="59.5567676704" lon="31.2610941846"><ele>252.96</ele><time>2026-09-02T17:58:41Z</time></trkpt><trkpt lat="59.5567676704" lon="31.2610941846"><ele>252.96</ele><time>2026-09-02T17:58:42Z</time></trkpt><trkpt lat="59.5567676704" lon="31.2610941846"><ele>252.96</ele><time>2026-09-02T17:58:43Z</time></trkpt><trkpt lat="59.5567676704" lon="31.2610941846"><ele>252.96</ele><time>2026-09-02T17:58:44Z</time></trkpt><trkpt lat="59.5567676704" lon="31.2610941846"><ele>252.96</ele><time>2026-09-02T17:58:45Z</time></trkpt><trkpt lat="59.5567676704" lon="31.2610941846"><ele>252.96</ele><time>2026-09-02T17:58:46Z</time></trkpt><trkpt lat="59.5567676704" lon="31.2610941846"><ele>252.96</ele><time>2026-09-02T17:58:47Z</time></trkpt><trkpt lat="59.5567676704" lon="31.2610941846"><ele>252.96</ele><time>2026-09-02T17:58:48Z</time></trkpt><trkpt lat="59.5567676704" lon="31.2610941846"><ele>252.96</ele><time>2026-09-02T17:58:49Z</time></trkpt><trkpt lat="59.5567676704" lon="31.2610941846"><ele>252.96</ele><time>2026-09-02T17:58:50Z</time></trkpt><trkpt lat="59.5567676704" lon="31.2610941846"><ele>252.96</ele><time>2026-09-02T17:58:51Z</time></trkpt><trkpt lat="59.5567676704" lon="31.2610941846"><ele>252.96</ele><time>2026-09-02T17:58:52Z</time></trkpt><trkpt lat="59.5567676704" lon="31.2610941846"><ele>252.96</ele><time>2026-09-02T17:58:53Z</time></trkpt><trkpt lat="59.5567676704" lon="31.2610941846"><ele>252.96</ele><time>2026-09-02T17:58:54Z</time></trkpt><trkpt lat="59.5567676704" lon="31.2610941846"><ele>252.96</ele><time>2026-09-02T17:58:55Z</time></trkpt><trkpt lat="59.5567676704" lon="31.2610941846"><ele>252.96</ele><time>2026-09-02T17:58:56Z</time></trkpt><trkpt lat="59.5567676704" lon="31.2610941846"><ele>252.96</ele><time>2026-09-02T17:58:57Z</time></trkpt><trkpt lat="59.5567676704" lon="31.2610941846"><ele>252.96</ele><time>2026-09-02T17:58:58Z</time></trkpt><trkpt lat="59.5567676704" lon="31.2610941846"><ele>252.96</ele><time>2026-09-02T17:58:59Z</time></trkpt><trkpt lat="59.5567676704" lon="31.2610941846"><ele>252.96</ele><time>2026-09-02T17:59:00Z</time></trkpt><trkpt lat="59.5567676704" lon="31.2610941846"><ele>252.96</ele><time>2026-09-02T17:59:01Z</time></trkpt><trkpt lat="59.5567676704" lon="31.2610941846"><ele>252.96</ele><time>2026-09-02T17:59:02Z</time></trkpt><trkpt lat="59.5567676704" lon="31.2610941846"><ele>252.96</ele><time>2026-09-02T17:59:03Z</time></trkpt><trkpt lat="59.5567676704" lon="31.2610941846"><ele>252.96</ele><time>2026-09-02T17:59:04Z</time></trkpt><trkpt lat="59.5567676704" lon="31.2610941846"><ele>252.96</ele><time>2026-09-02T17:59:05Z</time></trkpt><trkpt lat="59.5567676704" lon="31.2610941846"><ele>252.96</ele><time>2026-09-02T17:59:06Z</time></trkpt><trkpt lat="59.5567676704" lon="31.2610941846"><ele>252.96</ele><time>2026-09-02T17:59:07Z</time></trkpt><trkpt lat="59.5567676704" lon="31.2610941846"><ele>252.96</ele><time>2026-09-02T17:59:08Z</time></trkpt><trkpt lat="59.5567676704" lon="31.2610941846"><ele>252.96</ele><time>2026-09-02T17:59:09Z</time></trkpt><trkpt lat="59.5567676704" lon="31.2610941846"><ele>252.96</ele><time>2026-09-02T17:59:10Z</time></trkpt><trkpt lat="59.5567676704" lon="31.2610941846"><ele>252.96</ele><time>2026-09-02T17:59:11Z</time></trkpt><trkpt lat="59.5567676704" lon="31.2610941846"><ele>252.96</ele><time>2026-09-02T17:59:12Z</time></trkpt><trkpt lat="59.5567676704" lon="31.2610941846"><ele>252.96</ele><time>2026-09-02T17:59:13Z</time></trkpt><trkpt lat="59.5567676704" lon="31.2610941846"><ele>252.96</ele><time>2026-09-02T17:59:14Z</time></trkpt><trkpt lat="59.5567676704" lon="31.2610941846"><ele>252.96</ele><time>2026-09-02T17:59:15Z</time></trkpt><trkpt lat="59.5567676704" lon="31.2610941846"><ele>252.96</ele><time>2026-09-02T17:59:16Z</time></trkpt><trkpt lat="59.5567779802" lon="31.2611461524"><ele>252.96</ele><time>2026-09-02T17:59:17Z</time></trkpt><trkpt lat="59.5567783993" lon="31.2611569650"><ele>252.96</ele><time>2026-09-02T17:59:18Z</time></trkpt><trkpt lat="59.5567794889" lon="31.2611554563"><ele>252.96</ele><time>2026-09-02T17:59:19Z</time></trkpt><trkpt lat="59.5567792375" lon="31.2611554563"><ele>252.96</ele><time>2026-09-02T17:59:20Z</time></trkpt><trkpt lat="59.5567789860" lon="31.2611557916"><ele>252.96</ele><time>2026-09-02T17:59:21Z</time></trkpt><trkpt lat="59.5567789860" lon="31.2611557916"><ele>252.96</ele><time>2026-09-02T17:59:22Z</time></trkpt><trkpt lat="59.5567789860" lon="31.2611557916"><ele>252.96</ele><time>2026-09-02T17:59:23Z</time></trkpt><trkpt lat="59.5567789860" lon="31.2611557916"><ele>252.96</ele><time>2026-09-02T17:59:24Z</time></trkpt><trkpt lat="59.5567789860" lon="31.2611557916"><ele>252.48</ele><time>2026-09-02T17:59:25Z</time></trkpt><trkpt lat="59.5567789860" lon="31.2611557916"><ele>252.48</ele><time>2026-09-02T17:59:26Z</time></trkpt><trkpt lat="59.5567789860" lon="31.2611557916"><ele>252.48</ele><time>2026-09-02T17:59:27Z</time></trkpt><trkpt lat="59.5567716938" lon="31.2611834519"><ele>252.48</ele><time>2026-09-02T17:59:28Z</time></trkpt><trkpt lat="59.5567677543" lon="31.2612091843"><ele>252.48</ele><time>2026-09-02T17:59:29Z</time></trkpt><trkpt lat="59.5567646530" lon="31.2612319831"><ele>252.96</ele><time>2026-09-02T17:59:30Z</time></trkpt><trkpt lat="59.5567574445" lon="31.2612512615"><ele>252.96</ele><time>2026-09-02T17:59:31Z</time></trkpt><trkpt lat="59.5567525830" lon="31.2612692825"><ele>252.96</ele><time>2026-09-02T17:59:32Z</time></trkpt><trkpt lat="59.5567486435" lon="31.2612872198"><ele>252.96</ele><time>2026-09-02T17:59:33Z</time></trkpt><trkpt lat="59.5567456260" lon="31.2613042351"><ele>252.96</ele><time>2026-09-02T17:59:34Z</time></trkpt><trkpt lat="59.5567430276" lon="31.2613211665"><ele>252.96</ele><time>2026-09-02T17:59:35Z</time></trkpt><trkpt lat="59.5567398425" lon="31.2613400258"><ele>252.96</ele><time>2026-09-02T17:59:36Z</time></trkpt><trkpt lat="59.5567359868" lon="31.2613586336"><ele>252.96</ele><time>2026-09-02T17:59:37Z</time></trkpt><trkpt lat="59.5567314606" lon="31.2613770738"><ele>252.96</ele><time>2026-09-02T17:59:38Z</time></trkpt><trkpt lat="59.5567286946" lon="31.2613871321"><ele>252.48</ele><time>2026-09-02T17:59:39Z</time></trkpt><trkpt lat="59.5567286946" lon="31.2613832764"><ele>252.48</ele><time>2026-09-02T17:59:40Z</time></trkpt><trkpt lat="59.5567287784" lon="31.2613803428"><ele>252.48</ele><time>2026-09-02T17:59:41Z</time></trkpt><trkpt lat="59.5567287784" lon="31.2613803428"><ele>252.48</ele><time>2026-09-02T17:59:42Z</time></trkpt><trkpt lat="59.5567287784" lon="31.2613803428"><ele>252.48</ele><time>2026-09-02T17:59:43Z</time></trkpt><trkpt lat="59.5567287784" lon="31.2613803428"><ele>252.48</ele><time>2026-09-02T17:59:44Z</time></trkpt><trkpt lat="59.5567287784" lon="31.2613803428"><ele>252.48</ele><time>2026-09-02T17:59:45Z</time></trkpt><trkpt lat="59.5567195583" lon="31.2614057399"><ele>252.48</ele><time>2026-09-02T17:59:46Z</time></trkpt><trkpt lat="59.5567155350" lon="31.2614174746"><ele>252.48</ele><time>2026-09-02T17:59:47Z</time></trkpt><trkpt lat="59.5567119308" lon="31.2614333164"><ele>252.48</ele><time>2026-09-02T17:59:48Z</time></trkpt><trkpt lat="59.5567094162" lon="31.2614485715"><ele>252.48</ele><time>2026-09-02T17:59:49Z</time></trkpt><trkpt lat="59.5567038842" lon="31.2614679337"><ele>252.48</ele><time>2026-09-02T17:59:50Z</time></trkpt><trkpt lat="59.5566984359" lon="31.2614871282"><ele>252.48</ele><time>2026-09-02T17:59:51Z</time></trkpt><trkpt lat="59.5566930715" lon="31.2615003716"><ele>252.48</ele><time>2026-09-02T17:59:52Z</time></trkpt><trkpt lat="59.5566878747" lon="31.2615171354"><ele>252.48</ele><time>2026-09-02T17:59:53Z</time></trkpt><trkpt lat="59.5566845220" lon="31.2615361623"><ele>252.00</ele><time>2026-09-02T17:59:54Z</time></trkpt><trkpt lat="59.5566803310" lon="31.2615559436"><ele>252.00</ele><time>2026-09-02T17:59:55Z</time></trkpt><trkpt lat="59.5566733740" lon="31.2615830172"><ele>252.00</ele><time>2026-09-02T17:59:56Z</time></trkpt><trkpt lat="59.5566682611" lon="31.2616102584"><ele>252.00</ele><time>2026-09-02T17:59:57Z</time></trkpt><trkpt lat="59.5566649921" lon="31.2616280280"><ele>252.00</ele><time>2026-09-02T17:59:58Z</time></trkpt><trkpt lat="59.5566611364" lon="31.2616484798"><ele>252.00</ele><time>2026-09-02T17:59:59Z</time></trkpt><trkpt lat="59.5566581190" lon="31.2616698537"><ele>252.00</ele><time>2026-09-02T18:00:00Z</time></trkpt><trkpt lat="59.5566559397" lon="31.2616907246"><ele>252.00</ele><time>2026-09-02T18:00:01Z</time></trkpt><trkpt lat="59.5566534251" lon="31.2617118470"><ele>252.00</ele><time>2026-09-02T18:00:02Z</time></trkpt><trkpt lat="59.5566523355" lon="31.2617368251"><ele>252.00</ele><time>2026-09-02T18:00:03Z</time></trkpt><trkpt lat="59.5566515811" lon="31.2617569417"><ele>252.00</ele><time>2026-09-02T18:00:04Z</time></trkpt><trkpt lat="59.5566483960" lon="31.2617754657"><ele>251.52</ele><time>2026-09-02T18:00:05Z</time></trkpt><trkpt lat="59.5566441212" lon="31.2617983483"><ele>251.52</ele><time>2026-09-02T18:00:06Z</time></trkpt><trkpt lat="59.5566377509" lon="31.2618200574"><ele>251.52</ele><time>2026-09-02T18:00:07Z</time></trkpt><trkpt lat="59.5566307940" lon="31.2618404254"><ele>251.52</ele><time>2026-09-02T18:00:08Z</time></trkpt><trkpt lat="59.5566252619" lon="31.2618593685"><ele>251.52</ele><time>2026-09-02T18:00:09Z</time></trkpt><trkpt lat="59.5566186402" lon="31.2618828379"><ele>251.52</ele><time>2026-09-02T18:00:10Z</time></trkpt><trkpt lat="59.5566128567" lon="31.2619053852"><ele>251.04</ele><time>2026-09-02T18:00:11Z</time></trkpt><trkpt lat="59.5566064864" lon="31.2619242445"><ele>251.04</ele><time>2026-09-02T18:00:12Z</time></trkpt><trkpt lat="59.5566012897" lon="31.2619426847"><ele>251.04</ele><time>2026-09-02T18:00:13Z</time></trkpt><trkpt lat="59.5565983560" lon="31.2619642261"><ele>251.04</ele><time>2026-09-02T18:00:14Z</time></trkpt><trkpt lat="59.5565948356" lon="31.2619841751"><ele>251.04</ele><time>2026-09-02T18:00:15Z</time></trkpt><trkpt lat="59.5565929916" lon="31.2620024476"><ele>251.04</ele><time>2026-09-02T18:00:16Z</time></trkpt><trkpt lat="59.5565915667" lon="31.2620189600"><ele>251.04</ele><time>2026-09-02T18:00:17Z</time></trkpt><trkpt lat="59.5565874595" lon="31.2620385736"><ele>250.56</ele><time>2026-09-02T18:00:18Z</time></trkpt><trkpt lat="59.5565834362" lon="31.2620609533"><ele>250.56</ele><time>2026-09-02T18:00:19Z</time></trkpt><trkpt lat="59.5565768983" lon="31.2620806508"><ele>250.56</ele><time>2026-09-02T18:00:20Z</time></trkpt><trkpt lat="59.5565726236" lon="31.2621039525"><ele>250.56</ele><time>2026-09-02T18:00:21Z</time></trkpt><trkpt lat="59.5565693546" lon="31.2621248234"><ele>250.56</ele><time>2026-09-02T18:00:22Z</time></trkpt><trkpt lat="59.5565657504" lon="31.2621461973"><ele>250.56</ele><time>2026-09-02T18:00:23Z</time></trkpt><trkpt lat="59.5565627329" lon="31.2621648889"><ele>250.56</ele><time>2026-09-02T18:00:24Z</time></trkpt><trkpt lat="59.5565619785" lon="31.2621831615"><ele>250.56</ele><time>2026-09-02T18:00:25Z</time></trkpt><trkpt lat="59.5565600507" lon="31.2622017693"><ele>250.56</ele><time>2026-09-02T18:00:26Z</time></trkpt><trkpt lat="59.5565591287" lon="31.2622195389"><ele>250.56</ele><time>2026-09-02T18:00:27Z</time></trkpt><trkpt lat="59.5565564465" lon="31.2622421701"><ele>250.56</ele><time>2026-09-02T18:00:28Z</time></trkpt><trkpt lat="59.5565519203" lon="31.2622627895"><ele>250.56</ele><time>2026-09-02T18:00:29Z</time></trkpt><trkpt lat="59.5565477293" lon="31.2622847501"><ele>250.56</ele><time>2026-09-02T18:00:30Z</time></trkpt><trkpt lat="59.5565474778" lon="31.2623048667"><ele>250.56</ele><time>2026-09-02T18:00:31Z</time></trkpt><trkpt lat="59.5565482322" lon="31.2623197865"><ele>250.56</ele><time>2026-09-02T18:00:32Z</time></trkpt><trkpt lat="59.5565506630" lon="31.2623430882"><ele>250.56</ele><time>2026-09-02T18:00:33Z</time></trkpt><trkpt lat="59.5565496571" lon="31.2623662222"><ele>250.08</ele><time>2026-09-02T18:00:34Z</time></trkpt><trkpt lat="59.5565478969" lon="31.2623926252"><ele>250.08</ele><time>2026-09-02T18:00:35Z</time></trkpt><trkpt lat="59.5565481484" lon="31.2624194473"><ele>250.08</ele><time>2026-09-02T18:00:36Z</time></trkpt><trkpt lat="59.5565463882" lon="31.2624471914"><ele>250.08</ele><time>2026-09-02T18:00:37Z</time></trkpt><trkpt lat="59.5565440413" lon="31.2624693196"><ele>250.08</ele><time>2026-09-02T18:00:38Z</time></trkpt><trkpt lat="59.5565406885" lon="31.2624887656"><ele>250.08</ele><time>2026-09-02T18:00:39Z</time></trkpt><trkpt lat="59.5565373357" lon="31.2625093851"><ele>250.08</ele><time>2026-09-02T18:00:40Z</time></trkpt><trkpt lat="59.5565344859" lon="31.2625285797"><ele>250.08</ele><time>2026-09-02T18:00:41Z</time></trkpt><trkpt lat="59.5565303788" lon="31.2625503726"><ele>250.08</ele><time>2026-09-02T18:00:42Z</time></trkpt><trkpt lat="59.5565262716" lon="31.2625726685"><ele>250.08</ele><time>2026-09-02T18:00:43Z</time></trkpt><trkpt lat="59.5565246791" lon="31.2626011670"><ele>250.08</ele><time>2026-09-02T18:00:44Z</time></trkpt><trkpt lat="59.5565213263" lon="31.2626289949"><ele>250.08</ele><time>2026-09-02T18:00:45Z</time></trkpt><trkpt lat="59.5565200690" lon="31.2626496982"><ele>250.08</ele><time>2026-09-02T18:00:46Z</time></trkpt><trkpt lat="59.5565158781" lon="31.2626666296"><ele>250.08</ele><time>2026-09-02T18:00:47Z</time></trkpt><trkpt lat="59.5565101784" lon="31.2626863271"><ele>250.08</ele><time>2026-09-02T18:00:48Z</time></trkpt><trkpt lat="59.5565090887" lon="31.2627052702"><ele>250.08</ele><time>2026-09-02T18:00:49Z</time></trkpt><trkpt lat="59.5565052330" lon="31.2627257220"><ele>250.08</ele><time>2026-09-02T18:00:50Z</time></trkpt><trkpt lat="59.5565014612" lon="31.2627481855"><ele>249.60</ele><time>2026-09-02T18:00:51Z</time></trkpt><trkpt lat="59.5564972702" lon="31.2627727445"><ele>249.60</ele><time>2026-09-02T18:00:52Z</time></trkpt><trkpt lat="59.5564938337" lon="31.2627988961"><ele>249.60</ele><time>2026-09-02T18:00:53Z</time></trkpt><trkpt lat="59.5564920735" lon="31.2628260534"><ele>249.60</ele><time>2026-09-02T18:00:54Z</time></trkpt><trkpt lat="59.5564893913" lon="31.2628545519"><ele>249.60</ele><time>2026-09-02T18:00:55Z</time></trkpt><trkpt lat="59.5564853679" lon="31.2628807873"><ele>249.60</ele><time>2026-09-02T18:00:56Z</time></trkpt><trkpt lat="59.5564816799" lon="31.2629108783"><ele>249.60</ele><time>2026-09-02T18:00:57Z</time></trkpt><trkpt lat="59.5564802550" lon="31.2629369460"><ele>249.60</ele><time>2026-09-02T18:00:58Z</time></trkpt><trkpt lat="59.5564801712" lon="31.2629576493"><ele>249.60</ele><time>2026-09-02T18:00:59Z</time></trkpt><trkpt lat="59.5564778242" lon="31.2629800290"><ele>249.60</ele><time>2026-09-02T18:01:00Z</time></trkpt><trkpt lat="59.5564752258" lon="31.2630036660"><ele>249.60</ele><time>2026-09-02T18:01:01Z</time></trkpt><trkpt lat="59.5564727951" lon="31.2630290631"><ele>249.60</ele><time>2026-09-02T18:01:02Z</time></trkpt><trkpt lat="59.5564683527" lon="31.2630605791"><ele>249.60</ele><time>2026-09-02T18:01:03Z</time></trkpt><trkpt lat="59.5564645808" lon="31.2630873173"><ele>249.60</ele><time>2026-09-02T18:01:04Z</time></trkpt><trkpt lat="59.5564647485" lon="31.2631114572"><ele>249.60</ele><time>2026-09-02T18:01:05Z</time></trkpt><trkpt lat="59.5564605575" lon="31.2631301489"><ele>249.60</ele><time>2026-09-02T18:01:06Z</time></trkpt><trkpt lat="59.5564545225" lon="31.2631513551"><ele>249.60</ele><time>2026-09-02T18:01:07Z</time></trkpt><trkpt lat="59.5564528462" lon="31.2631720584"><ele>249.60</ele><time>2026-09-02T18:01:08Z</time></trkpt><trkpt lat="59.5564515889" lon="31.2631941866"><ele>249.60</ele><time>2026-09-02T18:01:09Z</time></trkpt><trkpt lat="59.5564499963" lon="31.2632131297"><ele>249.60</ele><time>2026-09-02T18:01:10Z</time></trkpt><trkpt lat="59.5564458892" lon="31.2632288877"><ele>249.60</ele><time>2026-09-02T18:01:11Z</time></trkpt><trkpt lat="59.5564419497" lon="31.2632492557"><ele>249.60</ele><time>2026-09-02T18:01:12Z</time></trkpt><trkpt lat="59.5564418659" lon="31.2632736471"><ele>249.12</ele><time>2026-09-02T18:01:13Z</time></trkpt><trkpt lat="59.5564395189" lon="31.2632978708"><ele>249.12</ele><time>2026-09-02T18:01:14Z</time></trkpt><trkpt lat="59.5564390998" lon="31.2633178197"><ele>249.12</ele><time>2026-09-02T18:01:15Z</time></trkpt><trkpt lat="59.5564371720" lon="31.2633398641"><ele>249.12</ele><time>2026-09-02T18:01:16Z</time></trkpt><trkpt lat="59.5564362500" lon="31.2633618247"><ele>249.12</ele><time>2026-09-02T18:01:17Z</time></trkpt><trkpt lat="59.5564310532" lon="31.2633832823"><ele>249.12</ele><time>2026-09-02T18:01:18Z</time></trkpt><trkpt lat="59.5564257726" lon="31.2634071708"><ele>249.12</ele><time>2026-09-02T18:01:19Z</time></trkpt><trkpt lat="59.5564215817" lon="31.2634361722"><ele>249.12</ele><time>2026-09-02T18:01:20Z</time></trkpt><trkpt lat="59.5564164687" lon="31.2634725496"><ele>249.12</ele><time>2026-09-02T18:01:21Z</time></trkpt><trkpt lat="59.5564124454" lon="31.2635056581"><ele>249.12</ele><time>2026-09-02T18:01:22Z</time></trkpt><trkpt lat="59.5564091764" lon="31.2635385990"><ele>249.12</ele><time>2026-09-02T18:01:23Z</time></trkpt><trkpt lat="59.5564058237" lon="31.2635656726"><ele>249.12</ele><time>2026-09-02T18:01:24Z</time></trkpt><trkpt lat="59.5564098470" lon="31.2635902315"><ele>249.12</ele><time>2026-09-02T18:01:25Z</time></trkpt><trkpt lat="59.5564106852" lon="31.2636109348"><ele>249.12</ele><time>2026-09-02T18:01:26Z</time></trkpt><trkpt lat="59.5564071648" lon="31.2636339851"><ele>248.64</ele><time>2026-09-02T18:01:27Z</time></trkpt><trkpt lat="59.5564035606" lon="31.2636541855"><ele>248.64</ele><time>2026-09-02T18:01:28Z</time></trkpt><trkpt lat="59.5564053208" lon="31.2636726256"><ele>248.64</ele><time>2026-09-02T18:01:29Z</time></trkpt><trkpt lat="59.5564060751" lon="31.2636922393"><ele>248.64</ele><time>2026-09-02T18:01:30Z</time></trkpt><trkpt lat="59.5564050693" lon="31.2637137808"><ele>248.64</ele><time>2026-09-02T18:01:31Z</time></trkpt><trkpt lat="59.5564042311" lon="31.2637364957"><ele>248.64</ele><time>2026-09-02T18:01:32Z</time></trkpt><trkpt lat="59.5564039797" lon="31.2637571990"><ele>248.64</ele><time>2026-09-02T18:01:33Z</time></trkpt><trkpt lat="59.5564004593" lon="31.2637800816"><ele>248.64</ele><time>2026-09-02T18:01:34Z</time></trkpt><trkpt lat="59.5563981961" lon="31.2638041377"><ele>248.64</ele><time>2026-09-02T18:01:35Z</time></trkpt><trkpt lat="59.5563950948" lon="31.2638326362"><ele>248.64</ele><time>2026-09-02T18:01:36Z</time></trkpt><trkpt lat="59.5563925803" lon="31.2638635654"><ele>248.64</ele><time>2026-09-02T18:01:37Z</time></trkpt><trkpt lat="59.5563892275" lon="31.2638959195"><ele>248.64</ele><time>2026-09-02T18:01:38Z</time></trkpt><trkpt lat="59.5563859586" lon="31.2639214844"><ele>248.64</ele><time>2026-09-02T18:01:39Z</time></trkpt><trkpt lat="59.5563832764" lon="31.2639442831"><ele>248.64</ele><time>2026-09-02T18:01:40Z</time></trkpt><trkpt lat="59.5563814323" lon="31.2639693450"><ele>248.64</ele><time>2026-09-02T18:01:41Z</time></trkpt><trkpt lat="59.5563803427" lon="31.2639909703"><ele>248.64</ele><time>2026-09-02T18:01:42Z</time></trkpt><trkpt lat="59.5563782472" lon="31.2640212290"><ele>248.64</ele><time>2026-09-02T18:01:43Z</time></trkpt><trkpt lat="59.5563770737" lon="31.2640468776"><ele>248.64</ele><time>2026-09-02T18:01:44Z</time></trkpt><trkpt lat="59.5563749783" lon="31.2640696764"><ele>248.64</ele><time>2026-09-02T18:01:45Z</time></trkpt><trkpt lat="59.5563688595" lon="31.2640905473"><ele>248.64</ele><time>2026-09-02T18:01:46Z</time></trkpt><trkpt lat="59.5563630760" lon="31.2641128432"><ele>248.64</ele><time>2026-09-02T18:01:47Z</time></trkpt><trkpt lat="59.5563626569" lon="31.2641365640"><ele>248.64</ele><time>2026-09-02T18:01:48Z</time></trkpt><trkpt lat="59.5563627407" lon="31.2641591951"><ele>248.16</ele><time>2026-09-02T18:01:49Z</time></trkpt><trkpt lat="59.5563614834" lon="31.2641834188"><ele>248.16</ele><time>2026-09-02T18:01:50Z</time></trkpt><trkpt lat="59.5563593879" lon="31.2642093189"><ele>248.16</ele><time>2026-09-02T18:01:51Z</time></trkpt><trkpt lat="59.5563581306" lon="31.2642335426"><ele>248.16</ele><time>2026-09-02T18:01:52Z</time></trkpt><trkpt lat="59.5563563704" lon="31.2642580178"><ele>248.16</ele><time>2026-09-02T18:01:53Z</time></trkpt><trkpt lat="59.5563555323" lon="31.2642813195"><ele>248.16</ele><time>2026-09-02T18:01:54Z</time></trkpt><trkpt lat="59.5563553646" lon="31.2643105723"><ele>248.16</ele><time>2026-09-02T18:01:55Z</time></trkpt><trkpt lat="59.5563573763" lon="31.2643351313"><ele>248.16</ele><time>2026-09-02T18:01:56Z</time></trkpt><trkpt lat="59.5563591365" lon="31.2643518951"><ele>248.16</ele><time>2026-09-02T18:01:57Z</time></trkpt><trkpt lat="59.5563597232" lon="31.2643672340"><ele>248.16</ele><time>2026-09-02T18:01:58Z</time></trkpt><trkpt lat="59.5563578792" lon="31.2643758673"><ele>248.16</ele><time>2026-09-02T18:01:59Z</time></trkpt><trkpt lat="59.5563578792" lon="31.2643758673"><ele>248.16</ele><time>2026-09-02T18:02:00Z</time></trkpt><trkpt lat="59.5563578792" lon="31.2643758673"><ele>248.16</ele><time>2026-09-02T18:02:01Z</time></trkpt><trkpt lat="59.5563578792" lon="31.2643758673"><ele>248.16</ele><time>2026-09-02T18:02:02Z</time></trkpt><trkpt lat="59.5563578792" lon="31.2643758673"><ele>248.16</ele><time>2026-09-02T18:02:03Z</time></trkpt><trkpt lat="59.5563578792" lon="31.2643758673"><ele>248.16</ele><time>2026-09-02T18:02:04Z</time></trkpt><trkpt lat="59.5563578792" lon="31.2643758673"><ele>248.16</ele><time>2026-09-02T18:02:05Z</time></trkpt><trkpt lat="59.5563578792" lon="31.2643758673"><ele>248.16</ele><time>2026-09-02T18:02:06Z</time></trkpt><trkpt lat="59.5563578792" lon="31.2643758673"><ele>248.16</ele><time>2026-09-02T18:02:07Z</time></trkpt><trkpt lat="59.5563578792" lon="31.2643758673"><ele>248.16</ele><time>2026-09-02T18:02:08Z</time></trkpt><trkpt lat="59.5563578792" lon="31.2643758673"><ele>248.16</ele><time>2026-09-02T18:02:09Z</time></trkpt><trkpt lat="59.5563578792" lon="31.2643758673"><ele>248.16</ele><time>2026-09-02T18:02:10Z</time></trkpt><trkpt lat="59.5563578792" lon="31.2643758673"><ele>248.16</ele><time>2026-09-02T18:02:11Z</time></trkpt><trkpt lat="59.5563578792" lon="31.2643758673"><ele>248.16</ele><time>2026-09-02T18:02:12Z</time></trkpt><trkpt lat="59.5563578792" lon="31.2643758673"><ele>248.16</ele><time>2026-09-02T18:02:13Z</time></trkpt><trkpt lat="59.5563578792" lon="31.2643758673"><ele>248.16</ele><time>2026-09-02T18:02:14Z</time></trkpt><trkpt lat="59.5563578792" lon="31.2643758673"><ele>248.16</ele><time>2026-09-02T18:02:15Z</time></trkpt><trkpt lat="59.5563578792" lon="31.2643758673"><ele>248.16</ele><time>2026-09-02T18:02:16Z</time></trkpt><trkpt lat="59.5563578792" lon="31.2643758673"><ele>248.16</ele><time>2026-09-02T18:02:17Z</time></trkpt><trkpt lat="59.5563578792" lon="31.2643758673"><ele>248.16</ele><time>2026-09-02T18:02:18Z</time></trkpt><trkpt lat="59.5563578792" lon="31.2643758673"><ele>248.16</ele><time>2026-09-02T18:02:19Z</time></trkpt><trkpt lat="59.5563578792" lon="31.2643758673"><ele>248.16</ele><time>2026-09-02T18:02:20Z</time></trkpt><trkpt lat="59.5563578792" lon="31.2643758673"><ele>248.16</ele><time>2026-09-02T18:02:21Z</time></trkpt><trkpt lat="59.5563578792" lon="31.2643758673"><ele>248.16</ele><time>2026-09-02T18:02:22Z</time></trkpt><trkpt lat="59.5563578792" lon="31.2643758673"><ele>248.16</ele><time>2026-09-02T18:02:23Z</time></trkpt><trkpt lat="59.5563578792" lon="31.2643758673"><ele>248.16</ele><time>2026-09-02T18:02:24Z</time></trkpt><trkpt lat="59.5563578792" lon="31.2643758673"><ele>248.16</ele><time>2026-09-02T18:02:25Z</time></trkpt><trkpt lat="59.5563578792" lon="31.2643758673"><ele>248.16</ele><time>2026-09-02T18:02:26Z</time></trkpt><trkpt lat="59.5563578792" lon="31.2643758673"><ele>248.16</ele><time>2026-09-02T18:02:27Z</time></trkpt><trkpt lat="59.5563578792" lon="31.2643758673"><ele>248.16</ele><time>2026-09-02T18:02:28Z</time></trkpt><trkpt lat="59.5563578792" lon="31.2643758673"><ele>248.16</ele><time>2026-09-02T18:02:29Z</time></trkpt><trkpt lat="59.5563578792" lon="31.2643758673"><ele>248.16</ele><time>2026-09-02T18:02:30Z</time></trkpt><trkpt lat="59.5563578792" lon="31.2643758673"><ele>248.16</ele><time>2026-09-02T18:02:31Z</time></trkpt><trkpt lat="59.5563578792" lon="31.2643758673"><ele>248.16</ele><time>2026-09-02T18:02:32Z</time></trkpt><trkpt lat="59.5563578792" lon="31.2643758673"><ele>248.16</ele><time>2026-09-02T18:02:33Z</time></trkpt><trkpt lat="59.5563578792" lon="31.2643758673"><ele>248.16</ele><time>2026-09-02T18:02:34Z</time></trkpt><trkpt lat="59.5563578792" lon="31.2643758673"><ele>248.16</ele><time>2026-09-02T18:02:35Z</time></trkpt><trkpt lat="59.5563578792" lon="31.2643758673"><ele>248.16</ele><time>2026-09-02T18:02:36Z</time></trkpt><trkpt lat="59.5563578792" lon="31.2643758673"><ele>248.16</ele><time>2026-09-02T18:02:37Z</time></trkpt><trkpt lat="59.5563578792" lon="31.2643758673"><ele>248.16</ele><time>2026-09-02T18:02:38Z</time></trkpt><trkpt lat="59.5563578792" lon="31.2643758673"><ele>248.16</ele><time>2026-09-02T18:02:39Z</time></trkpt><trkpt lat="59.5563578792" lon="31.2643758673"><ele>248.16</ele><time>2026-09-02T18:02:40Z</time></trkpt><trkpt lat="59.5563578792" lon="31.2643758673"><ele>248.16</ele><time>2026-09-02T18:02:41Z</time></trkpt><trkpt lat="59.5563578792" lon="31.2643758673"><ele>248.16</ele><time>2026-09-02T18:02:42Z</time></trkpt><trkpt lat="59.5563578792" lon="31.2643758673"><ele>248.16</ele><time>2026-09-02T18:02:43Z</time></trkpt><trkpt lat="59.5563578792" lon="31.2643758673"><ele>248.16</ele><time>2026-09-02T18:02:44Z</time></trkpt><trkpt lat="59.5563578792" lon="31.2643758673"><ele>248.16</ele><time>2026-09-02T18:02:45Z</time></trkpt><trkpt lat="59.5563578792" lon="31.2643758673"><ele>248.16</ele><time>2026-09-02T18:02:46Z</time></trkpt><trkpt lat="59.5563578792" lon="31.2643758673"><ele>248.16</ele><time>2026-09-02T18:02:47Z</time></trkpt><trkpt lat="59.5563578792" lon="31.2643758673"><ele>248.16</ele><time>2026-09-02T18:02:48Z</time></trkpt><trkpt lat="59.5563578792" lon="31.2643758673"><ele>248.16</ele><time>2026-09-02T18:02:49Z</time></trkpt><trkpt lat="59.5563578792" lon="31.2643758673"><ele>248.16</ele><time>2026-09-02T18:02:50Z</time></trkpt><trkpt lat="59.5563578792" lon="31.2643758673"><ele>248.16</ele><time>2026-09-02T18:02:51Z</time></trkpt><trkpt lat="59.5563578792" lon="31.2643758673"><ele>248.16</ele><time>2026-09-02T18:02:52Z</time></trkpt><trkpt lat="59.5563578792" lon="31.2643758673"><ele>248.16</ele><time>2026-09-02T18:02:53Z</time></trkpt><trkpt lat="59.5563578792" lon="31.2643758673"><ele>248.16</ele><time>2026-09-02T18:02:54Z</time></trkpt><trkpt lat="59.5563514251" lon="31.2644075509"><ele>248.16</ele><time>2026-09-02T18:02:55Z</time></trkpt><trkpt lat="59.5563482400" lon="31.2644241471"><ele>248.16</ele><time>2026-09-02T18:02:56Z</time></trkpt><trkpt lat="59.5563475695" lon="31.2644389831"><ele>248.16</ele><time>2026-09-02T18:02:57Z</time></trkpt><trkpt lat="59.5563471504" lon="31.2644540705"><ele>248.16</ele><time>2026-09-02T18:02:58Z</time></trkpt><trkpt lat="59.5563472342" lon="31.2644705828"><ele>248.16</ele><time>2026-09-02T18:02:59Z</time></trkpt><trkpt lat="59.5563475695" lon="31.2644879334"><ele>248.16</ele><time>2026-09-02T18:03:00Z</time></trkpt><trkpt lat="59.5563473180" lon="31.2645088881"><ele>248.16</ele><time>2026-09-02T18:03:01Z</time></trkpt><trkpt lat="59.5563465636" lon="31.2645300943"><ele>247.68</ele><time>2026-09-02T18:03:02Z</time></trkpt><trkpt lat="59.5563469827" lon="31.2645466905"><ele>247.68</ele><time>2026-09-02T18:03:03Z</time></trkpt><trkpt lat="59.5563482400" lon="31.2645679805"><ele>247.68</ele><time>2026-09-02T18:03:04Z</time></trkpt><trkpt lat="59.5563486591" lon="31.2645897735"><ele>247.68</ele><time>2026-09-02T18:03:05Z</time></trkpt><trkpt lat="59.5563512575" lon="31.2646095548"><ele>247.68</ele><time>2026-09-02T18:03:06Z</time></trkpt><trkpt lat="59.5563526824" lon="31.2646275759"><ele>247.68</ele><time>2026-09-02T18:03:07Z</time></trkpt><trkpt lat="59.5563539397" lon="31.2646422442"><ele>247.68</ele><time>2026-09-02T18:03:08Z</time></trkpt><trkpt lat="59.5563541912" lon="31.2646465190"><ele>247.68</ele><time>2026-09-02T18:03:09Z</time></trkpt><trkpt lat="59.5563556999" lon="31.2646485306"><ele>247.68</ele><time>2026-09-02T18:03:10Z</time></trkpt><trkpt lat="59.5563556999" lon="31.2646485306"><ele>247.68</ele><time>2026-09-02T18:03:11Z</time></trkpt><trkpt lat="59.5563556999" lon="31.2646485306"><ele>247.68</ele><time>2026-09-02T18:03:12Z</time></trkpt><trkpt lat="59.5563556999" lon="31.2646485306"><ele>247.68</ele><time>2026-09-02T18:03:13Z</time></trkpt><trkpt lat="59.5563556999" lon="31.2646485306"><ele>247.68</ele><time>2026-09-02T18:03:14Z</time></trkpt><trkpt lat="59.5563549455" lon="31.2646632828"><ele>247.68</ele><time>2026-09-02T18:03:15Z</time></trkpt><trkpt lat="59.5563535206" lon="31.2646804657"><ele>247.68</ele><time>2026-09-02T18:03:16Z</time></trkpt><trkpt lat="59.5563523471" lon="31.2646953855"><ele>247.68</ele><time>2026-09-02T18:03:17Z</time></trkpt><trkpt lat="59.5563509222" lon="31.2647136580"><ele>247.20</ele><time>2026-09-02T18:03:18Z</time></trkpt><trkpt lat="59.5563503355" lon="31.2647316791"><ele>247.20</ele><time>2026-09-02T18:03:19Z</time></trkpt><trkpt lat="59.5563496649" lon="31.2647482753"><ele>247.20</ele><time>2026-09-02T18:03:20Z</time></trkpt><trkpt lat="59.5563497487" lon="31.2647695653"><ele>247.20</ele><time>2026-09-02T18:03:21Z</time></trkpt><trkpt lat="59.5563484915" lon="31.2647941243"><ele>247.20</ele><time>2026-09-02T18:03:22Z</time></trkpt><trkpt lat="59.5563475695" lon="31.2648146600"><ele>247.20</ele><time>2026-09-02T18:03:23Z</time></trkpt><trkpt lat="59.5563468989" lon="31.2648388837"><ele>247.20</ele><time>2026-09-02T18:03:24Z</time></trkpt><trkpt lat="59.5563488267" lon="31.2648626883"><ele>247.20</ele><time>2026-09-02T18:03:25Z</time></trkpt><trkpt lat="59.5563489944" lon="31.2648895942"><ele>247.20</ele><time>2026-09-02T18:03:26Z</time></trkpt><trkpt lat="59.5563493297" lon="31.2649128959"><ele>247.20</ele><time>2026-09-02T18:03:27Z</time></trkpt><trkpt lat="59.5563501678" lon="31.2649450824"><ele>247.20</ele><time>2026-09-02T18:03:28Z</time></trkpt><trkpt lat="59.5563488267" lon="31.2649763469"><ele>247.20</ele><time>2026-09-02T18:03:29Z</time></trkpt><trkpt lat="59.5563495811" lon="31.2650181726"><ele>247.20</ele><time>2026-09-02T18:03:30Z</time></trkpt><trkpt lat="59.5563517604" lon="31.2650514487"><ele>247.20</ele><time>2026-09-02T18:03:31Z</time></trkpt><trkpt lat="59.5563527662" lon="31.2650824618"><ele>247.20</ele><time>2026-09-02T18:03:32Z</time></trkpt><trkpt lat="59.5563548617" lon="31.2651188392"><ele>247.20</ele><time>2026-09-02T18:03:33Z</time></trkpt><trkpt lat="59.5563558675" lon="31.2651559711"><ele>247.20</ele><time>2026-09-02T18:03:34Z</time></trkpt><trkpt lat="59.5563541912" lon="31.2651908398"><ele>246.72</ele><time>2026-09-02T18:03:35Z</time></trkpt><trkpt lat="59.5563536882" lon="31.2652230263"><ele>246.72</ele><time>2026-09-02T18:03:36Z</time></trkpt><trkpt lat="59.5563513413" lon="31.2652562186"><ele>246.72</ele><time>2026-09-02T18:03:37Z</time></trkpt><trkpt lat="59.5563498326" lon="31.2652860582"><ele>246.72</ele><time>2026-09-02T18:03:38Z</time></trkpt><trkpt lat="59.5563485753" lon="31.2653187476"><ele>246.23</ele><time>2026-09-02T18:03:39Z</time></trkpt><trkpt lat="59.5563469827" lon="31.2653505988"><ele>246.23</ele><time>2026-09-02T18:03:40Z</time></trkpt><trkpt lat="59.5563470665" lon="31.2653801870"><ele>246.23</ele><time>2026-09-02T18:03:41Z</time></trkpt><trkpt lat="59.5563449711" lon="31.2654111162"><ele>246.23</ele><time>2026-09-02T18:03:42Z</time></trkpt><trkpt lat="59.5563463960" lon="31.2654409558"><ele>246.23</ele><time>2026-09-02T18:03:43Z</time></trkpt><trkpt lat="59.5563465636" lon="31.2654620782"><ele>246.23</ele><time>2026-09-02T18:03:44Z</time></trkpt><trkpt lat="59.5563439652" lon="31.2654769979"><ele>246.23</ele><time>2026-09-02T18:03:45Z</time></trkpt><trkpt lat="59.5563437976" lon="31.2654875591"><ele>246.23</ele><time>2026-09-02T18:03:46Z</time></trkpt><trkpt lat="59.5563445520" lon="31.2654893193"><ele>246.23</ele><time>2026-09-02T18:03:47Z</time></trkpt><trkpt lat="59.5563445520" lon="31.2654893193"><ele>246.23</ele><time>2026-09-02T18:03:48Z</time></trkpt><trkpt lat="59.5563445520" lon="31.2654893193"><ele>246.23</ele><time>2026-09-02T18:03:49Z</time></trkpt><trkpt lat="59.5563445520" lon="31.2654893193"><ele>246.23</ele><time>2026-09-02T18:03:50Z</time></trkpt><trkpt lat="59.5563385170" lon="31.2654986233"><ele>246.23</ele><time>2026-09-02T18:03:51Z</time></trkpt><trkpt lat="59.5563365892" lon="31.2655128725"><ele>246.23</ele><time>2026-09-02T18:03:52Z</time></trkpt><trkpt lat="59.5563305542" lon="31.2655321509"><ele>246.23</ele><time>2026-09-02T18:03:53Z</time></trkpt><trkpt lat="59.5563297998" lon="31.2655475736"><ele>245.75</ele><time>2026-09-02T18:03:54Z</time></trkpt><trkpt lat="59.5563336555" lon="31.2655642536"><ele>245.75</ele><time>2026-09-02T18:03:55Z</time></trkpt><trkpt lat="59.5563337393" lon="31.2655802630"><ele>245.75</ele><time>2026-09-02T18:03:56Z</time></trkpt><trkpt lat="59.5563327335" lon="31.2655984517"><ele>245.75</ele><time>2026-09-02T18:03:57Z</time></trkpt><trkpt lat="59.5563261956" lon="31.2656222563"><ele>245.75</ele><time>2026-09-02T18:03:58Z</time></trkpt><trkpt lat="59.5563156344" lon="31.2656485755"><ele>245.27</ele><time>2026-09-02T18:03:59Z</time></trkpt><trkpt lat="59.5563068334" lon="31.2656725477"><ele>245.27</ele><time>2026-09-02T18:04:00Z</time></trkpt><trkpt lat="59.5563038997" lon="31.2656915747"><ele>245.27</ele><time>2026-09-02T18:04:01Z</time></trkpt><trkpt lat="59.5563048217" lon="31.2657078356"><ele>245.27</ele><time>2026-09-02T18:04:02Z</time></trkpt><trkpt lat="59.5563036483" lon="31.2657271978"><ele>245.27</ele><time>2026-09-02T18:04:03Z</time></trkpt><trkpt lat="59.5563011337" lon="31.2657510862"><ele>245.27</ele><time>2026-09-02T18:04:04Z</time></trkpt><trkpt lat="59.5562988706" lon="31.2657744717"><ele>245.27</ele><time>2026-09-02T18:04:05Z</time></trkpt><trkpt lat="59.5562971942" lon="31.2657996174"><ele>245.27</ele><time>2026-09-02T18:04:06Z</time></trkpt><trkpt lat="59.5562953502" lon="31.2658229191"><ele>245.27</ele><time>2026-09-02T18:04:07Z</time></trkpt><trkpt lat="59.5562930871" lon="31.2658440415"><ele>245.27</ele><time>2026-09-02T18:04:08Z</time></trkpt><trkpt lat="59.5562926680" lon="31.2658685166"><ele>245.27</ele><time>2026-09-02T18:04:09Z</time></trkpt><trkpt lat="59.5562905725" lon="31.2658935785"><ele>245.27</ele><time>2026-09-02T18:04:10Z</time></trkpt><trkpt lat="59.5562855434" lon="31.2659164611"><ele>245.27</ele><time>2026-09-02T18:04:11Z</time></trkpt><trkpt lat="59.5562795922" lon="31.2659370806"><ele>245.27</ele><time>2026-09-02T18:04:12Z</time></trkpt><trkpt lat="59.5562716294" lon="31.2659620587"><ele>245.27</ele><time>2026-09-02T18:04:13Z</time></trkpt><trkpt lat="59.5562675223" lon="31.2659826782"><ele>245.27</ele><time>2026-09-02T18:04:14Z</time></trkpt><trkpt lat="59.5562632475" lon="31.2660075724"><ele>245.27</ele><time>2026-09-02T18:04:15Z</time></trkpt><trkpt lat="59.5562644210" lon="31.2660293654"><ele>244.79</ele><time>2026-09-02T18:04:16Z</time></trkpt><trkpt lat="59.5562631637" lon="31.2660516612"><ele>244.79</ele><time>2026-09-02T18:04:17Z</time></trkpt><trkpt lat="59.5562623255" lon="31.2660740409"><ele>244.79</ele><time>2026-09-02T18:04:18Z</time></trkpt><trkpt lat="59.5562615711" lon="31.2660962529"><ele>244.79</ele><time>2026-09-02T18:04:19Z</time></trkpt><trkpt lat="59.5562615711" lon="31.2661169562"><ele>244.79</ele><time>2026-09-02T18:04:20Z</time></trkpt><trkpt lat="59.5562607329" lon="31.2661448680"><ele>244.79</ele><time>2026-09-02T18:04:21Z</time></trkpt><trkpt lat="59.5562599786" lon="31.2661644816"><ele>244.79</ele><time>2026-09-02T18:04:22Z</time></trkpt><trkpt lat="59.5562604815" lon="31.2661882862"><ele>244.79</ele><time>2026-09-02T18:04:23Z</time></trkpt><trkpt lat="59.5562599786" lon="31.2662115879"><ele>244.79</ele><time>2026-09-02T18:04:24Z</time></trkpt><trkpt lat="59.5562610682" lon="31.2662406731"><ele>244.79</ele><time>2026-09-02T18:04:25Z</time></trkpt><trkpt lat="59.5562632475" lon="31.2662627175"><ele>244.79</ele><time>2026-09-02T18:04:26Z</time></trkpt><trkpt lat="59.5562660974" lon="31.2662853487"><ele>244.79</ele><time>2026-09-02T18:04:27Z</time></trkpt><trkpt lat="59.5562687796" lon="31.2663069740"><ele>244.79</ele><time>2026-09-02T18:04:28Z</time></trkpt><trkpt lat="59.5562721323" lon="31.2663206365"><ele>244.79</ele><time>2026-09-02T18:04:29Z</time></trkpt><trkpt lat="59.5562759880" lon="31.2663292699"><ele>244.79</ele><time>2026-09-02T18:04:30Z</time></trkpt><trkpt lat="59.5562782511" lon="31.2663382385"><ele>244.79</ele><time>2026-09-02T18:04:31Z</time></trkpt><trkpt lat="59.5562810171" lon="31.2663452793"><ele>244.79</ele><time>2026-09-02T18:04:32Z</time></trkpt><trkpt lat="59.5562831964" lon="31.2663533259"><ele>244.79</ele><time>2026-09-02T18:04:33Z</time></trkpt><trkpt lat="59.5562886447" lon="31.2663643900"><ele>244.79</ele><time>2026-09-02T18:04:34Z</time></trkpt><trkpt lat="59.5562955178" lon="31.2663664855"><ele>244.79</ele><time>2026-09-02T18:04:35Z</time></trkpt><trkpt lat="59.5562955178" lon="31.2663664855"><ele>244.79</ele><time>2026-09-02T18:04:36Z</time></trkpt><trkpt lat="59.5562955178" lon="31.2663664855"><ele>244.79</ele><time>2026-09-02T18:04:37Z</time></trkpt><trkpt lat="59.5562955178" lon="31.2663664855"><ele>244.79</ele><time>2026-09-02T18:04:38Z</time></trkpt><trkpt lat="59.5562955178" lon="31.2663664855"><ele>244.79</ele><time>2026-09-02T18:04:39Z</time></trkpt><trkpt lat="59.5562955178" lon="31.2663664855"><ele>244.79</ele><time>2026-09-02T18:04:40Z</time></trkpt><trkpt lat="59.5562955178" lon="31.2663664855"><ele>244.79</ele><time>2026-09-02T18:04:41Z</time></trkpt><trkpt lat="59.5562955178" lon="31.2663664855"><ele>244.79</ele><time>2026-09-02T18:04:42Z</time></trkpt><trkpt lat="59.5563134551" lon="31.2664004322"><ele>244.79</ele><time>2026-09-02T18:04:43Z</time></trkpt><trkpt lat="59.5563122816" lon="31.2664070539"><ele>244.79</ele><time>2026-09-02T18:04:44Z</time></trkpt><trkpt lat="59.5563108567" lon="31.2664151844"><ele>244.79</ele><time>2026-09-02T18:04:45Z</time></trkpt><trkpt lat="59.5563101862" lon="31.2664240692"><ele>244.79</ele><time>2026-09-02T18:04:46Z</time></trkpt><trkpt lat="59.5563115273" lon="31.2664326187"><ele>244.79</ele><time>2026-09-02T18:04:47Z</time></trkpt><trkpt lat="59.5563099347" lon="31.2664415874"><ele>244.79</ele><time>2026-09-02T18:04:48Z</time></trkpt><trkpt lat="59.5563088451" lon="31.2664492987"><ele>244.79</ele><time>2026-09-02T18:04:49Z</time></trkpt><trkpt lat="59.5563080907" lon="31.2664571777"><ele>244.79</ele><time>2026-09-02T18:04:50Z</time></trkpt><trkpt lat="59.5563058276" lon="31.2664679904"><ele>244.79</ele><time>2026-09-02T18:04:51Z</time></trkpt><trkpt lat="59.5563027263" lon="31.2664806470"><ele>244.79</ele><time>2026-09-02T18:04:52Z</time></trkpt><trkpt lat="59.5563021395" lon="31.2664954830"><ele>244.79</ele><time>2026-09-02T18:04:53Z</time></trkpt><trkpt lat="59.5563008823" lon="31.2665115763"><ele>244.79</ele><time>2026-09-02T18:04:54Z</time></trkpt><trkpt lat="59.5562996250" lon="31.2665262446"><ele>244.79</ele><time>2026-09-02T18:04:55Z</time></trkpt><trkpt lat="59.5562961884" lon="31.2665412482"><ele>244.79</ele><time>2026-09-02T18:04:56Z</time></trkpt><trkpt lat="59.5562960207" lon="31.2665530667"><ele>244.79</ele><time>2026-09-02T18:04:57Z</time></trkpt><trkpt lat="59.5562949311" lon="31.2665659748"><ele>244.79</ele><time>2026-09-02T18:04:58Z</time></trkpt><trkpt lat="59.5562922489" lon="31.2665730994"><ele>244.79</ele><time>2026-09-02T18:04:59Z</time></trkpt><trkpt lat="59.5562922489" lon="31.2665730994"><ele>244.79</ele><time>2026-09-02T18:05:00Z</time></trkpt><trkpt lat="59.5562922489" lon="31.2665730994"><ele>244.79</ele><time>2026-09-02T18:05:01Z</time></trkpt><trkpt lat="59.5562922489" lon="31.2665730994"><ele>244.79</ele><time>2026-09-02T18:05:02Z</time></trkpt><trkpt lat="59.5562922489" lon="31.2665730994"><ele>244.79</ele><time>2026-09-02T18:05:03Z</time></trkpt><trkpt lat="59.5562922489" lon="31.2665730994"><ele>244.31</ele><time>2026-09-02T18:05:04Z</time></trkpt><trkpt lat="59.5562922489" lon="31.2665730994"><ele>244.31</ele><time>2026-09-02T18:05:05Z</time></trkpt><trkpt lat="59.5562922489" lon="31.2665730994"><ele>244.31</ele><time>2026-09-02T18:05:06Z</time></trkpt><trkpt lat="59.5562922489" lon="31.2665730994"><ele>244.31</ele><time>2026-09-02T18:05:07Z</time></trkpt><trkpt lat="59.5562922489" lon="31.2665730994"><ele>244.31</ele><time>2026-09-02T18:05:08Z</time></trkpt><trkpt lat="59.5562922489" lon="31.2665730994"><ele>244.31</ele><time>2026-09-02T18:05:09Z</time></trkpt><trkpt lat="59.5562922489" lon="31.2665730994"><ele>244.31</ele><time>2026-09-02T18:05:10Z</time></trkpt><trkpt lat="59.5562999602" lon="31.2666344550"><ele>244.31</ele><time>2026-09-02T18:05:11Z</time></trkpt><trkpt lat="59.5563018881" lon="31.2666449323"><ele>244.31</ele><time>2026-09-02T18:05:12Z</time></trkpt><trkpt lat="59.5563019719" lon="31.2666597683"><ele>244.79</ele><time>2026-09-02T18:05:13Z</time></trkpt><trkpt lat="59.5563017204" lon="31.2666722573"><ele>244.79</ele><time>2026-09-02T18:05:14Z</time></trkpt><trkpt lat="59.5563042350" lon="31.2666835729"><ele>244.79</ele><time>2026-09-02T18:05:15Z</time></trkpt><trkpt lat="59.5563075878" lon="31.2666948885"><ele>244.79</ele><time>2026-09-02T18:05:16Z</time></trkpt><trkpt lat="59.5563102700" lon="31.2667065393"><ele>244.79</ele><time>2026-09-02T18:05:17Z</time></trkpt><trkpt lat="59.5563148800" lon="31.2667255662"><ele>244.79</ele><time>2026-09-02T18:05:18Z</time></trkpt><trkpt lat="59.5563185681" lon="31.2667387258"><ele>244.79</ele><time>2026-09-02T18:05:19Z</time></trkpt><trkpt lat="59.5563243516" lon="31.2667496223"><ele>244.79</ele><time>2026-09-02T18:05:20Z</time></trkpt><trkpt lat="59.5563268661" lon="31.2667611893"><ele>244.79</ele><time>2026-09-02T18:05:21Z</time></trkpt><trkpt lat="59.5563280396" lon="31.2667752709"><ele>244.79</ele><time>2026-09-02T18:05:22Z</time></trkpt><trkpt lat="59.5563314762" lon="31.2667898554"><ele>244.79</ele><time>2026-09-02T18:05:23Z</time></trkpt><trkpt lat="59.5563407801" lon="31.2668122351"><ele>244.79</ele><time>2026-09-02T18:05:24Z</time></trkpt><trkpt lat="59.5563461445" lon="31.2668314297"><ele>244.79</ele><time>2026-09-02T18:05:25Z</time></trkpt><trkpt lat="59.5563498326" lon="31.2668428291"><ele>244.79</ele><time>2026-09-02T18:05:26Z</time></trkpt><trkpt lat="59.5563558675" lon="31.2668554857"><ele>244.79</ele><time>2026-09-02T18:05:27Z</time></trkpt><trkpt lat="59.5563621540" lon="31.2668700702"><ele>244.79</ele><time>2026-09-02T18:05:28Z</time></trkpt><trkpt lat="59.5563693624" lon="31.2668909412"><ele>244.79</ele><time>2026-09-02T18:05:29Z</time></trkpt><trkpt lat="59.5563738886" lon="31.2669086270"><ele>244.79</ele><time>2026-09-02T18:05:30Z</time></trkpt><trkpt lat="59.5563797560" lon="31.2669237982"><ele>244.79</ele><time>2026-09-02T18:05:31Z</time></trkpt><trkpt lat="59.5563871320" lon="31.2669401430"><ele>244.79</ele><time>2026-09-02T18:05:32Z</time></trkpt><trkpt lat="59.5563896466" lon="31.2669591699"><ele>244.79</ele><time>2026-09-02T18:05:33Z</time></trkpt><trkpt lat="59.5563924965" lon="31.2669750955"><ele>244.79</ele><time>2026-09-02T18:05:34Z</time></trkpt><trkpt lat="59.5563948434" lon="31.2669951282"><ele>244.79</ele><time>2026-09-02T18:05:35Z</time></trkpt><trkpt lat="59.5563981961" lon="31.2670146581"><ele>244.79</ele><time>2026-09-02T18:05:36Z</time></trkpt><trkpt lat="59.5564049855" lon="31.2670333497"><ele>244.79</ele><time>2026-09-02T18:05:37Z</time></trkpt><trkpt lat="59.5564108528" lon="31.2670536339"><ele>244.31</ele><time>2026-09-02T18:05:38Z</time></trkpt><trkpt lat="59.5564156305" lon="31.2670724932"><ele>244.31</ele><time>2026-09-02T18:05:39Z</time></trkpt><trkpt lat="59.5564264432" lon="31.2670827191"><ele>244.31</ele><time>2026-09-02T18:05:40Z</time></trkpt><trkpt lat="59.5564332325" lon="31.2670971360"><ele>244.31</ele><time>2026-09-02T18:05:41Z</time></trkpt><trkpt lat="59.5564413629" lon="31.2671081163"><ele>244.31</ele><time>2026-09-02T18:05:42Z</time></trkpt><trkpt lat="59.5564483199" lon="31.2671184260"><ele>244.31</ele><time>2026-09-02T18:05:43Z</time></trkpt><trkpt lat="59.5564519241" lon="31.2671302445"><ele>244.31</ele><time>2026-09-02T18:05:44Z</time></trkpt><trkpt lat="59.5564587973" lon="31.2671346869"><ele>244.31</ele><time>2026-09-02T18:05:45Z</time></trkpt><trkpt lat="59.5564673468" lon="31.2671365310"><ele>244.31</ele><time>2026-09-02T18:05:46Z</time></trkpt><trkpt lat="59.5564742200" lon="31.2671406381"><ele>244.31</ele><time>2026-09-02T18:05:47Z</time></trkpt><trkpt lat="59.5564850327" lon="31.2671461701"><ele>244.31</ele><time>2026-09-02T18:05:48Z</time></trkpt><trkpt lat="59.5564957615" lon="31.2671589945"><ele>244.31</ele><time>2026-09-02T18:05:49Z</time></trkpt><trkpt lat="59.5565023832" lon="31.2671705615"><ele>244.31</ele><time>2026-09-02T18:05:50Z</time></trkpt><trkpt lat="59.5565066580" lon="31.2671769317"><ele>244.31</ele><time>2026-09-02T18:05:51Z</time></trkpt><trkpt lat="59.5565132797" lon="31.2671812903"><ele>244.31</ele><time>2026-09-02T18:05:52Z</time></trkpt><trkpt lat="59.5565213263" lon="31.2671914324"><ele>244.31</ele><time>2026-09-02T18:05:53Z</time></trkpt><trkpt lat="59.5565213263" lon="31.2671914324"><ele>244.31</ele><time>2026-09-02T18:05:54Z</time></trkpt><trkpt lat="59.5565213263" lon="31.2671914324"><ele>244.31</ele><time>2026-09-02T18:05:55Z</time></trkpt><trkpt lat="59.5565213263" lon="31.2671914324"><ele>244.31</ele><time>2026-09-02T18:05:56Z</time></trkpt><trkpt lat="59.5565213263" lon="31.2671914324"><ele>244.31</ele><time>2026-09-02T18:05:57Z</time></trkpt><trkpt lat="59.5565213263" lon="31.2671914324"><ele>244.31</ele><time>2026-09-02T18:05:58Z</time></trkpt><trkpt lat="59.5565213263" lon="31.2671914324"><ele>244.31</ele><time>2026-09-02T18:05:59Z</time></trkpt><trkpt lat="59.5565213263" lon="31.2671914324"><ele>244.31</ele><time>2026-09-02T18:06:00Z</time></trkpt><trkpt lat="59.5565213263" lon="31.2671914324"><ele>244.31</ele><time>2026-09-02T18:06:01Z</time></trkpt><trkpt lat="59.5565213263" lon="31.2671914324"><ele>244.31</ele><time>2026-09-02T18:06:02Z</time></trkpt><trkpt lat="59.5565332286" lon="31.2672228646"><ele>244.31</ele><time>2026-09-02T18:06:03Z</time></trkpt><trkpt lat="59.5565381739" lon="31.2672314979"><ele>244.31</ele><time>2026-09-02T18:06:04Z</time></trkpt><trkpt lat="59.5565432869" lon="31.2672398798"><ele>244.31</ele><time>2026-09-02T18:06:05Z</time></trkpt><trkpt lat="59.5565454662" lon="31.2672498543"><ele>244.31</ele><time>2026-09-02T18:06:06Z</time></trkpt><trkpt lat="59.5565514173" lon="31.2672577333"><ele>244.31</ele><time>2026-09-02T18:06:07Z</time></trkpt><trkpt lat="59.5565583743" lon="31.2672679592"><ele>244.31</ele><time>2026-09-02T18:06:08Z</time></trkpt><trkpt lat="59.5565654989" lon="31.2672775984"><ele>244.31</ele><time>2026-09-02T18:06:09Z</time></trkpt><trkpt lat="59.5565700252" lon="31.2672946975"><ele>244.31</ele><time>2026-09-02T18:06:10Z</time></trkpt><trkpt lat="59.5565780718" lon="31.2673084438"><ele>244.31</ele><time>2026-09-02T18:06:11Z</time></trkpt><trkpt lat="59.5565862861" lon="31.2673233636"><ele>244.31</ele><time>2026-09-02T18:06:12Z</time></trkpt><trkpt lat="59.5565910637" lon="31.2673403788"><ele>244.31</ele><time>2026-09-02T18:06:13Z</time></trkpt><trkpt lat="59.5565953385" lon="31.2673580647"><ele>244.31</ele><time>2026-09-02T18:06:14Z</time></trkpt><trkpt lat="59.5566043910" lon="31.2673782650"><ele>244.31</ele><time>2026-09-02T18:06:15Z</time></trkpt><trkpt lat="59.5566121861" lon="31.2673953641"><ele>244.31</ele><time>2026-09-02T18:06:16Z</time></trkpt><trkpt lat="59.5566216577" lon="31.2674115412"><ele>244.31</ele><time>2026-09-02T18:06:17Z</time></trkpt><trkpt lat="59.5566312969" lon="31.2674246170"><ele>244.31</ele><time>2026-09-02T18:06:18Z</time></trkpt><trkpt lat="59.5566358231" lon="31.2674386986"><ele>244.31</ele><time>2026-09-02T18:06:19Z</time></trkpt><trkpt lat="59.5566430315" lon="31.2674523611"><ele>244.31</ele><time>2026-09-02T18:06:20Z</time></trkpt><trkpt lat="59.5566508267" lon="31.2674688734"><ele>244.31</ele><time>2026-09-02T18:06:21Z</time></trkpt><trkpt lat="59.5566574484" lon="31.2674820330"><ele>244.31</ele><time>2026-09-02T18:06:22Z</time></trkpt><trkpt lat="59.5566624776" lon="31.2674991321"><ele>244.31</ele><time>2026-09-02T18:06:23Z</time></trkpt><trkpt lat="59.5566693507" lon="31.2675136328"><ele>244.31</ele><time>2026-09-02T18:06:24Z</time></trkpt><trkpt lat="59.5566762239" lon="31.2675277982"><ele>244.31</ele><time>2026-09-02T18:06:25Z</time></trkpt><trkpt lat="59.5566843543" lon="31.2675421312"><ele>244.31</ele><time>2026-09-02T18:06:26Z</time></trkpt><trkpt lat="59.5566895511" lon="31.2675573863"><ele>244.31</ele><time>2026-09-02T18:06:27Z</time></trkpt><trkpt lat="59.5566962566" lon="31.2675699592"><ele>244.31</ele><time>2026-09-02T18:06:28Z</time></trkpt><trkpt lat="59.5567023754" lon="31.2675824482"><ele>244.31</ele><time>2026-09-02T18:06:29Z</time></trkpt><trkpt lat="59.5567095838" lon="31.2675992958"><ele>244.31</ele><time>2026-09-02T18:06:30Z</time></trkpt><trkpt lat="59.5567164570" lon="31.2676143833"><ele>244.31</ele><time>2026-09-02T18:06:31Z</time></trkpt><trkpt lat="59.5567325503" lon="31.2676437199"><ele>244.31</ele><time>2026-09-02T18:06:32Z</time></trkpt><trkpt lat="59.5567441173" lon="31.2676736433"><ele>244.79</ele><time>2026-09-02T18:06:33Z</time></trkpt><trkpt lat="59.5567589533" lon="31.2677004654"><ele>244.79</ele><time>2026-09-02T18:06:34Z</time></trkpt><trkpt lat="59.5567716938" lon="31.2677238509"><ele>244.79</ele><time>2026-09-02T18:06:35Z</time></trkpt><trkpt lat="59.5567829255" lon="31.2677452248"><ele>244.79</ele><time>2026-09-02T18:06:36Z</time></trkpt><trkpt lat="59.5567924809" lon="31.2677642517"><ele>244.79</ele><time>2026-09-02T18:06:37Z</time></trkpt><trkpt lat="59.5568021201" lon="31.2677803449"><ele>244.79</ele><time>2026-09-02T18:06:38Z</time></trkpt><trkpt lat="59.5568137709" lon="31.2678008806"><ele>244.79</ele><time>2026-09-02T18:06:39Z</time></trkpt><trkpt lat="59.5568241645" lon="31.2678197399"><ele>244.79</ele><time>2026-09-02T18:06:40Z</time></trkpt><trkpt lat="59.5568345580" lon="31.2678392697"><ele>244.79</ele><time>2026-09-02T18:06:41Z</time></trkpt><trkpt lat="59.5568439458" lon="31.2678549439"><ele>244.79</ele><time>2026-09-02T18:06:42Z</time></trkpt><trkpt lat="59.5568524953" lon="31.2678679358"><ele>244.79</ele><time>2026-09-02T18:06:43Z</time></trkpt><trkpt lat="59.5568605419" lon="31.2678825203"><ele>244.79</ele><time>2026-09-02T18:06:44Z</time></trkpt><trkpt lat="59.5568698458" lon="31.2678996194"><ele>244.79</ele><time>2026-09-02T18:06:45Z</time></trkpt><trkpt lat="59.5568796527" lon="31.2679136172"><ele>244.79</ele><time>2026-09-02T18:06:46Z</time></trkpt><trkpt lat="59.5568867773" lon="31.2679280341"><ele>244.79</ele><time>2026-09-02T18:06:47Z</time></trkpt><trkpt lat="59.5568913873" lon="31.2679439597"><ele>244.79</ele><time>2026-09-02T18:06:48Z</time></trkpt><trkpt lat="59.5568917226" lon="31.2679568678"><ele>244.79</ele><time>2026-09-02T18:06:49Z</time></trkpt><trkpt lat="59.5568914711" lon="31.2679664232"><ele>244.79</ele><time>2026-09-02T18:06:50Z</time></trkpt><trkpt lat="59.5568888728" lon="31.2679682672"><ele>244.79</ele><time>2026-09-02T18:06:51Z</time></trkpt><trkpt lat="59.5568888728" lon="31.2679682672"><ele>244.79</ele><time>2026-09-02T18:06:52Z</time></trkpt><trkpt lat="59.5568888728" lon="31.2679682672"><ele>244.79</ele><time>2026-09-02T18:06:53Z</time></trkpt><trkpt lat="59.5568888728" lon="31.2679682672"><ele>244.79</ele><time>2026-09-02T18:06:54Z</time></trkpt><trkpt lat="59.5568834245" lon="31.2679689378"><ele>244.79</ele><time>2026-09-02T18:06:55Z</time></trkpt><trkpt lat="59.5568853524" lon="31.2679643277"><ele>244.79</ele><time>2026-09-02T18:06:56Z</time></trkpt><trkpt lat="59.5568867773" lon="31.2679625675"><ele>244.79</ele><time>2026-09-02T18:06:57Z</time></trkpt><trkpt lat="59.5568871964" lon="31.2679616455"><ele>244.79</ele><time>2026-09-02T18:06:58Z</time></trkpt><trkpt lat="59.5568871964" lon="31.2679616455"><ele>244.79</ele><time>2026-09-02T18:06:59Z</time></trkpt><trkpt lat="59.5568871964" lon="31.2679616455"><ele>244.79</ele><time>2026-09-02T18:07:00Z</time></trkpt><trkpt lat="59.5568871964" lon="31.2679616455"><ele>244.79</ele><time>2026-09-02T18:07:01Z</time></trkpt><trkpt lat="59.5568871964" lon="31.2679616455"><ele>244.79</ele><time>2026-09-02T18:07:02Z</time></trkpt><trkpt lat="59.5568871964" lon="31.2679616455"><ele>244.79</ele><time>2026-09-02T18:07:03Z</time></trkpt><trkpt lat="59.5568871964" lon="31.2679616455"><ele>244.79</ele><time>2026-09-02T18:07:04Z</time></trkpt><trkpt lat="59.5568871964" lon="31.2679616455"><ele>244.79</ele><time>2026-09-02T18:07:05Z</time></trkpt><trkpt lat="59.5568871964" lon="31.2679616455"><ele>244.79</ele><time>2026-09-02T18:07:06Z</time></trkpt><trkpt lat="59.5568871964" lon="31.2679616455"><ele>244.79</ele><time>2026-09-02T18:07:07Z</time></trkpt><trkpt lat="59.5568871964" lon="31.2679616455"><ele>244.79</ele><time>2026-09-02T18:07:08Z</time></trkpt><trkpt lat="59.5568871964" lon="31.2679616455"><ele>244.79</ele><time>2026-09-02T18:07:09Z</time></trkpt><trkpt lat="59.5568871964" lon="31.2679616455"><ele>244.79</ele><time>2026-09-02T18:07:10Z</time></trkpt><trkpt lat="59.5568871964" lon="31.2679616455"><ele>244.79</ele><time>2026-09-02T18:07:11Z</time></trkpt><trkpt lat="59.5568871964" lon="31.2679616455"><ele>244.79</ele><time>2026-09-02T18:07:12Z</time></trkpt><trkpt lat="59.5568871964" lon="31.2679616455"><ele>244.79</ele><time>2026-09-02T18:07:13Z</time></trkpt><trkpt lat="59.5568871964" lon="31.2679616455"><ele>244.79</ele><time>2026-09-02T18:07:14Z</time></trkpt><trkpt lat="59.5568871964" lon="31.2679616455"><ele>244.79</ele><time>2026-09-02T18:07:15Z</time></trkpt><trkpt lat="59.5568871964" lon="31.2679616455"><ele>244.79</ele><time>2026-09-02T18:07:16Z</time></trkpt><trkpt lat="59.5568871964" lon="31.2679616455"><ele>244.79</ele><time>2026-09-02T18:07:17Z</time></trkpt><trkpt lat="59.5568871964" lon="31.2679616455"><ele>244.79</ele><time>2026-09-02T18:07:18Z</time></trkpt><trkpt lat="59.5568871964" lon="31.2679616455"><ele>244.79</ele><time>2026-09-02T18:07:19Z</time></trkpt><trkpt lat="59.5568871964" lon="31.2679616455"><ele>244.79</ele><time>2026-09-02T18:07:20Z</time></trkpt><trkpt lat="59.5568871964" lon="31.2679616455"><ele>244.79</ele><time>2026-09-02T18:07:21Z</time></trkpt><trkpt lat="59.5568871964" lon="31.2679616455"><ele>244.79</ele><time>2026-09-02T18:07:22Z</time></trkpt><trkpt lat="59.5568871964" lon="31.2679616455"><ele>244.79</ele><time>2026-09-02T18:07:23Z</time></trkpt><trkpt lat="59.5568871964" lon="31.2679616455"><ele>244.79</ele><time>2026-09-02T18:07:24Z</time></trkpt><trkpt lat="59.5568871964" lon="31.2679616455"><ele>244.79</ele><time>2026-09-02T18:07:25Z</time></trkpt><trkpt lat="59.5568871964" lon="31.2679616455"><ele>244.79</ele><time>2026-09-02T18:07:26Z</time></trkpt><trkpt lat="59.5568871964" lon="31.2679616455"><ele>244.79</ele><time>2026-09-02T18:07:27Z</time></trkpt><trkpt lat="59.5568871964" lon="31.2679616455"><ele>244.79</ele><time>2026-09-02T18:07:28Z</time></trkpt><trkpt lat="59.5568871964" lon="31.2679616455"><ele>244.79</ele><time>2026-09-02T18:07:29Z</time></trkpt><trkpt lat="59.5568871964" lon="31.2679616455"><ele>244.79</ele><time>2026-09-02T18:07:30Z</time></trkpt><trkpt lat="59.5568871964" lon="31.2679616455"><ele>244.79</ele><time>2026-09-02T18:07:31Z</time></trkpt><trkpt lat="59.5568871964" lon="31.2679616455"><ele>244.79</ele><time>2026-09-02T18:07:32Z</time></trkpt><trkpt lat="59.5568871964" lon="31.2679616455"><ele>244.79</ele><time>2026-09-02T18:07:33Z</time></trkpt><trkpt lat="59.5568871964" lon="31.2679616455"><ele>244.79</ele><time>2026-09-02T18:07:34Z</time></trkpt><trkpt lat="59.5568871964" lon="31.2679616455"><ele>244.79</ele><time>2026-09-02T18:07:35Z</time></trkpt><trkpt lat="59.5568871964" lon="31.2679616455"><ele>244.79</ele><time>2026-09-02T18:07:36Z</time></trkpt><trkpt lat="59.5568871964" lon="31.2679616455"><ele>244.79</ele><time>2026-09-02T18:07:37Z</time></trkpt><trkpt lat="59.5568871964" lon="31.2679616455"><ele>244.79</ele><time>2026-09-02T18:07:38Z</time></trkpt><trkpt lat="59.5568871964" lon="31.2679616455"><ele>244.79</ele><time>2026-09-02T18:07:39Z</time></trkpt><trkpt lat="59.5568871964" lon="31.2679616455"><ele>244.79</ele><time>2026-09-02T18:07:40Z</time></trkpt><trkpt lat="59.5568871964" lon="31.2679616455"><ele>244.79</ele><time>2026-09-02T18:07:41Z</time></trkpt><trkpt lat="59.5568871964" lon="31.2679616455"><ele>244.79</ele><time>2026-09-02T18:07:42Z</time></trkpt><trkpt lat="59.5568871964" lon="31.2679616455"><ele>244.79</ele><time>2026-09-02T18:07:43Z</time></trkpt><trkpt lat="59.5568871964" lon="31.2679616455"><ele>244.79</ele><time>2026-09-02T18:07:44Z</time></trkpt><trkpt lat="59.5568871964" lon="31.2679616455"><ele>244.79</ele><time>2026-09-02T18:07:45Z</time></trkpt><trkpt lat="59.5568871964" lon="31.2679616455"><ele>244.79</ele><time>2026-09-02T18:07:46Z</time></trkpt><trkpt lat="59.5568871964" lon="31.2679616455"><ele>244.79</ele><time>2026-09-02T18:07:47Z</time></trkpt><trkpt lat="59.5568871964" lon="31.2679616455"><ele>244.79</ele><time>2026-09-02T18:07:48Z</time></trkpt><trkpt lat="59.5568871964" lon="31.2679616455"><ele>244.79</ele><time>2026-09-02T18:07:49Z</time></trkpt><trkpt lat="59.5568871964" lon="31.2679616455"><ele>244.79</ele><time>2026-09-02T18:07:50Z</time></trkpt><trkpt lat="59.5568871964" lon="31.2679616455"><ele>244.79</ele><time>2026-09-02T18:07:51Z</time></trkpt><trkpt lat="59.5568871964" lon="31.2679616455"><ele>244.79</ele><time>2026-09-02T18:07:52Z</time></trkpt><trkpt lat="59.5568871964" lon="31.2679616455"><ele>244.79</ele><time>2026-09-02T18:07:53Z</time></trkpt><trkpt lat="59.5568871964" lon="31.2679616455"><ele>244.79</ele><time>2026-09-02T18:07:54Z</time></trkpt><trkpt lat="59.5568871964" lon="31.2679616455"><ele>244.79</ele><time>2026-09-02T18:07:55Z</time></trkpt><trkpt lat="59.5568871964" lon="31.2679616455"><ele>244.79</ele><time>2026-09-02T18:07:56Z</time></trkpt><trkpt lat="59.5568871964" lon="31.2679616455"><ele>244.79</ele><time>2026-09-02T18:07:57Z</time></trkpt><trkpt lat="59.5568871964" lon="31.2679616455"><ele>244.79</ele><time>2026-09-02T18:07:58Z</time></trkpt><trkpt lat="59.5568871964" lon="31.2679616455"><ele>244.79</ele><time>2026-09-02T18:07:59Z</time></trkpt><trkpt lat="59.5568871964" lon="31.2679616455"><ele>244.79</ele><time>2026-09-02T18:08:00Z</time></trkpt><trkpt lat="59.5568871964" lon="31.2679616455"><ele>244.79</ele><time>2026-09-02T18:08:01Z</time></trkpt><trkpt lat="59.5568871964" lon="31.2679616455"><ele>244.79</ele><time>2026-09-02T18:08:02Z</time></trkpt><trkpt lat="59.5568871964" lon="31.2679616455"><ele>244.79</ele><time>2026-09-02T18:08:03Z</time></trkpt><trkpt lat="59.5568871964" lon="31.2679616455"><ele>244.79</ele><time>2026-09-02T18:08:04Z</time></trkpt><trkpt lat="59.5568871964" lon="31.2679616455"><ele>244.79</ele><time>2026-09-02T18:08:05Z</time></trkpt><trkpt lat="59.5568871964" lon="31.2679616455"><ele>244.79</ele><time>2026-09-02T18:08:06Z</time></trkpt><trkpt lat="59.5568871964" lon="31.2679616455"><ele>244.79</ele><time>2026-09-02T18:08:07Z</time></trkpt><trkpt lat="59.5568941534" lon="31.2679518387"><ele>244.79</ele><time>2026-09-02T18:08:08Z</time></trkpt><trkpt lat="59.5569005236" lon="31.2679580413"><ele>244.79</ele><time>2026-09-02T18:08:09Z</time></trkpt><trkpt lat="59.5569089893" lon="31.2679599691"><ele>244.79</ele><time>2026-09-02T18:08:10Z</time></trkpt><trkpt lat="59.5569211431" lon="31.2679619808"><ele>244.79</ele><time>2026-09-02T18:08:11Z</time></trkpt><trkpt lat="59.5569293573" lon="31.2679670937"><ele>244.79</ele><time>2026-09-02T18:08:12Z</time></trkpt><trkpt lat="59.5569375716" lon="31.2679716200"><ele>244.79</ele><time>2026-09-02T18:08:13Z</time></trkpt><trkpt lat="59.5569485519" lon="31.2679742184"><ele>244.79</ele><time>2026-09-02T18:08:14Z</time></trkpt><trkpt lat="59.5569610409" lon="31.2679761462"><ele>244.79</ele><time>2026-09-02T18:08:15Z</time></trkpt><trkpt lat="59.5569716860" lon="31.2679783255"><ele>244.79</ele><time>2026-09-02T18:08:16Z</time></trkpt><trkpt lat="59.5569830853" lon="31.2679818459"><ele>244.79</ele><time>2026-09-02T18:08:17Z</time></trkpt><trkpt lat="59.5569936465" lon="31.2679853663"><ele>244.79</ele><time>2026-09-02T18:08:18Z</time></trkpt><trkpt lat="59.5570043754" lon="31.2679892220"><ele>244.79</ele><time>2026-09-02T18:08:19Z</time></trkpt><trkpt lat="59.5570129249" lon="31.2679932453"><ele>244.79</ele><time>2026-09-02T18:08:20Z</time></trkpt><trkpt lat="59.5570216421" lon="31.2679953407"><ele>244.79</ele><time>2026-09-02T18:08:21Z</time></trkpt><trkpt lat="59.5570332929" lon="31.2679973524"><ele>244.31</ele><time>2026-09-02T18:08:22Z</time></trkpt><trkpt lat="59.5570457820" lon="31.2680005375"><ele>244.31</ele><time>2026-09-02T18:08:23Z</time></trkpt><trkpt lat="59.5570595283" lon="31.2680031359"><ele>244.31</ele><time>2026-09-02T18:08:24Z</time></trkpt><trkpt lat="59.5570711792" lon="31.2680043932"><ele>244.31</ele><time>2026-09-02T18:08:25Z</time></trkpt><trkpt lat="59.5570828300" lon="31.2680035550"><ele>244.31</ele><time>2026-09-02T18:08:26Z</time></trkpt><trkpt lat="59.5570915472" lon="31.2680058181"><ele>244.31</ele><time>2026-09-02T18:08:27Z</time></trkpt><trkpt lat="59.5571014378" lon="31.2680062372"><ele>244.31</ele><time>2026-09-02T18:08:28Z</time></trkpt><trkpt lat="59.5571147650" lon="31.2680043932"><ele>244.31</ele><time>2026-09-02T18:08:29Z</time></trkpt><trkpt lat="59.5571278408" lon="31.2680036388"><ele>244.31</ele><time>2026-09-02T18:08:30Z</time></trkpt><trkpt lat="59.5571387373" lon="31.2680041417"><ele>244.31</ele><time>2026-09-02T18:08:31Z</time></trkpt><trkpt lat="59.5571485441" lon="31.2680059858"><ele>244.31</ele><time>2026-09-02T18:08:32Z</time></trkpt><trkpt lat="59.5571594406" lon="31.2680053990"><ele>244.31</ele><time>2026-09-02T18:08:33Z</time></trkpt><trkpt lat="59.5571710914" lon="31.2680046447"><ele>244.31</ele><time>2026-09-02T18:08:34Z</time></trkpt><trkpt lat="59.5571815688" lon="31.2680031359"><ele>244.31</ele><time>2026-09-02T18:08:35Z</time></trkpt><trkpt lat="59.5571919624" lon="31.2680008728"><ele>244.31</ele><time>2026-09-02T18:08:36Z</time></trkpt><trkpt lat="59.5572019368" lon="31.2679990288"><ele>244.31</ele><time>2026-09-02T18:08:37Z</time></trkpt><trkpt lat="59.5572130848" lon="31.2679978553"><ele>244.31</ele><time>2026-09-02T18:08:38Z</time></trkpt><trkpt lat="59.5572257414" lon="31.2679969333"><ele>244.31</ele><time>2026-09-02T18:08:39Z</time></trkpt><trkpt lat="59.5572360512" lon="31.2680001184"><ele>244.31</ele><time>2026-09-02T18:08:40Z</time></trkpt><trkpt lat="59.5572485402" lon="31.2679973524"><ele>244.31</ele><time>2026-09-02T18:08:41Z</time></trkpt><trkpt lat="59.5572588500" lon="31.2679939996"><ele>244.31</ele><time>2026-09-02T18:08:42Z</time></trkpt><trkpt lat="59.5572701655" lon="31.2679915689"><ele>244.31</ele><time>2026-09-02T18:08:43Z</time></trkpt><trkpt lat="59.5572813973" lon="31.2679879647"><ele>244.31</ele><time>2026-09-02T18:08:44Z</time></trkpt><trkpt lat="59.5572910365" lon="31.2679859530"><ele>244.79</ele><time>2026-09-02T18:08:45Z</time></trkpt><trkpt lat="59.5573029388" lon="31.2679847796"><ele>244.79</ele><time>2026-09-02T18:08:46Z</time></trkpt><trkpt lat="59.5573168527" lon="31.2679825164"><ele>244.79</ele><time>2026-09-02T18:08:47Z</time></trkpt><trkpt lat="59.5573291741" lon="31.2679831870"><ele>244.79</ele><time>2026-09-02T18:08:48Z</time></trkpt><trkpt lat="59.5573421661" lon="31.2679781578"><ele>244.79</ele><time>2026-09-02T18:08:49Z</time></trkpt><trkpt lat="59.5573547389" lon="31.2679756433"><ele>244.79</ele><time>2026-09-02T18:08:50Z</time></trkpt><trkpt lat="59.5573665574" lon="31.2679755595"><ele>244.31</ele><time>2026-09-02T18:08:51Z</time></trkpt><trkpt lat="59.5573799685" lon="31.2679774873"><ele>244.31</ele><time>2026-09-02T18:08:52Z</time></trkpt><trkpt lat="59.5573934633" lon="31.2679820973"><ele>244.31</ele><time>2026-09-02T18:08:53Z</time></trkpt><trkpt lat="59.5574065391" lon="31.2679867912"><ele>244.31</ele><time>2026-09-02T18:08:54Z</time></trkpt><trkpt lat="59.5574173518" lon="31.2679932453"><ele>244.31</ele><time>2026-09-02T18:08:55Z</time></trkpt><trkpt lat="59.5574272424" lon="31.2679987773"><ele>244.31</ele><time>2026-09-02T18:08:56Z</time></trkpt><trkpt lat="59.5574387256" lon="31.2679992802"><ele>244.31</ele><time>2026-09-02T18:08:57Z</time></trkpt><trkpt lat="59.5574498735" lon="31.2679965980"><ele>244.31</ele><time>2026-09-02T18:08:58Z</time></trkpt><trkpt lat="59.5574608538" lon="31.2679982744"><ele>244.31</ele><time>2026-09-02T18:08:59Z</time></trkpt><trkpt lat="59.5574714988" lon="31.2679977715"><ele>244.31</ele><time>2026-09-02T18:09:00Z</time></trkpt><trkpt lat="59.5574801322" lon="31.2679961789"><ele>244.31</ele><time>2026-09-02T18:09:01Z</time></trkpt><trkpt lat="59.5574888494" lon="31.2679936644"><ele>244.31</ele><time>2026-09-02T18:09:02Z</time></trkpt><trkpt lat="59.5575001650" lon="31.2679877970"><ele>244.31</ele><time>2026-09-02T18:09:03Z</time></trkpt><trkpt lat="59.5575120673" lon="31.2679784931"><ele>244.31</ele><time>2026-09-02T18:09:04Z</time></trkpt><trkpt lat="59.5575208683" lon="31.2679713685"><ele>244.31</ele><time>2026-09-02T18:09:05Z</time></trkpt><trkpt lat="59.5575297531" lon="31.2679664232"><ele>243.83</ele><time>2026-09-02T18:09:06Z</time></trkpt><trkpt lat="59.5575418230" lon="31.2679612264"><ele>243.83</ele><time>2026-09-02T18:09:07Z</time></trkpt><trkpt lat="59.5575540606" lon="31.2679615617"><ele>243.83</ele><time>2026-09-02T18:09:08Z</time></trkpt><trkpt lat="59.5575627778" lon="31.2679644953"><ele>243.83</ele><time>2026-09-02T18:09:09Z</time></trkpt><trkpt lat="59.5575706568" lon="31.2679675967"><ele>243.83</ele><time>2026-09-02T18:09:10Z</time></trkpt><trkpt lat="59.5575832296" lon="31.2679684348"><ele>243.83</ele><time>2026-09-02T18:09:11Z</time></trkpt><trkpt lat="59.5575910248" lon="31.2679708656"><ele>243.83</ele><time>2026-09-02T18:09:12Z</time></trkpt><trkpt lat="59.5575981494" lon="31.2679704465"><ele>243.83</ele><time>2026-09-02T18:09:13Z</time></trkpt><trkpt lat="59.5576086268" lon="31.2679648306"><ele>243.83</ele><time>2026-09-02T18:09:14Z</time></trkpt><trkpt lat="59.5576187689" lon="31.2679608911"><ele>243.83</ele><time>2026-09-02T18:09:15Z</time></trkpt><trkpt lat="59.5576271508" lon="31.2679640763"><ele>243.83</ele><time>2026-09-02T18:09:16Z</time></trkpt><trkpt lat="59.5576383825" lon="31.2679618970"><ele>243.83</ele><time>2026-09-02T18:09:17Z</time></trkpt><trkpt lat="59.5576487761" lon="31.2679612264"><ele>243.83</ele><time>2026-09-02T18:09:18Z</time></trkpt><trkpt lat="59.5576635282" lon="31.2679569516"><ele>243.83</ele><time>2026-09-02T18:09:19Z</time></trkpt><trkpt lat="59.5576768555" lon="31.2679548562"><ele>243.83</ele><time>2026-09-02T18:09:20Z</time></trkpt><trkpt lat="59.5576882549" lon="31.2679565325"><ele>243.83</ele><time>2026-09-02T18:09:21Z</time></trkpt><trkpt lat="59.5576981455" lon="31.2679617293"><ele>243.83</ele><time>2026-09-02T18:09:22Z</time></trkpt><trkpt lat="59.5577089582" lon="31.2679624837"><ele>243.83</ele><time>2026-09-02T18:09:23Z</time></trkpt><trkpt lat="59.5577178430" lon="31.2679602206"><ele>243.83</ele><time>2026-09-02T18:09:24Z</time></trkpt><trkpt lat="59.5577267278" lon="31.2679562811"><ele>243.83</ele><time>2026-09-02T18:09:25Z</time></trkpt><trkpt lat="59.5577385463" lon="31.2679543532"><ele>243.83</ele><time>2026-09-02T18:09:26Z</time></trkpt><trkpt lat="59.5577485207" lon="31.2679560296"><ele>243.83</ele><time>2026-09-02T18:09:27Z</time></trkpt><trkpt lat="59.5577588305" lon="31.2679633219"><ele>243.83</ele><time>2026-09-02T18:09:28Z</time></trkpt><trkpt lat="59.5577721577" lon="31.2679656688"><ele>243.83</ele><time>2026-09-02T18:09:29Z</time></trkpt><trkpt lat="59.5577827189" lon="31.2679603882"><ele>243.83</ele><time>2026-09-02T18:09:30Z</time></trkpt><trkpt lat="59.5577922743" lon="31.2679571193"><ele>243.83</ele><time>2026-09-02T18:09:31Z</time></trkpt><trkpt lat="59.5578046795" lon="31.2679550238"><ele>243.83</ele><time>2026-09-02T18:09:32Z</time></trkpt><trkpt lat="59.5578186773" lon="31.2679519225"><ele>243.35</ele><time>2026-09-02T18:09:33Z</time></trkpt><trkpt lat="59.5578295738" lon="31.2679495756"><ele>243.35</ele><time>2026-09-02T18:09:34Z</time></trkpt><trkpt lat="59.5578392968" lon="31.2679503299"><ele>243.35</ele><time>2026-09-02T18:09:35Z</time></trkpt><trkpt lat="59.5578524563" lon="31.2679512519"><ele>243.35</ele><time>2026-09-02T18:09:36Z</time></trkpt><trkpt lat="59.5578642748" lon="31.2679545209"><ele>243.35</ele><time>2026-09-02T18:09:37Z</time></trkpt><trkpt lat="59.5578741655" lon="31.2679589633"><ele>243.35</ele><time>2026-09-02T18:09:38Z</time></trkpt><trkpt lat="59.5578873251" lon="31.2679641601"><ele>243.35</ele><time>2026-09-02T18:09:39Z</time></trkpt><trkpt lat="59.5578998979" lon="31.2679715361"><ele>243.35</ele><time>2026-09-02T18:09:40Z</time></trkpt><trkpt lat="59.5579106268" lon="31.2679753918"><ele>243.35</ele><time>2026-09-02T18:09:41Z</time></trkpt><trkpt lat="59.5579206850" lon="31.2679842766"><ele>243.35</ele><time>2026-09-02T18:09:42Z</time></trkpt><trkpt lat="59.5579309948" lon="31.2679943349"><ele>243.35</ele><time>2026-09-02T18:09:43Z</time></trkpt><trkpt lat="59.5579405501" lon="31.2680042256"><ele>243.35</ele><time>2026-09-02T18:09:44Z</time></trkpt><trkpt lat="59.5579509437" lon="31.2680139486"><ele>243.35</ele><time>2026-09-02T18:09:45Z</time></trkpt><trkpt lat="59.5579603314" lon="31.2680208217"><ele>243.35</ele><time>2026-09-02T18:09:46Z</time></trkpt><trkpt lat="59.5579698868" lon="31.2680266891"><ele>243.35</ele><time>2026-09-02T18:09:47Z</time></trkpt><trkpt lat="59.5579782687" lon="31.2680312991"><ele>243.35</ele><time>2026-09-02T18:09:48Z</time></trkpt><trkpt lat="59.5579886623" lon="31.2680325564"><ele>243.35</ele><time>2026-09-02T18:09:49Z</time></trkpt><trkpt lat="59.5579988882" lon="31.2680301256"><ele>243.35</ele><time>2026-09-02T18:09:50Z</time></trkpt><trkpt lat="59.5580096170" lon="31.2680262700"><ele>243.35</ele><time>2026-09-02T18:09:51Z</time></trkpt><trkpt lat="59.5580205973" lon="31.2680308800"><ele>242.87</ele><time>2026-09-02T18:09:52Z</time></trkpt><trkpt lat="59.5580276381" lon="31.2680395972"><ele>242.87</ele><time>2026-09-02T18:09:53Z</time></trkpt><trkpt lat="59.5580363553" lon="31.2680434529"><ele>242.87</ele><time>2026-09-02T18:09:54Z</time></trkpt><trkpt lat="59.5580440667" lon="31.2680434529"><ele>242.87</ele><time>2026-09-02T18:09:55Z</time></trkpt><trkpt lat="59.5580512751" lon="31.2680436205"><ele>242.87</ele><time>2026-09-02T18:09:56Z</time></trkpt><trkpt lat="59.5580580644" lon="31.2680446263"><ele>242.87</ele><time>2026-09-02T18:09:57Z</time></trkpt><trkpt lat="59.5580657758" lon="31.2680448778"><ele>242.87</ele><time>2026-09-02T18:09:58Z</time></trkpt><trkpt lat="59.5580714755" lon="31.2680475600"><ele>243.35</ele><time>2026-09-02T18:09:59Z</time></trkpt><trkpt lat="59.5580768399" lon="31.2680473924"><ele>243.35</ele><time>2026-09-02T18:10:00Z</time></trkpt><trkpt lat="59.5580868982" lon="31.2680430338"><ele>243.35</ele><time>2026-09-02T18:10:01Z</time></trkpt><trkpt lat="59.5580952801" lon="31.2680333946"><ele>243.35</ele><time>2026-09-02T18:10:02Z</time></trkpt><trkpt lat="59.5581030753" lon="31.2680217437"><ele>243.35</ele><time>2026-09-02T18:10:03Z</time></trkpt><trkpt lat="59.5581098646" lon="31.2680116855"><ele>243.35</ele><time>2026-09-02T18:10:04Z</time></trkpt><trkpt lat="59.5581180789" lon="31.2680054829"><ele>243.35</ele><time>2026-09-02T18:10:05Z</time></trkpt><trkpt lat="59.5581286401" lon="31.2679983582"><ele>243.35</ele><time>2026-09-02T18:10:06Z</time></trkpt><trkpt lat="59.5581364352" lon="31.2679816782"><ele>243.35</ele><time>2026-09-02T18:10:07Z</time></trkpt><trkpt lat="59.5581464935" lon="31.2679726258"><ele>243.35</ele><time>2026-09-02T18:10:08Z</time></trkpt><trkpt lat="59.5581550431" lon="31.2679659203"><ele>243.35</ele><time>2026-09-02T18:10:09Z</time></trkpt><trkpt lat="59.5581634250" lon="31.2679601368"><ele>243.35</ele><time>2026-09-02T18:10:10Z</time></trkpt><trkpt lat="59.5581730641" lon="31.2679561973"><ele>243.35</ele><time>2026-09-02T18:10:11Z</time></trkpt><trkpt lat="59.5581833739" lon="31.2679525930"><ele>243.35</ele><time>2026-09-02T18:10:12Z</time></trkpt><trkpt lat="59.5581900794" lon="31.2679490726"><ele>243.35</ele><time>2026-09-02T18:10:13Z</time></trkpt><trkpt lat="59.5581994671" lon="31.2679493241"><ele>243.35</ele><time>2026-09-02T18:10:14Z</time></trkpt><trkpt lat="59.5582109503" lon="31.2679452170"><ele>243.35</ele><time>2026-09-02T18:10:15Z</time></trkpt><trkpt lat="59.5582224336" lon="31.2679408584"><ele>243.35</ele><time>2026-09-02T18:10:16Z</time></trkpt><trkpt lat="59.5582330786" lon="31.2679361645"><ele>243.35</ele><time>2026-09-02T18:10:17Z</time></trkpt><trkpt lat="59.5582422987" lon="31.2679305486"><ele>243.35</ele><time>2026-09-02T18:10:18Z</time></trkpt><trkpt lat="59.5582537819" lon="31.2679291237"><ele>243.35</ele><time>2026-09-02T18:10:19Z</time></trkpt><trkpt lat="59.5582649298" lon="31.2679281179"><ele>243.35</ele><time>2026-09-02T18:10:20Z</time></trkpt><trkpt lat="59.5582755748" lon="31.2679271959"><ele>243.35</ele><time>2026-09-02T18:10:21Z</time></trkpt><trkpt lat="59.5582867227" lon="31.2679276988"><ele>243.35</ele><time>2026-09-02T18:10:22Z</time></trkpt><trkpt lat="59.5582987927" lon="31.2679307163"><ele>243.35</ele><time>2026-09-02T18:10:23Z</time></trkpt><trkpt lat="59.5583115332" lon="31.2679333985"><ele>243.35</ele><time>2026-09-02T18:10:24Z</time></trkpt><trkpt lat="59.5583245251" lon="31.2679404393"><ele>243.35</ele><time>2026-09-02T18:10:25Z</time></trkpt><trkpt lat="59.5583382715" lon="31.2679413613"><ele>243.35</ele><time>2026-09-02T18:10:26Z</time></trkpt><trkpt lat="59.5583473239" lon="31.2679413613"><ele>243.35</ele><time>2026-09-02T18:10:27Z</time></trkpt><trkpt lat="59.5583567955" lon="31.2679414451"><ele>243.35</ele><time>2026-09-02T18:10:28Z</time></trkpt><trkpt lat="59.5583657641" lon="31.2679437920"><ele>243.35</ele><time>2026-09-02T18:10:29Z</time></trkpt><trkpt lat="59.5583744813" lon="31.2679450493"><ele>243.35</ele><time>2026-09-02T18:10:30Z</time></trkpt><trkpt lat="59.5583803486" lon="31.2679479830"><ele>243.35</ele><time>2026-09-02T18:10:31Z</time></trkpt><trkpt lat="59.5583876409" lon="31.2679465581"><ele>243.35</ele><time>2026-09-02T18:10:32Z</time></trkpt><trkpt lat="59.5583942626" lon="31.2679488212"><ele>243.35</ele><time>2026-09-02T18:10:33Z</time></trkpt><trkpt lat="59.5584028959" lon="31.2679522578"><ele>243.35</ele><time>2026-09-02T18:10:34Z</time></trkpt><trkpt lat="59.5584090985" lon="31.2679568678"><ele>243.35</ele><time>2026-09-02T18:10:35Z</time></trkpt><trkpt lat="59.5584116969" lon="31.2679537665"><ele>242.87</ele><time>2026-09-02T18:10:36Z</time></trkpt><trkpt lat="59.5584162232" lon="31.2679539341"><ele>242.87</ele><time>2026-09-02T18:10:37Z</time></trkpt><trkpt lat="59.5584199950" lon="31.2679538503"><ele>242.87</ele><time>2026-09-02T18:10:38Z</time></trkpt><trkpt lat="59.5584206656" lon="31.2679547723"><ele>242.87</ele><time>2026-09-02T18:10:39Z</time></trkpt><trkpt lat="59.5584206656" lon="31.2679547723"><ele>242.87</ele><time>2026-09-02T18:10:40Z</time></trkpt><trkpt lat="59.5584206656" lon="31.2679547723"><ele>242.87</ele><time>2026-09-02T18:10:41Z</time></trkpt><trkpt lat="59.5584228449" lon="31.2679642439"><ele>242.87</ele><time>2026-09-02T18:10:42Z</time></trkpt><trkpt lat="59.5584273711" lon="31.2679753918"><ele>242.87</ele><time>2026-09-02T18:10:43Z</time></trkpt><trkpt lat="59.5584370941" lon="31.2679905631"><ele>242.87</ele><time>2026-09-02T18:10:44Z</time></trkpt><trkpt lat="59.5584463980" lon="31.2680007890"><ele>242.87</ele><time>2026-09-02T18:10:45Z</time></trkpt><trkpt lat="59.5584541932" lon="31.2680106796"><ele>242.87</ele><time>2026-09-02T18:10:46Z</time></trkpt><trkpt lat="59.5584632456" lon="31.2680225819"><ele>242.87</ele><time>2026-09-02T18:10:47Z</time></trkpt><trkpt lat="59.5584708732" lon="31.2680362444"><ele>242.87</ele><time>2026-09-02T18:10:48Z</time></trkpt><trkpt lat="59.5584758185" lon="31.2680533435"><ele>242.87</ele><time>2026-09-02T18:10:49Z</time></trkpt><trkpt lat="59.5584838651" lon="31.2680751365"><ele>242.87</ele><time>2026-09-02T18:10:50Z</time></trkpt><trkpt lat="59.5584922470" lon="31.2680925708"><ele>242.87</ele><time>2026-09-02T18:10:51Z</time></trkpt><trkpt lat="59.5584984496" lon="31.2681102566"><ele>242.87</ele><time>2026-09-02T18:10:52Z</time></trkpt><trkpt lat="59.5585060772" lon="31.2681279425"><ele>242.87</ele><time>2026-09-02T18:10:53Z</time></trkpt><trkpt lat="59.5585127827" lon="31.2681460474"><ele>242.87</ele><time>2026-09-02T18:10:54Z</time></trkpt><trkpt lat="59.5585189853" lon="31.2681647390"><ele>242.87</ele><time>2026-09-02T18:10:55Z</time></trkpt><trkpt lat="59.5585237630" lon="31.2681816705"><ele>242.87</ele><time>2026-09-02T18:10:56Z</time></trkpt><trkpt lat="59.5585267805" lon="31.2681981828"><ele>242.87</ele><time>2026-09-02T18:10:57Z</time></trkpt><trkpt lat="59.5585282892" lon="31.2682141922"><ele>242.39</ele><time>2026-09-02T18:10:58Z</time></trkpt><trkpt lat="59.5585325640" lon="31.2682320457"><ele>242.39</ele><time>2026-09-02T18:10:59Z</time></trkpt><trkpt lat="59.5585385989" lon="31.2682526652"><ele>242.39</ele><time>2026-09-02T18:11:00Z</time></trkpt><trkpt lat="59.5585428737" lon="31.2682717759"><ele>242.39</ele><time>2026-09-02T18:11:01Z</time></trkpt><trkpt lat="59.5585484896" lon="31.2682921439"><ele>242.39</ele><time>2026-09-02T18:11:02Z</time></trkpt><trkpt lat="59.5585534349" lon="31.2683118414"><ele>242.39</ele><time>2026-09-02T18:11:03Z</time></trkpt><trkpt lat="59.5585579611" lon="31.2683300301"><ele>242.39</ele><time>2026-09-02T18:11:04Z</time></trkpt><trkpt lat="59.5585637446" lon="31.2683471292"><ele>242.39</ele><time>2026-09-02T18:11:05Z</time></trkpt><trkpt lat="59.5585693605" lon="31.2683665752"><ele>242.39</ele><time>2026-09-02T18:11:06Z</time></trkpt><trkpt lat="59.5585764851" lon="31.2683874462"><ele>242.39</ele><time>2026-09-02T18:11:07Z</time></trkpt><trkpt lat="59.5585831907" lon="31.2684150226"><ele>242.39</ele><time>2026-09-02T18:11:08Z</time></trkpt><trkpt lat="59.5585935842" lon="31.2684379891"><ele>242.39</ele><time>2026-09-02T18:11:09Z</time></trkpt><trkpt lat="59.5586007927" lon="31.2684536632"><ele>242.39</ele><time>2026-09-02T18:11:10Z</time></trkpt><trkpt lat="59.5586077496" lon="31.2684742827"><ele>242.39</ele><time>2026-09-02T18:11:11Z</time></trkpt><trkpt lat="59.5586177241" lon="31.2684937287"><ele>242.39</ele><time>2026-09-02T18:11:12Z</time></trkpt><trkpt lat="59.5586259384" lon="31.2685079779"><ele>242.39</ele><time>2026-09-02T18:11:13Z</time></trkpt><trkpt lat="59.5586307999" lon="31.2685284298"><ele>242.39</ele><time>2026-09-02T18:11:14Z</time></trkpt><trkpt lat="59.5586351585" lon="31.2685533240"><ele>242.39</ele><time>2026-09-02T18:11:15Z</time></trkpt><trkpt lat="59.5586399361" lon="31.2685712613"><ele>242.39</ele><time>2026-09-02T18:11:16Z</time></trkpt><trkpt lat="59.5586462226" lon="31.2685865164"><ele>242.39</ele><time>2026-09-02T18:11:17Z</time></trkpt><trkpt lat="59.5586553589" lon="31.2685975805"><ele>242.39</ele><time>2026-09-02T18:11:18Z</time></trkpt><trkpt lat="59.5586653333" lon="31.2686048727"><ele>242.39</ele><time>2026-09-02T18:11:19Z</time></trkpt><trkpt lat="59.5586753916" lon="31.2686149310"><ele>242.39</ele><time>2026-09-02T18:11:20Z</time></trkpt><trkpt lat="59.5586851984" lon="31.2686258275"><ele>242.39</ele><time>2026-09-02T18:11:21Z</time></trkpt><trkpt lat="59.5586926583" lon="31.2686310243"><ele>242.39</ele><time>2026-09-02T18:11:22Z</time></trkpt><trkpt lat="59.5587009564" lon="31.2686337903"><ele>242.39</ele><time>2026-09-02T18:11:23Z</time></trkpt><trkpt lat="59.5587088354" lon="31.2686375622"><ele>242.39</ele><time>2026-09-02T18:11:24Z</time></trkpt><trkpt lat="59.5587173849" lon="31.2686399929"><ele>242.39</ele><time>2026-09-02T18:11:25Z</time></trkpt><trkpt lat="59.5587237552" lon="31.2686391547"><ele>242.39</ele><time>2026-09-02T18:11:26Z</time></trkpt><trkpt lat="59.5587265212" lon="31.2686368916"><ele>242.39</ele><time>2026-09-02T18:11:27Z</time></trkpt><trkpt lat="59.5587275270" lon="31.2686364725"><ele>242.39</ele><time>2026-09-02T18:11:28Z</time></trkpt><trkpt lat="59.5587305445" lon="31.2686389871"><ele>242.39</ele><time>2026-09-02T18:11:29Z</time></trkpt><trkpt lat="59.5587306283" lon="31.2686411664"><ele>242.39</ele><time>2026-09-02T18:11:30Z</time></trkpt><trkpt lat="59.5587306283" lon="31.2686411664"><ele>242.39</ele><time>2026-09-02T18:11:31Z</time></trkpt><trkpt lat="59.5587306283" lon="31.2686411664"><ele>242.39</ele><time>2026-09-02T18:11:32Z</time></trkpt><trkpt lat="59.5587306283" lon="31.2686411664"><ele>242.39</ele><time>2026-09-02T18:11:33Z</time></trkpt><trkpt lat="59.5587510802" lon="31.2686313596"><ele>242.39</ele><time>2026-09-02T18:11:34Z</time></trkpt><trkpt lat="59.5587564446" lon="31.2686334550"><ele>242.39</ele><time>2026-09-02T18:11:35Z</time></trkpt><trkpt lat="59.5587641560" lon="31.2686317787"><ele>242.39</ele><time>2026-09-02T18:11:36Z</time></trkpt><trkpt lat="59.5587720349" lon="31.2686308566"><ele>242.39</ele><time>2026-09-02T18:11:37Z</time></trkpt><trkpt lat="59.5587827638" lon="31.2686295994"><ele>242.39</ele><time>2026-09-02T18:11:38Z</time></trkpt><trkpt lat="59.5587979350" lon="31.2686289288"><ele>242.39</ele><time>2026-09-02T18:11:39Z</time></trkpt><trkpt lat="59.5588102564" lon="31.2686338741"><ele>242.39</ele><time>2026-09-02T18:11:40Z</time></trkpt><trkpt lat="59.5588204823" lon="31.2686363887"><ele>242.39</ele><time>2026-09-02T18:11:41Z</time></trkpt><trkpt lat="59.5588302892" lon="31.2686366402"><ele>242.39</ele><time>2026-09-02T18:11:42Z</time></trkpt><trkpt lat="59.5588409342" lon="31.2686329521"><ele>242.39</ele><time>2026-09-02T18:11:43Z</time></trkpt><trkpt lat="59.5588515792" lon="31.2686308566"><ele>242.39</ele><time>2026-09-02T18:11:44Z</time></trkpt><trkpt lat="59.5588642359" lon="31.2686288450"><ele>242.39</ele><time>2026-09-02T18:11:45Z</time></trkpt><trkpt lat="59.5588768926" lon="31.2686249893"><ele>242.39</ele><time>2026-09-02T18:11:46Z</time></trkpt><trkpt lat="59.5588890463" lon="31.2686188705"><ele>242.39</ele><time>2026-09-02T18:11:47Z</time></trkpt><trkpt lat="59.5589023735" lon="31.2686146796"><ele>242.39</ele><time>2026-09-02T18:11:48Z</time></trkpt><trkpt lat="59.5589170419" lon="31.2686134223"><ele>242.39</ele><time>2026-09-02T18:11:49Z</time></trkpt><trkpt lat="59.5589294471" lon="31.2686138414"><ele>242.39</ele><time>2026-09-02T18:11:50Z</time></trkpt><trkpt lat="59.5589410979" lon="31.2686149310"><ele>242.39</ele><time>2026-09-02T18:11:51Z</time></trkpt><trkpt lat="59.5589545928" lon="31.2686143443"><ele>242.39</ele><time>2026-09-02T18:11:52Z</time></trkpt><trkpt lat="59.5589671656" lon="31.2686148472"><ele>242.39</ele><time>2026-09-02T18:11:53Z</time></trkpt><trkpt lat="59.5589801576" lon="31.2686134223"><ele>242.39</ele><time>2026-09-02T18:11:54Z</time></trkpt><trkpt lat="59.5589929819" lon="31.2686123326"><ele>242.39</ele><time>2026-09-02T18:11:55Z</time></trkpt><trkpt lat="59.5590053871" lon="31.2686104886"><ele>242.39</ele><time>2026-09-02T18:11:56Z</time></trkpt><trkpt lat="59.5590171218" lon="31.2686115783"><ele>242.39</ele><time>2026-09-02T18:11:57Z</time></trkpt><trkpt lat="59.5590287726" lon="31.2686135899"><ele>242.39</ele><time>2026-09-02T18:11:58Z</time></trkpt><trkpt lat="59.5590406749" lon="31.2686152663"><ele>242.39</ele><time>2026-09-02T18:11:59Z</time></trkpt><trkpt lat="59.5590507332" lon="31.2686159369"><ele>242.39</ele><time>2026-09-02T18:12:00Z</time></trkpt><trkpt lat="59.5590638928" lon="31.2686204631"><ele>242.39</ele><time>2026-09-02T18:12:01Z</time></trkpt><trkpt lat="59.5590755437" lon="31.2686245702"><ele>242.39</ele><time>2026-09-02T18:12:02Z</time></trkpt><trkpt lat="59.5590882841" lon="31.2686302699"><ele>242.39</ele><time>2026-09-02T18:12:03Z</time></trkpt><trkpt lat="59.5591007732" lon="31.2686330359"><ele>242.39</ele><time>2026-09-02T18:12:04Z</time></trkpt><trkpt lat="59.5591130946" lon="31.2686341256"><ele>242.39</ele><time>2026-09-02T18:12:05Z</time></trkpt><trkpt lat="59.5591250807" lon="31.2686337903"><ele>242.39</ele><time>2026-09-02T18:12:06Z</time></trkpt><trkpt lat="59.5591371506" lon="31.2686300185"><ele>242.39</ele><time>2026-09-02T18:12:07Z</time></trkpt><trkpt lat="59.5591496397" lon="31.2686236482"><ele>242.39</ele><time>2026-09-02T18:12:08Z</time></trkpt><trkpt lat="59.5591623802" lon="31.2686168589"><ele>242.39</ele><time>2026-09-02T18:12:09Z</time></trkpt><trkpt lat="59.5591745339" lon="31.2686139252"><ele>242.39</ele><time>2026-09-02T18:12:10Z</time></trkpt><trkpt lat="59.5591837540" lon="31.2686130870"><ele>242.39</ele><time>2026-09-02T18:12:11Z</time></trkpt><trkpt lat="59.5591948181" lon="31.2686151825"><ele>242.39</ele><time>2026-09-02T18:12:12Z</time></trkpt><trkpt lat="59.5592042897" lon="31.2686141767"><ele>242.39</ele><time>2026-09-02T18:12:13Z</time></trkpt><trkpt lat="59.5592131745" lon="31.2686146796"><ele>242.39</ele><time>2026-09-02T18:12:14Z</time></trkpt><trkpt lat="59.5592234842" lon="31.2686183676"><ele>242.39</ele><time>2026-09-02T18:12:15Z</time></trkpt><trkpt lat="59.5592332911" lon="31.2686210498"><ele>242.39</ele><time>2026-09-02T18:12:16Z</time></trkpt><trkpt lat="59.5592420921" lon="31.2686246540"><ele>242.39</ele><time>2026-09-02T18:12:17Z</time></trkpt><trkpt lat="59.5592505578" lon="31.2686257437"><ele>242.39</ele><time>2026-09-02T18:12:18Z</time></trkpt><trkpt lat="59.5592579339" lon="31.2686319463"><ele>242.39</ele><time>2026-09-02T18:12:19Z</time></trkpt><trkpt lat="59.5592656452" lon="31.2686411664"><ele>242.39</ele><time>2026-09-02T18:12:20Z</time></trkpt><trkpt lat="59.5592744462" lon="31.2686505541"><ele>241.91</ele><time>2026-09-02T18:12:21Z</time></trkpt><trkpt lat="59.5592822414" lon="31.2686549965"><ele>241.91</ele><time>2026-09-02T18:12:22Z</time></trkpt><trkpt lat="59.5592880249" lon="31.2686522305"><ele>241.91</ele><time>2026-09-02T18:12:23Z</time></trkpt><trkpt lat="59.5592889469" lon="31.2686566729"><ele>241.91</ele><time>2026-09-02T18:12:24Z</time></trkpt><trkpt lat="59.5592887793" lon="31.2686562538"><ele>241.91</ele><time>2026-09-02T18:12:25Z</time></trkpt><trkpt lat="59.5592895336" lon="31.2686571758"><ele>241.91</ele><time>2026-09-02T18:12:26Z</time></trkpt><trkpt lat="59.5592895336" lon="31.2686571758"><ele>241.91</ele><time>2026-09-02T18:12:27Z</time></trkpt><trkpt lat="59.5592895336" lon="31.2686571758"><ele>241.91</ele><time>2026-09-02T18:12:28Z</time></trkpt><trkpt lat="59.5592895336" lon="31.2686571758"><ele>241.91</ele><time>2026-09-02T18:12:29Z</time></trkpt><trkpt lat="59.5592895336" lon="31.2686571758"><ele>241.91</ele><time>2026-09-02T18:12:30Z</time></trkpt><trkpt lat="59.5592895336" lon="31.2686571758"><ele>241.91</ele><time>2026-09-02T18:12:31Z</time></trkpt><trkpt lat="59.5592895336" lon="31.2686571758"><ele>241.91</ele><time>2026-09-02T18:12:32Z</time></trkpt><trkpt lat="59.5592895336" lon="31.2686571758"><ele>241.91</ele><time>2026-09-02T18:12:33Z</time></trkpt><trkpt lat="59.5592895336" lon="31.2686571758"><ele>241.91</ele><time>2026-09-02T18:12:34Z</time></trkpt><trkpt lat="59.5592895336" lon="31.2686571758"><ele>241.91</ele><time>2026-09-02T18:12:35Z</time></trkpt><trkpt lat="59.5592895336" lon="31.2686571758"><ele>241.91</ele><time>2026-09-02T18:12:36Z</time></trkpt><trkpt lat="59.5592895336" lon="31.2686571758"><ele>241.91</ele><time>2026-09-02T18:12:37Z</time></trkpt><trkpt lat="59.5592895336" lon="31.2686571758"><ele>241.91</ele><time>2026-09-02T18:12:38Z</time></trkpt><trkpt lat="59.5592895336" lon="31.2686571758"><ele>241.91</ele><time>2026-09-02T18:12:39Z</time></trkpt><trkpt lat="59.5592895336" lon="31.2686571758"><ele>241.91</ele><time>2026-09-02T18:12:40Z</time></trkpt><trkpt lat="59.5592895336" lon="31.2686571758"><ele>241.91</ele><time>2026-09-02T18:12:41Z</time></trkpt><trkpt lat="59.5592895336" lon="31.2686571758"><ele>241.91</ele><time>2026-09-02T18:12:42Z</time></trkpt><trkpt lat="59.5592895336" lon="31.2686571758"><ele>241.91</ele><time>2026-09-02T18:12:43Z</time></trkpt><trkpt lat="59.5592895336" lon="31.2686571758"><ele>241.91</ele><time>2026-09-02T18:12:44Z</time></trkpt><trkpt lat="59.5592895336" lon="31.2686571758"><ele>241.91</ele><time>2026-09-02T18:12:45Z</time></trkpt><trkpt lat="59.5592895336" lon="31.2686571758"><ele>241.91</ele><time>2026-09-02T18:12:46Z</time></trkpt><trkpt lat="59.5592895336" lon="31.2686571758"><ele>241.91</ele><time>2026-09-02T18:12:47Z</time></trkpt><trkpt lat="59.5592895336" lon="31.2686571758"><ele>241.91</ele><time>2026-09-02T18:12:48Z</time></trkpt><trkpt lat="59.5592895336" lon="31.2686571758"><ele>241.91</ele><time>2026-09-02T18:12:49Z</time></trkpt><trkpt lat="59.5592895336" lon="31.2686571758"><ele>241.91</ele><time>2026-09-02T18:12:50Z</time></trkpt><trkpt lat="59.5592895336" lon="31.2686571758"><ele>241.91</ele><time>2026-09-02T18:12:51Z</time></trkpt><trkpt lat="59.5592895336" lon="31.2686571758"><ele>241.91</ele><time>2026-09-02T18:12:52Z</time></trkpt><trkpt lat="59.5592895336" lon="31.2686571758"><ele>241.91</ele><time>2026-09-02T18:12:53Z</time></trkpt><trkpt lat="59.5592895336" lon="31.2686571758"><ele>241.91</ele><time>2026-09-02T18:12:54Z</time></trkpt><trkpt lat="59.5592895336" lon="31.2686571758"><ele>241.91</ele><time>2026-09-02T18:12:55Z</time></trkpt><trkpt lat="59.5592895336" lon="31.2686571758"><ele>241.91</ele><time>2026-09-02T18:12:56Z</time></trkpt><trkpt lat="59.5592895336" lon="31.2686571758"><ele>241.43</ele><time>2026-09-02T18:12:57Z</time></trkpt><trkpt lat="59.5592895336" lon="31.2686571758"><ele>241.43</ele><time>2026-09-02T18:12:58Z</time></trkpt><trkpt lat="59.5592895336" lon="31.2686571758"><ele>241.43</ele><time>2026-09-02T18:12:59Z</time></trkpt><trkpt lat="59.5592895336" lon="31.2686571758"><ele>241.43</ele><time>2026-09-02T18:13:00Z</time></trkpt><trkpt lat="59.5592895336" lon="31.2686571758"><ele>241.43</ele><time>2026-09-02T18:13:01Z</time></trkpt><trkpt lat="59.5592895336" lon="31.2686571758"><ele>241.43</ele><time>2026-09-02T18:13:02Z</time></trkpt><trkpt lat="59.5592895336" lon="31.2686571758"><ele>241.43</ele><time>2026-09-02T18:13:03Z</time></trkpt><trkpt lat="59.5592895336" lon="31.2686571758"><ele>241.43</ele><time>2026-09-02T18:13:04Z</time></trkpt><trkpt lat="59.5592895336" lon="31.2686571758"><ele>241.43</ele><time>2026-09-02T18:13:05Z</time></trkpt><trkpt lat="59.5592895336" lon="31.2686571758"><ele>241.43</ele><time>2026-09-02T18:13:06Z</time></trkpt><trkpt lat="59.5592895336" lon="31.2686571758"><ele>241.43</ele><time>2026-09-02T18:13:07Z</time></trkpt><trkpt lat="59.5592895336" lon="31.2686571758"><ele>241.43</ele><time>2026-09-02T18:13:08Z</time></trkpt><trkpt lat="59.5592895336" lon="31.2686571758"><ele>241.43</ele><time>2026-09-02T18:13:09Z</time></trkpt><trkpt lat="59.5592895336" lon="31.2686571758"><ele>241.43</ele><time>2026-09-02T18:13:10Z</time></trkpt><trkpt lat="59.5592895336" lon="31.2686571758"><ele>241.43</ele><time>2026-09-02T18:13:11Z</time></trkpt><trkpt lat="59.5592895336" lon="31.2686571758"><ele>241.43</ele><time>2026-09-02T18:13:12Z</time></trkpt><trkpt lat="59.5592895336" lon="31.2686571758"><ele>241.43</ele><time>2026-09-02T18:13:13Z</time></trkpt><trkpt lat="59.5592895336" lon="31.2686571758"><ele>241.43</ele><time>2026-09-02T18:13:14Z</time></trkpt><trkpt lat="59.5592895336" lon="31.2686571758"><ele>241.43</ele><time>2026-09-02T18:13:15Z</time></trkpt><trkpt lat="59.5592895336" lon="31.2686571758"><ele>241.43</ele><time>2026-09-02T18:13:16Z</time></trkpt><trkpt lat="59.5592895336" lon="31.2686571758"><ele>241.43</ele><time>2026-09-02T18:13:17Z</time></trkpt><trkpt lat="59.5592895336" lon="31.2686571758"><ele>241.43</ele><time>2026-09-02T18:13:18Z</time></trkpt><trkpt lat="59.5592895336" lon="31.2686571758"><ele>241.43</ele><time>2026-09-02T18:13:19Z</time></trkpt><trkpt lat="59.5592895336" lon="31.2686571758"><ele>241.43</ele><time>2026-09-02T18:13:20Z</time></trkpt><trkpt lat="59.5592895336" lon="31.2686571758"><ele>241.43</ele><time>2026-09-02T18:13:21Z</time></trkpt><trkpt lat="59.5592895336" lon="31.2686571758"><ele>241.43</ele><time>2026-09-02T18:13:22Z</time></trkpt><trkpt lat="59.5592895336" lon="31.2686571758"><ele>241.43</ele><time>2026-09-02T18:13:23Z</time></trkpt><trkpt lat="59.5592895336" lon="31.2686571758"><ele>241.43</ele><time>2026-09-02T18:13:24Z</time></trkpt><trkpt lat="59.5592895336" lon="31.2686571758"><ele>241.43</ele><time>2026-09-02T18:13:25Z</time></trkpt><trkpt lat="59.5592895336" lon="31.2686571758"><ele>241.43</ele><time>2026-09-02T18:13:26Z</time></trkpt><trkpt lat="59.5592895336" lon="31.2686571758"><ele>241.43</ele><time>2026-09-02T18:13:27Z</time></trkpt><trkpt lat="59.5592895336" lon="31.2686571758"><ele>241.43</ele><time>2026-09-02T18:13:28Z</time></trkpt><trkpt lat="59.5592895336" lon="31.2686571758"><ele>241.43</ele><time>2026-09-02T18:13:29Z</time></trkpt><trkpt lat="59.5592895336" lon="31.2686571758"><ele>241.43</ele><time>2026-09-02T18:13:30Z</time></trkpt><trkpt lat="59.5592895336" lon="31.2686571758"><ele>241.43</ele><time>2026-09-02T18:13:31Z</time></trkpt><trkpt lat="59.5592895336" lon="31.2686571758"><ele>241.43</ele><time>2026-09-02T18:13:32Z</time></trkpt><trkpt lat="59.5592895336" lon="31.2686571758"><ele>241.43</ele><time>2026-09-02T18:13:33Z</time></trkpt><trkpt lat="59.5592895336" lon="31.2686571758"><ele>241.43</ele><time>2026-09-02T18:13:34Z</time></trkpt><trkpt lat="59.5592895336" lon="31.2686571758"><ele>241.43</ele><time>2026-09-02T18:13:35Z</time></trkpt><trkpt lat="59.5592895336" lon="31.2686571758"><ele>241.43</ele><time>2026-09-02T18:13:36Z</time></trkpt><trkpt lat="59.5592895336" lon="31.2686571758"><ele>241.43</ele><time>2026-09-02T18:13:37Z</time></trkpt><trkpt lat="59.5592895336" lon="31.2686571758"><ele>241.43</ele><time>2026-09-02T18:13:38Z</time></trkpt><trkpt lat="59.5592895336" lon="31.2686571758"><ele>241.43</ele><time>2026-09-02T18:13:39Z</time></trkpt><trkpt lat="59.5592895336" lon="31.2686571758"><ele>241.43</ele><time>2026-09-02T18:13:40Z</time></trkpt><trkpt lat="59.5592895336" lon="31.2686571758"><ele>241.43</ele><time>2026-09-02T18:13:41Z</time></trkpt><trkpt lat="59.5592895336" lon="31.2686571758"><ele>241.43</ele><time>2026-09-02T18:13:42Z</time></trkpt><trkpt lat="59.5592895336" lon="31.2686571758"><ele>241.43</ele><time>2026-09-02T18:13:43Z</time></trkpt><trkpt lat="59.5592895336" lon="31.2686571758"><ele>241.43</ele><time>2026-09-02T18:13:44Z</time></trkpt><trkpt lat="59.5592895336" lon="31.2686571758"><ele>241.43</ele><time>2026-09-02T18:13:45Z</time></trkpt><trkpt lat="59.5592895336" lon="31.2686571758"><ele>241.43</ele><time>2026-09-02T18:13:46Z</time></trkpt><trkpt lat="59.5592895336" lon="31.2686571758"><ele>241.43</ele><time>2026-09-02T18:13:47Z</time></trkpt><trkpt lat="59.5592895336" lon="31.2686571758"><ele>241.43</ele><time>2026-09-02T18:13:48Z</time></trkpt><trkpt lat="59.5592895336" lon="31.2686571758"><ele>241.43</ele><time>2026-09-02T18:13:49Z</time></trkpt><trkpt lat="59.5592895336" lon="31.2686571758"><ele>241.43</ele><time>2026-09-02T18:13:50Z</time></trkpt><trkpt lat="59.5592895336" lon="31.2686571758"><ele>241.43</ele><time>2026-09-02T18:13:51Z</time></trkpt><trkpt lat="59.5592895336" lon="31.2686571758"><ele>241.43</ele><time>2026-09-02T18:13:52Z</time></trkpt><trkpt lat="59.5592895336" lon="31.2686571758"><ele>241.43</ele><time>2026-09-02T18:13:53Z</time></trkpt><trkpt lat="59.5592895336" lon="31.2686571758"><ele>241.43</ele><time>2026-09-02T18:13:54Z</time></trkpt><trkpt lat="59.5592895336" lon="31.2686571758"><ele>241.43</ele><time>2026-09-02T18:13:55Z</time></trkpt><trkpt lat="59.5592895336" lon="31.2686571758"><ele>241.43</ele><time>2026-09-02T18:13:56Z</time></trkpt><trkpt lat="59.5592895336" lon="31.2686571758"><ele>241.43</ele><time>2026-09-02T18:13:57Z</time></trkpt><trkpt lat="59.5593184512" lon="31.2686363887"><ele>241.43</ele><time>2026-09-02T18:13:58Z</time></trkpt><trkpt lat="59.5593258273" lon="31.2686439324"><ele>241.43</ele><time>2026-09-02T18:13:59Z</time></trkpt><trkpt lat="59.5593340416" lon="31.2686523981"><ele>241.43</ele><time>2026-09-02T18:14:00Z</time></trkpt><trkpt lat="59.5593454409" lon="31.2686622888"><ele>241.43</ele><time>2026-09-02T18:14:01Z</time></trkpt><trkpt lat="59.5593566727" lon="31.2686716765"><ele>241.43</ele><time>2026-09-02T18:14:02Z</time></trkpt><trkpt lat="59.5593674853" lon="31.2686821539"><ele>241.43</ele><time>2026-09-02T18:14:03Z</time></trkpt><trkpt lat="59.5593789686" lon="31.2686938886"><ele>241.43</ele><time>2026-09-02T18:14:04Z</time></trkpt><trkpt lat="59.5593892783" lon="31.2687090598"><ele>241.43</ele><time>2026-09-02T18:14:05Z</time></trkpt><trkpt lat="59.5594018511" lon="31.2687244825"><ele>241.43</ele><time>2026-09-02T18:14:06Z</time></trkpt><trkpt lat="59.5594129991" lon="31.2687414978"><ele>241.43</ele><time>2026-09-02T18:14:07Z</time></trkpt><trkpt lat="59.5594225544" lon="31.2687551603"><ele>241.43</ele><time>2026-09-02T18:14:08Z</time></trkpt><trkpt lat="59.5594316907" lon="31.2687716726"><ele>241.43</ele><time>2026-09-02T18:14:09Z</time></trkpt><trkpt lat="59.5594413299" lon="31.2687900290"><ele>241.43</ele><time>2026-09-02T18:14:10Z</time></trkpt><trkpt lat="59.5594512206" lon="31.2688047811"><ele>241.43</ele><time>2026-09-02T18:14:11Z</time></trkpt><trkpt lat="59.5594604407" lon="31.2688207906"><ele>241.43</ele><time>2026-09-02T18:14:12Z</time></trkpt><trkpt lat="59.5594686549" lon="31.2688395660"><ele>241.43</ele><time>2026-09-02T18:14:13Z</time></trkpt><trkpt lat="59.5594756957" lon="31.2688578386"><ele>241.43</ele><time>2026-09-02T18:14:14Z</time></trkpt><trkpt lat="59.5594822336" lon="31.2688709982"><ele>241.43</ele><time>2026-09-02T18:14:15Z</time></trkpt><trkpt lat="59.5594868436" lon="31.2688817270"><ele>241.43</ele><time>2026-09-02T18:14:16Z</time></trkpt><trkpt lat="59.5594886877" lon="31.2688907795"><ele>241.43</ele><time>2026-09-02T18:14:17Z</time></trkpt><trkpt lat="59.5594899449" lon="31.2689008377"><ele>241.43</ele><time>2026-09-02T18:14:18Z</time></trkpt><trkpt lat="59.5594899449" lon="31.2689008377"><ele>241.43</ele><time>2026-09-02T18:14:19Z</time></trkpt><trkpt lat="59.5594899449" lon="31.2689008377"><ele>241.43</ele><time>2026-09-02T18:14:20Z</time></trkpt><trkpt lat="59.5594970696" lon="31.2689322699"><ele>241.43</ele><time>2026-09-02T18:14:21Z</time></trkpt><trkpt lat="59.5595001709" lon="31.2689474411"><ele>241.43</ele><time>2026-09-02T18:14:22Z</time></trkpt><trkpt lat="59.5595017634" lon="31.2689604331"><ele>241.43</ele><time>2026-09-02T18:14:23Z</time></trkpt><trkpt lat="59.5595055353" lon="31.2689743470"><ele>241.43</ele><time>2026-09-02T18:14:24Z</time></trkpt><trkpt lat="59.5595080499" lon="31.2689857464"><ele>241.43</ele><time>2026-09-02T18:14:25Z</time></trkpt><trkpt lat="59.5595102292" lon="31.2689980678"><ele>241.43</ele><time>2026-09-02T18:14:26Z</time></trkpt><trkpt lat="59.5595107321" lon="31.2690084614"><ele>241.43</ele><time>2026-09-02T18:14:27Z</time></trkpt><trkpt lat="59.5595123246" lon="31.2690224592"><ele>241.43</ele><time>2026-09-02T18:14:28Z</time></trkpt><trkpt lat="59.5595133305" lon="31.2690426596"><ele>241.43</ele><time>2026-09-02T18:14:29Z</time></trkpt><trkpt lat="59.5595192816" lon="31.2690597586"><ele>241.43</ele><time>2026-09-02T18:14:30Z</time></trkpt><trkpt lat="59.5595225506" lon="31.2690795399"><ele>241.43</ele><time>2026-09-02T18:14:31Z</time></trkpt><trkpt lat="59.5595275797" lon="31.2690967228"><ele>241.43</ele><time>2026-09-02T18:14:32Z</time></trkpt><trkpt lat="59.5595321897" lon="31.2691113912"><ele>241.43</ele><time>2026-09-02T18:14:33Z</time></trkpt><trkpt lat="59.5595335308" lon="31.2691319268"><ele>241.43</ele><time>2026-09-02T18:14:34Z</time></trkpt><trkpt lat="59.5595369674" lon="31.2691483553"><ele>241.43</ele><time>2026-09-02T18:14:35Z</time></trkpt><trkpt lat="59.5595420804" lon="31.2691642810"><ele>241.43</ele><time>2026-09-02T18:14:36Z</time></trkpt><trkpt lat="59.5595453493" lon="31.2691839784"><ele>241.43</ele><time>2026-09-02T18:14:37Z</time></trkpt><trkpt lat="59.5595510490" lon="31.2692001555"><ele>241.43</ele><time>2026-09-02T18:14:38Z</time></trkpt><trkpt lat="59.5595571678" lon="31.2692150753"><ele>241.43</ele><time>2026-09-02T18:14:39Z</time></trkpt><trkpt lat="59.5595637895" lon="31.2692274805"><ele>241.43</ele><time>2026-09-02T18:14:40Z</time></trkpt><trkpt lat="59.5595719200" lon="31.2692410592"><ele>241.43</ele><time>2026-09-02T18:14:41Z</time></trkpt><trkpt lat="59.5595778711" lon="31.2692598347"><ele>241.43</ele><time>2026-09-02T18:14:42Z</time></trkpt><trkpt lat="59.5595826488" lon="31.2692807894"><ele>241.43</ele><time>2026-09-02T18:14:43Z</time></trkpt><trkpt lat="59.5595890190" lon="31.2693009898"><ele>241.91</ele><time>2026-09-02T18:14:44Z</time></trkpt><trkpt lat="59.5595971495" lon="31.2693211902"><ele>241.91</ele><time>2026-09-02T18:14:45Z</time></trkpt><trkpt lat="59.5596073754" lon="31.2693371996"><ele>241.91</ele><time>2026-09-02T18:14:46Z</time></trkpt><trkpt lat="59.5596173499" lon="31.2693531252"><ele>241.91</ele><time>2026-09-02T18:14:47Z</time></trkpt><trkpt lat="59.5596281625" lon="31.2693708949"><ele>241.91</ele><time>2026-09-02T18:14:48Z</time></trkpt><trkpt lat="59.5596375503" lon="31.2693857308"><ele>241.91</ele><time>2026-09-02T18:14:49Z</time></trkpt><trkpt lat="59.5596432500" lon="31.2693987228"><ele>241.91</ele><time>2026-09-02T18:14:50Z</time></trkpt><trkpt lat="59.5596530568" lon="31.2694146484"><ele>241.91</ele><time>2026-09-02T18:14:51Z</time></trkpt><trkpt lat="59.5596650429" lon="31.2694353517"><ele>241.91</ele><time>2026-09-02T18:14:52Z</time></trkpt><trkpt lat="59.5596731734" lon="31.2694506906"><ele>241.91</ele><time>2026-09-02T18:14:53Z</time></trkpt><trkpt lat="59.5596795436" lon="31.2694654427"><ele>242.39</ele><time>2026-09-02T18:14:54Z</time></trkpt><trkpt lat="59.5596875902" lon="31.2694816198"><ele>242.39</ele><time>2026-09-02T18:14:55Z</time></trkpt><trkpt lat="59.5597010851" lon="31.2694955338"><ele>242.39</ele><time>2026-09-02T18:14:56Z</time></trkpt><trkpt lat="59.5597126521" lon="31.2695075199"><ele>242.39</ele><time>2026-09-02T18:14:57Z</time></trkpt><trkpt lat="59.5597195253" lon="31.2695226911"><ele>242.39</ele><time>2026-09-02T18:14:58Z</time></trkpt><trkpt lat="59.5597258955" lon="31.2695394550"><ele>242.39</ele><time>2026-09-02T18:14:59Z</time></trkpt><trkpt lat="59.5597354509" lon="31.2695535365"><ele>242.39</ele><time>2026-09-02T18:15:00Z</time></trkpt><trkpt lat="59.5597458445" lon="31.2695667800"><ele>242.39</ele><time>2026-09-02T18:15:01Z</time></trkpt><trkpt lat="59.5597547293" lon="31.2695802748"><ele>242.39</ele><time>2026-09-02T18:15:02Z</time></trkpt><trkpt lat="59.5597655419" lon="31.2695946917"><ele>242.39</ele><time>2026-09-02T18:15:03Z</time></trkpt><trkpt lat="59.5597784501" lon="31.2696100306"><ele>242.39</ele><time>2026-09-02T18:15:04Z</time></trkpt><trkpt lat="59.5597893465" lon="31.2696252856"><ele>242.39</ele><time>2026-09-02T18:15:05Z</time></trkpt><trkpt lat="59.5597982313" lon="31.2696424685"><ele>242.39</ele><time>2026-09-02T18:15:06Z</time></trkpt><trkpt lat="59.5598057751" lon="31.2696581427"><ele>242.39</ele><time>2026-09-02T18:15:07Z</time></trkpt><trkpt lat="59.5598150790" lon="31.2696711347"><ele>242.39</ele><time>2026-09-02T18:15:08Z</time></trkpt><trkpt lat="59.5598240476" lon="31.2696838751"><ele>242.39</ele><time>2026-09-02T18:15:09Z</time></trkpt><trkpt lat="59.5598306693" lon="31.2697004713"><ele>242.39</ele><time>2026-09-02T18:15:10Z</time></trkpt><trkpt lat="59.5598380454" lon="31.2697182409"><ele>242.39</ele><time>2026-09-02T18:15:11Z</time></trkpt><trkpt lat="59.5598467626" lon="31.2697295565"><ele>241.91</ele><time>2026-09-02T18:15:12Z</time></trkpt><trkpt lat="59.5598544739" lon="31.2697451469"><ele>241.91</ele><time>2026-09-02T18:15:13Z</time></trkpt><trkpt lat="59.5598638617" lon="31.2697657663"><ele>241.91</ele><time>2026-09-02T18:15:14Z</time></trkpt><trkpt lat="59.5598738361" lon="31.2697815243"><ele>241.91</ele><time>2026-09-02T18:15:15Z</time></trkpt><trkpt lat="59.5598853193" lon="31.2697909959"><ele>241.91</ele><time>2026-09-02T18:15:16Z</time></trkpt><trkpt lat="59.5598950423" lon="31.2698031496"><ele>241.91</ele><time>2026-09-02T18:15:17Z</time></trkpt><trkpt lat="59.5599024184" lon="31.2698211707"><ele>241.91</ele><time>2026-09-02T18:15:18Z</time></trkpt><trkpt lat="59.5599109679" lon="31.2698383536"><ele>241.91</ele><time>2026-09-02T18:15:19Z</time></trkpt><trkpt lat="59.5599206910" lon="31.2698521838"><ele>241.91</ele><time>2026-09-02T18:15:20Z</time></trkpt><trkpt lat="59.5599296596" lon="31.2698678579"><ele>241.43</ele><time>2026-09-02T18:15:21Z</time></trkpt><trkpt lat="59.5599396341" lon="31.2698854599"><ele>241.43</ele><time>2026-09-02T18:15:22Z</time></trkpt><trkpt lat="59.5599481836" lon="31.2698983680"><ele>241.43</ele><time>2026-09-02T18:15:23Z</time></trkpt><trkpt lat="59.5599551406" lon="31.2699077558"><ele>241.43</ele><time>2026-09-02T18:15:24Z</time></trkpt><trkpt lat="59.5599603374" lon="31.2699162215"><ele>241.43</ele><time>2026-09-02T18:15:25Z</time></trkpt><trkpt lat="59.5599616785" lon="31.2699238490"><ele>241.43</ele><time>2026-09-02T18:15:26Z</time></trkpt><trkpt lat="59.5599628519" lon="31.2699250225"><ele>241.43</ele><time>2026-09-02T18:15:27Z</time></trkpt><trkpt lat="59.5599618461" lon="31.2699270342"><ele>241.43</ele><time>2026-09-02T18:15:28Z</time></trkpt><trkpt lat="59.5599588286" lon="31.2699270342"><ele>241.43</ele><time>2026-09-02T18:15:29Z</time></trkpt><trkpt lat="59.5599588286" lon="31.2699270342"><ele>241.43</ele><time>2026-09-02T18:15:30Z</time></trkpt><trkpt lat="59.5599588286" lon="31.2699270342"><ele>241.43</ele><time>2026-09-02T18:15:31Z</time></trkpt><trkpt lat="59.5599588286" lon="31.2699270342"><ele>241.43</ele><time>2026-09-02T18:15:32Z</time></trkpt><trkpt lat="59.5599588286" lon="31.2699270342"><ele>241.43</ele><time>2026-09-02T18:15:33Z</time></trkpt><trkpt lat="59.5599588286" lon="31.2699270342"><ele>241.43</ele><time>2026-09-02T18:15:34Z</time></trkpt><trkpt lat="59.5599588286" lon="31.2699270342"><ele>241.43</ele><time>2026-09-02T18:15:35Z</time></trkpt><trkpt lat="59.5599588286" lon="31.2699270342"><ele>241.43</ele><time>2026-09-02T18:15:36Z</time></trkpt><trkpt lat="59.5599588286" lon="31.2699270342"><ele>241.43</ele><time>2026-09-02T18:15:37Z</time></trkpt><trkpt lat="59.5599588286" lon="31.2699270342"><ele>241.43</ele><time>2026-09-02T18:15:38Z</time></trkpt><trkpt lat="59.5599588286" lon="31.2699270342"><ele>241.43</ele><time>2026-09-02T18:15:39Z</time></trkpt><trkpt lat="59.5599588286" lon="31.2699270342"><ele>241.43</ele><time>2026-09-02T18:15:40Z</time></trkpt><trkpt lat="59.5599588286" lon="31.2699270342"><ele>241.43</ele><time>2026-09-02T18:15:41Z</time></trkpt><trkpt lat="59.5599588286" lon="31.2699270342"><ele>241.43</ele><time>2026-09-02T18:15:42Z</time></trkpt><trkpt lat="59.5599588286" lon="31.2699270342"><ele>241.43</ele><time>2026-09-02T18:15:43Z</time></trkpt><trkpt lat="59.5599588286" lon="31.2699270342"><ele>241.43</ele><time>2026-09-02T18:15:44Z</time></trkpt><trkpt lat="59.5599588286" lon="31.2699270342"><ele>241.43</ele><time>2026-09-02T18:15:45Z</time></trkpt><trkpt lat="59.5599588286" lon="31.2699270342"><ele>241.43</ele><time>2026-09-02T18:15:46Z</time></trkpt><trkpt lat="59.5599588286" lon="31.2699270342"><ele>241.43</ele><time>2026-09-02T18:15:47Z</time></trkpt><trkpt lat="59.5599588286" lon="31.2699270342"><ele>241.43</ele><time>2026-09-02T18:15:48Z</time></trkpt><trkpt lat="59.5599588286" lon="31.2699270342"><ele>241.43</ele><time>2026-09-02T18:15:49Z</time></trkpt><trkpt lat="59.5599588286" lon="31.2699270342"><ele>241.43</ele><time>2026-09-02T18:15:50Z</time></trkpt><trkpt lat="59.5599588286" lon="31.2699270342"><ele>241.43</ele><time>2026-09-02T18:15:51Z</time></trkpt><trkpt lat="59.5599588286" lon="31.2699270342"><ele>241.43</ele><time>2026-09-02T18:15:52Z</time></trkpt><trkpt lat="59.5599588286" lon="31.2699270342"><ele>241.43</ele><time>2026-09-02T18:15:53Z</time></trkpt><trkpt lat="59.5599588286" lon="31.2699270342"><ele>241.43</ele><time>2026-09-02T18:15:54Z</time></trkpt><trkpt lat="59.5599588286" lon="31.2699270342"><ele>241.43</ele><time>2026-09-02T18:15:55Z</time></trkpt><trkpt lat="59.5599588286" lon="31.2699270342"><ele>241.43</ele><time>2026-09-02T18:15:56Z</time></trkpt><trkpt lat="59.5599588286" lon="31.2699270342"><ele>241.43</ele><time>2026-09-02T18:15:57Z</time></trkpt><trkpt lat="59.5599588286" lon="31.2699270342"><ele>241.43</ele><time>2026-09-02T18:15:58Z</time></trkpt><trkpt lat="59.5599588286" lon="31.2699270342"><ele>241.43</ele><time>2026-09-02T18:15:59Z</time></trkpt><trkpt lat="59.5599588286" lon="31.2699270342"><ele>241.43</ele><time>2026-09-02T18:16:00Z</time></trkpt><trkpt lat="59.5599588286" lon="31.2699270342"><ele>241.43</ele><time>2026-09-02T18:16:01Z</time></trkpt><trkpt lat="59.5599588286" lon="31.2699270342"><ele>241.43</ele><time>2026-09-02T18:16:02Z</time></trkpt><trkpt lat="59.5599588286" lon="31.2699270342"><ele>241.43</ele><time>2026-09-02T18:16:03Z</time></trkpt><trkpt lat="59.5599588286" lon="31.2699270342"><ele>241.43</ele><time>2026-09-02T18:16:04Z</time></trkpt><trkpt lat="59.5599588286" lon="31.2699270342"><ele>241.43</ele><time>2026-09-02T18:16:05Z</time></trkpt><trkpt lat="59.5599588286" lon="31.2699270342"><ele>241.43</ele><time>2026-09-02T18:16:06Z</time></trkpt><trkpt lat="59.5599588286" lon="31.2699270342"><ele>241.43</ele><time>2026-09-02T18:16:07Z</time></trkpt><trkpt lat="59.5599588286" lon="31.2699270342"><ele>241.43</ele><time>2026-09-02T18:16:08Z</time></trkpt><trkpt lat="59.5599588286" lon="31.2699270342"><ele>241.43</ele><time>2026-09-02T18:16:09Z</time></trkpt><trkpt lat="59.5599588286" lon="31.2699270342"><ele>241.43</ele><time>2026-09-02T18:16:10Z</time></trkpt><trkpt lat="59.5599588286" lon="31.2699270342"><ele>241.43</ele><time>2026-09-02T18:16:11Z</time></trkpt><trkpt lat="59.5599588286" lon="31.2699270342"><ele>241.43</ele><time>2026-09-02T18:16:12Z</time></trkpt><trkpt lat="59.5599588286" lon="31.2699270342"><ele>241.43</ele><time>2026-09-02T18:16:13Z</time></trkpt><trkpt lat="59.5599588286" lon="31.2699270342"><ele>241.43</ele><time>2026-09-02T18:16:14Z</time></trkpt><trkpt lat="59.5599588286" lon="31.2699270342"><ele>241.43</ele><time>2026-09-02T18:16:15Z</time></trkpt><trkpt lat="59.5599588286" lon="31.2699270342"><ele>241.43</ele><time>2026-09-02T18:16:16Z</time></trkpt><trkpt lat="59.5599588286" lon="31.2699270342"><ele>241.43</ele><time>2026-09-02T18:16:17Z</time></trkpt><trkpt lat="59.5599588286" lon="31.2699270342"><ele>241.43</ele><time>2026-09-02T18:16:18Z</time></trkpt><trkpt lat="59.5599588286" lon="31.2699270342"><ele>241.43</ele><time>2026-09-02T18:16:19Z</time></trkpt><trkpt lat="59.5599588286" lon="31.2699270342"><ele>241.43</ele><time>2026-09-02T18:16:20Z</time></trkpt><trkpt lat="59.5599588286" lon="31.2699270342"><ele>241.43</ele><time>2026-09-02T18:16:21Z</time></trkpt><trkpt lat="59.5599588286" lon="31.2699270342"><ele>241.43</ele><time>2026-09-02T18:16:22Z</time></trkpt><trkpt lat="59.5599588286" lon="31.2699270342"><ele>241.43</ele><time>2026-09-02T18:16:23Z</time></trkpt><trkpt lat="59.5599588286" lon="31.2699270342"><ele>241.43</ele><time>2026-09-02T18:16:24Z</time></trkpt><trkpt lat="59.5599588286" lon="31.2699270342"><ele>241.43</ele><time>2026-09-02T18:16:25Z</time></trkpt><trkpt lat="59.5599588286" lon="31.2699270342"><ele>241.43</ele><time>2026-09-02T18:16:26Z</time></trkpt><trkpt lat="59.5599588286" lon="31.2699270342"><ele>241.43</ele><time>2026-09-02T18:16:27Z</time></trkpt><trkpt lat="59.5599588286" lon="31.2699270342"><ele>241.43</ele><time>2026-09-02T18:16:28Z</time></trkpt><trkpt lat="59.5599588286" lon="31.2699270342"><ele>241.43</ele><time>2026-09-02T18:16:29Z</time></trkpt><trkpt lat="59.5599588286" lon="31.2699270342"><ele>241.43</ele><time>2026-09-02T18:16:30Z</time></trkpt><trkpt lat="59.5599588286" lon="31.2699270342"><ele>241.43</ele><time>2026-09-02T18:16:31Z</time></trkpt><trkpt lat="59.5599588286" lon="31.2699270342"><ele>241.43</ele><time>2026-09-02T18:16:32Z</time></trkpt><trkpt lat="59.5599588286" lon="31.2699270342"><ele>241.43</ele><time>2026-09-02T18:16:33Z</time></trkpt><trkpt lat="59.5599588286" lon="31.2699270342"><ele>241.43</ele><time>2026-09-02T18:16:34Z</time></trkpt><trkpt lat="59.5599588286" lon="31.2699270342"><ele>241.43</ele><time>2026-09-02T18:16:35Z</time></trkpt><trkpt lat="59.5599588286" lon="31.2699270342"><ele>241.43</ele><time>2026-09-02T18:16:36Z</time></trkpt><trkpt lat="59.5599588286" lon="31.2699270342"><ele>241.43</ele><time>2026-09-02T18:16:37Z</time></trkpt><trkpt lat="59.5599588286" lon="31.2699270342"><ele>241.43</ele><time>2026-09-02T18:16:38Z</time></trkpt><trkpt lat="59.5599588286" lon="31.2699270342"><ele>241.43</ele><time>2026-09-02T18:16:39Z</time></trkpt><trkpt lat="59.5599588286" lon="31.2699270342"><ele>241.43</ele><time>2026-09-02T18:16:40Z</time></trkpt><trkpt lat="59.5599588286" lon="31.2699270342"><ele>241.43</ele><time>2026-09-02T18:16:41Z</time></trkpt><trkpt lat="59.5599588286" lon="31.2699270342"><ele>241.43</ele><time>2026-09-02T18:16:42Z</time></trkpt><trkpt lat="59.5599588286" lon="31.2699270342"><ele>241.43</ele><time>2026-09-02T18:16:43Z</time></trkpt><trkpt lat="59.5599588286" lon="31.2699270342"><ele>241.43</ele><time>2026-09-02T18:16:44Z</time></trkpt><trkpt lat="59.5599588286" lon="31.2699270342"><ele>241.43</ele><time>2026-09-02T18:16:45Z</time></trkpt><trkpt lat="59.5599588286" lon="31.2699270342"><ele>241.43</ele><time>2026-09-02T18:16:46Z</time></trkpt><trkpt lat="59.5599588286" lon="31.2699270342"><ele>241.43</ele><time>2026-09-02T18:16:47Z</time></trkpt><trkpt lat="59.5599588286" lon="31.2699270342"><ele>241.43</ele><time>2026-09-02T18:16:48Z</time></trkpt><trkpt lat="59.5599588286" lon="31.2699270342"><ele>241.43</ele><time>2026-09-02T18:16:49Z</time></trkpt><trkpt lat="59.5599588286" lon="31.2699270342"><ele>241.43</ele><time>2026-09-02T18:16:50Z</time></trkpt><trkpt lat="59.5599588286" lon="31.2699270342"><ele>241.43</ele><time>2026-09-02T18:16:51Z</time></trkpt><trkpt lat="59.5599588286" lon="31.2699270342"><ele>241.43</ele><time>2026-09-02T18:16:52Z</time></trkpt><trkpt lat="59.5599588286" lon="31.2699270342"><ele>241.43</ele><time>2026-09-02T18:16:53Z</time></trkpt><trkpt lat="59.5599588286" lon="31.2699270342"><ele>241.43</ele><time>2026-09-02T18:16:54Z</time></trkpt><trkpt lat="59.5599588286" lon="31.2699270342"><ele>241.43</ele><time>2026-09-02T18:16:55Z</time></trkpt><trkpt lat="59.5599588286" lon="31.2699270342"><ele>241.43</ele><time>2026-09-02T18:16:56Z</time></trkpt><trkpt lat="59.5599588286" lon="31.2699270342"><ele>241.43</ele><time>2026-09-02T18:16:57Z</time></trkpt><trkpt lat="59.5599588286" lon="31.2699270342"><ele>241.43</ele><time>2026-09-02T18:16:58Z</time></trkpt><trkpt lat="59.5599588286" lon="31.2699270342"><ele>241.43</ele><time>2026-09-02T18:16:59Z</time></trkpt><trkpt lat="59.5599588286" lon="31.2699270342"><ele>241.43</ele><time>2026-09-02T18:17:00Z</time></trkpt><trkpt lat="59.5599588286" lon="31.2699270342"><ele>241.43</ele><time>2026-09-02T18:17:01Z</time></trkpt><trkpt lat="59.5599588286" lon="31.2699270342"><ele>241.43</ele><time>2026-09-02T18:17:02Z</time></trkpt><trkpt lat="59.5599588286" lon="31.2699270342"><ele>241.43</ele><time>2026-09-02T18:17:03Z</time></trkpt><trkpt lat="59.5599588286" lon="31.2699270342"><ele>241.43</ele><time>2026-09-02T18:17:04Z</time></trkpt><trkpt lat="59.5599588286" lon="31.2699270342"><ele>241.43</ele><time>2026-09-02T18:17:05Z</time></trkpt><trkpt lat="59.5599588286" lon="31.2699270342"><ele>241.43</ele><time>2026-09-02T18:17:06Z</time></trkpt><trkpt lat="59.5599588286" lon="31.2699270342"><ele>241.43</ele><time>2026-09-02T18:17:07Z</time></trkpt><trkpt lat="59.5599588286" lon="31.2699270342"><ele>241.43</ele><time>2026-09-02T18:17:08Z</time></trkpt><trkpt lat="59.5599588286" lon="31.2699270342"><ele>241.43</ele><time>2026-09-02T18:17:09Z</time></trkpt><trkpt lat="59.5599588286" lon="31.2699270342"><ele>241.43</ele><time>2026-09-02T18:17:10Z</time></trkpt><trkpt lat="59.5599588286" lon="31.2699270342"><ele>241.43</ele><time>2026-09-02T18:17:11Z</time></trkpt><trkpt lat="59.5599588286" lon="31.2699270342"><ele>241.43</ele><time>2026-09-02T18:17:12Z</time></trkpt><trkpt lat="59.5599464234" lon="31.2699594721"><ele>241.43</ele><time>2026-09-02T18:17:13Z</time></trkpt><trkpt lat="59.5599427354" lon="31.2699655909"><ele>241.43</ele><time>2026-09-02T18:17:14Z</time></trkpt><trkpt lat="59.5599386282" lon="31.2699728832"><ele>241.43</ele><time>2026-09-02T18:17:15Z</time></trkpt><trkpt lat="59.5599364489" lon="31.2699825224"><ele>241.43</ele><time>2026-09-02T18:17:16Z</time></trkpt><trkpt lat="59.5599337667" lon="31.2699971907"><ele>241.43</ele><time>2026-09-02T18:17:17Z</time></trkpt><trkpt lat="59.5599347726" lon="31.2700153794"><ele>241.43</ele><time>2026-09-02T18:17:18Z</time></trkpt><trkpt lat="59.5599351916" lon="31.2700226717"><ele>241.43</ele><time>2026-09-02T18:17:19Z</time></trkpt><trkpt lat="59.5599357784" lon="31.2700357474"><ele>241.43</ele><time>2026-09-02T18:17:20Z</time></trkpt><trkpt lat="59.5599382930" lon="31.2700442970"><ele>241.43</ele><time>2026-09-02T18:17:21Z</time></trkpt><trkpt lat="59.5599427354" lon="31.2700581271"><ele>241.43</ele><time>2026-09-02T18:17:22Z</time></trkpt><trkpt lat="59.5599453337" lon="31.2700732984"><ele>241.43</ele><time>2026-09-02T18:17:23Z</time></trkpt><trkpt lat="59.5599486865" lon="31.2700891402"><ele>241.43</ele><time>2026-09-02T18:17:24Z</time></trkpt><trkpt lat="59.5599506982" lon="31.2701065745"><ele>241.43</ele><time>2026-09-02T18:17:25Z</time></trkpt><trkpt lat="59.5599508658" lon="31.2701275293"><ele>241.43</ele><time>2026-09-02T18:17:26Z</time></trkpt><trkpt lat="59.5599526260" lon="31.2701433711"><ele>241.43</ele><time>2026-09-02T18:17:27Z</time></trkpt><trkpt lat="59.5599533804" lon="31.2701585423"><ele>241.43</ele><time>2026-09-02T18:17:28Z</time></trkpt><trkpt lat="59.5599544700" lon="31.2701755576"><ele>240.95</ele><time>2026-09-02T18:17:29Z</time></trkpt><trkpt lat="59.5599554759" lon="31.2701938301"><ele>240.95</ele><time>2026-09-02T18:17:30Z</time></trkpt><trkpt lat="59.5599585772" lon="31.2702177186"><ele>240.95</ele><time>2026-09-02T18:17:31Z</time></trkpt><trkpt lat="59.5599606726" lon="31.2702385895"><ele>240.95</ele><time>2026-09-02T18:17:32Z</time></trkpt><trkpt lat="59.5599604212" lon="31.2702574488"><ele>240.95</ele><time>2026-09-02T18:17:33Z</time></trkpt><trkpt lat="59.5599611755" lon="31.2702737935"><ele>240.95</ele><time>2026-09-02T18:17:34Z</time></trkpt><trkpt lat="59.5599608403" lon="31.2702938262"><ele>240.95</ele><time>2026-09-02T18:17:35Z</time></trkpt><trkpt lat="59.5599601697" lon="31.2703115959"><ele>240.47</ele><time>2026-09-02T18:17:36Z</time></trkpt><trkpt lat="59.5599589963" lon="31.2703337241"><ele>240.47</ele><time>2026-09-02T18:17:37Z</time></trkpt><trkpt lat="59.5599609241" lon="31.2703494821"><ele>240.47</ele><time>2026-09-02T18:17:38Z</time></trkpt><trkpt lat="59.5599618461" lon="31.2703643180"><ele>240.47</ele><time>2026-09-02T18:17:39Z</time></trkpt><trkpt lat="59.5599615946" lon="31.2703803275"><ele>240.47</ele><time>2026-09-02T18:17:40Z</time></trkpt><trkpt lat="59.5599644445" lon="31.2703994382"><ele>240.47</ele><time>2026-09-02T18:17:41Z</time></trkpt><trkpt lat="59.5599669591" lon="31.2704161182"><ele>240.47</ele><time>2026-09-02T18:17:42Z</time></trkpt><trkpt lat="59.5599721558" lon="31.2704309542"><ele>240.47</ele><time>2026-09-02T18:17:43Z</time></trkpt><trkpt lat="59.5599779394" lon="31.2704434432"><ele>240.47</ele><time>2026-09-02T18:17:44Z</time></trkpt><trkpt lat="59.5599847287" lon="31.2704563513"><ele>239.99</ele><time>2026-09-02T18:17:45Z</time></trkpt><trkpt lat="59.5599916857" lon="31.2704728637"><ele>239.99</ele><time>2026-09-02T18:17:46Z</time></trkpt><trkpt lat="59.5599943679" lon="31.2704857718"><ele>239.99</ele><time>2026-09-02T18:17:47Z</time></trkpt><trkpt lat="59.5599975530" lon="31.2704955786"><ele>239.99</ele><time>2026-09-02T18:17:48Z</time></trkpt><trkpt lat="59.5599984750" lon="31.2705053855"><ele>239.51</ele><time>2026-09-02T18:17:49Z</time></trkpt><trkpt lat="59.5599988941" lon="31.2705170363"><ele>239.51</ele><time>2026-09-02T18:17:50Z</time></trkpt><trkpt lat="59.5599989779" lon="31.2705364823"><ele>239.51</ele><time>2026-09-02T18:17:51Z</time></trkpt><trkpt lat="59.5600008219" lon="31.2705529947"><ele>239.51</ele><time>2026-09-02T18:17:52Z</time></trkpt><trkpt lat="59.5600000676" lon="31.2705687527"><ele>239.02</ele><time>2026-09-02T18:17:53Z</time></trkpt><trkpt lat="59.5600005705" lon="31.2705781404"><ele>239.02</ele><time>2026-09-02T18:17:54Z</time></trkpt><trkpt lat="59.5599998999" lon="31.2705857679"><ele>239.02</ele><time>2026-09-02T18:17:55Z</time></trkpt><trkpt lat="59.5600001514" lon="31.2705926411"><ele>239.02</ele><time>2026-09-02T18:17:56Z</time></trkpt><trkpt lat="59.5600001514" lon="31.2705926411"><ele>239.02</ele><time>2026-09-02T18:17:57Z</time></trkpt><trkpt lat="59.5600001514" lon="31.2705926411"><ele>239.02</ele><time>2026-09-02T18:17:58Z</time></trkpt><trkpt lat="59.5600001514" lon="31.2705926411"><ele>239.02</ele><time>2026-09-02T18:17:59Z</time></trkpt><trkpt lat="59.5600001514" lon="31.2705926411"><ele>238.54</ele><time>2026-09-02T18:18:00Z</time></trkpt><trkpt lat="59.5599916857" lon="31.2706209719"><ele>238.54</ele><time>2026-09-02T18:18:01Z</time></trkpt><trkpt lat="59.5599879976" lon="31.2706325389"><ele>238.54</ele><time>2026-09-02T18:18:02Z</time></trkpt><trkpt lat="59.5599841420" lon="31.2706431840"><ele>238.54</ele><time>2026-09-02T18:18:03Z</time></trkpt><trkpt lat="59.5599845611" lon="31.2706486322"><ele>238.54</ele><time>2026-09-02T18:18:04Z</time></trkpt><trkpt lat="59.5599830523" lon="31.2706547510"><ele>238.54</ele><time>2026-09-02T18:18:05Z</time></trkpt><trkpt lat="59.5599812921" lon="31.2706612889"><ele>238.54</ele><time>2026-09-02T18:18:06Z</time></trkpt><trkpt lat="59.5599779394" lon="31.2706669886"><ele>238.54</ele><time>2026-09-02T18:18:07Z</time></trkpt><trkpt lat="59.5599779394" lon="31.2706669886"><ele>238.54</ele><time>2026-09-02T18:18:08Z</time></trkpt><trkpt lat="59.5599663723" lon="31.2706789747"><ele>238.54</ele><time>2026-09-02T18:18:09Z</time></trkpt><trkpt lat="59.5599601697" lon="31.2706861831"><ele>238.54</ele><time>2026-09-02T18:18:10Z</time></trkpt><trkpt lat="59.5599537995" lon="31.2706895359"><ele>238.54</ele><time>2026-09-02T18:18:11Z</time></trkpt><trkpt lat="59.5599487703" lon="31.2706934754"><ele>238.06</ele><time>2026-09-02T18:18:12Z</time></trkpt><trkpt lat="59.5599430706" lon="31.2706970796"><ele>238.06</ele><time>2026-09-02T18:18:13Z</time></trkpt><trkpt lat="59.5599353593" lon="31.2707012706"><ele>238.06</ele><time>2026-09-02T18:18:14Z</time></trkpt><trkpt lat="59.5599263906" lon="31.2707057968"><ele>238.06</ele><time>2026-09-02T18:18:15Z</time></trkpt><trkpt lat="59.5599191822" lon="31.2707203813"><ele>238.06</ele><time>2026-09-02T18:18:16Z</time></trkpt><trkpt lat="59.5599127281" lon="31.2707277574"><ele>238.06</ele><time>2026-09-02T18:18:17Z</time></trkpt><trkpt lat="59.5599090401" lon="31.2707506400"><ele>238.06</ele><time>2026-09-02T18:18:18Z</time></trkpt><trkpt lat="59.5599044301" lon="31.2707686611"><ele>238.06</ele><time>2026-09-02T18:18:19Z</time></trkpt><trkpt lat="59.5598945394" lon="31.2707833294"><ele>238.06</ele><time>2026-09-02T18:18:20Z</time></trkpt><trkpt lat="59.5598867442" lon="31.2707938906"><ele>238.06</ele><time>2026-09-02T18:18:21Z</time></trkpt><trkpt lat="59.5598785300" lon="31.2708072178"><ele>238.06</ele><time>2026-09-02T18:18:22Z</time></trkpt><trkpt lat="59.5598727465" lon="31.2708131690"><ele>238.06</ele><time>2026-09-02T18:18:23Z</time></trkpt><trkpt lat="59.5598639455" lon="31.2708287593"><ele>238.06</ele><time>2026-09-02T18:18:24Z</time></trkpt><trkpt lat="59.5598556474" lon="31.2708414998"><ele>237.58</ele><time>2026-09-02T18:18:25Z</time></trkpt><trkpt lat="59.5598462597" lon="31.2708470318"><ele>237.58</ele><time>2026-09-02T18:18:26Z</time></trkpt><trkpt lat="59.5598367881" lon="31.2708445173"><ele>237.58</ele><time>2026-09-02T18:18:27Z</time></trkpt><trkpt lat="59.5598268975" lon="31.2708441820"><ele>237.58</ele><time>2026-09-02T18:18:28Z</time></trkpt><trkpt lat="59.5598178450" lon="31.2708419189"><ele>237.58</ele><time>2026-09-02T18:18:29Z</time></trkpt><trkpt lat="59.5598101337" lon="31.2708427571"><ele>237.58</ele><time>2026-09-02T18:18:30Z</time></trkpt><trkpt lat="59.5598049369" lon="31.2708438467"><ele>237.58</ele><time>2026-09-02T18:18:31Z</time></trkpt><trkpt lat="59.5597998239" lon="31.2708440982"><ele>237.58</ele><time>2026-09-02T18:18:32Z</time></trkpt><trkpt lat="59.5597926993" lon="31.2708436791"><ele>237.58</ele><time>2026-09-02T18:18:33Z</time></trkpt><trkpt lat="59.5597873349" lon="31.2708387338"><ele>237.58</ele><time>2026-09-02T18:18:34Z</time></trkpt><trkpt lat="59.5597804617" lon="31.2708433438"><ele>237.58</ele><time>2026-09-02T18:18:35Z</time></trkpt><trkpt lat="59.5597763546" lon="31.2708443496"><ele>237.58</ele><time>2026-09-02T18:18:36Z</time></trkpt><trkpt lat="59.5597704872" lon="31.2708497979"><ele>237.58</ele><time>2026-09-02T18:18:37Z</time></trkpt><trkpt lat="59.5597660448" lon="31.2708536536"><ele>237.58</ele><time>2026-09-02T18:18:38Z</time></trkpt><trkpt lat="59.5597649552" lon="31.2708570901"><ele>237.58</ele><time>2026-09-02T18:18:39Z</time></trkpt><trkpt lat="59.5597611833" lon="31.2708609458"><ele>237.58</ele><time>2026-09-02T18:18:40Z</time></trkpt><trkpt lat="59.5597611833" lon="31.2708609458"><ele>237.58</ele><time>2026-09-02T18:18:41Z</time></trkpt><trkpt lat="59.5597611833" lon="31.2708609458"><ele>237.58</ele><time>2026-09-02T18:18:42Z</time></trkpt><trkpt lat="59.5597611833" lon="31.2708609458"><ele>237.58</ele><time>2026-09-02T18:18:43Z</time></trkpt><trkpt lat="59.5597611833" lon="31.2708609458"><ele>237.58</ele><time>2026-09-02T18:18:44Z</time></trkpt><trkpt lat="59.5597611833" lon="31.2708609458"><ele>237.58</ele><time>2026-09-02T18:18:45Z</time></trkpt><trkpt lat="59.5597611833" lon="31.2708609458"><ele>237.58</ele><time>2026-09-02T18:18:46Z</time></trkpt><trkpt lat="59.5597611833" lon="31.2708609458"><ele>237.58</ele><time>2026-09-02T18:18:47Z</time></trkpt><trkpt lat="59.5597611833" lon="31.2708609458"><ele>237.58</ele><time>2026-09-02T18:18:48Z</time></trkpt><trkpt lat="59.5597611833" lon="31.2708609458"><ele>237.58</ele><time>2026-09-02T18:18:49Z</time></trkpt><trkpt lat="59.5597611833" lon="31.2708609458"><ele>237.58</ele><time>2026-09-02T18:18:50Z</time></trkpt><trkpt lat="59.5597611833" lon="31.2708609458"><ele>237.58</ele><time>2026-09-02T18:18:51Z</time></trkpt><trkpt lat="59.5597611833" lon="31.2708609458"><ele>237.58</ele><time>2026-09-02T18:18:52Z</time></trkpt><trkpt lat="59.5597611833" lon="31.2708609458"><ele>237.58</ele><time>2026-09-02T18:18:53Z</time></trkpt><trkpt lat="59.5597611833" lon="31.2708609458"><ele>237.10</ele><time>2026-09-02T18:18:54Z</time></trkpt><trkpt lat="59.5597611833" lon="31.2708609458"><ele>237.10</ele><time>2026-09-02T18:18:55Z</time></trkpt><trkpt lat="59.5597611833" lon="31.2708609458"><ele>237.10</ele><time>2026-09-02T18:18:56Z</time></trkpt><trkpt lat="59.5597611833" lon="31.2708609458"><ele>237.10</ele><time>2026-09-02T18:18:57Z</time></trkpt><trkpt lat="59.5597611833" lon="31.2708609458"><ele>237.10</ele><time>2026-09-02T18:18:58Z</time></trkpt><trkpt lat="59.5597611833" lon="31.2708609458"><ele>237.10</ele><time>2026-09-02T18:18:59Z</time></trkpt><trkpt lat="59.5597611833" lon="31.2708609458"><ele>237.10</ele><time>2026-09-02T18:19:00Z</time></trkpt><trkpt lat="59.5597611833" lon="31.2708609458"><ele>237.10</ele><time>2026-09-02T18:19:01Z</time></trkpt><trkpt lat="59.5597611833" lon="31.2708609458"><ele>237.10</ele><time>2026-09-02T18:19:02Z</time></trkpt><trkpt lat="59.5597611833" lon="31.2708609458"><ele>237.10</ele><time>2026-09-02T18:19:03Z</time></trkpt><trkpt lat="59.5597611833" lon="31.2708609458"><ele>236.62</ele><time>2026-09-02T18:19:04Z</time></trkpt><trkpt lat="59.5597611833" lon="31.2708609458"><ele>236.62</ele><time>2026-09-02T18:19:05Z</time></trkpt><trkpt lat="59.5597611833" lon="31.2708609458"><ele>236.62</ele><time>2026-09-02T18:19:06Z</time></trkpt><trkpt lat="59.5597609319" lon="31.2708608620"><ele>236.62</ele><time>2026-09-02T18:19:07Z</time></trkpt><trkpt lat="59.5597621892" lon="31.2708605267"><ele>236.62</ele><time>2026-09-02T18:19:08Z</time></trkpt><trkpt lat="59.5597624406" lon="31.2708587665"><ele>236.62</ele><time>2026-09-02T18:19:09Z</time></trkpt><trkpt lat="59.5597627759" lon="31.2708573416"><ele>236.62</ele><time>2026-09-02T18:19:10Z</time></trkpt><trkpt lat="59.5597627759" lon="31.2708573416"><ele>236.62</ele><time>2026-09-02T18:19:11Z</time></trkpt><trkpt lat="59.5597627759" lon="31.2708573416"><ele>236.62</ele><time>2026-09-02T18:19:12Z</time></trkpt><trkpt lat="59.5597627759" lon="31.2708573416"><ele>236.62</ele><time>2026-09-02T18:19:13Z</time></trkpt><trkpt lat="59.5597627759" lon="31.2708573416"><ele>236.62</ele><time>2026-09-02T18:19:14Z</time></trkpt><trkpt lat="59.5597627759" lon="31.2708573416"><ele>236.62</ele><time>2026-09-02T18:19:15Z</time></trkpt><trkpt lat="59.5597627759" lon="31.2708573416"><ele>236.62</ele><time>2026-09-02T18:19:16Z</time></trkpt><trkpt lat="59.5597627759" lon="31.2708573416"><ele>236.62</ele><time>2026-09-02T18:19:17Z</time></trkpt><trkpt lat="59.5597627759" lon="31.2708573416"><ele>236.62</ele><time>2026-09-02T18:19:18Z</time></trkpt><trkpt lat="59.5597627759" lon="31.2708573416"><ele>236.62</ele><time>2026-09-02T18:19:19Z</time></trkpt><trkpt lat="59.5597627759" lon="31.2708573416"><ele>236.62</ele><time>2026-09-02T18:19:20Z</time></trkpt><trkpt lat="59.5597627759" lon="31.2708573416"><ele>236.62</ele><time>2026-09-02T18:19:21Z</time></trkpt><trkpt lat="59.5597627759" lon="31.2708573416"><ele>236.62</ele><time>2026-09-02T18:19:22Z</time></trkpt><trkpt lat="59.5597627759" lon="31.2708573416"><ele>236.62</ele><time>2026-09-02T18:19:23Z</time></trkpt><trkpt lat="59.5597627759" lon="31.2708573416"><ele>236.62</ele><time>2026-09-02T18:19:24Z</time></trkpt><trkpt lat="59.5597627759" lon="31.2708573416"><ele>236.62</ele><time>2026-09-02T18:19:25Z</time></trkpt><trkpt lat="59.5597627759" lon="31.2708573416"><ele>237.10</ele><time>2026-09-02T18:19:26Z</time></trkpt><trkpt lat="59.5597627759" lon="31.2708573416"><ele>237.10</ele><time>2026-09-02T18:19:27Z</time></trkpt><trkpt lat="59.5597627759" lon="31.2708573416"><ele>237.10</ele><time>2026-09-02T18:19:28Z</time></trkpt><trkpt lat="59.5597627759" lon="31.2708573416"><ele>237.10</ele><time>2026-09-02T18:19:29Z</time></trkpt><trkpt lat="59.5597627759" lon="31.2708573416"><ele>237.10</ele><time>2026-09-02T18:19:30Z</time></trkpt><trkpt lat="59.5597627759" lon="31.2708573416"><ele>237.10</ele><time>2026-09-02T18:19:31Z</time></trkpt><trkpt lat="59.5597627759" lon="31.2708573416"><ele>237.10</ele><time>2026-09-02T18:19:32Z</time></trkpt><trkpt lat="59.5597627759" lon="31.2708573416"><ele>237.10</ele><time>2026-09-02T18:19:33Z</time></trkpt><trkpt lat="59.5597627759" lon="31.2708573416"><ele>237.10</ele><time>2026-09-02T18:19:34Z</time></trkpt><trkpt lat="59.5597627759" lon="31.2708573416"><ele>237.10</ele><time>2026-09-02T18:19:35Z</time></trkpt><trkpt lat="59.5597627759" lon="31.2708573416"><ele>237.10</ele><time>2026-09-02T18:19:36Z</time></trkpt><trkpt lat="59.5597627759" lon="31.2708573416"><ele>237.10</ele><time>2026-09-02T18:19:37Z</time></trkpt><trkpt lat="59.5597627759" lon="31.2708573416"><ele>237.10</ele><time>2026-09-02T18:19:38Z</time></trkpt><trkpt lat="59.5597627759" lon="31.2708573416"><ele>237.10</ele><time>2026-09-02T18:19:39Z</time></trkpt><trkpt lat="59.5597627759" lon="31.2708573416"><ele>237.10</ele><time>2026-09-02T18:19:40Z</time></trkpt><trkpt lat="59.5597627759" lon="31.2708573416"><ele>237.10</ele><time>2026-09-02T18:19:41Z</time></trkpt><trkpt lat="59.5597627759" lon="31.2708573416"><ele>237.10</ele><time>2026-09-02T18:19:42Z</time></trkpt><trkpt lat="59.5597627759" lon="31.2708573416"><ele>237.10</ele><time>2026-09-02T18:19:43Z</time></trkpt><trkpt lat="59.5597627759" lon="31.2708573416"><ele>237.10</ele><time>2026-09-02T18:19:44Z</time></trkpt><trkpt lat="59.5597627759" lon="31.2708573416"><ele>237.10</ele><time>2026-09-02T18:19:45Z</time></trkpt><trkpt lat="59.5597627759" lon="31.2708573416"><ele>237.10</ele><time>2026-09-02T18:19:46Z</time></trkpt><trkpt lat="59.5597627759" lon="31.2708573416"><ele>237.10</ele><time>2026-09-02T18:19:47Z</time></trkpt><trkpt lat="59.5597627759" lon="31.2708573416"><ele>237.10</ele><time>2026-09-02T18:19:48Z</time></trkpt><trkpt lat="59.5597627759" lon="31.2708573416"><ele>237.10</ele><time>2026-09-02T18:19:49Z</time></trkpt><trkpt lat="59.5597627759" lon="31.2708573416"><ele>237.58</ele><time>2026-09-02T18:19:50Z</time></trkpt><trkpt lat="59.5597627759" lon="31.2708573416"><ele>237.58</ele><time>2026-09-02T18:19:51Z</time></trkpt><trkpt lat="59.5597627759" lon="31.2708573416"><ele>237.58</ele><time>2026-09-02T18:19:52Z</time></trkpt><trkpt lat="59.5597627759" lon="31.2708573416"><ele>237.58</ele><time>2026-09-02T18:19:53Z</time></trkpt><trkpt lat="59.5597627759" lon="31.2708573416"><ele>237.58</ele><time>2026-09-02T18:19:54Z</time></trkpt><trkpt lat="59.5597627759" lon="31.2708573416"><ele>237.58</ele><time>2026-09-02T18:19:55Z</time></trkpt><trkpt lat="59.5597627759" lon="31.2708573416"><ele>237.58</ele><time>2026-09-02T18:19:56Z</time></trkpt><trkpt lat="59.5597627759" lon="31.2708573416"><ele>237.58</ele><time>2026-09-02T18:19:57Z</time></trkpt><trkpt lat="59.5597627759" lon="31.2708573416"><ele>237.58</ele><time>2026-09-02T18:19:58Z</time></trkpt><trkpt lat="59.5597627759" lon="31.2708573416"><ele>237.10</ele><time>2026-09-02T18:19:59Z</time></trkpt><trkpt lat="59.5597627759" lon="31.2708573416"><ele>237.10</ele><time>2026-09-02T18:20:00Z</time></trkpt><trkpt lat="59.5597627759" lon="31.2708573416"><ele>237.10</ele><time>2026-09-02T18:20:01Z</time></trkpt><trkpt lat="59.5597627759" lon="31.2708573416"><ele>237.10</ele><time>2026-09-02T18:20:02Z</time></trkpt><trkpt lat="59.5597627759" lon="31.2708573416"><ele>237.10</ele><time>2026-09-02T18:20:03Z</time></trkpt><trkpt lat="59.5597627759" lon="31.2708573416"><ele>237.10</ele><time>2026-09-02T18:20:04Z</time></trkpt><trkpt lat="59.5597627759" lon="31.2708573416"><ele>237.10</ele><time>2026-09-02T18:20:05Z</time></trkpt><trkpt lat="59.5597627759" lon="31.2708573416"><ele>237.10</ele><time>2026-09-02T18:20:06Z</time></trkpt><trkpt lat="59.5597627759" lon="31.2708573416"><ele>237.10</ele><time>2026-09-02T18:20:07Z</time></trkpt><trkpt lat="59.5597627759" lon="31.2708573416"><ele>237.10</ele><time>2026-09-02T18:20:08Z</time></trkpt><trkpt lat="59.5597627759" lon="31.2708573416"><ele>237.10</ele><time>2026-09-02T18:20:09Z</time></trkpt><trkpt lat="59.5597627759" lon="31.2708573416"><ele>237.10</ele><time>2026-09-02T18:20:10Z</time></trkpt><trkpt lat="59.5597627759" lon="31.2708573416"><ele>237.10</ele><time>2026-09-02T18:20:11Z</time></trkpt><trkpt lat="59.5597627759" lon="31.2708573416"><ele>237.10</ele><time>2026-09-02T18:20:12Z</time></trkpt><trkpt lat="59.5597627759" lon="31.2708573416"><ele>237.10</ele><time>2026-09-02T18:20:13Z</time></trkpt><trkpt lat="59.5597627759" lon="31.2708573416"><ele>237.10</ele><time>2026-09-02T18:20:14Z</time></trkpt><trkpt lat="59.5597627759" lon="31.2708573416"><ele>236.62</ele><time>2026-09-02T18:20:15Z</time></trkpt><trkpt lat="59.5597627759" lon="31.2708573416"><ele>236.62</ele><time>2026-09-02T18:20:16Z</time></trkpt><trkpt lat="59.5597627759" lon="31.2708573416"><ele>236.62</ele><time>2026-09-02T18:20:17Z</time></trkpt><trkpt lat="59.5597627759" lon="31.2708573416"><ele>236.62</ele><time>2026-09-02T18:20:18Z</time></trkpt><trkpt lat="59.5597627759" lon="31.2708573416"><ele>236.62</ele><time>2026-09-02T18:20:19Z</time></trkpt><trkpt lat="59.5597627759" lon="31.2708573416"><ele>236.62</ele><time>2026-09-02T18:20:20Z</time></trkpt><trkpt lat="59.5597627759" lon="31.2708573416"><ele>237.10</ele><time>2026-09-02T18:20:21Z</time></trkpt><trkpt lat="59.5597627759" lon="31.2708573416"><ele>237.10</ele><time>2026-09-02T18:20:22Z</time></trkpt><trkpt lat="59.5597627759" lon="31.2708573416"><ele>237.10</ele><time>2026-09-02T18:20:23Z</time></trkpt><trkpt lat="59.5597627759" lon="31.2708573416"><ele>237.10</ele><time>2026-09-02T18:20:24Z</time></trkpt><trkpt lat="59.5597627759" lon="31.2708573416"><ele>237.10</ele><time>2026-09-02T18:20:25Z</time></trkpt><trkpt lat="59.5597627759" lon="31.2708573416"><ele>237.10</ele><time>2026-09-02T18:20:26Z</time></trkpt><trkpt lat="59.5597627759" lon="31.2708573416"><ele>237.10</ele><time>2026-09-02T18:20:27Z</time></trkpt><trkpt lat="59.5597627759" lon="31.2708573416"><ele>237.10</ele><time>2026-09-02T18:20:28Z</time></trkpt><trkpt lat="59.5597627759" lon="31.2708573416"><ele>237.10</ele><time>2026-09-02T18:20:29Z</time></trkpt><trkpt lat="59.5597627759" lon="31.2708573416"><ele>237.10</ele><time>2026-09-02T18:20:30Z</time></trkpt><trkpt lat="59.5597627759" lon="31.2708573416"><ele>237.10</ele><time>2026-09-02T18:20:31Z</time></trkpt><trkpt lat="59.5597627759" lon="31.2708573416"><ele>237.10</ele><time>2026-09-02T18:20:32Z</time></trkpt><trkpt lat="59.5597627759" lon="31.2708573416"><ele>237.10</ele><time>2026-09-02T18:20:33Z</time></trkpt><trkpt lat="59.5597627759" lon="31.2708573416"><ele>237.10</ele><time>2026-09-02T18:20:34Z</time></trkpt><trkpt lat="59.5597627759" lon="31.2708573416"><ele>237.10</ele><time>2026-09-02T18:20:35Z</time></trkpt><trkpt lat="59.5597627759" lon="31.2708573416"><ele>237.10</ele><time>2026-09-02T18:20:36Z</time></trkpt><trkpt lat="59.5597627759" lon="31.2708573416"><ele>237.10</ele><time>2026-09-02T18:20:37Z</time></trkpt><trkpt lat="59.5597627759" lon="31.2708573416"><ele>237.10</ele><time>2026-09-02T18:20:38Z</time></trkpt><trkpt lat="59.5597627759" lon="31.2708573416"><ele>237.10</ele><time>2026-09-02T18:20:39Z</time></trkpt><trkpt lat="59.5597627759" lon="31.2708573416"><ele>237.10</ele><time>2026-09-02T18:20:40Z</time></trkpt><trkpt lat="59.5597627759" lon="31.2708573416"><ele>237.10</ele><time>2026-09-02T18:20:41Z</time></trkpt><trkpt lat="59.5597627759" lon="31.2708573416"><ele>237.10</ele><time>2026-09-02T18:20:42Z</time></trkpt><trkpt lat="59.5597627759" lon="31.2708573416"><ele>237.10</ele><time>2026-09-02T18:20:43Z</time></trkpt><trkpt lat="59.5597627759" lon="31.2708573416"><ele>236.62</ele><time>2026-09-02T18:20:44Z</time></trkpt><trkpt lat="59.5597627759" lon="31.2708573416"><ele>236.62</ele><time>2026-09-02T18:20:45Z</time></trkpt><trkpt lat="59.5597627759" lon="31.2708573416"><ele>236.62</ele><time>2026-09-02T18:20:46Z</time></trkpt><trkpt lat="59.5597627759" lon="31.2708573416"><ele>236.62</ele><time>2026-09-02T18:20:47Z</time></trkpt><trkpt lat="59.5597627759" lon="31.2708573416"><ele>236.62</ele><time>2026-09-02T18:20:48Z</time></trkpt><trkpt lat="59.5597627759" lon="31.2708573416"><ele>237.10</ele><time>2026-09-02T18:20:49Z</time></trkpt><trkpt lat="59.5597627759" lon="31.2708573416"><ele>237.10</ele><time>2026-09-02T18:20:50Z</time></trkpt><trkpt lat="59.5597627759" lon="31.2708573416"><ele>237.10</ele><time>2026-09-02T18:20:51Z</time></trkpt><trkpt lat="59.5597627759" lon="31.2708573416"><ele>237.10</ele><time>2026-09-02T18:20:52Z</time></trkpt><trkpt lat="59.5597627759" lon="31.2708573416"><ele>237.10</ele><time>2026-09-02T18:20:53Z</time></trkpt><trkpt lat="59.5597627759" lon="31.2708573416"><ele>237.10</ele><time>2026-09-02T18:20:54Z</time></trkpt><trkpt lat="59.5597627759" lon="31.2708573416"><ele>237.10</ele><time>2026-09-02T18:20:55Z</time></trkpt><trkpt lat="59.5597627759" lon="31.2708573416"><ele>237.10</ele><time>2026-09-02T18:20:56Z</time></trkpt><trkpt lat="59.5597627759" lon="31.2708573416"><ele>237.10</ele><time>2026-09-02T18:20:57Z</time></trkpt><trkpt lat="59.5597627759" lon="31.2708573416"><ele>237.10</ele><time>2026-09-02T18:20:58Z</time></trkpt><trkpt lat="59.5597627759" lon="31.2708573416"><ele>237.10</ele><time>2026-09-02T18:20:59Z</time></trkpt><trkpt lat="59.5597627759" lon="31.2708573416"><ele>237.10</ele><time>2026-09-02T18:21:00Z</time></trkpt><trkpt lat="59.5597627759" lon="31.2708573416"><ele>237.10</ele><time>2026-09-02T18:21:01Z</time></trkpt><trkpt lat="59.5597627759" lon="31.2708573416"><ele>237.10</ele><time>2026-09-02T18:21:02Z</time></trkpt><trkpt lat="59.5597627759" lon="31.2708573416"><ele>237.10</ele><time>2026-09-02T18:21:03Z</time></trkpt><trkpt lat="59.5597627759" lon="31.2708573416"><ele>237.10</ele><time>2026-09-02T18:21:04Z</time></trkpt><trkpt lat="59.5597627759" lon="31.2708573416"><ele>237.10</ele><time>2026-09-02T18:21:05Z</time></trkpt><trkpt lat="59.5597627759" lon="31.2708573416"><ele>237.10</ele><time>2026-09-02T18:21:06Z</time></trkpt><trkpt lat="59.5597627759" lon="31.2708573416"><ele>237.10</ele><time>2026-09-02T18:21:07Z</time></trkpt><trkpt lat="59.5597627759" lon="31.2708573416"><ele>237.10</ele><time>2026-09-02T18:21:08Z</time></trkpt><trkpt lat="59.5597627759" lon="31.2708573416"><ele>237.10</ele><time>2026-09-02T18:21:09Z</time></trkpt><trkpt lat="59.5597627759" lon="31.2708573416"><ele>237.10</ele><time>2026-09-02T18:21:10Z</time></trkpt><trkpt lat="59.5597627759" lon="31.2708573416"><ele>237.10</ele><time>2026-09-02T18:21:11Z</time></trkpt><trkpt lat="59.5597627759" lon="31.2708573416"><ele>237.10</ele><time>2026-09-02T18:21:12Z</time></trkpt><trkpt lat="59.5597627759" lon="31.2708573416"><ele>237.10</ele><time>2026-09-02T18:21:13Z</time></trkpt><trkpt lat="59.5597627759" lon="31.2708573416"><ele>237.10</ele><time>2026-09-02T18:21:14Z</time></trkpt><trkpt lat="59.5597627759" lon="31.2708573416"><ele>237.10</ele><time>2026-09-02T18:21:15Z</time></trkpt><trkpt lat="59.5597627759" lon="31.2708573416"><ele>237.10</ele><time>2026-09-02T18:21:16Z</time></trkpt><trkpt lat="59.5597627759" lon="31.2708573416"><ele>237.10</ele><time>2026-09-02T18:21:17Z</time></trkpt><trkpt lat="59.5597627759" lon="31.2708573416"><ele>237.10</ele><time>2026-09-02T18:21:18Z</time></trkpt><trkpt lat="59.5597627759" lon="31.2708573416"><ele>237.10</ele><time>2026-09-02T18:21:19Z</time></trkpt><trkpt lat="59.5597627759" lon="31.2708573416"><ele>237.10</ele><time>2026-09-02T18:21:20Z</time></trkpt><trkpt lat="59.5597627759" lon="31.2708573416"><ele>237.10</ele><time>2026-09-02T18:21:21Z</time></trkpt><trkpt lat="59.5597627759" lon="31.2708573416"><ele>237.10</ele><time>2026-09-02T18:21:22Z</time></trkpt><trkpt lat="59.5597627759" lon="31.2708573416"><ele>237.10</ele><time>2026-09-02T18:21:23Z</time></trkpt><trkpt lat="59.5597627759" lon="31.2708573416"><ele>237.10</ele><time>2026-09-02T18:21:24Z</time></trkpt><trkpt lat="59.5597627759" lon="31.2708573416"><ele>237.10</ele><time>2026-09-02T18:21:25Z</time></trkpt><trkpt lat="59.5597627759" lon="31.2708573416"><ele>237.10</ele><time>2026-09-02T18:21:26Z</time></trkpt><trkpt lat="59.5597627759" lon="31.2708573416"><ele>237.10</ele><time>2026-09-02T18:21:27Z</time></trkpt><trkpt lat="59.5597627759" lon="31.2708573416"><ele>237.10</ele><time>2026-09-02T18:21:28Z</time></trkpt><trkpt lat="59.5597627759" lon="31.2708573416"><ele>237.10</ele><time>2026-09-02T18:21:29Z</time></trkpt><trkpt lat="59.5597627759" lon="31.2708573416"><ele>237.10</ele><time>2026-09-02T18:21:30Z</time></trkpt><trkpt lat="59.5597627759" lon="31.2708573416"><ele>237.10</ele><time>2026-09-02T18:21:31Z</time></trkpt><trkpt lat="59.5597627759" lon="31.2708573416"><ele>237.10</ele><time>2026-09-02T18:21:32Z</time></trkpt><trkpt lat="59.5597627759" lon="31.2708573416"><ele>237.10</ele><time>2026-09-02T18:21:33Z</time></trkpt><trkpt lat="59.5597627759" lon="31.2708573416"><ele>237.10</ele><time>2026-09-02T18:21:34Z</time></trkpt><trkpt lat="59.5597627759" lon="31.2708573416"><ele>237.10</ele><time>2026-09-02T18:21:35Z</time></trkpt><trkpt lat="59.5597627759" lon="31.2708573416"><ele>237.10</ele><time>2026-09-02T18:21:36Z</time></trkpt><trkpt lat="59.5597627759" lon="31.2708573416"><ele>237.10</ele><time>2026-09-02T18:21:37Z</time></trkpt><trkpt lat="59.5597627759" lon="31.2708573416"><ele>237.10</ele><time>2026-09-02T18:21:38Z</time></trkpt><trkpt lat="59.5597627759" lon="31.2708573416"><ele>237.10</ele><time>2026-09-02T18:21:39Z</time></trkpt><trkpt lat="59.5597424917" lon="31.2708898634"><ele>237.10</ele><time>2026-09-02T18:21:40Z</time></trkpt><trkpt lat="59.5597470179" lon="31.2708898634"><ele>237.10</ele><time>2026-09-02T18:21:41Z</time></trkpt><trkpt lat="59.5597483590" lon="31.2708812300"><ele>237.10</ele><time>2026-09-02T18:21:42Z</time></trkpt><trkpt lat="59.5597453415" lon="31.2708750274"><ele>237.10</ele><time>2026-09-02T18:21:43Z</time></trkpt><trkpt lat="59.5597438328" lon="31.2708715908"><ele>237.10</ele><time>2026-09-02T18:21:44Z</time></trkpt><trkpt lat="59.5597438328" lon="31.2708715908"><ele>237.10</ele><time>2026-09-02T18:21:45Z</time></trkpt><trkpt lat="59.5597438328" lon="31.2708715908"><ele>237.10</ele><time>2026-09-02T18:21:46Z</time></trkpt><trkpt lat="59.5597438328" lon="31.2708715908"><ele>237.10</ele><time>2026-09-02T18:21:47Z</time></trkpt><trkpt lat="59.5597438328" lon="31.2708715908"><ele>237.10</ele><time>2026-09-02T18:21:48Z</time></trkpt><trkpt lat="59.5597438328" lon="31.2708715908"><ele>237.10</ele><time>2026-09-02T18:21:49Z</time></trkpt><trkpt lat="59.5597438328" lon="31.2708715908"><ele>237.10</ele><time>2026-09-02T18:21:50Z</time></trkpt><trkpt lat="59.5597438328" lon="31.2708715908"><ele>237.10</ele><time>2026-09-02T18:21:51Z</time></trkpt><trkpt lat="59.5597393904" lon="31.2708317768"><ele>237.10</ele><time>2026-09-02T18:21:52Z</time></trkpt><trkpt lat="59.5597367920" lon="31.2708267476"><ele>237.10</ele><time>2026-09-02T18:21:53Z</time></trkpt><trkpt lat="59.5597386360" lon="31.2708197907"><ele>237.10</ele><time>2026-09-02T18:21:54Z</time></trkpt><trkpt lat="59.5597395580" lon="31.2708160188"><ele>237.10</ele><time>2026-09-02T18:21:55Z</time></trkpt><trkpt lat="59.5597384684" lon="31.2708185334"><ele>237.10</ele><time>2026-09-02T18:21:56Z</time></trkpt><trkpt lat="59.5597384684" lon="31.2708185334"><ele>237.10</ele><time>2026-09-02T18:21:57Z</time></trkpt><trkpt lat="59.5597384684" lon="31.2708185334"><ele>237.10</ele><time>2026-09-02T18:21:58Z</time></trkpt><trkpt lat="59.5597384684" lon="31.2708185334"><ele>237.10</ele><time>2026-09-02T18:21:59Z</time></trkpt><trkpt lat="59.5597384684" lon="31.2708185334"><ele>237.10</ele><time>2026-09-02T18:22:00Z</time></trkpt><trkpt lat="59.5597384684" lon="31.2708185334"><ele>237.10</ele><time>2026-09-02T18:22:01Z</time></trkpt><trkpt lat="59.5597384684" lon="31.2708185334"><ele>237.10</ele><time>2026-09-02T18:22:02Z</time></trkpt><trkpt lat="59.5597384684" lon="31.2708185334"><ele>237.10</ele><time>2026-09-02T18:22:03Z</time></trkpt><trkpt lat="59.5597384684" lon="31.2708185334"><ele>237.10</ele><time>2026-09-02T18:22:04Z</time></trkpt><trkpt lat="59.5597384684" lon="31.2708185334"><ele>237.10</ele><time>2026-09-02T18:22:05Z</time></trkpt><trkpt lat="59.5597384684" lon="31.2708185334"><ele>237.10</ele><time>2026-09-02T18:22:06Z</time></trkpt><trkpt lat="59.5597384684" lon="31.2708185334"><ele>237.10</ele><time>2026-09-02T18:22:07Z</time></trkpt><trkpt lat="59.5597384684" lon="31.2708185334"><ele>237.10</ele><time>2026-09-02T18:22:08Z</time></trkpt><trkpt lat="59.5597384684" lon="31.2708185334"><ele>237.10</ele><time>2026-09-02T18:22:09Z</time></trkpt><trkpt lat="59.5597384684" lon="31.2708185334"><ele>237.10</ele><time>2026-09-02T18:22:10Z</time></trkpt><trkpt lat="59.5597384684" lon="31.2708185334"><ele>237.10</ele><time>2026-09-02T18:22:11Z</time></trkpt><trkpt lat="59.5597384684" lon="31.2708185334"><ele>237.10</ele><time>2026-09-02T18:22:12Z</time></trkpt><trkpt lat="59.5597384684" lon="31.2708185334"><ele>237.10</ele><time>2026-09-02T18:22:13Z</time></trkpt><trkpt lat="59.5597384684" lon="31.2708185334"><ele>237.10</ele><time>2026-09-02T18:22:14Z</time></trkpt><trkpt lat="59.5597384684" lon="31.2708185334"><ele>237.10</ele><time>2026-09-02T18:22:15Z</time></trkpt><trkpt lat="59.5597384684" lon="31.2708185334"><ele>237.10</ele><time>2026-09-02T18:22:16Z</time></trkpt><trkpt lat="59.5597384684" lon="31.2708185334"><ele>237.10</ele><time>2026-09-02T18:22:17Z</time></trkpt><trkpt lat="59.5597384684" lon="31.2708185334"><ele>237.10</ele><time>2026-09-02T18:22:18Z</time></trkpt><trkpt lat="59.5597384684" lon="31.2708185334"><ele>237.10</ele><time>2026-09-02T18:22:19Z</time></trkpt><trkpt lat="59.5597384684" lon="31.2708185334"><ele>237.10</ele><time>2026-09-02T18:22:20Z</time></trkpt><trkpt lat="59.5597384684" lon="31.2708185334"><ele>237.10</ele><time>2026-09-02T18:22:21Z</time></trkpt><trkpt lat="59.5597384684" lon="31.2708185334"><ele>237.10</ele><time>2026-09-02T18:22:22Z</time></trkpt><trkpt lat="59.5597384684" lon="31.2708185334"><ele>237.10</ele><time>2026-09-02T18:22:23Z</time></trkpt><trkpt lat="59.5597384684" lon="31.2708185334"><ele>237.10</ele><time>2026-09-02T18:22:24Z</time></trkpt><trkpt lat="59.5597384684" lon="31.2708185334"><ele>237.10</ele><time>2026-09-02T18:22:25Z</time></trkpt><trkpt lat="59.5597384684" lon="31.2708185334"><ele>237.10</ele><time>2026-09-02T18:22:26Z</time></trkpt><trkpt lat="59.5597384684" lon="31.2708185334"><ele>237.10</ele><time>2026-09-02T18:22:27Z</time></trkpt><trkpt lat="59.5597384684" lon="31.2708185334"><ele>237.10</ele><time>2026-09-02T18:22:28Z</time></trkpt><trkpt lat="59.5597384684" lon="31.2708185334"><ele>237.10</ele><time>2026-09-02T18:22:29Z</time></trkpt><trkpt lat="59.5597384684" lon="31.2708185334"><ele>237.10</ele><time>2026-09-02T18:22:30Z</time></trkpt><trkpt lat="59.5597384684" lon="31.2708185334"><ele>237.10</ele><time>2026-09-02T18:22:31Z</time></trkpt><trkpt lat="59.5597384684" lon="31.2708185334"><ele>237.10</ele><time>2026-09-02T18:22:32Z</time></trkpt><trkpt lat="59.5597384684" lon="31.2708185334"><ele>237.10</ele><time>2026-09-02T18:22:33Z</time></trkpt><trkpt lat="59.5597384684" lon="31.2708185334"><ele>237.10</ele><time>2026-09-02T18:22:34Z</time></trkpt><trkpt lat="59.5597384684" lon="31.2708185334"><ele>237.10</ele><time>2026-09-02T18:22:35Z</time></trkpt><trkpt lat="59.5597384684" lon="31.2708185334"><ele>237.10</ele><time>2026-09-02T18:22:36Z</time></trkpt><trkpt lat="59.5597384684" lon="31.2708185334"><ele>237.10</ele><time>2026-09-02T18:22:37Z</time></trkpt><trkpt lat="59.5597384684" lon="31.2708185334"><ele>237.10</ele><time>2026-09-02T18:22:38Z</time></trkpt><trkpt lat="59.5597384684" lon="31.2708185334"><ele>237.10</ele><time>2026-09-02T18:22:39Z</time></trkpt><trkpt lat="59.5597384684" lon="31.2708185334"><ele>237.10</ele><time>2026-09-02T18:22:40Z</time></trkpt><trkpt lat="59.5597384684" lon="31.2708185334"><ele>237.10</ele><time>2026-09-02T18:22:41Z</time></trkpt><trkpt lat="59.5597384684" lon="31.2708185334"><ele>237.10</ele><time>2026-09-02T18:22:42Z</time></trkpt><trkpt lat="59.5597384684" lon="31.2708185334"><ele>237.10</ele><time>2026-09-02T18:22:43Z</time></trkpt><trkpt lat="59.5597384684" lon="31.2708185334"><ele>237.10</ele><time>2026-09-02T18:22:44Z</time></trkpt><trkpt lat="59.5597384684" lon="31.2708185334"><ele>237.10</ele><time>2026-09-02T18:22:45Z</time></trkpt><trkpt lat="59.5597384684" lon="31.2708185334"><ele>237.10</ele><time>2026-09-02T18:22:46Z</time></trkpt><trkpt lat="59.5597384684" lon="31.2708185334"><ele>237.10</ele><time>2026-09-02T18:22:47Z</time></trkpt><trkpt lat="59.5597384684" lon="31.2708185334"><ele>237.10</ele><time>2026-09-02T18:22:48Z</time></trkpt><trkpt lat="59.5597384684" lon="31.2708185334"><ele>237.10</ele><time>2026-09-02T18:22:49Z</time></trkpt><trkpt lat="59.5597384684" lon="31.2708185334"><ele>237.10</ele><time>2026-09-02T18:22:50Z</time></trkpt><trkpt lat="59.5597384684" lon="31.2708185334"><ele>237.10</ele><time>2026-09-02T18:22:51Z</time></trkpt><trkpt lat="59.5597384684" lon="31.2708185334"><ele>237.10</ele><time>2026-09-02T18:22:52Z</time></trkpt><trkpt lat="59.5597384684" lon="31.2708185334"><ele>237.10</ele><time>2026-09-02T18:22:53Z</time></trkpt><trkpt lat="59.5597384684" lon="31.2708185334"><ele>237.10</ele><time>2026-09-02T18:22:54Z</time></trkpt><trkpt lat="59.5597384684" lon="31.2708185334"><ele>237.10</ele><time>2026-09-02T18:22:55Z</time></trkpt><trkpt lat="59.5597384684" lon="31.2708185334"><ele>237.10</ele><time>2026-09-02T18:22:56Z</time></trkpt><trkpt lat="59.5597384684" lon="31.2708185334"><ele>237.10</ele><time>2026-09-02T18:22:57Z</time></trkpt><trkpt lat="59.5597384684" lon="31.2708185334"><ele>237.10</ele><time>2026-09-02T18:22:58Z</time></trkpt><trkpt lat="59.5597384684" lon="31.2708185334"><ele>237.10</ele><time>2026-09-02T18:22:59Z</time></trkpt><trkpt lat="59.5597384684" lon="31.2708185334"><ele>237.10</ele><time>2026-09-02T18:23:00Z</time></trkpt><trkpt lat="59.5597384684" lon="31.2708185334"><ele>237.10</ele><time>2026-09-02T18:23:01Z</time></trkpt><trkpt lat="59.5597384684" lon="31.2708185334"><ele>237.10</ele><time>2026-09-02T18:23:02Z</time></trkpt><trkpt lat="59.5597384684" lon="31.2708185334"><ele>237.10</ele><time>2026-09-02T18:23:03Z</time></trkpt><trkpt lat="59.5597384684" lon="31.2708185334"><ele>237.10</ele><time>2026-09-02T18:23:04Z</time></trkpt><trkpt lat="59.5597384684" lon="31.2708185334"><ele>237.10</ele><time>2026-09-02T18:23:05Z</time></trkpt><trkpt lat="59.5597384684" lon="31.2708185334"><ele>237.10</ele><time>2026-09-02T18:23:06Z</time></trkpt><trkpt lat="59.5597384684" lon="31.2708185334"><ele>237.10</ele><time>2026-09-02T18:23:07Z</time></trkpt><trkpt lat="59.5597384684" lon="31.2708185334"><ele>237.10</ele><time>2026-09-02T18:23:08Z</time></trkpt><trkpt lat="59.5597384684" lon="31.2708185334"><ele>237.10</ele><time>2026-09-02T18:23:09Z</time></trkpt><trkpt lat="59.5597384684" lon="31.2708185334"><ele>237.10</ele><time>2026-09-02T18:23:10Z</time></trkpt><trkpt lat="59.5597384684" lon="31.2708185334"><ele>237.10</ele><time>2026-09-02T18:23:11Z</time></trkpt><trkpt lat="59.5597384684" lon="31.2708185334"><ele>237.10</ele><time>2026-09-02T18:23:12Z</time></trkpt><trkpt lat="59.5597384684" lon="31.2708185334"><ele>237.10</ele><time>2026-09-02T18:23:13Z</time></trkpt><trkpt lat="59.5597384684" lon="31.2708185334"><ele>237.10</ele><time>2026-09-02T18:23:14Z</time></trkpt><trkpt lat="59.5597384684" lon="31.2708185334"><ele>237.10</ele><time>2026-09-02T18:23:15Z</time></trkpt><trkpt lat="59.5597384684" lon="31.2708185334"><ele>237.10</ele><time>2026-09-02T18:23:16Z</time></trkpt><trkpt lat="59.5597384684" lon="31.2708185334"><ele>237.10</ele><time>2026-09-02T18:23:17Z</time></trkpt><trkpt lat="59.5597384684" lon="31.2708185334"><ele>237.10</ele><time>2026-09-02T18:23:18Z</time></trkpt><trkpt lat="59.5597384684" lon="31.2708185334"><ele>237.10</ele><time>2026-09-02T18:23:19Z</time></trkpt><trkpt lat="59.5597384684" lon="31.2708185334"><ele>237.10</ele><time>2026-09-02T18:23:20Z</time></trkpt><trkpt lat="59.5597384684" lon="31.2708185334"><ele>237.10</ele><time>2026-09-02T18:23:21Z</time></trkpt><trkpt lat="59.5597384684" lon="31.2708185334"><ele>237.10</ele><time>2026-09-02T18:23:22Z</time></trkpt><trkpt lat="59.5597384684" lon="31.2708185334"><ele>237.10</ele><time>2026-09-02T18:23:23Z</time></trkpt><trkpt lat="59.5597384684" lon="31.2708185334"><ele>237.10</ele><time>2026-09-02T18:23:24Z</time></trkpt><trkpt lat="59.5597384684" lon="31.2708185334"><ele>237.10</ele><time>2026-09-02T18:23:25Z</time></trkpt><trkpt lat="59.5597384684" lon="31.2708185334"><ele>237.10</ele><time>2026-09-02T18:23:26Z</time></trkpt><trkpt lat="59.5597384684" lon="31.2708185334"><ele>237.10</ele><time>2026-09-02T18:23:27Z</time></trkpt><trkpt lat="59.5597384684" lon="31.2708185334"><ele>237.10</ele><time>2026-09-02T18:23:28Z</time></trkpt><trkpt lat="59.5597384684" lon="31.2708185334"><ele>237.10</ele><time>2026-09-02T18:23:29Z</time></trkpt><trkpt lat="59.5597384684" lon="31.2708185334"><ele>237.10</ele><time>2026-09-02T18:23:30Z</time></trkpt><trkpt lat="59.5597384684" lon="31.2708185334"><ele>237.10</ele><time>2026-09-02T18:23:31Z</time></trkpt><trkpt lat="59.5597384684" lon="31.2708185334"><ele>237.10</ele><time>2026-09-02T18:23:32Z</time></trkpt><trkpt lat="59.5597384684" lon="31.2708185334"><ele>237.10</ele><time>2026-09-02T18:23:33Z</time></trkpt><trkpt lat="59.5597384684" lon="31.2708185334"><ele>237.10</ele><time>2026-09-02T18:23:34Z</time></trkpt><trkpt lat="59.5597384684" lon="31.2708185334"><ele>237.10</ele><time>2026-09-02T18:23:35Z</time></trkpt><trkpt lat="59.5597384684" lon="31.2708185334"><ele>237.10</ele><time>2026-09-02T18:23:36Z</time></trkpt><trkpt lat="59.5597384684" lon="31.2708185334"><ele>236.62</ele><time>2026-09-02T18:23:37Z</time></trkpt><trkpt lat="59.5597384684" lon="31.2708185334"><ele>236.62</ele><time>2026-09-02T18:23:38Z</time></trkpt><trkpt lat="59.5597384684" lon="31.2708185334"><ele>236.62</ele><time>2026-09-02T18:23:39Z</time></trkpt><trkpt lat="59.5597384684" lon="31.2708185334"><ele>236.62</ele><time>2026-09-02T18:23:40Z</time></trkpt><trkpt lat="59.5597384684" lon="31.2708185334"><ele>236.62</ele><time>2026-09-02T18:23:41Z</time></trkpt><trkpt lat="59.5597384684" lon="31.2708185334"><ele>236.62</ele><time>2026-09-02T18:23:42Z</time></trkpt><trkpt lat="59.5597384684" lon="31.2708185334"><ele>236.62</ele><time>2026-09-02T18:23:43Z</time></trkpt><trkpt lat="59.5597384684" lon="31.2708185334"><ele>236.62</ele><time>2026-09-02T18:23:44Z</time></trkpt><trkpt lat="59.5597384684" lon="31.2708185334"><ele>236.62</ele><time>2026-09-02T18:23:45Z</time></trkpt><trkpt lat="59.5597384684" lon="31.2708185334"><ele>236.62</ele><time>2026-09-02T18:23:46Z</time></trkpt><trkpt lat="59.5597384684" lon="31.2708185334"><ele>236.62</ele><time>2026-09-02T18:23:47Z</time></trkpt><trkpt lat="59.5597384684" lon="31.2708185334"><ele>236.62</ele><time>2026-09-02T18:23:48Z</time></trkpt><trkpt lat="59.5597384684" lon="31.2708185334"><ele>236.62</ele><time>2026-09-02T18:23:49Z</time></trkpt><trkpt lat="59.5597384684" lon="31.2708185334"><ele>236.62</ele><time>2026-09-02T18:23:50Z</time></trkpt><trkpt lat="59.5597384684" lon="31.2708185334"><ele>237.10</ele><time>2026-09-02T18:23:51Z</time></trkpt><trkpt lat="59.5597384684" lon="31.2708185334"><ele>237.10</ele><time>2026-09-02T18:23:52Z</time></trkpt><trkpt lat="59.5597384684" lon="31.2708185334"><ele>236.62</ele><time>2026-09-02T18:23:53Z</time></trkpt><trkpt lat="59.5597384684" lon="31.2708185334"><ele>236.62</ele><time>2026-09-02T18:23:54Z</time></trkpt><trkpt lat="59.5597384684" lon="31.2708185334"><ele>237.10</ele><time>2026-09-02T18:23:55Z</time></trkpt><trkpt lat="59.5597384684" lon="31.2708185334"><ele>237.10</ele><time>2026-09-02T18:23:56Z</time></trkpt><trkpt lat="59.5597384684" lon="31.2708185334"><ele>237.10</ele><time>2026-09-02T18:23:57Z</time></trkpt><trkpt lat="59.5597384684" lon="31.2708185334"><ele>237.10</ele><time>2026-09-02T18:23:58Z</time></trkpt><trkpt lat="59.5597384684" lon="31.2708185334"><ele>237.10</ele><time>2026-09-02T18:23:59Z</time></trkpt><trkpt lat="59.5597384684" lon="31.2708185334"><ele>237.10</ele><time>2026-09-02T18:24:00Z</time></trkpt><trkpt lat="59.5597384684" lon="31.2708185334"><ele>237.10</ele><time>2026-09-02T18:24:01Z</time></trkpt><trkpt lat="59.5597384684" lon="31.2708185334"><ele>237.10</ele><time>2026-09-02T18:24:02Z</time></trkpt><trkpt lat="59.5597384684" lon="31.2708185334"><ele>236.62</ele><time>2026-09-02T18:24:03Z</time></trkpt><trkpt lat="59.5597384684" lon="31.2708185334"><ele>236.62</ele><time>2026-09-02T18:24:04Z</time></trkpt><trkpt lat="59.5597384684" lon="31.2708185334"><ele>236.62</ele><time>2026-09-02T18:24:05Z</time></trkpt><trkpt lat="59.5597384684" lon="31.2708185334"><ele>236.62</ele><time>2026-09-02T18:24:06Z</time></trkpt><trkpt lat="59.5597384684" lon="31.2708185334"><ele>236.62</ele><time>2026-09-02T18:24:07Z</time></trkpt><trkpt lat="59.5597384684" lon="31.2708185334"><ele>236.62</ele><time>2026-09-02T18:24:08Z</time></trkpt><trkpt lat="59.5597384684" lon="31.2708185334"><ele>236.62</ele><time>2026-09-02T18:24:09Z</time></trkpt><trkpt lat="59.5597384684" lon="31.2708185334"><ele>236.62</ele><time>2026-09-02T18:24:10Z</time></trkpt><trkpt lat="59.5597384684" lon="31.2708185334"><ele>236.62</ele><time>2026-09-02T18:24:11Z</time></trkpt><trkpt lat="59.5597384684" lon="31.2708185334"><ele>236.62</ele><time>2026-09-02T18:24:12Z</time></trkpt><trkpt lat="59.5597384684" lon="31.2708185334"><ele>236.62</ele><time>2026-09-02T18:24:13Z</time></trkpt><trkpt lat="59.5597384684" lon="31.2708185334"><ele>237.10</ele><time>2026-09-02T18:24:14Z</time></trkpt><trkpt lat="59.5597384684" lon="31.2708185334"><ele>237.10</ele><time>2026-09-02T18:24:15Z</time></trkpt><trkpt lat="59.5597384684" lon="31.2708185334"><ele>237.10</ele><time>2026-09-02T18:24:16Z</time></trkpt><trkpt lat="59.5597384684" lon="31.2708185334"><ele>237.10</ele><time>2026-09-02T18:24:17Z</time></trkpt><trkpt lat="59.5597384684" lon="31.2708185334"><ele>237.10</ele><time>2026-09-02T18:24:18Z</time></trkpt><trkpt lat="59.5597384684" lon="31.2708185334"><ele>237.10</ele><time>2026-09-02T18:24:19Z</time></trkpt><trkpt lat="59.5597384684" lon="31.2708185334"><ele>236.62</ele><time>2026-09-02T18:24:20Z</time></trkpt><trkpt lat="59.5597384684" lon="31.2708185334"><ele>236.62</ele><time>2026-09-02T18:24:21Z</time></trkpt><trkpt lat="59.5597384684" lon="31.2708185334"><ele>237.10</ele><time>2026-09-02T18:24:22Z</time></trkpt><trkpt lat="59.5597384684" lon="31.2708185334"><ele>237.10</ele><time>2026-09-02T18:24:23Z</time></trkpt><trkpt lat="59.5597384684" lon="31.2708185334"><ele>237.10</ele><time>2026-09-02T18:24:24Z</time></trkpt><trkpt lat="59.5597384684" lon="31.2708185334"><ele>237.10</ele><time>2026-09-02T18:24:25Z</time></trkpt><trkpt lat="59.5597384684" lon="31.2708185334"><ele>237.10</ele><time>2026-09-02T18:24:26Z</time></trkpt><trkpt lat="59.5597384684" lon="31.2708185334"><ele>237.10</ele><time>2026-09-02T18:24:27Z</time></trkpt><trkpt lat="59.5597384684" lon="31.2708185334"><ele>237.58</ele><time>2026-09-02T18:24:28Z</time></trkpt><trkpt lat="59.5597384684" lon="31.2708185334"><ele>237.58</ele><time>2026-09-02T18:24:29Z</time></trkpt><trkpt lat="59.5597384684" lon="31.2708185334"><ele>237.10</ele><time>2026-09-02T18:24:30Z</time></trkpt><trkpt lat="59.5597384684" lon="31.2708185334"><ele>237.10</ele><time>2026-09-02T18:24:31Z</time></trkpt><trkpt lat="59.5597384684" lon="31.2708185334"><ele>237.10</ele><time>2026-09-02T18:24:32Z</time></trkpt><trkpt lat="59.5597384684" lon="31.2708185334"><ele>237.10</ele><time>2026-09-02T18:24:33Z</time></trkpt><trkpt lat="59.5597384684" lon="31.2708185334"><ele>237.10</ele><time>2026-09-02T18:24:34Z</time></trkpt><trkpt lat="59.5597384684" lon="31.2708185334"><ele>237.10</ele><time>2026-09-02T18:24:35Z</time></trkpt><trkpt lat="59.5597384684" lon="31.2708185334"><ele>237.10</ele><time>2026-09-02T18:24:36Z</time></trkpt><trkpt lat="59.5597384684" lon="31.2708185334"><ele>237.10</ele><time>2026-09-02T18:24:37Z</time></trkpt><trkpt lat="59.5597384684" lon="31.2708185334"><ele>237.10</ele><time>2026-09-02T18:24:38Z</time></trkpt><trkpt lat="59.5597384684" lon="31.2708185334"><ele>237.10</ele><time>2026-09-02T18:24:39Z</time></trkpt><trkpt lat="59.5597501192" lon="31.2707943935"><ele>237.10</ele><time>2026-09-02T18:24:40Z</time></trkpt><trkpt lat="59.5597586688" lon="31.2707884423"><ele>237.10</ele><time>2026-09-02T18:24:41Z</time></trkpt><trkpt lat="59.5597673859" lon="31.2707805634"><ele>237.10</ele><time>2026-09-02T18:24:42Z</time></trkpt><trkpt lat="59.5597758517" lon="31.2707750313"><ele>237.10</ele><time>2026-09-02T18:24:43Z</time></trkpt><trkpt lat="59.5597807970" lon="31.2707721815"><ele>237.10</ele><time>2026-09-02T18:24:44Z</time></trkpt><trkpt lat="59.5597888436" lon="31.2707654759"><ele>237.10</ele><time>2026-09-02T18:24:45Z</time></trkpt><trkpt lat="59.5597974770" lon="31.2707610335"><ele>237.10</ele><time>2026-09-02T18:24:46Z</time></trkpt><trkpt lat="59.5598008297" lon="31.2707500532"><ele>237.58</ele><time>2026-09-02T18:24:47Z</time></trkpt><trkpt lat="59.5598046854" lon="31.2707369775"><ele>237.58</ele><time>2026-09-02T18:24:48Z</time></trkpt><trkpt lat="59.5598089602" lon="31.2707289308"><ele>237.58</ele><time>2026-09-02T18:24:49Z</time></trkpt><trkpt lat="59.5598209463" lon="31.2707237341"><ele>237.58</ele><time>2026-09-02T18:24:50Z</time></trkpt><trkpt lat="59.5598305855" lon="31.2707198784"><ele>237.58</ele><time>2026-09-02T18:24:51Z</time></trkpt><trkpt lat="59.5598392189" lon="31.2707101554"><ele>237.58</ele><time>2026-09-02T18:24:52Z</time></trkpt><trkpt lat="59.5598471817" lon="31.2707026955"><ele>237.58</ele><time>2026-09-02T18:24:53Z</time></trkpt><trkpt lat="59.5598539710" lon="31.2707009353"><ele>237.58</ele><time>2026-09-02T18:24:54Z</time></trkpt><trkpt lat="59.5598623529" lon="31.2706993427"><ele>237.58</ele><time>2026-09-02T18:24:55Z</time></trkpt><trkpt lat="59.5598701481" lon="31.2706959900"><ele>237.58</ele><time>2026-09-02T18:24:56Z</time></trkpt><trkpt lat="59.5598793682" lon="31.2706928886"><ele>237.58</ele><time>2026-09-02T18:24:57Z</time></trkpt><trkpt lat="59.5598886721" lon="31.2706871890"><ele>237.58</ele><time>2026-09-02T18:24:58Z</time></trkpt><trkpt lat="59.5598942880" lon="31.2706754543"><ele>237.58</ele><time>2026-09-02T18:24:59Z</time></trkpt><trkpt lat="59.5598974731" lon="31.2706655636"><ele>237.58</ele><time>2026-09-02T18:25:00Z</time></trkpt><trkpt lat="59.5599017479" lon="31.2706560921"><ele>237.58</ele><time>2026-09-02T18:25:01Z</time></trkpt><trkpt lat="59.5599013288" lon="31.2706460338"><ele>238.06</ele><time>2026-09-02T18:25:02Z</time></trkpt><trkpt lat="59.5599062741" lon="31.2706364784"><ele>238.06</ele><time>2026-09-02T18:25:03Z</time></trkpt><trkpt lat="59.5599085372" lon="31.2706251629"><ele>238.06</ele><time>2026-09-02T18:25:04Z</time></trkpt><trkpt lat="59.5599104650" lon="31.2706115842"><ele>238.06</ele><time>2026-09-02T18:25:05Z</time></trkpt><trkpt lat="59.5599147398" lon="31.2706008554"><ele>238.06</ele><time>2026-09-02T18:25:06Z</time></trkpt><trkpt lat="59.5599192660" lon="31.2705868576"><ele>238.06</ele><time>2026-09-02T18:25:07Z</time></trkpt><trkpt lat="59.5599217806" lon="31.2705719378"><ele>238.54</ele><time>2026-09-02T18:25:08Z</time></trkpt><trkpt lat="59.5599233732" lon="31.2705575209"><ele>238.54</ele><time>2026-09-02T18:25:09Z</time></trkpt><trkpt lat="59.5599232893" lon="31.2705421820"><ele>238.54</ele><time>2026-09-02T18:25:10Z</time></trkpt><trkpt lat="59.5599239599" lon="31.2705268431"><ele>238.54</ele><time>2026-09-02T18:25:11Z</time></trkpt><trkpt lat="59.5599251334" lon="31.2705132645"><ele>239.02</ele><time>2026-09-02T18:25:12Z</time></trkpt><trkpt lat="59.5599283185" lon="31.2704969198"><ele>239.02</ele><time>2026-09-02T18:25:13Z</time></trkpt><trkpt lat="59.5599337667" lon="31.2704813294"><ele>239.02</ele><time>2026-09-02T18:25:14Z</time></trkpt><trkpt lat="59.5599394664" lon="31.2704690918"><ele>239.02</ele><time>2026-09-02T18:25:15Z</time></trkpt><trkpt lat="59.5599478483" lon="31.2704581954"><ele>239.02</ele><time>2026-09-02T18:25:16Z</time></trkpt><trkpt lat="59.5599557273" lon="31.2704465445"><ele>239.02</ele><time>2026-09-02T18:25:17Z</time></trkpt><trkpt lat="59.5599621814" lon="31.2704326306"><ele>239.02</ele><time>2026-09-02T18:25:18Z</time></trkpt><trkpt lat="59.5599667914" lon="31.2704177946"><ele>239.51</ele><time>2026-09-02T18:25:19Z</time></trkpt><trkpt lat="59.5599693898" lon="31.2704049703"><ele>239.51</ele><time>2026-09-02T18:25:20Z</time></trkpt><trkpt lat="59.5599716529" lon="31.2703909725"><ele>239.51</ele><time>2026-09-02T18:25:21Z</time></trkpt><trkpt lat="59.5599736646" lon="31.2703766394"><ele>239.51</ele><time>2026-09-02T18:25:22Z</time></trkpt><trkpt lat="59.5599758439" lon="31.2703651562"><ele>239.51</ele><time>2026-09-02T18:25:23Z</time></trkpt><trkpt lat="59.5599800348" lon="31.2703481410"><ele>239.51</ele><time>2026-09-02T18:25:24Z</time></trkpt><trkpt lat="59.5599844772" lon="31.2703357358"><ele>239.99</ele><time>2026-09-02T18:25:25Z</time></trkpt><trkpt lat="59.5599883329" lon="31.2703260966"><ele>239.99</ele><time>2026-09-02T18:25:26Z</time></trkpt><trkpt lat="59.5599936973" lon="31.2703239173"><ele>239.99</ele><time>2026-09-02T18:25:27Z</time></trkpt><trkpt lat="59.5600015763" lon="31.2703224923"><ele>239.99</ele><time>2026-09-02T18:25:28Z</time></trkpt><trkpt lat="59.5600103773" lon="31.2703168765"><ele>239.99</ele><time>2026-09-02T18:25:29Z</time></trkpt><trkpt lat="59.5600149874" lon="31.2703068182"><ele>239.99</ele><time>2026-09-02T18:25:30Z</time></trkpt><trkpt lat="59.5600213576" lon="31.2702970952"><ele>239.99</ele><time>2026-09-02T18:25:31Z</time></trkpt><trkpt lat="59.5600247942" lon="31.2702866178"><ele>239.99</ele><time>2026-09-02T18:25:32Z</time></trkpt><trkpt lat="59.5600297395" lon="31.2702703569"><ele>239.99</ele><time>2026-09-02T18:25:33Z</time></trkpt><trkpt lat="59.5600342657" lon="31.2702549342"><ele>239.99</ele><time>2026-09-02T18:25:34Z</time></trkpt><trkpt lat="59.5600401331" lon="31.2702440377"><ele>239.99</ele><time>2026-09-02T18:25:35Z</time></trkpt><trkpt lat="59.5600450784" lon="31.2702294532"><ele>239.99</ele><time>2026-09-02T18:25:36Z</time></trkpt><trkpt lat="59.5600480959" lon="31.2702140305"><ele>239.99</ele><time>2026-09-02T18:25:37Z</time></trkpt><trkpt lat="59.5600452460" lon="31.2702009548"><ele>240.47</ele><time>2026-09-02T18:25:38Z</time></trkpt><trkpt lat="59.5600438211" lon="31.2701827660"><ele>240.47</ele><time>2026-09-02T18:25:39Z</time></trkpt><trkpt lat="59.5600439887" lon="31.2701664213"><ele>240.47</ele><time>2026-09-02T18:25:40Z</time></trkpt><trkpt lat="59.5600478444" lon="31.2701545190"><ele>240.47</ele><time>2026-09-02T18:25:41Z</time></trkpt><trkpt lat="59.5600515325" lon="31.2701432873"><ele>240.47</ele><time>2026-09-02T18:25:42Z</time></trkpt><trkpt lat="59.5600561425" lon="31.2701290380"><ele>240.47</ele><time>2026-09-02T18:25:43Z</time></trkpt><trkpt lat="59.5600584894" lon="31.2701161299"><ele>240.47</ele><time>2026-09-02T18:25:44Z</time></trkpt><trkpt lat="59.5600629319" lon="31.2701021321"><ele>240.47</ele><time>2026-09-02T18:25:45Z</time></trkpt><trkpt lat="59.5600695536" lon="31.2700879667"><ele>240.47</ele><time>2026-09-02T18:25:46Z</time></trkpt><trkpt lat="59.5600727387" lon="31.2700784951"><ele>240.47</ele><time>2026-09-02T18:25:47Z</time></trkpt><trkpt lat="59.5600758400" lon="31.2700754777"><ele>240.47</ele><time>2026-09-02T18:25:48Z</time></trkpt><trkpt lat="59.5600817911" lon="31.2700770702"><ele>240.47</ele><time>2026-09-02T18:25:49Z</time></trkpt><trkpt lat="59.5600872394" lon="31.2700700294"><ele>240.47</ele><time>2026-09-02T18:25:50Z</time></trkpt><trkpt lat="59.5600946993" lon="31.2700639945"><ele>240.47</ele><time>2026-09-02T18:25:51Z</time></trkpt><trkpt lat="59.5601009857" lon="31.2700579595"><ele>240.47</ele><time>2026-09-02T18:25:52Z</time></trkpt><trkpt lat="59.5601049252" lon="31.2700517569"><ele>240.47</ele><time>2026-09-02T18:25:53Z</time></trkpt><trkpt lat="59.5601104572" lon="31.2700435426"><ele>240.47</ele><time>2026-09-02T18:25:54Z</time></trkpt><trkpt lat="59.5601139776" lon="31.2700354960"><ele>240.47</ele><time>2026-09-02T18:25:55Z</time></trkpt><trkpt lat="59.5601158217" lon="31.2700311374"><ele>240.47</ele><time>2026-09-02T18:25:56Z</time></trkpt><trkpt lat="59.5601209346" lon="31.2700195704"><ele>240.47</ele><time>2026-09-02T18:25:57Z</time></trkpt><trkpt lat="59.5601236168" lon="31.2700097635"><ele>240.47</ele><time>2026-09-02T18:25:58Z</time></trkpt><trkpt lat="59.5601243712" lon="31.2700023875"><ele>240.47</ele><time>2026-09-02T18:25:59Z</time></trkpt><trkpt lat="59.5601266343" lon="31.2699939217"><ele>240.47</ele><time>2026-09-02T18:26:00Z</time></trkpt><trkpt lat="59.5601310767" lon="31.2699812651"><ele>240.47</ele><time>2026-09-02T18:26:01Z</time></trkpt><trkpt lat="59.5601350162" lon="31.2699724641"><ele>240.47</ele><time>2026-09-02T18:26:02Z</time></trkpt><trkpt lat="59.5601401292" lon="31.2699573766"><ele>239.99</ele><time>2026-09-02T18:26:03Z</time></trkpt><trkpt lat="59.5601442363" lon="31.2699457258"><ele>239.99</ele><time>2026-09-02T18:26:04Z</time></trkpt><trkpt lat="59.5601498522" lon="31.2699358352"><ele>239.99</ele><time>2026-09-02T18:26:05Z</time></trkpt><trkpt lat="59.5601541270" lon="31.2699253578"><ele>239.99</ele><time>2026-09-02T18:26:06Z</time></trkpt><trkpt lat="59.5601566415" lon="31.2699121982"><ele>239.99</ele><time>2026-09-02T18:26:07Z</time></trkpt><trkpt lat="59.5601607487" lon="31.2699019723"><ele>239.99</ele><time>2026-09-02T18:26:08Z</time></trkpt><trkpt lat="59.5601619221" lon="31.2698934227"><ele>239.99</ele><time>2026-09-02T18:26:09Z</time></trkpt><trkpt lat="59.5601659454" lon="31.2698888965"><ele>239.99</ele><time>2026-09-02T18:26:10Z</time></trkpt><trkpt lat="59.5601690467" lon="31.2698886450"><ele>239.99</ele><time>2026-09-02T18:26:11Z</time></trkpt><trkpt lat="59.5601690467" lon="31.2698886450"><ele>239.99</ele><time>2026-09-02T18:26:12Z</time></trkpt><trkpt lat="59.5601690467" lon="31.2698886450"><ele>239.99</ele><time>2026-09-02T18:26:13Z</time></trkpt><trkpt lat="59.5601690467" lon="31.2698886450"><ele>239.99</ele><time>2026-09-02T18:26:14Z</time></trkpt><trkpt lat="59.5601690467" lon="31.2698886450"><ele>239.99</ele><time>2026-09-02T18:26:15Z</time></trkpt><trkpt lat="59.5601894986" lon="31.2698748987"><ele>240.47</ele><time>2026-09-02T18:26:16Z</time></trkpt><trkpt lat="59.5601955336" lon="31.2698746473"><ele>240.47</ele><time>2026-09-02T18:26:17Z</time></trkpt><trkpt lat="59.5602005627" lon="31.2698765751"><ele>240.47</ele><time>2026-09-02T18:26:18Z</time></trkpt><trkpt lat="59.5602051727" lon="31.2698767427"><ele>240.47</ele><time>2026-09-02T18:26:19Z</time></trkpt><trkpt lat="59.5602119621" lon="31.2698765751"><ele>240.47</ele><time>2026-09-02T18:26:20Z</time></trkpt><trkpt lat="59.5602119621" lon="31.2698765751"><ele>240.47</ele><time>2026-09-02T18:26:21Z</time></trkpt><trkpt lat="59.5602300670" lon="31.2698845379"><ele>240.47</ele><time>2026-09-02T18:26:22Z</time></trkpt><trkpt lat="59.5602402929" lon="31.2698888965"><ele>240.47</ele><time>2026-09-02T18:26:23Z</time></trkpt><trkpt lat="59.5602494292" lon="31.2698941771"><ele>240.47</ele><time>2026-09-02T18:26:24Z</time></trkpt><trkpt lat="59.5602541231" lon="31.2698934227"><ele>239.99</ele><time>2026-09-02T18:26:25Z</time></trkpt><trkpt lat="59.5602610800" lon="31.2698950991"><ele>239.99</ele><time>2026-09-02T18:26:26Z</time></trkpt><trkpt lat="59.5602690428" lon="31.2698947638"><ele>239.99</ele><time>2026-09-02T18:26:27Z</time></trkpt><trkpt lat="59.5602743234" lon="31.2698918302"><ele>239.99</ele><time>2026-09-02T18:26:28Z</time></trkpt><trkpt lat="59.5602743234" lon="31.2698871363"><ele>239.99</ele><time>2026-09-02T18:26:29Z</time></trkpt><trkpt lat="59.5602770895" lon="31.2698846217"><ele>239.99</ele><time>2026-09-02T18:26:30Z</time></trkpt><trkpt lat="59.5602820348" lon="31.2698826939"><ele>239.99</ele><time>2026-09-02T18:26:31Z</time></trkpt><trkpt lat="59.5602820348" lon="31.2698826939"><ele>239.99</ele><time>2026-09-02T18:26:32Z</time></trkpt><trkpt lat="59.5602960326" lon="31.2698707916"><ele>239.99</ele><time>2026-09-02T18:26:33Z</time></trkpt><trkpt lat="59.5603008941" lon="31.2698602304"><ele>239.99</ele><time>2026-09-02T18:26:34Z</time></trkpt><trkpt lat="59.5603065938" lon="31.2698508427"><ele>239.99</ele><time>2026-09-02T18:26:35Z</time></trkpt><trkpt lat="59.5603118744" lon="31.2698416226"><ele>239.99</ele><time>2026-09-02T18:26:36Z</time></trkpt><trkpt lat="59.5603184961" lon="31.2698323186"><ele>239.99</ele><time>2026-09-02T18:26:37Z</time></trkpt><trkpt lat="59.5603244472" lon="31.2698166445"><ele>239.99</ele><time>2026-09-02T18:26:38Z</time></trkpt><trkpt lat="59.5603291411" lon="31.2698047422"><ele>239.99</ele><time>2026-09-02T18:26:39Z</time></trkpt><trkpt lat="59.5603335835" lon="31.2697924208"><ele>239.99</ele><time>2026-09-02T18:26:40Z</time></trkpt><trkpt lat="59.5603379421" lon="31.2697810214"><ele>239.99</ele><time>2026-09-02T18:26:41Z</time></trkpt><trkpt lat="59.5603411272" lon="31.2697684485"><ele>239.99</ele><time>2026-09-02T18:26:42Z</time></trkpt><trkpt lat="59.5603427198" lon="31.2697505951"><ele>239.99</ele><time>2026-09-02T18:26:43Z</time></trkpt><trkpt lat="59.5603442285" lon="31.2697359268"><ele>239.99</ele><time>2026-09-02T18:26:44Z</time></trkpt><trkpt lat="59.5603449829" lon="31.2697240245"><ele>239.99</ele><time>2026-09-02T18:26:45Z</time></trkpt><trkpt lat="59.5603478327" lon="31.2697144691"><ele>239.99</ele><time>2026-09-02T18:26:46Z</time></trkpt><trkpt lat="59.5603500959" lon="31.2697014771"><ele>239.99</ele><time>2026-09-02T18:26:47Z</time></trkpt><trkpt lat="59.5603534486" lon="31.2696858868"><ele>239.99</ele><time>2026-09-02T18:26:48Z</time></trkpt><trkpt lat="59.5603579748" lon="31.2696678657"><ele>239.99</ele><time>2026-09-02T18:26:49Z</time></trkpt><trkpt lat="59.5603596512" lon="31.2696557958"><ele>239.99</ele><time>2026-09-02T18:26:50Z</time></trkpt><trkpt lat="59.5603608247" lon="31.2696415465"><ele>239.99</ele><time>2026-09-02T18:26:51Z</time></trkpt><trkpt lat="59.5603604894" lon="31.2696263753"><ele>239.99</ele><time>2026-09-02T18:26:52Z</time></trkpt><trkpt lat="59.5603585616" lon="31.2696097791"><ele>239.99</ele><time>2026-09-02T18:26:53Z</time></trkpt><trkpt lat="59.5603588969" lon="31.2695940211"><ele>239.51</ele><time>2026-09-02T18:26:54Z</time></trkpt><trkpt lat="59.5603561308" lon="31.2695840467"><ele>239.51</ele><time>2026-09-02T18:26:55Z</time></trkpt><trkpt lat="59.5603600703" lon="31.2695731502"><ele>239.51</ele><time>2026-09-02T18:26:56Z</time></trkpt><trkpt lat="59.5603707992" lon="31.2695594877"><ele>239.51</ele><time>2026-09-02T18:26:57Z</time></trkpt><trkpt lat="59.5603752416" lon="31.2695445679"><ele>239.51</ele><time>2026-09-02T18:26:58Z</time></trkpt><trkpt lat="59.5603809413" lon="31.2695278879"><ele>239.51</ele><time>2026-09-02T18:26:59Z</time></trkpt><trkpt lat="59.5603851322" lon="31.2695149798"><ele>239.51</ele><time>2026-09-02T18:27:00Z</time></trkpt><trkpt lat="59.5603870600" lon="31.2694963720"><ele>239.51</ele><time>2026-09-02T18:27:01Z</time></trkpt><trkpt lat="59.5603894908" lon="31.2694828771"><ele>239.51</ele><time>2026-09-02T18:27:02Z</time></trkpt><trkpt lat="59.5603904966" lon="31.2694703881"><ele>239.51</ele><time>2026-09-02T18:27:03Z</time></trkpt><trkpt lat="59.5603915863" lon="31.2694592401"><ele>239.51</ele><time>2026-09-02T18:27:04Z</time></trkpt><trkpt lat="59.5603929274" lon="31.2694528699"><ele>239.51</ele><time>2026-09-02T18:27:05Z</time></trkpt><trkpt lat="59.5603936817" lon="31.2694476731"><ele>239.51</ele><time>2026-09-02T18:27:06Z</time></trkpt><trkpt lat="59.5603926759" lon="31.2694465835"><ele>239.51</ele><time>2026-09-02T18:27:07Z</time></trkpt><trkpt lat="59.5603926759" lon="31.2694465835"><ele>239.51</ele><time>2026-09-02T18:27:08Z</time></trkpt><trkpt lat="59.5603926759" lon="31.2694465835"><ele>239.51</ele><time>2026-09-02T18:27:09Z</time></trkpt><trkpt lat="59.5603926759" lon="31.2694465835"><ele>239.51</ele><time>2026-09-02T18:27:10Z</time></trkpt><trkpt lat="59.5603926759" lon="31.2694465835"><ele>239.51</ele><time>2026-09-02T18:27:11Z</time></trkpt><trkpt lat="59.5603926759" lon="31.2694465835"><ele>239.51</ele><time>2026-09-02T18:27:12Z</time></trkpt><trkpt lat="59.5603926759" lon="31.2694465835"><ele>239.02</ele><time>2026-09-02T18:27:13Z</time></trkpt><trkpt lat="59.5603926759" lon="31.2694465835"><ele>239.02</ele><time>2026-09-02T18:27:14Z</time></trkpt><trkpt lat="59.5603926759" lon="31.2694465835"><ele>239.02</ele><time>2026-09-02T18:27:15Z</time></trkpt><trkpt lat="59.5603926759" lon="31.2694465835"><ele>239.02</ele><time>2026-09-02T18:27:16Z</time></trkpt><trkpt lat="59.5603926759" lon="31.2694465835"><ele>239.02</ele><time>2026-09-02T18:27:17Z</time></trkpt><trkpt lat="59.5603926759" lon="31.2694465835"><ele>239.02</ele><time>2026-09-02T18:27:18Z</time></trkpt><trkpt lat="59.5603926759" lon="31.2694465835"><ele>239.02</ele><time>2026-09-02T18:27:19Z</time></trkpt><trkpt lat="59.5603926759" lon="31.2694465835"><ele>239.02</ele><time>2026-09-02T18:27:20Z</time></trkpt><trkpt lat="59.5603926759" lon="31.2694465835"><ele>239.02</ele><time>2026-09-02T18:27:21Z</time></trkpt><trkpt lat="59.5603926759" lon="31.2694465835"><ele>239.02</ele><time>2026-09-02T18:27:22Z</time></trkpt><trkpt lat="59.5603926759" lon="31.2694465835"><ele>239.02</ele><time>2026-09-02T18:27:23Z</time></trkpt><trkpt lat="59.5603926759" lon="31.2694465835"><ele>239.02</ele><time>2026-09-02T18:27:24Z</time></trkpt><trkpt lat="59.5603926759" lon="31.2694465835"><ele>239.02</ele><time>2026-09-02T18:27:25Z</time></trkpt><trkpt lat="59.5603926759" lon="31.2694465835"><ele>239.02</ele><time>2026-09-02T18:27:26Z</time></trkpt><trkpt lat="59.5603926759" lon="31.2694465835"><ele>239.02</ele><time>2026-09-02T18:27:27Z</time></trkpt><trkpt lat="59.5603926759" lon="31.2694465835"><ele>239.02</ele><time>2026-09-02T18:27:28Z</time></trkpt><trkpt lat="59.5603926759" lon="31.2694465835"><ele>239.02</ele><time>2026-09-02T18:27:29Z</time></trkpt><trkpt lat="59.5603926759" lon="31.2694465835"><ele>239.02</ele><time>2026-09-02T18:27:30Z</time></trkpt><trkpt lat="59.5603926759" lon="31.2694465835"><ele>239.02</ele><time>2026-09-02T18:27:31Z</time></trkpt><trkpt lat="59.5603926759" lon="31.2694465835"><ele>239.51</ele><time>2026-09-02T18:27:32Z</time></trkpt><trkpt lat="59.5603926759" lon="31.2694465835"><ele>239.02</ele><time>2026-09-02T18:27:33Z</time></trkpt><trkpt lat="59.5603926759" lon="31.2694465835"><ele>239.02</ele><time>2026-09-02T18:27:34Z</time></trkpt><trkpt lat="59.5603926759" lon="31.2694465835"><ele>239.02</ele><time>2026-09-02T18:27:35Z</time></trkpt><trkpt lat="59.5603926759" lon="31.2694465835"><ele>239.02</ele><time>2026-09-02T18:27:36Z</time></trkpt><trkpt lat="59.5603926759" lon="31.2694465835"><ele>239.02</ele><time>2026-09-02T18:27:37Z</time></trkpt><trkpt lat="59.5603926759" lon="31.2694465835"><ele>239.02</ele><time>2026-09-02T18:27:38Z</time></trkpt><trkpt lat="59.5603926759" lon="31.2694465835"><ele>239.51</ele><time>2026-09-02T18:27:39Z</time></trkpt><trkpt lat="59.5603926759" lon="31.2694465835"><ele>239.51</ele><time>2026-09-02T18:27:40Z</time></trkpt><trkpt lat="59.5603926759" lon="31.2694465835"><ele>239.02</ele><time>2026-09-02T18:27:41Z</time></trkpt><trkpt lat="59.5603926759" lon="31.2694465835"><ele>239.02</ele><time>2026-09-02T18:27:42Z</time></trkpt><trkpt lat="59.5603926759" lon="31.2694465835"><ele>239.02</ele><time>2026-09-02T18:27:43Z</time></trkpt><trkpt lat="59.5603926759" lon="31.2694465835"><ele>239.02</ele><time>2026-09-02T18:27:44Z</time></trkpt><trkpt lat="59.5603926759" lon="31.2694465835"><ele>239.02</ele><time>2026-09-02T18:27:45Z</time></trkpt><trkpt lat="59.5603926759" lon="31.2694465835"><ele>239.02</ele><time>2026-09-02T18:27:46Z</time></trkpt><trkpt lat="59.5603926759" lon="31.2694465835"><ele>239.02</ele><time>2026-09-02T18:27:47Z</time></trkpt><trkpt lat="59.5603926759" lon="31.2694465835"><ele>239.02</ele><time>2026-09-02T18:27:48Z</time></trkpt><trkpt lat="59.5603926759" lon="31.2694465835"><ele>239.02</ele><time>2026-09-02T18:27:49Z</time></trkpt><trkpt lat="59.5603926759" lon="31.2694465835"><ele>239.02</ele><time>2026-09-02T18:27:50Z</time></trkpt><trkpt lat="59.5603926759" lon="31.2694465835"><ele>239.02</ele><time>2026-09-02T18:27:51Z</time></trkpt><trkpt lat="59.5603926759" lon="31.2694465835"><ele>239.02</ele><time>2026-09-02T18:27:52Z</time></trkpt><trkpt lat="59.5603926759" lon="31.2694465835"><ele>239.02</ele><time>2026-09-02T18:27:53Z</time></trkpt><trkpt lat="59.5603926759" lon="31.2694465835"><ele>239.02</ele><time>2026-09-02T18:27:54Z</time></trkpt><trkpt lat="59.5603926759" lon="31.2694465835"><ele>239.02</ele><time>2026-09-02T18:27:55Z</time></trkpt><trkpt lat="59.5603926759" lon="31.2694465835"><ele>239.02</ele><time>2026-09-02T18:27:56Z</time></trkpt><trkpt lat="59.5603926759" lon="31.2694465835"><ele>239.02</ele><time>2026-09-02T18:27:57Z</time></trkpt><trkpt lat="59.5603926759" lon="31.2694465835"><ele>239.02</ele><time>2026-09-02T18:27:58Z</time></trkpt><trkpt lat="59.5603926759" lon="31.2694465835"><ele>239.02</ele><time>2026-09-02T18:27:59Z</time></trkpt><trkpt lat="59.5603926759" lon="31.2694465835"><ele>239.02</ele><time>2026-09-02T18:28:00Z</time></trkpt><trkpt lat="59.5603926759" lon="31.2694465835"><ele>239.02</ele><time>2026-09-02T18:28:01Z</time></trkpt><trkpt lat="59.5603926759" lon="31.2694465835"><ele>239.02</ele><time>2026-09-02T18:28:02Z</time></trkpt><trkpt lat="59.5603926759" lon="31.2694465835"><ele>239.02</ele><time>2026-09-02T18:28:03Z</time></trkpt><trkpt lat="59.5603926759" lon="31.2694465835"><ele>239.02</ele><time>2026-09-02T18:28:04Z</time></trkpt><trkpt lat="59.5603926759" lon="31.2694465835"><ele>239.02</ele><time>2026-09-02T18:28:05Z</time></trkpt><trkpt lat="59.5603926759" lon="31.2694465835"><ele>239.02</ele><time>2026-09-02T18:28:06Z</time></trkpt><trkpt lat="59.5603926759" lon="31.2694465835"><ele>239.02</ele><time>2026-09-02T18:28:07Z</time></trkpt><trkpt lat="59.5603926759" lon="31.2694465835"><ele>239.02</ele><time>2026-09-02T18:28:08Z</time></trkpt><trkpt lat="59.5603926759" lon="31.2694465835"><ele>239.02</ele><time>2026-09-02T18:28:09Z</time></trkpt><trkpt lat="59.5603926759" lon="31.2694465835"><ele>239.02</ele><time>2026-09-02T18:28:10Z</time></trkpt><trkpt lat="59.5603926759" lon="31.2694465835"><ele>239.02</ele><time>2026-09-02T18:28:11Z</time></trkpt><trkpt lat="59.5603926759" lon="31.2694465835"><ele>239.02</ele><time>2026-09-02T18:28:12Z</time></trkpt><trkpt lat="59.5603926759" lon="31.2694465835"><ele>239.02</ele><time>2026-09-02T18:28:13Z</time></trkpt><trkpt lat="59.5603926759" lon="31.2694465835"><ele>239.02</ele><time>2026-09-02T18:28:14Z</time></trkpt><trkpt lat="59.5603926759" lon="31.2694465835"><ele>239.02</ele><time>2026-09-02T18:28:15Z</time></trkpt><trkpt lat="59.5603926759" lon="31.2694465835"><ele>239.02</ele><time>2026-09-02T18:28:16Z</time></trkpt><trkpt lat="59.5603926759" lon="31.2694465835"><ele>239.02</ele><time>2026-09-02T18:28:17Z</time></trkpt><trkpt lat="59.5603926759" lon="31.2694465835"><ele>239.02</ele><time>2026-09-02T18:28:18Z</time></trkpt><trkpt lat="59.5603926759" lon="31.2694465835"><ele>239.02</ele><time>2026-09-02T18:28:19Z</time></trkpt><trkpt lat="59.5603926759" lon="31.2694465835"><ele>239.02</ele><time>2026-09-02T18:28:20Z</time></trkpt><trkpt lat="59.5603926759" lon="31.2694465835"><ele>239.02</ele><time>2026-09-02T18:28:21Z</time></trkpt><trkpt lat="59.5603926759" lon="31.2694465835"><ele>239.02</ele><time>2026-09-02T18:28:22Z</time></trkpt><trkpt lat="59.5603926759" lon="31.2694465835"><ele>239.02</ele><time>2026-09-02T18:28:23Z</time></trkpt><trkpt lat="59.5603926759" lon="31.2694465835"><ele>239.02</ele><time>2026-09-02T18:28:24Z</time></trkpt><trkpt lat="59.5603926759" lon="31.2694465835"><ele>239.02</ele><time>2026-09-02T18:28:25Z</time></trkpt><trkpt lat="59.5603926759" lon="31.2694465835"><ele>239.02</ele><time>2026-09-02T18:28:26Z</time></trkpt><trkpt lat="59.5603926759" lon="31.2694465835"><ele>239.02</ele><time>2026-09-02T18:28:27Z</time></trkpt><trkpt lat="59.5603926759" lon="31.2694465835"><ele>239.02</ele><time>2026-09-02T18:28:28Z</time></trkpt><trkpt lat="59.5603926759" lon="31.2694465835"><ele>239.02</ele><time>2026-09-02T18:28:29Z</time></trkpt><trkpt lat="59.5603926759" lon="31.2694465835"><ele>239.02</ele><time>2026-09-02T18:28:30Z</time></trkpt><trkpt lat="59.5603926759" lon="31.2694465835"><ele>239.02</ele><time>2026-09-02T18:28:31Z</time></trkpt><trkpt lat="59.5603926759" lon="31.2694465835"><ele>239.02</ele><time>2026-09-02T18:28:32Z</time></trkpt><trkpt lat="59.5603926759" lon="31.2694465835"><ele>239.02</ele><time>2026-09-02T18:28:33Z</time></trkpt><trkpt lat="59.5603926759" lon="31.2694465835"><ele>239.02</ele><time>2026-09-02T18:28:34Z</time></trkpt><trkpt lat="59.5603926759" lon="31.2694465835"><ele>239.02</ele><time>2026-09-02T18:28:35Z</time></trkpt><trkpt lat="59.5603926759" lon="31.2694465835"><ele>239.02</ele><time>2026-09-02T18:28:36Z</time></trkpt><trkpt lat="59.5603926759" lon="31.2694465835"><ele>239.02</ele><time>2026-09-02T18:28:37Z</time></trkpt><trkpt lat="59.5603926759" lon="31.2694465835"><ele>239.02</ele><time>2026-09-02T18:28:38Z</time></trkpt><trkpt lat="59.5603926759" lon="31.2694465835"><ele>239.02</ele><time>2026-09-02T18:28:39Z</time></trkpt><trkpt lat="59.5603926759" lon="31.2694465835"><ele>239.51</ele><time>2026-09-02T18:28:40Z</time></trkpt><trkpt lat="59.5603926759" lon="31.2694465835"><ele>239.51</ele><time>2026-09-02T18:28:41Z</time></trkpt><trkpt lat="59.5603926759" lon="31.2694465835"><ele>239.51</ele><time>2026-09-02T18:28:42Z</time></trkpt><trkpt lat="59.5603926759" lon="31.2694465835"><ele>239.51</ele><time>2026-09-02T18:28:43Z</time></trkpt><trkpt lat="59.5603926759" lon="31.2694465835"><ele>239.51</ele><time>2026-09-02T18:28:44Z</time></trkpt><trkpt lat="59.5603926759" lon="31.2694465835"><ele>239.51</ele><time>2026-09-02T18:28:45Z</time></trkpt><trkpt lat="59.5603835396" lon="31.2693801988"><ele>239.51</ele><time>2026-09-02T18:28:46Z</time></trkpt><trkpt lat="59.5603907481" lon="31.2693712302"><ele>239.51</ele><time>2026-09-02T18:28:47Z</time></trkpt><trkpt lat="59.5603979565" lon="31.2693592440"><ele>239.51</ele><time>2026-09-02T18:28:48Z</time></trkpt><trkpt lat="59.5604062546" lon="31.2693484314"><ele>239.51</ele><time>2026-09-02T18:28:49Z</time></trkpt><trkpt lat="59.5604152232" lon="31.2693396304"><ele>239.51</ele><time>2026-09-02T18:28:50Z</time></trkpt><trkpt lat="59.5604244433" lon="31.2693307456"><ele>239.02</ele><time>2026-09-02T18:28:51Z</time></trkpt><trkpt lat="59.5604355913" lon="31.2693221960"><ele>239.02</ele><time>2026-09-02T18:28:52Z</time></trkpt><trkpt lat="59.5604432188" lon="31.2693100423"><ele>239.02</ele><time>2026-09-02T18:28:53Z</time></trkpt><trkpt lat="59.5604495890" lon="31.2692948710"><ele>239.02</ele><time>2026-09-02T18:28:54Z</time></trkpt><trkpt lat="59.5604575519" lon="31.2692822982"><ele>239.02</ele><time>2026-09-02T18:28:55Z</time></trkpt><trkpt lat="59.5604664367" lon="31.2692707311"><ele>238.54</ele><time>2026-09-02T18:28:56Z</time></trkpt><trkpt lat="59.5604743995" lon="31.2692585774"><ele>238.54</ele><time>2026-09-02T18:28:57Z</time></trkpt><trkpt lat="59.5604806859" lon="31.2692468427"><ele>238.06</ele><time>2026-09-02T18:28:58Z</time></trkpt><trkpt lat="59.5604886487" lon="31.2692339346"><ele>238.06</ele><time>2026-09-02T18:28:59Z</time></trkpt><trkpt lat="59.5604972821" lon="31.2692234572"><ele>237.58</ele><time>2026-09-02T18:29:00Z</time></trkpt><trkpt lat="59.5605056640" lon="31.2692119740"><ele>237.58</ele><time>2026-09-02T18:29:01Z</time></trkpt><trkpt lat="59.5605129562" lon="31.2691998202"><ele>237.58</ele><time>2026-09-02T18:29:02Z</time></trkpt><trkpt lat="59.5605173986" lon="31.2691849843"><ele>237.58</ele><time>2026-09-02T18:29:03Z</time></trkpt><trkpt lat="59.5605245233" lon="31.2691668794"><ele>237.58</ele><time>2026-09-02T18:29:04Z</time></trkpt><trkpt lat="59.5605304744" lon="31.2691569887"><ele>237.58</ele><time>2026-09-02T18:29:05Z</time></trkpt><trkpt lat="59.5605373476" lon="31.2691444997"><ele>237.10</ele><time>2026-09-02T18:29:06Z</time></trkpt><trkpt lat="59.5605406165" lon="31.2691307534"><ele>237.10</ele><time>2026-09-02T18:29:07Z</time></trkpt><trkpt lat="59.5605460647" lon="31.2691204436"><ele>237.10</ele><time>2026-09-02T18:29:08Z</time></trkpt><trkpt lat="59.5605530217" lon="31.2691099662"><ele>237.10</ele><time>2026-09-02T18:29:09Z</time></trkpt><trkpt lat="59.5605631638" lon="31.2691012491"><ele>236.62</ele><time>2026-09-02T18:29:10Z</time></trkpt><trkpt lat="59.5605702884" lon="31.2690931186"><ele>236.62</ele><time>2026-09-02T18:29:11Z</time></trkpt><trkpt lat="59.5605788380" lon="31.2690850720"><ele>236.62</ele><time>2026-09-02T18:29:12Z</time></trkpt><trkpt lat="59.5605870523" lon="31.2690799590"><ele>236.62</ele><time>2026-09-02T18:29:13Z</time></trkpt><trkpt lat="59.5605948474" lon="31.2690726668"><ele>236.62</ele><time>2026-09-02T18:29:14Z</time></trkpt><trkpt lat="59.5605983678" lon="31.2690661289"><ele>236.62</ele><time>2026-09-02T18:29:15Z</time></trkpt><trkpt lat="59.5606031455" lon="31.2690587528"><ele>236.62</ele><time>2026-09-02T18:29:16Z</time></trkpt><trkpt lat="59.5606125332" lon="31.2690526340"><ele>236.14</ele><time>2026-09-02T18:29:17Z</time></trkpt><trkpt lat="59.5606221724" lon="31.2690402288"><ele>236.14</ele><time>2026-09-02T18:29:18Z</time></trkpt><trkpt lat="59.5606294647" lon="31.2690314278"><ele>236.14</ele><time>2026-09-02T18:29:19Z</time></trkpt><trkpt lat="59.5606367569" lon="31.2690221239"><ele>236.14</ele><time>2026-09-02T18:29:20Z</time></trkpt><trkpt lat="59.5606442168" lon="31.2690132391"><ele>236.14</ele><time>2026-09-02T18:29:21Z</time></trkpt><trkpt lat="59.5606511738" lon="31.2690059468"><ele>236.14</ele><time>2026-09-02T18:29:22Z</time></trkpt><trkpt lat="59.5606589690" lon="31.2689994927"><ele>235.66</ele><time>2026-09-02T18:29:23Z</time></trkpt><trkpt lat="59.5606644172" lon="31.2689901888"><ele>235.66</ele><time>2026-09-02T18:29:24Z</time></trkpt><trkpt lat="59.5606694464" lon="31.2689806335"><ele>235.66</ele><time>2026-09-02T18:29:25Z</time></trkpt><trkpt lat="59.5606755652" lon="31.2689687312"><ele>235.66</ele><time>2026-09-02T18:29:26Z</time></trkpt><trkpt lat="59.5606816839" lon="31.2689516321"><ele>235.66</ele><time>2026-09-02T18:29:27Z</time></trkpt><trkpt lat="59.5606868807" lon="31.2689386401"><ele>235.66</ele><time>2026-09-02T18:29:28Z</time></trkpt><trkpt lat="59.5606905688" lon="31.2689266540"><ele>235.18</ele><time>2026-09-02T18:29:29Z</time></trkpt><trkpt lat="59.5606925804" lon="31.2689129915"><ele>235.18</ele><time>2026-09-02T18:29:30Z</time></trkpt><trkpt lat="59.5606949273" lon="31.2689076271"><ele>235.18</ele><time>2026-09-02T18:29:31Z</time></trkpt><trkpt lat="59.5606984477" lon="31.2689011730"><ele>235.18</ele><time>2026-09-02T18:29:32Z</time></trkpt><trkpt lat="59.5607052371" lon="31.2688999996"><ele>235.18</ele><time>2026-09-02T18:29:33Z</time></trkpt><trkpt lat="59.5607130323" lon="31.2689029332"><ele>235.18</ele><time>2026-09-02T18:29:34Z</time></trkpt><trkpt lat="59.5607212465" lon="31.2689004187"><ele>235.18</ele><time>2026-09-02T18:29:35Z</time></trkpt><trkpt lat="59.5607330650" lon="31.2689026818"><ele>235.18</ele><time>2026-09-02T18:29:36Z</time></trkpt><trkpt lat="59.5607446320" lon="31.2689023465"><ele>235.18</ele><time>2026-09-02T18:29:37Z</time></trkpt><trkpt lat="59.5607518405" lon="31.2689000834"><ele>234.70</ele><time>2026-09-02T18:29:38Z</time></trkpt><trkpt lat="59.5607583784" lon="31.2688967306"><ele>234.70</ele><time>2026-09-02T18:29:39Z</time></trkpt><trkpt lat="59.5607651677" lon="31.2688947190"><ele>234.70</ele><time>2026-09-02T18:29:40Z</time></trkpt><trkpt lat="59.5607691910" lon="31.2688902766"><ele>234.70</ele><time>2026-09-02T18:29:41Z</time></trkpt><trkpt lat="59.5607712865" lon="31.2688856665"><ele>234.70</ele><time>2026-09-02T18:29:42Z</time></trkpt><trkpt lat="59.5607736334" lon="31.2688813917"><ele>234.70</ele><time>2026-09-02T18:29:43Z</time></trkpt><trkpt lat="59.5607720409" lon="31.2688745186"><ele>234.22</ele><time>2026-09-02T18:29:44Z</time></trkpt><trkpt lat="59.5607720409" lon="31.2688745186"><ele>234.22</ele><time>2026-09-02T18:29:45Z</time></trkpt><trkpt lat="59.5607720409" lon="31.2688745186"><ele>234.22</ele><time>2026-09-02T18:29:46Z</time></trkpt><trkpt lat="59.5607710350" lon="31.2688658852"><ele>234.22</ele><time>2026-09-02T18:29:47Z</time></trkpt><trkpt lat="59.5607699454" lon="31.2688587606"><ele>234.22</ele><time>2026-09-02T18:29:48Z</time></trkpt><trkpt lat="59.5607700292" lon="31.2688516360"><ele>234.22</ele><time>2026-09-02T18:29:49Z</time></trkpt><trkpt lat="59.5607711188" lon="31.2688448466"><ele>234.22</ele><time>2026-09-02T18:29:50Z</time></trkpt><trkpt lat="59.5607711188" lon="31.2688448466"><ele>234.22</ele><time>2026-09-02T18:29:51Z</time></trkpt><trkpt lat="59.5607711188" lon="31.2688448466"><ele>234.70</ele><time>2026-09-02T18:29:52Z</time></trkpt><trkpt lat="59.5607711188" lon="31.2688448466"><ele>234.70</ele><time>2026-09-02T18:29:53Z</time></trkpt><trkpt lat="59.5607711188" lon="31.2688448466"><ele>234.70</ele><time>2026-09-02T18:29:54Z</time></trkpt><trkpt lat="59.5607711188" lon="31.2688448466"><ele>234.70</ele><time>2026-09-02T18:29:55Z</time></trkpt><trkpt lat="59.5607711188" lon="31.2688448466"><ele>234.70</ele><time>2026-09-02T18:29:56Z</time></trkpt><trkpt lat="59.5607711188" lon="31.2688448466"><ele>234.70</ele><time>2026-09-02T18:29:57Z</time></trkpt><trkpt lat="59.5607711188" lon="31.2688448466"><ele>234.70</ele><time>2026-09-02T18:29:58Z</time></trkpt><trkpt lat="59.5607944205" lon="31.2688562460"><ele>234.70</ele><time>2026-09-02T18:29:59Z</time></trkpt><trkpt lat="59.5608013775" lon="31.2688660529"><ele>234.70</ele><time>2026-09-02T18:30:00Z</time></trkpt><trkpt lat="59.5608070772" lon="31.2688753568"><ele>234.70</ele><time>2026-09-02T18:30:01Z</time></trkpt><trkpt lat="59.5608127769" lon="31.2688834872"><ele>234.70</ele><time>2026-09-02T18:30:02Z</time></trkpt><trkpt lat="59.5608189795" lon="31.2688891869"><ele>234.70</ele><time>2026-09-02T18:30:03Z</time></trkpt><trkpt lat="59.5608233381" lon="31.2688942999"><ele>234.70</ele><time>2026-09-02T18:30:04Z</time></trkpt><trkpt lat="59.5608317200" lon="31.2688935455"><ele>234.70</ele><time>2026-09-02T18:30:05Z</time></trkpt><trkpt lat="59.5608389284" lon="31.2688896898"><ele>234.70</ele><time>2026-09-02T18:30:06Z</time></trkpt><trkpt lat="59.5608427841" lon="31.2688834872"><ele>234.70</ele><time>2026-09-02T18:30:07Z</time></trkpt><trkpt lat="59.5608470589" lon="31.2688789610"><ele>234.70</ele><time>2026-09-02T18:30:08Z</time></trkpt><trkpt lat="59.5608528424" lon="31.2688816432"><ele>234.70</ele><time>2026-09-02T18:30:09Z</time></trkpt><trkpt lat="59.5608573686" lon="31.2688865885"><ele>234.70</ele><time>2026-09-02T18:30:10Z</time></trkpt><trkpt lat="59.5608639903" lon="31.2688878458"><ele>234.70</ele><time>2026-09-02T18:30:11Z</time></trkpt><trkpt lat="59.5608629845" lon="31.2688853312"><ele>234.70</ele><time>2026-09-02T18:30:12Z</time></trkpt><trkpt lat="59.5608632360" lon="31.2688847445"><ele>234.70</ele><time>2026-09-02T18:30:13Z</time></trkpt><trkpt lat="59.5608640742" lon="31.2688838225"><ele>234.70</ele><time>2026-09-02T18:30:14Z</time></trkpt><trkpt lat="59.5608640742" lon="31.2688838225"><ele>234.70</ele><time>2026-09-02T18:30:15Z</time></trkpt><trkpt lat="59.5608640742" lon="31.2688838225"><ele>234.70</ele><time>2026-09-02T18:30:16Z</time></trkpt><trkpt lat="59.5608601347" lon="31.2688805535"><ele>234.70</ele><time>2026-09-02T18:30:17Z</time></trkpt><trkpt lat="59.5608553570" lon="31.2688773684"><ele>234.70</ele><time>2026-09-02T18:30:18Z</time></trkpt><trkpt lat="59.5608494896" lon="31.2688765302"><ele>234.70</ele><time>2026-09-02T18:30:19Z</time></trkpt><trkpt lat="59.5608492382" lon="31.2688864209"><ele>234.70</ele><time>2026-09-02T18:30:20Z</time></trkpt><trkpt lat="59.5608484838" lon="31.2688856665"><ele>234.70</ele><time>2026-09-02T18:30:21Z</time></trkpt><trkpt lat="59.5608461369" lon="31.2688840739"><ele>234.70</ele><time>2026-09-02T18:30:22Z</time></trkpt><trkpt lat="59.5608429518" lon="31.2688819785"><ele>234.70</ele><time>2026-09-02T18:30:23Z</time></trkpt><trkpt lat="59.5608429518" lon="31.2688819785"><ele>234.70</ele><time>2026-09-02T18:30:24Z</time></trkpt><trkpt lat="59.5608429518" lon="31.2688819785"><ele>234.70</ele><time>2026-09-02T18:30:25Z</time></trkpt><trkpt lat="59.5608429518" lon="31.2688819785"><ele>234.70</ele><time>2026-09-02T18:30:26Z</time></trkpt><trkpt lat="59.5608429518" lon="31.2688819785"><ele>234.70</ele><time>2026-09-02T18:30:27Z</time></trkpt><trkpt lat="59.5608429518" lon="31.2688819785"><ele>234.70</ele><time>2026-09-02T18:30:28Z</time></trkpt><trkpt lat="59.5608429518" lon="31.2688819785"><ele>234.70</ele><time>2026-09-02T18:30:29Z</time></trkpt><trkpt lat="59.5608429518" lon="31.2688819785"><ele>234.70</ele><time>2026-09-02T18:30:30Z</time></trkpt><trkpt lat="59.5608429518" lon="31.2688819785"><ele>234.70</ele><time>2026-09-02T18:30:31Z</time></trkpt><trkpt lat="59.5608429518" lon="31.2688819785"><ele>234.70</ele><time>2026-09-02T18:30:32Z</time></trkpt><trkpt lat="59.5608429518" lon="31.2688819785"><ele>234.70</ele><time>2026-09-02T18:30:33Z</time></trkpt><trkpt lat="59.5608429518" lon="31.2688819785"><ele>234.70</ele><time>2026-09-02T18:30:34Z</time></trkpt><trkpt lat="59.5608133636" lon="31.2688119896"><ele>234.70</ele><time>2026-09-02T18:30:35Z</time></trkpt><trkpt lat="59.5608154591" lon="31.2687964831"><ele>234.70</ele><time>2026-09-02T18:30:36Z</time></trkpt><trkpt lat="59.5608138666" lon="31.2687808927"><ele>234.70</ele><time>2026-09-02T18:30:37Z</time></trkpt><trkpt lat="59.5608125255" lon="31.2687678169"><ele>234.70</ele><time>2026-09-02T18:30:38Z</time></trkpt><trkpt lat="59.5608103462" lon="31.2687590998"><ele>234.70</ele><time>2026-09-02T18:30:39Z</time></trkpt><trkpt lat="59.5608087536" lon="31.2687515561"><ele>234.70</ele><time>2026-09-02T18:30:40Z</time></trkpt><trkpt lat="59.5608055685" lon="31.2687417492"><ele>234.70</ele><time>2026-09-02T18:30:41Z</time></trkpt><trkpt lat="59.5608027186" lon="31.2687364686"><ele>234.70</ele><time>2026-09-02T18:30:42Z</time></trkpt><trkpt lat="59.5608027186" lon="31.2687364686"><ele>234.70</ele><time>2026-09-02T18:30:43Z</time></trkpt><trkpt lat="59.5608027186" lon="31.2687364686"><ele>234.70</ele><time>2026-09-02T18:30:44Z</time></trkpt><trkpt lat="59.5608027186" lon="31.2687364686"><ele>234.70</ele><time>2026-09-02T18:30:45Z</time></trkpt><trkpt lat="59.5608027186" lon="31.2687364686"><ele>234.70</ele><time>2026-09-02T18:30:46Z</time></trkpt><trkpt lat="59.5608027186" lon="31.2687364686"><ele>234.70</ele><time>2026-09-02T18:30:47Z</time></trkpt><trkpt lat="59.5607926603" lon="31.2686846685"><ele>234.70</ele><time>2026-09-02T18:30:48Z</time></trkpt><trkpt lat="59.5607951749" lon="31.2686762866"><ele>234.70</ele><time>2026-09-02T18:30:49Z</time></trkpt><trkpt lat="59.5607985277" lon="31.2686661445"><ele>234.70</ele><time>2026-09-02T18:30:50Z</time></trkpt><trkpt lat="59.5608017966" lon="31.2686577626"><ele>234.70</ele><time>2026-09-02T18:30:51Z</time></trkpt><trkpt lat="59.5608051494" lon="31.2686488777"><ele>234.70</ele><time>2026-09-02T18:30:52Z</time></trkpt><trkpt lat="59.5608123578" lon="31.2686387356"><ele>234.70</ele><time>2026-09-02T18:30:53Z</time></trkpt><trkpt lat="59.5608162973" lon="31.2686296832"><ele>234.70</ele><time>2026-09-02T18:30:54Z</time></trkpt><trkpt lat="59.5608196501" lon="31.2686256599"><ele>234.70</ele><time>2026-09-02T18:30:55Z</time></trkpt><trkpt lat="59.5608229190" lon="31.2686196249"><ele>234.70</ele><time>2026-09-02T18:30:56Z</time></trkpt><trkpt lat="59.5608273614" lon="31.2686121650"><ele>234.70</ele><time>2026-09-02T18:30:57Z</time></trkpt><trkpt lat="59.5608325582" lon="31.2686013523"><ele>234.70</ele><time>2026-09-02T18:30:58Z</time></trkpt><trkpt lat="59.5608376712" lon="31.2685901206"><ele>234.22</ele><time>2026-09-02T18:30:59Z</time></trkpt><trkpt lat="59.5608419459" lon="31.2685791403"><ele>234.22</ele><time>2026-09-02T18:31:00Z</time></trkpt><trkpt lat="59.5608450472" lon="31.2685687467"><ele>234.22</ele><time>2026-09-02T18:31:01Z</time></trkpt><trkpt lat="59.5608479809" lon="31.2685583532"><ele>234.22</ele><time>2026-09-02T18:31:02Z</time></trkpt><trkpt lat="59.5608498249" lon="31.2685466185"><ele>234.70</ele><time>2026-09-02T18:31:03Z</time></trkpt><trkpt lat="59.5608533453" lon="31.2685337942"><ele>234.70</ele><time>2026-09-02T18:31:04Z</time></trkpt><trkpt lat="59.5608559437" lon="31.2685216404"><ele>234.70</ele><time>2026-09-02T18:31:05Z</time></trkpt><trkpt lat="59.5608607214" lon="31.2685114983"><ele>234.70</ele><time>2026-09-02T18:31:06Z</time></trkpt><trkpt lat="59.5608628169" lon="31.2684998475"><ele>234.70</ele><time>2026-09-02T18:31:07Z</time></trkpt><trkpt lat="59.5608676784" lon="31.2684921362"><ele>234.70</ele><time>2026-09-02T18:31:08Z</time></trkpt><trkpt lat="59.5608689357" lon="31.2684818264"><ele>234.70</ele><time>2026-09-02T18:31:09Z</time></trkpt><trkpt lat="59.5608709473" lon="31.2684750371"><ele>234.70</ele><time>2026-09-02T18:31:10Z</time></trkpt><trkpt lat="59.5608736295" lon="31.2684656493"><ele>234.22</ele><time>2026-09-02T18:31:11Z</time></trkpt><trkpt lat="59.5608777367" lon="31.2684559263"><ele>234.22</ele><time>2026-09-02T18:31:12Z</time></trkpt><trkpt lat="59.5608855318" lon="31.2684473768"><ele>234.22</ele><time>2026-09-02T18:31:13Z</time></trkpt><trkpt lat="59.5608922374" lon="31.2684369832"><ele>234.70</ele><time>2026-09-02T18:31:14Z</time></trkpt><trkpt lat="59.5608980209" lon="31.2684312835"><ele>234.70</ele><time>2026-09-02T18:31:15Z</time></trkpt><trkpt lat="59.5609047264" lon="31.2684276793"><ele>234.22</ele><time>2026-09-02T18:31:16Z</time></trkpt><trkpt lat="59.5609118510" lon="31.2684254162"><ele>234.22</ele><time>2026-09-02T18:31:17Z</time></trkpt><trkpt lat="59.5609235857" lon="31.2684242427"><ele>234.22</ele><time>2026-09-02T18:31:18Z</time></trkpt><trkpt lat="59.5609324705" lon="31.2684214767"><ele>234.22</ele><time>2026-09-02T18:31:19Z</time></trkpt><trkpt lat="59.5609393436" lon="31.2684196327"><ele>234.22</ele><time>2026-09-02T18:31:20Z</time></trkpt><trkpt lat="59.5609443728" lon="31.2684148550"><ele>234.22</ele><time>2026-09-02T18:31:21Z</time></trkpt><trkpt lat="59.5609483961" lon="31.2684089877"><ele>234.22</ele><time>2026-09-02T18:31:22Z</time></trkpt><trkpt lat="59.5609522518" lon="31.2684024498"><ele>234.22</ele><time>2026-09-02T18:31:23Z</time></trkpt><trkpt lat="59.5609583706" lon="31.2683936488"><ele>234.22</ele><time>2026-09-02T18:31:24Z</time></trkpt><trkpt lat="59.5609641541" lon="31.2683867756"><ele>234.70</ele><time>2026-09-02T18:31:25Z</time></trkpt><trkpt lat="59.5609684289" lon="31.2683789805"><ele>234.70</ele><time>2026-09-02T18:31:26Z</time></trkpt><trkpt lat="59.5609744638" lon="31.2683781423"><ele>234.70</ele><time>2026-09-02T18:31:27Z</time></trkpt><trkpt lat="59.5609816723" lon="31.2683744542"><ele>234.70</ele><time>2026-09-02T18:31:28Z</time></trkpt><trkpt lat="59.5609893836" lon="31.2683743704"><ele>234.70</ele><time>2026-09-02T18:31:29Z</time></trkpt><trkpt lat="59.5609927364" lon="31.2683763821"><ele>234.70</ele><time>2026-09-02T18:31:30Z</time></trkpt><trkpt lat="59.5609949995" lon="31.2683694251"><ele>234.70</ele><time>2026-09-02T18:31:31Z</time></trkpt><trkpt lat="59.5609975979" lon="31.2683645636"><ele>234.70</ele><time>2026-09-02T18:31:32Z</time></trkpt><trkpt lat="59.5610004477" lon="31.2683627196"><ele>234.70</ele><time>2026-09-02T18:31:33Z</time></trkpt><trkpt lat="59.5610045549" lon="31.2683583610"><ele>234.22</ele><time>2026-09-02T18:31:34Z</time></trkpt><trkpt lat="59.5610103384" lon="31.2683517393"><ele>234.22</ele><time>2026-09-02T18:31:35Z</time></trkpt><trkpt lat="59.5610145293" lon="31.2683442794"><ele>234.22</ele><time>2026-09-02T18:31:36Z</time></trkpt><trkpt lat="59.5610201452" lon="31.2683340535"><ele>234.22</ele><time>2026-09-02T18:31:37Z</time></trkpt><trkpt lat="59.5610253420" lon="31.2683277670"><ele>234.22</ele><time>2026-09-02T18:31:38Z</time></trkpt><trkpt lat="59.5610295329" lon="31.2683214806"><ele>234.22</ele><time>2026-09-02T18:31:39Z</time></trkpt><trkpt lat="59.5610351488" lon="31.2683151942"><ele>234.22</ele><time>2026-09-02T18:31:40Z</time></trkpt><trkpt lat="59.5610375796" lon="31.2683076505"><ele>234.22</ele><time>2026-09-02T18:31:41Z</time></trkpt><trkpt lat="59.5610414352" lon="31.2683038786"><ele>234.22</ele><time>2026-09-02T18:31:42Z</time></trkpt><trkpt lat="59.5610439498" lon="31.2683020346"><ele>234.22</ele><time>2026-09-02T18:31:43Z</time></trkpt><trkpt lat="59.5610470511" lon="31.2682957482"><ele>234.22</ele><time>2026-09-02T18:31:44Z</time></trkpt><trkpt lat="59.5610494819" lon="31.2682905514"><ele>234.22</ele><time>2026-09-02T18:31:45Z</time></trkpt><trkpt lat="59.5610494819" lon="31.2682905514"><ele>234.22</ele><time>2026-09-02T18:31:46Z</time></trkpt><trkpt lat="59.5610494819" lon="31.2682905514"><ele>234.22</ele><time>2026-09-02T18:31:47Z</time></trkpt><trkpt lat="59.5610494819" lon="31.2682905514"><ele>234.22</ele><time>2026-09-02T18:31:48Z</time></trkpt><trkpt lat="59.5610494819" lon="31.2682905514"><ele>234.22</ele><time>2026-09-02T18:31:49Z</time></trkpt><trkpt lat="59.5610494819" lon="31.2682905514"><ele>234.70</ele><time>2026-09-02T18:31:50Z</time></trkpt><trkpt lat="59.5610494819" lon="31.2682905514"><ele>234.70</ele><time>2026-09-02T18:31:51Z</time></trkpt><trkpt lat="59.5610494819" lon="31.2682905514"><ele>234.70</ele><time>2026-09-02T18:31:52Z</time></trkpt><trkpt lat="59.5610494819" lon="31.2682905514"><ele>234.70</ele><time>2026-09-02T18:31:53Z</time></trkpt><trkpt lat="59.5610494819" lon="31.2682905514"><ele>234.70</ele><time>2026-09-02T18:31:54Z</time></trkpt><trkpt lat="59.5610494819" lon="31.2682905514"><ele>234.70</ele><time>2026-09-02T18:31:55Z</time></trkpt><trkpt lat="59.5610494819" lon="31.2682905514"><ele>234.70</ele><time>2026-09-02T18:31:56Z</time></trkpt><trkpt lat="59.5610494819" lon="31.2682905514"><ele>234.70</ele><time>2026-09-02T18:31:57Z</time></trkpt><trkpt lat="59.5610494819" lon="31.2682905514"><ele>234.70</ele><time>2026-09-02T18:31:58Z</time></trkpt><trkpt lat="59.5610494819" lon="31.2682905514"><ele>234.70</ele><time>2026-09-02T18:31:59Z</time></trkpt><trkpt lat="59.5610494819" lon="31.2682905514"><ele>234.70</ele><time>2026-09-02T18:32:00Z</time></trkpt><trkpt lat="59.5610494819" lon="31.2682905514"><ele>234.70</ele><time>2026-09-02T18:32:01Z</time></trkpt><trkpt lat="59.5610494819" lon="31.2682905514"><ele>234.70</ele><time>2026-09-02T18:32:02Z</time></trkpt><trkpt lat="59.5610494819" lon="31.2682905514"><ele>234.70</ele><time>2026-09-02T18:32:03Z</time></trkpt><trkpt lat="59.5610494819" lon="31.2682905514"><ele>234.70</ele><time>2026-09-02T18:32:04Z</time></trkpt><trkpt lat="59.5610494819" lon="31.2682905514"><ele>234.70</ele><time>2026-09-02T18:32:05Z</time></trkpt><trkpt lat="59.5610494819" lon="31.2682905514"><ele>234.70</ele><time>2026-09-02T18:32:06Z</time></trkpt><trkpt lat="59.5610494819" lon="31.2682905514"><ele>234.70</ele><time>2026-09-02T18:32:07Z</time></trkpt><trkpt lat="59.5610494819" lon="31.2682905514"><ele>234.70</ele><time>2026-09-02T18:32:08Z</time></trkpt><trkpt lat="59.5610494819" lon="31.2682905514"><ele>234.70</ele><time>2026-09-02T18:32:09Z</time></trkpt><trkpt lat="59.5610494819" lon="31.2682905514"><ele>234.70</ele><time>2026-09-02T18:32:10Z</time></trkpt><trkpt lat="59.5610494819" lon="31.2682905514"><ele>234.70</ele><time>2026-09-02T18:32:11Z</time></trkpt><trkpt lat="59.5610494819" lon="31.2682905514"><ele>234.70</ele><time>2026-09-02T18:32:12Z</time></trkpt><trkpt lat="59.5610494819" lon="31.2682905514"><ele>234.70</ele><time>2026-09-02T18:32:13Z</time></trkpt><trkpt lat="59.5610494819" lon="31.2682905514"><ele>234.70</ele><time>2026-09-02T18:32:14Z</time></trkpt><trkpt lat="59.5610494819" lon="31.2682905514"><ele>234.70</ele><time>2026-09-02T18:32:15Z</time></trkpt><trkpt lat="59.5610494819" lon="31.2682905514"><ele>234.70</ele><time>2026-09-02T18:32:16Z</time></trkpt><trkpt lat="59.5610494819" lon="31.2682905514"><ele>234.70</ele><time>2026-09-02T18:32:17Z</time></trkpt><trkpt lat="59.5610494819" lon="31.2682905514"><ele>234.70</ele><time>2026-09-02T18:32:18Z</time></trkpt><trkpt lat="59.5610494819" lon="31.2682905514"><ele>234.70</ele><time>2026-09-02T18:32:19Z</time></trkpt><trkpt lat="59.5610494819" lon="31.2682905514"><ele>234.70</ele><time>2026-09-02T18:32:20Z</time></trkpt><trkpt lat="59.5610494819" lon="31.2682905514"><ele>234.70</ele><time>2026-09-02T18:32:21Z</time></trkpt><trkpt lat="59.5610494819" lon="31.2682905514"><ele>234.70</ele><time>2026-09-02T18:32:22Z</time></trkpt><trkpt lat="59.5610494819" lon="31.2682905514"><ele>234.70</ele><time>2026-09-02T18:32:23Z</time></trkpt><trkpt lat="59.5610494819" lon="31.2682905514"><ele>234.70</ele><time>2026-09-02T18:32:24Z</time></trkpt><trkpt lat="59.5610494819" lon="31.2682905514"><ele>234.70</ele><time>2026-09-02T18:32:25Z</time></trkpt><trkpt lat="59.5610494819" lon="31.2682905514"><ele>234.70</ele><time>2026-09-02T18:32:26Z</time></trkpt><trkpt lat="59.5610494819" lon="31.2682905514"><ele>234.70</ele><time>2026-09-02T18:32:27Z</time></trkpt><trkpt lat="59.5610494819" lon="31.2682905514"><ele>234.70</ele><time>2026-09-02T18:32:28Z</time></trkpt><trkpt lat="59.5610494819" lon="31.2682905514"><ele>234.70</ele><time>2026-09-02T18:32:29Z</time></trkpt><trkpt lat="59.5610494819" lon="31.2682905514"><ele>234.70</ele><time>2026-09-02T18:32:30Z</time></trkpt><trkpt lat="59.5610494819" lon="31.2682905514"><ele>234.70</ele><time>2026-09-02T18:32:31Z</time></trkpt><trkpt lat="59.5610494819" lon="31.2682905514"><ele>234.70</ele><time>2026-09-02T18:32:32Z</time></trkpt><trkpt lat="59.5610494819" lon="31.2682905514"><ele>234.70</ele><time>2026-09-02T18:32:33Z</time></trkpt><trkpt lat="59.5610494819" lon="31.2682905514"><ele>234.70</ele><time>2026-09-02T18:32:34Z</time></trkpt><trkpt lat="59.5610494819" lon="31.2682905514"><ele>234.70</ele><time>2026-09-02T18:32:35Z</time></trkpt><trkpt lat="59.5610494819" lon="31.2682905514"><ele>234.22</ele><time>2026-09-02T18:32:36Z</time></trkpt><trkpt lat="59.5610494819" lon="31.2682905514"><ele>234.22</ele><time>2026-09-02T18:32:37Z</time></trkpt><trkpt lat="59.5610494819" lon="31.2682905514"><ele>234.22</ele><time>2026-09-02T18:32:38Z</time></trkpt><trkpt lat="59.5610494819" lon="31.2682905514"><ele>234.22</ele><time>2026-09-02T18:32:39Z</time></trkpt><trkpt lat="59.5610494819" lon="31.2682905514"><ele>234.22</ele><time>2026-09-02T18:32:40Z</time></trkpt><trkpt lat="59.5610494819" lon="31.2682905514"><ele>234.70</ele><time>2026-09-02T18:32:41Z</time></trkpt><trkpt lat="59.5610494819" lon="31.2682905514"><ele>234.70</ele><time>2026-09-02T18:32:42Z</time></trkpt><trkpt lat="59.5610494819" lon="31.2682905514"><ele>234.70</ele><time>2026-09-02T18:32:43Z</time></trkpt><trkpt lat="59.5610494819" lon="31.2682905514"><ele>234.70</ele><time>2026-09-02T18:32:44Z</time></trkpt><trkpt lat="59.5610494819" lon="31.2682905514"><ele>234.70</ele><time>2026-09-02T18:32:45Z</time></trkpt><trkpt lat="59.5610494819" lon="31.2682905514"><ele>234.70</ele><time>2026-09-02T18:32:46Z</time></trkpt><trkpt lat="59.5610494819" lon="31.2682905514"><ele>234.70</ele><time>2026-09-02T18:32:47Z</time></trkpt><trkpt lat="59.5610494819" lon="31.2682905514"><ele>234.70</ele><time>2026-09-02T18:32:48Z</time></trkpt><trkpt lat="59.5610494819" lon="31.2682905514"><ele>234.70</ele><time>2026-09-02T18:32:49Z</time></trkpt><trkpt lat="59.5610494819" lon="31.2682905514"><ele>234.70</ele><time>2026-09-02T18:32:50Z</time></trkpt><trkpt lat="59.5610494819" lon="31.2682905514"><ele>234.70</ele><time>2026-09-02T18:32:51Z</time></trkpt><trkpt lat="59.5610494819" lon="31.2682905514"><ele>234.70</ele><time>2026-09-02T18:32:52Z</time></trkpt><trkpt lat="59.5610494819" lon="31.2682905514"><ele>234.70</ele><time>2026-09-02T18:32:53Z</time></trkpt><trkpt lat="59.5610494819" lon="31.2682905514"><ele>234.70</ele><time>2026-09-02T18:32:54Z</time></trkpt><trkpt lat="59.5610494819" lon="31.2682905514"><ele>234.22</ele><time>2026-09-02T18:32:55Z</time></trkpt><trkpt lat="59.5610494819" lon="31.2682905514"><ele>234.22</ele><time>2026-09-02T18:32:56Z</time></trkpt><trkpt lat="59.5610494819" lon="31.2682905514"><ele>234.22</ele><time>2026-09-02T18:32:57Z</time></trkpt><trkpt lat="59.5610494819" lon="31.2682905514"><ele>234.22</ele><time>2026-09-02T18:32:58Z</time></trkpt><trkpt lat="59.5610494819" lon="31.2682905514"><ele>234.22</ele><time>2026-09-02T18:32:59Z</time></trkpt><trkpt lat="59.5610494819" lon="31.2682905514"><ele>234.22</ele><time>2026-09-02T18:33:00Z</time></trkpt><trkpt lat="59.5610494819" lon="31.2682905514"><ele>234.22</ele><time>2026-09-02T18:33:01Z</time></trkpt><trkpt lat="59.5610494819" lon="31.2682905514"><ele>234.22</ele><time>2026-09-02T18:33:02Z</time></trkpt><trkpt lat="59.5610494819" lon="31.2682905514"><ele>234.22</ele><time>2026-09-02T18:33:03Z</time></trkpt><trkpt lat="59.5610494819" lon="31.2682905514"><ele>234.22</ele><time>2026-09-02T18:33:04Z</time></trkpt><trkpt lat="59.5610494819" lon="31.2682905514"><ele>234.22</ele><time>2026-09-02T18:33:05Z</time></trkpt><trkpt lat="59.5610494819" lon="31.2682905514"><ele>234.70</ele><time>2026-09-02T18:33:06Z</time></trkpt><trkpt lat="59.5610494819" lon="31.2682905514"><ele>234.70</ele><time>2026-09-02T18:33:07Z</time></trkpt><trkpt lat="59.5610494819" lon="31.2682905514"><ele>234.70</ele><time>2026-09-02T18:33:08Z</time></trkpt><trkpt lat="59.5610494819" lon="31.2682905514"><ele>234.70</ele><time>2026-09-02T18:33:09Z</time></trkpt><trkpt lat="59.5610494819" lon="31.2682905514"><ele>234.70</ele><time>2026-09-02T18:33:10Z</time></trkpt><trkpt lat="59.5610494819" lon="31.2682905514"><ele>234.70</ele><time>2026-09-02T18:33:11Z</time></trkpt><trkpt lat="59.5610494819" lon="31.2682905514"><ele>234.70</ele><time>2026-09-02T18:33:12Z</time></trkpt><trkpt lat="59.5610494819" lon="31.2682905514"><ele>234.70</ele><time>2026-09-02T18:33:13Z</time></trkpt><trkpt lat="59.5610494819" lon="31.2682905514"><ele>234.70</ele><time>2026-09-02T18:33:14Z</time></trkpt><trkpt lat="59.5610494819" lon="31.2682905514"><ele>234.70</ele><time>2026-09-02T18:33:15Z</time></trkpt><trkpt lat="59.5610494819" lon="31.2682905514"><ele>234.70</ele><time>2026-09-02T18:33:16Z</time></trkpt><trkpt lat="59.5610494819" lon="31.2682905514"><ele>234.70</ele><time>2026-09-02T18:33:17Z</time></trkpt><trkpt lat="59.5610494819" lon="31.2682905514"><ele>234.70</ele><time>2026-09-02T18:33:18Z</time></trkpt><trkpt lat="59.5610494819" lon="31.2682905514"><ele>234.70</ele><time>2026-09-02T18:33:19Z</time></trkpt><trkpt lat="59.5610494819" lon="31.2682905514"><ele>234.70</ele><time>2026-09-02T18:33:20Z</time></trkpt><trkpt lat="59.5610494819" lon="31.2682905514"><ele>234.70</ele><time>2026-09-02T18:33:21Z</time></trkpt><trkpt lat="59.5610494819" lon="31.2682905514"><ele>234.70</ele><time>2026-09-02T18:33:22Z</time></trkpt><trkpt lat="59.5610494819" lon="31.2682905514"><ele>234.70</ele><time>2026-09-02T18:33:23Z</time></trkpt><trkpt lat="59.5610494819" lon="31.2682905514"><ele>234.70</ele><time>2026-09-02T18:33:24Z</time></trkpt><trkpt lat="59.5610494819" lon="31.2682905514"><ele>234.70</ele><time>2026-09-02T18:33:25Z</time></trkpt><trkpt lat="59.5610494819" lon="31.2682905514"><ele>234.22</ele><time>2026-09-02T18:33:26Z</time></trkpt><trkpt lat="59.5610494819" lon="31.2682905514"><ele>234.22</ele><time>2026-09-02T18:33:27Z</time></trkpt><trkpt lat="59.5610494819" lon="31.2682905514"><ele>234.70</ele><time>2026-09-02T18:33:28Z</time></trkpt><trkpt lat="59.5610494819" lon="31.2682905514"><ele>234.70</ele><time>2026-09-02T18:33:29Z</time></trkpt><trkpt lat="59.5610494819" lon="31.2682905514"><ele>234.70</ele><time>2026-09-02T18:33:30Z</time></trkpt><trkpt lat="59.5610494819" lon="31.2682905514"><ele>234.70</ele><time>2026-09-02T18:33:31Z</time></trkpt><trkpt lat="59.5610494819" lon="31.2682905514"><ele>234.70</ele><time>2026-09-02T18:33:32Z</time></trkpt><trkpt lat="59.5610494819" lon="31.2682905514"><ele>234.70</ele><time>2026-09-02T18:33:33Z</time></trkpt><trkpt lat="59.5610494819" lon="31.2682905514"><ele>234.70</ele><time>2026-09-02T18:33:34Z</time></trkpt><trkpt lat="59.5610494819" lon="31.2682905514"><ele>234.70</ele><time>2026-09-02T18:33:35Z</time></trkpt><trkpt lat="59.5610494819" lon="31.2682905514"><ele>234.22</ele><time>2026-09-02T18:33:36Z</time></trkpt><trkpt lat="59.5610494819" lon="31.2682905514"><ele>234.22</ele><time>2026-09-02T18:33:37Z</time></trkpt><trkpt lat="59.5610494819" lon="31.2682905514"><ele>234.22</ele><time>2026-09-02T18:33:38Z</time></trkpt><trkpt lat="59.5610494819" lon="31.2682905514"><ele>234.22</ele><time>2026-09-02T18:33:39Z</time></trkpt><trkpt lat="59.5610494819" lon="31.2682905514"><ele>234.22</ele><time>2026-09-02T18:33:40Z</time></trkpt><trkpt lat="59.5610494819" lon="31.2682905514"><ele>234.22</ele><time>2026-09-02T18:33:41Z</time></trkpt><trkpt lat="59.5610494819" lon="31.2682905514"><ele>234.22</ele><time>2026-09-02T18:33:42Z</time></trkpt><trkpt lat="59.5610494819" lon="31.2682905514"><ele>234.22</ele><time>2026-09-02T18:33:43Z</time></trkpt><trkpt lat="59.5610494819" lon="31.2682905514"><ele>234.22</ele><time>2026-09-02T18:33:44Z</time></trkpt><trkpt lat="59.5610494819" lon="31.2682905514"><ele>234.22</ele><time>2026-09-02T18:33:45Z</time></trkpt><trkpt lat="59.5610494819" lon="31.2682905514"><ele>234.70</ele><time>2026-09-02T18:33:46Z</time></trkpt><trkpt lat="59.5610494819" lon="31.2682905514"><ele>234.70</ele><time>2026-09-02T18:33:47Z</time></trkpt><trkpt lat="59.5610494819" lon="31.2682905514"><ele>234.70</ele><time>2026-09-02T18:33:48Z</time></trkpt><trkpt lat="59.5610494819" lon="31.2682905514"><ele>234.70</ele><time>2026-09-02T18:33:49Z</time></trkpt><trkpt lat="59.5610494819" lon="31.2682905514"><ele>234.70</ele><time>2026-09-02T18:33:50Z</time></trkpt><trkpt lat="59.5610494819" lon="31.2682905514"><ele>234.70</ele><time>2026-09-02T18:33:51Z</time></trkpt><trkpt lat="59.5610494819" lon="31.2682905514"><ele>234.70</ele><time>2026-09-02T18:33:52Z</time></trkpt><trkpt lat="59.5610494819" lon="31.2682905514"><ele>234.70</ele><time>2026-09-02T18:33:53Z</time></trkpt><trkpt lat="59.5610494819" lon="31.2682905514"><ele>234.22</ele><time>2026-09-02T18:33:54Z</time></trkpt><trkpt lat="59.5610494819" lon="31.2682905514"><ele>234.22</ele><time>2026-09-02T18:33:55Z</time></trkpt><trkpt lat="59.5610494819" lon="31.2682905514"><ele>234.22</ele><time>2026-09-02T18:33:56Z</time></trkpt><trkpt lat="59.5610494819" lon="31.2682905514"><ele>234.22</ele><time>2026-09-02T18:33:57Z</time></trkpt><trkpt lat="59.5610494819" lon="31.2682905514"><ele>234.70</ele><time>2026-09-02T18:33:58Z</time></trkpt><trkpt lat="59.5610494819" lon="31.2682905514"><ele>234.70</ele><time>2026-09-02T18:33:59Z</time></trkpt><trkpt lat="59.5610494819" lon="31.2682905514"><ele>234.70</ele><time>2026-09-02T18:34:00Z</time></trkpt><trkpt lat="59.5610494819" lon="31.2682905514"><ele>234.70</ele><time>2026-09-02T18:34:01Z</time></trkpt><trkpt lat="59.5610494819" lon="31.2682905514"><ele>234.22</ele><time>2026-09-02T18:34:02Z</time></trkpt><trkpt lat="59.5610494819" lon="31.2682905514"><ele>234.22</ele><time>2026-09-02T18:34:03Z</time></trkpt><trkpt lat="59.5610494819" lon="31.2682905514"><ele>234.22</ele><time>2026-09-02T18:34:04Z</time></trkpt><trkpt lat="59.5610494819" lon="31.2682905514"><ele>234.22</ele><time>2026-09-02T18:34:05Z</time></trkpt><trkpt lat="59.5610494819" lon="31.2682905514"><ele>234.22</ele><time>2026-09-02T18:34:06Z</time></trkpt><trkpt lat="59.5610494819" lon="31.2682905514"><ele>234.22</ele><time>2026-09-02T18:34:07Z</time></trkpt><trkpt lat="59.5610494819" lon="31.2682905514"><ele>234.22</ele><time>2026-09-02T18:34:08Z</time></trkpt><trkpt lat="59.5610494819" lon="31.2682905514"><ele>234.22</ele><time>2026-09-02T18:34:09Z</time></trkpt><trkpt lat="59.5610494819" lon="31.2682905514"><ele>234.22</ele><time>2026-09-02T18:34:10Z</time></trkpt><trkpt lat="59.5610494819" lon="31.2682905514"><ele>234.22</ele><time>2026-09-02T18:34:11Z</time></trkpt><trkpt lat="59.5610494819" lon="31.2682905514"><ele>234.22</ele><time>2026-09-02T18:34:12Z</time></trkpt><trkpt lat="59.5610494819" lon="31.2682905514"><ele>234.22</ele><time>2026-09-02T18:34:13Z</time></trkpt><trkpt lat="59.5610494819" lon="31.2682905514"><ele>234.22</ele><time>2026-09-02T18:34:14Z</time></trkpt><trkpt lat="59.5610494819" lon="31.2682905514"><ele>234.22</ele><time>2026-09-02T18:34:15Z</time></trkpt><trkpt lat="59.5610494819" lon="31.2682905514"><ele>234.22</ele><time>2026-09-02T18:34:16Z</time></trkpt><trkpt lat="59.5610494819" lon="31.2682905514"><ele>234.22</ele><time>2026-09-02T18:34:17Z</time></trkpt><trkpt lat="59.5610494819" lon="31.2682905514"><ele>234.22</ele><time>2026-09-02T18:34:18Z</time></trkpt><trkpt lat="59.5610494819" lon="31.2682905514"><ele>234.22</ele><time>2026-09-02T18:34:19Z</time></trkpt><trkpt lat="59.5610494819" lon="31.2682905514"><ele>234.22</ele><time>2026-09-02T18:34:20Z</time></trkpt><trkpt lat="59.5610494819" lon="31.2682905514"><ele>234.22</ele><time>2026-09-02T18:34:21Z</time></trkpt><trkpt lat="59.5610494819" lon="31.2682905514"><ele>234.22</ele><time>2026-09-02T18:34:22Z</time></trkpt><trkpt lat="59.5610494819" lon="31.2682905514"><ele>234.22</ele><time>2026-09-02T18:34:23Z</time></trkpt><trkpt lat="59.5610494819" lon="31.2682905514"><ele>234.22</ele><time>2026-09-02T18:34:24Z</time></trkpt><trkpt lat="59.5610494819" lon="31.2682905514"><ele>234.22</ele><time>2026-09-02T18:34:25Z</time></trkpt><trkpt lat="59.5610494819" lon="31.2682905514"><ele>234.22</ele><time>2026-09-02T18:34:26Z</time></trkpt><trkpt lat="59.5610494819" lon="31.2682905514"><ele>234.22</ele><time>2026-09-02T18:34:27Z</time></trkpt><trkpt lat="59.5610494819" lon="31.2682905514"><ele>234.22</ele><time>2026-09-02T18:34:28Z</time></trkpt><trkpt lat="59.5610494819" lon="31.2682905514"><ele>234.22</ele><time>2026-09-02T18:34:29Z</time></trkpt><trkpt lat="59.5610494819" lon="31.2682905514"><ele>234.22</ele><time>2026-09-02T18:34:30Z</time></trkpt><trkpt lat="59.5610494819" lon="31.2682905514"><ele>234.22</ele><time>2026-09-02T18:34:31Z</time></trkpt><trkpt lat="59.5610494819" lon="31.2682905514"><ele>234.22</ele><time>2026-09-02T18:34:32Z</time></trkpt><trkpt lat="59.5610494819" lon="31.2682905514"><ele>234.22</ele><time>2026-09-02T18:34:33Z</time></trkpt><trkpt lat="59.5610494819" lon="31.2682905514"><ele>234.22</ele><time>2026-09-02T18:34:34Z</time></trkpt><trkpt lat="59.5610494819" lon="31.2682905514"><ele>234.22</ele><time>2026-09-02T18:34:35Z</time></trkpt><trkpt lat="59.5610795729" lon="31.2681208178"><ele>234.22</ele><time>2026-09-02T18:34:36Z</time></trkpt><trkpt lat="59.5610807464" lon="31.2681137770"><ele>234.22</ele><time>2026-09-02T18:34:37Z</time></trkpt><trkpt lat="59.5610819198" lon="31.2681098375"><ele>234.22</ele><time>2026-09-02T18:34:38Z</time></trkpt><trkpt lat="59.5610830933" lon="31.2681078259"><ele>234.22</ele><time>2026-09-02T18:34:39Z</time></trkpt><trkpt lat="59.5610830933" lon="31.2681078259"><ele>234.22</ele><time>2026-09-02T18:34:40Z</time></trkpt><trkpt lat="59.5610830933" lon="31.2681078259"><ele>234.22</ele><time>2026-09-02T18:34:41Z</time></trkpt><trkpt lat="59.5610830933" lon="31.2681078259"><ele>234.22</ele><time>2026-09-02T18:34:42Z</time></trkpt><trkpt lat="59.5610830933" lon="31.2681078259"><ele>234.22</ele><time>2026-09-02T18:34:43Z</time></trkpt><trkpt lat="59.5610830933" lon="31.2681078259"><ele>234.22</ele><time>2026-09-02T18:34:44Z</time></trkpt><trkpt lat="59.5610830933" lon="31.2681078259"><ele>234.22</ele><time>2026-09-02T18:34:45Z</time></trkpt><trkpt lat="59.5610830933" lon="31.2681078259"><ele>234.22</ele><time>2026-09-02T18:34:46Z</time></trkpt><trkpt lat="59.5610830933" lon="31.2681078259"><ele>234.22</ele><time>2026-09-02T18:34:47Z</time></trkpt><trkpt lat="59.5610691793" lon="31.2680519186"><ele>234.22</ele><time>2026-09-02T18:34:48Z</time></trkpt><trkpt lat="59.5610694308" lon="31.2680420280"><ele>234.22</ele><time>2026-09-02T18:34:49Z</time></trkpt><trkpt lat="59.5610673353" lon="31.2680351548"><ele>234.22</ele><time>2026-09-02T18:34:50Z</time></trkpt><trkpt lat="59.5610650722" lon="31.2680291198"><ele>234.22</ele><time>2026-09-02T18:34:51Z</time></trkpt><trkpt lat="59.5610626414" lon="31.2680288684"><ele>234.22</ele><time>2026-09-02T18:34:52Z</time></trkpt><trkpt lat="59.5610615518" lon="31.2680293713"><ele>234.22</ele><time>2026-09-02T18:34:53Z</time></trkpt><trkpt lat="59.5610615518" lon="31.2680293713"><ele>234.22</ele><time>2026-09-02T18:34:54Z</time></trkpt><trkpt lat="59.5610615518" lon="31.2680293713"><ele>234.22</ele><time>2026-09-02T18:34:55Z</time></trkpt><trkpt lat="59.5610615518" lon="31.2680293713"><ele>234.22</ele><time>2026-09-02T18:34:56Z</time></trkpt><trkpt lat="59.5610615518" lon="31.2680293713"><ele>234.22</ele><time>2026-09-02T18:34:57Z</time></trkpt><trkpt lat="59.5610615518" lon="31.2680293713"><ele>234.22</ele><time>2026-09-02T18:34:58Z</time></trkpt><trkpt lat="59.5610615518" lon="31.2680293713"><ele>234.22</ele><time>2026-09-02T18:34:59Z</time></trkpt><trkpt lat="59.5610615518" lon="31.2680293713"><ele>234.22</ele><time>2026-09-02T18:35:00Z</time></trkpt><trkpt lat="59.5610615518" lon="31.2680293713"><ele>234.22</ele><time>2026-09-02T18:35:01Z</time></trkpt><trkpt lat="59.5610615518" lon="31.2680293713"><ele>234.22</ele><time>2026-09-02T18:35:02Z</time></trkpt><trkpt lat="59.5610615518" lon="31.2680293713"><ele>234.22</ele><time>2026-09-02T18:35:03Z</time></trkpt><trkpt lat="59.5610615518" lon="31.2680293713"><ele>234.22</ele><time>2026-09-02T18:35:04Z</time></trkpt><trkpt lat="59.5610615518" lon="31.2680293713"><ele>234.22</ele><time>2026-09-02T18:35:05Z</time></trkpt><trkpt lat="59.5610615518" lon="31.2680293713"><ele>234.22</ele><time>2026-09-02T18:35:06Z</time></trkpt><trkpt lat="59.5610615518" lon="31.2680293713"><ele>234.22</ele><time>2026-09-02T18:35:07Z</time></trkpt><trkpt lat="59.5610615518" lon="31.2680293713"><ele>234.22</ele><time>2026-09-02T18:35:08Z</time></trkpt><trkpt lat="59.5610615518" lon="31.2680293713"><ele>234.22</ele><time>2026-09-02T18:35:09Z</time></trkpt><trkpt lat="59.5610615518" lon="31.2680293713"><ele>234.22</ele><time>2026-09-02T18:35:10Z</time></trkpt><trkpt lat="59.5610615518" lon="31.2680293713"><ele>234.22</ele><time>2026-09-02T18:35:11Z</time></trkpt><trkpt lat="59.5610615518" lon="31.2680293713"><ele>234.70</ele><time>2026-09-02T18:35:12Z</time></trkpt><trkpt lat="59.5610615518" lon="31.2680293713"><ele>234.70</ele><time>2026-09-02T18:35:13Z</time></trkpt><trkpt lat="59.5610615518" lon="31.2680293713"><ele>234.70</ele><time>2026-09-02T18:35:14Z</time></trkpt><trkpt lat="59.5610615518" lon="31.2680293713"><ele>234.70</ele><time>2026-09-02T18:35:15Z</time></trkpt><trkpt lat="59.5610615518" lon="31.2680293713"><ele>234.70</ele><time>2026-09-02T18:35:16Z</time></trkpt><trkpt lat="59.5610615518" lon="31.2680293713"><ele>234.70</ele><time>2026-09-02T18:35:17Z</time></trkpt><trkpt lat="59.5610615518" lon="31.2680293713"><ele>234.70</ele><time>2026-09-02T18:35:18Z</time></trkpt><trkpt lat="59.5609882940" lon="31.2679743860"><ele>234.70</ele><time>2026-09-02T18:35:19Z</time></trkpt><trkpt lat="59.5609846897" lon="31.2679709494"><ele>234.70</ele><time>2026-09-02T18:35:20Z</time></trkpt><trkpt lat="59.5609790739" lon="31.2679683510"><ele>234.70</ele><time>2026-09-02T18:35:21Z</time></trkpt><trkpt lat="59.5609747991" lon="31.2679654174"><ele>234.70</ele><time>2026-09-02T18:35:22Z</time></trkpt><trkpt lat="59.5609700214" lon="31.2679584604"><ele>234.22</ele><time>2026-09-02T18:35:23Z</time></trkpt><trkpt lat="59.5609665848" lon="31.2679511681"><ele>234.22</ele><time>2026-09-02T18:35:24Z</time></trkpt><trkpt lat="59.5609628968" lon="31.2679441273"><ele>234.22</ele><time>2026-09-02T18:35:25Z</time></trkpt><trkpt lat="59.5609607175" lon="31.2679386791"><ele>234.22</ele><time>2026-09-02T18:35:26Z</time></trkpt><trkpt lat="59.5609566942" lon="31.2679367512"><ele>234.22</ele><time>2026-09-02T18:35:27Z</time></trkpt><trkpt lat="59.5609554369" lon="31.2679286208"><ele>234.22</ele><time>2026-09-02T18:35:28Z</time></trkpt><trkpt lat="59.5609511621" lon="31.2679250166"><ele>234.22</ele><time>2026-09-02T18:35:29Z</time></trkpt><trkpt lat="59.5609511621" lon="31.2679250166"><ele>234.22</ele><time>2026-09-02T18:35:30Z</time></trkpt><trkpt lat="59.5609511621" lon="31.2679250166"><ele>234.22</ele><time>2026-09-02T18:35:31Z</time></trkpt><trkpt lat="59.5609310456" lon="31.2679166347"><ele>234.22</ele><time>2026-09-02T18:35:32Z</time></trkpt><trkpt lat="59.5609254297" lon="31.2679143716"><ele>234.22</ele><time>2026-09-02T18:35:33Z</time></trkpt><trkpt lat="59.5609206520" lon="31.2679086719"><ele>234.22</ele><time>2026-09-02T18:35:34Z</time></trkpt><trkpt lat="59.5609155390" lon="31.2679023854"><ele>234.22</ele><time>2026-09-02T18:35:35Z</time></trkpt><trkpt lat="59.5609070733" lon="31.2678970210"><ele>234.22</ele><time>2026-09-02T18:35:36Z</time></trkpt><trkpt lat="59.5609012898" lon="31.2678880524"><ele>234.22</ele><time>2026-09-02T18:35:37Z</time></trkpt><trkpt lat="59.5608964283" lon="31.2678778265"><ele>234.22</ele><time>2026-09-02T18:35:38Z</time></trkpt><trkpt lat="59.5608965959" lon="31.2678649183"><ele>234.22</ele><time>2026-09-02T18:35:39Z</time></trkpt><trkpt lat="59.5608954225" lon="31.2678516749"><ele>234.22</ele><time>2026-09-02T18:35:40Z</time></trkpt><trkpt lat="59.5608942490" lon="31.2678377610"><ele>234.22</ele><time>2026-09-02T18:35:41Z</time></trkpt><trkpt lat="59.5608925726" lon="31.2678280380"><ele>234.22</ele><time>2026-09-02T18:35:42Z</time></trkpt><trkpt lat="59.5608913992" lon="31.2678184826"><ele>234.22</ele><time>2026-09-02T18:35:43Z</time></trkpt><trkpt lat="59.5608911477" lon="31.2678088434"><ele>234.22</ele><time>2026-09-02T18:35:44Z</time></trkpt><trkpt lat="59.5608924888" lon="31.2677970249"><ele>234.22</ele><time>2026-09-02T18:35:45Z</time></trkpt><trkpt lat="59.5608935785" lon="31.2677831948"><ele>234.22</ele><time>2026-09-02T18:35:46Z</time></trkpt><trkpt lat="59.5608928241" lon="31.2677746452"><ele>234.22</ele><time>2026-09-02T18:35:47Z</time></trkpt><trkpt lat="59.5608906448" lon="31.2677674368"><ele>234.22</ele><time>2026-09-02T18:35:48Z</time></trkpt><trkpt lat="59.5608892199" lon="31.2677591387"><ele>234.22</ele><time>2026-09-02T18:35:49Z</time></trkpt><trkpt lat="59.5608892199" lon="31.2677591387"><ele>234.22</ele><time>2026-09-02T18:35:50Z</time></trkpt><trkpt lat="59.5608892199" lon="31.2677591387"><ele>234.22</ele><time>2026-09-02T18:35:51Z</time></trkpt><trkpt lat="59.5608892199" lon="31.2677591387"><ele>234.22</ele><time>2026-09-02T18:35:52Z</time></trkpt><trkpt lat="59.5608892199" lon="31.2677591387"><ele>234.22</ele><time>2026-09-02T18:35:53Z</time></trkpt><trkpt lat="59.5608892199" lon="31.2677591387"><ele>234.22</ele><time>2026-09-02T18:35:54Z</time></trkpt><trkpt lat="59.5608930755" lon="31.2677422911"><ele>234.22</ele><time>2026-09-02T18:35:55Z</time></trkpt><trkpt lat="59.5608962607" lon="31.2677317299"><ele>234.22</ele><time>2026-09-02T18:35:56Z</time></trkpt><trkpt lat="59.5608994458" lon="31.2677202467"><ele>234.22</ele><time>2026-09-02T18:35:57Z</time></trkpt><trkpt lat="59.5609031338" lon="31.2677122839"><ele>234.22</ele><time>2026-09-02T18:35:58Z</time></trkpt><trkpt lat="59.5609078277" lon="31.2677064165"><ele>234.22</ele><time>2026-09-02T18:35:59Z</time></trkpt><trkpt lat="59.5609097555" lon="31.2676980346"><ele>234.22</ele><time>2026-09-02T18:36:00Z</time></trkpt><trkpt lat="59.5609087497" lon="31.2676880602"><ele>234.22</ele><time>2026-09-02T18:36:01Z</time></trkpt><trkpt lat="59.5609092526" lon="31.2676742300"><ele>234.22</ele><time>2026-09-02T18:36:02Z</time></trkpt><trkpt lat="59.5609082468" lon="31.2676615734"><ele>234.22</ele><time>2026-09-02T18:36:03Z</time></trkpt><trkpt lat="59.5609070733" lon="31.2676477432"><ele>234.22</ele><time>2026-09-02T18:36:04Z</time></trkpt><trkpt lat="59.5609067380" lon="31.2676336616"><ele>234.22</ele><time>2026-09-02T18:36:05Z</time></trkpt><trkpt lat="59.5609052293" lon="31.2676146347"><ele>234.22</ele><time>2026-09-02T18:36:06Z</time></trkpt><trkpt lat="59.5609021280" lon="31.2676026486"><ele>234.22</ele><time>2026-09-02T18:36:07Z</time></trkpt><trkpt lat="59.5608965959" lon="31.2675931770"><ele>234.22</ele><time>2026-09-02T18:36:08Z</time></trkpt><trkpt lat="59.5608906448" lon="31.2675887346"><ele>234.22</ele><time>2026-09-02T18:36:09Z</time></trkpt><trkpt lat="59.5608867891" lon="31.2675826997"><ele>234.22</ele><time>2026-09-02T18:36:10Z</time></trkpt><trkpt lat="59.5608837716" lon="31.2675800174"><ele>234.22</ele><time>2026-09-02T18:36:11Z</time></trkpt><trkpt lat="59.5608795807" lon="31.2675756589"><ele>234.22</ele><time>2026-09-02T18:36:12Z</time></trkpt><trkpt lat="59.5608739648" lon="31.2675725576"><ele>234.22</ele><time>2026-09-02T18:36:13Z</time></trkpt><trkpt lat="59.5608686842" lon="31.2675672770"><ele>234.22</ele><time>2026-09-02T18:36:14Z</time></trkpt><trkpt lat="59.5608632360" lon="31.2675637566"><ele>234.22</ele><time>2026-09-02T18:36:15Z</time></trkpt><trkpt lat="59.5608599670" lon="31.2675571349"><ele>234.22</ele><time>2026-09-02T18:36:16Z</time></trkpt><trkpt lat="59.5608541835" lon="31.2675572187"><ele>234.22</ele><time>2026-09-02T18:36:17Z</time></trkpt><trkpt lat="59.5608482324" lon="31.2675533630"><ele>234.22</ele><time>2026-09-02T18:36:18Z</time></trkpt><trkpt lat="59.5608467236" lon="31.2675479986"><ele>234.22</ele><time>2026-09-02T18:36:19Z</time></trkpt><trkpt lat="59.5608429518" lon="31.2675463222"><ele>234.22</ele><time>2026-09-02T18:36:20Z</time></trkpt><trkpt lat="59.5608410239" lon="31.2675447296"><ele>234.22</ele><time>2026-09-02T18:36:21Z</time></trkpt><trkpt lat="59.5608410239" lon="31.2675447296"><ele>234.22</ele><time>2026-09-02T18:36:22Z</time></trkpt><trkpt lat="59.5608410239" lon="31.2675447296"><ele>234.22</ele><time>2026-09-02T18:36:23Z</time></trkpt><trkpt lat="59.5608410239" lon="31.2675447296"><ele>234.22</ele><time>2026-09-02T18:36:24Z</time></trkpt><trkpt lat="59.5608410239" lon="31.2675447296"><ele>234.22</ele><time>2026-09-02T18:36:25Z</time></trkpt><trkpt lat="59.5608410239" lon="31.2675447296"><ele>234.22</ele><time>2026-09-02T18:36:26Z</time></trkpt><trkpt lat="59.5608410239" lon="31.2675447296"><ele>234.22</ele><time>2026-09-02T18:36:27Z</time></trkpt><trkpt lat="59.5608410239" lon="31.2675447296"><ele>234.22</ele><time>2026-09-02T18:36:28Z</time></trkpt><trkpt lat="59.5608410239" lon="31.2675447296"><ele>234.22</ele><time>2026-09-02T18:36:29Z</time></trkpt><trkpt lat="59.5608410239" lon="31.2675447296"><ele>234.22</ele><time>2026-09-02T18:36:30Z</time></trkpt><trkpt lat="59.5608410239" lon="31.2675447296"><ele>234.22</ele><time>2026-09-02T18:36:31Z</time></trkpt><trkpt lat="59.5608410239" lon="31.2675447296"><ele>234.22</ele><time>2026-09-02T18:36:32Z</time></trkpt><trkpt lat="59.5608410239" lon="31.2675447296"><ele>234.22</ele><time>2026-09-02T18:36:33Z</time></trkpt><trkpt lat="59.5608410239" lon="31.2675447296"><ele>234.22</ele><time>2026-09-02T18:36:34Z</time></trkpt><trkpt lat="59.5608410239" lon="31.2675447296"><ele>234.22</ele><time>2026-09-02T18:36:35Z</time></trkpt><trkpt lat="59.5608410239" lon="31.2675447296"><ele>234.22</ele><time>2026-09-02T18:36:36Z</time></trkpt><trkpt lat="59.5608410239" lon="31.2675447296"><ele>234.22</ele><time>2026-09-02T18:36:37Z</time></trkpt><trkpt lat="59.5608410239" lon="31.2675447296"><ele>234.22</ele><time>2026-09-02T18:36:38Z</time></trkpt><trkpt lat="59.5608410239" lon="31.2675447296"><ele>234.22</ele><time>2026-09-02T18:36:39Z</time></trkpt><trkpt lat="59.5608410239" lon="31.2675447296"><ele>234.22</ele><time>2026-09-02T18:36:40Z</time></trkpt><trkpt lat="59.5608410239" lon="31.2675447296"><ele>234.22</ele><time>2026-09-02T18:36:41Z</time></trkpt><trkpt lat="59.5608410239" lon="31.2675447296"><ele>234.22</ele><time>2026-09-02T18:36:42Z</time></trkpt><trkpt lat="59.5608410239" lon="31.2675447296"><ele>234.22</ele><time>2026-09-02T18:36:43Z</time></trkpt><trkpt lat="59.5608410239" lon="31.2675447296"><ele>234.22</ele><time>2026-09-02T18:36:44Z</time></trkpt><trkpt lat="59.5608410239" lon="31.2675447296"><ele>234.22</ele><time>2026-09-02T18:36:45Z</time></trkpt><trkpt lat="59.5608410239" lon="31.2675447296"><ele>234.22</ele><time>2026-09-02T18:36:46Z</time></trkpt><trkpt lat="59.5608410239" lon="31.2675447296"><ele>234.22</ele><time>2026-09-02T18:36:47Z</time></trkpt><trkpt lat="59.5608410239" lon="31.2675447296"><ele>234.22</ele><time>2026-09-02T18:36:48Z</time></trkpt><trkpt lat="59.5608410239" lon="31.2675447296"><ele>234.22</ele><time>2026-09-02T18:36:49Z</time></trkpt><trkpt lat="59.5608410239" lon="31.2675447296"><ele>234.22</ele><time>2026-09-02T18:36:50Z</time></trkpt><trkpt lat="59.5608410239" lon="31.2675447296"><ele>234.22</ele><time>2026-09-02T18:36:51Z</time></trkpt><trkpt lat="59.5608410239" lon="31.2675447296"><ele>234.22</ele><time>2026-09-02T18:36:52Z</time></trkpt><trkpt lat="59.5608410239" lon="31.2675447296"><ele>234.22</ele><time>2026-09-02T18:36:53Z</time></trkpt><trkpt lat="59.5608410239" lon="31.2675447296"><ele>234.22</ele><time>2026-09-02T18:36:54Z</time></trkpt><trkpt lat="59.5608410239" lon="31.2675447296"><ele>234.22</ele><time>2026-09-02T18:36:55Z</time></trkpt><trkpt lat="59.5608410239" lon="31.2675447296"><ele>234.22</ele><time>2026-09-02T18:36:56Z</time></trkpt><trkpt lat="59.5608410239" lon="31.2675447296"><ele>234.70</ele><time>2026-09-02T18:36:57Z</time></trkpt><trkpt lat="59.5608410239" lon="31.2675447296"><ele>234.70</ele><time>2026-09-02T18:36:58Z</time></trkpt><trkpt lat="59.5608410239" lon="31.2675447296"><ele>234.70</ele><time>2026-09-02T18:36:59Z</time></trkpt><trkpt lat="59.5608410239" lon="31.2675447296"><ele>234.70</ele><time>2026-09-02T18:37:00Z</time></trkpt><trkpt lat="59.5608410239" lon="31.2675447296"><ele>234.70</ele><time>2026-09-02T18:37:01Z</time></trkpt><trkpt lat="59.5608410239" lon="31.2675447296"><ele>234.70</ele><time>2026-09-02T18:37:02Z</time></trkpt><trkpt lat="59.5608410239" lon="31.2675447296"><ele>234.70</ele><time>2026-09-02T18:37:03Z</time></trkpt><trkpt lat="59.5608410239" lon="31.2675447296"><ele>234.70</ele><time>2026-09-02T18:37:04Z</time></trkpt><trkpt lat="59.5608410239" lon="31.2675447296"><ele>234.70</ele><time>2026-09-02T18:37:05Z</time></trkpt><trkpt lat="59.5608410239" lon="31.2675447296"><ele>234.70</ele><time>2026-09-02T18:37:06Z</time></trkpt><trkpt lat="59.5608410239" lon="31.2675447296"><ele>234.70</ele><time>2026-09-02T18:37:07Z</time></trkpt><trkpt lat="59.5608410239" lon="31.2675447296"><ele>234.70</ele><time>2026-09-02T18:37:08Z</time></trkpt><trkpt lat="59.5608410239" lon="31.2675447296"><ele>234.70</ele><time>2026-09-02T18:37:09Z</time></trkpt><trkpt lat="59.5608410239" lon="31.2675447296"><ele>234.70</ele><time>2026-09-02T18:37:10Z</time></trkpt><trkpt lat="59.5608410239" lon="31.2675447296"><ele>234.70</ele><time>2026-09-02T18:37:11Z</time></trkpt><trkpt lat="59.5608410239" lon="31.2675447296"><ele>234.70</ele><time>2026-09-02T18:37:12Z</time></trkpt><trkpt lat="59.5608410239" lon="31.2675447296"><ele>234.70</ele><time>2026-09-02T18:37:13Z</time></trkpt><trkpt lat="59.5608410239" lon="31.2675447296"><ele>234.70</ele><time>2026-09-02T18:37:14Z</time></trkpt><trkpt lat="59.5608410239" lon="31.2675447296"><ele>234.70</ele><time>2026-09-02T18:37:15Z</time></trkpt><trkpt lat="59.5608410239" lon="31.2675447296"><ele>234.70</ele><time>2026-09-02T18:37:16Z</time></trkpt><trkpt lat="59.5608410239" lon="31.2675447296"><ele>234.70</ele><time>2026-09-02T18:37:17Z</time></trkpt><trkpt lat="59.5608410239" lon="31.2675447296"><ele>234.70</ele><time>2026-09-02T18:37:18Z</time></trkpt><trkpt lat="59.5608410239" lon="31.2675447296"><ele>234.70</ele><time>2026-09-02T18:37:19Z</time></trkpt><trkpt lat="59.5608410239" lon="31.2675447296"><ele>234.70</ele><time>2026-09-02T18:37:20Z</time></trkpt><trkpt lat="59.5608410239" lon="31.2675447296"><ele>234.70</ele><time>2026-09-02T18:37:21Z</time></trkpt><trkpt lat="59.5608410239" lon="31.2675447296"><ele>234.70</ele><time>2026-09-02T18:37:22Z</time></trkpt><trkpt lat="59.5608410239" lon="31.2675447296"><ele>234.70</ele><time>2026-09-02T18:37:23Z</time></trkpt><trkpt lat="59.5608410239" lon="31.2675447296"><ele>234.70</ele><time>2026-09-02T18:37:24Z</time></trkpt><trkpt lat="59.5608410239" lon="31.2675447296"><ele>234.70</ele><time>2026-09-02T18:37:25Z</time></trkpt><trkpt lat="59.5608410239" lon="31.2675447296"><ele>234.70</ele><time>2026-09-02T18:37:26Z</time></trkpt><trkpt lat="59.5608410239" lon="31.2675447296"><ele>234.70</ele><time>2026-09-02T18:37:27Z</time></trkpt><trkpt lat="59.5608410239" lon="31.2675447296"><ele>234.22</ele><time>2026-09-02T18:37:28Z</time></trkpt><trkpt lat="59.5608410239" lon="31.2675447296"><ele>234.22</ele><time>2026-09-02T18:37:29Z</time></trkpt><trkpt lat="59.5608410239" lon="31.2675447296"><ele>234.22</ele><time>2026-09-02T18:37:30Z</time></trkpt><trkpt lat="59.5608410239" lon="31.2675447296"><ele>234.22</ele><time>2026-09-02T18:37:31Z</time></trkpt><trkpt lat="59.5608410239" lon="31.2675447296"><ele>234.22</ele><time>2026-09-02T18:37:32Z</time></trkpt><trkpt lat="59.5608410239" lon="31.2675447296"><ele>234.22</ele><time>2026-09-02T18:37:33Z</time></trkpt><trkpt lat="59.5608410239" lon="31.2675447296"><ele>234.22</ele><time>2026-09-02T18:37:34Z</time></trkpt><trkpt lat="59.5608410239" lon="31.2675447296"><ele>234.22</ele><time>2026-09-02T18:37:35Z</time></trkpt><trkpt lat="59.5608410239" lon="31.2675447296"><ele>234.22</ele><time>2026-09-02T18:37:36Z</time></trkpt><trkpt lat="59.5608410239" lon="31.2675447296"><ele>234.22</ele><time>2026-09-02T18:37:37Z</time></trkpt><trkpt lat="59.5608410239" lon="31.2675447296"><ele>234.22</ele><time>2026-09-02T18:37:38Z</time></trkpt><trkpt lat="59.5608410239" lon="31.2675447296"><ele>234.22</ele><time>2026-09-02T18:37:39Z</time></trkpt><trkpt lat="59.5608410239" lon="31.2675447296"><ele>234.22</ele><time>2026-09-02T18:37:40Z</time></trkpt><trkpt lat="59.5608410239" lon="31.2675447296"><ele>234.22</ele><time>2026-09-02T18:37:41Z</time></trkpt><trkpt lat="59.5608410239" lon="31.2675447296"><ele>234.22</ele><time>2026-09-02T18:37:42Z</time></trkpt><trkpt lat="59.5608410239" lon="31.2675447296"><ele>234.22</ele><time>2026-09-02T18:37:43Z</time></trkpt><trkpt lat="59.5608410239" lon="31.2675447296"><ele>234.22</ele><time>2026-09-02T18:37:44Z</time></trkpt><trkpt lat="59.5608410239" lon="31.2675447296"><ele>234.22</ele><time>2026-09-02T18:37:45Z</time></trkpt><trkpt lat="59.5608410239" lon="31.2675447296"><ele>234.22</ele><time>2026-09-02T18:37:46Z</time></trkpt><trkpt lat="59.5608410239" lon="31.2675447296"><ele>234.22</ele><time>2026-09-02T18:37:47Z</time></trkpt><trkpt lat="59.5608410239" lon="31.2675447296"><ele>234.22</ele><time>2026-09-02T18:37:48Z</time></trkpt><trkpt lat="59.5608410239" lon="31.2675447296"><ele>234.22</ele><time>2026-09-02T18:37:49Z</time></trkpt><trkpt lat="59.5608410239" lon="31.2675447296"><ele>234.22</ele><time>2026-09-02T18:37:50Z</time></trkpt><trkpt lat="59.5608410239" lon="31.2675447296"><ele>234.22</ele><time>2026-09-02T18:37:51Z</time></trkpt><trkpt lat="59.5608410239" lon="31.2675447296"><ele>234.22</ele><time>2026-09-02T18:37:52Z</time></trkpt><trkpt lat="59.5608604699" lon="31.2675609905"><ele>234.22</ele><time>2026-09-02T18:37:53Z</time></trkpt><trkpt lat="59.5608633198" lon="31.2675518543"><ele>234.22</ele><time>2026-09-02T18:37:54Z</time></trkpt><trkpt lat="59.5608667564" lon="31.2675461546"><ele>234.22</ele><time>2026-09-02T18:37:55Z</time></trkpt><trkpt lat="59.5608696900" lon="31.2675421312"><ele>234.22</ele><time>2026-09-02T18:37:56Z</time></trkpt><trkpt lat="59.5608719531" lon="31.2675399520"><ele>234.22</ele><time>2026-09-02T18:37:57Z</time></trkpt><trkpt lat="59.5608738810" lon="31.2675368506"><ele>234.22</ele><time>2026-09-02T18:37:58Z</time></trkpt><trkpt lat="59.5608738810" lon="31.2675368506"><ele>234.22</ele><time>2026-09-02T18:37:59Z</time></trkpt><trkpt lat="59.5608738810" lon="31.2675368506"><ele>234.22</ele><time>2026-09-02T18:38:00Z</time></trkpt><trkpt lat="59.5608738810" lon="31.2675368506"><ele>234.22</ele><time>2026-09-02T18:38:01Z</time></trkpt><trkpt lat="59.5608738810" lon="31.2675368506"><ele>234.22</ele><time>2026-09-02T18:38:02Z</time></trkpt><trkpt lat="59.5608738810" lon="31.2675368506"><ele>234.22</ele><time>2026-09-02T18:38:03Z</time></trkpt><trkpt lat="59.5608738810" lon="31.2675368506"><ele>234.22</ele><time>2026-09-02T18:38:04Z</time></trkpt><trkpt lat="59.5608738810" lon="31.2675368506"><ele>234.22</ele><time>2026-09-02T18:38:05Z</time></trkpt><trkpt lat="59.5608738810" lon="31.2675368506"><ele>234.22</ele><time>2026-09-02T18:38:06Z</time></trkpt><trkpt lat="59.5608738810" lon="31.2675368506"><ele>234.22</ele><time>2026-09-02T18:38:07Z</time></trkpt><trkpt lat="59.5608738810" lon="31.2675368506"><ele>234.22</ele><time>2026-09-02T18:38:08Z</time></trkpt><trkpt lat="59.5608738810" lon="31.2675368506"><ele>234.22</ele><time>2026-09-02T18:38:09Z</time></trkpt><trkpt lat="59.5608738810" lon="31.2675368506"><ele>234.22</ele><time>2026-09-02T18:38:10Z</time></trkpt><trkpt lat="59.5608738810" lon="31.2675368506"><ele>234.22</ele><time>2026-09-02T18:38:11Z</time></trkpt><trkpt lat="59.5608738810" lon="31.2675368506"><ele>234.22</ele><time>2026-09-02T18:38:12Z</time></trkpt><trkpt lat="59.5608738810" lon="31.2675368506"><ele>234.22</ele><time>2026-09-02T18:38:13Z</time></trkpt><trkpt lat="59.5608738810" lon="31.2675368506"><ele>234.22</ele><time>2026-09-02T18:38:14Z</time></trkpt><trkpt lat="59.5608738810" lon="31.2675368506"><ele>234.22</ele><time>2026-09-02T18:38:15Z</time></trkpt><trkpt lat="59.5608738810" lon="31.2675368506"><ele>234.22</ele><time>2026-09-02T18:38:16Z</time></trkpt><trkpt lat="59.5608738810" lon="31.2675368506"><ele>234.22</ele><time>2026-09-02T18:38:17Z</time></trkpt><trkpt lat="59.5608738810" lon="31.2675368506"><ele>234.22</ele><time>2026-09-02T18:38:18Z</time></trkpt><trkpt lat="59.5608738810" lon="31.2675368506"><ele>234.22</ele><time>2026-09-02T18:38:19Z</time></trkpt><trkpt lat="59.5608738810" lon="31.2675368506"><ele>234.22</ele><time>2026-09-02T18:38:20Z</time></trkpt><trkpt lat="59.5608738810" lon="31.2675368506"><ele>234.22</ele><time>2026-09-02T18:38:21Z</time></trkpt><trkpt lat="59.5608738810" lon="31.2675368506"><ele>234.22</ele><time>2026-09-02T18:38:22Z</time></trkpt><trkpt lat="59.5608738810" lon="31.2675368506"><ele>234.22</ele><time>2026-09-02T18:38:23Z</time></trkpt><trkpt lat="59.5608738810" lon="31.2675368506"><ele>234.22</ele><time>2026-09-02T18:38:24Z</time></trkpt><trkpt lat="59.5608738810" lon="31.2675368506"><ele>234.22</ele><time>2026-09-02T18:38:25Z</time></trkpt><trkpt lat="59.5608738810" lon="31.2675368506"><ele>234.22</ele><time>2026-09-02T18:38:26Z</time></trkpt><trkpt lat="59.5608738810" lon="31.2675368506"><ele>234.22</ele><time>2026-09-02T18:38:27Z</time></trkpt><trkpt lat="59.5608738810" lon="31.2675368506"><ele>234.22</ele><time>2026-09-02T18:38:28Z</time></trkpt><trkpt lat="59.5608738810" lon="31.2675368506"><ele>234.22</ele><time>2026-09-02T18:38:29Z</time></trkpt><trkpt lat="59.5608738810" lon="31.2675368506"><ele>234.22</ele><time>2026-09-02T18:38:30Z</time></trkpt><trkpt lat="59.5608738810" lon="31.2675368506"><ele>234.22</ele><time>2026-09-02T18:38:31Z</time></trkpt><trkpt lat="59.5608738810" lon="31.2675368506"><ele>234.22</ele><time>2026-09-02T18:38:32Z</time></trkpt><trkpt lat="59.5608738810" lon="31.2675368506"><ele>234.22</ele><time>2026-09-02T18:38:33Z</time></trkpt><trkpt lat="59.5608738810" lon="31.2675368506"><ele>234.22</ele><time>2026-09-02T18:38:34Z</time></trkpt><trkpt lat="59.5608936623" lon="31.2675368506"><ele>234.22</ele><time>2026-09-02T18:38:35Z</time></trkpt><trkpt lat="59.5608943328" lon="31.2675324921"><ele>234.22</ele><time>2026-09-02T18:38:36Z</time></trkpt><trkpt lat="59.5608954225" lon="31.2675338332"><ele>234.22</ele><time>2026-09-02T18:38:37Z</time></trkpt><trkpt lat="59.5608924888" lon="31.2675306480"><ele>234.22</ele><time>2026-09-02T18:38:38Z</time></trkpt><trkpt lat="59.5608924888" lon="31.2675306480"><ele>234.22</ele><time>2026-09-02T18:38:39Z</time></trkpt><trkpt lat="59.5608924888" lon="31.2675306480"><ele>234.22</ele><time>2026-09-02T18:38:40Z</time></trkpt><trkpt lat="59.5608924888" lon="31.2675306480"><ele>234.22</ele><time>2026-09-02T18:38:41Z</time></trkpt><trkpt lat="59.5608924888" lon="31.2675306480"><ele>234.22</ele><time>2026-09-02T18:38:42Z</time></trkpt><trkpt lat="59.5608924888" lon="31.2675306480"><ele>234.22</ele><time>2026-09-02T18:38:43Z</time></trkpt><trkpt lat="59.5608924888" lon="31.2675306480"><ele>234.22</ele><time>2026-09-02T18:38:44Z</time></trkpt><trkpt lat="59.5608924888" lon="31.2675306480"><ele>234.22</ele><time>2026-09-02T18:38:45Z</time></trkpt><trkpt lat="59.5608924888" lon="31.2675306480"><ele>234.22</ele><time>2026-09-02T18:38:46Z</time></trkpt><trkpt lat="59.5608924888" lon="31.2675306480"><ele>234.22</ele><time>2026-09-02T18:38:47Z</time></trkpt><trkpt lat="59.5608924888" lon="31.2675306480"><ele>234.22</ele><time>2026-09-02T18:38:48Z</time></trkpt><trkpt lat="59.5608924888" lon="31.2675306480"><ele>234.22</ele><time>2026-09-02T18:38:49Z</time></trkpt><trkpt lat="59.5608924888" lon="31.2675306480"><ele>234.22</ele><time>2026-09-02T18:38:50Z</time></trkpt><trkpt lat="59.5608924888" lon="31.2675306480"><ele>234.22</ele><time>2026-09-02T18:38:51Z</time></trkpt><trkpt lat="59.5608924888" lon="31.2675306480"><ele>234.22</ele><time>2026-09-02T18:38:52Z</time></trkpt><trkpt lat="59.5608924888" lon="31.2675306480"><ele>234.22</ele><time>2026-09-02T18:38:53Z</time></trkpt><trkpt lat="59.5608924888" lon="31.2675306480"><ele>234.22</ele><time>2026-09-02T18:38:54Z</time></trkpt><trkpt lat="59.5608924888" lon="31.2675306480"><ele>234.22</ele><time>2026-09-02T18:38:55Z</time></trkpt><trkpt lat="59.5608924888" lon="31.2675306480"><ele>234.22</ele><time>2026-09-02T18:38:56Z</time></trkpt><trkpt lat="59.5608924888" lon="31.2675306480"><ele>234.22</ele><time>2026-09-02T18:38:57Z</time></trkpt><trkpt lat="59.5608924888" lon="31.2675306480"><ele>234.22</ele><time>2026-09-02T18:38:58Z</time></trkpt><trkpt lat="59.5608924888" lon="31.2675306480"><ele>234.22</ele><time>2026-09-02T18:38:59Z</time></trkpt><trkpt lat="59.5608924888" lon="31.2675306480"><ele>234.22</ele><time>2026-09-02T18:39:00Z</time></trkpt><trkpt lat="59.5608924888" lon="31.2675306480"><ele>234.22</ele><time>2026-09-02T18:39:01Z</time></trkpt><trkpt lat="59.5608924888" lon="31.2675306480"><ele>234.22</ele><time>2026-09-02T18:39:02Z</time></trkpt><trkpt lat="59.5608924888" lon="31.2675306480"><ele>234.22</ele><time>2026-09-02T18:39:03Z</time></trkpt><trkpt lat="59.5608924888" lon="31.2675306480"><ele>234.22</ele><time>2026-09-02T18:39:04Z</time></trkpt><trkpt lat="59.5608924888" lon="31.2675306480"><ele>234.22</ele><time>2026-09-02T18:39:05Z</time></trkpt><trkpt lat="59.5608924888" lon="31.2675306480"><ele>234.22</ele><time>2026-09-02T18:39:06Z</time></trkpt><trkpt lat="59.5608924888" lon="31.2675306480"><ele>234.22</ele><time>2026-09-02T18:39:07Z</time></trkpt><trkpt lat="59.5608924888" lon="31.2675306480"><ele>234.22</ele><time>2026-09-02T18:39:08Z</time></trkpt><trkpt lat="59.5608924888" lon="31.2675306480"><ele>234.22</ele><time>2026-09-02T18:39:09Z</time></trkpt><trkpt lat="59.5608924888" lon="31.2675306480"><ele>234.22</ele><time>2026-09-02T18:39:10Z</time></trkpt><trkpt lat="59.5608924888" lon="31.2675306480"><ele>234.22</ele><time>2026-09-02T18:39:11Z</time></trkpt><trkpt lat="59.5608924888" lon="31.2675306480"><ele>234.22</ele><time>2026-09-02T18:39:12Z</time></trkpt><trkpt lat="59.5608924888" lon="31.2675306480"><ele>234.22</ele><time>2026-09-02T18:39:13Z</time></trkpt><trkpt lat="59.5608924888" lon="31.2675306480"><ele>234.22</ele><time>2026-09-02T18:39:14Z</time></trkpt><trkpt lat="59.5608924888" lon="31.2675306480"><ele>234.22</ele><time>2026-09-02T18:39:15Z</time></trkpt><trkpt lat="59.5608924888" lon="31.2675306480"><ele>234.22</ele><time>2026-09-02T18:39:16Z</time></trkpt><trkpt lat="59.5608924888" lon="31.2675306480"><ele>234.22</ele><time>2026-09-02T18:39:17Z</time></trkpt><trkpt lat="59.5608924888" lon="31.2675306480"><ele>234.22</ele><time>2026-09-02T18:39:18Z</time></trkpt><trkpt lat="59.5608924888" lon="31.2675306480"><ele>234.22</ele><time>2026-09-02T18:39:19Z</time></trkpt><trkpt lat="59.5608924888" lon="31.2675306480"><ele>234.22</ele><time>2026-09-02T18:39:20Z</time></trkpt><trkpt lat="59.5608924888" lon="31.2675306480"><ele>234.22</ele><time>2026-09-02T18:39:21Z</time></trkpt><trkpt lat="59.5608924888" lon="31.2675306480"><ele>234.22</ele><time>2026-09-02T18:39:22Z</time></trkpt><trkpt lat="59.5608924888" lon="31.2675306480"><ele>234.22</ele><time>2026-09-02T18:39:23Z</time></trkpt><trkpt lat="59.5608924888" lon="31.2675306480"><ele>234.22</ele><time>2026-09-02T18:39:24Z</time></trkpt><trkpt lat="59.5608924888" lon="31.2675306480"><ele>234.22</ele><time>2026-09-02T18:39:25Z</time></trkpt><trkpt lat="59.5608924888" lon="31.2675306480"><ele>234.22</ele><time>2026-09-02T18:39:26Z</time></trkpt><trkpt lat="59.5608924888" lon="31.2675306480"><ele>234.22</ele><time>2026-09-02T18:39:27Z</time></trkpt><trkpt lat="59.5608924888" lon="31.2675306480"><ele>234.22</ele><time>2026-09-02T18:39:28Z</time></trkpt><trkpt lat="59.5608924888" lon="31.2675306480"><ele>234.22</ele><time>2026-09-02T18:39:29Z</time></trkpt><trkpt lat="59.5608924888" lon="31.2675306480"><ele>234.22</ele><time>2026-09-02T18:39:30Z</time></trkpt><trkpt lat="59.5608924888" lon="31.2675306480"><ele>234.22</ele><time>2026-09-02T18:39:31Z</time></trkpt><trkpt lat="59.5608924888" lon="31.2675306480"><ele>234.22</ele><time>2026-09-02T18:39:32Z</time></trkpt><trkpt lat="59.5608924888" lon="31.2675306480"><ele>234.22</ele><time>2026-09-02T18:39:33Z</time></trkpt><trkpt lat="59.5608924888" lon="31.2675306480"><ele>234.22</ele><time>2026-09-02T18:39:34Z</time></trkpt><trkpt lat="59.5608924888" lon="31.2675306480"><ele>234.22</ele><time>2026-09-02T18:39:35Z</time></trkpt><trkpt lat="59.5608924888" lon="31.2675306480"><ele>234.22</ele><time>2026-09-02T18:39:36Z</time></trkpt><trkpt lat="59.5608924888" lon="31.2675306480"><ele>234.22</ele><time>2026-09-02T18:39:37Z</time></trkpt><trkpt lat="59.5608924888" lon="31.2675306480"><ele>234.22</ele><time>2026-09-02T18:39:38Z</time></trkpt><trkpt lat="59.5608924888" lon="31.2675306480"><ele>234.22</ele><time>2026-09-02T18:39:39Z</time></trkpt><trkpt lat="59.5608924888" lon="31.2675306480"><ele>234.22</ele><time>2026-09-02T18:39:40Z</time></trkpt><trkpt lat="59.5608924888" lon="31.2675306480"><ele>234.22</ele><time>2026-09-02T18:39:41Z</time></trkpt><trkpt lat="59.5608924888" lon="31.2675306480"><ele>234.22</ele><time>2026-09-02T18:39:42Z</time></trkpt><trkpt lat="59.5608924888" lon="31.2675306480"><ele>234.22</ele><time>2026-09-02T18:39:43Z</time></trkpt><trkpt lat="59.5608924888" lon="31.2675306480"><ele>234.22</ele><time>2026-09-02T18:39:44Z</time></trkpt><trkpt lat="59.5608924888" lon="31.2675306480"><ele>234.22</ele><time>2026-09-02T18:39:45Z</time></trkpt><trkpt lat="59.5608924888" lon="31.2675306480"><ele>234.22</ele><time>2026-09-02T18:39:46Z</time></trkpt><trkpt lat="59.5608924888" lon="31.2675306480"><ele>234.22</ele><time>2026-09-02T18:39:47Z</time></trkpt><trkpt lat="59.5608924888" lon="31.2675306480"><ele>234.22</ele><time>2026-09-02T18:39:48Z</time></trkpt><trkpt lat="59.5608924888" lon="31.2675306480"><ele>234.22</ele><time>2026-09-02T18:39:49Z</time></trkpt><trkpt lat="59.5608924888" lon="31.2675306480"><ele>234.22</ele><time>2026-09-02T18:39:50Z</time></trkpt><trkpt lat="59.5608924888" lon="31.2675306480"><ele>234.22</ele><time>2026-09-02T18:39:51Z</time></trkpt><trkpt lat="59.5608924888" lon="31.2675306480"><ele>234.22</ele><time>2026-09-02T18:39:52Z</time></trkpt><trkpt lat="59.5608924888" lon="31.2675306480"><ele>234.22</ele><time>2026-09-02T18:39:53Z</time></trkpt><trkpt lat="59.5608924888" lon="31.2675306480"><ele>234.22</ele><time>2026-09-02T18:39:54Z</time></trkpt><trkpt lat="59.5608924888" lon="31.2675306480"><ele>234.22</ele><time>2026-09-02T18:39:55Z</time></trkpt><trkpt lat="59.5608924888" lon="31.2675306480"><ele>234.22</ele><time>2026-09-02T18:39:56Z</time></trkpt><trkpt lat="59.5608856995" lon="31.2675155606"><ele>234.22</ele><time>2026-09-02T18:39:57Z</time></trkpt><trkpt lat="59.5608821791" lon="31.2675195839"><ele>234.22</ele><time>2026-09-02T18:39:58Z</time></trkpt><trkpt lat="59.5608821791" lon="31.2675213441"><ele>234.22</ele><time>2026-09-02T18:39:59Z</time></trkpt><trkpt lat="59.5608817600" lon="31.2675239425"><ele>234.22</ele><time>2026-09-02T18:40:00Z</time></trkpt><trkpt lat="59.5608817600" lon="31.2675239425"><ele>234.22</ele><time>2026-09-02T18:40:01Z</time></trkpt><trkpt lat="59.5608817600" lon="31.2675239425"><ele>234.22</ele><time>2026-09-02T18:40:02Z</time></trkpt><trkpt lat="59.5608817600" lon="31.2675239425"><ele>234.70</ele><time>2026-09-02T18:40:03Z</time></trkpt><trkpt lat="59.5608817600" lon="31.2675239425"><ele>234.70</ele><time>2026-09-02T18:40:04Z</time></trkpt><trkpt lat="59.5608817600" lon="31.2675239425"><ele>234.70</ele><time>2026-09-02T18:40:05Z</time></trkpt><trkpt lat="59.5608817600" lon="31.2675239425"><ele>234.70</ele><time>2026-09-02T18:40:06Z</time></trkpt><trkpt lat="59.5608817600" lon="31.2675239425"><ele>234.70</ele><time>2026-09-02T18:40:07Z</time></trkpt><trkpt lat="59.5608817600" lon="31.2675239425"><ele>234.22</ele><time>2026-09-02T18:40:08Z</time></trkpt><trkpt lat="59.5608817600" lon="31.2675239425"><ele>234.22</ele><time>2026-09-02T18:40:09Z</time></trkpt><trkpt lat="59.5608817600" lon="31.2675239425"><ele>234.22</ele><time>2026-09-02T18:40:10Z</time></trkpt><trkpt lat="59.5608817600" lon="31.2675239425"><ele>234.70</ele><time>2026-09-02T18:40:11Z</time></trkpt><trkpt lat="59.5608817600" lon="31.2675239425"><ele>234.70</ele><time>2026-09-02T18:40:12Z</time></trkpt><trkpt lat="59.5608817600" lon="31.2675239425"><ele>234.70</ele><time>2026-09-02T18:40:13Z</time></trkpt><trkpt lat="59.5608817600" lon="31.2675239425"><ele>234.70</ele><time>2026-09-02T18:40:14Z</time></trkpt><trkpt lat="59.5608817600" lon="31.2675239425"><ele>234.70</ele><time>2026-09-02T18:40:15Z</time></trkpt><trkpt lat="59.5608817600" lon="31.2675239425"><ele>234.70</ele><time>2026-09-02T18:40:16Z</time></trkpt><trkpt lat="59.5608817600" lon="31.2675239425"><ele>234.70</ele><time>2026-09-02T18:40:17Z</time></trkpt><trkpt lat="59.5608817600" lon="31.2675239425"><ele>234.70</ele><time>2026-09-02T18:40:18Z</time></trkpt><trkpt lat="59.5608817600" lon="31.2675239425"><ele>234.70</ele><time>2026-09-02T18:40:19Z</time></trkpt><trkpt lat="59.5608817600" lon="31.2675239425"><ele>234.22</ele><time>2026-09-02T18:40:20Z</time></trkpt><trkpt lat="59.5608817600" lon="31.2675239425"><ele>234.22</ele><time>2026-09-02T18:40:21Z</time></trkpt><trkpt lat="59.5608817600" lon="31.2675239425"><ele>234.22</ele><time>2026-09-02T18:40:22Z</time></trkpt><trkpt lat="59.5608817600" lon="31.2675239425"><ele>234.22</ele><time>2026-09-02T18:40:23Z</time></trkpt><trkpt lat="59.5608817600" lon="31.2675239425"><ele>234.70</ele><time>2026-09-02T18:40:24Z</time></trkpt><trkpt lat="59.5608817600" lon="31.2675239425"><ele>234.70</ele><time>2026-09-02T18:40:25Z</time></trkpt><trkpt lat="59.5608817600" lon="31.2675239425"><ele>234.70</ele><time>2026-09-02T18:40:26Z</time></trkpt><trkpt lat="59.5608817600" lon="31.2675239425"><ele>234.70</ele><time>2026-09-02T18:40:27Z</time></trkpt><trkpt lat="59.5608817600" lon="31.2675239425"><ele>234.70</ele><time>2026-09-02T18:40:28Z</time></trkpt><trkpt lat="59.5608817600" lon="31.2675239425"><ele>234.70</ele><time>2026-09-02T18:40:29Z</time></trkpt><trkpt lat="59.5608817600" lon="31.2675239425"><ele>234.70</ele><time>2026-09-02T18:40:30Z</time></trkpt><trkpt lat="59.5608817600" lon="31.2675239425"><ele>234.22</ele><time>2026-09-02T18:40:31Z</time></trkpt><trkpt lat="59.5608817600" lon="31.2675239425"><ele>234.22</ele><time>2026-09-02T18:40:32Z</time></trkpt><trkpt lat="59.5608817600" lon="31.2675239425"><ele>234.22</ele><time>2026-09-02T18:40:33Z</time></trkpt><trkpt lat="59.5608817600" lon="31.2675239425"><ele>234.22</ele><time>2026-09-02T18:40:34Z</time></trkpt><trkpt lat="59.5608817600" lon="31.2675239425"><ele>234.22</ele><time>2026-09-02T18:40:35Z</time></trkpt><trkpt lat="59.5608817600" lon="31.2675239425"><ele>234.22</ele><time>2026-09-02T18:40:36Z</time></trkpt><trkpt lat="59.5608817600" lon="31.2675239425"><ele>234.22</ele><time>2026-09-02T18:40:37Z</time></trkpt><trkpt lat="59.5608817600" lon="31.2675239425"><ele>234.70</ele><time>2026-09-02T18:40:38Z</time></trkpt><trkpt lat="59.5608817600" lon="31.2675239425"><ele>234.22</ele><time>2026-09-02T18:40:39Z</time></trkpt><trkpt lat="59.5608817600" lon="31.2675239425"><ele>234.22</ele><time>2026-09-02T18:40:40Z</time></trkpt><trkpt lat="59.5608817600" lon="31.2675239425"><ele>234.22</ele><time>2026-09-02T18:40:41Z</time></trkpt><trkpt lat="59.5608817600" lon="31.2675239425"><ele>234.22</ele><time>2026-09-02T18:40:42Z</time></trkpt><trkpt lat="59.5608817600" lon="31.2675239425"><ele>234.22</ele><time>2026-09-02T18:40:43Z</time></trkpt><trkpt lat="59.5608817600" lon="31.2675239425"><ele>234.22</ele><time>2026-09-02T18:40:44Z</time></trkpt><trkpt lat="59.5608817600" lon="31.2675239425"><ele>234.22</ele><time>2026-09-02T18:40:45Z</time></trkpt><trkpt lat="59.5608817600" lon="31.2675239425"><ele>234.22</ele><time>2026-09-02T18:40:46Z</time></trkpt><trkpt lat="59.5608817600" lon="31.2675239425"><ele>234.22</ele><time>2026-09-02T18:40:47Z</time></trkpt><trkpt lat="59.5608817600" lon="31.2675239425"><ele>234.22</ele><time>2026-09-02T18:40:48Z</time></trkpt><trkpt lat="59.5608817600" lon="31.2675239425"><ele>234.22</ele><time>2026-09-02T18:40:49Z</time></trkpt><trkpt lat="59.5608817600" lon="31.2675239425"><ele>234.22</ele><time>2026-09-02T18:40:50Z</time></trkpt><trkpt lat="59.5608817600" lon="31.2675239425"><ele>234.22</ele><time>2026-09-02T18:40:51Z</time></trkpt><trkpt lat="59.5608817600" lon="31.2675239425"><ele>234.22</ele><time>2026-09-02T18:40:52Z</time></trkpt><trkpt lat="59.5608817600" lon="31.2675239425"><ele>234.22</ele><time>2026-09-02T18:40:53Z</time></trkpt><trkpt lat="59.5608817600" lon="31.2675239425"><ele>234.22</ele><time>2026-09-02T18:40:54Z</time></trkpt><trkpt lat="59.5608817600" lon="31.2675239425"><ele>234.22</ele><time>2026-09-02T18:40:55Z</time></trkpt><trkpt lat="59.5608817600" lon="31.2675239425"><ele>234.22</ele><time>2026-09-02T18:40:56Z</time></trkpt><trkpt lat="59.5608817600" lon="31.2675239425"><ele>234.22</ele><time>2026-09-02T18:40:57Z</time></trkpt><trkpt lat="59.5608817600" lon="31.2675239425"><ele>234.22</ele><time>2026-09-02T18:40:58Z</time></trkpt><trkpt lat="59.5608817600" lon="31.2675239425"><ele>234.70</ele><time>2026-09-02T18:40:59Z</time></trkpt><trkpt lat="59.5608817600" lon="31.2675239425"><ele>234.70</ele><time>2026-09-02T18:41:00Z</time></trkpt><trkpt lat="59.5608817600" lon="31.2675239425"><ele>234.70</ele><time>2026-09-02T18:41:01Z</time></trkpt><trkpt lat="59.5608817600" lon="31.2675239425"><ele>234.70</ele><time>2026-09-02T18:41:02Z</time></trkpt><trkpt lat="59.5608817600" lon="31.2675239425"><ele>234.70</ele><time>2026-09-02T18:41:03Z</time></trkpt><trkpt lat="59.5608817600" lon="31.2675239425"><ele>234.70</ele><time>2026-09-02T18:41:04Z</time></trkpt><trkpt lat="59.5608817600" lon="31.2675239425"><ele>234.70</ele><time>2026-09-02T18:41:05Z</time></trkpt><trkpt lat="59.5608817600" lon="31.2675239425"><ele>234.70</ele><time>2026-09-02T18:41:06Z</time></trkpt><trkpt lat="59.5608817600" lon="31.2675239425"><ele>234.22</ele><time>2026-09-02T18:41:07Z</time></trkpt><trkpt lat="59.5608817600" lon="31.2675239425"><ele>234.22</ele><time>2026-09-02T18:41:08Z</time></trkpt><trkpt lat="59.5608817600" lon="31.2675239425"><ele>234.22</ele><time>2026-09-02T18:41:09Z</time></trkpt><trkpt lat="59.5608817600" lon="31.2675239425"><ele>234.22</ele><time>2026-09-02T18:41:10Z</time></trkpt><trkpt lat="59.5608817600" lon="31.2675239425"><ele>234.22</ele><time>2026-09-02T18:41:11Z</time></trkpt><trkpt lat="59.5608817600" lon="31.2675239425"><ele>234.22</ele><time>2026-09-02T18:41:12Z</time></trkpt><trkpt lat="59.5608817600" lon="31.2675239425"><ele>234.22</ele><time>2026-09-02T18:41:13Z</time></trkpt><trkpt lat="59.5608817600" lon="31.2675239425"><ele>234.22</ele><time>2026-09-02T18:41:14Z</time></trkpt><trkpt lat="59.5608817600" lon="31.2675239425"><ele>234.22</ele><time>2026-09-02T18:41:15Z</time></trkpt><trkpt lat="59.5608056523" lon="31.2676276267"><ele>234.22</ele><time>2026-09-02T18:41:16Z</time></trkpt><trkpt lat="59.5608039759" lon="31.2676303927"><ele>234.22</ele><time>2026-09-02T18:41:17Z</time></trkpt><trkpt lat="59.5608024672" lon="31.2676313985"><ele>234.22</ele><time>2026-09-02T18:41:18Z</time></trkpt><trkpt lat="59.5608024672" lon="31.2676341645"><ele>234.22</ele><time>2026-09-02T18:41:19Z</time></trkpt><trkpt lat="59.5608024672" lon="31.2676341645"><ele>234.22</ele><time>2026-09-02T18:41:20Z</time></trkpt><trkpt lat="59.5608024672" lon="31.2676341645"><ele>234.22</ele><time>2026-09-02T18:41:21Z</time></trkpt><trkpt lat="59.5608024672" lon="31.2676341645"><ele>234.22</ele><time>2026-09-02T18:41:22Z</time></trkpt><trkpt lat="59.5608024672" lon="31.2676341645"><ele>234.22</ele><time>2026-09-02T18:41:23Z</time></trkpt><trkpt lat="59.5608024672" lon="31.2676341645"><ele>234.22</ele><time>2026-09-02T18:41:24Z</time></trkpt><trkpt lat="59.5608024672" lon="31.2676341645"><ele>234.22</ele><time>2026-09-02T18:41:25Z</time></trkpt><trkpt lat="59.5608024672" lon="31.2676341645"><ele>234.22</ele><time>2026-09-02T18:41:26Z</time></trkpt><trkpt lat="59.5608024672" lon="31.2676341645"><ele>234.22</ele><time>2026-09-02T18:41:27Z</time></trkpt><trkpt lat="59.5608024672" lon="31.2676341645"><ele>234.22</ele><time>2026-09-02T18:41:28Z</time></trkpt><trkpt lat="59.5608024672" lon="31.2676341645"><ele>234.22</ele><time>2026-09-02T18:41:29Z</time></trkpt><trkpt lat="59.5608024672" lon="31.2676341645"><ele>234.22</ele><time>2026-09-02T18:41:30Z</time></trkpt><trkpt lat="59.5608024672" lon="31.2676341645"><ele>234.22</ele><time>2026-09-02T18:41:31Z</time></trkpt><trkpt lat="59.5608024672" lon="31.2676341645"><ele>234.22</ele><time>2026-09-02T18:41:32Z</time></trkpt><trkpt lat="59.5608024672" lon="31.2676341645"><ele>234.22</ele><time>2026-09-02T18:41:33Z</time></trkpt><trkpt lat="59.5608024672" lon="31.2676341645"><ele>234.22</ele><time>2026-09-02T18:41:34Z</time></trkpt><trkpt lat="59.5608024672" lon="31.2676341645"><ele>234.22</ele><time>2026-09-02T18:41:35Z</time></trkpt><trkpt lat="59.5608024672" lon="31.2676341645"><ele>234.22</ele><time>2026-09-02T18:41:36Z</time></trkpt><trkpt lat="59.5608024672" lon="31.2676341645"><ele>234.22</ele><time>2026-09-02T18:41:37Z</time></trkpt><trkpt lat="59.5608024672" lon="31.2676341645"><ele>234.22</ele><time>2026-09-02T18:41:38Z</time></trkpt><trkpt lat="59.5608024672" lon="31.2676341645"><ele>234.22</ele><time>2026-09-02T18:41:39Z</time></trkpt><trkpt lat="59.5608024672" lon="31.2676341645"><ele>234.22</ele><time>2026-09-02T18:41:40Z</time></trkpt><trkpt lat="59.5608024672" lon="31.2676341645"><ele>234.22</ele><time>2026-09-02T18:41:41Z</time></trkpt><trkpt lat="59.5608024672" lon="31.2676341645"><ele>234.22</ele><time>2026-09-02T18:41:42Z</time></trkpt><trkpt lat="59.5608024672" lon="31.2676341645"><ele>234.22</ele><time>2026-09-02T18:41:43Z</time></trkpt><trkpt lat="59.5608024672" lon="31.2676341645"><ele>234.22</ele><time>2026-09-02T18:41:44Z</time></trkpt><trkpt lat="59.5608024672" lon="31.2676341645"><ele>234.22</ele><time>2026-09-02T18:41:45Z</time></trkpt><trkpt lat="59.5608024672" lon="31.2676341645"><ele>234.22</ele><time>2026-09-02T18:41:46Z</time></trkpt><trkpt lat="59.5608024672" lon="31.2676341645"><ele>234.22</ele><time>2026-09-02T18:41:47Z</time></trkpt><trkpt lat="59.5608024672" lon="31.2676341645"><ele>234.22</ele><time>2026-09-02T18:41:48Z</time></trkpt><trkpt lat="59.5608024672" lon="31.2676341645"><ele>234.22</ele><time>2026-09-02T18:41:49Z</time></trkpt><trkpt lat="59.5608024672" lon="31.2676341645"><ele>234.22</ele><time>2026-09-02T18:41:50Z</time></trkpt><trkpt lat="59.5608024672" lon="31.2676341645"><ele>234.22</ele><time>2026-09-02T18:41:51Z</time></trkpt><trkpt lat="59.5608024672" lon="31.2676341645"><ele>234.22</ele><time>2026-09-02T18:41:52Z</time></trkpt><trkpt lat="59.5608024672" lon="31.2676341645"><ele>234.22</ele><time>2026-09-02T18:41:53Z</time></trkpt><trkpt lat="59.5608024672" lon="31.2676341645"><ele>234.22</ele><time>2026-09-02T18:41:54Z</time></trkpt><trkpt lat="59.5608024672" lon="31.2676341645"><ele>234.70</ele><time>2026-09-02T18:41:55Z</time></trkpt><trkpt lat="59.5607340708" lon="31.2677072547"><ele>234.70</ele><time>2026-09-02T18:41:56Z</time></trkpt><trkpt lat="59.5607302990" lon="31.2677060813"><ele>234.70</ele><time>2026-09-02T18:41:57Z</time></trkpt><trkpt lat="59.5607248507" lon="31.2677087635"><ele>234.70</ele><time>2026-09-02T18:41:58Z</time></trkpt><trkpt lat="59.5607175585" lon="31.2677149661"><ele>234.70</ele><time>2026-09-02T18:41:59Z</time></trkpt><trkpt lat="59.5607107691" lon="31.2677220907"><ele>234.70</ele><time>2026-09-02T18:42:00Z</time></trkpt><trkpt lat="59.5607053209" lon="31.2677255273"><ele>235.18</ele><time>2026-09-02T18:42:01Z</time></trkpt><trkpt lat="59.5606984477" lon="31.2677304726"><ele>235.18</ele><time>2026-09-02T18:42:02Z</time></trkpt><trkpt lat="59.5606911555" lon="31.2677377649"><ele>235.18</ele><time>2026-09-02T18:42:03Z</time></trkpt><trkpt lat="59.5606846176" lon="31.2677501701"><ele>235.18</ele><time>2026-09-02T18:42:04Z</time></trkpt><trkpt lat="59.5606803428" lon="31.2677693646"><ele>235.18</ele><time>2026-09-02T18:42:05Z</time></trkpt><trkpt lat="59.5606790856" lon="31.2677846197"><ele>235.18</ele><time>2026-09-02T18:42:06Z</time></trkpt><trkpt lat="59.5606753975" lon="31.2678027246"><ele>235.18</ele><time>2026-09-02T18:42:07Z</time></trkpt><trkpt lat="59.5606703684" lon="31.2678185664"><ele>235.18</ele><time>2026-09-02T18:42:08Z</time></trkpt><trkpt lat="59.5606648363" lon="31.2678333186"><ele>235.66</ele><time>2026-09-02T18:42:09Z</time></trkpt><trkpt lat="59.5606613997" lon="31.2678471487"><ele>235.66</ele><time>2026-09-02T18:42:10Z</time></trkpt><trkpt lat="59.5606570411" lon="31.2678563688"><ele>235.66</ele><time>2026-09-02T18:42:11Z</time></trkpt><trkpt lat="59.5606519282" lon="31.2678718753"><ele>235.66</ele><time>2026-09-02T18:42:12Z</time></trkpt><trkpt lat="59.5606498327" lon="31.2678865436"><ele>235.66</ele><time>2026-09-02T18:42:13Z</time></trkpt><trkpt lat="59.5606473181" lon="31.2678997871"><ele>235.66</ele><time>2026-09-02T18:42:14Z</time></trkpt><trkpt lat="59.5606426243" lon="31.2679116894"><ele>235.66</ele><time>2026-09-02T18:42:15Z</time></trkpt><trkpt lat="59.5606351644" lon="31.2679250166"><ele>235.66</ele><time>2026-09-02T18:42:16Z</time></trkpt><trkpt lat="59.5606272854" lon="31.2679379247"><ele>235.66</ele><time>2026-09-02T18:42:17Z</time></trkpt><trkpt lat="59.5606196579" lon="31.2679477315"><ele>235.66</ele><time>2026-09-02T18:42:18Z</time></trkpt><trkpt lat="59.5606106892" lon="31.2679584604"><ele>235.66</ele><time>2026-09-02T18:42:19Z</time></trkpt><trkpt lat="59.5606015529" lon="31.2679673452"><ele>235.66</ele><time>2026-09-02T18:42:20Z</time></trkpt><trkpt lat="59.5605963562" lon="31.2679778226"><ele>235.66</ele><time>2026-09-02T18:42:21Z</time></trkpt><trkpt lat="59.5605894830" lon="31.2679936644"><ele>235.66</ele><time>2026-09-02T18:42:22Z</time></trkpt><trkpt lat="59.5605862979" lon="31.2680067401"><ele>235.66</ele><time>2026-09-02T18:42:23Z</time></trkpt><trkpt lat="59.5605814364" lon="31.2680245936"><ele>235.66</ele><time>2026-09-02T18:42:24Z</time></trkpt><trkpt lat="59.5605762396" lon="31.2680418603"><ele>235.66</ele><time>2026-09-02T18:42:25Z</time></trkpt><trkpt lat="59.5605700370" lon="31.2680545170"><ele>235.66</ele><time>2026-09-02T18:42:26Z</time></trkpt><trkpt lat="59.5605636667" lon="31.2680700235"><ele>235.66</ele><time>2026-09-02T18:42:27Z</time></trkpt><trkpt lat="59.5605571289" lon="31.2680901401"><ele>235.66</ele><time>2026-09-02T18:42:28Z</time></trkpt><trkpt lat="59.5605513453" lon="31.2681100890"><ele>235.66</ele><time>2026-09-02T18:42:29Z</time></trkpt><trkpt lat="59.5605474897" lon="31.2681272719"><ele>235.66</ele><time>2026-09-02T18:42:30Z</time></trkpt><trkpt lat="59.5605440531" lon="31.2681440357"><ele>235.66</ele><time>2026-09-02T18:42:31Z</time></trkpt><trkpt lat="59.5605383534" lon="31.2681610510"><ele>235.66</ele><time>2026-09-02T18:42:32Z</time></trkpt><trkpt lat="59.5605331566" lon="31.2681778986"><ele>235.66</ele><time>2026-09-02T18:42:33Z</time></trkpt><trkpt lat="59.5605273731" lon="31.2681935728"><ele>235.66</ele><time>2026-09-02T18:42:34Z</time></trkpt><trkpt lat="59.5605205838" lon="31.2682079896"><ele>236.14</ele><time>2026-09-02T18:42:35Z</time></trkpt><trkpt lat="59.5605184883" lon="31.2682207301"><ele>236.14</ele><time>2026-09-02T18:42:36Z</time></trkpt><trkpt lat="59.5605170634" lon="31.2682386674"><ele>236.14</ele><time>2026-09-02T18:42:37Z</time></trkpt><trkpt lat="59.5605116989" lon="31.2682644837"><ele>236.14</ele><time>2026-09-02T18:42:38Z</time></trkpt><trkpt lat="59.5605113637" lon="31.2682851870"><ele>236.14</ele><time>2026-09-02T18:42:39Z</time></trkpt><trkpt lat="59.5605092682" lon="31.2683064770"><ele>236.14</ele><time>2026-09-02T18:42:40Z</time></trkpt><trkpt lat="59.5605068374" lon="31.2683273479"><ele>236.14</ele><time>2026-09-02T18:42:41Z</time></trkpt><trkpt lat="59.5605045743" lon="31.2683421839"><ele>236.14</ele><time>2026-09-02T18:42:42Z</time></trkpt><trkpt lat="59.5605046581" lon="31.2683555949"><ele>236.14</ele><time>2026-09-02T18:42:43Z</time></trkpt><trkpt lat="59.5605044905" lon="31.2683725264"><ele>236.14</ele><time>2026-09-02T18:42:44Z</time></trkpt><trkpt lat="59.5605049934" lon="31.2683931459"><ele>236.14</ele><time>2026-09-02T18:42:45Z</time></trkpt><trkpt lat="59.5605073404" lon="31.2684115861"><ele>236.14</ele><time>2026-09-02T18:42:46Z</time></trkpt><trkpt lat="59.5605082624" lon="31.2684329599"><ele>236.14</ele><time>2026-09-02T18:42:47Z</time></trkpt><trkpt lat="59.5605046581" lon="31.2684488855"><ele>236.62</ele><time>2026-09-02T18:42:48Z</time></trkpt><trkpt lat="59.5604994614" lon="31.2684644759"><ele>236.62</ele><time>2026-09-02T18:42:49Z</time></trkpt><trkpt lat="59.5604947675" lon="31.2684816588"><ele>236.62</ele><time>2026-09-02T18:42:50Z</time></trkpt><trkpt lat="59.5604917500" lon="31.2684886996"><ele>236.62</ele><time>2026-09-02T18:42:51Z</time></trkpt><trkpt lat="59.5604881458" lon="31.2684980873"><ele>236.62</ele><time>2026-09-02T18:42:52Z</time></trkpt><trkpt lat="59.5604839548" lon="31.2685061339"><ele>236.62</ele><time>2026-09-02T18:42:53Z</time></trkpt><trkpt lat="59.5604839548" lon="31.2685061339"><ele>236.62</ele><time>2026-09-02T18:42:54Z</time></trkpt><trkpt lat="59.5604839548" lon="31.2685061339"><ele>236.62</ele><time>2026-09-02T18:42:55Z</time></trkpt><trkpt lat="59.5604691189" lon="31.2685419247"><ele>236.62</ele><time>2026-09-02T18:42:56Z</time></trkpt><trkpt lat="59.5604639221" lon="31.2685550842"><ele>236.62</ele><time>2026-09-02T18:42:57Z</time></trkpt><trkpt lat="59.5604603179" lon="31.2685741950"><ele>236.62</ele><time>2026-09-02T18:42:58Z</time></trkpt><trkpt lat="59.5604551211" lon="31.2685946468"><ele>236.62</ele><time>2026-09-02T18:42:59Z</time></trkpt><trkpt lat="59.5604515169" lon="31.2686104886"><ele>236.62</ele><time>2026-09-02T18:43:00Z</time></trkpt><trkpt lat="59.5604487509" lon="31.2686209660"><ele>237.10</ele><time>2026-09-02T18:43:01Z</time></trkpt><trkpt lat="59.5604447275" lon="31.2686277553"><ele>237.10</ele><time>2026-09-02T18:43:02Z</time></trkpt><trkpt lat="59.5604401175" lon="31.2686323654"><ele>237.10</ele><time>2026-09-02T18:43:03Z</time></trkpt><trkpt lat="59.5604354236" lon="31.2686356343"><ele>237.10</ele><time>2026-09-02T18:43:04Z</time></trkpt><trkpt lat="59.5604354236" lon="31.2686356343"><ele>237.10</ele><time>2026-09-02T18:43:05Z</time></trkpt><trkpt lat="59.5604354236" lon="31.2686356343"><ele>237.10</ele><time>2026-09-02T18:43:06Z</time></trkpt><trkpt lat="59.5604354236" lon="31.2686356343"><ele>237.58</ele><time>2026-09-02T18:43:07Z</time></trkpt><trkpt lat="59.5604354236" lon="31.2686356343"><ele>237.58</ele><time>2026-09-02T18:43:08Z</time></trkpt><trkpt lat="59.5604354236" lon="31.2686356343"><ele>237.58</ele><time>2026-09-02T18:43:09Z</time></trkpt><trkpt lat="59.5604354236" lon="31.2686356343"><ele>237.58</ele><time>2026-09-02T18:43:10Z</time></trkpt><trkpt lat="59.5604354236" lon="31.2686356343"><ele>237.58</ele><time>2026-09-02T18:43:11Z</time></trkpt><trkpt lat="59.5604354236" lon="31.2686356343"><ele>237.58</ele><time>2026-09-02T18:43:12Z</time></trkpt><trkpt lat="59.5604354236" lon="31.2686356343"><ele>237.58</ele><time>2026-09-02T18:43:13Z</time></trkpt><trkpt lat="59.5604107808" lon="31.2685909588"><ele>237.58</ele><time>2026-09-02T18:43:14Z</time></trkpt><trkpt lat="59.5604088530" lon="31.2685819902"><ele>237.58</ele><time>2026-09-02T18:43:15Z</time></trkpt><trkpt lat="59.5604084339" lon="31.2685736921"><ele>237.58</ele><time>2026-09-02T18:43:16Z</time></trkpt><trkpt lat="59.5604103617" lon="31.2685636338"><ele>237.58</ele><time>2026-09-02T18:43:17Z</time></trkpt><trkpt lat="59.5604085177" lon="31.2685534917"><ele>237.58</ele><time>2026-09-02T18:43:18Z</time></trkpt><trkpt lat="59.5604076795" lon="31.2685388234"><ele>237.58</ele><time>2026-09-02T18:43:19Z</time></trkpt><trkpt lat="59.5604037400" lon="31.2685237359"><ele>237.58</ele><time>2026-09-02T18:43:20Z</time></trkpt><trkpt lat="59.5604008902" lon="31.2685062177"><ele>237.58</ele><time>2026-09-02T18:43:21Z</time></trkpt><trkpt lat="59.5603967831" lon="31.2684940640"><ele>237.58</ele><time>2026-09-02T18:43:22Z</time></trkpt><trkpt lat="59.5603939332" lon="31.2684890348"><ele>237.58</ele><time>2026-09-02T18:43:23Z</time></trkpt><trkpt lat="59.5603916701" lon="31.2684832513"><ele>237.58</ele><time>2026-09-02T18:43:24Z</time></trkpt><trkpt lat="59.5603916701" lon="31.2684832513"><ele>237.58</ele><time>2026-09-02T18:43:25Z</time></trkpt><trkpt lat="59.5603916701" lon="31.2684832513"><ele>237.58</ele><time>2026-09-02T18:43:26Z</time></trkpt><trkpt lat="59.5603916701" lon="31.2684832513"><ele>237.58</ele><time>2026-09-02T18:43:27Z</time></trkpt><trkpt lat="59.5603916701" lon="31.2684832513"><ele>237.58</ele><time>2026-09-02T18:43:28Z</time></trkpt><trkpt lat="59.5603632554" lon="31.2684733607"><ele>237.58</ele><time>2026-09-02T18:43:29Z</time></trkpt><trkpt lat="59.5603542868" lon="31.2684740312"><ele>237.58</ele><time>2026-09-02T18:43:30Z</time></trkpt><trkpt lat="59.5603471622" lon="31.2684758753"><ele>237.58</ele><time>2026-09-02T18:43:31Z</time></trkpt><trkpt lat="59.5603394508" lon="31.2684808206"><ele>237.58</ele><time>2026-09-02T18:43:32Z</time></trkpt><trkpt lat="59.5603325777" lon="31.2684851792"><ele>238.06</ele><time>2026-09-02T18:43:33Z</time></trkpt><trkpt lat="59.5603274647" lon="31.2684930582"><ele>238.06</ele><time>2026-09-02T18:43:34Z</time></trkpt><trkpt lat="59.5603220165" lon="31.2684987579"><ele>238.06</ele><time>2026-09-02T18:43:35Z</time></trkpt><trkpt lat="59.5603128802" lon="31.2685055472"><ele>238.06</ele><time>2026-09-02T18:43:36Z</time></trkpt><trkpt lat="59.5603099465" lon="31.2685125880"><ele>238.54</ele><time>2026-09-02T18:43:37Z</time></trkpt><trkpt lat="59.5603035763" lon="31.2685205508"><ele>238.54</ele><time>2026-09-02T18:43:38Z</time></trkpt><trkpt lat="59.5602973737" lon="31.2685280945"><ele>239.02</ele><time>2026-09-02T18:43:39Z</time></trkpt><trkpt lat="59.5602915902" lon="31.2685349677"><ele>239.02</ele><time>2026-09-02T18:43:40Z</time></trkpt><trkpt lat="59.5602855552" lon="31.2685400806"><ele>239.02</ele><time>2026-09-02T18:43:41Z</time></trkpt><trkpt lat="59.5602813642" lon="31.2685471214"><ele>239.02</ele><time>2026-09-02T18:43:42Z</time></trkpt><trkpt lat="59.5602738205" lon="31.2685569283"><ele>239.51</ele><time>2026-09-02T18:43:43Z</time></trkpt><trkpt lat="59.5602666959" lon="31.2685664836"><ele>239.51</ele><time>2026-09-02T18:43:44Z</time></trkpt><trkpt lat="59.5602611639" lon="31.2685782183"><ele>239.99</ele><time>2026-09-02T18:43:45Z</time></trkpt><trkpt lat="59.5602545422" lon="31.2685965747"><ele>239.99</ele><time>2026-09-02T18:43:46Z</time></trkpt><trkpt lat="59.5602492616" lon="31.2686062977"><ele>239.99</ele><time>2026-09-02T18:43:47Z</time></trkpt><trkpt lat="59.5602455735" lon="31.2686163560"><ele>240.47</ele><time>2026-09-02T18:43:48Z</time></trkpt><trkpt lat="59.5602422208" lon="31.2686218880"><ele>240.47</ele><time>2026-09-02T18:43:49Z</time></trkpt><trkpt lat="59.5602397900" lon="31.2686262466"><ele>240.47</ele><time>2026-09-02T18:43:50Z</time></trkpt><trkpt lat="59.5602397900" lon="31.2686262466"><ele>240.95</ele><time>2026-09-02T18:43:51Z</time></trkpt><trkpt lat="59.5602397900" lon="31.2686262466"><ele>240.95</ele><time>2026-09-02T18:43:52Z</time></trkpt><trkpt lat="59.5602397900" lon="31.2686262466"><ele>240.95</ele><time>2026-09-02T18:43:53Z</time></trkpt><trkpt lat="59.5602397900" lon="31.2686262466"><ele>240.95</ele><time>2026-09-02T18:43:54Z</time></trkpt><trkpt lat="59.5602397900" lon="31.2686262466"><ele>240.95</ele><time>2026-09-02T18:43:55Z</time></trkpt><trkpt lat="59.5602397900" lon="31.2686262466"><ele>240.95</ele><time>2026-09-02T18:43:56Z</time></trkpt><trkpt lat="59.5602397900" lon="31.2686262466"><ele>240.95</ele><time>2026-09-02T18:43:57Z</time></trkpt><trkpt lat="59.5602397900" lon="31.2686262466"><ele>240.95</ele><time>2026-09-02T18:43:58Z</time></trkpt><trkpt lat="59.5602397900" lon="31.2686262466"><ele>240.95</ele><time>2026-09-02T18:43:59Z</time></trkpt><trkpt lat="59.5602397900" lon="31.2686262466"><ele>240.95</ele><time>2026-09-02T18:44:00Z</time></trkpt><trkpt lat="59.5602397900" lon="31.2686262466"><ele>240.95</ele><time>2026-09-02T18:44:01Z</time></trkpt><trkpt lat="59.5602397900" lon="31.2686262466"><ele>240.95</ele><time>2026-09-02T18:44:02Z</time></trkpt><trkpt lat="59.5602397900" lon="31.2686262466"><ele>240.95</ele><time>2026-09-02T18:44:03Z</time></trkpt><trkpt lat="59.5602397900" lon="31.2686262466"><ele>240.95</ele><time>2026-09-02T18:44:04Z</time></trkpt><trkpt lat="59.5602397900" lon="31.2686262466"><ele>240.95</ele><time>2026-09-02T18:44:05Z</time></trkpt><trkpt lat="59.5602397900" lon="31.2686262466"><ele>240.95</ele><time>2026-09-02T18:44:06Z</time></trkpt><trkpt lat="59.5602397900" lon="31.2686262466"><ele>240.95</ele><time>2026-09-02T18:44:07Z</time></trkpt><trkpt lat="59.5602397900" lon="31.2686262466"><ele>240.95</ele><time>2026-09-02T18:44:08Z</time></trkpt><trkpt lat="59.5602397900" lon="31.2686262466"><ele>240.95</ele><time>2026-09-02T18:44:09Z</time></trkpt><trkpt lat="59.5602397900" lon="31.2686262466"><ele>240.95</ele><time>2026-09-02T18:44:10Z</time></trkpt><trkpt lat="59.5602397900" lon="31.2686262466"><ele>240.95</ele><time>2026-09-02T18:44:11Z</time></trkpt><trkpt lat="59.5602397900" lon="31.2686262466"><ele>240.95</ele><time>2026-09-02T18:44:12Z</time></trkpt><trkpt lat="59.5602397900" lon="31.2686262466"><ele>240.95</ele><time>2026-09-02T18:44:13Z</time></trkpt><trkpt lat="59.5602397900" lon="31.2686262466"><ele>240.95</ele><time>2026-09-02T18:44:14Z</time></trkpt><trkpt lat="59.5602397900" lon="31.2686262466"><ele>240.95</ele><time>2026-09-02T18:44:15Z</time></trkpt><trkpt lat="59.5602397900" lon="31.2686262466"><ele>240.95</ele><time>2026-09-02T18:44:16Z</time></trkpt><trkpt lat="59.5602397900" lon="31.2686262466"><ele>240.95</ele><time>2026-09-02T18:44:17Z</time></trkpt><trkpt lat="59.5602397900" lon="31.2686262466"><ele>240.95</ele><time>2026-09-02T18:44:18Z</time></trkpt><trkpt lat="59.5602397900" lon="31.2686262466"><ele>240.95</ele><time>2026-09-02T18:44:19Z</time></trkpt><trkpt lat="59.5602397900" lon="31.2686262466"><ele>240.95</ele><time>2026-09-02T18:44:20Z</time></trkpt><trkpt lat="59.5602397900" lon="31.2686262466"><ele>240.95</ele><time>2026-09-02T18:44:21Z</time></trkpt><trkpt lat="59.5602397900" lon="31.2686262466"><ele>240.95</ele><time>2026-09-02T18:44:22Z</time></trkpt><trkpt lat="59.5602397900" lon="31.2686262466"><ele>240.95</ele><time>2026-09-02T18:44:23Z</time></trkpt><trkpt lat="59.5602397900" lon="31.2686262466"><ele>240.95</ele><time>2026-09-02T18:44:24Z</time></trkpt><trkpt lat="59.5602397900" lon="31.2686262466"><ele>240.95</ele><time>2026-09-02T18:44:25Z</time></trkpt><trkpt lat="59.5602397900" lon="31.2686262466"><ele>240.95</ele><time>2026-09-02T18:44:26Z</time></trkpt><trkpt lat="59.5602397900" lon="31.2686262466"><ele>240.95</ele><time>2026-09-02T18:44:27Z</time></trkpt><trkpt lat="59.5602397900" lon="31.2686262466"><ele>240.95</ele><time>2026-09-02T18:44:28Z</time></trkpt><trkpt lat="59.5602397900" lon="31.2686262466"><ele>240.95</ele><time>2026-09-02T18:44:29Z</time></trkpt><trkpt lat="59.5602397900" lon="31.2686262466"><ele>240.95</ele><time>2026-09-02T18:44:30Z</time></trkpt><trkpt lat="59.5602397900" lon="31.2686262466"><ele>240.95</ele><time>2026-09-02T18:44:31Z</time></trkpt><trkpt lat="59.5602397900" lon="31.2686262466"><ele>240.95</ele><time>2026-09-02T18:44:32Z</time></trkpt><trkpt lat="59.5602397900" lon="31.2686262466"><ele>240.95</ele><time>2026-09-02T18:44:33Z</time></trkpt><trkpt lat="59.5602397900" lon="31.2686262466"><ele>240.95</ele><time>2026-09-02T18:44:34Z</time></trkpt><trkpt lat="59.5602397900" lon="31.2686262466"><ele>240.47</ele><time>2026-09-02T18:44:35Z</time></trkpt><trkpt lat="59.5602397900" lon="31.2686262466"><ele>240.47</ele><time>2026-09-02T18:44:36Z</time></trkpt><trkpt lat="59.5602397900" lon="31.2686262466"><ele>240.47</ele><time>2026-09-02T18:44:37Z</time></trkpt><trkpt lat="59.5602397900" lon="31.2686262466"><ele>240.47</ele><time>2026-09-02T18:44:38Z</time></trkpt><trkpt lat="59.5602397900" lon="31.2686262466"><ele>240.47</ele><time>2026-09-02T18:44:39Z</time></trkpt><trkpt lat="59.5602397900" lon="31.2686262466"><ele>240.47</ele><time>2026-09-02T18:44:40Z</time></trkpt><trkpt lat="59.5602397900" lon="31.2686262466"><ele>240.47</ele><time>2026-09-02T18:44:41Z</time></trkpt><trkpt lat="59.5602397900" lon="31.2686262466"><ele>240.47</ele><time>2026-09-02T18:44:42Z</time></trkpt><trkpt lat="59.5602397900" lon="31.2686262466"><ele>240.47</ele><time>2026-09-02T18:44:43Z</time></trkpt><trkpt lat="59.5602397900" lon="31.2686262466"><ele>240.47</ele><time>2026-09-02T18:44:44Z</time></trkpt><trkpt lat="59.5602397900" lon="31.2686262466"><ele>240.47</ele><time>2026-09-02T18:44:45Z</time></trkpt><trkpt lat="59.5602397900" lon="31.2686262466"><ele>240.47</ele><time>2026-09-02T18:44:46Z</time></trkpt><trkpt lat="59.5602397900" lon="31.2686262466"><ele>240.47</ele><time>2026-09-02T18:44:47Z</time></trkpt><trkpt lat="59.5602397900" lon="31.2686262466"><ele>240.47</ele><time>2026-09-02T18:44:48Z</time></trkpt><trkpt lat="59.5602397900" lon="31.2686262466"><ele>240.47</ele><time>2026-09-02T18:44:49Z</time></trkpt><trkpt lat="59.5602397900" lon="31.2686262466"><ele>240.47</ele><time>2026-09-02T18:44:50Z</time></trkpt><trkpt lat="59.5602397900" lon="31.2686262466"><ele>240.47</ele><time>2026-09-02T18:44:51Z</time></trkpt><trkpt lat="59.5602397900" lon="31.2686262466"><ele>240.47</ele><time>2026-09-02T18:44:52Z</time></trkpt><trkpt lat="59.5602397900" lon="31.2686262466"><ele>240.47</ele><time>2026-09-02T18:44:53Z</time></trkpt><trkpt lat="59.5602397900" lon="31.2686262466"><ele>240.47</ele><time>2026-09-02T18:44:54Z</time></trkpt><trkpt lat="59.5602397900" lon="31.2686262466"><ele>240.47</ele><time>2026-09-02T18:44:55Z</time></trkpt><trkpt lat="59.5602397900" lon="31.2686262466"><ele>240.47</ele><time>2026-09-02T18:44:56Z</time></trkpt><trkpt lat="59.5602397900" lon="31.2686262466"><ele>240.47</ele><time>2026-09-02T18:44:57Z</time></trkpt><trkpt lat="59.5602397900" lon="31.2686262466"><ele>240.47</ele><time>2026-09-02T18:44:58Z</time></trkpt><trkpt lat="59.5602397900" lon="31.2686262466"><ele>240.47</ele><time>2026-09-02T18:44:59Z</time></trkpt><trkpt lat="59.5602397900" lon="31.2686262466"><ele>240.47</ele><time>2026-09-02T18:45:00Z</time></trkpt><trkpt lat="59.5602397900" lon="31.2686262466"><ele>240.47</ele><time>2026-09-02T18:45:01Z</time></trkpt><trkpt lat="59.5602397900" lon="31.2686262466"><ele>240.47</ele><time>2026-09-02T18:45:02Z</time></trkpt><trkpt lat="59.5602397900" lon="31.2686262466"><ele>240.47</ele><time>2026-09-02T18:45:03Z</time></trkpt><trkpt lat="59.5602397900" lon="31.2686262466"><ele>240.47</ele><time>2026-09-02T18:45:04Z</time></trkpt><trkpt lat="59.5602397900" lon="31.2686262466"><ele>240.47</ele><time>2026-09-02T18:45:05Z</time></trkpt><trkpt lat="59.5602397900" lon="31.2686262466"><ele>240.47</ele><time>2026-09-02T18:45:06Z</time></trkpt><trkpt lat="59.5602397900" lon="31.2686262466"><ele>240.47</ele><time>2026-09-02T18:45:07Z</time></trkpt><trkpt lat="59.5602397900" lon="31.2686262466"><ele>240.47</ele><time>2026-09-02T18:45:08Z</time></trkpt><trkpt lat="59.5602397900" lon="31.2686262466"><ele>240.47</ele><time>2026-09-02T18:45:09Z</time></trkpt><trkpt lat="59.5602397900" lon="31.2686262466"><ele>240.47</ele><time>2026-09-02T18:45:10Z</time></trkpt><trkpt lat="59.5602397900" lon="31.2686262466"><ele>240.47</ele><time>2026-09-02T18:45:11Z</time></trkpt><trkpt lat="59.5602397900" lon="31.2686262466"><ele>240.47</ele><time>2026-09-02T18:45:12Z</time></trkpt><trkpt lat="59.5602397900" lon="31.2686262466"><ele>240.47</ele><time>2026-09-02T18:45:13Z</time></trkpt><trkpt lat="59.5602397900" lon="31.2686262466"><ele>240.47</ele><time>2026-09-02T18:45:14Z</time></trkpt><trkpt lat="59.5602397900" lon="31.2686262466"><ele>240.47</ele><time>2026-09-02T18:45:15Z</time></trkpt><trkpt lat="59.5602397900" lon="31.2686262466"><ele>240.47</ele><time>2026-09-02T18:45:16Z</time></trkpt><trkpt lat="59.5602397900" lon="31.2686262466"><ele>240.47</ele><time>2026-09-02T18:45:17Z</time></trkpt><trkpt lat="59.5602397900" lon="31.2686262466"><ele>240.47</ele><time>2026-09-02T18:45:18Z</time></trkpt><trkpt lat="59.5602397900" lon="31.2686262466"><ele>240.47</ele><time>2026-09-02T18:45:19Z</time></trkpt><trkpt lat="59.5602397900" lon="31.2686262466"><ele>240.47</ele><time>2026-09-02T18:45:20Z</time></trkpt><trkpt lat="59.5602397900" lon="31.2686262466"><ele>240.47</ele><time>2026-09-02T18:45:21Z</time></trkpt><trkpt lat="59.5602397900" lon="31.2686262466"><ele>240.47</ele><time>2026-09-02T18:45:22Z</time></trkpt><trkpt lat="59.5602750778" lon="31.2686778791"><ele>240.47</ele><time>2026-09-02T18:45:23Z</time></trkpt><trkpt lat="59.5602770895" lon="31.2686868478"><ele>240.95</ele><time>2026-09-02T18:45:24Z</time></trkpt><trkpt lat="59.5602782629" lon="31.2686940562"><ele>240.95</ele><time>2026-09-02T18:45:25Z</time></trkpt><trkpt lat="59.5602775924" lon="31.2687039468"><ele>240.95</ele><time>2026-09-02T18:45:26Z</time></trkpt><trkpt lat="59.5602770895" lon="31.2687106524"><ele>240.95</ele><time>2026-09-02T18:45:27Z</time></trkpt><trkpt lat="59.5602763351" lon="31.2687176932"><ele>240.95</ele><time>2026-09-02T18:45:28Z</time></trkpt><trkpt lat="59.5602734853" lon="31.2687251531"><ele>240.47</ele><time>2026-09-02T18:45:29Z</time></trkpt><trkpt lat="59.5602694619" lon="31.2687297631"><ele>240.47</ele><time>2026-09-02T18:45:30Z</time></trkpt><trkpt lat="59.5602640975" lon="31.2687317748"><ele>240.47</ele><time>2026-09-02T18:45:31Z</time></trkpt><trkpt lat="59.5602551289" lon="31.2687328644"><ele>239.99</ele><time>2026-09-02T18:45:32Z</time></trkpt><trkpt lat="59.5602498483" lon="31.2687356304"><ele>239.99</ele><time>2026-09-02T18:45:33Z</time></trkpt><trkpt lat="59.5602467470" lon="31.2687447667"><ele>239.51</ele><time>2026-09-02T18:45:34Z</time></trkpt><trkpt lat="59.5602434780" lon="31.2687511370"><ele>239.51</ele><time>2026-09-02T18:45:35Z</time></trkpt><trkpt lat="59.5602420531" lon="31.2687554955"><ele>239.02</ele><time>2026-09-02T18:45:36Z</time></trkpt><trkpt lat="59.5602378622" lon="31.2687633745"><ele>239.02</ele><time>2026-09-02T18:45:37Z</time></trkpt><trkpt lat="59.5602357667" lon="31.2687678169"><ele>239.02</ele><time>2026-09-02T18:45:38Z</time></trkpt><trkpt lat="59.5602357667" lon="31.2687678169"><ele>239.02</ele><time>2026-09-02T18:45:39Z</time></trkpt><trkpt lat="59.5602357667" lon="31.2687678169"><ele>239.02</ele><time>2026-09-02T18:45:40Z</time></trkpt><trkpt lat="59.5602357667" lon="31.2687678169"><ele>239.02</ele><time>2026-09-02T18:45:41Z</time></trkpt><trkpt lat="59.5602345932" lon="31.2687858380"><ele>239.02</ele><time>2026-09-02T18:45:42Z</time></trkpt><trkpt lat="59.5602322463" lon="31.2687957287"><ele>239.51</ele><time>2026-09-02T18:45:43Z</time></trkpt><trkpt lat="59.5602346770" lon="31.2688084692"><ele>239.51</ele><time>2026-09-02T18:45:44Z</time></trkpt><trkpt lat="59.5602350961" lon="31.2688228860"><ele>239.51</ele><time>2026-09-02T18:45:45Z</time></trkpt><trkpt lat="59.5602366887" lon="31.2688359618"><ele>239.51</ele><time>2026-09-02T18:45:46Z</time></trkpt><trkpt lat="59.5602352638" lon="31.2688454334"><ele>239.51</ele><time>2026-09-02T18:45:47Z</time></trkpt><trkpt lat="59.5602360182" lon="31.2688561622"><ele>239.51</ele><time>2026-09-02T18:45:48Z</time></trkpt><trkpt lat="59.5602383651" lon="31.2688617781"><ele>239.51</ele><time>2026-09-02T18:45:49Z</time></trkpt><trkpt lat="59.5602382813" lon="31.2688664719"><ele>239.51</ele><time>2026-09-02T18:45:50Z</time></trkpt><trkpt lat="59.5602374431" lon="31.2688713335"><ele>239.02</ele><time>2026-09-02T18:45:51Z</time></trkpt><trkpt lat="59.5602374431" lon="31.2688713335"><ele>239.02</ele><time>2026-09-02T18:45:52Z</time></trkpt><trkpt lat="59.5602374431" lon="31.2688713335"><ele>239.02</ele><time>2026-09-02T18:45:53Z</time></trkpt><trkpt lat="59.5602374431" lon="31.2688713335"><ele>239.02</ele><time>2026-09-02T18:45:54Z</time></trkpt><trkpt lat="59.5602379460" lon="31.2688867562"><ele>239.02</ele><time>2026-09-02T18:45:55Z</time></trkpt><trkpt lat="59.5602396224" lon="31.2688935455"><ele>239.02</ele><time>2026-09-02T18:45:56Z</time></trkpt><trkpt lat="59.5602394547" lon="31.2688986585"><ele>239.02</ele><time>2026-09-02T18:45:57Z</time></trkpt><trkpt lat="59.5602367725" lon="31.2689006701"><ele>239.02</ele><time>2026-09-02T18:45:58Z</time></trkpt><trkpt lat="59.5602359343" lon="31.2689054478"><ele>239.02</ele><time>2026-09-02T18:45:59Z</time></trkpt><trkpt lat="59.5602359343" lon="31.2689054478"><ele>239.02</ele><time>2026-09-02T18:46:00Z</time></trkpt><trkpt lat="59.5602359343" lon="31.2689054478"><ele>239.02</ele><time>2026-09-02T18:46:01Z</time></trkpt><trkpt lat="59.5602359343" lon="31.2689054478"><ele>239.02</ele><time>2026-09-02T18:46:02Z</time></trkpt><trkpt lat="59.5602359343" lon="31.2689054478"><ele>239.51</ele><time>2026-09-02T18:46:03Z</time></trkpt><trkpt lat="59.5602359343" lon="31.2689054478"><ele>239.51</ele><time>2026-09-02T18:46:04Z</time></trkpt><trkpt lat="59.5602359343" lon="31.2689054478"><ele>239.51</ele><time>2026-09-02T18:46:05Z</time></trkpt><trkpt lat="59.5602359343" lon="31.2689054478"><ele>239.51</ele><time>2026-09-02T18:46:06Z</time></trkpt><trkpt lat="59.5602359343" lon="31.2689054478"><ele>239.51</ele><time>2026-09-02T18:46:07Z</time></trkpt><trkpt lat="59.5602359343" lon="31.2689054478"><ele>239.51</ele><time>2026-09-02T18:46:08Z</time></trkpt><trkpt lat="59.5602359343" lon="31.2689054478"><ele>239.51</ele><time>2026-09-02T18:46:09Z</time></trkpt><trkpt lat="59.5602192543" lon="31.2689688988"><ele>239.99</ele><time>2026-09-02T18:46:10Z</time></trkpt><trkpt lat="59.5602181647" lon="31.2689781189"><ele>239.99</ele><time>2026-09-02T18:46:11Z</time></trkpt><trkpt lat="59.5602141414" lon="31.2689980678"><ele>239.99</ele><time>2026-09-02T18:46:12Z</time></trkpt><trkpt lat="59.5602110401" lon="31.2690068688"><ele>239.99</ele><time>2026-09-02T18:46:13Z</time></trkpt><trkpt lat="59.5602087770" lon="31.2690164242"><ele>239.99</ele><time>2026-09-02T18:46:14Z</time></trkpt><trkpt lat="59.5602056757" lon="31.2690255605"><ele>239.99</ele><time>2026-09-02T18:46:15Z</time></trkpt><trkpt lat="59.5602013171" lon="31.2690324336"><ele>239.99</ele><time>2026-09-02T18:46:16Z</time></trkpt><trkpt lat="59.5602013171" lon="31.2690324336"><ele>239.99</ele><time>2026-09-02T18:46:17Z</time></trkpt><trkpt lat="59.5602013171" lon="31.2690324336"><ele>239.99</ele><time>2026-09-02T18:46:18Z</time></trkpt><trkpt lat="59.5601838827" lon="31.2690511253"><ele>239.99</ele><time>2026-09-02T18:46:19Z</time></trkpt><trkpt lat="59.5601736568" lon="31.2690593395"><ele>239.99</ele><time>2026-09-02T18:46:20Z</time></trkpt><trkpt lat="59.5601658616" lon="31.2690699846"><ele>239.99</ele><time>2026-09-02T18:46:21Z</time></trkpt><trkpt lat="59.5601602457" lon="31.2690766901"><ele>239.99</ele><time>2026-09-02T18:46:22Z</time></trkpt><trkpt lat="59.5601526182" lon="31.2690806296"><ele>239.99</ele><time>2026-09-02T18:46:23Z</time></trkpt><trkpt lat="59.5601462480" lon="31.2690861616"><ele>239.99</ele><time>2026-09-02T18:46:24Z</time></trkpt><trkpt lat="59.5601396263" lon="31.2690914422"><ele>239.99</ele><time>2026-09-02T18:46:25Z</time></trkpt><trkpt lat="59.5601337589" lon="31.2690943759"><ele>239.99</ele><time>2026-09-02T18:46:26Z</time></trkpt><trkpt lat="59.5601267181" lon="31.2690964714"><ele>239.99</ele><time>2026-09-02T18:46:27Z</time></trkpt><trkpt lat="59.5601212699" lon="31.2690980639"><ele>239.99</ele><time>2026-09-02T18:46:28Z</time></trkpt><trkpt lat="59.5601161569" lon="31.2690970581"><ele>239.99</ele><time>2026-09-02T18:46:29Z</time></trkpt><trkpt lat="59.5601107925" lon="31.2690947950"><ele>239.99</ele><time>2026-09-02T18:46:30Z</time></trkpt><trkpt lat="59.5601043385" lon="31.2690996565"><ele>239.99</ele><time>2026-09-02T18:46:31Z</time></trkpt><trkpt lat="59.5600974653" lon="31.2691002432"><ele>239.99</ele><time>2026-09-02T18:46:32Z</time></trkpt><trkpt lat="59.5600891672" lon="31.2690983992"><ele>239.99</ele><time>2026-09-02T18:46:33Z</time></trkpt><trkpt lat="59.5600862335" lon="31.2690932862"><ele>239.99</ele><time>2026-09-02T18:46:34Z</time></trkpt><trkpt lat="59.5600813720" lon="31.2690876704"><ele>239.99</ele><time>2026-09-02T18:46:35Z</time></trkpt><trkpt lat="59.5600757562" lon="31.2690826412"><ele>239.99</ele><time>2026-09-02T18:46:36Z</time></trkpt><trkpt lat="59.5600694697" lon="31.2690791208"><ele>239.99</ele><time>2026-09-02T18:46:37Z</time></trkpt><trkpt lat="59.5600614231" lon="31.2690840662"><ele>239.99</ele><time>2026-09-02T18:46:38Z</time></trkpt><trkpt lat="59.5600575674" lon="31.2690959685"><ele>239.99</ele><time>2026-09-02T18:46:39Z</time></trkpt><trkpt lat="59.5600529574" lon="31.2691010814"><ele>239.99</ele><time>2026-09-02T18:46:40Z</time></trkpt><trkpt lat="59.5600489341" lon="31.2691070326"><ele>239.99</ele><time>2026-09-02T18:46:41Z</time></trkpt><trkpt lat="59.5600452460" lon="31.2691146601"><ele>239.99</ele><time>2026-09-02T18:46:42Z</time></trkpt><trkpt lat="59.5600406360" lon="31.2691221200"><ele>239.99</ele><time>2026-09-02T18:46:43Z</time></trkpt><trkpt lat="59.5600333437" lon="31.2691252213"><ele>239.99</ele><time>2026-09-02T18:46:44Z</time></trkpt><trkpt lat="59.5600321703" lon="31.2691313401"><ele>239.99</ele><time>2026-09-02T18:46:45Z</time></trkpt><trkpt lat="59.5600305777" lon="31.2691389676"><ele>239.99</ele><time>2026-09-02T18:46:46Z</time></trkpt><trkpt lat="59.5600260515" lon="31.2691537198"><ele>239.99</ele><time>2026-09-02T18:46:47Z</time></trkpt><trkpt lat="59.5600242913" lon="31.2691613473"><ele>239.99</ele><time>2026-09-02T18:46:48Z</time></trkpt><trkpt lat="59.5600242913" lon="31.2691613473"><ele>239.99</ele><time>2026-09-02T18:46:49Z</time></trkpt><trkpt lat="59.5600242913" lon="31.2691613473"><ele>239.99</ele><time>2026-09-02T18:46:50Z</time></trkpt><trkpt lat="59.5600242913" lon="31.2691613473"><ele>239.99</ele><time>2026-09-02T18:46:51Z</time></trkpt><trkpt lat="59.5600242913" lon="31.2691613473"><ele>239.99</ele><time>2026-09-02T18:46:52Z</time></trkpt><trkpt lat="59.5600242913" lon="31.2691613473"><ele>239.99</ele><time>2026-09-02T18:46:53Z</time></trkpt><trkpt lat="59.5600242913" lon="31.2691613473"><ele>239.99</ele><time>2026-09-02T18:46:54Z</time></trkpt><trkpt lat="59.5600242913" lon="31.2691613473"><ele>239.99</ele><time>2026-09-02T18:46:55Z</time></trkpt><trkpt lat="59.5600242913" lon="31.2691613473"><ele>239.99</ele><time>2026-09-02T18:46:56Z</time></trkpt><trkpt lat="59.5600242913" lon="31.2691613473"><ele>239.99</ele><time>2026-09-02T18:46:57Z</time></trkpt><trkpt lat="59.5600242913" lon="31.2691613473"><ele>239.99</ele><time>2026-09-02T18:46:58Z</time></trkpt><trkpt lat="59.5600242913" lon="31.2691613473"><ele>239.99</ele><time>2026-09-02T18:46:59Z</time></trkpt><trkpt lat="59.5600242913" lon="31.2691613473"><ele>239.99</ele><time>2026-09-02T18:47:00Z</time></trkpt><trkpt lat="59.5600242913" lon="31.2691613473"><ele>239.99</ele><time>2026-09-02T18:47:01Z</time></trkpt><trkpt lat="59.5600242913" lon="31.2691613473"><ele>239.99</ele><time>2026-09-02T18:47:02Z</time></trkpt><trkpt lat="59.5600242913" lon="31.2691613473"><ele>239.99</ele><time>2026-09-02T18:47:03Z</time></trkpt><trkpt lat="59.5600242913" lon="31.2691613473"><ele>239.99</ele><time>2026-09-02T18:47:04Z</time></trkpt><trkpt lat="59.5600242913" lon="31.2691613473"><ele>239.99</ele><time>2026-09-02T18:47:05Z</time></trkpt><trkpt lat="59.5600242913" lon="31.2691613473"><ele>239.99</ele><time>2026-09-02T18:47:06Z</time></trkpt><trkpt lat="59.5600242913" lon="31.2691613473"><ele>239.99</ele><time>2026-09-02T18:47:07Z</time></trkpt><trkpt lat="59.5600242913" lon="31.2691613473"><ele>239.99</ele><time>2026-09-02T18:47:08Z</time></trkpt><trkpt lat="59.5600242913" lon="31.2691613473"><ele>239.99</ele><time>2026-09-02T18:47:09Z</time></trkpt><trkpt lat="59.5600242913" lon="31.2691613473"><ele>239.99</ele><time>2026-09-02T18:47:10Z</time></trkpt><trkpt lat="59.5600242913" lon="31.2691613473"><ele>239.99</ele><time>2026-09-02T18:47:11Z</time></trkpt><trkpt lat="59.5600242913" lon="31.2691613473"><ele>239.99</ele><time>2026-09-02T18:47:12Z</time></trkpt><trkpt lat="59.5600242913" lon="31.2691613473"><ele>239.99</ele><time>2026-09-02T18:47:13Z</time></trkpt><trkpt lat="59.5600242913" lon="31.2691613473"><ele>239.99</ele><time>2026-09-02T18:47:14Z</time></trkpt><trkpt lat="59.5600242913" lon="31.2691613473"><ele>239.99</ele><time>2026-09-02T18:47:15Z</time></trkpt><trkpt lat="59.5600242913" lon="31.2691613473"><ele>239.99</ele><time>2026-09-02T18:47:16Z</time></trkpt><trkpt lat="59.5600242913" lon="31.2691613473"><ele>239.99</ele><time>2026-09-02T18:47:17Z</time></trkpt><trkpt lat="59.5600242913" lon="31.2691613473"><ele>239.99</ele><time>2026-09-02T18:47:18Z</time></trkpt><trkpt lat="59.5600242913" lon="31.2691613473"><ele>239.99</ele><time>2026-09-02T18:47:19Z</time></trkpt><trkpt lat="59.5600242913" lon="31.2691613473"><ele>239.99</ele><time>2026-09-02T18:47:20Z</time></trkpt><trkpt lat="59.5600242913" lon="31.2691613473"><ele>239.99</ele><time>2026-09-02T18:47:21Z</time></trkpt><trkpt lat="59.5600242913" lon="31.2691613473"><ele>239.99</ele><time>2026-09-02T18:47:22Z</time></trkpt><trkpt lat="59.5600242913" lon="31.2691613473"><ele>239.99</ele><time>2026-09-02T18:47:23Z</time></trkpt><trkpt lat="59.5600242913" lon="31.2691613473"><ele>239.99</ele><time>2026-09-02T18:47:24Z</time></trkpt><trkpt lat="59.5600242913" lon="31.2691613473"><ele>239.99</ele><time>2026-09-02T18:47:25Z</time></trkpt><trkpt lat="59.5600242913" lon="31.2691613473"><ele>239.99</ele><time>2026-09-02T18:47:26Z</time></trkpt><trkpt lat="59.5600242913" lon="31.2691613473"><ele>239.99</ele><time>2026-09-02T18:47:27Z</time></trkpt><trkpt lat="59.5600242913" lon="31.2691613473"><ele>239.99</ele><time>2026-09-02T18:47:28Z</time></trkpt><trkpt lat="59.5600242913" lon="31.2691613473"><ele>239.99</ele><time>2026-09-02T18:47:29Z</time></trkpt><trkpt lat="59.5600242913" lon="31.2691613473"><ele>239.99</ele><time>2026-09-02T18:47:30Z</time></trkpt><trkpt lat="59.5600242913" lon="31.2691613473"><ele>239.99</ele><time>2026-09-02T18:47:31Z</time></trkpt><trkpt lat="59.5600242913" lon="31.2691613473"><ele>239.99</ele><time>2026-09-02T18:47:32Z</time></trkpt><trkpt lat="59.5600242913" lon="31.2691613473"><ele>239.99</ele><time>2026-09-02T18:47:33Z</time></trkpt><trkpt lat="59.5600242913" lon="31.2691613473"><ele>239.99</ele><time>2026-09-02T18:47:34Z</time></trkpt><trkpt lat="59.5600242913" lon="31.2691613473"><ele>239.99</ele><time>2026-09-02T18:47:35Z</time></trkpt><trkpt lat="59.5600242913" lon="31.2691613473"><ele>239.99</ele><time>2026-09-02T18:47:36Z</time></trkpt><trkpt lat="59.5600242913" lon="31.2691613473"><ele>239.99</ele><time>2026-09-02T18:47:37Z</time></trkpt><trkpt lat="59.5600242913" lon="31.2691613473"><ele>239.99</ele><time>2026-09-02T18:47:38Z</time></trkpt><trkpt lat="59.5599467587" lon="31.2692546379"><ele>239.99</ele><time>2026-09-02T18:47:39Z</time></trkpt><trkpt lat="59.5599440765" lon="31.2692571525"><ele>239.99</ele><time>2026-09-02T18:47:40Z</time></trkpt><trkpt lat="59.5599431545" lon="31.2692595832"><ele>239.99</ele><time>2026-09-02T18:47:41Z</time></trkpt><trkpt lat="59.5599418972" lon="31.2692708988"><ele>239.99</ele><time>2026-09-02T18:47:42Z</time></trkpt><trkpt lat="59.5599395502" lon="31.2692771852"><ele>239.99</ele><time>2026-09-02T18:47:43Z</time></trkpt><trkpt lat="59.5599376224" lon="31.2692797836"><ele>239.99</ele><time>2026-09-02T18:47:44Z</time></trkpt><trkpt lat="59.5599357784" lon="31.2692835554"><ele>239.99</ele><time>2026-09-02T18:47:45Z</time></trkpt><trkpt lat="59.5599340182" lon="31.2692859862"><ele>239.99</ele><time>2026-09-02T18:47:46Z</time></trkpt><trkpt lat="59.5599340182" lon="31.2692859862"><ele>239.99</ele><time>2026-09-02T18:47:47Z</time></trkpt><trkpt lat="59.5599340182" lon="31.2692859862"><ele>239.99</ele><time>2026-09-02T18:47:48Z</time></trkpt><trkpt lat="59.5599340182" lon="31.2692859862"><ele>239.99</ele><time>2026-09-02T18:47:49Z</time></trkpt><trkpt lat="59.5599340182" lon="31.2692859862"><ele>239.99</ele><time>2026-09-02T18:47:50Z</time></trkpt><trkpt lat="59.5599340182" lon="31.2692859862"><ele>239.99</ele><time>2026-09-02T18:47:51Z</time></trkpt><trkpt lat="59.5599340182" lon="31.2692859862"><ele>239.99</ele><time>2026-09-02T18:47:52Z</time></trkpt><trkpt lat="59.5599340182" lon="31.2692859862"><ele>239.99</ele><time>2026-09-02T18:47:53Z</time></trkpt><trkpt lat="59.5599340182" lon="31.2692859862"><ele>239.99</ele><time>2026-09-02T18:47:54Z</time></trkpt><trkpt lat="59.5599340182" lon="31.2692859862"><ele>239.99</ele><time>2026-09-02T18:47:55Z</time></trkpt><trkpt lat="59.5599340182" lon="31.2692859862"><ele>239.99</ele><time>2026-09-02T18:47:56Z</time></trkpt><trkpt lat="59.5599340182" lon="31.2692859862"><ele>239.99</ele><time>2026-09-02T18:47:57Z</time></trkpt><trkpt lat="59.5599340182" lon="31.2692859862"><ele>239.99</ele><time>2026-09-02T18:47:58Z</time></trkpt><trkpt lat="59.5599340182" lon="31.2692859862"><ele>239.99</ele><time>2026-09-02T18:47:59Z</time></trkpt><trkpt lat="59.5599340182" lon="31.2692859862"><ele>239.99</ele><time>2026-09-02T18:48:00Z</time></trkpt><trkpt lat="59.5599340182" lon="31.2692859862"><ele>239.99</ele><time>2026-09-02T18:48:01Z</time></trkpt><trkpt lat="59.5599340182" lon="31.2692859862"><ele>239.51</ele><time>2026-09-02T18:48:02Z</time></trkpt><trkpt lat="59.5599340182" lon="31.2692859862"><ele>239.51</ele><time>2026-09-02T18:48:03Z</time></trkpt><trkpt lat="59.5599181764" lon="31.2693368644"><ele>239.51</ele><time>2026-09-02T18:48:04Z</time></trkpt><trkpt lat="59.5599128958" lon="31.2693363614"><ele>239.51</ele><time>2026-09-02T18:48:05Z</time></trkpt><trkpt lat="59.5599087887" lon="31.2693423964"><ele>239.51</ele><time>2026-09-02T18:48:06Z</time></trkpt><trkpt lat="59.5599068608" lon="31.2693450786"><ele>239.51</ele><time>2026-09-02T18:48:07Z</time></trkpt><trkpt lat="59.5599068608" lon="31.2693450786"><ele>239.99</ele><time>2026-09-02T18:48:08Z</time></trkpt><trkpt lat="59.5599068608" lon="31.2693450786"><ele>239.99</ele><time>2026-09-02T18:48:09Z</time></trkpt><trkpt lat="59.5599068608" lon="31.2693450786"><ele>239.99</ele><time>2026-09-02T18:48:10Z</time></trkpt><trkpt lat="59.5599068608" lon="31.2693450786"><ele>239.99</ele><time>2026-09-02T18:48:11Z</time></trkpt><trkpt lat="59.5599068608" lon="31.2693450786"><ele>239.99</ele><time>2026-09-02T18:48:12Z</time></trkpt><trkpt lat="59.5599068608" lon="31.2693450786"><ele>239.99</ele><time>2026-09-02T18:48:13Z</time></trkpt><trkpt lat="59.5599068608" lon="31.2693450786"><ele>239.99</ele><time>2026-09-02T18:48:14Z</time></trkpt><trkpt lat="59.5599068608" lon="31.2693450786"><ele>239.99</ele><time>2026-09-02T18:48:15Z</time></trkpt><trkpt lat="59.5599068608" lon="31.2693450786"><ele>239.99</ele><time>2026-09-02T18:48:16Z</time></trkpt><trkpt lat="59.5599068608" lon="31.2693450786"><ele>239.99</ele><time>2026-09-02T18:48:17Z</time></trkpt><trkpt lat="59.5599068608" lon="31.2693450786"><ele>239.99</ele><time>2026-09-02T18:48:18Z</time></trkpt><trkpt lat="59.5599068608" lon="31.2693450786"><ele>239.99</ele><time>2026-09-02T18:48:19Z</time></trkpt><trkpt lat="59.5599068608" lon="31.2693450786"><ele>239.99</ele><time>2026-09-02T18:48:20Z</time></trkpt><trkpt lat="59.5599068608" lon="31.2693450786"><ele>239.99</ele><time>2026-09-02T18:48:21Z</time></trkpt><trkpt lat="59.5599068608" lon="31.2693450786"><ele>239.99</ele><time>2026-09-02T18:48:22Z</time></trkpt><trkpt lat="59.5599068608" lon="31.2693450786"><ele>239.99</ele><time>2026-09-02T18:48:23Z</time></trkpt><trkpt lat="59.5599068608" lon="31.2693450786"><ele>239.99</ele><time>2026-09-02T18:48:24Z</time></trkpt><trkpt lat="59.5599068608" lon="31.2693450786"><ele>239.99</ele><time>2026-09-02T18:48:25Z</time></trkpt><trkpt lat="59.5599068608" lon="31.2693450786"><ele>239.99</ele><time>2026-09-02T18:48:26Z</time></trkpt><trkpt lat="59.5599068608" lon="31.2693450786"><ele>239.99</ele><time>2026-09-02T18:48:27Z</time></trkpt><trkpt lat="59.5599068608" lon="31.2693450786"><ele>239.99</ele><time>2026-09-02T18:48:28Z</time></trkpt><trkpt lat="59.5599068608" lon="31.2693450786"><ele>239.99</ele><time>2026-09-02T18:48:29Z</time></trkpt><trkpt lat="59.5599068608" lon="31.2693450786"><ele>239.99</ele><time>2026-09-02T18:48:30Z</time></trkpt><trkpt lat="59.5599068608" lon="31.2693450786"><ele>239.99</ele><time>2026-09-02T18:48:31Z</time></trkpt><trkpt lat="59.5599068608" lon="31.2693450786"><ele>239.99</ele><time>2026-09-02T18:48:32Z</time></trkpt><trkpt lat="59.5599068608" lon="31.2693450786"><ele>239.99</ele><time>2026-09-02T18:48:33Z</time></trkpt><trkpt lat="59.5599068608" lon="31.2693450786"><ele>239.99</ele><time>2026-09-02T18:48:34Z</time></trkpt><trkpt lat="59.5599068608" lon="31.2693450786"><ele>239.99</ele><time>2026-09-02T18:48:35Z</time></trkpt><trkpt lat="59.5599068608" lon="31.2693450786"><ele>239.99</ele><time>2026-09-02T18:48:36Z</time></trkpt><trkpt lat="59.5599068608" lon="31.2693450786"><ele>239.51</ele><time>2026-09-02T18:48:37Z</time></trkpt><trkpt lat="59.5599068608" lon="31.2693450786"><ele>239.51</ele><time>2026-09-02T18:48:38Z</time></trkpt><trkpt lat="59.5599068608" lon="31.2693450786"><ele>239.51</ele><time>2026-09-02T18:48:39Z</time></trkpt><trkpt lat="59.5599068608" lon="31.2693450786"><ele>239.51</ele><time>2026-09-02T18:48:40Z</time></trkpt><trkpt lat="59.5599068608" lon="31.2693450786"><ele>239.51</ele><time>2026-09-02T18:48:41Z</time></trkpt><trkpt lat="59.5599068608" lon="31.2693450786"><ele>239.51</ele><time>2026-09-02T18:48:42Z</time></trkpt><trkpt lat="59.5599068608" lon="31.2693450786"><ele>239.51</ele><time>2026-09-02T18:48:43Z</time></trkpt><trkpt lat="59.5598159172" lon="31.2693055999"><ele>239.51</ele><time>2026-09-02T18:48:44Z</time></trkpt><trkpt lat="59.5598114748" lon="31.2692990620"><ele>239.99</ele><time>2026-09-02T18:48:45Z</time></trkpt><trkpt lat="59.5598077867" lon="31.2692899257"><ele>239.99</ele><time>2026-09-02T18:48:46Z</time></trkpt><trkpt lat="59.5598053560" lon="31.2692842260"><ele>239.99</ele><time>2026-09-02T18:48:47Z</time></trkpt><trkpt lat="59.5598047692" lon="31.2692807894"><ele>239.99</ele><time>2026-09-02T18:48:48Z</time></trkpt><trkpt lat="59.5598042663" lon="31.2692773528"><ele>239.99</ele><time>2026-09-02T18:48:49Z</time></trkpt><trkpt lat="59.5598042663" lon="31.2692773528"><ele>239.99</ele><time>2026-09-02T18:48:50Z</time></trkpt><trkpt lat="59.5598042663" lon="31.2692773528"><ele>239.99</ele><time>2026-09-02T18:48:51Z</time></trkpt><trkpt lat="59.5598042663" lon="31.2692773528"><ele>239.99</ele><time>2026-09-02T18:48:52Z</time></trkpt><trkpt lat="59.5598042663" lon="31.2692773528"><ele>239.99</ele><time>2026-09-02T18:48:53Z</time></trkpt><trkpt lat="59.5598042663" lon="31.2692773528"><ele>239.99</ele><time>2026-09-02T18:48:54Z</time></trkpt><trkpt lat="59.5598042663" lon="31.2692773528"><ele>239.99</ele><time>2026-09-02T18:48:55Z</time></trkpt><trkpt lat="59.5598042663" lon="31.2692773528"><ele>239.99</ele><time>2026-09-02T18:48:56Z</time></trkpt><trkpt lat="59.5598042663" lon="31.2692773528"><ele>239.99</ele><time>2026-09-02T18:48:57Z</time></trkpt><trkpt lat="59.5598042663" lon="31.2692773528"><ele>239.99</ele><time>2026-09-02T18:48:58Z</time></trkpt><trkpt lat="59.5597950462" lon="31.2692141533"><ele>239.99</ele><time>2026-09-02T18:48:59Z</time></trkpt><trkpt lat="59.5597912744" lon="31.2692044303"><ele>239.99</ele><time>2026-09-02T18:49:00Z</time></trkpt><trkpt lat="59.5597884245" lon="31.2691969704"><ele>239.99</ele><time>2026-09-02T18:49:01Z</time></trkpt><trkpt lat="59.5597888436" lon="31.2691820506"><ele>239.99</ele><time>2026-09-02T18:49:02Z</time></trkpt><trkpt lat="59.5597852394" lon="31.2691724952"><ele>239.99</ele><time>2026-09-02T18:49:03Z</time></trkpt><trkpt lat="59.5597801264" lon="31.2691643648"><ele>239.99</ele><time>2026-09-02T18:49:04Z</time></trkpt><trkpt lat="59.5597762708" lon="31.2691569887"><ele>239.99</ele><time>2026-09-02T18:49:05Z</time></trkpt><trkpt lat="59.5597762708" lon="31.2691569887"><ele>239.99</ele><time>2026-09-02T18:49:06Z</time></trkpt><trkpt lat="59.5597762708" lon="31.2691569887"><ele>239.99</ele><time>2026-09-02T18:49:07Z</time></trkpt><trkpt lat="59.5597762708" lon="31.2691569887"><ele>239.99</ele><time>2026-09-02T18:49:08Z</time></trkpt><trkpt lat="59.5597762708" lon="31.2691569887"><ele>239.99</ele><time>2026-09-02T18:49:09Z</time></trkpt><trkpt lat="59.5597762708" lon="31.2691569887"><ele>239.99</ele><time>2026-09-02T18:49:10Z</time></trkpt><trkpt lat="59.5597762708" lon="31.2691569887"><ele>239.99</ele><time>2026-09-02T18:49:11Z</time></trkpt><trkpt lat="59.5597762708" lon="31.2691569887"><ele>239.99</ele><time>2026-09-02T18:49:12Z</time></trkpt><trkpt lat="59.5597762708" lon="31.2691569887"><ele>239.99</ele><time>2026-09-02T18:49:13Z</time></trkpt><trkpt lat="59.5597762708" lon="31.2691569887"><ele>239.99</ele><time>2026-09-02T18:49:14Z</time></trkpt><trkpt lat="59.5597762708" lon="31.2691569887"><ele>239.99</ele><time>2026-09-02T18:49:15Z</time></trkpt><trkpt lat="59.5597762708" lon="31.2691569887"><ele>239.99</ele><time>2026-09-02T18:49:16Z</time></trkpt><trkpt lat="59.5597762708" lon="31.2691569887"><ele>239.99</ele><time>2026-09-02T18:49:17Z</time></trkpt><trkpt lat="59.5597762708" lon="31.2691569887"><ele>239.99</ele><time>2026-09-02T18:49:18Z</time></trkpt><trkpt lat="59.5597762708" lon="31.2691569887"><ele>239.99</ele><time>2026-09-02T18:49:19Z</time></trkpt><trkpt lat="59.5597762708" lon="31.2691569887"><ele>239.99</ele><time>2026-09-02T18:49:20Z</time></trkpt><trkpt lat="59.5597762708" lon="31.2691569887"><ele>239.99</ele><time>2026-09-02T18:49:21Z</time></trkpt><trkpt lat="59.5597762708" lon="31.2691569887"><ele>239.99</ele><time>2026-09-02T18:49:22Z</time></trkpt><trkpt lat="59.5597762708" lon="31.2691569887"><ele>239.99</ele><time>2026-09-02T18:49:23Z</time></trkpt><trkpt lat="59.5597762708" lon="31.2691569887"><ele>239.99</ele><time>2026-09-02T18:49:24Z</time></trkpt><trkpt lat="59.5597762708" lon="31.2691569887"><ele>239.99</ele><time>2026-09-02T18:49:25Z</time></trkpt><trkpt lat="59.5597762708" lon="31.2691569887"><ele>239.99</ele><time>2026-09-02T18:49:26Z</time></trkpt><trkpt lat="59.5597762708" lon="31.2691569887"><ele>239.99</ele><time>2026-09-02T18:49:27Z</time></trkpt><trkpt lat="59.5597762708" lon="31.2691569887"><ele>239.99</ele><time>2026-09-02T18:49:28Z</time></trkpt><trkpt lat="59.5597762708" lon="31.2691569887"><ele>239.99</ele><time>2026-09-02T18:49:29Z</time></trkpt><trkpt lat="59.5597762708" lon="31.2691569887"><ele>239.99</ele><time>2026-09-02T18:49:30Z</time></trkpt><trkpt lat="59.5597726665" lon="31.2691012491"><ele>239.99</ele><time>2026-09-02T18:49:31Z</time></trkpt><trkpt lat="59.5597745944" lon="31.2690970581"><ele>239.99</ele><time>2026-09-02T18:49:32Z</time></trkpt><trkpt lat="59.5597762708" lon="31.2690955494"><ele>239.99</ele><time>2026-09-02T18:49:33Z</time></trkpt><trkpt lat="59.5597789530" lon="31.2690954655"><ele>239.99</ele><time>2026-09-02T18:49:34Z</time></trkpt><trkpt lat="59.5597789530" lon="31.2690954655"><ele>239.99</ele><time>2026-09-02T18:49:35Z</time></trkpt><trkpt lat="59.5597789530" lon="31.2690954655"><ele>239.99</ele><time>2026-09-02T18:49:36Z</time></trkpt><trkpt lat="59.5597789530" lon="31.2690954655"><ele>239.99</ele><time>2026-09-02T18:49:37Z</time></trkpt><trkpt lat="59.5597789530" lon="31.2690954655"><ele>239.99</ele><time>2026-09-02T18:49:38Z</time></trkpt><trkpt lat="59.5597789530" lon="31.2690954655"><ele>239.99</ele><time>2026-09-02T18:49:39Z</time></trkpt><trkpt lat="59.5597789530" lon="31.2690954655"><ele>239.99</ele><time>2026-09-02T18:49:40Z</time></trkpt><trkpt lat="59.5597789530" lon="31.2690954655"><ele>239.99</ele><time>2026-09-02T18:49:41Z</time></trkpt><trkpt lat="59.5597789530" lon="31.2690954655"><ele>239.99</ele><time>2026-09-02T18:49:42Z</time></trkpt><trkpt lat="59.5597789530" lon="31.2690954655"><ele>239.99</ele><time>2026-09-02T18:49:43Z</time></trkpt><trkpt lat="59.5597789530" lon="31.2690954655"><ele>239.99</ele><time>2026-09-02T18:49:44Z</time></trkpt><trkpt lat="59.5597789530" lon="31.2690954655"><ele>239.99</ele><time>2026-09-02T18:49:45Z</time></trkpt><trkpt lat="59.5597789530" lon="31.2690954655"><ele>239.99</ele><time>2026-09-02T18:49:46Z</time></trkpt><trkpt lat="59.5597789530" lon="31.2690954655"><ele>239.99</ele><time>2026-09-02T18:49:47Z</time></trkpt><trkpt lat="59.5597789530" lon="31.2690954655"><ele>239.99</ele><time>2026-09-02T18:49:48Z</time></trkpt><trkpt lat="59.5597789530" lon="31.2690954655"><ele>239.99</ele><time>2026-09-02T18:49:49Z</time></trkpt><trkpt lat="59.5597789530" lon="31.2690954655"><ele>239.99</ele><time>2026-09-02T18:49:50Z</time></trkpt><trkpt lat="59.5597789530" lon="31.2690954655"><ele>239.99</ele><time>2026-09-02T18:49:51Z</time></trkpt><trkpt lat="59.5597789530" lon="31.2690954655"><ele>239.99</ele><time>2026-09-02T18:49:52Z</time></trkpt><trkpt lat="59.5597789530" lon="31.2690954655"><ele>239.99</ele><time>2026-09-02T18:49:53Z</time></trkpt><trkpt lat="59.5597789530" lon="31.2690954655"><ele>239.99</ele><time>2026-09-02T18:49:54Z</time></trkpt><trkpt lat="59.5597789530" lon="31.2690954655"><ele>239.99</ele><time>2026-09-02T18:49:55Z</time></trkpt><trkpt lat="59.5597789530" lon="31.2690954655"><ele>239.99</ele><time>2026-09-02T18:49:56Z</time></trkpt><trkpt lat="59.5597789530" lon="31.2690954655"><ele>239.99</ele><time>2026-09-02T18:49:57Z</time></trkpt><trkpt lat="59.5597789530" lon="31.2690954655"><ele>239.99</ele><time>2026-09-02T18:49:58Z</time></trkpt><trkpt lat="59.5597789530" lon="31.2690954655"><ele>239.99</ele><time>2026-09-02T18:49:59Z</time></trkpt><trkpt lat="59.5597789530" lon="31.2690954655"><ele>239.99</ele><time>2026-09-02T18:50:00Z</time></trkpt><trkpt lat="59.5597789530" lon="31.2690954655"><ele>239.99</ele><time>2026-09-02T18:50:01Z</time></trkpt><trkpt lat="59.5597789530" lon="31.2690954655"><ele>239.99</ele><time>2026-09-02T18:50:02Z</time></trkpt><trkpt lat="59.5597789530" lon="31.2690954655"><ele>239.99</ele><time>2026-09-02T18:50:03Z</time></trkpt><trkpt lat="59.5597789530" lon="31.2690954655"><ele>239.99</ele><time>2026-09-02T18:50:04Z</time></trkpt><trkpt lat="59.5597789530" lon="31.2690954655"><ele>239.99</ele><time>2026-09-02T18:50:05Z</time></trkpt><trkpt lat="59.5597789530" lon="31.2690954655"><ele>239.99</ele><time>2026-09-02T18:50:06Z</time></trkpt><trkpt lat="59.5597808808" lon="31.2691266462"><ele>239.99</ele><time>2026-09-02T18:50:07Z</time></trkpt><trkpt lat="59.5597809646" lon="31.2691308372"><ele>239.99</ele><time>2026-09-02T18:50:08Z</time></trkpt><trkpt lat="59.5597809646" lon="31.2691366207"><ele>239.99</ele><time>2026-09-02T18:50:09Z</time></trkpt><trkpt lat="59.5597812999" lon="31.2691427395"><ele>239.99</ele><time>2026-09-02T18:50:10Z</time></trkpt><trkpt lat="59.5597812999" lon="31.2691427395"><ele>239.99</ele><time>2026-09-02T18:50:11Z</time></trkpt><trkpt lat="59.5597808808" lon="31.2691629399"><ele>239.99</ele><time>2026-09-02T18:50:12Z</time></trkpt><trkpt lat="59.5597813837" lon="31.2691690587"><ele>239.99</ele><time>2026-09-02T18:50:13Z</time></trkpt><trkpt lat="59.5597814675" lon="31.2691769376"><ele>239.99</ele><time>2026-09-02T18:50:14Z</time></trkpt><trkpt lat="59.5597833954" lon="31.2691832241"><ele>239.99</ele><time>2026-09-02T18:50:15Z</time></trkpt><trkpt lat="59.5597833954" lon="31.2691832241"><ele>239.99</ele><time>2026-09-02T18:50:16Z</time></trkpt><trkpt lat="59.5597833954" lon="31.2691832241"><ele>239.99</ele><time>2026-09-02T18:50:17Z</time></trkpt><trkpt lat="59.5597833954" lon="31.2691832241"><ele>239.99</ele><time>2026-09-02T18:50:18Z</time></trkpt><trkpt lat="59.5597833954" lon="31.2691832241"><ele>239.99</ele><time>2026-09-02T18:50:19Z</time></trkpt><trkpt lat="59.5597833954" lon="31.2691832241"><ele>239.99</ele><time>2026-09-02T18:50:20Z</time></trkpt><trkpt lat="59.5597835630" lon="31.2692123931"><ele>239.99</ele><time>2026-09-02T18:50:21Z</time></trkpt><trkpt lat="59.5597868320" lon="31.2692184281"><ele>239.99</ele><time>2026-09-02T18:50:22Z</time></trkpt><trkpt lat="59.5597864967" lon="31.2692237925"><ele>239.99</ele><time>2026-09-02T18:50:23Z</time></trkpt><trkpt lat="59.5597838983" lon="31.2692296598"><ele>239.99</ele><time>2026-09-02T18:50:24Z</time></trkpt><trkpt lat="59.5597860776" lon="31.2692350242"><ele>239.99</ele><time>2026-09-02T18:50:25Z</time></trkpt><trkpt lat="59.5597860776" lon="31.2692350242"><ele>239.99</ele><time>2026-09-02T18:50:26Z</time></trkpt><trkpt lat="59.5597860776" lon="31.2692350242"><ele>239.99</ele><time>2026-09-02T18:50:27Z</time></trkpt><trkpt lat="59.5597860776" lon="31.2692350242"><ele>239.99</ele><time>2026-09-02T18:50:28Z</time></trkpt><trkpt lat="59.5597860776" lon="31.2692350242"><ele>239.99</ele><time>2026-09-02T18:50:29Z</time></trkpt><trkpt lat="59.5597860776" lon="31.2692350242"><ele>239.99</ele><time>2026-09-02T18:50:30Z</time></trkpt><trkpt lat="59.5597860776" lon="31.2692350242"><ele>239.99</ele><time>2026-09-02T18:50:31Z</time></trkpt><trkpt lat="59.5597860776" lon="31.2692350242"><ele>239.99</ele><time>2026-09-02T18:50:32Z</time></trkpt><trkpt lat="59.5597860776" lon="31.2692350242"><ele>239.99</ele><time>2026-09-02T18:50:33Z</time></trkpt><trkpt lat="59.5598033443" lon="31.2693293206"><ele>239.99</ele><time>2026-09-02T18:50:34Z</time></trkpt><trkpt lat="59.5598085411" lon="31.2693383731"><ele>239.99</ele><time>2026-09-02T18:50:35Z</time></trkpt><trkpt lat="59.5598110557" lon="31.2693441566"><ele>239.99</ele><time>2026-09-02T18:50:36Z</time></trkpt><trkpt lat="59.5598159172" lon="31.2693509459"><ele>239.99</ele><time>2026-09-02T18:50:37Z</time></trkpt><trkpt lat="59.5598222874" lon="31.2693572324"><ele>239.99</ele><time>2026-09-02T18:50:38Z</time></trkpt><trkpt lat="59.5598222874" lon="31.2693572324"><ele>239.99</ele><time>2026-09-02T18:50:39Z</time></trkpt><trkpt lat="59.5598222874" lon="31.2693572324"><ele>239.99</ele><time>2026-09-02T18:50:40Z</time></trkpt><trkpt lat="59.5598222874" lon="31.2693572324"><ele>239.99</ele><time>2026-09-02T18:50:41Z</time></trkpt><trkpt lat="59.5598222874" lon="31.2693572324"><ele>239.99</ele><time>2026-09-02T18:50:42Z</time></trkpt><trkpt lat="59.5598222874" lon="31.2693572324"><ele>239.99</ele><time>2026-09-02T18:50:43Z</time></trkpt><trkpt lat="59.5598222874" lon="31.2693572324"><ele>239.99</ele><time>2026-09-02T18:50:44Z</time></trkpt><trkpt lat="59.5598222874" lon="31.2693572324"><ele>239.99</ele><time>2026-09-02T18:50:45Z</time></trkpt><trkpt lat="59.5598222874" lon="31.2693572324"><ele>239.99</ele><time>2026-09-02T18:50:46Z</time></trkpt><trkpt lat="59.5598222874" lon="31.2693572324"><ele>239.99</ele><time>2026-09-02T18:50:47Z</time></trkpt><trkpt lat="59.5598222874" lon="31.2693572324"><ele>239.99</ele><time>2026-09-02T18:50:48Z</time></trkpt><trkpt lat="59.5598222874" lon="31.2693572324"><ele>239.99</ele><time>2026-09-02T18:50:49Z</time></trkpt><trkpt lat="59.5598222874" lon="31.2693572324"><ele>239.99</ele><time>2026-09-02T18:50:50Z</time></trkpt><trkpt lat="59.5598502830" lon="31.2693833839"><ele>239.99</ele><time>2026-09-02T18:50:51Z</time></trkpt><trkpt lat="59.5598549768" lon="31.2693936937"><ele>239.99</ele><time>2026-09-02T18:50:52Z</time></trkpt><trkpt lat="59.5598568209" lon="31.2694023270"><ele>239.99</ele><time>2026-09-02T18:50:53Z</time></trkpt><trkpt lat="59.5598574914" lon="31.2694096193"><ele>239.99</ele><time>2026-09-02T18:50:54Z</time></trkpt><trkpt lat="59.5598610956" lon="31.2694151513"><ele>239.99</ele><time>2026-09-02T18:50:55Z</time></trkpt><trkpt lat="59.5598621853" lon="31.2694258802"><ele>239.99</ele><time>2026-09-02T18:50:56Z</time></trkpt><trkpt lat="59.5598604251" lon="31.2694404647"><ele>239.99</ele><time>2026-09-02T18:50:57Z</time></trkpt><trkpt lat="59.5598572399" lon="31.2694499362"><ele>240.47</ele><time>2026-09-02T18:50:58Z</time></trkpt><trkpt lat="59.5598552283" lon="31.2694573961"><ele>240.47</ele><time>2026-09-02T18:50:59Z</time></trkpt><trkpt lat="59.5598549768" lon="31.2694664486"><ele>240.47</ele><time>2026-09-02T18:51:00Z</time></trkpt><trkpt lat="59.5598519593" lon="31.2694747467"><ele>240.47</ele><time>2026-09-02T18:51:01Z</time></trkpt><trkpt lat="59.5598519593" lon="31.2694747467"><ele>240.47</ele><time>2026-09-02T18:51:02Z</time></trkpt><trkpt lat="59.5598519593" lon="31.2694747467"><ele>240.47</ele><time>2026-09-02T18:51:03Z</time></trkpt><trkpt lat="59.5598519593" lon="31.2694747467"><ele>240.47</ele><time>2026-09-02T18:51:04Z</time></trkpt><trkpt lat="59.5598567370" lon="31.2695112918"><ele>240.47</ele><time>2026-09-02T18:51:05Z</time></trkpt><trkpt lat="59.5598556474" lon="31.2695216853"><ele>240.47</ele><time>2026-09-02T18:51:06Z</time></trkpt><trkpt lat="59.5598595869" lon="31.2695315760"><ele>239.99</ele><time>2026-09-02T18:51:07Z</time></trkpt><trkpt lat="59.5598610956" lon="31.2695396226"><ele>239.99</ele><time>2026-09-02T18:51:08Z</time></trkpt><trkpt lat="59.5598596707" lon="31.2695445679"><ele>239.99</ele><time>2026-09-02T18:51:09Z</time></trkpt><trkpt lat="59.5598588325" lon="31.2695505191"><ele>239.99</ele><time>2026-09-02T18:51:10Z</time></trkpt><trkpt lat="59.5598588325" lon="31.2695505191"><ele>239.99</ele><time>2026-09-02T18:51:11Z</time></trkpt><trkpt lat="59.5598588325" lon="31.2695505191"><ele>239.99</ele><time>2026-09-02T18:51:12Z</time></trkpt><trkpt lat="59.5598588325" lon="31.2695505191"><ele>239.99</ele><time>2026-09-02T18:51:13Z</time></trkpt><trkpt lat="59.5598588325" lon="31.2695505191"><ele>239.99</ele><time>2026-09-02T18:51:14Z</time></trkpt><trkpt lat="59.5598513726" lon="31.2695745751"><ele>239.99</ele><time>2026-09-02T18:51:15Z</time></trkpt><trkpt lat="59.5598491933" lon="31.2695811968"><ele>239.99</ele><time>2026-09-02T18:51:16Z</time></trkpt><trkpt lat="59.5598508697" lon="31.2695857231"><ele>239.99</ele><time>2026-09-02T18:51:17Z</time></trkpt><trkpt lat="59.5598510373" lon="31.2695906684"><ele>239.99</ele><time>2026-09-02T18:51:18Z</time></trkpt><trkpt lat="59.5598510373" lon="31.2695906684"><ele>239.99</ele><time>2026-09-02T18:51:19Z</time></trkpt><trkpt lat="59.5598510373" lon="31.2695906684"><ele>239.99</ele><time>2026-09-02T18:51:20Z</time></trkpt><trkpt lat="59.5598510373" lon="31.2695906684"><ele>239.99</ele><time>2026-09-02T18:51:21Z</time></trkpt><trkpt lat="59.5598510373" lon="31.2695906684"><ele>240.47</ele><time>2026-09-02T18:51:22Z</time></trkpt><trkpt lat="59.5598510373" lon="31.2695906684"><ele>240.47</ele><time>2026-09-02T18:51:23Z</time></trkpt><trkpt lat="59.5598510373" lon="31.2695906684"><ele>240.95</ele><time>2026-09-02T18:51:24Z</time></trkpt><trkpt lat="59.5598510373" lon="31.2695906684"><ele>240.95</ele><time>2026-09-02T18:51:25Z</time></trkpt><trkpt lat="59.5598510373" lon="31.2695906684"><ele>240.95</ele><time>2026-09-02T18:51:26Z</time></trkpt><trkpt lat="59.5598510373" lon="31.2695906684"><ele>240.95</ele><time>2026-09-02T18:51:27Z</time></trkpt><trkpt lat="59.5598229580" lon="31.2696323264"><ele>240.95</ele><time>2026-09-02T18:51:28Z</time></trkpt><trkpt lat="59.5598181803" lon="31.2696404569"><ele>240.95</ele><time>2026-09-02T18:51:29Z</time></trkpt><trkpt lat="59.5598155819" lon="31.2696515210"><ele>240.95</ele><time>2026-09-02T18:51:30Z</time></trkpt><trkpt lat="59.5598101337" lon="31.2696537841"><ele>240.95</ele><time>2026-09-02T18:51:31Z</time></trkpt><trkpt lat="59.5598043501" lon="31.2696557958"><ele>240.95</ele><time>2026-09-02T18:51:32Z</time></trkpt><trkpt lat="59.5597982313" lon="31.2696563825"><ele>240.95</ele><time>2026-09-02T18:51:33Z</time></trkpt><trkpt lat="59.5597924478" lon="31.2696586456"><ele>240.95</ele><time>2026-09-02T18:51:34Z</time></trkpt><trkpt lat="59.5597875863" lon="31.2696570531"><ele>240.95</ele><time>2026-09-02T18:51:35Z</time></trkpt><trkpt lat="59.5597794559" lon="31.2696581427"><ele>240.47</ele><time>2026-09-02T18:51:36Z</time></trkpt><trkpt lat="59.5597794559" lon="31.2696583942"><ele>240.47</ele><time>2026-09-02T18:51:37Z</time></trkpt><trkpt lat="59.5597718284" lon="31.2696599867"><ele>240.47</ele><time>2026-09-02T18:51:38Z</time></trkpt><trkpt lat="59.5597676374" lon="31.2696626689"><ele>240.47</ele><time>2026-09-02T18:51:39Z</time></trkpt><trkpt lat="59.5597649552" lon="31.2696681172"><ele>240.47</ele><time>2026-09-02T18:51:40Z</time></trkpt><trkpt lat="59.5597650390" lon="31.2696719728"><ele>240.47</ele><time>2026-09-02T18:51:41Z</time></trkpt><trkpt lat="59.5597654581" lon="31.2696749903"><ele>240.47</ele><time>2026-09-02T18:51:42Z</time></trkpt><trkpt lat="59.5597674698" lon="31.2696769182"><ele>240.47</ele><time>2026-09-02T18:51:43Z</time></trkpt><trkpt lat="59.5597674698" lon="31.2696769182"><ele>240.47</ele><time>2026-09-02T18:51:44Z</time></trkpt><trkpt lat="59.5597674698" lon="31.2696769182"><ele>240.47</ele><time>2026-09-02T18:51:45Z</time></trkpt><trkpt lat="59.5597674698" lon="31.2696769182"><ele>240.47</ele><time>2026-09-02T18:51:46Z</time></trkpt><trkpt lat="59.5597674698" lon="31.2696769182"><ele>240.47</ele><time>2026-09-02T18:51:47Z</time></trkpt><trkpt lat="59.5597674698" lon="31.2696769182"><ele>240.47</ele><time>2026-09-02T18:51:48Z</time></trkpt><trkpt lat="59.5597674698" lon="31.2696769182"><ele>240.47</ele><time>2026-09-02T18:51:49Z</time></trkpt><trkpt lat="59.5597674698" lon="31.2696769182"><ele>240.47</ele><time>2026-09-02T18:51:50Z</time></trkpt><trkpt lat="59.5597674698" lon="31.2696769182"><ele>240.47</ele><time>2026-09-02T18:51:51Z</time></trkpt><trkpt lat="59.5597674698" lon="31.2696769182"><ele>240.47</ele><time>2026-09-02T18:51:52Z</time></trkpt><trkpt lat="59.5597674698" lon="31.2696769182"><ele>240.47</ele><time>2026-09-02T18:51:53Z</time></trkpt><trkpt lat="59.5597674698" lon="31.2696769182"><ele>240.47</ele><time>2026-09-02T18:51:54Z</time></trkpt><trkpt lat="59.5597674698" lon="31.2696769182"><ele>240.47</ele><time>2026-09-02T18:51:55Z</time></trkpt><trkpt lat="59.5597674698" lon="31.2696769182"><ele>240.47</ele><time>2026-09-02T18:51:56Z</time></trkpt><trkpt lat="59.5597674698" lon="31.2696769182"><ele>240.47</ele><time>2026-09-02T18:51:57Z</time></trkpt><trkpt lat="59.5597674698" lon="31.2696769182"><ele>240.47</ele><time>2026-09-02T18:51:58Z</time></trkpt><trkpt lat="59.5597674698" lon="31.2696769182"><ele>240.47</ele><time>2026-09-02T18:51:59Z</time></trkpt><trkpt lat="59.5597674698" lon="31.2696769182"><ele>240.47</ele><time>2026-09-02T18:52:00Z</time></trkpt><trkpt lat="59.5597301703" lon="31.2697144691"><ele>240.47</ele><time>2026-09-02T18:52:01Z</time></trkpt><trkpt lat="59.5597266499" lon="31.2697198335"><ele>240.47</ele><time>2026-09-02T18:52:02Z</time></trkpt><trkpt lat="59.5597254764" lon="31.2697209232"><ele>240.47</ele><time>2026-09-02T18:52:03Z</time></trkpt><trkpt lat="59.5597234648" lon="31.2697274610"><ele>240.47</ele><time>2026-09-02T18:52:04Z</time></trkpt><trkpt lat="59.5597238839" lon="31.2697345857"><ele>240.47</ele><time>2026-09-02T18:52:05Z</time></trkpt><trkpt lat="59.5597238839" lon="31.2697345857"><ele>240.47</ele><time>2026-09-02T18:52:06Z</time></trkpt><trkpt lat="59.5597238839" lon="31.2697345857"><ele>240.47</ele><time>2026-09-02T18:52:07Z</time></trkpt><trkpt lat="59.5597238839" lon="31.2697345857"><ele>240.47</ele><time>2026-09-02T18:52:08Z</time></trkpt><trkpt lat="59.5597201958" lon="31.2697560433"><ele>240.47</ele><time>2026-09-02T18:52:09Z</time></trkpt><trkpt lat="59.5597178489" lon="31.2697661854"><ele>240.47</ele><time>2026-09-02T18:52:10Z</time></trkpt><trkpt lat="59.5597161725" lon="31.2697732262"><ele>240.47</ele><time>2026-09-02T18:52:11Z</time></trkpt><trkpt lat="59.5597132389" lon="31.2697755732"><ele>240.47</ele><time>2026-09-02T18:52:12Z</time></trkpt><trkpt lat="59.5597104728" lon="31.2697824463"><ele>240.47</ele><time>2026-09-02T18:52:13Z</time></trkpt><trkpt lat="59.5597048569" lon="31.2697870564"><ele>240.47</ele><time>2026-09-02T18:52:14Z</time></trkpt><trkpt lat="59.5597009175" lon="31.2697966956"><ele>240.47</ele><time>2026-09-02T18:52:15Z</time></trkpt><trkpt lat="59.5596960559" lon="31.2698031496"><ele>240.47</ele><time>2026-09-02T18:52:16Z</time></trkpt><trkpt lat="59.5596897695" lon="31.2698114477"><ele>240.47</ele><time>2026-09-02T18:52:17Z</time></trkpt><trkpt lat="59.5596853271" lon="31.2698146328"><ele>240.47</ele><time>2026-09-02T18:52:18Z</time></trkpt><trkpt lat="59.5596796274" lon="31.2698180694"><ele>240.47</ele><time>2026-09-02T18:52:19Z</time></trkpt><trkpt lat="59.5596735924" lon="31.2698196620"><ele>240.47</ele><time>2026-09-02T18:52:20Z</time></trkpt><trkpt lat="59.5596671384" lon="31.2698217575"><ele>239.99</ele><time>2026-09-02T18:52:21Z</time></trkpt><trkpt lat="59.5596593432" lon="31.2698253617"><ele>239.99</ele><time>2026-09-02T18:52:22Z</time></trkpt><trkpt lat="59.5596509613" lon="31.2698317319"><ele>239.99</ele><time>2026-09-02T18:52:23Z</time></trkpt><trkpt lat="59.5596414898" lon="31.2698440533"><ele>239.99</ele><time>2026-09-02T18:52:24Z</time></trkpt><trkpt lat="59.5596335270" lon="31.2698536925"><ele>239.99</ele><time>2026-09-02T18:52:25Z</time></trkpt><trkpt lat="59.5596263185" lon="31.2698588893"><ele>239.99</ele><time>2026-09-02T18:52:26Z</time></trkpt><trkpt lat="59.5596186910" lon="31.2698673550"><ele>239.99</ele><time>2026-09-02T18:52:27Z</time></trkpt><trkpt lat="59.5596129913" lon="31.2698743958"><ele>239.99</ele><time>2026-09-02T18:52:28Z</time></trkpt><trkpt lat="59.5596043579" lon="31.2698885612"><ele>239.99</ele><time>2026-09-02T18:52:29Z</time></trkpt><trkpt lat="59.5596000832" lon="31.2699002959"><ele>239.99</ele><time>2026-09-02T18:52:30Z</time></trkpt><trkpt lat="59.5595950540" lon="31.2699088454"><ele>239.51</ele><time>2026-09-02T18:52:31Z</time></trkpt><trkpt lat="59.5595893543" lon="31.2699147966"><ele>239.51</ele><time>2026-09-02T18:52:32Z</time></trkpt><trkpt lat="59.5595844928" lon="31.2699181493"><ele>239.51</ele><time>2026-09-02T18:52:33Z</time></trkpt><trkpt lat="59.5595808886" lon="31.2699205801"><ele>239.51</ele><time>2026-09-02T18:52:34Z</time></trkpt><trkpt lat="59.5595757756" lon="31.2699263636"><ele>239.51</ele><time>2026-09-02T18:52:35Z</time></trkpt><trkpt lat="59.5595757756" lon="31.2699263636"><ele>239.51</ele><time>2026-09-02T18:52:36Z</time></trkpt><trkpt lat="59.5595757756" lon="31.2699263636"><ele>239.02</ele><time>2026-09-02T18:52:37Z</time></trkpt><trkpt lat="59.5595757756" lon="31.2699263636"><ele>239.02</ele><time>2026-09-02T18:52:38Z</time></trkpt><trkpt lat="59.5595757756" lon="31.2699263636"><ele>239.02</ele><time>2026-09-02T18:52:39Z</time></trkpt><trkpt lat="59.5595757756" lon="31.2699263636"><ele>239.02</ele><time>2026-09-02T18:52:40Z</time></trkpt><trkpt lat="59.5595757756" lon="31.2699263636"><ele>239.02</ele><time>2026-09-02T18:52:41Z</time></trkpt><trkpt lat="59.5595757756" lon="31.2699263636"><ele>239.02</ele><time>2026-09-02T18:52:42Z</time></trkpt><trkpt lat="59.5595757756" lon="31.2699263636"><ele>239.02</ele><time>2026-09-02T18:52:43Z</time></trkpt><trkpt lat="59.5595757756" lon="31.2699263636"><ele>239.02</ele><time>2026-09-02T18:52:44Z</time></trkpt><trkpt lat="59.5595757756" lon="31.2699263636"><ele>239.02</ele><time>2026-09-02T18:52:45Z</time></trkpt><trkpt lat="59.5595757756" lon="31.2699263636"><ele>239.02</ele><time>2026-09-02T18:52:46Z</time></trkpt><trkpt lat="59.5595757756" lon="31.2699263636"><ele>239.02</ele><time>2026-09-02T18:52:47Z</time></trkpt><trkpt lat="59.5595757756" lon="31.2699263636"><ele>239.02</ele><time>2026-09-02T18:52:48Z</time></trkpt><trkpt lat="59.5595757756" lon="31.2699263636"><ele>239.02</ele><time>2026-09-02T18:52:49Z</time></trkpt><trkpt lat="59.5595757756" lon="31.2699263636"><ele>239.02</ele><time>2026-09-02T18:52:50Z</time></trkpt><trkpt lat="59.5595757756" lon="31.2699263636"><ele>239.02</ele><time>2026-09-02T18:52:51Z</time></trkpt><trkpt lat="59.5595757756" lon="31.2699263636"><ele>239.02</ele><time>2026-09-02T18:52:52Z</time></trkpt><trkpt lat="59.5595757756" lon="31.2699263636"><ele>239.02</ele><time>2026-09-02T18:52:53Z</time></trkpt><trkpt lat="59.5595757756" lon="31.2699263636"><ele>239.02</ele><time>2026-09-02T18:52:54Z</time></trkpt><trkpt lat="59.5595757756" lon="31.2699263636"><ele>239.02</ele><time>2026-09-02T18:52:55Z</time></trkpt><trkpt lat="59.5595757756" lon="31.2699263636"><ele>239.02</ele><time>2026-09-02T18:52:56Z</time></trkpt><trkpt lat="59.5595757756" lon="31.2699263636"><ele>239.02</ele><time>2026-09-02T18:52:57Z</time></trkpt><trkpt lat="59.5595757756" lon="31.2699263636"><ele>239.02</ele><time>2026-09-02T18:52:58Z</time></trkpt><trkpt lat="59.5595757756" lon="31.2699263636"><ele>239.02</ele><time>2026-09-02T18:52:59Z</time></trkpt><trkpt lat="59.5595757756" lon="31.2699263636"><ele>239.02</ele><time>2026-09-02T18:53:00Z</time></trkpt><trkpt lat="59.5595757756" lon="31.2699263636"><ele>239.02</ele><time>2026-09-02T18:53:01Z</time></trkpt><trkpt lat="59.5595757756" lon="31.2699263636"><ele>239.02</ele><time>2026-09-02T18:53:02Z</time></trkpt><trkpt lat="59.5595757756" lon="31.2699263636"><ele>239.02</ele><time>2026-09-02T18:53:03Z</time></trkpt><trkpt lat="59.5595757756" lon="31.2699263636"><ele>239.02</ele><time>2026-09-02T18:53:04Z</time></trkpt><trkpt lat="59.5595757756" lon="31.2699263636"><ele>239.02</ele><time>2026-09-02T18:53:05Z</time></trkpt><trkpt lat="59.5595757756" lon="31.2699263636"><ele>239.02</ele><time>2026-09-02T18:53:06Z</time></trkpt><trkpt lat="59.5595757756" lon="31.2699263636"><ele>239.02</ele><time>2026-09-02T18:53:07Z</time></trkpt><trkpt lat="59.5595757756" lon="31.2699263636"><ele>239.02</ele><time>2026-09-02T18:53:08Z</time></trkpt><trkpt lat="59.5595757756" lon="31.2699263636"><ele>239.02</ele><time>2026-09-02T18:53:09Z</time></trkpt><trkpt lat="59.5595757756" lon="31.2699263636"><ele>239.02</ele><time>2026-09-02T18:53:10Z</time></trkpt><trkpt lat="59.5595757756" lon="31.2699263636"><ele>239.02</ele><time>2026-09-02T18:53:11Z</time></trkpt><trkpt lat="59.5595757756" lon="31.2699263636"><ele>239.02</ele><time>2026-09-02T18:53:12Z</time></trkpt><trkpt lat="59.5595757756" lon="31.2699263636"><ele>239.02</ele><time>2026-09-02T18:53:13Z</time></trkpt><trkpt lat="59.5595757756" lon="31.2699263636"><ele>239.02</ele><time>2026-09-02T18:53:14Z</time></trkpt><trkpt lat="59.5595757756" lon="31.2699263636"><ele>239.02</ele><time>2026-09-02T18:53:15Z</time></trkpt><trkpt lat="59.5595757756" lon="31.2699263636"><ele>239.02</ele><time>2026-09-02T18:53:16Z</time></trkpt><trkpt lat="59.5595757756" lon="31.2699263636"><ele>239.02</ele><time>2026-09-02T18:53:17Z</time></trkpt><trkpt lat="59.5595757756" lon="31.2699263636"><ele>239.02</ele><time>2026-09-02T18:53:18Z</time></trkpt><trkpt lat="59.5595757756" lon="31.2699263636"><ele>239.02</ele><time>2026-09-02T18:53:19Z</time></trkpt><trkpt lat="59.5595757756" lon="31.2699263636"><ele>239.02</ele><time>2026-09-02T18:53:20Z</time></trkpt><trkpt lat="59.5595757756" lon="31.2699263636"><ele>239.02</ele><time>2026-09-02T18:53:21Z</time></trkpt><trkpt lat="59.5595757756" lon="31.2699263636"><ele>239.02</ele><time>2026-09-02T18:53:22Z</time></trkpt><trkpt lat="59.5595757756" lon="31.2699263636"><ele>239.02</ele><time>2026-09-02T18:53:23Z</time></trkpt><trkpt lat="59.5595757756" lon="31.2699263636"><ele>239.02</ele><time>2026-09-02T18:53:24Z</time></trkpt><trkpt lat="59.5595757756" lon="31.2699263636"><ele>239.02</ele><time>2026-09-02T18:53:25Z</time></trkpt><trkpt lat="59.5595757756" lon="31.2699263636"><ele>239.02</ele><time>2026-09-02T18:53:26Z</time></trkpt><trkpt lat="59.5595757756" lon="31.2699263636"><ele>239.02</ele><time>2026-09-02T18:53:27Z</time></trkpt><trkpt lat="59.5595757756" lon="31.2699263636"><ele>239.02</ele><time>2026-09-02T18:53:28Z</time></trkpt><trkpt lat="59.5595757756" lon="31.2699263636"><ele>239.02</ele><time>2026-09-02T18:53:29Z</time></trkpt><trkpt lat="59.5595757756" lon="31.2699263636"><ele>239.02</ele><time>2026-09-02T18:53:30Z</time></trkpt><trkpt lat="59.5595757756" lon="31.2699263636"><ele>239.02</ele><time>2026-09-02T18:53:31Z</time></trkpt><trkpt lat="59.5595757756" lon="31.2699263636"><ele>239.02</ele><time>2026-09-02T18:53:32Z</time></trkpt><trkpt lat="59.5595757756" lon="31.2699263636"><ele>239.02</ele><time>2026-09-02T18:53:33Z</time></trkpt><trkpt lat="59.5595757756" lon="31.2699263636"><ele>239.02</ele><time>2026-09-02T18:53:34Z</time></trkpt><trkpt lat="59.5595757756" lon="31.2699263636"><ele>239.02</ele><time>2026-09-02T18:53:35Z</time></trkpt><trkpt lat="59.5595757756" lon="31.2699263636"><ele>239.02</ele><time>2026-09-02T18:53:36Z</time></trkpt><trkpt lat="59.5595757756" lon="31.2699263636"><ele>239.02</ele><time>2026-09-02T18:53:37Z</time></trkpt><trkpt lat="59.5595757756" lon="31.2699263636"><ele>239.02</ele><time>2026-09-02T18:53:38Z</time></trkpt><trkpt lat="59.5595757756" lon="31.2699263636"><ele>239.02</ele><time>2026-09-02T18:53:39Z</time></trkpt><trkpt lat="59.5595757756" lon="31.2699263636"><ele>239.02</ele><time>2026-09-02T18:53:40Z</time></trkpt><trkpt lat="59.5595757756" lon="31.2699263636"><ele>239.02</ele><time>2026-09-02T18:53:41Z</time></trkpt><trkpt lat="59.5595757756" lon="31.2699263636"><ele>239.02</ele><time>2026-09-02T18:53:42Z</time></trkpt><trkpt lat="59.5595757756" lon="31.2699263636"><ele>239.02</ele><time>2026-09-02T18:53:43Z</time></trkpt><trkpt lat="59.5595757756" lon="31.2699263636"><ele>239.02</ele><time>2026-09-02T18:53:44Z</time></trkpt><trkpt lat="59.5595405716" lon="31.2699480727"><ele>239.02</ele><time>2026-09-02T18:53:45Z</time></trkpt><trkpt lat="59.5595319383" lon="31.2699498329"><ele>239.02</ele><time>2026-09-02T18:53:46Z</time></trkpt><trkpt lat="59.5595280826" lon="31.2699563708"><ele>239.02</ele><time>2026-09-02T18:53:47Z</time></trkpt><trkpt lat="59.5595255680" lon="31.2699659262"><ele>239.02</ele><time>2026-09-02T18:53:48Z</time></trkpt><trkpt lat="59.5595236402" lon="31.2699777447"><ele>239.02</ele><time>2026-09-02T18:53:49Z</time></trkpt><trkpt lat="59.5595231373" lon="31.2699930836"><ele>239.02</ele><time>2026-09-02T18:53:50Z</time></trkpt><trkpt lat="59.5595226344" lon="31.2700101826"><ele>239.02</ele><time>2026-09-02T18:53:51Z</time></trkpt><trkpt lat="59.5595220476" lon="31.2700257730"><ele>239.02</ele><time>2026-09-02T18:53:52Z</time></trkpt><trkpt lat="59.5595199522" lon="31.2700416986"><ele>238.54</ele><time>2026-09-02T18:53:53Z</time></trkpt><trkpt lat="59.5595181920" lon="31.2700572889"><ele>238.54</ele><time>2026-09-02T18:53:54Z</time></trkpt><trkpt lat="59.5595160965" lon="31.2700748909"><ele>238.54</ele><time>2026-09-02T18:53:55Z</time></trkpt><trkpt lat="59.5595162641" lon="31.2700979412"><ele>238.54</ele><time>2026-09-02T18:53:56Z</time></trkpt><trkpt lat="59.5595162641" lon="31.2701183930"><ele>238.54</ele><time>2026-09-02T18:53:57Z</time></trkpt><trkpt lat="59.5595149230" lon="31.2701358274"><ele>238.54</ele><time>2026-09-02T18:53:58Z</time></trkpt><trkpt lat="59.5595158450" lon="31.2701477297"><ele>238.54</ele><time>2026-09-02T18:53:59Z</time></trkpt><trkpt lat="59.5595129952" lon="31.2701629847"><ele>238.54</ele><time>2026-09-02T18:54:00Z</time></trkpt><trkpt lat="59.5595112350" lon="31.2701756414"><ele>238.54</ele><time>2026-09-02T18:54:01Z</time></trkpt><trkpt lat="59.5595079660" lon="31.2701900583"><ele>238.54</ele><time>2026-09-02T18:54:02Z</time></trkpt><trkpt lat="59.5595077984" lon="31.2702060677"><ele>238.54</ele><time>2026-09-02T18:54:03Z</time></trkpt><trkpt lat="59.5595058706" lon="31.2702179700"><ele>238.06</ele><time>2026-09-02T18:54:04Z</time></trkpt><trkpt lat="59.5595024340" lon="31.2702321354"><ele>238.06</ele><time>2026-09-02T18:54:05Z</time></trkpt><trkpt lat="59.5594971534" lon="31.2702449597"><ele>238.06</ele><time>2026-09-02T18:54:06Z</time></trkpt><trkpt lat="59.5594943874" lon="31.2702554371"><ele>237.58</ele><time>2026-09-02T18:54:07Z</time></trkpt><trkpt lat="59.5594898611" lon="31.2702655792"><ele>237.58</ele><time>2026-09-02T18:54:08Z</time></trkpt><trkpt lat="59.5594849996" lon="31.2702740449"><ele>237.58</ele><time>2026-09-02T18:54:09Z</time></trkpt><trkpt lat="59.5594803896" lon="31.2702863663"><ele>237.58</ele><time>2026-09-02T18:54:10Z</time></trkpt><trkpt lat="59.5594760310" lon="31.2702944968"><ele>237.58</ele><time>2026-09-02T18:54:11Z</time></trkpt><trkpt lat="59.5594698284" lon="31.2703011185"><ele>237.58</ele><time>2026-09-02T18:54:12Z</time></trkpt><trkpt lat="59.5594636258" lon="31.2703085784"><ele>237.58</ele><time>2026-09-02T18:54:13Z</time></trkpt><trkpt lat="59.5594578423" lon="31.2703104224"><ele>237.10</ele><time>2026-09-02T18:54:14Z</time></trkpt><trkpt lat="59.5594521426" lon="31.2703129370"><ele>237.10</ele><time>2026-09-02T18:54:15Z</time></trkpt><trkpt lat="59.5594468620" lon="31.2703191396"><ele>237.10</ele><time>2026-09-02T18:54:16Z</time></trkpt><trkpt lat="59.5594423357" lon="31.2703248393"><ele>237.10</ele><time>2026-09-02T18:54:17Z</time></trkpt><trkpt lat="59.5594364684" lon="31.2703314610"><ele>236.62</ele><time>2026-09-02T18:54:18Z</time></trkpt><trkpt lat="59.5594286732" lon="31.2703392562"><ele>236.62</ele><time>2026-09-02T18:54:19Z</time></trkpt><trkpt lat="59.5594286732" lon="31.2703392562"><ele>236.62</ele><time>2026-09-02T18:54:20Z</time></trkpt><trkpt lat="59.5594286732" lon="31.2703392562"><ele>236.62</ele><time>2026-09-02T18:54:21Z</time></trkpt><trkpt lat="59.5594286732" lon="31.2703392562"><ele>236.62</ele><time>2026-09-02T18:54:22Z</time></trkpt><trkpt lat="59.5594086405" lon="31.2703591213"><ele>236.62</ele><time>2026-09-02T18:54:23Z</time></trkpt><trkpt lat="59.5594033599" lon="31.2703705207"><ele>236.62</ele><time>2026-09-02T18:54:24Z</time></trkpt><trkpt lat="59.5593988337" lon="31.2703770585"><ele>236.62</ele><time>2026-09-02T18:54:25Z</time></trkpt><trkpt lat="59.5593925472" lon="31.2703833450"><ele>236.62</ele><time>2026-09-02T18:54:26Z</time></trkpt><trkpt lat="59.5593877696" lon="31.2703892961"><ele>236.62</ele><time>2026-09-02T18:54:27Z</time></trkpt><trkpt lat="59.5593805611" lon="31.2703976780"><ele>236.62</ele><time>2026-09-02T18:54:28Z</time></trkpt><trkpt lat="59.5593732689" lon="31.2704036292"><ele>236.62</ele><time>2026-09-02T18:54:29Z</time></trkpt><trkpt lat="59.5593679883" lon="31.2704104185"><ele>236.62</ele><time>2026-09-02T18:54:30Z</time></trkpt><trkpt lat="59.5593627915" lon="31.2704201415"><ele>236.62</ele><time>2026-09-02T18:54:31Z</time></trkpt><trkpt lat="59.5593569241" lon="31.2704277691"><ele>236.62</ele><time>2026-09-02T18:54:32Z</time></trkpt><trkpt lat="59.5593501348" lon="31.2704402581"><ele>236.14</ele><time>2026-09-02T18:54:33Z</time></trkpt><trkpt lat="59.5593445189" lon="31.2704513222"><ele>236.14</ele><time>2026-09-02T18:54:34Z</time></trkpt><trkpt lat="59.5593396574" lon="31.2704618834"><ele>236.14</ele><time>2026-09-02T18:54:35Z</time></trkpt><trkpt lat="59.5593342930" lon="31.2704720255"><ele>236.14</ele><time>2026-09-02T18:54:36Z</time></trkpt><trkpt lat="59.5593297668" lon="31.2704748753"><ele>236.14</ele><time>2026-09-02T18:54:37Z</time></trkpt><trkpt lat="59.5593236480" lon="31.2704823352"><ele>236.14</ele><time>2026-09-02T18:54:38Z</time></trkpt><trkpt lat="59.5593176968" lon="31.2704886217"><ele>236.14</ele><time>2026-09-02T18:54:39Z</time></trkpt><trkpt lat="59.5593093988" lon="31.2704941537"><ele>236.14</ele><time>2026-09-02T18:54:40Z</time></trkpt><trkpt lat="59.5593031961" lon="31.2704973388"><ele>236.14</ele><time>2026-09-02T18:54:41Z</time></trkpt><trkpt lat="59.5592994243" lon="31.2704973388"><ele>236.14</ele><time>2026-09-02T18:54:42Z</time></trkpt><trkpt lat="59.5592977479" lon="31.2704987638"><ele>236.14</ele><time>2026-09-02T18:54:43Z</time></trkpt><trkpt lat="59.5592902880" lon="31.2705059722"><ele>235.66</ele><time>2026-09-02T18:54:44Z</time></trkpt><trkpt lat="59.5592902880" lon="31.2705059722"><ele>235.66</ele><time>2026-09-02T18:54:45Z</time></trkpt><trkpt lat="59.5592902880" lon="31.2705059722"><ele>235.66</ele><time>2026-09-02T18:54:46Z</time></trkpt><trkpt lat="59.5592902880" lon="31.2705059722"><ele>235.66</ele><time>2026-09-02T18:54:47Z</time></trkpt><trkpt lat="59.5592902880" lon="31.2705059722"><ele>235.66</ele><time>2026-09-02T18:54:48Z</time></trkpt><trkpt lat="59.5592902880" lon="31.2705059722"><ele>235.66</ele><time>2026-09-02T18:54:49Z</time></trkpt><trkpt lat="59.5592902880" lon="31.2705059722"><ele>235.66</ele><time>2026-09-02T18:54:50Z</time></trkpt><trkpt lat="59.5592758711" lon="31.2705354765"><ele>235.66</ele><time>2026-09-02T18:54:51Z</time></trkpt><trkpt lat="59.5592751168" lon="31.2705307826"><ele>235.66</ele><time>2026-09-02T18:54:52Z</time></trkpt><trkpt lat="59.5592719316" lon="31.2705322914"><ele>235.66</ele><time>2026-09-02T18:54:53Z</time></trkpt><trkpt lat="59.5592692494" lon="31.2705339678"><ele>235.66</ele><time>2026-09-02T18:54:54Z</time></trkpt><trkpt lat="59.5592692494" lon="31.2705339678"><ele>235.66</ele><time>2026-09-02T18:54:55Z</time></trkpt><trkpt lat="59.5592603646" lon="31.2705356441"><ele>235.66</ele><time>2026-09-02T18:54:56Z</time></trkpt><trkpt lat="59.5592551678" lon="31.2705380749"><ele>235.66</ele><time>2026-09-02T18:54:57Z</time></trkpt><trkpt lat="59.5592526533" lon="31.2705457862"><ele>235.66</ele><time>2026-09-02T18:54:58Z</time></trkpt><trkpt lat="59.5592524856" lon="31.2705529947"><ele>235.66</ele><time>2026-09-02T18:54:59Z</time></trkpt><trkpt lat="59.5592492167" lon="31.2705597840"><ele>235.66</ele><time>2026-09-02T18:55:00Z</time></trkpt><trkpt lat="59.5592441875" lon="31.2705662381"><ele>235.18</ele><time>2026-09-02T18:55:01Z</time></trkpt><trkpt lat="59.5592382364" lon="31.2705763802"><ele>235.18</ele><time>2026-09-02T18:55:02Z</time></trkpt><trkpt lat="59.5592327882" lon="31.2705872767"><ele>235.18</ele><time>2026-09-02T18:55:03Z</time></trkpt><trkpt lat="59.5592270885" lon="31.2705975864"><ele>235.18</ele><time>2026-09-02T18:55:04Z</time></trkpt><trkpt lat="59.5592226461" lon="31.2706114165"><ele>235.18</ele><time>2026-09-02T18:55:05Z</time></trkpt><trkpt lat="59.5592191257" lon="31.2706265878"><ele>235.18</ele><time>2026-09-02T18:55:06Z</time></trkpt><trkpt lat="59.5592154376" lon="31.2706385739"><ele>235.18</ele><time>2026-09-02T18:55:07Z</time></trkpt><trkpt lat="59.5592099894" lon="31.2706475426"><ele>235.18</ele><time>2026-09-02T18:55:08Z</time></trkpt><trkpt lat="59.5592052955" lon="31.2706488837"><ele>235.18</ele><time>2026-09-02T18:55:09Z</time></trkpt><trkpt lat="59.5592022780" lon="31.2706518173"><ele>234.70</ele><time>2026-09-02T18:55:10Z</time></trkpt><trkpt lat="59.5591972489" lon="31.2706542481"><ele>234.70</ele><time>2026-09-02T18:55:11Z</time></trkpt><trkpt lat="59.5591923874" lon="31.2706569303"><ele>234.70</ele><time>2026-09-02T18:55:12Z</time></trkpt><trkpt lat="59.5591923874" lon="31.2706569303"><ele>234.70</ele><time>2026-09-02T18:55:13Z</time></trkpt><trkpt lat="59.5591923874" lon="31.2706569303"><ele>234.70</ele><time>2026-09-02T18:55:14Z</time></trkpt><trkpt lat="59.5591923874" lon="31.2706569303"><ele>234.70</ele><time>2026-09-02T18:55:15Z</time></trkpt><trkpt lat="59.5591923874" lon="31.2706569303"><ele>234.70</ele><time>2026-09-02T18:55:16Z</time></trkpt><trkpt lat="59.5591923874" lon="31.2706569303"><ele>234.70</ele><time>2026-09-02T18:55:17Z</time></trkpt><trkpt lat="59.5591923874" lon="31.2706569303"><ele>234.70</ele><time>2026-09-02T18:55:18Z</time></trkpt><trkpt lat="59.5591923874" lon="31.2706569303"><ele>234.70</ele><time>2026-09-02T18:55:19Z</time></trkpt><trkpt lat="59.5591923874" lon="31.2706569303"><ele>234.70</ele><time>2026-09-02T18:55:20Z</time></trkpt><trkpt lat="59.5591923874" lon="31.2706569303"><ele>234.70</ele><time>2026-09-02T18:55:21Z</time></trkpt><trkpt lat="59.5591665711" lon="31.2706804834"><ele>234.70</ele><time>2026-09-02T18:55:22Z</time></trkpt><trkpt lat="59.5591627993" lon="31.2706819922"><ele>234.70</ele><time>2026-09-02T18:55:23Z</time></trkpt><trkpt lat="59.5591600332" lon="31.2706812378"><ele>234.70</ele><time>2026-09-02T18:55:24Z</time></trkpt><trkpt lat="59.5591566805" lon="31.2706811540"><ele>234.22</ele><time>2026-09-02T18:55:25Z</time></trkpt><trkpt lat="59.5591503941" lon="31.2706835847"><ele>234.22</ele><time>2026-09-02T18:55:26Z</time></trkpt><trkpt lat="59.5591426827" lon="31.2706871890"><ele>234.22</ele><time>2026-09-02T18:55:27Z</time></trkpt><trkpt lat="59.5591370668" lon="31.2706834171"><ele>234.22</ele><time>2026-09-02T18:55:28Z</time></trkpt><trkpt lat="59.5591316186" lon="31.2706831656"><ele>234.22</ele><time>2026-09-02T18:55:29Z</time></trkpt><trkpt lat="59.5591338817" lon="31.2706878595"><ele>234.22</ele><time>2026-09-02T18:55:30Z</time></trkpt><trkpt lat="59.5591293555" lon="31.2706884462"><ele>234.22</ele><time>2026-09-02T18:55:31Z</time></trkpt><trkpt lat="59.5591273438" lon="31.2706908770"><ele>234.22</ele><time>2026-09-02T18:55:32Z</time></trkpt><trkpt lat="59.5591273438" lon="31.2706908770"><ele>234.22</ele><time>2026-09-02T18:55:33Z</time></trkpt><trkpt lat="59.5591273438" lon="31.2706908770"><ele>234.22</ele><time>2026-09-02T18:55:34Z</time></trkpt><trkpt lat="59.5591273438" lon="31.2706908770"><ele>234.22</ele><time>2026-09-02T18:55:35Z</time></trkpt><trkpt lat="59.5591273438" lon="31.2706908770"><ele>234.22</ele><time>2026-09-02T18:55:36Z</time></trkpt><trkpt lat="59.5591273438" lon="31.2706908770"><ele>234.22</ele><time>2026-09-02T18:55:37Z</time></trkpt><trkpt lat="59.5591273438" lon="31.2706908770"><ele>234.22</ele><time>2026-09-02T18:55:38Z</time></trkpt><trkpt lat="59.5591273438" lon="31.2706908770"><ele>234.22</ele><time>2026-09-02T18:55:39Z</time></trkpt><trkpt lat="59.5591273438" lon="31.2706908770"><ele>234.22</ele><time>2026-09-02T18:55:40Z</time></trkpt><trkpt lat="59.5591273438" lon="31.2706908770"><ele>234.22</ele><time>2026-09-02T18:55:41Z</time></trkpt><trkpt lat="59.5591273438" lon="31.2706908770"><ele>234.22</ele><time>2026-09-02T18:55:42Z</time></trkpt><trkpt lat="59.5591273438" lon="31.2706908770"><ele>234.22</ele><time>2026-09-02T18:55:43Z</time></trkpt><trkpt lat="59.5591273438" lon="31.2706908770"><ele>234.22</ele><time>2026-09-02T18:55:44Z</time></trkpt><trkpt lat="59.5591273438" lon="31.2706908770"><ele>234.22</ele><time>2026-09-02T18:55:45Z</time></trkpt><trkpt lat="59.5591273438" lon="31.2706908770"><ele>234.22</ele><time>2026-09-02T18:55:46Z</time></trkpt><trkpt lat="59.5591273438" lon="31.2706908770"><ele>234.22</ele><time>2026-09-02T18:55:47Z</time></trkpt><trkpt lat="59.5591273438" lon="31.2706908770"><ele>234.22</ele><time>2026-09-02T18:55:48Z</time></trkpt><trkpt lat="59.5591273438" lon="31.2706908770"><ele>234.22</ele><time>2026-09-02T18:55:49Z</time></trkpt><trkpt lat="59.5591273438" lon="31.2706908770"><ele>234.22</ele><time>2026-09-02T18:55:50Z</time></trkpt><trkpt lat="59.5591273438" lon="31.2706908770"><ele>234.22</ele><time>2026-09-02T18:55:51Z</time></trkpt><trkpt lat="59.5591273438" lon="31.2706908770"><ele>234.22</ele><time>2026-09-02T18:55:52Z</time></trkpt><trkpt lat="59.5591273438" lon="31.2706908770"><ele>234.22</ele><time>2026-09-02T18:55:53Z</time></trkpt><trkpt lat="59.5591273438" lon="31.2706908770"><ele>234.22</ele><time>2026-09-02T18:55:54Z</time></trkpt><trkpt lat="59.5591273438" lon="31.2706908770"><ele>234.22</ele><time>2026-09-02T18:55:55Z</time></trkpt><trkpt lat="59.5591273438" lon="31.2706908770"><ele>234.22</ele><time>2026-09-02T18:55:56Z</time></trkpt><trkpt lat="59.5591273438" lon="31.2706908770"><ele>234.22</ele><time>2026-09-02T18:55:57Z</time></trkpt><trkpt lat="59.5591273438" lon="31.2706908770"><ele>234.22</ele><time>2026-09-02T18:55:58Z</time></trkpt><trkpt lat="59.5591273438" lon="31.2706908770"><ele>234.22</ele><time>2026-09-02T18:55:59Z</time></trkpt><trkpt lat="59.5591273438" lon="31.2706908770"><ele>234.22</ele><time>2026-09-02T18:56:00Z</time></trkpt><trkpt lat="59.5591273438" lon="31.2706908770"><ele>234.22</ele><time>2026-09-02T18:56:01Z</time></trkpt><trkpt lat="59.5591273438" lon="31.2706908770"><ele>234.22</ele><time>2026-09-02T18:56:02Z</time></trkpt><trkpt lat="59.5591273438" lon="31.2706908770"><ele>234.22</ele><time>2026-09-02T18:56:03Z</time></trkpt><trkpt lat="59.5591273438" lon="31.2706908770"><ele>234.22</ele><time>2026-09-02T18:56:04Z</time></trkpt><trkpt lat="59.5591273438" lon="31.2706908770"><ele>234.22</ele><time>2026-09-02T18:56:05Z</time></trkpt><trkpt lat="59.5591273438" lon="31.2706908770"><ele>234.22</ele><time>2026-09-02T18:56:06Z</time></trkpt><trkpt lat="59.5591273438" lon="31.2706908770"><ele>234.22</ele><time>2026-09-02T18:56:07Z</time></trkpt><trkpt lat="59.5591273438" lon="31.2706908770"><ele>234.22</ele><time>2026-09-02T18:56:08Z</time></trkpt><trkpt lat="59.5591273438" lon="31.2706908770"><ele>234.22</ele><time>2026-09-02T18:56:09Z</time></trkpt><trkpt lat="59.5591273438" lon="31.2706908770"><ele>234.22</ele><time>2026-09-02T18:56:10Z</time></trkpt><trkpt lat="59.5591273438" lon="31.2706908770"><ele>234.22</ele><time>2026-09-02T18:56:11Z</time></trkpt><trkpt lat="59.5591273438" lon="31.2706908770"><ele>234.22</ele><time>2026-09-02T18:56:12Z</time></trkpt><trkpt lat="59.5591273438" lon="31.2706908770"><ele>234.22</ele><time>2026-09-02T18:56:13Z</time></trkpt><trkpt lat="59.5591273438" lon="31.2706908770"><ele>234.22</ele><time>2026-09-02T18:56:14Z</time></trkpt><trkpt lat="59.5591273438" lon="31.2706908770"><ele>234.22</ele><time>2026-09-02T18:56:15Z</time></trkpt><trkpt lat="59.5590973366" lon="31.2706701737"><ele>234.22</ele><time>2026-09-02T18:56:16Z</time></trkpt><trkpt lat="59.5590933971" lon="31.2706666533"><ele>234.22</ele><time>2026-09-02T18:56:17Z</time></trkpt><trkpt lat="59.5590896253" lon="31.2706663180"><ele>234.22</ele><time>2026-09-02T18:56:18Z</time></trkpt><trkpt lat="59.5590871945" lon="31.2706621271"><ele>233.74</ele><time>2026-09-02T18:56:19Z</time></trkpt><trkpt lat="59.5590831712" lon="31.2706607860"><ele>233.74</ele><time>2026-09-02T18:56:20Z</time></trkpt><trkpt lat="59.5590831712" lon="31.2706607860"><ele>233.74</ele><time>2026-09-02T18:56:21Z</time></trkpt><trkpt lat="59.5590831712" lon="31.2706607860"><ele>233.74</ele><time>2026-09-02T18:56:22Z</time></trkpt><trkpt lat="59.5590831712" lon="31.2706607860"><ele>233.74</ele><time>2026-09-02T18:56:23Z</time></trkpt><trkpt lat="59.5590831712" lon="31.2706607860"><ele>233.74</ele><time>2026-09-02T18:56:24Z</time></trkpt><trkpt lat="59.5590831712" lon="31.2706607860"><ele>233.74</ele><time>2026-09-02T18:56:25Z</time></trkpt><trkpt lat="59.5590831712" lon="31.2706607860"><ele>233.74</ele><time>2026-09-02T18:56:26Z</time></trkpt><trkpt lat="59.5590831712" lon="31.2706607860"><ele>234.22</ele><time>2026-09-02T18:56:27Z</time></trkpt><trkpt lat="59.5590831712" lon="31.2706607860"><ele>234.22</ele><time>2026-09-02T18:56:28Z</time></trkpt><trkpt lat="59.5590831712" lon="31.2706607860"><ele>234.22</ele><time>2026-09-02T18:56:29Z</time></trkpt><trkpt lat="59.5590831712" lon="31.2706607860"><ele>234.22</ele><time>2026-09-02T18:56:30Z</time></trkpt><trkpt lat="59.5590831712" lon="31.2706607860"><ele>234.22</ele><time>2026-09-02T18:56:31Z</time></trkpt><trkpt lat="59.5590831712" lon="31.2706607860"><ele>234.22</ele><time>2026-09-02T18:56:32Z</time></trkpt><trkpt lat="59.5590831712" lon="31.2706607860"><ele>234.22</ele><time>2026-09-02T18:56:33Z</time></trkpt><trkpt lat="59.5590831712" lon="31.2706607860"><ele>234.22</ele><time>2026-09-02T18:56:34Z</time></trkpt><trkpt lat="59.5590831712" lon="31.2706607860"><ele>234.22</ele><time>2026-09-02T18:56:35Z</time></trkpt><trkpt lat="59.5590831712" lon="31.2706607860"><ele>234.22</ele><time>2026-09-02T18:56:36Z</time></trkpt><trkpt lat="59.5590831712" lon="31.2706607860"><ele>234.22</ele><time>2026-09-02T18:56:37Z</time></trkpt><trkpt lat="59.5590831712" lon="31.2706607860"><ele>234.22</ele><time>2026-09-02T18:56:38Z</time></trkpt><trkpt lat="59.5590831712" lon="31.2706607860"><ele>234.22</ele><time>2026-09-02T18:56:39Z</time></trkpt><trkpt lat="59.5590831712" lon="31.2706607860"><ele>234.22</ele><time>2026-09-02T18:56:40Z</time></trkpt><trkpt lat="59.5590831712" lon="31.2706607860"><ele>234.22</ele><time>2026-09-02T18:56:41Z</time></trkpt><trkpt lat="59.5590831712" lon="31.2706607860"><ele>234.22</ele><time>2026-09-02T18:56:42Z</time></trkpt><trkpt lat="59.5590831712" lon="31.2706607860"><ele>234.22</ele><time>2026-09-02T18:56:43Z</time></trkpt><trkpt lat="59.5590831712" lon="31.2706607860"><ele>234.22</ele><time>2026-09-02T18:56:44Z</time></trkpt><trkpt lat="59.5590831712" lon="31.2706607860"><ele>234.22</ele><time>2026-09-02T18:56:45Z</time></trkpt><trkpt lat="59.5591022819" lon="31.2706809863"><ele>234.22</ele><time>2026-09-02T18:56:46Z</time></trkpt><trkpt lat="59.5591055509" lon="31.2706818245"><ele>234.22</ele><time>2026-09-02T18:56:47Z</time></trkpt><trkpt lat="59.5591084845" lon="31.2706794776"><ele>234.22</ele><time>2026-09-02T18:56:48Z</time></trkpt><trkpt lat="59.5591166988" lon="31.2706787232"><ele>234.22</ele><time>2026-09-02T18:56:49Z</time></trkpt><trkpt lat="59.5591251645" lon="31.2706766278"><ele>234.22</ele><time>2026-09-02T18:56:50Z</time></trkpt><trkpt lat="59.5591332950" lon="31.2706775498"><ele>234.22</ele><time>2026-09-02T18:56:51Z</time></trkpt><trkpt lat="59.5591396652" lon="31.2706752867"><ele>234.22</ele><time>2026-09-02T18:56:52Z</time></trkpt><trkpt lat="59.5591439400" lon="31.2706713472"><ele>234.22</ele><time>2026-09-02T18:56:53Z</time></trkpt><trkpt lat="59.5591432694" lon="31.2706714310"><ele>234.22</ele><time>2026-09-02T18:56:54Z</time></trkpt><trkpt lat="59.5591502264" lon="31.2706611212"><ele>234.22</ele><time>2026-09-02T18:56:55Z</time></trkpt><trkpt lat="59.5591531601" lon="31.2706503924"><ele>234.22</ele><time>2026-09-02T18:56:56Z</time></trkpt><trkpt lat="59.5591531601" lon="31.2706503924"><ele>234.22</ele><time>2026-09-02T18:56:57Z</time></trkpt><trkpt lat="59.5591531601" lon="31.2706503924"><ele>234.22</ele><time>2026-09-02T18:56:58Z</time></trkpt><trkpt lat="59.5591531601" lon="31.2706503924"><ele>234.22</ele><time>2026-09-02T18:56:59Z</time></trkpt><trkpt lat="59.5591531601" lon="31.2706503924"><ele>234.22</ele><time>2026-09-02T18:57:00Z</time></trkpt><trkpt lat="59.5591531601" lon="31.2706503924"><ele>234.22</ele><time>2026-09-02T18:57:01Z</time></trkpt><trkpt lat="59.5591531601" lon="31.2706503924"><ele>234.22</ele><time>2026-09-02T18:57:02Z</time></trkpt><trkpt lat="59.5591531601" lon="31.2706503924"><ele>234.22</ele><time>2026-09-02T18:57:03Z</time></trkpt><trkpt lat="59.5591531601" lon="31.2706503924"><ele>234.22</ele><time>2026-09-02T18:57:04Z</time></trkpt><trkpt lat="59.5591531601" lon="31.2706503924"><ele>234.22</ele><time>2026-09-02T18:57:05Z</time></trkpt><trkpt lat="59.5591531601" lon="31.2706503924"><ele>234.22</ele><time>2026-09-02T18:57:06Z</time></trkpt><trkpt lat="59.5591531601" lon="31.2706503924"><ele>234.70</ele><time>2026-09-02T18:57:07Z</time></trkpt><trkpt lat="59.5591531601" lon="31.2706503924"><ele>234.70</ele><time>2026-09-02T18:57:08Z</time></trkpt><trkpt lat="59.5591531601" lon="31.2706503924"><ele>234.70</ele><time>2026-09-02T18:57:09Z</time></trkpt><trkpt lat="59.5591531601" lon="31.2706503924"><ele>234.70</ele><time>2026-09-02T18:57:10Z</time></trkpt><trkpt lat="59.5591531601" lon="31.2706503924"><ele>234.70</ele><time>2026-09-02T18:57:11Z</time></trkpt><trkpt lat="59.5591531601" lon="31.2706503924"><ele>234.70</ele><time>2026-09-02T18:57:12Z</time></trkpt><trkpt lat="59.5591312833" lon="31.2705438584"><ele>234.70</ele><time>2026-09-02T18:57:13Z</time></trkpt><trkpt lat="59.5591265894" lon="31.2705449481"><ele>234.70</ele><time>2026-09-02T18:57:14Z</time></trkpt><trkpt lat="59.5591255836" lon="31.2705413438"><ele>234.70</ele><time>2026-09-02T18:57:15Z</time></trkpt><trkpt lat="59.5591219794" lon="31.2705404218"><ele>234.70</ele><time>2026-09-02T18:57:16Z</time></trkpt><trkpt lat="59.5591215603" lon="31.2705411762"><ele>234.70</ele><time>2026-09-02T18:57:17Z</time></trkpt><trkpt lat="59.5591215603" lon="31.2705411762"><ele>234.70</ele><time>2026-09-02T18:57:18Z</time></trkpt><trkpt lat="59.5591215603" lon="31.2705411762"><ele>234.22</ele><time>2026-09-02T18:57:19Z</time></trkpt><trkpt lat="59.5591215603" lon="31.2705411762"><ele>234.22</ele><time>2026-09-02T18:57:20Z</time></trkpt><trkpt lat="59.5591215603" lon="31.2705411762"><ele>234.22</ele><time>2026-09-02T18:57:21Z</time></trkpt><trkpt lat="59.5591215603" lon="31.2705411762"><ele>234.22</ele><time>2026-09-02T18:57:22Z</time></trkpt><trkpt lat="59.5591215603" lon="31.2705411762"><ele>234.22</ele><time>2026-09-02T18:57:23Z</time></trkpt><trkpt lat="59.5591215603" lon="31.2705411762"><ele>234.22</ele><time>2026-09-02T18:57:24Z</time></trkpt><trkpt lat="59.5591215603" lon="31.2705411762"><ele>234.22</ele><time>2026-09-02T18:57:25Z</time></trkpt><trkpt lat="59.5591215603" lon="31.2705411762"><ele>234.22</ele><time>2026-09-02T18:57:26Z</time></trkpt><trkpt lat="59.5591215603" lon="31.2705411762"><ele>234.22</ele><time>2026-09-02T18:57:27Z</time></trkpt><trkpt lat="59.5591215603" lon="31.2705411762"><ele>234.22</ele><time>2026-09-02T18:57:28Z</time></trkpt><trkpt lat="59.5591215603" lon="31.2705411762"><ele>234.22</ele><time>2026-09-02T18:57:29Z</time></trkpt><trkpt lat="59.5591215603" lon="31.2705411762"><ele>234.22</ele><time>2026-09-02T18:57:30Z</time></trkpt><trkpt lat="59.5591215603" lon="31.2705411762"><ele>234.22</ele><time>2026-09-02T18:57:31Z</time></trkpt><trkpt lat="59.5591215603" lon="31.2705411762"><ele>234.22</ele><time>2026-09-02T18:57:32Z</time></trkpt><trkpt lat="59.5591215603" lon="31.2705411762"><ele>234.22</ele><time>2026-09-02T18:57:33Z</time></trkpt><trkpt lat="59.5591215603" lon="31.2705411762"><ele>234.22</ele><time>2026-09-02T18:57:34Z</time></trkpt><trkpt lat="59.5591215603" lon="31.2705411762"><ele>234.22</ele><time>2026-09-02T18:57:35Z</time></trkpt><trkpt lat="59.5591215603" lon="31.2705411762"><ele>234.22</ele><time>2026-09-02T18:57:36Z</time></trkpt><trkpt lat="59.5591215603" lon="31.2705411762"><ele>234.22</ele><time>2026-09-02T18:57:37Z</time></trkpt><trkpt lat="59.5590708498" lon="31.2704681698"><ele>234.22</ele><time>2026-09-02T18:57:38Z</time></trkpt><trkpt lat="59.5590615459" lon="31.2704602908"><ele>234.22</ele><time>2026-09-02T18:57:39Z</time></trkpt><trkpt lat="59.5590539183" lon="31.2704544235"><ele>234.22</ele><time>2026-09-02T18:57:40Z</time></trkpt><trkpt lat="59.5590492245" lon="31.2704509869"><ele>234.22</ele><time>2026-09-02T18:57:41Z</time></trkpt><trkpt lat="59.5590434410" lon="31.2704521604"><ele>234.22</ele><time>2026-09-02T18:57:42Z</time></trkpt><trkpt lat="59.5590373222" lon="31.2704532500"><ele>234.22</ele><time>2026-09-02T18:57:43Z</time></trkpt><trkpt lat="59.5590373222" lon="31.2704532500"><ele>234.22</ele><time>2026-09-02T18:57:44Z</time></trkpt><trkpt lat="59.5590215642" lon="31.2704489753"><ele>234.22</ele><time>2026-09-02T18:57:45Z</time></trkpt><trkpt lat="59.5590172894" lon="31.2704511546"><ele>234.22</ele><time>2026-09-02T18:57:46Z</time></trkpt><trkpt lat="59.5590123441" lon="31.2704507355"><ele>234.22</ele><time>2026-09-02T18:57:47Z</time></trkpt><trkpt lat="59.5590062253" lon="31.2704502326"><ele>234.22</ele><time>2026-09-02T18:57:48Z</time></trkpt><trkpt lat="59.5590029564" lon="31.2704434432"><ele>234.22</ele><time>2026-09-02T18:57:49Z</time></trkpt><trkpt lat="59.5590028726" lon="31.2704426888"><ele>234.22</ele><time>2026-09-02T18:57:50Z</time></trkpt><trkpt lat="59.5590028726" lon="31.2704426888"><ele>234.22</ele><time>2026-09-02T18:57:51Z</time></trkpt><trkpt lat="59.5590028726" lon="31.2704426888"><ele>234.22</ele><time>2026-09-02T18:57:52Z</time></trkpt><trkpt lat="59.5590028726" lon="31.2704426888"><ele>234.22</ele><time>2026-09-02T18:57:53Z</time></trkpt><trkpt lat="59.5590028726" lon="31.2704426888"><ele>234.22</ele><time>2026-09-02T18:57:54Z</time></trkpt><trkpt lat="59.5590028726" lon="31.2704426888"><ele>234.22</ele><time>2026-09-02T18:57:55Z</time></trkpt><trkpt lat="59.5589963347" lon="31.2704385817"><ele>234.22</ele><time>2026-09-02T18:57:56Z</time></trkpt><trkpt lat="59.5589998551" lon="31.2704347260"><ele>234.22</ele><time>2026-09-02T18:57:57Z</time></trkpt><trkpt lat="59.5589984301" lon="31.2704308704"><ele>234.22</ele><time>2026-09-02T18:57:58Z</time></trkpt><trkpt lat="59.5589973405" lon="31.2704268470"><ele>234.22</ele><time>2026-09-02T18:57:59Z</time></trkpt><trkpt lat="59.5589970890" lon="31.2704322953"><ele>234.22</ele><time>2026-09-02T18:58:00Z</time></trkpt><trkpt lat="59.5589970890" lon="31.2704322953"><ele>234.22</ele><time>2026-09-02T18:58:01Z</time></trkpt><trkpt lat="59.5589970890" lon="31.2704322953"><ele>234.22</ele><time>2026-09-02T18:58:02Z</time></trkpt><trkpt lat="59.5589970890" lon="31.2704322953"><ele>234.22</ele><time>2026-09-02T18:58:03Z</time></trkpt><trkpt lat="59.5589970890" lon="31.2704322953"><ele>234.22</ele><time>2026-09-02T18:58:04Z</time></trkpt><trkpt lat="59.5589970890" lon="31.2704322953"><ele>234.22</ele><time>2026-09-02T18:58:05Z</time></trkpt><trkpt lat="59.5589970890" lon="31.2704322953"><ele>234.22</ele><time>2026-09-02T18:58:06Z</time></trkpt><trkpt lat="59.5589970890" lon="31.2704322953"><ele>234.22</ele><time>2026-09-02T18:58:07Z</time></trkpt><trkpt lat="59.5589970890" lon="31.2704322953"><ele>234.22</ele><time>2026-09-02T18:58:08Z</time></trkpt><trkpt lat="59.5589970890" lon="31.2704322953"><ele>234.22</ele><time>2026-09-02T18:58:09Z</time></trkpt><trkpt lat="59.5589970890" lon="31.2704322953"><ele>234.22</ele><time>2026-09-02T18:58:10Z</time></trkpt><trkpt lat="59.5589970890" lon="31.2704322953"><ele>234.22</ele><time>2026-09-02T18:58:11Z</time></trkpt><trkpt lat="59.5589970890" lon="31.2704322953"><ele>234.22</ele><time>2026-09-02T18:58:12Z</time></trkpt><trkpt lat="59.5589970890" lon="31.2704322953"><ele>234.22</ele><time>2026-09-02T18:58:13Z</time></trkpt><trkpt lat="59.5589970890" lon="31.2704322953"><ele>233.74</ele><time>2026-09-02T18:58:14Z</time></trkpt><trkpt lat="59.5589970890" lon="31.2704322953"><ele>233.74</ele><time>2026-09-02T18:58:15Z</time></trkpt><trkpt lat="59.5589970890" lon="31.2704322953"><ele>233.74</ele><time>2026-09-02T18:58:16Z</time></trkpt><trkpt lat="59.5589970890" lon="31.2704322953"><ele>233.74</ele><time>2026-09-02T18:58:17Z</time></trkpt><trkpt lat="59.5589970890" lon="31.2704322953"><ele>233.74</ele><time>2026-09-02T18:58:18Z</time></trkpt><trkpt lat="59.5589970890" lon="31.2704322953"><ele>234.22</ele><time>2026-09-02T18:58:19Z</time></trkpt><trkpt lat="59.5589970890" lon="31.2704322953"><ele>234.22</ele><time>2026-09-02T18:58:20Z</time></trkpt><trkpt lat="59.5589713566" lon="31.2703999411"><ele>234.22</ele><time>2026-09-02T18:58:21Z</time></trkpt><trkpt lat="59.5589657407" lon="31.2703950796"><ele>234.22</ele><time>2026-09-02T18:58:22Z</time></trkpt><trkpt lat="59.5589626394" lon="31.2703943253"><ele>234.22</ele><time>2026-09-02T18:58:23Z</time></trkpt><trkpt lat="59.5589577779" lon="31.2703917269"><ele>234.22</ele><time>2026-09-02T18:58:24Z</time></trkpt><trkpt lat="59.5589544252" lon="31.2703915592"><ele>234.22</ele><time>2026-09-02T18:58:25Z</time></trkpt><trkpt lat="59.5589544252" lon="31.2703915592"><ele>234.22</ele><time>2026-09-02T18:58:26Z</time></trkpt><trkpt lat="59.5589544252" lon="31.2703915592"><ele>234.22</ele><time>2026-09-02T18:58:27Z</time></trkpt><trkpt lat="59.5589544252" lon="31.2703915592"><ele>234.22</ele><time>2026-09-02T18:58:28Z</time></trkpt><trkpt lat="59.5589544252" lon="31.2703915592"><ele>234.22</ele><time>2026-09-02T18:58:29Z</time></trkpt><trkpt lat="59.5589544252" lon="31.2703915592"><ele>234.22</ele><time>2026-09-02T18:58:30Z</time></trkpt><trkpt lat="59.5589297824" lon="31.2704033777"><ele>234.22</ele><time>2026-09-02T18:58:31Z</time></trkpt><trkpt lat="59.5589234959" lon="31.2704046350"><ele>234.22</ele><time>2026-09-02T18:58:32Z</time></trkpt><trkpt lat="59.5589196403" lon="31.2704016175"><ele>233.74</ele><time>2026-09-02T18:58:33Z</time></trkpt><trkpt lat="59.5589157846" lon="31.2703987677"><ele>233.74</ele><time>2026-09-02T18:58:34Z</time></trkpt><trkpt lat="59.5589126833" lon="31.2703935709"><ele>233.74</ele><time>2026-09-02T18:58:35Z</time></trkpt><trkpt lat="59.5589079894" lon="31.2703912240"><ele>233.74</ele><time>2026-09-02T18:58:36Z</time></trkpt><trkpt lat="59.5589057263" lon="31.2703865301"><ele>233.74</ele><time>2026-09-02T18:58:37Z</time></trkpt><trkpt lat="59.5589057263" lon="31.2703865301"><ele>233.74</ele><time>2026-09-02T18:58:38Z</time></trkpt><trkpt lat="59.5589057263" lon="31.2703865301"><ele>233.74</ele><time>2026-09-02T18:58:39Z</time></trkpt><trkpt lat="59.5589057263" lon="31.2703865301"><ele>233.74</ele><time>2026-09-02T18:58:40Z</time></trkpt><trkpt lat="59.5588852745" lon="31.2703912240"><ele>233.74</ele><time>2026-09-02T18:58:41Z</time></trkpt><trkpt lat="59.5588830952" lon="31.2703933194"><ele>233.74</ele><time>2026-09-02T18:58:42Z</time></trkpt><trkpt lat="59.5588762220" lon="31.2703938223"><ele>233.74</ele><time>2026-09-02T18:58:43Z</time></trkpt><trkpt lat="59.5588705223" lon="31.2703960855"><ele>233.74</ele><time>2026-09-02T18:58:44Z</time></trkpt><trkpt lat="59.5588696841" lon="31.2703893799"><ele>233.74</ele><time>2026-09-02T18:58:45Z</time></trkpt><trkpt lat="59.5588643197" lon="31.2703869492"><ele>234.22</ele><time>2026-09-02T18:58:46Z</time></trkpt><trkpt lat="59.5588599611" lon="31.2703854404"><ele>234.22</ele><time>2026-09-02T18:58:47Z</time></trkpt><trkpt lat="59.5588599611" lon="31.2703854404"><ele>234.22</ele><time>2026-09-02T18:58:48Z</time></trkpt><trkpt lat="59.5588599611" lon="31.2703854404"><ele>234.22</ele><time>2026-09-02T18:58:49Z</time></trkpt><trkpt lat="59.5588531718" lon="31.2703803275"><ele>234.22</ele><time>2026-09-02T18:58:50Z</time></trkpt><trkpt lat="59.5588467177" lon="31.2703796569"><ele>234.22</ele><time>2026-09-02T18:58:51Z</time></trkpt><trkpt lat="59.5588425267" lon="31.2703794893"><ele>233.74</ele><time>2026-09-02T18:58:52Z</time></trkpt><trkpt lat="59.5588388387" lon="31.2703764718"><ele>233.74</ele><time>2026-09-02T18:58:53Z</time></trkpt><trkpt lat="59.5588343963" lon="31.2703709397"><ele>233.74</ele><time>2026-09-02T18:58:54Z</time></trkpt><trkpt lat="59.5588298701" lon="31.2703675870"><ele>233.74</ele><time>2026-09-02T18:58:55Z</time></trkpt><trkpt lat="59.5588268526" lon="31.2703664973"><ele>233.74</ele><time>2026-09-02T18:58:56Z</time></trkpt><trkpt lat="59.5588251762" lon="31.2703654915"><ele>233.74</ele><time>2026-09-02T18:58:57Z</time></trkpt><trkpt lat="59.5588205662" lon="31.2703657430"><ele>233.74</ele><time>2026-09-02T18:58:58Z</time></trkpt><trkpt lat="59.5588205662" lon="31.2703657430"><ele>233.74</ele><time>2026-09-02T18:58:59Z</time></trkpt><trkpt lat="59.5588205662" lon="31.2703657430"><ele>233.74</ele><time>2026-09-02T18:59:00Z</time></trkpt><trkpt lat="59.5588205662" lon="31.2703657430"><ele>233.74</ele><time>2026-09-02T18:59:01Z</time></trkpt><trkpt lat="59.5588205662" lon="31.2703657430"><ele>233.74</ele><time>2026-09-02T18:59:02Z</time></trkpt><trkpt lat="59.5588205662" lon="31.2703657430"><ele>233.74</ele><time>2026-09-02T18:59:03Z</time></trkpt><trkpt lat="59.5588205662" lon="31.2703657430"><ele>233.74</ele><time>2026-09-02T18:59:04Z</time></trkpt><trkpt lat="59.5588205662" lon="31.2703657430"><ele>233.74</ele><time>2026-09-02T18:59:05Z</time></trkpt><trkpt lat="59.5588205662" lon="31.2703657430"><ele>233.74</ele><time>2026-09-02T18:59:06Z</time></trkpt><trkpt lat="59.5588205662" lon="31.2703657430"><ele>233.74</ele><time>2026-09-02T18:59:07Z</time></trkpt><trkpt lat="59.5588205662" lon="31.2703657430"><ele>233.74</ele><time>2026-09-02T18:59:08Z</time></trkpt><trkpt lat="59.5588205662" lon="31.2703657430"><ele>233.74</ele><time>2026-09-02T18:59:09Z</time></trkpt><trkpt lat="59.5588205662" lon="31.2703657430"><ele>233.74</ele><time>2026-09-02T18:59:10Z</time></trkpt><trkpt lat="59.5587747172" lon="31.2703239173"><ele>233.74</ele><time>2026-09-02T18:59:11Z</time></trkpt><trkpt lat="59.5587705262" lon="31.2703207321"><ele>233.74</ele><time>2026-09-02T18:59:12Z</time></trkpt><trkpt lat="59.5587660000" lon="31.2703172956"><ele>234.22</ele><time>2026-09-02T18:59:13Z</time></trkpt><trkpt lat="59.5587608870" lon="31.2703143619"><ele>234.22</ele><time>2026-09-02T18:59:14Z</time></trkpt><trkpt lat="59.5587568637" lon="31.2703120988"><ele>234.22</ele><time>2026-09-02T18:59:15Z</time></trkpt><trkpt lat="59.5587498229" lon="31.2703053933"><ele>234.22</ele><time>2026-09-02T18:59:16Z</time></trkpt><trkpt lat="59.5587481465" lon="31.2703045551"><ele>234.22</ele><time>2026-09-02T18:59:17Z</time></trkpt><trkpt lat="59.5587481465" lon="31.2703045551"><ele>234.22</ele><time>2026-09-02T18:59:18Z</time></trkpt><trkpt lat="59.5587481465" lon="31.2703045551"><ele>234.22</ele><time>2026-09-02T18:59:19Z</time></trkpt><trkpt lat="59.5587481465" lon="31.2703045551"><ele>234.22</ele><time>2026-09-02T18:59:20Z</time></trkpt><trkpt lat="59.5587481465" lon="31.2703045551"><ele>234.22</ele><time>2026-09-02T18:59:21Z</time></trkpt><trkpt lat="59.5587481465" lon="31.2703045551"><ele>234.22</ele><time>2026-09-02T18:59:22Z</time></trkpt><trkpt lat="59.5587481465" lon="31.2703045551"><ele>234.22</ele><time>2026-09-02T18:59:23Z</time></trkpt><trkpt lat="59.5587481465" lon="31.2703045551"><ele>234.22</ele><time>2026-09-02T18:59:24Z</time></trkpt><trkpt lat="59.5587481465" lon="31.2703045551"><ele>234.22</ele><time>2026-09-02T18:59:25Z</time></trkpt><trkpt lat="59.5587128587" lon="31.2703204807"><ele>234.22</ele><time>2026-09-02T18:59:26Z</time></trkpt><trkpt lat="59.5587067399" lon="31.2703205645"><ele>234.22</ele><time>2026-09-02T18:59:27Z</time></trkpt><trkpt lat="59.5587001182" lon="31.2703198940"><ele>234.22</ele><time>2026-09-02T18:59:28Z</time></trkpt><trkpt lat="59.5586935803" lon="31.2703202292"><ele>234.22</ele><time>2026-09-02T18:59:29Z</time></trkpt><trkpt lat="59.5586881321" lon="31.2703179661"><ele>234.22</ele><time>2026-09-02T18:59:30Z</time></trkpt><trkpt lat="59.5586816780" lon="31.2703195587"><ele>234.22</ele><time>2026-09-02T18:59:31Z</time></trkpt><trkpt lat="59.5586769842" lon="31.2703183852"><ele>234.22</ele><time>2026-09-02T18:59:32Z</time></trkpt><trkpt lat="59.5586716197" lon="31.2703172956"><ele>234.22</ele><time>2026-09-02T18:59:33Z</time></trkpt><trkpt lat="59.5586660877" lon="31.2703152839"><ele>234.22</ele><time>2026-09-02T18:59:34Z</time></trkpt><trkpt lat="59.5586622320" lon="31.2703132723"><ele>234.22</ele><time>2026-09-02T18:59:35Z</time></trkpt><trkpt lat="59.5586580411" lon="31.2703057285"><ele>234.22</ele><time>2026-09-02T18:59:36Z</time></trkpt><trkpt lat="59.5586546883" lon="31.2703043874"><ele>234.22</ele><time>2026-09-02T18:59:37Z</time></trkpt><trkpt lat="59.5586537663" lon="31.2703012861"><ele>234.22</ele><time>2026-09-02T18:59:38Z</time></trkpt><trkpt lat="59.5586530957" lon="31.2703028787"><ele>234.22</ele><time>2026-09-02T18:59:39Z</time></trkpt><trkpt lat="59.5586532634" lon="31.2703061476"><ele>234.22</ele><time>2026-09-02T18:59:40Z</time></trkpt><trkpt lat="59.5586532634" lon="31.2703061476"><ele>234.22</ele><time>2026-09-02T18:59:41Z</time></trkpt><trkpt lat="59.5586532634" lon="31.2703061476"><ele>234.22</ele><time>2026-09-02T18:59:42Z</time></trkpt><trkpt lat="59.5586532634" lon="31.2703061476"><ele>234.22</ele><time>2026-09-02T18:59:43Z</time></trkpt><trkpt lat="59.5586532634" lon="31.2703061476"><ele>234.22</ele><time>2026-09-02T18:59:44Z</time></trkpt><trkpt lat="59.5586532634" lon="31.2703061476"><ele>233.74</ele><time>2026-09-02T18:59:45Z</time></trkpt><trkpt lat="59.5586532634" lon="31.2703061476"><ele>233.74</ele><time>2026-09-02T18:59:46Z</time></trkpt><trkpt lat="59.5586532634" lon="31.2703061476"><ele>233.74</ele><time>2026-09-02T18:59:47Z</time></trkpt><trkpt lat="59.5586532634" lon="31.2703061476"><ele>233.74</ele><time>2026-09-02T18:59:48Z</time></trkpt><trkpt lat="59.5586532634" lon="31.2703061476"><ele>233.74</ele><time>2026-09-02T18:59:49Z</time></trkpt><trkpt lat="59.5586532634" lon="31.2703061476"><ele>233.74</ele><time>2026-09-02T18:59:50Z</time></trkpt><trkpt lat="59.5586532634" lon="31.2703061476"><ele>234.22</ele><time>2026-09-02T18:59:51Z</time></trkpt><trkpt lat="59.5586532634" lon="31.2703061476"><ele>234.22</ele><time>2026-09-02T18:59:52Z</time></trkpt><trkpt lat="59.5586532634" lon="31.2703061476"><ele>234.22</ele><time>2026-09-02T18:59:53Z</time></trkpt><trkpt lat="59.5586532634" lon="31.2703061476"><ele>234.22</ele><time>2026-09-02T18:59:54Z</time></trkpt><trkpt lat="59.5586532634" lon="31.2703061476"><ele>234.22</ele><time>2026-09-02T18:59:55Z</time></trkpt><trkpt lat="59.5586532634" lon="31.2703061476"><ele>234.22</ele><time>2026-09-02T18:59:56Z</time></trkpt><trkpt lat="59.5586532634" lon="31.2703061476"><ele>234.22</ele><time>2026-09-02T18:59:57Z</time></trkpt><trkpt lat="59.5586532634" lon="31.2703061476"><ele>234.22</ele><time>2026-09-02T18:59:58Z</time></trkpt><trkpt lat="59.5586532634" lon="31.2703061476"><ele>234.22</ele><time>2026-09-02T18:59:59Z</time></trkpt><trkpt lat="59.5586532634" lon="31.2703061476"><ele>234.22</ele><time>2026-09-02T19:00:00Z</time></trkpt><trkpt lat="59.5586532634" lon="31.2703061476"><ele>234.22</ele><time>2026-09-02T19:00:01Z</time></trkpt><trkpt lat="59.5586532634" lon="31.2703061476"><ele>234.22</ele><time>2026-09-02T19:00:02Z</time></trkpt><trkpt lat="59.5586532634" lon="31.2703061476"><ele>234.22</ele><time>2026-09-02T19:00:03Z</time></trkpt><trkpt lat="59.5586532634" lon="31.2703061476"><ele>234.22</ele><time>2026-09-02T19:00:04Z</time></trkpt><trkpt lat="59.5586532634" lon="31.2703061476"><ele>234.22</ele><time>2026-09-02T19:00:05Z</time></trkpt><trkpt lat="59.5586532634" lon="31.2703061476"><ele>234.22</ele><time>2026-09-02T19:00:06Z</time></trkpt><trkpt lat="59.5586532634" lon="31.2703061476"><ele>234.22</ele><time>2026-09-02T19:00:07Z</time></trkpt><trkpt lat="59.5586532634" lon="31.2703061476"><ele>234.22</ele><time>2026-09-02T19:00:08Z</time></trkpt><trkpt lat="59.5586532634" lon="31.2703061476"><ele>234.22</ele><time>2026-09-02T19:00:09Z</time></trkpt><trkpt lat="59.5586532634" lon="31.2703061476"><ele>234.22</ele><time>2026-09-02T19:00:10Z</time></trkpt><trkpt lat="59.5586532634" lon="31.2703061476"><ele>234.22</ele><time>2026-09-02T19:00:11Z</time></trkpt><trkpt lat="59.5586532634" lon="31.2703061476"><ele>234.22</ele><time>2026-09-02T19:00:12Z</time></trkpt><trkpt lat="59.5586532634" lon="31.2703061476"><ele>234.22</ele><time>2026-09-02T19:00:13Z</time></trkpt><trkpt lat="59.5586532634" lon="31.2703061476"><ele>234.22</ele><time>2026-09-02T19:00:14Z</time></trkpt><trkpt lat="59.5586532634" lon="31.2703061476"><ele>234.22</ele><time>2026-09-02T19:00:15Z</time></trkpt><trkpt lat="59.5586532634" lon="31.2703061476"><ele>234.22</ele><time>2026-09-02T19:00:16Z</time></trkpt><trkpt lat="59.5586532634" lon="31.2703061476"><ele>234.22</ele><time>2026-09-02T19:00:17Z</time></trkpt><trkpt lat="59.5586532634" lon="31.2703061476"><ele>234.22</ele><time>2026-09-02T19:00:18Z</time></trkpt><trkpt lat="59.5586532634" lon="31.2703061476"><ele>234.22</ele><time>2026-09-02T19:00:19Z</time></trkpt><trkpt lat="59.5586532634" lon="31.2703061476"><ele>234.22</ele><time>2026-09-02T19:00:20Z</time></trkpt><trkpt lat="59.5586532634" lon="31.2703061476"><ele>234.22</ele><time>2026-09-02T19:00:21Z</time></trkpt><trkpt lat="59.5586532634" lon="31.2703061476"><ele>234.22</ele><time>2026-09-02T19:00:22Z</time></trkpt><trkpt lat="59.5586532634" lon="31.2703061476"><ele>234.22</ele><time>2026-09-02T19:00:23Z</time></trkpt><trkpt lat="59.5586532634" lon="31.2703061476"><ele>234.22</ele><time>2026-09-02T19:00:24Z</time></trkpt><trkpt lat="59.5586532634" lon="31.2703061476"><ele>234.22</ele><time>2026-09-02T19:00:25Z</time></trkpt><trkpt lat="59.5586532634" lon="31.2703061476"><ele>234.22</ele><time>2026-09-02T19:00:26Z</time></trkpt><trkpt lat="59.5586532634" lon="31.2703061476"><ele>234.22</ele><time>2026-09-02T19:00:27Z</time></trkpt><trkpt lat="59.5586532634" lon="31.2703061476"><ele>234.22</ele><time>2026-09-02T19:00:28Z</time></trkpt><trkpt lat="59.5586532634" lon="31.2703061476"><ele>234.22</ele><time>2026-09-02T19:00:29Z</time></trkpt><trkpt lat="59.5586532634" lon="31.2703061476"><ele>234.22</ele><time>2026-09-02T19:00:30Z</time></trkpt><trkpt lat="59.5586532634" lon="31.2703061476"><ele>234.22</ele><time>2026-09-02T19:00:31Z</time></trkpt><trkpt lat="59.5586532634" lon="31.2703061476"><ele>234.22</ele><time>2026-09-02T19:00:32Z</time></trkpt><trkpt lat="59.5586532634" lon="31.2703061476"><ele>234.22</ele><time>2026-09-02T19:00:33Z</time></trkpt><trkpt lat="59.5586532634" lon="31.2703061476"><ele>234.22</ele><time>2026-09-02T19:00:34Z</time></trkpt><trkpt lat="59.5586532634" lon="31.2703061476"><ele>234.22</ele><time>2026-09-02T19:00:35Z</time></trkpt><trkpt lat="59.5586532634" lon="31.2703061476"><ele>234.22</ele><time>2026-09-02T19:00:36Z</time></trkpt><trkpt lat="59.5586532634" lon="31.2703061476"><ele>234.22</ele><time>2026-09-02T19:00:37Z</time></trkpt><trkpt lat="59.5586532634" lon="31.2703061476"><ele>234.22</ele><time>2026-09-02T19:00:38Z</time></trkpt><trkpt lat="59.5586532634" lon="31.2703061476"><ele>234.22</ele><time>2026-09-02T19:00:39Z</time></trkpt><trkpt lat="59.5586532634" lon="31.2703061476"><ele>234.22</ele><time>2026-09-02T19:00:40Z</time></trkpt><trkpt lat="59.5586532634" lon="31.2703061476"><ele>234.22</ele><time>2026-09-02T19:00:41Z</time></trkpt><trkpt lat="59.5586532634" lon="31.2703061476"><ele>234.22</ele><time>2026-09-02T19:00:42Z</time></trkpt><trkpt lat="59.5586532634" lon="31.2703061476"><ele>234.22</ele><time>2026-09-02T19:00:43Z</time></trkpt><trkpt lat="59.5586532634" lon="31.2703061476"><ele>234.22</ele><time>2026-09-02T19:00:44Z</time></trkpt><trkpt lat="59.5586532634" lon="31.2703061476"><ele>234.22</ele><time>2026-09-02T19:00:45Z</time></trkpt><trkpt lat="59.5586532634" lon="31.2703061476"><ele>234.22</ele><time>2026-09-02T19:00:46Z</time></trkpt><trkpt lat="59.5586532634" lon="31.2703061476"><ele>234.22</ele><time>2026-09-02T19:00:47Z</time></trkpt><trkpt lat="59.5586532634" lon="31.2703061476"><ele>234.22</ele><time>2026-09-02T19:00:48Z</time></trkpt><trkpt lat="59.5586532634" lon="31.2703061476"><ele>234.22</ele><time>2026-09-02T19:00:49Z</time></trkpt><trkpt lat="59.5586532634" lon="31.2703061476"><ele>234.22</ele><time>2026-09-02T19:00:50Z</time></trkpt><trkpt lat="59.5586532634" lon="31.2703061476"><ele>234.22</ele><time>2026-09-02T19:00:51Z</time></trkpt><trkpt lat="59.5586532634" lon="31.2703061476"><ele>234.22</ele><time>2026-09-02T19:00:52Z</time></trkpt><trkpt lat="59.5586532634" lon="31.2703061476"><ele>234.22</ele><time>2026-09-02T19:00:53Z</time></trkpt><trkpt lat="59.5586532634" lon="31.2703061476"><ele>234.22</ele><time>2026-09-02T19:00:54Z</time></trkpt><trkpt lat="59.5586532634" lon="31.2703061476"><ele>234.22</ele><time>2026-09-02T19:00:55Z</time></trkpt><trkpt lat="59.5586532634" lon="31.2703061476"><ele>234.22</ele><time>2026-09-02T19:00:56Z</time></trkpt><trkpt lat="59.5586532634" lon="31.2703061476"><ele>234.22</ele><time>2026-09-02T19:00:57Z</time></trkpt><trkpt lat="59.5586532634" lon="31.2703061476"><ele>234.22</ele><time>2026-09-02T19:00:58Z</time></trkpt><trkpt lat="59.5586532634" lon="31.2703061476"><ele>234.22</ele><time>2026-09-02T19:00:59Z</time></trkpt><trkpt lat="59.5586532634" lon="31.2703061476"><ele>234.22</ele><time>2026-09-02T19:01:00Z</time></trkpt><trkpt lat="59.5586532634" lon="31.2703061476"><ele>234.22</ele><time>2026-09-02T19:01:01Z</time></trkpt><trkpt lat="59.5586532634" lon="31.2703061476"><ele>234.22</ele><time>2026-09-02T19:01:02Z</time></trkpt><trkpt lat="59.5586532634" lon="31.2703061476"><ele>234.22</ele><time>2026-09-02T19:01:03Z</time></trkpt><trkpt lat="59.5586532634" lon="31.2703061476"><ele>234.22</ele><time>2026-09-02T19:01:04Z</time></trkpt><trkpt lat="59.5586532634" lon="31.2703061476"><ele>234.22</ele><time>2026-09-02T19:01:05Z</time></trkpt><trkpt lat="59.5586532634" lon="31.2703061476"><ele>234.22</ele><time>2026-09-02T19:01:06Z</time></trkpt><trkpt lat="59.5586532634" lon="31.2703061476"><ele>234.22</ele><time>2026-09-02T19:01:07Z</time></trkpt><trkpt lat="59.5586532634" lon="31.2703061476"><ele>234.22</ele><time>2026-09-02T19:01:08Z</time></trkpt><trkpt lat="59.5586532634" lon="31.2703061476"><ele>234.22</ele><time>2026-09-02T19:01:09Z</time></trkpt><trkpt lat="59.5586532634" lon="31.2703061476"><ele>234.22</ele><time>2026-09-02T19:01:10Z</time></trkpt><trkpt lat="59.5586532634" lon="31.2703061476"><ele>234.22</ele><time>2026-09-02T19:01:11Z</time></trkpt><trkpt lat="59.5586532634" lon="31.2703061476"><ele>234.22</ele><time>2026-09-02T19:01:12Z</time></trkpt><trkpt lat="59.5586532634" lon="31.2703061476"><ele>234.22</ele><time>2026-09-02T19:01:13Z</time></trkpt><trkpt lat="59.5586532634" lon="31.2703061476"><ele>234.22</ele><time>2026-09-02T19:01:14Z</time></trkpt><trkpt lat="59.5586532634" lon="31.2703061476"><ele>234.22</ele><time>2026-09-02T19:01:15Z</time></trkpt><trkpt lat="59.5586532634" lon="31.2703061476"><ele>234.22</ele><time>2026-09-02T19:01:16Z</time></trkpt><trkpt lat="59.5586532634" lon="31.2703061476"><ele>234.22</ele><time>2026-09-02T19:01:17Z</time></trkpt><trkpt lat="59.5586532634" lon="31.2703061476"><ele>234.22</ele><time>2026-09-02T19:01:18Z</time></trkpt><trkpt lat="59.5586532634" lon="31.2703061476"><ele>234.22</ele><time>2026-09-02T19:01:19Z</time></trkpt><trkpt lat="59.5586532634" lon="31.2703061476"><ele>234.22</ele><time>2026-09-02T19:01:20Z</time></trkpt><trkpt lat="59.5586532634" lon="31.2703061476"><ele>234.22</ele><time>2026-09-02T19:01:21Z</time></trkpt><trkpt lat="59.5586532634" lon="31.2703061476"><ele>234.22</ele><time>2026-09-02T19:01:22Z</time></trkpt><trkpt lat="59.5586532634" lon="31.2703061476"><ele>234.22</ele><time>2026-09-02T19:01:23Z</time></trkpt><trkpt lat="59.5586532634" lon="31.2703061476"><ele>234.22</ele><time>2026-09-02T19:01:25Z</time></trkpt><trkpt lat="59.5586532634" lon="31.2703061476"><ele>234.22</ele><time>2026-09-02T19:01:26Z</time></trkpt><trkpt lat="59.5586532634" lon="31.2703061476"><ele>234.22</ele><time>2026-09-02T19:01:27Z</time></trkpt><trkpt lat="59.5586532634" lon="31.2703061476"><ele>234.22</ele><time>2026-09-02T19:01:28Z</time></trkpt><trkpt lat="59.5586532634" lon="31.2703061476"><ele>234.22</ele><time>2026-09-02T19:01:29Z</time></trkpt><trkpt lat="59.5586532634" lon="31.2703061476"><ele>234.22</ele><time>2026-09-02T19:01:30Z</time></trkpt><trkpt lat="59.5586532634" lon="31.2703061476"><ele>234.22</ele><time>2026-09-02T19:01:31Z</time></trkpt><trkpt lat="59.5586532634" lon="31.2703061476"><ele>234.22</ele><time>2026-09-02T19:01:32Z</time></trkpt><trkpt lat="59.5586532634" lon="31.2703061476"><ele>233.74</ele><time>2026-09-02T19:01:33Z</time></trkpt><trkpt lat="59.5586532634" lon="31.2703061476"><ele>233.74</ele><time>2026-09-02T19:01:34Z</time></trkpt><trkpt lat="59.5586532634" lon="31.2703061476"><ele>234.22</ele><time>2026-09-02T19:01:35Z</time></trkpt><trkpt lat="59.5586532634" lon="31.2703061476"><ele>234.22</ele><time>2026-09-02T19:01:36Z</time></trkpt><trkpt lat="59.5586532634" lon="31.2703061476"><ele>234.22</ele><time>2026-09-02T19:01:37Z</time></trkpt><trkpt lat="59.5586532634" lon="31.2703061476"><ele>234.22</ele><time>2026-09-02T19:01:38Z</time></trkpt><trkpt lat="59.5586532634" lon="31.2703061476"><ele>234.22</ele><time>2026-09-02T19:01:39Z</time></trkpt><trkpt lat="59.5586532634" lon="31.2703061476"><ele>234.22</ele><time>2026-09-02T19:01:40Z</time></trkpt><trkpt lat="59.5586532634" lon="31.2703061476"><ele>233.74</ele><time>2026-09-02T19:01:41Z</time></trkpt><trkpt lat="59.5586532634" lon="31.2703061476"><ele>233.74</ele><time>2026-09-02T19:01:42Z</time></trkpt><trkpt lat="59.5586532634" lon="31.2703061476"><ele>233.74</ele><time>2026-09-02T19:01:43Z</time></trkpt><trkpt lat="59.5586532634" lon="31.2703061476"><ele>233.74</ele><time>2026-09-02T19:01:44Z</time></trkpt><trkpt lat="59.5586532634" lon="31.2703061476"><ele>233.74</ele><time>2026-09-02T19:01:45Z</time></trkpt><trkpt lat="59.5586532634" lon="31.2703061476"><ele>233.74</ele><time>2026-09-02T19:01:46Z</time></trkpt><trkpt lat="59.5586532634" lon="31.2703061476"><ele>234.22</ele><time>2026-09-02T19:01:47Z</time></trkpt><trkpt lat="59.5586532634" lon="31.2703061476"><ele>234.22</ele><time>2026-09-02T19:01:48Z</time></trkpt><trkpt lat="59.5586532634" lon="31.2703061476"><ele>234.22</ele><time>2026-09-02T19:01:49Z</time></trkpt><trkpt lat="59.5586532634" lon="31.2703061476"><ele>234.22</ele><time>2026-09-02T19:01:50Z</time></trkpt><trkpt lat="59.5586532634" lon="31.2703061476"><ele>234.22</ele><time>2026-09-02T19:01:51Z</time></trkpt><trkpt lat="59.5586532634" lon="31.2703061476"><ele>234.22</ele><time>2026-09-02T19:01:52Z</time></trkpt><trkpt lat="59.5586532634" lon="31.2703061476"><ele>234.22</ele><time>2026-09-02T19:01:53Z</time></trkpt><trkpt lat="59.5586532634" lon="31.2703061476"><ele>234.22</ele><time>2026-09-02T19:01:54Z</time></trkpt><trkpt lat="59.5586532634" lon="31.2703061476"><ele>234.22</ele><time>2026-09-02T19:01:55Z</time></trkpt><trkpt lat="59.5586532634" lon="31.2703061476"><ele>234.22</ele><time>2026-09-02T19:01:56Z</time></trkpt><trkpt lat="59.5586532634" lon="31.2703061476"><ele>234.22</ele><time>2026-09-02T19:01:57Z</time></trkpt><trkpt lat="59.5586532634" lon="31.2703061476"><ele>234.22</ele><time>2026-09-02T19:01:58Z</time></trkpt><trkpt lat="59.5586532634" lon="31.2703061476"><ele>234.22</ele><time>2026-09-02T19:01:59Z</time></trkpt><trkpt lat="59.5586532634" lon="31.2703061476"><ele>234.22</ele><time>2026-09-02T19:02:00Z</time></trkpt><trkpt lat="59.5586532634" lon="31.2703061476"><ele>234.22</ele><time>2026-09-02T19:02:01Z</time></trkpt><trkpt lat="59.5586532634" lon="31.2703061476"><ele>234.22</ele><time>2026-09-02T19:02:02Z</time></trkpt><trkpt lat="59.5586532634" lon="31.2703061476"><ele>234.22</ele><time>2026-09-02T19:02:03Z</time></trkpt><trkpt lat="59.5586532634" lon="31.2703061476"><ele>234.22</ele><time>2026-09-02T19:02:04Z</time></trkpt><trkpt lat="59.5586532634" lon="31.2703061476"><ele>234.22</ele><time>2026-09-02T19:02:05Z</time></trkpt><trkpt lat="59.5586532634" lon="31.2703061476"><ele>234.22</ele><time>2026-09-02T19:02:06Z</time></trkpt><trkpt lat="59.5586532634" lon="31.2703061476"><ele>234.22</ele><time>2026-09-02T19:02:07Z</time></trkpt><trkpt lat="59.5586532634" lon="31.2703061476"><ele>234.22</ele><time>2026-09-02T19:02:08Z</time></trkpt><trkpt lat="59.5586532634" lon="31.2703061476"><ele>234.22</ele><time>2026-09-02T19:02:09Z</time></trkpt><trkpt lat="59.5586532634" lon="31.2703061476"><ele>234.22</ele><time>2026-09-02T19:02:10Z</time></trkpt><trkpt lat="59.5586532634" lon="31.2703061476"><ele>234.22</ele><time>2026-09-02T19:02:11Z</time></trkpt><trkpt lat="59.5586901437" lon="31.2702500727"><ele>234.22</ele><time>2026-09-02T19:02:12Z</time></trkpt><trkpt lat="59.5586938318" lon="31.2702455465"><ele>234.22</ele><time>2026-09-02T19:02:13Z</time></trkpt><trkpt lat="59.5586977713" lon="31.2702407688"><ele>234.22</ele><time>2026-09-02T19:02:14Z</time></trkpt><trkpt lat="59.5587007888" lon="31.2702388410"><ele>234.22</ele><time>2026-09-02T19:02:15Z</time></trkpt><trkpt lat="59.5587021299" lon="31.2702348176"><ele>234.22</ele><time>2026-09-02T19:02:16Z</time></trkpt><trkpt lat="59.5587037224" lon="31.2702304590"><ele>233.74</ele><time>2026-09-02T19:02:17Z</time></trkpt><trkpt lat="59.5587037224" lon="31.2702304590"><ele>233.74</ele><time>2026-09-02T19:02:18Z</time></trkpt><trkpt lat="59.5587037224" lon="31.2702304590"><ele>234.22</ele><time>2026-09-02T19:02:19Z</time></trkpt><trkpt lat="59.5587037224" lon="31.2702304590"><ele>234.22</ele><time>2026-09-02T19:02:20Z</time></trkpt><trkpt lat="59.5587037224" lon="31.2702304590"><ele>234.22</ele><time>2026-09-02T19:02:21Z</time></trkpt><trkpt lat="59.5587037224" lon="31.2702304590"><ele>234.22</ele><time>2026-09-02T19:02:22Z</time></trkpt><trkpt lat="59.5587037224" lon="31.2702304590"><ele>234.22</ele><time>2026-09-02T19:02:23Z</time></trkpt><trkpt lat="59.5587037224" lon="31.2702304590"><ele>234.22</ele><time>2026-09-02T19:02:24Z</time></trkpt><trkpt lat="59.5587037224" lon="31.2702304590"><ele>234.22</ele><time>2026-09-02T19:02:25Z</time></trkpt><trkpt lat="59.5587037224" lon="31.2702304590"><ele>234.22</ele><time>2026-09-02T19:02:26Z</time></trkpt><trkpt lat="59.5587037224" lon="31.2702304590"><ele>233.74</ele><time>2026-09-02T19:02:27Z</time></trkpt><trkpt lat="59.5587037224" lon="31.2702304590"><ele>233.74</ele><time>2026-09-02T19:02:28Z</time></trkpt><trkpt lat="59.5587037224" lon="31.2702304590"><ele>233.74</ele><time>2026-09-02T19:02:29Z</time></trkpt><trkpt lat="59.5587037224" lon="31.2702304590"><ele>233.74</ele><time>2026-09-02T19:02:30Z</time></trkpt><trkpt lat="59.5587037224" lon="31.2702304590"><ele>233.74</ele><time>2026-09-02T19:02:31Z</time></trkpt><trkpt lat="59.5587037224" lon="31.2702304590"><ele>233.74</ele><time>2026-09-02T19:02:32Z</time></trkpt><trkpt lat="59.5587037224" lon="31.2702304590"><ele>233.74</ele><time>2026-09-02T19:02:33Z</time></trkpt><trkpt lat="59.5587037224" lon="31.2702304590"><ele>233.74</ele><time>2026-09-02T19:02:34Z</time></trkpt><trkpt lat="59.5587037224" lon="31.2702304590"><ele>233.74</ele><time>2026-09-02T19:02:35Z</time></trkpt><trkpt lat="59.5587037224" lon="31.2702304590"><ele>233.74</ele><time>2026-09-02T19:02:36Z</time></trkpt><trkpt lat="59.5587037224" lon="31.2702304590"><ele>233.74</ele><time>2026-09-02T19:02:37Z</time></trkpt><trkpt lat="59.5587037224" lon="31.2702304590"><ele>233.74</ele><time>2026-09-02T19:02:38Z</time></trkpt><trkpt lat="59.5587037224" lon="31.2702304590"><ele>233.74</ele><time>2026-09-02T19:02:39Z</time></trkpt><trkpt lat="59.5587037224" lon="31.2702304590"><ele>233.74</ele><time>2026-09-02T19:02:40Z</time></trkpt><trkpt lat="59.5587037224" lon="31.2702304590"><ele>233.74</ele><time>2026-09-02T19:02:41Z</time></trkpt><trkpt lat="59.5587037224" lon="31.2702304590"><ele>233.74</ele><time>2026-09-02T19:02:42Z</time></trkpt><trkpt lat="59.5587037224" lon="31.2702304590"><ele>233.74</ele><time>2026-09-02T19:02:43Z</time></trkpt><trkpt lat="59.5587037224" lon="31.2702304590"><ele>233.74</ele><time>2026-09-02T19:02:44Z</time></trkpt><trkpt lat="59.5587037224" lon="31.2702304590"><ele>233.74</ele><time>2026-09-02T19:02:45Z</time></trkpt><trkpt lat="59.5587037224" lon="31.2702304590"><ele>233.74</ele><time>2026-09-02T19:02:46Z</time></trkpt><trkpt lat="59.5587037224" lon="31.2702304590"><ele>233.26</ele><time>2026-09-02T19:02:47Z</time></trkpt><trkpt lat="59.5587037224" lon="31.2702304590"><ele>233.26</ele><time>2026-09-02T19:02:48Z</time></trkpt><trkpt lat="59.5587037224" lon="31.2702304590"><ele>233.26</ele><time>2026-09-02T19:02:49Z</time></trkpt><trkpt lat="59.5587037224" lon="31.2702304590"><ele>233.26</ele><time>2026-09-02T19:02:50Z</time></trkpt><trkpt lat="59.5587037224" lon="31.2702304590"><ele>233.26</ele><time>2026-09-02T19:02:51Z</time></trkpt><trkpt lat="59.5587037224" lon="31.2702304590"><ele>233.26</ele><time>2026-09-02T19:02:52Z</time></trkpt><trkpt lat="59.5587037224" lon="31.2702304590"><ele>233.26</ele><time>2026-09-02T19:02:53Z</time></trkpt><trkpt lat="59.5587037224" lon="31.2702304590"><ele>233.74</ele><time>2026-09-02T19:02:54Z</time></trkpt><trkpt lat="59.5587037224" lon="31.2702304590"><ele>233.74</ele><time>2026-09-02T19:02:55Z</time></trkpt><trkpt lat="59.5587037224" lon="31.2702304590"><ele>233.74</ele><time>2026-09-02T19:02:56Z</time></trkpt><trkpt lat="59.5587037224" lon="31.2702304590"><ele>233.74</ele><time>2026-09-02T19:02:57Z</time></trkpt><trkpt lat="59.5587037224" lon="31.2702304590"><ele>233.74</ele><time>2026-09-02T19:02:58Z</time></trkpt><trkpt lat="59.5587037224" lon="31.2702304590"><ele>233.74</ele><time>2026-09-02T19:02:59Z</time></trkpt><trkpt lat="59.5587037224" lon="31.2702304590"><ele>233.74</ele><time>2026-09-02T19:03:00Z</time></trkpt><trkpt lat="59.5587037224" lon="31.2702304590"><ele>233.74</ele><time>2026-09-02T19:03:01Z</time></trkpt><trkpt lat="59.5587037224" lon="31.2702304590"><ele>233.74</ele><time>2026-09-02T19:03:02Z</time></trkpt><trkpt lat="59.5587037224" lon="31.2702304590"><ele>233.74</ele><time>2026-09-02T19:03:03Z</time></trkpt><trkpt lat="59.5587037224" lon="31.2702304590"><ele>233.74</ele><time>2026-09-02T19:03:04Z</time></trkpt><trkpt lat="59.5587037224" lon="31.2702304590"><ele>233.74</ele><time>2026-09-02T19:03:05Z</time></trkpt><trkpt lat="59.5587037224" lon="31.2702304590"><ele>233.74</ele><time>2026-09-02T19:03:06Z</time></trkpt><trkpt lat="59.5587126911" lon="31.2701743841"><ele>233.74</ele><time>2026-09-02T19:03:07Z</time></trkpt><trkpt lat="59.5587135293" lon="31.2701664213"><ele>233.74</ele><time>2026-09-02T19:03:08Z</time></trkpt><trkpt lat="59.5587154571" lon="31.2701602187"><ele>233.74</ele><time>2026-09-02T19:03:09Z</time></trkpt><trkpt lat="59.5587176364" lon="31.2701532617"><ele>233.74</ele><time>2026-09-02T19:03:10Z</time></trkpt><trkpt lat="59.5587172173" lon="31.2701507472"><ele>233.74</ele><time>2026-09-02T19:03:11Z</time></trkpt><trkpt lat="59.5587174688" lon="31.2701471429"><ele>233.74</ele><time>2026-09-02T19:03:12Z</time></trkpt><trkpt lat="59.5587174688" lon="31.2701471429"><ele>233.74</ele><time>2026-09-02T19:03:13Z</time></trkpt><trkpt lat="59.5587174688" lon="31.2701471429"><ele>233.74</ele><time>2026-09-02T19:03:14Z</time></trkpt><trkpt lat="59.5587174688" lon="31.2701471429"><ele>233.74</ele><time>2026-09-02T19:03:15Z</time></trkpt><trkpt lat="59.5587174688" lon="31.2701471429"><ele>233.74</ele><time>2026-09-02T19:03:16Z</time></trkpt><trkpt lat="59.5587174688" lon="31.2701471429"><ele>233.74</ele><time>2026-09-02T19:03:17Z</time></trkpt><trkpt lat="59.5587174688" lon="31.2701471429"><ele>233.74</ele><time>2026-09-02T19:03:18Z</time></trkpt><trkpt lat="59.5587174688" lon="31.2701471429"><ele>233.74</ele><time>2026-09-02T19:03:19Z</time></trkpt><trkpt lat="59.5587174688" lon="31.2701471429"><ele>233.74</ele><time>2026-09-02T19:03:20Z</time></trkpt><trkpt lat="59.5587174688" lon="31.2701471429"><ele>233.74</ele><time>2026-09-02T19:03:21Z</time></trkpt><trkpt lat="59.5587174688" lon="31.2701471429"><ele>233.74</ele><time>2026-09-02T19:03:22Z</time></trkpt><trkpt lat="59.5587174688" lon="31.2701471429"><ele>233.74</ele><time>2026-09-02T19:03:23Z</time></trkpt><trkpt lat="59.5587174688" lon="31.2701471429"><ele>233.74</ele><time>2026-09-02T19:03:24Z</time></trkpt><trkpt lat="59.5587174688" lon="31.2701471429"><ele>233.74</ele><time>2026-09-02T19:03:25Z</time></trkpt><trkpt lat="59.5587174688" lon="31.2701471429"><ele>233.74</ele><time>2026-09-02T19:03:26Z</time></trkpt><trkpt lat="59.5587174688" lon="31.2701471429"><ele>233.74</ele><time>2026-09-02T19:03:27Z</time></trkpt><trkpt lat="59.5587174688" lon="31.2701471429"><ele>233.74</ele><time>2026-09-02T19:03:28Z</time></trkpt><trkpt lat="59.5587174688" lon="31.2701471429"><ele>233.74</ele><time>2026-09-02T19:03:29Z</time></trkpt><trkpt lat="59.5587174688" lon="31.2701471429"><ele>233.74</ele><time>2026-09-02T19:03:30Z</time></trkpt><trkpt lat="59.5587174688" lon="31.2701471429"><ele>233.74</ele><time>2026-09-02T19:03:31Z</time></trkpt><trkpt lat="59.5587174688" lon="31.2701471429"><ele>234.22</ele><time>2026-09-02T19:03:32Z</time></trkpt><trkpt lat="59.5587174688" lon="31.2701471429"><ele>234.22</ele><time>2026-09-02T19:03:33Z</time></trkpt><trkpt lat="59.5587174688" lon="31.2701471429"><ele>234.22</ele><time>2026-09-02T19:03:34Z</time></trkpt><trkpt lat="59.5587174688" lon="31.2701471429"><ele>234.22</ele><time>2026-09-02T19:03:35Z</time></trkpt><trkpt lat="59.5587174688" lon="31.2701471429"><ele>234.22</ele><time>2026-09-02T19:03:36Z</time></trkpt><trkpt lat="59.5587174688" lon="31.2701471429"><ele>234.22</ele><time>2026-09-02T19:03:37Z</time></trkpt><trkpt lat="59.5587174688" lon="31.2701471429"><ele>234.22</ele><time>2026-09-02T19:03:38Z</time></trkpt><trkpt lat="59.5587174688" lon="31.2701471429"><ele>234.22</ele><time>2026-09-02T19:03:39Z</time></trkpt><trkpt lat="59.5587174688" lon="31.2701471429"><ele>234.22</ele><time>2026-09-02T19:03:40Z</time></trkpt><trkpt lat="59.5587174688" lon="31.2701471429"><ele>234.22</ele><time>2026-09-02T19:03:41Z</time></trkpt><trkpt lat="59.5587174688" lon="31.2701471429"><ele>234.22</ele><time>2026-09-02T19:03:42Z</time></trkpt><trkpt lat="59.5587174688" lon="31.2701471429"><ele>234.70</ele><time>2026-09-02T19:03:43Z</time></trkpt><trkpt lat="59.5587174688" lon="31.2701471429"><ele>234.70</ele><time>2026-09-02T19:03:44Z</time></trkpt><trkpt lat="59.5587174688" lon="31.2701471429"><ele>234.70</ele><time>2026-09-02T19:03:45Z</time></trkpt><trkpt lat="59.5587174688" lon="31.2701471429"><ele>234.70</ele><time>2026-09-02T19:03:46Z</time></trkpt><trkpt lat="59.5587174688" lon="31.2701471429"><ele>234.70</ele><time>2026-09-02T19:03:47Z</time></trkpt><trkpt lat="59.5587174688" lon="31.2701471429"><ele>234.70</ele><time>2026-09-02T19:03:48Z</time></trkpt><trkpt lat="59.5587868709" lon="31.2700555287"><ele>234.70</ele><time>2026-09-02T19:03:49Z</time></trkpt><trkpt lat="59.5587948337" lon="31.2700501643"><ele>234.70</ele><time>2026-09-02T19:03:50Z</time></trkpt><trkpt lat="59.5588016231" lon="31.2700414471"><ele>234.70</ele><time>2026-09-02T19:03:51Z</time></trkpt><trkpt lat="59.5588086639" lon="31.2700347416"><ele>235.18</ele><time>2026-09-02T19:03:52Z</time></trkpt><trkpt lat="59.5588110946" lon="31.2700290419"><ele>235.18</ele><time>2026-09-02T19:03:53Z</time></trkpt><trkpt lat="59.5588199794" lon="31.2700199895"><ele>235.18</ele><time>2026-09-02T19:03:54Z</time></trkpt><trkpt lat="59.5588252600" lon="31.2700093444"><ele>235.18</ele><time>2026-09-02T19:03:55Z</time></trkpt><trkpt lat="59.5588323846" lon="31.2699985318"><ele>235.18</ele><time>2026-09-02T19:03:56Z</time></trkpt><trkpt lat="59.5588369947" lon="31.2699925806"><ele>235.18</ele><time>2026-09-02T19:03:57Z</time></trkpt><trkpt lat="59.5588413533" lon="31.2699823547"><ele>235.18</ele><time>2026-09-02T19:03:58Z</time></trkpt><trkpt lat="59.5588438679" lon="31.2699698657"><ele>235.18</ele><time>2026-09-02T19:03:59Z</time></trkpt><trkpt lat="59.5588473883" lon="31.2699622381"><ele>235.18</ele><time>2026-09-02T19:04:00Z</time></trkpt><trkpt lat="59.5588531718" lon="31.2699542753"><ele>235.18</ele><time>2026-09-02T19:04:01Z</time></trkpt><trkpt lat="59.5588603802" lon="31.2699461449"><ele>235.18</ele><time>2026-09-02T19:04:02Z</time></trkpt><trkpt lat="59.5588665828" lon="31.2699372601"><ele>235.18</ele><time>2026-09-02T19:04:03Z</time></trkpt><trkpt lat="59.5588769764" lon="31.2699259445"><ele>235.18</ele><time>2026-09-02T19:04:04Z</time></trkpt><trkpt lat="59.5588822570" lon="31.2699160539"><ele>235.18</ele><time>2026-09-02T19:04:05Z</time></trkpt><trkpt lat="59.5588811673" lon="31.2699186523"><ele>235.18</ele><time>2026-09-02T19:04:06Z</time></trkpt><trkpt lat="59.5588844363" lon="31.2699139584"><ele>235.18</ele><time>2026-09-02T19:04:07Z</time></trkpt><trkpt lat="59.5588864479" lon="31.2699100189"><ele>235.66</ele><time>2026-09-02T19:04:08Z</time></trkpt><trkpt lat="59.5588912256" lon="31.2699063309"><ele>235.66</ele><time>2026-09-02T19:04:09Z</time></trkpt><trkpt lat="59.5588939916" lon="31.2699048221"><ele>235.66</ele><time>2026-09-02T19:04:10Z</time></trkpt><trkpt lat="59.5588939916" lon="31.2699048221"><ele>236.14</ele><time>2026-09-02T19:04:11Z</time></trkpt><trkpt lat="59.5589053910" lon="31.2698861305"><ele>236.14</ele><time>2026-09-02T19:04:12Z</time></trkpt><trkpt lat="59.5589111745" lon="31.2698798440"><ele>236.14</ele><time>2026-09-02T19:04:13Z</time></trkpt><trkpt lat="59.5589157846" lon="31.2698708754"><ele>236.14</ele><time>2026-09-02T19:04:14Z</time></trkpt><trkpt lat="59.5589206461" lon="31.2698684447"><ele>236.14</ele><time>2026-09-02T19:04:15Z</time></trkpt><trkpt lat="59.5589265972" lon="31.2698644213"><ele>236.14</ele><time>2026-09-02T19:04:16Z</time></trkpt><trkpt lat="59.5589339733" lon="31.2698573805"><ele>236.14</ele><time>2026-09-02T19:04:17Z</time></trkpt><trkpt lat="59.5589376613" lon="31.2698502559"><ele>236.14</ele><time>2026-09-02T19:04:18Z</time></trkpt><trkpt lat="59.5589447860" lon="31.2698427960"><ele>236.14</ele><time>2026-09-02T19:04:19Z</time></trkpt><trkpt lat="59.5589519944" lon="31.2698356714"><ele>236.14</ele><time>2026-09-02T19:04:20Z</time></trkpt><trkpt lat="59.5589587837" lon="31.2698229309"><ele>236.14</ele><time>2026-09-02T19:04:21Z</time></trkpt><trkpt lat="59.5589659922" lon="31.2698121183"><ele>236.14</ele><time>2026-09-02T19:04:22Z</time></trkpt><trkpt lat="59.5589702670" lon="31.2698029820"><ele>236.62</ele><time>2026-09-02T19:04:23Z</time></trkpt><trkpt lat="59.5589740388" lon="31.2697934266"><ele>236.62</ele><time>2026-09-02T19:04:24Z</time></trkpt><trkpt lat="59.5589770563" lon="31.2697854638"><ele>236.62</ele><time>2026-09-02T19:04:25Z</time></trkpt><trkpt lat="59.5589793194" lon="31.2697729748"><ele>236.62</ele><time>2026-09-02T19:04:26Z</time></trkpt><trkpt lat="59.5589812472" lon="31.2697593961"><ele>236.62</ele><time>2026-09-02T19:04:27Z</time></trkpt><trkpt lat="59.5589812472" lon="31.2697593961"><ele>236.62</ele><time>2026-09-02T19:04:28Z</time></trkpt><trkpt lat="59.5589859411" lon="31.2697274610"><ele>236.62</ele><time>2026-09-02T19:04:29Z</time></trkpt><trkpt lat="59.5589872822" lon="31.2697144691"><ele>236.62</ele><time>2026-09-02T19:04:30Z</time></trkpt><trkpt lat="59.5589902997" lon="31.2697073445"><ele>236.62</ele><time>2026-09-02T19:04:31Z</time></trkpt><trkpt lat="59.5589937363" lon="31.2697016448"><ele>236.62</ele><time>2026-09-02T19:04:32Z</time></trkpt><trkpt lat="59.5589986816" lon="31.2696986273"><ele>237.10</ele><time>2026-09-02T19:04:33Z</time></trkpt><trkpt lat="59.5589986816" lon="31.2696986273"><ele>237.10</ele><time>2026-09-02T19:04:34Z</time></trkpt><trkpt lat="59.5589986816" lon="31.2696986273"><ele>237.10</ele><time>2026-09-02T19:04:35Z</time></trkpt><trkpt lat="59.5589986816" lon="31.2696986273"><ele>237.10</ele><time>2026-09-02T19:04:36Z</time></trkpt><trkpt lat="59.5590242464" lon="31.2696862221"><ele>237.10</ele><time>2026-09-02T19:04:37Z</time></trkpt><trkpt lat="59.5590314548" lon="31.2696829531"><ele>237.10</ele><time>2026-09-02T19:04:38Z</time></trkpt><trkpt lat="59.5590351429" lon="31.2696761638"><ele>237.10</ele><time>2026-09-02T19:04:39Z</time></trkpt><trkpt lat="59.5590426866" lon="31.2696664408"><ele>237.10</ele><time>2026-09-02T19:04:40Z</time></trkpt><trkpt lat="59.5590464585" lon="31.2696596514"><ele>237.58</ele><time>2026-09-02T19:04:41Z</time></trkpt><trkpt lat="59.5590522420" lon="31.2696528621"><ele>237.58</ele><time>2026-09-02T19:04:42Z</time></trkpt><trkpt lat="59.5590528287" lon="31.2696480844"><ele>237.58</ele><time>2026-09-02T19:04:43Z</time></trkpt><trkpt lat="59.5590505656" lon="31.2696438935"><ele>237.58</ele><time>2026-09-02T19:04:44Z</time></trkpt><trkpt lat="59.5590517391" lon="31.2696411274"><ele>237.58</ele><time>2026-09-02T19:04:45Z</time></trkpt><trkpt lat="59.5590517391" lon="31.2696411274"><ele>237.58</ele><time>2026-09-02T19:04:46Z</time></trkpt><trkpt lat="59.5590517391" lon="31.2696411274"><ele>237.58</ele><time>2026-09-02T19:04:47Z</time></trkpt><trkpt lat="59.5590517391" lon="31.2696411274"><ele>237.58</ele><time>2026-09-02T19:04:48Z</time></trkpt><trkpt lat="59.5590517391" lon="31.2696411274"><ele>237.58</ele><time>2026-09-02T19:04:49Z</time></trkpt><trkpt lat="59.5590517391" lon="31.2696411274"><ele>237.58</ele><time>2026-09-02T19:04:50Z</time></trkpt><trkpt lat="59.5590692572" lon="31.2696391996"><ele>237.58</ele><time>2026-09-02T19:04:51Z</time></trkpt><trkpt lat="59.5590753760" lon="31.2696366850"><ele>237.58</ele><time>2026-09-02T19:04:52Z</time></trkpt><trkpt lat="59.5590853505" lon="31.2696312368"><ele>237.58</ele><time>2026-09-02T19:04:53Z</time></trkpt><trkpt lat="59.5590935647" lon="31.2696228549"><ele>237.58</ele><time>2026-09-02T19:04:54Z</time></trkpt><trkpt lat="59.5591002703" lon="31.2696142215"><ele>237.58</ele><time>2026-09-02T19:04:55Z</time></trkpt><trkpt lat="59.5591075625" lon="31.2696052529"><ele>237.58</ele><time>2026-09-02T19:04:56Z</time></trkpt><trkpt lat="59.5591134299" lon="31.2695977930"><ele>237.58</ele><time>2026-09-02T19:04:57Z</time></trkpt><trkpt lat="59.5591209736" lon="31.2695843820"><ele>237.58</ele><time>2026-09-02T19:04:58Z</time></trkpt><trkpt lat="59.5591320377" lon="31.2695736531"><ele>237.58</ele><time>2026-09-02T19:04:59Z</time></trkpt><trkpt lat="59.5591387432" lon="31.2695588171"><ele>237.58</ele><time>2026-09-02T19:05:00Z</time></trkpt><trkpt lat="59.5591446944" lon="31.2695425563"><ele>238.06</ele><time>2026-09-02T19:05:01Z</time></trkpt><trkpt lat="59.5591505617" lon="31.2695304863"><ele>238.06</ele><time>2026-09-02T19:05:02Z</time></trkpt><trkpt lat="59.5591572672" lon="31.2695158180"><ele>238.06</ele><time>2026-09-02T19:05:03Z</time></trkpt><trkpt lat="59.5591621287" lon="31.2695012335"><ele>238.06</ele><time>2026-09-02T19:05:04Z</time></trkpt><trkpt lat="59.5591712650" lon="31.2694867328"><ele>238.06</ele><time>2026-09-02T19:05:05Z</time></trkpt><trkpt lat="59.5591761265" lon="31.2694742437"><ele>238.06</ele><time>2026-09-02T19:05:06Z</time></trkpt><trkpt lat="59.5591832511" lon="31.2694636825"><ele>238.06</ele><time>2026-09-02T19:05:07Z</time></trkpt><trkpt lat="59.5591889508" lon="31.2694483437"><ele>238.06</ele><time>2026-09-02T19:05:08Z</time></trkpt><trkpt lat="59.5591966622" lon="31.2694332562"><ele>238.06</ele><time>2026-09-02T19:05:09Z</time></trkpt><trkpt lat="59.5591998473" lon="31.2694206834"><ele>238.06</ele><time>2026-09-02T19:05:10Z</time></trkpt><trkpt lat="59.5591999311" lon="31.2694055960"><ele>238.06</ele><time>2026-09-02T19:05:11Z</time></trkpt><trkpt lat="59.5592012722" lon="31.2693953700"><ele>238.06</ele><time>2026-09-02T19:05:12Z</time></trkpt><trkpt lat="59.5592017751" lon="31.2693850603"><ele>238.06</ele><time>2026-09-02T19:05:13Z</time></trkpt><trkpt lat="59.5592047926" lon="31.2693742476"><ele>238.06</ele><time>2026-09-02T19:05:14Z</time></trkpt><trkpt lat="59.5592073910" lon="31.2693535443"><ele>238.06</ele><time>2026-09-02T19:05:15Z</time></trkpt><trkpt lat="59.5592095703" lon="31.2693358585"><ele>238.06</ele><time>2026-09-02T19:05:16Z</time></trkpt><trkpt lat="59.5592110790" lon="31.2693232857"><ele>238.06</ele><time>2026-09-02T19:05:17Z</time></trkpt><trkpt lat="59.5592159405" lon="31.2693064380"><ele>238.06</ele><time>2026-09-02T19:05:18Z</time></trkpt><trkpt lat="59.5592221431" lon="31.2692910992"><ele>238.06</ele><time>2026-09-02T19:05:19Z</time></trkpt><trkpt lat="59.5592253283" lon="31.2692797836"><ele>238.06</ele><time>2026-09-02T19:05:20Z</time></trkpt><trkpt lat="59.5592304412" lon="31.2692603376"><ele>238.06</ele><time>2026-09-02T19:05:21Z</time></trkpt><trkpt lat="59.5592349675" lon="31.2692434900"><ele>238.06</ele><time>2026-09-02T19:05:22Z</time></trkpt><trkpt lat="59.5592387393" lon="31.2692291569"><ele>238.06</ele><time>2026-09-02T19:05:23Z</time></trkpt><trkpt lat="59.5592438523" lon="31.2692140695"><ele>238.06</ele><time>2026-09-02T19:05:24Z</time></trkpt><trkpt lat="59.5592491329" lon="31.2691973895"><ele>238.06</ele><time>2026-09-02T19:05:25Z</time></trkpt><trkpt lat="59.5592545811" lon="31.2691792846"><ele>238.06</ele><time>2026-09-02T19:05:26Z</time></trkpt><trkpt lat="59.5592635497" lon="31.2691639457"><ele>237.58</ele><time>2026-09-02T19:05:27Z</time></trkpt><trkpt lat="59.5592712611" lon="31.2691492774"><ele>237.58</ele><time>2026-09-02T19:05:28Z</time></trkpt><trkpt lat="59.5592780504" lon="31.2691382971"><ele>237.58</ele><time>2026-09-02T19:05:29Z</time></trkpt><trkpt lat="59.5592875220" lon="31.2691270653"><ele>237.58</ele><time>2026-09-02T19:05:30Z</time></trkpt><trkpt lat="59.5592933893" lon="31.2691126484"><ele>237.58</ele><time>2026-09-02T19:05:31Z</time></trkpt><trkpt lat="59.5592971612" lon="31.2690993212"><ele>237.58</ele><time>2026-09-02T19:05:32Z</time></trkpt><trkpt lat="59.5593028609" lon="31.2690853234"><ele>237.58</ele><time>2026-09-02T19:05:33Z</time></trkpt><trkpt lat="59.5593081415" lon="31.2690699846"><ele>237.58</ele><time>2026-09-02T19:05:34Z</time></trkpt><trkpt lat="59.5593131706" lon="31.2690596748"><ele>237.58</ele><time>2026-09-02T19:05:35Z</time></trkpt><trkpt lat="59.5593209658" lon="31.2690480240"><ele>237.58</ele><time>2026-09-02T19:05:36Z</time></trkpt><trkpt lat="59.5593279228" lon="31.2690421566"><ele>237.58</ele><time>2026-09-02T19:05:37Z</time></trkpt><trkpt lat="59.5593365561" lon="31.2690410670"><ele>237.58</ele><time>2026-09-02T19:05:38Z</time></trkpt><trkpt lat="59.5593430940" lon="31.2690410670"><ele>237.58</ele><time>2026-09-02T19:05:39Z</time></trkpt><trkpt lat="59.5593499672" lon="31.2690421566"><ele>237.58</ele><time>2026-09-02T19:05:40Z</time></trkpt><trkpt lat="59.5593576785" lon="31.2690396421"><ele>237.58</ele><time>2026-09-02T19:05:41Z</time></trkpt><trkpt lat="59.5593667310" lon="31.2690342776"><ele>237.58</ele><time>2026-09-02T19:05:42Z</time></trkpt><trkpt lat="59.5593753643" lon="31.2690284941"><ele>237.58</ele><time>2026-09-02T19:05:43Z</time></trkpt><trkpt lat="59.5593825728" lon="31.2690213695"><ele>237.58</ele><time>2026-09-02T19:05:44Z</time></trkpt><trkpt lat="59.5593895297" lon="31.2690171786"><ele>237.58</ele><time>2026-09-02T19:05:45Z</time></trkpt><trkpt lat="59.5593944751" lon="31.2690098863"><ele>237.58</ele><time>2026-09-02T19:05:46Z</time></trkpt><trkpt lat="59.5594030246" lon="31.2690014206"><ele>237.58</ele><time>2026-09-02T19:05:47Z</time></trkpt><trkpt lat="59.5594090596" lon="31.2689960562"><ele>237.58</ele><time>2026-09-02T19:05:48Z</time></trkpt><trkpt lat="59.5594174415" lon="31.2689951342"><ele>237.58</ele><time>2026-09-02T19:05:49Z</time></trkpt><trkpt lat="59.5594223868" lon="31.2689898536"><ele>238.06</ele><time>2026-09-02T19:05:50Z</time></trkpt><trkpt lat="59.5594290923" lon="31.2689848244"><ele>238.06</ele><time>2026-09-02T19:05:51Z</time></trkpt><trkpt lat="59.5594345406" lon="31.2689764425"><ele>238.06</ele><time>2026-09-02T19:05:52Z</time></trkpt><trkpt lat="59.5594415814" lon="31.2689627800"><ele>238.54</ele><time>2026-09-02T19:05:53Z</time></trkpt><trkpt lat="59.5594473649" lon="31.2689544819"><ele>238.54</ele><time>2026-09-02T19:05:54Z</time></trkpt><trkpt lat="59.5594536513" lon="31.2689450942"><ele>239.02</ele><time>2026-09-02T19:05:55Z</time></trkpt><trkpt lat="59.5594583452" lon="31.2689308450"><ele>239.02</ele><time>2026-09-02T19:05:56Z</time></trkpt><trkpt lat="59.5594690740" lon="31.2689162605"><ele>239.02</ele><time>2026-09-02T19:05:57Z</time></trkpt><trkpt lat="59.5594748575" lon="31.2689059507"><ele>239.02</ele><time>2026-09-02T19:05:58Z</time></trkpt><trkpt lat="59.5594806410" lon="31.2688942999"><ele>239.51</ele><time>2026-09-02T19:05:59Z</time></trkpt><trkpt lat="59.5594859216" lon="31.2688842416"><ele>239.51</ele><time>2026-09-02T19:06:00Z</time></trkpt><trkpt lat="59.5594900288" lon="31.2688774522"><ele>239.51</ele><time>2026-09-02T19:06:01Z</time></trkpt><trkpt lat="59.5594944712" lon="31.2688758597"><ele>239.51</ele><time>2026-09-02T19:06:02Z</time></trkpt><trkpt lat="59.5595013443" lon="31.2688681483"><ele>239.51</ele><time>2026-09-02T19:06:03Z</time></trkpt><trkpt lat="59.5595063735" lon="31.2688614428"><ele>239.51</ele><time>2026-09-02T19:06:04Z</time></trkpt><trkpt lat="59.5595091395" lon="31.2688494567"><ele>239.51</ele><time>2026-09-02T19:06:05Z</time></trkpt><trkpt lat="59.5595150907" lon="31.2688380573"><ele>239.51</ele><time>2026-09-02T19:06:06Z</time></trkpt><trkpt lat="59.5595198683" lon="31.2688289210"><ele>239.51</ele><time>2026-09-02T19:06:07Z</time></trkpt><trkpt lat="59.5595241431" lon="31.2688211259"><ele>239.51</ele><time>2026-09-02T19:06:08Z</time></trkpt><trkpt lat="59.5595284179" lon="31.2688124925"><ele>239.51</ele><time>2026-09-02T19:06:09Z</time></trkpt><trkpt lat="59.5595340338" lon="31.2688039429"><ele>239.51</ele><time>2026-09-02T19:06:10Z</time></trkpt><trkpt lat="59.5595382247" lon="31.2687990814"><ele>239.51</ele><time>2026-09-02T19:06:11Z</time></trkpt><trkpt lat="59.5595432539" lon="31.2687890232"><ele>239.51</ele><time>2026-09-02T19:06:12Z</time></trkpt><trkpt lat="59.5595474448" lon="31.2687789649"><ele>239.51</ele><time>2026-09-02T19:06:13Z</time></trkpt><trkpt lat="59.5595524739" lon="31.2687685713"><ele>239.51</ele><time>2026-09-02T19:06:14Z</time></trkpt><trkpt lat="59.5595544856" lon="31.2687603571"><ele>239.51</ele><time>2026-09-02T19:06:15Z</time></trkpt><trkpt lat="59.5595599338" lon="31.2687527295"><ele>239.51</ele><time>2026-09-02T19:06:16Z</time></trkpt><trkpt lat="59.5595623646" lon="31.2687417492"><ele>239.51</ele><time>2026-09-02T19:06:17Z</time></trkpt><trkpt lat="59.5595670585" lon="31.2687311880"><ele>239.51</ele><time>2026-09-02T19:06:18Z</time></trkpt><trkpt lat="59.5595703274" lon="31.2687194534"><ele>239.51</ele><time>2026-09-02T19:06:19Z</time></trkpt><trkpt lat="59.5595753565" lon="31.2687054556"><ele>239.51</ele><time>2026-09-02T19:06:20Z</time></trkpt><trkpt lat="59.5595809724" lon="31.2686948944"><ele>239.51</ele><time>2026-09-02T19:06:21Z</time></trkpt><trkpt lat="59.5595856663" lon="31.2686914578"><ele>239.51</ele><time>2026-09-02T19:06:22Z</time></trkpt><trkpt lat="59.5595890190" lon="31.2686873507"><ele>239.51</ele><time>2026-09-02T19:06:23Z</time></trkpt><trkpt lat="59.5595915336" lon="31.2686829921"><ele>239.51</ele><time>2026-09-02T19:06:24Z</time></trkpt><trkpt lat="59.5595930424" lon="31.2686775438"><ele>239.51</ele><time>2026-09-02T19:06:25Z</time></trkpt><trkpt lat="59.5595930424" lon="31.2686775438"><ele>239.51</ele><time>2026-09-02T19:06:26Z</time></trkpt><trkpt lat="59.5595930424" lon="31.2686775438"><ele>239.51</ele><time>2026-09-02T19:06:27Z</time></trkpt><trkpt lat="59.5595930424" lon="31.2686775438"><ele>239.51</ele><time>2026-09-02T19:06:28Z</time></trkpt><trkpt lat="59.5595930424" lon="31.2686775438"><ele>239.51</ele><time>2026-09-02T19:06:29Z</time></trkpt><trkpt lat="59.5595930424" lon="31.2686775438"><ele>239.51</ele><time>2026-09-02T19:06:30Z</time></trkpt><trkpt lat="59.5595930424" lon="31.2686775438"><ele>239.51</ele><time>2026-09-02T19:06:31Z</time></trkpt><trkpt lat="59.5595930424" lon="31.2686775438"><ele>239.51</ele><time>2026-09-02T19:06:32Z</time></trkpt><trkpt lat="59.5595930424" lon="31.2686775438"><ele>239.51</ele><time>2026-09-02T19:06:33Z</time></trkpt><trkpt lat="59.5595930424" lon="31.2686775438"><ele>239.51</ele><time>2026-09-02T19:06:34Z</time></trkpt><trkpt lat="59.5595930424" lon="31.2686775438"><ele>239.51</ele><time>2026-09-02T19:06:35Z</time></trkpt><trkpt lat="59.5595930424" lon="31.2686775438"><ele>239.51</ele><time>2026-09-02T19:06:36Z</time></trkpt><trkpt lat="59.5595930424" lon="31.2686775438"><ele>239.51</ele><time>2026-09-02T19:06:37Z</time></trkpt><trkpt lat="59.5595930424" lon="31.2686775438"><ele>239.51</ele><time>2026-09-02T19:06:38Z</time></trkpt><trkpt lat="59.5595930424" lon="31.2686775438"><ele>239.51</ele><time>2026-09-02T19:06:39Z</time></trkpt><trkpt lat="59.5595930424" lon="31.2686775438"><ele>239.51</ele><time>2026-09-02T19:06:40Z</time></trkpt><trkpt lat="59.5595930424" lon="31.2686775438"><ele>239.51</ele><time>2026-09-02T19:06:41Z</time></trkpt><trkpt lat="59.5595930424" lon="31.2686775438"><ele>239.51</ele><time>2026-09-02T19:06:42Z</time></trkpt><trkpt lat="59.5595930424" lon="31.2686775438"><ele>239.51</ele><time>2026-09-02T19:06:43Z</time></trkpt><trkpt lat="59.5595930424" lon="31.2686775438"><ele>239.51</ele><time>2026-09-02T19:06:44Z</time></trkpt><trkpt lat="59.5595930424" lon="31.2686775438"><ele>239.51</ele><time>2026-09-02T19:06:45Z</time></trkpt><trkpt lat="59.5595930424" lon="31.2686775438"><ele>239.99</ele><time>2026-09-02T19:06:46Z</time></trkpt><trkpt lat="59.5595930424" lon="31.2686775438"><ele>239.99</ele><time>2026-09-02T19:06:47Z</time></trkpt><trkpt lat="59.5595930424" lon="31.2686775438"><ele>239.99</ele><time>2026-09-02T19:06:48Z</time></trkpt><trkpt lat="59.5595930424" lon="31.2686775438"><ele>239.99</ele><time>2026-09-02T19:06:49Z</time></trkpt><trkpt lat="59.5595930424" lon="31.2686775438"><ele>239.99</ele><time>2026-09-02T19:06:50Z</time></trkpt><trkpt lat="59.5595930424" lon="31.2686775438"><ele>239.99</ele><time>2026-09-02T19:06:51Z</time></trkpt><trkpt lat="59.5595930424" lon="31.2686775438"><ele>239.99</ele><time>2026-09-02T19:06:52Z</time></trkpt><trkpt lat="59.5595930424" lon="31.2686775438"><ele>239.99</ele><time>2026-09-02T19:06:53Z</time></trkpt><trkpt lat="59.5595930424" lon="31.2686775438"><ele>239.99</ele><time>2026-09-02T19:06:54Z</time></trkpt><trkpt lat="59.5595930424" lon="31.2686775438"><ele>239.99</ele><time>2026-09-02T19:06:55Z</time></trkpt><trkpt lat="59.5595930424" lon="31.2686775438"><ele>239.99</ele><time>2026-09-02T19:06:56Z</time></trkpt><trkpt lat="59.5595930424" lon="31.2686775438"><ele>239.99</ele><time>2026-09-02T19:06:57Z</time></trkpt><trkpt lat="59.5595930424" lon="31.2686775438"><ele>239.99</ele><time>2026-09-02T19:06:58Z</time></trkpt><trkpt lat="59.5595930424" lon="31.2686775438"><ele>239.99</ele><time>2026-09-02T19:06:59Z</time></trkpt><trkpt lat="59.5595930424" lon="31.2686775438"><ele>239.99</ele><time>2026-09-02T19:07:00Z</time></trkpt><trkpt lat="59.5595930424" lon="31.2686775438"><ele>239.99</ele><time>2026-09-02T19:07:01Z</time></trkpt><trkpt lat="59.5595930424" lon="31.2686775438"><ele>239.99</ele><time>2026-09-02T19:07:02Z</time></trkpt><trkpt lat="59.5595930424" lon="31.2686775438"><ele>239.99</ele><time>2026-09-02T19:07:03Z</time></trkpt><trkpt lat="59.5595930424" lon="31.2686775438"><ele>239.99</ele><time>2026-09-02T19:07:04Z</time></trkpt><trkpt lat="59.5595930424" lon="31.2686775438"><ele>239.99</ele><time>2026-09-02T19:07:05Z</time></trkpt><trkpt lat="59.5595930424" lon="31.2686775438"><ele>239.99</ele><time>2026-09-02T19:07:06Z</time></trkpt><trkpt lat="59.5595930424" lon="31.2686775438"><ele>239.99</ele><time>2026-09-02T19:07:07Z</time></trkpt><trkpt lat="59.5595930424" lon="31.2686775438"><ele>239.99</ele><time>2026-09-02T19:07:08Z</time></trkpt><trkpt lat="59.5595930424" lon="31.2686775438"><ele>239.99</ele><time>2026-09-02T19:07:09Z</time></trkpt><trkpt lat="59.5595930424" lon="31.2686775438"><ele>239.99</ele><time>2026-09-02T19:07:10Z</time></trkpt><trkpt lat="59.5595930424" lon="31.2686775438"><ele>239.99</ele><time>2026-09-02T19:07:11Z</time></trkpt><trkpt lat="59.5595930424" lon="31.2686775438"><ele>239.99</ele><time>2026-09-02T19:07:12Z</time></trkpt><trkpt lat="59.5595930424" lon="31.2686775438"><ele>239.99</ele><time>2026-09-02T19:07:13Z</time></trkpt><trkpt lat="59.5595930424" lon="31.2686775438"><ele>239.99</ele><time>2026-09-02T19:07:14Z</time></trkpt><trkpt lat="59.5595930424" lon="31.2686775438"><ele>239.99</ele><time>2026-09-02T19:07:15Z</time></trkpt><trkpt lat="59.5595930424" lon="31.2686775438"><ele>239.99</ele><time>2026-09-02T19:07:16Z</time></trkpt><trkpt lat="59.5595930424" lon="31.2686775438"><ele>239.99</ele><time>2026-09-02T19:07:17Z</time></trkpt><trkpt lat="59.5595930424" lon="31.2686775438"><ele>239.99</ele><time>2026-09-02T19:07:18Z</time></trkpt><trkpt lat="59.5595930424" lon="31.2686775438"><ele>239.51</ele><time>2026-09-02T19:07:19Z</time></trkpt><trkpt lat="59.5595930424" lon="31.2686775438"><ele>239.51</ele><time>2026-09-02T19:07:20Z</time></trkpt><trkpt lat="59.5595930424" lon="31.2686775438"><ele>239.51</ele><time>2026-09-02T19:07:21Z</time></trkpt><trkpt lat="59.5595930424" lon="31.2686775438"><ele>239.51</ele><time>2026-09-02T19:07:22Z</time></trkpt><trkpt lat="59.5595930424" lon="31.2686775438"><ele>239.51</ele><time>2026-09-02T19:07:23Z</time></trkpt><trkpt lat="59.5595930424" lon="31.2686775438"><ele>239.51</ele><time>2026-09-02T19:07:24Z</time></trkpt><trkpt lat="59.5595930424" lon="31.2686775438"><ele>239.51</ele><time>2026-09-02T19:07:25Z</time></trkpt><trkpt lat="59.5595930424" lon="31.2686775438"><ele>239.51</ele><time>2026-09-02T19:07:26Z</time></trkpt><trkpt lat="59.5595930424" lon="31.2686775438"><ele>239.51</ele><time>2026-09-02T19:07:27Z</time></trkpt><trkpt lat="59.5595930424" lon="31.2686775438"><ele>239.51</ele><time>2026-09-02T19:07:28Z</time></trkpt><trkpt lat="59.5596217923" lon="31.2685018592"><ele>239.51</ele><time>2026-09-02T19:07:29Z</time></trkpt><trkpt lat="59.5596215408" lon="31.2684947345"><ele>239.51</ele><time>2026-09-02T19:07:30Z</time></trkpt><trkpt lat="59.5596211217" lon="31.2684893701"><ele>239.51</ele><time>2026-09-02T19:07:31Z</time></trkpt><trkpt lat="59.5596217923" lon="31.2684849277"><ele>239.51</ele><time>2026-09-02T19:07:32Z</time></trkpt><trkpt lat="59.5596217923" lon="31.2684849277"><ele>239.99</ele><time>2026-09-02T19:07:33Z</time></trkpt><trkpt lat="59.5596217923" lon="31.2684849277"><ele>239.99</ele><time>2026-09-02T19:07:34Z</time></trkpt><trkpt lat="59.5596217923" lon="31.2684849277"><ele>239.99</ele><time>2026-09-02T19:07:35Z</time></trkpt><trkpt lat="59.5596217923" lon="31.2684849277"><ele>239.99</ele><time>2026-09-02T19:07:36Z</time></trkpt><trkpt lat="59.5596217923" lon="31.2684849277"><ele>239.99</ele><time>2026-09-02T19:07:37Z</time></trkpt><trkpt lat="59.5596217923" lon="31.2684849277"><ele>239.99</ele><time>2026-09-02T19:07:38Z</time></trkpt><trkpt lat="59.5596217923" lon="31.2684849277"><ele>239.99</ele><time>2026-09-02T19:07:39Z</time></trkpt><trkpt lat="59.5596217923" lon="31.2684849277"><ele>240.47</ele><time>2026-09-02T19:07:40Z</time></trkpt><trkpt lat="59.5596217923" lon="31.2684849277"><ele>240.47</ele><time>2026-09-02T19:07:41Z</time></trkpt><trkpt lat="59.5596217923" lon="31.2684849277"><ele>240.95</ele><time>2026-09-02T19:07:42Z</time></trkpt><trkpt lat="59.5596217923" lon="31.2684849277"><ele>240.95</ele><time>2026-09-02T19:07:43Z</time></trkpt><trkpt lat="59.5596217923" lon="31.2684849277"><ele>240.95</ele><time>2026-09-02T19:07:44Z</time></trkpt><trkpt lat="59.5596217923" lon="31.2684849277"><ele>240.95</ele><time>2026-09-02T19:07:45Z</time></trkpt><trkpt lat="59.5596217923" lon="31.2684849277"><ele>240.95</ele><time>2026-09-02T19:07:46Z</time></trkpt><trkpt lat="59.5596217923" lon="31.2684849277"><ele>240.95</ele><time>2026-09-02T19:07:47Z</time></trkpt><trkpt lat="59.5596217923" lon="31.2684849277"><ele>240.95</ele><time>2026-09-02T19:07:48Z</time></trkpt><trkpt lat="59.5596217923" lon="31.2684849277"><ele>240.95</ele><time>2026-09-02T19:07:49Z</time></trkpt><trkpt lat="59.5596217923" lon="31.2684849277"><ele>240.95</ele><time>2026-09-02T19:07:50Z</time></trkpt><trkpt lat="59.5596217923" lon="31.2684849277"><ele>240.95</ele><time>2026-09-02T19:07:51Z</time></trkpt><trkpt lat="59.5596217923" lon="31.2684849277"><ele>240.95</ele><time>2026-09-02T19:07:52Z</time></trkpt><trkpt lat="59.5596217923" lon="31.2684849277"><ele>240.95</ele><time>2026-09-02T19:07:53Z</time></trkpt><trkpt lat="59.5596811362" lon="31.2683633901"><ele>240.95</ele><time>2026-09-02T19:07:54Z</time></trkpt><trkpt lat="59.5596874226" lon="31.2683567684"><ele>240.95</ele><time>2026-09-02T19:07:55Z</time></trkpt><trkpt lat="59.5596925355" lon="31.2683522422"><ele>240.95</ele><time>2026-09-02T19:07:56Z</time></trkpt><trkpt lat="59.5596983191" lon="31.2683484703"><ele>240.95</ele><time>2026-09-02T19:07:57Z</time></trkpt><trkpt lat="59.5597063657" lon="31.2683480512"><ele>240.95</ele><time>2026-09-02T19:07:58Z</time></trkpt><trkpt lat="59.5597110596" lon="31.2683463749"><ele>240.95</ele><time>2026-09-02T19:07:59Z</time></trkpt><trkpt lat="59.5597164240" lon="31.2683435250"><ele>240.95</ele><time>2026-09-02T19:08:00Z</time></trkpt><trkpt lat="59.5597225428" lon="31.2683389988"><ele>240.95</ele><time>2026-09-02T19:08:01Z</time></trkpt><trkpt lat="59.5597276557" lon="31.2683330476"><ele>240.95</ele><time>2026-09-02T19:08:02Z</time></trkpt><trkpt lat="59.5597351994" lon="31.2683303654"><ele>240.95</ele><time>2026-09-02T19:08:03Z</time></trkpt><trkpt lat="59.5597419888" lon="31.2683285214"><ele>240.95</ele><time>2026-09-02T19:08:04Z</time></trkpt><trkpt lat="59.5597471856" lon="31.2683264259"><ele>240.95</ele><time>2026-09-02T19:08:05Z</time></trkpt><trkpt lat="59.5597503707" lon="31.2683230732"><ele>240.95</ele><time>2026-09-02T19:08:06Z</time></trkpt><trkpt lat="59.5597549807" lon="31.2683149427"><ele>240.95</ele><time>2026-09-02T19:08:07Z</time></trkpt><trkpt lat="59.5597618539" lon="31.2683099974"><ele>240.95</ele><time>2026-09-02T19:08:08Z</time></trkpt><trkpt lat="59.5597663801" lon="31.2683053873"><ele>240.95</ele><time>2026-09-02T19:08:09Z</time></trkpt><trkpt lat="59.5597719960" lon="31.2683010288"><ele>240.95</ele><time>2026-09-02T19:08:10Z</time></trkpt><trkpt lat="59.5597781986" lon="31.2682917248"><ele>240.95</ele><time>2026-09-02T19:08:11Z</time></trkpt><trkpt lat="59.5597833954" lon="31.2682868633"><ele>240.95</ele><time>2026-09-02T19:08:12Z</time></trkpt><trkpt lat="59.5597893465" lon="31.2682843488"><ele>240.95</ele><time>2026-09-02T19:08:13Z</time></trkpt><trkpt lat="59.5597965550" lon="31.2682906352"><ele>240.95</ele><time>2026-09-02T19:08:14Z</time></trkpt><trkpt lat="59.5598043501" lon="31.2682876177"><ele>240.47</ele><time>2026-09-02T19:08:15Z</time></trkpt><trkpt lat="59.5598165877" lon="31.2682786491"><ele>240.47</ele><time>2026-09-02T19:08:16Z</time></trkpt><trkpt lat="59.5598273166" lon="31.2682692613"><ele>240.47</ele><time>2026-09-02T19:08:17Z</time></trkpt><trkpt lat="59.5598357823" lon="31.2682632264"><ele>240.47</ele><time>2026-09-02T19:08:18Z</time></trkpt><trkpt lat="59.5598433260" lon="31.2682561856"><ele>240.47</ele><time>2026-09-02T19:08:19Z</time></trkpt><trkpt lat="59.5598512888" lon="31.2682474684"><ele>240.47</ele><time>2026-09-02T19:08:20Z</time></trkpt><trkpt lat="59.5598529652" lon="31.2682402600"><ele>240.47</ele><time>2026-09-02T19:08:21Z</time></trkpt><trkpt lat="59.5598580781" lon="31.2682324648"><ele>240.47</ele><time>2026-09-02T19:08:22Z</time></trkpt><trkpt lat="59.5598623529" lon="31.2682277709"><ele>240.47</ele><time>2026-09-02T19:08:23Z</time></trkpt><trkpt lat="59.5598623529" lon="31.2682277709"><ele>240.47</ele><time>2026-09-02T19:08:24Z</time></trkpt><trkpt lat="59.5598623529" lon="31.2682277709"><ele>240.47</ele><time>2026-09-02T19:08:25Z</time></trkpt><trkpt lat="59.5598623529" lon="31.2682277709"><ele>240.47</ele><time>2026-09-02T19:08:26Z</time></trkpt><trkpt lat="59.5598623529" lon="31.2682277709"><ele>240.47</ele><time>2026-09-02T19:08:27Z</time></trkpt><trkpt lat="59.5598623529" lon="31.2682277709"><ele>240.47</ele><time>2026-09-02T19:08:28Z</time></trkpt><trkpt lat="59.5598623529" lon="31.2682277709"><ele>240.47</ele><time>2026-09-02T19:08:29Z</time></trkpt><trkpt lat="59.5598623529" lon="31.2682277709"><ele>240.47</ele><time>2026-09-02T19:08:30Z</time></trkpt><trkpt lat="59.5598623529" lon="31.2682277709"><ele>240.47</ele><time>2026-09-02T19:08:31Z</time></trkpt><trkpt lat="59.5598623529" lon="31.2682277709"><ele>240.47</ele><time>2026-09-02T19:08:32Z</time></trkpt><trkpt lat="59.5598623529" lon="31.2682277709"><ele>240.47</ele><time>2026-09-02T19:08:33Z</time></trkpt><trkpt lat="59.5598623529" lon="31.2682277709"><ele>240.47</ele><time>2026-09-02T19:08:34Z</time></trkpt><trkpt lat="59.5598623529" lon="31.2682277709"><ele>240.47</ele><time>2026-09-02T19:08:35Z</time></trkpt><trkpt lat="59.5598623529" lon="31.2682277709"><ele>240.47</ele><time>2026-09-02T19:08:36Z</time></trkpt><trkpt lat="59.5598623529" lon="31.2682277709"><ele>240.47</ele><time>2026-09-02T19:08:37Z</time></trkpt><trkpt lat="59.5598623529" lon="31.2682277709"><ele>240.47</ele><time>2026-09-02T19:08:38Z</time></trkpt><trkpt lat="59.5598623529" lon="31.2682277709"><ele>240.47</ele><time>2026-09-02T19:08:39Z</time></trkpt><trkpt lat="59.5598623529" lon="31.2682277709"><ele>240.47</ele><time>2026-09-02T19:08:40Z</time></trkpt><trkpt lat="59.5598623529" lon="31.2682277709"><ele>240.47</ele><time>2026-09-02T19:08:41Z</time></trkpt><trkpt lat="59.5598623529" lon="31.2682277709"><ele>240.47</ele><time>2026-09-02T19:08:42Z</time></trkpt><trkpt lat="59.5598623529" lon="31.2682277709"><ele>240.47</ele><time>2026-09-02T19:08:43Z</time></trkpt><trkpt lat="59.5598623529" lon="31.2682277709"><ele>240.47</ele><time>2026-09-02T19:08:44Z</time></trkpt><trkpt lat="59.5598623529" lon="31.2682277709"><ele>240.47</ele><time>2026-09-02T19:08:45Z</time></trkpt><trkpt lat="59.5598623529" lon="31.2682277709"><ele>240.47</ele><time>2026-09-02T19:08:46Z</time></trkpt><trkpt lat="59.5598623529" lon="31.2682277709"><ele>240.47</ele><time>2026-09-02T19:08:47Z</time></trkpt><trkpt lat="59.5598623529" lon="31.2682277709"><ele>240.47</ele><time>2026-09-02T19:08:48Z</time></trkpt><trkpt lat="59.5598623529" lon="31.2682277709"><ele>240.47</ele><time>2026-09-02T19:08:49Z</time></trkpt><trkpt lat="59.5598623529" lon="31.2682277709"><ele>240.47</ele><time>2026-09-02T19:08:50Z</time></trkpt><trkpt lat="59.5598623529" lon="31.2682277709"><ele>240.47</ele><time>2026-09-02T19:08:51Z</time></trkpt><trkpt lat="59.5598623529" lon="31.2682277709"><ele>240.47</ele><time>2026-09-02T19:08:52Z</time></trkpt><trkpt lat="59.5598623529" lon="31.2682277709"><ele>240.47</ele><time>2026-09-02T19:08:53Z</time></trkpt><trkpt lat="59.5598623529" lon="31.2682277709"><ele>240.47</ele><time>2026-09-02T19:08:54Z</time></trkpt><trkpt lat="59.5598623529" lon="31.2682277709"><ele>240.47</ele><time>2026-09-02T19:08:55Z</time></trkpt><trkpt lat="59.5598623529" lon="31.2682277709"><ele>240.47</ele><time>2026-09-02T19:08:56Z</time></trkpt><trkpt lat="59.5598623529" lon="31.2682277709"><ele>240.47</ele><time>2026-09-02T19:08:57Z</time></trkpt><trkpt lat="59.5598623529" lon="31.2682277709"><ele>240.47</ele><time>2026-09-02T19:08:58Z</time></trkpt><trkpt lat="59.5598623529" lon="31.2682277709"><ele>240.47</ele><time>2026-09-02T19:08:59Z</time></trkpt><trkpt lat="59.5598623529" lon="31.2682277709"><ele>240.47</ele><time>2026-09-02T19:09:00Z</time></trkpt><trkpt lat="59.5598623529" lon="31.2682277709"><ele>240.47</ele><time>2026-09-02T19:09:01Z</time></trkpt><trkpt lat="59.5598623529" lon="31.2682277709"><ele>240.47</ele><time>2026-09-02T19:09:02Z</time></trkpt><trkpt lat="59.5598623529" lon="31.2682277709"><ele>240.47</ele><time>2026-09-02T19:09:03Z</time></trkpt><trkpt lat="59.5598623529" lon="31.2682277709"><ele>240.47</ele><time>2026-09-02T19:09:04Z</time></trkpt><trkpt lat="59.5598623529" lon="31.2682277709"><ele>240.47</ele><time>2026-09-02T19:09:05Z</time></trkpt><trkpt lat="59.5598623529" lon="31.2682277709"><ele>240.47</ele><time>2026-09-02T19:09:06Z</time></trkpt><trkpt lat="59.5598623529" lon="31.2682277709"><ele>240.47</ele><time>2026-09-02T19:09:07Z</time></trkpt><trkpt lat="59.5598623529" lon="31.2682277709"><ele>240.47</ele><time>2026-09-02T19:09:08Z</time></trkpt><trkpt lat="59.5598623529" lon="31.2682277709"><ele>240.47</ele><time>2026-09-02T19:09:09Z</time></trkpt><trkpt lat="59.5598623529" lon="31.2682277709"><ele>240.47</ele><time>2026-09-02T19:09:10Z</time></trkpt><trkpt lat="59.5598623529" lon="31.2682277709"><ele>240.47</ele><time>2026-09-02T19:09:11Z</time></trkpt><trkpt lat="59.5598623529" lon="31.2682277709"><ele>240.47</ele><time>2026-09-02T19:09:12Z</time></trkpt><trkpt lat="59.5598623529" lon="31.2682277709"><ele>240.47</ele><time>2026-09-02T19:09:13Z</time></trkpt><trkpt lat="59.5598623529" lon="31.2682277709"><ele>240.47</ele><time>2026-09-02T19:09:14Z</time></trkpt><trkpt lat="59.5598623529" lon="31.2682277709"><ele>240.47</ele><time>2026-09-02T19:09:15Z</time></trkpt><trkpt lat="59.5598623529" lon="31.2682277709"><ele>240.47</ele><time>2026-09-02T19:09:16Z</time></trkpt><trkpt lat="59.5598623529" lon="31.2682277709"><ele>240.47</ele><time>2026-09-02T19:09:17Z</time></trkpt><trkpt lat="59.5598623529" lon="31.2682277709"><ele>240.47</ele><time>2026-09-02T19:09:18Z</time></trkpt><trkpt lat="59.5598623529" lon="31.2682277709"><ele>240.47</ele><time>2026-09-02T19:09:19Z</time></trkpt><trkpt lat="59.5598623529" lon="31.2682277709"><ele>240.47</ele><time>2026-09-02T19:09:20Z</time></trkpt><trkpt lat="59.5598623529" lon="31.2682277709"><ele>240.47</ele><time>2026-09-02T19:09:21Z</time></trkpt><trkpt lat="59.5598623529" lon="31.2682277709"><ele>240.47</ele><time>2026-09-02T19:09:22Z</time></trkpt><trkpt lat="59.5598623529" lon="31.2682277709"><ele>240.47</ele><time>2026-09-02T19:09:23Z</time></trkpt><trkpt lat="59.5598623529" lon="31.2682277709"><ele>240.47</ele><time>2026-09-02T19:09:24Z</time></trkpt><trkpt lat="59.5598623529" lon="31.2682277709"><ele>240.47</ele><time>2026-09-02T19:09:25Z</time></trkpt><trkpt lat="59.5598623529" lon="31.2682277709"><ele>240.47</ele><time>2026-09-02T19:09:26Z</time></trkpt><trkpt lat="59.5598623529" lon="31.2682277709"><ele>240.47</ele><time>2026-09-02T19:09:27Z</time></trkpt><trkpt lat="59.5598623529" lon="31.2682277709"><ele>240.47</ele><time>2026-09-02T19:09:28Z</time></trkpt><trkpt lat="59.5598623529" lon="31.2682277709"><ele>240.47</ele><time>2026-09-02T19:09:29Z</time></trkpt><trkpt lat="59.5598623529" lon="31.2682277709"><ele>240.47</ele><time>2026-09-02T19:09:30Z</time></trkpt><trkpt lat="59.5598623529" lon="31.2682277709"><ele>240.47</ele><time>2026-09-02T19:09:31Z</time></trkpt><trkpt lat="59.5598623529" lon="31.2682277709"><ele>240.47</ele><time>2026-09-02T19:09:32Z</time></trkpt><trkpt lat="59.5598623529" lon="31.2682277709"><ele>240.47</ele><time>2026-09-02T19:09:33Z</time></trkpt><trkpt lat="59.5598623529" lon="31.2682277709"><ele>240.47</ele><time>2026-09-02T19:09:34Z</time></trkpt><trkpt lat="59.5598623529" lon="31.2682277709"><ele>240.47</ele><time>2026-09-02T19:09:35Z</time></trkpt><trkpt lat="59.5598623529" lon="31.2682277709"><ele>240.47</ele><time>2026-09-02T19:09:36Z</time></trkpt><trkpt lat="59.5598623529" lon="31.2682277709"><ele>240.47</ele><time>2026-09-02T19:09:37Z</time></trkpt><trkpt lat="59.5598623529" lon="31.2682277709"><ele>240.47</ele><time>2026-09-02T19:09:38Z</time></trkpt><trkpt lat="59.5598623529" lon="31.2682277709"><ele>240.47</ele><time>2026-09-02T19:09:39Z</time></trkpt><trkpt lat="59.5598623529" lon="31.2682277709"><ele>240.47</ele><time>2026-09-02T19:09:40Z</time></trkpt><trkpt lat="59.5598866604" lon="31.2681821734"><ele>240.47</ele><time>2026-09-02T19:09:41Z</time></trkpt><trkpt lat="59.5598936174" lon="31.2681846879"><ele>240.47</ele><time>2026-09-02T19:09:42Z</time></trkpt><trkpt lat="59.5599006582" lon="31.2681815866"><ele>240.47</ele><time>2026-09-02T19:09:43Z</time></trkpt><trkpt lat="59.5599067770" lon="31.2681771442"><ele>240.47</ele><time>2026-09-02T19:09:44Z</time></trkpt><trkpt lat="59.5599148236" lon="31.2681691814"><ele>240.47</ele><time>2026-09-02T19:09:45Z</time></trkpt><trkpt lat="59.5599214453" lon="31.2681607995"><ele>240.47</ele><time>2026-09-02T19:09:46Z</time></trkpt><trkpt lat="59.5599243790" lon="31.2681494839"><ele>240.47</ele><time>2026-09-02T19:09:47Z</time></trkpt><trkpt lat="59.5599293243" lon="31.2681373302"><ele>240.47</ele><time>2026-09-02T19:09:48Z</time></trkpt><trkpt lat="59.5599321742" lon="31.2681251764"><ele>240.47</ele><time>2026-09-02T19:09:49Z</time></trkpt><trkpt lat="59.5599369518" lon="31.2681147829"><ele>240.47</ele><time>2026-09-02T19:09:50Z</time></trkpt><trkpt lat="59.5599417295" lon="31.2681020424"><ele>240.47</ele><time>2026-09-02T19:09:51Z</time></trkpt><trkpt lat="59.5599456690" lon="31.2680914812"><ele>240.47</ele><time>2026-09-02T19:09:52Z</time></trkpt><trkpt lat="59.5599502791" lon="31.2680817582"><ele>240.47</ele><time>2026-09-02T19:09:53Z</time></trkpt><trkpt lat="59.5599536318" lon="31.2680722866"><ele>240.47</ele><time>2026-09-02T19:09:54Z</time></trkpt><trkpt lat="59.5599576551" lon="31.2680620607"><ele>240.47</ele><time>2026-09-02T19:09:55Z</time></trkpt><trkpt lat="59.5599616785" lon="31.2680485658"><ele>240.47</ele><time>2026-09-02T19:09:56Z</time></trkpt><trkpt lat="59.5599669591" lon="31.2680352386"><ele>240.47</ele><time>2026-09-02T19:09:57Z</time></trkpt><trkpt lat="59.5599719882" lon="31.2680205703"><ele>240.47</ele><time>2026-09-02T19:09:58Z</time></trkpt><trkpt lat="59.5599743351" lon="31.2680086680"><ele>240.47</ele><time>2026-09-02T19:09:59Z</time></trkpt><trkpt lat="59.5599795319" lon="31.2679971848"><ele>240.47</ele><time>2026-09-02T19:10:00Z</time></trkpt><trkpt lat="59.5599845611" lon="31.2679853663"><ele>240.47</ele><time>2026-09-02T19:10:01Z</time></trkpt><trkpt lat="59.5599886682" lon="31.2679765653"><ele>240.47</ele><time>2026-09-02T19:10:02Z</time></trkpt><trkpt lat="59.5599922724" lon="31.2679687701"><ele>240.47</ele><time>2026-09-02T19:10:03Z</time></trkpt><trkpt lat="59.5599993970" lon="31.2679562811"><ele>240.47</ele><time>2026-09-02T19:10:04Z</time></trkpt><trkpt lat="59.5600018278" lon="31.2679452170"><ele>239.99</ele><time>2026-09-02T19:10:05Z</time></trkpt><trkpt lat="59.5600069407" lon="31.2679360807"><ele>239.99</ele><time>2026-09-02T19:10:06Z</time></trkpt><trkpt lat="59.5600107964" lon="31.2679265253"><ele>239.99</ele><time>2026-09-02T19:10:07Z</time></trkpt><trkpt lat="59.5600153226" lon="31.2679147907"><ele>239.99</ele><time>2026-09-02T19:10:08Z</time></trkpt><trkpt lat="59.5600200165" lon="31.2679061573"><ele>239.99</ele><time>2026-09-02T19:10:09Z</time></trkpt><trkpt lat="59.5600226987" lon="31.2678977754"><ele>239.51</ele><time>2026-09-02T19:10:10Z</time></trkpt><trkpt lat="59.5600292366" lon="31.2678889744"><ele>239.51</ele><time>2026-09-02T19:10:11Z</time></trkpt><trkpt lat="59.5600350201" lon="31.2678763177"><ele>239.51</ele><time>2026-09-02T19:10:12Z</time></trkpt><trkpt lat="59.5600392949" lon="31.2678673491"><ele>239.51</ele><time>2026-09-02T19:10:13Z</time></trkpt><trkpt lat="59.5600425638" lon="31.2678581290"><ele>239.02</ele><time>2026-09-02T19:10:14Z</time></trkpt><trkpt lat="59.5600437373" lon="31.2678473163"><ele>239.02</ele><time>2026-09-02T19:10:15Z</time></trkpt><trkpt lat="59.5600435697" lon="31.2678326480"><ele>239.02</ele><time>2026-09-02T19:10:16Z</time></trkpt><trkpt lat="59.5600468386" lon="31.2678231765"><ele>239.02</ele><time>2026-09-02T19:10:17Z</time></trkpt><trkpt lat="59.5600469224" lon="31.2678258587"><ele>239.02</ele><time>2026-09-02T19:10:18Z</time></trkpt><trkpt lat="59.5600469224" lon="31.2678172253"><ele>238.54</ele><time>2026-09-02T19:10:19Z</time></trkpt><trkpt lat="59.5600508619" lon="31.2678122800"><ele>238.54</ele><time>2026-09-02T19:10:20Z</time></trkpt><trkpt lat="59.5600518677" lon="31.2678070832"><ele>238.54</ele><time>2026-09-02T19:10:21Z</time></trkpt><trkpt lat="59.5600502752" lon="31.2677963544"><ele>238.06</ele><time>2026-09-02T19:10:22Z</time></trkpt><trkpt lat="59.5600554720" lon="31.2677846197"><ele>238.06</ele><time>2026-09-02T19:10:23Z</time></trkpt><trkpt lat="59.5600591600" lon="31.2677698676"><ele>238.06</ele><time>2026-09-02T19:10:24Z</time></trkpt><trkpt lat="59.5600647759" lon="31.2677605636"><ele>237.58</ele><time>2026-09-02T19:10:25Z</time></trkpt><trkpt lat="59.5600661170" lon="31.2677450571"><ele>237.58</ele><time>2026-09-02T19:10:26Z</time></trkpt><trkpt lat="59.5600681286" lon="31.2677331548"><ele>237.58</ele><time>2026-09-02T19:10:27Z</time></trkpt><trkpt lat="59.5600705594" lon="31.2677242700"><ele>237.58</ele><time>2026-09-02T19:10:28Z</time></trkpt><trkpt lat="59.5600724872" lon="31.2677157205"><ele>237.58</ele><time>2026-09-02T19:10:29Z</time></trkpt><trkpt lat="59.5600739960" lon="31.2677110266"><ele>237.10</ele><time>2026-09-02T19:10:30Z</time></trkpt><trkpt lat="59.5600739960" lon="31.2677110266"><ele>237.10</ele><time>2026-09-02T19:10:31Z</time></trkpt><trkpt lat="59.5600739960" lon="31.2677110266"><ele>236.62</ele><time>2026-09-02T19:10:32Z</time></trkpt><trkpt lat="59.5600739960" lon="31.2677110266"><ele>236.62</ele><time>2026-09-02T19:10:33Z</time></trkpt><trkpt lat="59.5600739960" lon="31.2677110266"><ele>236.62</ele><time>2026-09-02T19:10:34Z</time></trkpt><trkpt lat="59.5600739960" lon="31.2677110266"><ele>236.62</ele><time>2026-09-02T19:10:35Z</time></trkpt><trkpt lat="59.5600739960" lon="31.2677110266"><ele>236.62</ele><time>2026-09-02T19:10:36Z</time></trkpt><trkpt lat="59.5600739960" lon="31.2677110266"><ele>236.62</ele><time>2026-09-02T19:10:37Z</time></trkpt><trkpt lat="59.5600739960" lon="31.2677110266"><ele>236.62</ele><time>2026-09-02T19:10:38Z</time></trkpt><trkpt lat="59.5600739960" lon="31.2677110266"><ele>236.62</ele><time>2026-09-02T19:10:39Z</time></trkpt><trkpt lat="59.5600739960" lon="31.2677110266"><ele>236.62</ele><time>2026-09-02T19:10:40Z</time></trkpt><trkpt lat="59.5600739960" lon="31.2677110266"><ele>236.62</ele><time>2026-09-02T19:10:41Z</time></trkpt><trkpt lat="59.5600811206" lon="31.2676367629"><ele>236.62</ele><time>2026-09-02T19:10:42Z</time></trkpt><trkpt lat="59.5600848924" lon="31.2676248606"><ele>236.62</ele><time>2026-09-02T19:10:43Z</time></trkpt><trkpt lat="59.5600873232" lon="31.2676111981"><ele>236.14</ele><time>2026-09-02T19:10:44Z</time></trkpt><trkpt lat="59.5600891672" lon="31.2675961945"><ele>236.14</ele><time>2026-09-02T19:10:45Z</time></trkpt><trkpt lat="59.5600916818" lon="31.2675843760"><ele>236.14</ele><time>2026-09-02T19:10:46Z</time></trkpt><trkpt lat="59.5600951184" lon="31.2675773352"><ele>236.14</ele><time>2026-09-02T19:10:47Z</time></trkpt><trkpt lat="59.5600983873" lon="31.2675704621"><ele>236.14</ele><time>2026-09-02T19:10:48Z</time></trkpt><trkpt lat="59.5601049252" lon="31.2675646786"><ele>236.14</ele><time>2026-09-02T19:10:49Z</time></trkpt><trkpt lat="59.5601089485" lon="31.2675612420"><ele>236.14</ele><time>2026-09-02T19:10:50Z</time></trkpt><trkpt lat="59.5601121336" lon="31.2675594818"><ele>236.14</ele><time>2026-09-02T19:10:51Z</time></trkpt><trkpt lat="59.5601170789" lon="31.2675591465"><ele>236.14</ele><time>2026-09-02T19:10:52Z</time></trkpt><trkpt lat="59.5601206832" lon="31.2675610743"><ele>236.14</ele><time>2026-09-02T19:10:53Z</time></trkpt><trkpt lat="59.5601206832" lon="31.2675610743"><ele>236.14</ele><time>2026-09-02T19:10:54Z</time></trkpt><trkpt lat="59.5601206832" lon="31.2675610743"><ele>236.14</ele><time>2026-09-02T19:10:55Z</time></trkpt><trkpt lat="59.5601206832" lon="31.2675610743"><ele>236.14</ele><time>2026-09-02T19:10:56Z</time></trkpt><trkpt lat="59.5601206832" lon="31.2675610743"><ele>236.14</ele><time>2026-09-02T19:10:57Z</time></trkpt><trkpt lat="59.5601206832" lon="31.2675610743"><ele>236.14</ele><time>2026-09-02T19:10:58Z</time></trkpt><trkpt lat="59.5601206832" lon="31.2675610743"><ele>236.14</ele><time>2026-09-02T19:10:59Z</time></trkpt><trkpt lat="59.5601206832" lon="31.2675610743"><ele>236.14</ele><time>2026-09-02T19:11:00Z</time></trkpt><trkpt lat="59.5601463318" lon="31.2675513513"><ele>236.14</ele><time>2026-09-02T19:11:01Z</time></trkpt><trkpt lat="59.5601489302" lon="31.2675505970"><ele>236.14</ele><time>2026-09-02T19:11:02Z</time></trkpt><trkpt lat="59.5601540431" lon="31.2675543688"><ele>236.14</ele><time>2026-09-02T19:11:03Z</time></trkpt><trkpt lat="59.5601588208" lon="31.2675546203"><ele>236.14</ele><time>2026-09-02T19:11:04Z</time></trkpt><trkpt lat="59.5601644367" lon="31.2675571349"><ele>236.14</ele><time>2026-09-02T19:11:05Z</time></trkpt><trkpt lat="59.5601690467" lon="31.2675614934"><ele>236.14</ele><time>2026-09-02T19:11:06Z</time></trkpt><trkpt lat="59.5601736568" lon="31.2675637566"><ele>235.66</ele><time>2026-09-02T19:11:07Z</time></trkpt><trkpt lat="59.5601787698" lon="31.2675638404"><ele>235.66</ele><time>2026-09-02T19:11:08Z</time></trkpt><trkpt lat="59.5601832960" lon="31.2675733957"><ele>235.66</ele><time>2026-09-02T19:11:09Z</time></trkpt><trkpt lat="59.5601875708" lon="31.2675734796"><ele>235.66</ele><time>2026-09-02T19:11:10Z</time></trkpt><trkpt lat="59.5601937734" lon="31.2675760780"><ele>235.66</ele><time>2026-09-02T19:11:11Z</time></trkpt><trkpt lat="59.5601969585" lon="31.2675779220"><ele>235.66</ele><time>2026-09-02T19:11:12Z</time></trkpt><trkpt lat="59.5601969585" lon="31.2675779220"><ele>235.66</ele><time>2026-09-02T19:11:13Z</time></trkpt><trkpt lat="59.5601969585" lon="31.2675779220"><ele>235.66</ele><time>2026-09-02T19:11:14Z</time></trkpt><trkpt lat="59.5601969585" lon="31.2675779220"><ele>235.66</ele><time>2026-09-02T19:11:15Z</time></trkpt><trkpt lat="59.5601969585" lon="31.2675779220"><ele>235.66</ele><time>2026-09-02T19:11:16Z</time></trkpt><trkpt lat="59.5601969585" lon="31.2675779220"><ele>235.66</ele><time>2026-09-02T19:11:17Z</time></trkpt><trkpt lat="59.5601969585" lon="31.2675779220"><ele>235.66</ele><time>2026-09-02T19:11:18Z</time></trkpt><trkpt lat="59.5601969585" lon="31.2675779220"><ele>235.66</ele><time>2026-09-02T19:11:19Z</time></trkpt><trkpt lat="59.5601969585" lon="31.2675779220"><ele>235.66</ele><time>2026-09-02T19:11:20Z</time></trkpt><trkpt lat="59.5601969585" lon="31.2675779220"><ele>235.66</ele><time>2026-09-02T19:11:21Z</time></trkpt><trkpt lat="59.5602186676" lon="31.2675567996"><ele>235.66</ele><time>2026-09-02T19:11:22Z</time></trkpt><trkpt lat="59.5602206793" lon="31.2675488368"><ele>235.66</ele><time>2026-09-02T19:11:23Z</time></trkpt><trkpt lat="59.5602258760" lon="31.2675402872"><ele>235.66</ele><time>2026-09-02T19:11:24Z</time></trkpt><trkpt lat="59.5602299832" lon="31.2675369345"><ele>235.66</ele><time>2026-09-02T19:11:25Z</time></trkpt><trkpt lat="59.5602337550" lon="31.2675336655"><ele>235.66</ele><time>2026-09-02T19:11:26Z</time></trkpt><trkpt lat="59.5602396224" lon="31.2675308995"><ele>235.66</ele><time>2026-09-02T19:11:27Z</time></trkpt><trkpt lat="59.5602458250" lon="31.2675208412"><ele>235.66</ele><time>2026-09-02T19:11:28Z</time></trkpt><trkpt lat="59.5602549613" lon="31.2675105315"><ele>235.66</ele><time>2026-09-02T19:11:29Z</time></trkpt><trkpt lat="59.5602606609" lon="31.2675009761"><ele>235.66</ele><time>2026-09-02T19:11:30Z</time></trkpt><trkpt lat="59.5602680370" lon="31.2674891576"><ele>235.66</ele><time>2026-09-02T19:11:31Z</time></trkpt><trkpt lat="59.5602769218" lon="31.2674800213"><ele>235.66</ele><time>2026-09-02T19:11:32Z</time></trkpt><trkpt lat="59.5602877345" lon="31.2674740702"><ele>235.66</ele><time>2026-09-02T19:11:33Z</time></trkpt><trkpt lat="59.5602964517" lon="31.2674679514"><ele>235.66</ele><time>2026-09-02T19:11:34Z</time></trkpt><trkpt lat="59.5603043307" lon="31.2674523611"><ele>235.66</ele><time>2026-09-02T19:11:35Z</time></trkpt><trkpt lat="59.5603135508" lon="31.2674334180"><ele>235.66</ele><time>2026-09-02T19:11:36Z</time></trkpt><trkpt lat="59.5603208430" lon="31.2674207613"><ele>235.66</ele><time>2026-09-02T19:11:37Z</time></trkpt><trkpt lat="59.5603291411" lon="31.2674025726"><ele>235.18</ele><time>2026-09-02T19:11:38Z</time></trkpt><trkpt lat="59.5603353437" lon="31.2673887424"><ele>235.18</ele><time>2026-09-02T19:11:39Z</time></trkpt><trkpt lat="59.5603416301" lon="31.2673757505"><ele>235.18</ele><time>2026-09-02T19:11:40Z</time></trkpt><trkpt lat="59.5603449829" lon="31.2673638482"><ele>235.18</ele><time>2026-09-02T19:11:41Z</time></trkpt><trkpt lat="59.5603492577" lon="31.2673486769"><ele>235.18</ele><time>2026-09-02T19:11:42Z</time></trkpt><trkpt lat="59.5603553765" lon="31.2673396245"><ele>235.18</ele><time>2026-09-02T19:11:43Z</time></trkpt><trkpt lat="59.5603600703" lon="31.2673234474"><ele>235.18</ele><time>2026-09-02T19:11:44Z</time></trkpt><trkpt lat="59.5603649318" lon="31.2673112936"><ele>234.70</ele><time>2026-09-02T19:11:45Z</time></trkpt><trkpt lat="59.5603682846" lon="31.2672963738"><ele>234.70</ele><time>2026-09-02T19:11:46Z</time></trkpt><trkpt lat="59.5603707992" lon="31.2672815379"><ele>234.70</ele><time>2026-09-02T19:11:47Z</time></trkpt><trkpt lat="59.5603734814" lon="31.2672722340"><ele>234.22</ele><time>2026-09-02T19:11:48Z</time></trkpt><trkpt lat="59.5603754930" lon="31.2672630977"><ele>234.22</ele><time>2026-09-02T19:11:49Z</time></trkpt><trkpt lat="59.5603771694" lon="31.2672550511"><ele>234.22</ele><time>2026-09-02T19:11:50Z</time></trkpt><trkpt lat="59.5603776723" lon="31.2672500219"><ele>234.22</ele><time>2026-09-02T19:11:51Z</time></trkpt><trkpt lat="59.5603776723" lon="31.2672500219"><ele>234.22</ele><time>2026-09-02T19:11:52Z</time></trkpt><trkpt lat="59.5603776723" lon="31.2672500219"><ele>234.22</ele><time>2026-09-02T19:11:53Z</time></trkpt><trkpt lat="59.5603776723" lon="31.2672500219"><ele>234.22</ele><time>2026-09-02T19:11:54Z</time></trkpt><trkpt lat="59.5603735652" lon="31.2672362756"><ele>234.22</ele><time>2026-09-02T19:11:55Z</time></trkpt><trkpt lat="59.5603741519" lon="31.2672229484"><ele>234.22</ele><time>2026-09-02T19:11:56Z</time></trkpt><trkpt lat="59.5603734814" lon="31.2672107946"><ele>234.22</ele><time>2026-09-02T19:11:57Z</time></trkpt><trkpt lat="59.5603731461" lon="31.2672056817"><ele>234.22</ele><time>2026-09-02T19:11:58Z</time></trkpt><trkpt lat="59.5603731461" lon="31.2672018260"><ele>234.22</ele><time>2026-09-02T19:11:59Z</time></trkpt><trkpt lat="59.5603748225" lon="31.2671979703"><ele>234.22</ele><time>2026-09-02T19:12:00Z</time></trkpt><trkpt lat="59.5603765827" lon="31.2671945337"><ele>234.22</ele><time>2026-09-02T19:12:01Z</time></trkpt><trkpt lat="59.5603765827" lon="31.2671945337"><ele>234.22</ele><time>2026-09-02T19:12:02Z</time></trkpt><trkpt lat="59.5603765827" lon="31.2671945337"><ele>234.22</ele><time>2026-09-02T19:12:03Z</time></trkpt><trkpt lat="59.5603761636" lon="31.2671608385"><ele>234.22</ele><time>2026-09-02T19:12:04Z</time></trkpt><trkpt lat="59.5603758283" lon="31.2671541329"><ele>234.22</ele><time>2026-09-02T19:12:05Z</time></trkpt><trkpt lat="59.5603716373" lon="31.2671460863"><ele>234.22</ele><time>2026-09-02T19:12:06Z</time></trkpt><trkpt lat="59.5603706315" lon="31.2671395484"><ele>234.22</ele><time>2026-09-02T19:12:07Z</time></trkpt><trkpt lat="59.5603706315" lon="31.2671395484"><ele>234.22</ele><time>2026-09-02T19:12:08Z</time></trkpt><trkpt lat="59.5603706315" lon="31.2671395484"><ele>233.74</ele><time>2026-09-02T19:12:09Z</time></trkpt><trkpt lat="59.5603706315" lon="31.2671395484"><ele>233.74</ele><time>2026-09-02T19:12:10Z</time></trkpt><trkpt lat="59.5603706315" lon="31.2671395484"><ele>234.22</ele><time>2026-09-02T19:12:11Z</time></trkpt><trkpt lat="59.5603706315" lon="31.2671395484"><ele>233.74</ele><time>2026-09-02T19:12:12Z</time></trkpt><trkpt lat="59.5603706315" lon="31.2671395484"><ele>233.74</ele><time>2026-09-02T19:12:13Z</time></trkpt><trkpt lat="59.5603706315" lon="31.2671395484"><ele>233.74</ele><time>2026-09-02T19:12:14Z</time></trkpt><trkpt lat="59.5603706315" lon="31.2671395484"><ele>233.74</ele><time>2026-09-02T19:12:15Z</time></trkpt><trkpt lat="59.5603706315" lon="31.2671395484"><ele>233.74</ele><time>2026-09-02T19:12:16Z</time></trkpt><trkpt lat="59.5603706315" lon="31.2671395484"><ele>233.74</ele><time>2026-09-02T19:12:17Z</time></trkpt><trkpt lat="59.5603706315" lon="31.2671395484"><ele>233.74</ele><time>2026-09-02T19:12:18Z</time></trkpt><trkpt lat="59.5603706315" lon="31.2671395484"><ele>233.74</ele><time>2026-09-02T19:12:19Z</time></trkpt><trkpt lat="59.5603706315" lon="31.2671395484"><ele>233.74</ele><time>2026-09-02T19:12:20Z</time></trkpt><trkpt lat="59.5603706315" lon="31.2671395484"><ele>233.74</ele><time>2026-09-02T19:12:21Z</time></trkpt><trkpt lat="59.5603706315" lon="31.2671395484"><ele>233.74</ele><time>2026-09-02T19:12:22Z</time></trkpt><trkpt lat="59.5603706315" lon="31.2671395484"><ele>233.74</ele><time>2026-09-02T19:12:23Z</time></trkpt><trkpt lat="59.5603896584" lon="31.2670811266"><ele>233.74</ele><time>2026-09-02T19:12:24Z</time></trkpt><trkpt lat="59.5603937656" lon="31.2670759298"><ele>233.74</ele><time>2026-09-02T19:12:25Z</time></trkpt><trkpt lat="59.5603973698" lon="31.2670698948"><ele>233.74</ele><time>2026-09-02T19:12:26Z</time></trkpt><trkpt lat="59.5603980403" lon="31.2670624349"><ele>233.74</ele><time>2026-09-02T19:12:27Z</time></trkpt><trkpt lat="59.5604017284" lon="31.2670574896"><ele>233.74</ele><time>2026-09-02T19:12:28Z</time></trkpt><trkpt lat="59.5604059193" lon="31.2670409773"><ele>233.74</ele><time>2026-09-02T19:12:29Z</time></trkpt><trkpt lat="59.5604133792" lon="31.2670287397"><ele>233.74</ele><time>2026-09-02T19:12:30Z</time></trkpt><trkpt lat="59.5604203362" lon="31.2670238782"><ele>234.22</ele><time>2026-09-02T19:12:31Z</time></trkpt><trkpt lat="59.5604270417" lon="31.2670237944"><ele>234.22</ele><time>2026-09-02T19:12:32Z</time></trkpt><trkpt lat="59.5604328252" lon="31.2670193519"><ele>234.22</ele><time>2026-09-02T19:12:33Z</time></trkpt><trkpt lat="59.5604395308" lon="31.2670160830"><ele>234.22</ele><time>2026-09-02T19:12:34Z</time></trkpt><trkpt lat="59.5604454819" lon="31.2670154963"><ele>234.22</ele><time>2026-09-02T19:12:35Z</time></trkpt><trkpt lat="59.5604502596" lon="31.2670119759"><ele>234.22</ele><time>2026-09-02T19:12:36Z</time></trkpt><trkpt lat="59.5604522713" lon="31.2670065276"><ele>234.22</ele><time>2026-09-02T19:12:37Z</time></trkpt><trkpt lat="59.5604547858" lon="31.2670008279"><ele>233.74</ele><time>2026-09-02T19:12:38Z</time></trkpt><trkpt lat="59.5604586415" lon="31.2669951282"><ele>233.74</ele><time>2026-09-02T19:12:39Z</time></trkpt><trkpt lat="59.5604643412" lon="31.2669881713"><ele>233.74</ele><time>2026-09-02T19:12:40Z</time></trkpt><trkpt lat="59.5604696218" lon="31.2669762690"><ele>234.22</ele><time>2026-09-02T19:12:41Z</time></trkpt><trkpt lat="59.5604739804" lon="31.2669652887"><ele>234.22</ele><time>2026-09-02T19:12:42Z</time></trkpt><trkpt lat="59.5604784228" lon="31.2669563200"><ele>234.22</ele><time>2026-09-02T19:12:43Z</time></trkpt><trkpt lat="59.5604838710" lon="31.2669509556"><ele>234.22</ele><time>2026-09-02T19:12:44Z</time></trkpt><trkpt lat="59.5604888164" lon="31.2669462617"><ele>234.22</ele><time>2026-09-02T19:12:45Z</time></trkpt><trkpt lat="59.5604959410" lon="31.2669392210"><ele>234.22</ele><time>2026-09-02T19:12:46Z</time></trkpt><trkpt lat="59.5605024789" lon="31.2669319287"><ele>234.22</ele><time>2026-09-02T19:12:47Z</time></trkpt><trkpt lat="59.5605079271" lon="31.2669267319"><ele>234.22</ele><time>2026-09-02T19:12:48Z</time></trkpt><trkpt lat="59.5605136268" lon="31.2669187691"><ele>234.22</ele><time>2026-09-02T19:12:49Z</time></trkpt><trkpt lat="59.5605211705" lon="31.2669091299"><ele>234.22</ele><time>2026-09-02T19:12:50Z</time></trkpt><trkpt lat="59.5605258644" lon="31.2668991555"><ele>234.22</ele><time>2026-09-02T19:12:51Z</time></trkpt><trkpt lat="59.5605312288" lon="31.2668889295"><ele>234.22</ele><time>2026-09-02T19:12:52Z</time></trkpt><trkpt lat="59.5605388563" lon="31.2668805476"><ele>234.22</ele><time>2026-09-02T19:12:53Z</time></trkpt><trkpt lat="59.5605460647" lon="31.2668722495"><ele>234.22</ele><time>2026-09-02T19:12:54Z</time></trkpt><trkpt lat="59.5605508424" lon="31.2668664660"><ele>234.22</ele><time>2026-09-02T19:12:55Z</time></trkpt><trkpt lat="59.5605557878" lon="31.2668587547"><ele>234.22</ele><time>2026-09-02T19:12:56Z</time></trkpt><trkpt lat="59.5605617389" lon="31.2668513786"><ele>233.74</ele><time>2026-09-02T19:12:57Z</time></trkpt><trkpt lat="59.5605688635" lon="31.2668419909"><ele>234.22</ele><time>2026-09-02T19:12:58Z</time></trkpt><trkpt lat="59.5605726354" lon="31.2668370456"><ele>233.74</ele><time>2026-09-02T19:12:59Z</time></trkpt><trkpt lat="59.5605771616" lon="31.2668310944"><ele>233.74</ele><time>2026-09-02T19:13:00Z</time></trkpt><trkpt lat="59.5605812687" lon="31.2668252271"><ele>234.22</ele><time>2026-09-02T19:13:01Z</time></trkpt><trkpt lat="59.5605862979" lon="31.2668198626"><ele>234.22</ele><time>2026-09-02T19:13:02Z</time></trkpt><trkpt lat="59.5605949312" lon="31.2668099720"><ele>234.22</ele><time>2026-09-02T19:13:03Z</time></trkpt><trkpt lat="59.5606019720" lon="31.2667974830"><ele>234.22</ele><time>2026-09-02T19:13:04Z</time></trkpt><trkpt lat="59.5606075879" lon="31.2667855807"><ele>234.22</ele><time>2026-09-02T19:13:05Z</time></trkpt><trkpt lat="59.5606129523" lon="31.2667754386"><ele>234.22</ele><time>2026-09-02T19:13:06Z</time></trkpt><trkpt lat="59.5606184844" lon="31.2667655479"><ele>234.22</ele><time>2026-09-02T19:13:07Z</time></trkpt><trkpt lat="59.5606223401" lon="31.2667571660"><ele>234.22</ele><time>2026-09-02T19:13:08Z</time></trkpt><trkpt lat="59.5606261957" lon="31.2667495385"><ele>234.22</ele><time>2026-09-02T19:13:09Z</time></trkpt><trkpt lat="59.5606292970" lon="31.2667431682"><ele>233.74</ele><time>2026-09-02T19:13:10Z</time></trkpt><trkpt lat="59.5606331527" lon="31.2667366304"><ele>233.74</ele><time>2026-09-02T19:13:11Z</time></trkpt><trkpt lat="59.5606368408" lon="31.2667303439"><ele>233.74</ele><time>2026-09-02T19:13:12Z</time></trkpt><trkpt lat="59.5606417861" lon="31.2667232193"><ele>233.74</ele><time>2026-09-02T19:13:13Z</time></trkpt><trkpt lat="59.5606469829" lon="31.2667138316"><ele>233.74</ele><time>2026-09-02T19:13:14Z</time></trkpt><trkpt lat="59.5606534369" lon="31.2667055335"><ele>234.22</ele><time>2026-09-02T19:13:15Z</time></trkpt><trkpt lat="59.5606593881" lon="31.2666925415"><ele>234.22</ele><time>2026-09-02T19:13:16Z</time></trkpt><trkpt lat="59.5606653392" lon="31.2666795496"><ele>234.22</ele><time>2026-09-02T19:13:17Z</time></trkpt><trkpt lat="59.5606708713" lon="31.2666707486"><ele>234.22</ele><time>2026-09-02T19:13:18Z</time></trkpt><trkpt lat="59.5606729668" lon="31.2666630372"><ele>234.22</ele><time>2026-09-02T19:13:19Z</time></trkpt><trkpt lat="59.5606775768" lon="31.2666569185"><ele>233.74</ele><time>2026-09-02T19:13:20Z</time></trkpt><trkpt lat="59.5606817678" lon="31.2666480336"><ele>233.74</ele><time>2026-09-02T19:13:21Z</time></trkpt><trkpt lat="59.5606836956" lon="31.2666451838"><ele>233.74</ele><time>2026-09-02T19:13:22Z</time></trkpt><trkpt lat="59.5606836956" lon="31.2666455191"><ele>233.74</ele><time>2026-09-02T19:13:23Z</time></trkpt><trkpt lat="59.5606837794" lon="31.2666455191"><ele>233.74</ele><time>2026-09-02T19:13:24Z</time></trkpt><trkpt lat="59.5606837794" lon="31.2666455191"><ele>234.22</ele><time>2026-09-02T19:13:25Z</time></trkpt><trkpt lat="59.5606837794" lon="31.2666455191"><ele>234.22</ele><time>2026-09-02T19:13:26Z</time></trkpt><trkpt lat="59.5606837794" lon="31.2666455191"><ele>234.22</ele><time>2026-09-02T19:13:27Z</time></trkpt><trkpt lat="59.5606837794" lon="31.2666455191"><ele>234.22</ele><time>2026-09-02T19:13:28Z</time></trkpt><trkpt lat="59.5606837794" lon="31.2666455191"><ele>234.22</ele><time>2026-09-02T19:13:29Z</time></trkpt><trkpt lat="59.5606837794" lon="31.2666455191"><ele>234.22</ele><time>2026-09-02T19:13:30Z</time></trkpt><trkpt lat="59.5606837794" lon="31.2666455191"><ele>234.22</ele><time>2026-09-02T19:13:31Z</time></trkpt><trkpt lat="59.5606837794" lon="31.2666455191"><ele>234.22</ele><time>2026-09-02T19:13:32Z</time></trkpt><trkpt lat="59.5606837794" lon="31.2666455191"><ele>234.22</ele><time>2026-09-02T19:13:33Z</time></trkpt><trkpt lat="59.5606837794" lon="31.2666455191"><ele>234.22</ele><time>2026-09-02T19:13:34Z</time></trkpt><trkpt lat="59.5606911555" lon="31.2666127458"><ele>234.22</ele><time>2026-09-02T19:13:35Z</time></trkpt><trkpt lat="59.5606922451" lon="31.2666002568"><ele>234.22</ele><time>2026-09-02T19:13:36Z</time></trkpt><trkpt lat="59.5606972743" lon="31.2665858399"><ele>234.22</ele><time>2026-09-02T19:13:37Z</time></trkpt><trkpt lat="59.5607018843" lon="31.2665735185"><ele>233.74</ele><time>2026-09-02T19:13:38Z</time></trkpt><trkpt lat="59.5607050695" lon="31.2665655557"><ele>233.74</ele><time>2026-09-02T19:13:39Z</time></trkpt><trkpt lat="59.5607049856" lon="31.2665617839"><ele>233.74</ele><time>2026-09-02T19:13:40Z</time></trkpt><trkpt lat="59.5607043989" lon="31.2665579282"><ele>233.74</ele><time>2026-09-02T19:13:41Z</time></trkpt><trkpt lat="59.5607044827" lon="31.2665528990"><ele>233.74</ele><time>2026-09-02T19:13:42Z</time></trkpt><trkpt lat="59.5607044827" lon="31.2665528990"><ele>233.74</ele><time>2026-09-02T19:13:43Z</time></trkpt><trkpt lat="59.5607044827" lon="31.2665528990"><ele>234.22</ele><time>2026-09-02T19:13:44Z</time></trkpt><trkpt lat="59.5607044827" lon="31.2665528990"><ele>234.22</ele><time>2026-09-02T19:13:45Z</time></trkpt><trkpt lat="59.5607044827" lon="31.2665528990"><ele>234.22</ele><time>2026-09-02T19:13:46Z</time></trkpt><trkpt lat="59.5607044827" lon="31.2665528990"><ele>234.22</ele><time>2026-09-02T19:13:47Z</time></trkpt><trkpt lat="59.5607044827" lon="31.2665528990"><ele>234.22</ele><time>2026-09-02T19:13:48Z</time></trkpt><trkpt lat="59.5607044827" lon="31.2665528990"><ele>234.22</ele><time>2026-09-02T19:13:49Z</time></trkpt><trkpt lat="59.5607044827" lon="31.2665528990"><ele>234.22</ele><time>2026-09-02T19:13:50Z</time></trkpt><trkpt lat="59.5607044827" lon="31.2665528990"><ele>234.22</ele><time>2026-09-02T19:13:51Z</time></trkpt><trkpt lat="59.5607044827" lon="31.2665528990"><ele>234.22</ele><time>2026-09-02T19:13:52Z</time></trkpt><trkpt lat="59.5607044827" lon="31.2665528990"><ele>234.22</ele><time>2026-09-02T19:13:53Z</time></trkpt><trkpt lat="59.5607044827" lon="31.2665528990"><ele>234.22</ele><time>2026-09-02T19:13:54Z</time></trkpt><trkpt lat="59.5607044827" lon="31.2665528990"><ele>234.22</ele><time>2026-09-02T19:13:55Z</time></trkpt><trkpt lat="59.5607044827" lon="31.2665528990"><ele>234.22</ele><time>2026-09-02T19:13:56Z</time></trkpt><trkpt lat="59.5607044827" lon="31.2665528990"><ele>234.22</ele><time>2026-09-02T19:13:57Z</time></trkpt><trkpt lat="59.5607044827" lon="31.2665528990"><ele>234.22</ele><time>2026-09-02T19:13:58Z</time></trkpt><trkpt lat="59.5607044827" lon="31.2665528990"><ele>234.22</ele><time>2026-09-02T19:13:59Z</time></trkpt><trkpt lat="59.5607044827" lon="31.2665528990"><ele>233.74</ele><time>2026-09-02T19:14:00Z</time></trkpt><trkpt lat="59.5607044827" lon="31.2665528990"><ele>233.74</ele><time>2026-09-02T19:14:01Z</time></trkpt><trkpt lat="59.5607044827" lon="31.2665528990"><ele>233.74</ele><time>2026-09-02T19:14:02Z</time></trkpt><trkpt lat="59.5607044827" lon="31.2665528990"><ele>233.74</ele><time>2026-09-02T19:14:03Z</time></trkpt><trkpt lat="59.5607044827" lon="31.2665528990"><ele>233.74</ele><time>2026-09-02T19:14:04Z</time></trkpt><trkpt lat="59.5607044827" lon="31.2665528990"><ele>233.74</ele><time>2026-09-02T19:14:05Z</time></trkpt><trkpt lat="59.5607044827" lon="31.2665528990"><ele>233.74</ele><time>2026-09-02T19:14:06Z</time></trkpt><trkpt lat="59.5607044827" lon="31.2665528990"><ele>234.22</ele><time>2026-09-02T19:14:07Z</time></trkpt><trkpt lat="59.5607044827" lon="31.2665528990"><ele>234.22</ele><time>2026-09-02T19:14:08Z</time></trkpt><trkpt lat="59.5607044827" lon="31.2665528990"><ele>234.22</ele><time>2026-09-02T19:14:09Z</time></trkpt><trkpt lat="59.5607044827" lon="31.2665528990"><ele>233.74</ele><time>2026-09-02T19:14:10Z</time></trkpt><trkpt lat="59.5607044827" lon="31.2665528990"><ele>233.74</ele><time>2026-09-02T19:14:11Z</time></trkpt><trkpt lat="59.5607044827" lon="31.2665528990"><ele>234.22</ele><time>2026-09-02T19:14:12Z</time></trkpt><trkpt lat="59.5607044827" lon="31.2665528990"><ele>234.22</ele><time>2026-09-02T19:14:13Z</time></trkpt><trkpt lat="59.5607044827" lon="31.2665528990"><ele>233.74</ele><time>2026-09-02T19:14:14Z</time></trkpt><trkpt lat="59.5607044827" lon="31.2665528990"><ele>234.22</ele><time>2026-09-02T19:14:15Z</time></trkpt><trkpt lat="59.5607044827" lon="31.2665528990"><ele>233.74</ele><time>2026-09-02T19:14:16Z</time></trkpt><trkpt lat="59.5607044827" lon="31.2665528990"><ele>233.74</ele><time>2026-09-02T19:14:17Z</time></trkpt><trkpt lat="59.5607044827" lon="31.2665528990"><ele>234.22</ele><time>2026-09-02T19:14:18Z</time></trkpt><trkpt lat="59.5607044827" lon="31.2665528990"><ele>233.74</ele><time>2026-09-02T19:14:19Z</time></trkpt><trkpt lat="59.5607044827" lon="31.2665528990"><ele>233.74</ele><time>2026-09-02T19:14:20Z</time></trkpt><trkpt lat="59.5607044827" lon="31.2665528990"><ele>234.22</ele><time>2026-09-02T19:14:21Z</time></trkpt><trkpt lat="59.5607044827" lon="31.2665528990"><ele>234.22</ele><time>2026-09-02T19:14:22Z</time></trkpt><trkpt lat="59.5607044827" lon="31.2665528990"><ele>234.22</ele><time>2026-09-02T19:14:23Z</time></trkpt><trkpt lat="59.5607044827" lon="31.2665528990"><ele>234.22</ele><time>2026-09-02T19:14:24Z</time></trkpt><trkpt lat="59.5607044827" lon="31.2665528990"><ele>234.22</ele><time>2026-09-02T19:14:25Z</time></trkpt><trkpt lat="59.5607044827" lon="31.2665528990"><ele>234.22</ele><time>2026-09-02T19:14:26Z</time></trkpt><trkpt lat="59.5607044827" lon="31.2665528990"><ele>234.22</ele><time>2026-09-02T19:14:27Z</time></trkpt><trkpt lat="59.5607044827" lon="31.2665528990"><ele>234.22</ele><time>2026-09-02T19:14:28Z</time></trkpt><trkpt lat="59.5607044827" lon="31.2665528990"><ele>234.22</ele><time>2026-09-02T19:14:29Z</time></trkpt><trkpt lat="59.5607044827" lon="31.2665528990"><ele>234.22</ele><time>2026-09-02T19:14:30Z</time></trkpt><trkpt lat="59.5607044827" lon="31.2665528990"><ele>234.22</ele><time>2026-09-02T19:14:31Z</time></trkpt><trkpt lat="59.5607044827" lon="31.2665528990"><ele>233.74</ele><time>2026-09-02T19:14:32Z</time></trkpt><trkpt lat="59.5607044827" lon="31.2665528990"><ele>233.74</ele><time>2026-09-02T19:14:33Z</time></trkpt><trkpt lat="59.5607044827" lon="31.2665528990"><ele>233.74</ele><time>2026-09-02T19:14:34Z</time></trkpt><trkpt lat="59.5607044827" lon="31.2665528990"><ele>234.22</ele><time>2026-09-02T19:14:35Z</time></trkpt><trkpt lat="59.5607044827" lon="31.2665528990"><ele>233.74</ele><time>2026-09-02T19:14:36Z</time></trkpt><trkpt lat="59.5607044827" lon="31.2665528990"><ele>233.74</ele><time>2026-09-02T19:14:37Z</time></trkpt><trkpt lat="59.5607044827" lon="31.2665528990"><ele>233.74</ele><time>2026-09-02T19:14:38Z</time></trkpt><trkpt lat="59.5607044827" lon="31.2665528990"><ele>233.74</ele><time>2026-09-02T19:14:39Z</time></trkpt><trkpt lat="59.5607044827" lon="31.2665528990"><ele>233.74</ele><time>2026-09-02T19:14:40Z</time></trkpt><trkpt lat="59.5607044827" lon="31.2665528990"><ele>233.74</ele><time>2026-09-02T19:14:41Z</time></trkpt><trkpt lat="59.5607044827" lon="31.2665528990"><ele>233.74</ele><time>2026-09-02T19:14:42Z</time></trkpt><trkpt lat="59.5607044827" lon="31.2665528990"><ele>233.74</ele><time>2026-09-02T19:14:43Z</time></trkpt><trkpt lat="59.5607044827" lon="31.2665528990"><ele>233.74</ele><time>2026-09-02T19:14:44Z</time></trkpt><trkpt lat="59.5607044827" lon="31.2665528990"><ele>233.74</ele><time>2026-09-02T19:14:45Z</time></trkpt><trkpt lat="59.5607044827" lon="31.2665528990"><ele>233.74</ele><time>2026-09-02T19:14:46Z</time></trkpt><trkpt lat="59.5607044827" lon="31.2665528990"><ele>233.74</ele><time>2026-09-02T19:14:47Z</time></trkpt><trkpt lat="59.5607044827" lon="31.2665528990"><ele>233.74</ele><time>2026-09-02T19:14:48Z</time></trkpt><trkpt lat="59.5607044827" lon="31.2665528990"><ele>233.74</ele><time>2026-09-02T19:14:49Z</time></trkpt><trkpt lat="59.5606550295" lon="31.2665334530"><ele>233.74</ele><time>2026-09-02T19:14:50Z</time></trkpt><trkpt lat="59.5606521796" lon="31.2665204611"><ele>233.74</ele><time>2026-09-02T19:14:51Z</time></trkpt><trkpt lat="59.5606501680" lon="31.2665084749"><ele>233.74</ele><time>2026-09-02T19:14:52Z</time></trkpt><trkpt lat="59.5606463961" lon="31.2664991710"><ele>233.74</ele><time>2026-09-02T19:14:53Z</time></trkpt><trkpt lat="59.5606430434" lon="31.2664900348"><ele>233.74</ele><time>2026-09-02T19:14:54Z</time></trkpt><trkpt lat="59.5606421214" lon="31.2664802279"><ele>233.74</ele><time>2026-09-02T19:14:55Z</time></trkpt><trkpt lat="59.5606411994" lon="31.2664675713"><ele>233.74</ele><time>2026-09-02T19:14:56Z</time></trkpt><trkpt lat="59.5606412832" lon="31.2664518971"><ele>233.74</ele><time>2026-09-02T19:14:57Z</time></trkpt><trkpt lat="59.5606402773" lon="31.2664358877"><ele>233.74</ele><time>2026-09-02T19:14:58Z</time></trkpt><trkpt lat="59.5606396906" lon="31.2664232310"><ele>233.74</ele><time>2026-09-02T19:14:59Z</time></trkpt><trkpt lat="59.5606382657" lon="31.2664107420"><ele>233.74</ele><time>2026-09-02T19:15:00Z</time></trkpt><trkpt lat="59.5606368408" lon="31.2663986720"><ele>233.74</ele><time>2026-09-02T19:15:01Z</time></trkpt><trkpt lat="59.5606343262" lon="31.2663861830"><ele>233.74</ele><time>2026-09-02T19:15:02Z</time></trkpt><trkpt lat="59.5606308896" lon="31.2663755380"><ele>233.74</ele><time>2026-09-02T19:15:03Z</time></trkpt><trkpt lat="59.5606275368" lon="31.2663615402"><ele>233.74</ele><time>2026-09-02T19:15:04Z</time></trkpt><trkpt lat="59.5606244355" lon="31.2663482968"><ele>233.74</ele><time>2026-09-02T19:15:05Z</time></trkpt><trkpt lat="59.5606201608" lon="31.2663364783"><ele>233.74</ele><time>2026-09-02T19:15:06Z</time></trkpt><trkpt lat="59.5606150478" lon="31.2663235702"><ele>233.74</ele><time>2026-09-02T19:15:07Z</time></trkpt><trkpt lat="59.5606106892" lon="31.2663130928"><ele>233.74</ele><time>2026-09-02T19:15:08Z</time></trkpt><trkpt lat="59.5606048219" lon="31.2663010228"><ele>233.74</ele><time>2026-09-02T19:15:09Z</time></trkpt><trkpt lat="59.5606006309" lon="31.2662889529"><ele>233.74</ele><time>2026-09-02T19:15:10Z</time></trkpt><trkpt lat="59.5605969429" lon="31.2662777212"><ele>233.74</ele><time>2026-09-02T19:15:11Z</time></trkpt><trkpt lat="59.5605925843" lon="31.2662662379"><ele>233.74</ele><time>2026-09-02T19:15:12Z</time></trkpt><trkpt lat="59.5605882257" lon="31.2662556767"><ele>233.74</ele><time>2026-09-02T19:15:13Z</time></trkpt><trkpt lat="59.5605826937" lon="31.2662453670"><ele>233.74</ele><time>2026-09-02T19:15:14Z</time></trkpt><trkpt lat="59.5605787542" lon="31.2662320398"><ele>233.74</ele><time>2026-09-02T19:15:15Z</time></trkpt><trkpt lat="59.5605759881" lon="31.2662153598"><ele>233.74</ele><time>2026-09-02T19:15:16Z</time></trkpt><trkpt lat="59.5605729707" lon="31.2662037928"><ele>233.74</ele><time>2026-09-02T19:15:17Z</time></trkpt><trkpt lat="59.5605687797" lon="31.2661946565"><ele>233.74</ele><time>2026-09-02T19:15:18Z</time></trkpt><trkpt lat="59.5605648402" lon="31.2661833409"><ele>233.74</ele><time>2026-09-02T19:15:19Z</time></trkpt><trkpt lat="59.5605621580" lon="31.2661729474"><ele>233.74</ele><time>2026-09-02T19:15:20Z</time></trkpt><trkpt lat="59.5605594758" lon="31.2661630567"><ele>233.74</ele><time>2026-09-02T19:15:21Z</time></trkpt><trkpt lat="59.5605578832" lon="31.2661535852"><ele>233.74</ele><time>2026-09-02T19:15:22Z</time></trkpt><trkpt lat="59.5605575480" lon="31.2661486398"><ele>233.74</ele><time>2026-09-02T19:15:23Z</time></trkpt><trkpt lat="59.5605549496" lon="31.2661463767"><ele>233.74</ele><time>2026-09-02T19:15:24Z</time></trkpt><trkpt lat="59.5605515968" lon="31.2661418505"><ele>233.74</ele><time>2026-09-02T19:15:25Z</time></trkpt><trkpt lat="59.5605515968" lon="31.2661418505"><ele>233.74</ele><time>2026-09-02T19:15:26Z</time></trkpt><trkpt lat="59.5605429634" lon="31.2661215663"><ele>233.74</ele><time>2026-09-02T19:15:27Z</time></trkpt><trkpt lat="59.5605403651" lon="31.2661118433"><ele>233.74</ele><time>2026-09-02T19:15:28Z</time></trkpt><trkpt lat="59.5605370961" lon="31.2661046349"><ele>233.74</ele><time>2026-09-02T19:15:29Z</time></trkpt><trkpt lat="59.5605341624" lon="31.2660981808"><ele>233.74</ele><time>2026-09-02T19:15:30Z</time></trkpt><trkpt lat="59.5605328213" lon="31.2660860270"><ele>233.74</ele><time>2026-09-02T19:15:31Z</time></trkpt><trkpt lat="59.5605298877" lon="31.2660759687"><ele>233.74</ele><time>2026-09-02T19:15:32Z</time></trkpt><trkpt lat="59.5605261996" lon="31.2660657428"><ele>233.74</ele><time>2026-09-02T19:15:33Z</time></trkpt><trkpt lat="59.5605222601" lon="31.2660570256"><ele>233.74</ele><time>2026-09-02T19:15:34Z</time></trkpt><trkpt lat="59.5605167281" lon="31.2660459615"><ele>233.74</ele><time>2026-09-02T19:15:35Z</time></trkpt><trkpt lat="59.5605105255" lon="31.2660338916"><ele>233.74</ele><time>2026-09-02T19:15:36Z</time></trkpt><trkpt lat="59.5605037361" lon="31.2660259288"><ele>233.74</ele><time>2026-09-02T19:15:37Z</time></trkpt><trkpt lat="59.5604971983" lon="31.2660144456"><ele>233.74</ele><time>2026-09-02T19:15:38Z</time></trkpt><trkpt lat="59.5604898222" lon="31.2660056446"><ele>233.74</ele><time>2026-09-02T19:15:39Z</time></trkpt><trkpt lat="59.5604835358" lon="31.2659954187"><ele>233.74</ele><time>2026-09-02T19:15:40Z</time></trkpt><trkpt lat="59.5604797639" lon="31.2659899704"><ele>233.74</ele><time>2026-09-02T19:15:41Z</time></trkpt><trkpt lat="59.5604770817" lon="31.2659879588"><ele>233.74</ele><time>2026-09-02T19:15:42Z</time></trkpt><trkpt lat="59.5604740642" lon="31.2659907248"><ele>233.74</ele><time>2026-09-02T19:15:43Z</time></trkpt><trkpt lat="59.5604754891" lon="31.2659886293"><ele>233.74</ele><time>2026-09-02T19:15:44Z</time></trkpt><trkpt lat="59.5604754891" lon="31.2659886293"><ele>233.74</ele><time>2026-09-02T19:15:45Z</time></trkpt><trkpt lat="59.5604754891" lon="31.2659886293"><ele>233.74</ele><time>2026-09-02T19:15:46Z</time></trkpt><trkpt lat="59.5604754891" lon="31.2659886293"><ele>233.74</ele><time>2026-09-02T19:15:47Z</time></trkpt><trkpt lat="59.5604754891" lon="31.2659886293"><ele>233.74</ele><time>2026-09-02T19:15:48Z</time></trkpt><trkpt lat="59.5604649279" lon="31.2659554370"><ele>233.74</ele><time>2026-09-02T19:15:49Z</time></trkpt><trkpt lat="59.5604618266" lon="31.2659540959"><ele>233.74</ele><time>2026-09-02T19:15:50Z</time></trkpt><trkpt lat="59.5604570489" lon="31.2659560237"><ele>233.74</ele><time>2026-09-02T19:15:51Z</time></trkpt><trkpt lat="59.5604532771" lon="31.2659577839"><ele>233.74</ele><time>2026-09-02T19:15:52Z</time></trkpt><trkpt lat="59.5604504272" lon="31.2659597956"><ele>233.74</ele><time>2026-09-02T19:15:53Z</time></trkpt><trkpt lat="59.5604493376" lon="31.2659584545"><ele>233.74</ele><time>2026-09-02T19:15:54Z</time></trkpt><trkpt lat="59.5604479965" lon="31.2659581192"><ele>233.74</ele><time>2026-09-02T19:15:55Z</time></trkpt><trkpt lat="59.5604479965" lon="31.2659581192"><ele>233.74</ele><time>2026-09-02T19:15:56Z</time></trkpt><trkpt lat="59.5604479965" lon="31.2659581192"><ele>233.74</ele><time>2026-09-02T19:15:57Z</time></trkpt><trkpt lat="59.5604479965" lon="31.2659581192"><ele>233.74</ele><time>2026-09-02T19:15:58Z</time></trkpt><trkpt lat="59.5604479965" lon="31.2659581192"><ele>233.74</ele><time>2026-09-02T19:15:59Z</time></trkpt><trkpt lat="59.5604479965" lon="31.2659581192"><ele>233.74</ele><time>2026-09-02T19:16:00Z</time></trkpt><trkpt lat="59.5604479965" lon="31.2659581192"><ele>233.74</ele><time>2026-09-02T19:16:01Z</time></trkpt><trkpt lat="59.5604479965" lon="31.2659581192"><ele>233.74</ele><time>2026-09-02T19:16:02Z</time></trkpt><trkpt lat="59.5604479965" lon="31.2659581192"><ele>233.74</ele><time>2026-09-02T19:16:03Z</time></trkpt><trkpt lat="59.5604479965" lon="31.2659581192"><ele>233.74</ele><time>2026-09-02T19:16:04Z</time></trkpt><trkpt lat="59.5604479965" lon="31.2659581192"><ele>233.74</ele><time>2026-09-02T19:16:05Z</time></trkpt><trkpt lat="59.5604479965" lon="31.2659581192"><ele>233.74</ele><time>2026-09-02T19:16:06Z</time></trkpt><trkpt lat="59.5604479965" lon="31.2659581192"><ele>233.74</ele><time>2026-09-02T19:16:07Z</time></trkpt><trkpt lat="59.5604479965" lon="31.2659581192"><ele>233.74</ele><time>2026-09-02T19:16:08Z</time></trkpt><trkpt lat="59.5604479965" lon="31.2659581192"><ele>233.74</ele><time>2026-09-02T19:16:09Z</time></trkpt><trkpt lat="59.5604479965" lon="31.2659581192"><ele>233.74</ele><time>2026-09-02T19:16:10Z</time></trkpt><trkpt lat="59.5604479965" lon="31.2659581192"><ele>233.74</ele><time>2026-09-02T19:16:11Z</time></trkpt><trkpt lat="59.5604479965" lon="31.2659581192"><ele>233.74</ele><time>2026-09-02T19:16:12Z</time></trkpt><trkpt lat="59.5604479965" lon="31.2659581192"><ele>233.74</ele><time>2026-09-02T19:16:13Z</time></trkpt><trkpt lat="59.5604479965" lon="31.2659581192"><ele>233.74</ele><time>2026-09-02T19:16:14Z</time></trkpt><trkpt lat="59.5604479965" lon="31.2659581192"><ele>233.74</ele><time>2026-09-02T19:16:15Z</time></trkpt><trkpt lat="59.5604479965" lon="31.2659581192"><ele>233.74</ele><time>2026-09-02T19:16:16Z</time></trkpt><trkpt lat="59.5604479965" lon="31.2659581192"><ele>233.74</ele><time>2026-09-02T19:16:17Z</time></trkpt><trkpt lat="59.5604479965" lon="31.2659581192"><ele>233.74</ele><time>2026-09-02T19:16:18Z</time></trkpt><trkpt lat="59.5604479965" lon="31.2659581192"><ele>233.74</ele><time>2026-09-02T19:16:19Z</time></trkpt><trkpt lat="59.5604479965" lon="31.2659581192"><ele>233.74</ele><time>2026-09-02T19:16:20Z</time></trkpt><trkpt lat="59.5604479965" lon="31.2659581192"><ele>233.74</ele><time>2026-09-02T19:16:21Z</time></trkpt><trkpt lat="59.5604479965" lon="31.2659581192"><ele>233.74</ele><time>2026-09-02T19:16:22Z</time></trkpt><trkpt lat="59.5604479965" lon="31.2659581192"><ele>233.74</ele><time>2026-09-02T19:16:23Z</time></trkpt><trkpt lat="59.5604479965" lon="31.2659581192"><ele>233.74</ele><time>2026-09-02T19:16:24Z</time></trkpt><trkpt lat="59.5604479965" lon="31.2659581192"><ele>233.74</ele><time>2026-09-02T19:16:25Z</time></trkpt><trkpt lat="59.5604479965" lon="31.2659581192"><ele>233.74</ele><time>2026-09-02T19:16:26Z</time></trkpt><trkpt lat="59.5604479965" lon="31.2659581192"><ele>233.74</ele><time>2026-09-02T19:16:27Z</time></trkpt><trkpt lat="59.5604479965" lon="31.2659581192"><ele>233.74</ele><time>2026-09-02T19:16:28Z</time></trkpt><trkpt lat="59.5604479965" lon="31.2659581192"><ele>233.74</ele><time>2026-09-02T19:16:29Z</time></trkpt><trkpt lat="59.5604479965" lon="31.2659581192"><ele>233.74</ele><time>2026-09-02T19:16:30Z</time></trkpt><trkpt lat="59.5604479965" lon="31.2659581192"><ele>233.74</ele><time>2026-09-02T19:16:31Z</time></trkpt><trkpt lat="59.5604479965" lon="31.2659581192"><ele>233.74</ele><time>2026-09-02T19:16:32Z</time></trkpt><trkpt lat="59.5604479965" lon="31.2659581192"><ele>233.74</ele><time>2026-09-02T19:16:34Z</time></trkpt><trkpt lat="59.5604479965" lon="31.2659581192"><ele>233.74</ele><time>2026-09-02T19:16:35Z</time></trkpt><trkpt lat="59.5604479965" lon="31.2659581192"><ele>233.74</ele><time>2026-09-02T19:16:36Z</time></trkpt><trkpt lat="59.5604479965" lon="31.2659581192"><ele>233.74</ele><time>2026-09-02T19:16:37Z</time></trkpt><trkpt lat="59.5604479965" lon="31.2659581192"><ele>233.74</ele><time>2026-09-02T19:16:38Z</time></trkpt><trkpt lat="59.5604479965" lon="31.2659581192"><ele>233.74</ele><time>2026-09-02T19:16:39Z</time></trkpt><trkpt lat="59.5604479965" lon="31.2659581192"><ele>233.74</ele><time>2026-09-02T19:16:40Z</time></trkpt><trkpt lat="59.5604479965" lon="31.2659581192"><ele>233.74</ele><time>2026-09-02T19:16:41Z</time></trkpt><trkpt lat="59.5604479965" lon="31.2659581192"><ele>233.74</ele><time>2026-09-02T19:16:42Z</time></trkpt><trkpt lat="59.5604479965" lon="31.2659581192"><ele>233.74</ele><time>2026-09-02T19:16:43Z</time></trkpt><trkpt lat="59.5604479965" lon="31.2659581192"><ele>233.74</ele><time>2026-09-02T19:16:44Z</time></trkpt><trkpt lat="59.5604479965" lon="31.2659581192"><ele>233.74</ele><time>2026-09-02T19:16:45Z</time></trkpt><trkpt lat="59.5604479965" lon="31.2659581192"><ele>233.74</ele><time>2026-09-02T19:16:46Z</time></trkpt><trkpt lat="59.5604479965" lon="31.2659581192"><ele>233.74</ele><time>2026-09-02T19:16:47Z</time></trkpt><trkpt lat="59.5604479965" lon="31.2659581192"><ele>233.74</ele><time>2026-09-02T19:16:48Z</time></trkpt><trkpt lat="59.5604479965" lon="31.2659581192"><ele>233.74</ele><time>2026-09-02T19:16:49Z</time></trkpt><trkpt lat="59.5604479965" lon="31.2659581192"><ele>233.74</ele><time>2026-09-02T19:16:50Z</time></trkpt><trkpt lat="59.5604479965" lon="31.2659581192"><ele>233.74</ele><time>2026-09-02T19:16:51Z</time></trkpt><trkpt lat="59.5604479965" lon="31.2659581192"><ele>233.74</ele><time>2026-09-02T19:16:52Z</time></trkpt><trkpt lat="59.5604479965" lon="31.2659581192"><ele>233.74</ele><time>2026-09-02T19:16:53Z</time></trkpt><trkpt lat="59.5604479965" lon="31.2659581192"><ele>233.74</ele><time>2026-09-02T19:16:54Z</time></trkpt><trkpt lat="59.5604479965" lon="31.2659581192"><ele>233.74</ele><time>2026-09-02T19:16:55Z</time></trkpt><trkpt lat="59.5604479965" lon="31.2659581192"><ele>233.74</ele><time>2026-09-02T19:16:56Z</time></trkpt><trkpt lat="59.5604479965" lon="31.2659581192"><ele>233.74</ele><time>2026-09-02T19:16:57Z</time></trkpt><trkpt lat="59.5604479965" lon="31.2659581192"><ele>233.74</ele><time>2026-09-02T19:16:58Z</time></trkpt><trkpt lat="59.5604479965" lon="31.2659581192"><ele>233.74</ele><time>2026-09-02T19:16:59Z</time></trkpt><trkpt lat="59.5604479965" lon="31.2659581192"><ele>233.74</ele><time>2026-09-02T19:17:00Z</time></trkpt><trkpt lat="59.5604479965" lon="31.2659581192"><ele>233.74</ele><time>2026-09-02T19:17:01Z</time></trkpt><trkpt lat="59.5604479965" lon="31.2659581192"><ele>233.74</ele><time>2026-09-02T19:17:02Z</time></trkpt><trkpt lat="59.5604479965" lon="31.2659581192"><ele>233.74</ele><time>2026-09-02T19:17:03Z</time></trkpt><trkpt lat="59.5604479965" lon="31.2659581192"><ele>233.74</ele><time>2026-09-02T19:17:04Z</time></trkpt><trkpt lat="59.5604479965" lon="31.2659581192"><ele>233.74</ele><time>2026-09-02T19:17:05Z</time></trkpt><trkpt lat="59.5604479965" lon="31.2659581192"><ele>233.74</ele><time>2026-09-02T19:17:06Z</time></trkpt><trkpt lat="59.5604479965" lon="31.2659581192"><ele>233.74</ele><time>2026-09-02T19:17:07Z</time></trkpt><trkpt lat="59.5604479965" lon="31.2659581192"><ele>233.74</ele><time>2026-09-02T19:17:08Z</time></trkpt><trkpt lat="59.5604479965" lon="31.2659581192"><ele>233.74</ele><time>2026-09-02T19:17:09Z</time></trkpt><trkpt lat="59.5604479965" lon="31.2659581192"><ele>233.74</ele><time>2026-09-02T19:17:10Z</time></trkpt><trkpt lat="59.5604479965" lon="31.2659581192"><ele>233.74</ele><time>2026-09-02T19:17:11Z</time></trkpt><trkpt lat="59.5604479965" lon="31.2659581192"><ele>233.74</ele><time>2026-09-02T19:17:12Z</time></trkpt><trkpt lat="59.5604479965" lon="31.2659581192"><ele>233.74</ele><time>2026-09-02T19:17:13Z</time></trkpt><trkpt lat="59.5604479965" lon="31.2659581192"><ele>233.74</ele><time>2026-09-02T19:17:14Z</time></trkpt><trkpt lat="59.5604479965" lon="31.2659581192"><ele>233.74</ele><time>2026-09-02T19:17:15Z</time></trkpt><trkpt lat="59.5604479965" lon="31.2659581192"><ele>233.74</ele><time>2026-09-02T19:17:16Z</time></trkpt><trkpt lat="59.5604479965" lon="31.2659581192"><ele>233.74</ele><time>2026-09-02T19:17:17Z</time></trkpt><trkpt lat="59.5604479965" lon="31.2659581192"><ele>233.74</ele><time>2026-09-02T19:17:18Z</time></trkpt><trkpt lat="59.5604479965" lon="31.2659581192"><ele>233.74</ele><time>2026-09-02T19:17:19Z</time></trkpt><trkpt lat="59.5604479965" lon="31.2659581192"><ele>233.74</ele><time>2026-09-02T19:17:20Z</time></trkpt><trkpt lat="59.5604479965" lon="31.2659581192"><ele>233.74</ele><time>2026-09-02T19:17:21Z</time></trkpt><trkpt lat="59.5604479965" lon="31.2659581192"><ele>233.74</ele><time>2026-09-02T19:17:22Z</time></trkpt><trkpt lat="59.5604479965" lon="31.2659581192"><ele>233.74</ele><time>2026-09-02T19:17:23Z</time></trkpt><trkpt lat="59.5604479965" lon="31.2659581192"><ele>233.74</ele><time>2026-09-02T19:17:24Z</time></trkpt><trkpt lat="59.5604479965" lon="31.2659581192"><ele>233.74</ele><time>2026-09-02T19:17:25Z</time></trkpt><trkpt lat="59.5604479965" lon="31.2659581192"><ele>233.74</ele><time>2026-09-02T19:17:26Z</time></trkpt><trkpt lat="59.5604479965" lon="31.2659581192"><ele>233.74</ele><time>2026-09-02T19:17:27Z</time></trkpt><trkpt lat="59.5604479965" lon="31.2659581192"><ele>233.74</ele><time>2026-09-02T19:17:28Z</time></trkpt><trkpt lat="59.5604479965" lon="31.2659581192"><ele>233.74</ele><time>2026-09-02T19:17:29Z</time></trkpt><trkpt lat="59.5604479965" lon="31.2659581192"><ele>233.74</ele><time>2026-09-02T19:17:30Z</time></trkpt><trkpt lat="59.5604479965" lon="31.2659581192"><ele>233.74</ele><time>2026-09-02T19:17:31Z</time></trkpt><trkpt lat="59.5603749901" lon="31.2660559360"><ele>233.74</ele><time>2026-09-02T19:17:32Z</time></trkpt><trkpt lat="59.5603695419" lon="31.2660582829"><ele>233.74</ele><time>2026-09-02T19:17:33Z</time></trkpt><trkpt lat="59.5603644289" lon="31.2660606299"><ele>233.74</ele><time>2026-09-02T19:17:34Z</time></trkpt><trkpt lat="59.5603576396" lon="31.2660658266"><ele>233.74</ele><time>2026-09-02T19:17:35Z</time></trkpt><trkpt lat="59.5603506826" lon="31.2660717778"><ele>233.74</ele><time>2026-09-02T19:17:36Z</time></trkpt><trkpt lat="59.5603440609" lon="31.2660774775"><ele>233.74</ele><time>2026-09-02T19:17:37Z</time></trkpt><trkpt lat="59.5603401214" lon="31.2660842668"><ele>233.74</ele><time>2026-09-02T19:17:38Z</time></trkpt><trkpt lat="59.5603361819" lon="31.2660953309"><ele>233.74</ele><time>2026-09-02T19:17:39Z</time></trkpt><trkpt lat="59.5603340864" lon="31.2661066465"><ele>233.74</ele><time>2026-09-02T19:17:40Z</time></trkpt><trkpt lat="59.5603298955" lon="31.2661201414"><ele>233.74</ele><time>2026-09-02T19:17:41Z</time></trkpt><trkpt lat="59.5603274647" lon="31.2661320437"><ele>233.74</ele><time>2026-09-02T19:17:42Z</time></trkpt><trkpt lat="59.5603248663" lon="31.2661433592"><ele>233.74</ele><time>2026-09-02T19:17:43Z</time></trkpt><trkpt lat="59.5603226870" lon="31.2661551777"><ele>233.74</ele><time>2026-09-02T19:17:44Z</time></trkpt><trkpt lat="59.5603199210" lon="31.2661634758"><ele>233.74</ele><time>2026-09-02T19:17:45Z</time></trkpt><trkpt lat="59.5603163168" lon="31.2661688402"><ele>233.74</ele><time>2026-09-02T19:17:46Z</time></trkpt><trkpt lat="59.5603122935" lon="31.2661760487"><ele>233.74</ele><time>2026-09-02T19:17:47Z</time></trkpt><trkpt lat="59.5603069291" lon="31.2661856879"><ele>233.74</ele><time>2026-09-02T19:17:48Z</time></trkpt><trkpt lat="59.5603015646" lon="31.2661984283"><ele>233.74</ele><time>2026-09-02T19:17:49Z</time></trkpt><trkpt lat="59.5602966193" lon="31.2662072293"><ele>233.74</ele><time>2026-09-02T19:17:50Z</time></trkpt><trkpt lat="59.5602927636" lon="31.2662140187"><ele>233.74</ele><time>2026-09-02T19:17:51Z</time></trkpt><trkpt lat="59.5602884889" lon="31.2662196346"><ele>233.74</ele><time>2026-09-02T19:17:52Z</time></trkpt><trkpt lat="59.5602851361" lon="31.2662212271"><ele>233.74</ele><time>2026-09-02T19:17:53Z</time></trkpt><trkpt lat="59.5602838788" lon="31.2662239932"><ele>233.74</ele><time>2026-09-02T19:17:54Z</time></trkpt><trkpt lat="59.5602808613" lon="31.2662241608"><ele>233.74</ele><time>2026-09-02T19:17:55Z</time></trkpt><trkpt lat="59.5602808613" lon="31.2662241608"><ele>233.74</ele><time>2026-09-02T19:17:56Z</time></trkpt><trkpt lat="59.5602722280" lon="31.2662162818"><ele>233.74</ele><time>2026-09-02T19:17:57Z</time></trkpt><trkpt lat="59.5602699649" lon="31.2662152760"><ele>233.74</ele><time>2026-09-02T19:17:58Z</time></trkpt><trkpt lat="59.5602679532" lon="31.2662142701"><ele>233.74</ele><time>2026-09-02T19:17:59Z</time></trkpt><trkpt lat="59.5602669474" lon="31.2662150245"><ele>233.74</ele><time>2026-09-02T19:18:00Z</time></trkpt><trkpt lat="59.5602669474" lon="31.2662150245"><ele>233.74</ele><time>2026-09-02T19:18:01Z</time></trkpt><trkpt lat="59.5602669474" lon="31.2662150245"><ele>233.74</ele><time>2026-09-02T19:18:02Z</time></trkpt><trkpt lat="59.5602669474" lon="31.2662150245"><ele>233.74</ele><time>2026-09-02T19:18:03Z</time></trkpt><trkpt lat="59.5602669474" lon="31.2662150245"><ele>233.26</ele><time>2026-09-02T19:18:04Z</time></trkpt><trkpt lat="59.5602669474" lon="31.2662150245"><ele>233.26</ele><time>2026-09-02T19:18:05Z</time></trkpt><trkpt lat="59.5602669474" lon="31.2662150245"><ele>233.26</ele><time>2026-09-02T19:18:06Z</time></trkpt><trkpt lat="59.5602669474" lon="31.2662150245"><ele>233.26</ele><time>2026-09-02T19:18:07Z</time></trkpt><trkpt lat="59.5602669474" lon="31.2662150245"><ele>233.74</ele><time>2026-09-02T19:18:08Z</time></trkpt><trkpt lat="59.5602427237" lon="31.2662330456"><ele>233.74</ele><time>2026-09-02T19:18:09Z</time></trkpt><trkpt lat="59.5602404606" lon="31.2662405893"><ele>233.74</ele><time>2026-09-02T19:18:10Z</time></trkpt><trkpt lat="59.5602380298" lon="31.2662484683"><ele>233.74</ele><time>2026-09-02T19:18:11Z</time></trkpt><trkpt lat="59.5602339227" lon="31.2662523240"><ele>233.74</ele><time>2026-09-02T19:18:12Z</time></trkpt><trkpt lat="59.5602339227" lon="31.2662523240"><ele>233.74</ele><time>2026-09-02T19:18:13Z</time></trkpt><trkpt lat="59.5602339227" lon="31.2662523240"><ele>233.74</ele><time>2026-09-02T19:18:14Z</time></trkpt><trkpt lat="59.5602339227" lon="31.2662523240"><ele>233.74</ele><time>2026-09-02T19:18:15Z</time></trkpt><trkpt lat="59.5602183323" lon="31.2662867736"><ele>233.74</ele><time>2026-09-02T19:18:16Z</time></trkpt><trkpt lat="59.5602147281" lon="31.2662923895"><ele>233.74</ele><time>2026-09-02T19:18:17Z</time></trkpt><trkpt lat="59.5602077711" lon="31.2662954908"><ele>233.74</ele><time>2026-09-02T19:18:18Z</time></trkpt><trkpt lat="59.5602045860" lon="31.2663006876"><ele>233.74</ele><time>2026-09-02T19:18:19Z</time></trkpt><trkpt lat="59.5601988863" lon="31.2663121708"><ele>233.74</ele><time>2026-09-02T19:18:20Z</time></trkpt><trkpt lat="59.5601931866" lon="31.2663234863"><ele>233.74</ele><time>2026-09-02T19:18:21Z</time></trkpt><trkpt lat="59.5601885766" lon="31.2663376518"><ele>234.22</ele><time>2026-09-02T19:18:22Z</time></trkpt><trkpt lat="59.5601828769" lon="31.2663477939"><ele>234.22</ele><time>2026-09-02T19:18:23Z</time></trkpt><trkpt lat="59.5601770934" lon="31.2663551699"><ele>234.22</ele><time>2026-09-02T19:18:24Z</time></trkpt><trkpt lat="59.5601716451" lon="31.2663602829"><ele>234.22</ele><time>2026-09-02T19:18:25Z</time></trkpt><trkpt lat="59.5601648558" lon="31.2663683295"><ele>234.22</ele><time>2026-09-02T19:18:26Z</time></trkpt><trkpt lat="59.5601578988" lon="31.2663770467"><ele>234.22</ele><time>2026-09-02T19:18:27Z</time></trkpt><trkpt lat="59.5601507742" lon="31.2663878594"><ele>234.22</ele><time>2026-09-02T19:18:28Z</time></trkpt><trkpt lat="59.5601446554" lon="31.2663997617"><ele>234.70</ele><time>2026-09-02T19:18:29Z</time></trkpt><trkpt lat="59.5601418894" lon="31.2664104905"><ele>234.70</ele><time>2026-09-02T19:18:30Z</time></trkpt><trkpt lat="59.5601374470" lon="31.2664228957"><ele>234.70</ele><time>2026-09-02T19:18:31Z</time></trkpt><trkpt lat="59.5601323340" lon="31.2664318644"><ele>234.70</ele><time>2026-09-02T19:18:32Z</time></trkpt><trkpt lat="59.5601255447" lon="31.2664412521"><ele>234.70</ele><time>2026-09-02T19:18:33Z</time></trkpt><trkpt lat="59.5601158217" lon="31.2664493825"><ele>234.70</ele><time>2026-09-02T19:18:34Z</time></trkpt><trkpt lat="59.5601092000" lon="31.2664522324"><ele>235.18</ele><time>2026-09-02T19:18:35Z</time></trkpt><trkpt lat="59.5601014886" lon="31.2664577644"><ele>235.18</ele><time>2026-09-02T19:18:36Z</time></trkpt><trkpt lat="59.5600960404" lon="31.2664604466"><ele>235.18</ele><time>2026-09-02T19:18:37Z</time></trkpt><trkpt lat="59.5600875746" lon="31.2664661463"><ele>235.18</ele><time>2026-09-02T19:18:38Z</time></trkpt><trkpt lat="59.5600800309" lon="31.2664698344"><ele>235.18</ele><time>2026-09-02T19:18:39Z</time></trkpt><trkpt lat="59.5600742474" lon="31.2664777972"><ele>235.18</ele><time>2026-09-02T19:18:40Z</time></trkpt><trkpt lat="59.5600646921" lon="31.2664862629"><ele>235.18</ele><time>2026-09-02T19:18:41Z</time></trkpt><trkpt lat="59.5600581542" lon="31.2664903700"><ele>235.18</ele><time>2026-09-02T19:18:42Z</time></trkpt><trkpt lat="59.5600493532" lon="31.2664847542"><ele>235.18</ele><time>2026-09-02T19:18:43Z</time></trkpt><trkpt lat="59.5600433182" lon="31.2664873526"><ele>235.18</ele><time>2026-09-02T19:18:44Z</time></trkpt><trkpt lat="59.5600359421" lon="31.2664970756"><ele>235.18</ele><time>2026-09-02T19:18:45Z</time></trkpt><trkpt lat="59.5600291528" lon="31.2665086426"><ele>235.18</ele><time>2026-09-02T19:18:46Z</time></trkpt><trkpt lat="59.5600239560" lon="31.2665168568"><ele>235.18</ele><time>2026-09-02T19:18:47Z</time></trkpt><trkpt lat="59.5600164961" lon="31.2665240653"><ele>235.18</ele><time>2026-09-02T19:18:48Z</time></trkpt><trkpt lat="59.5600117184" lon="31.2665398233"><ele>235.18</ele><time>2026-09-02T19:18:49Z</time></trkpt><trkpt lat="59.5600093715" lon="31.2665511388"><ele>235.18</ele><time>2026-09-02T19:18:50Z</time></trkpt><trkpt lat="59.5600081980" lon="31.2665598560"><ele>235.18</ele><time>2026-09-02T19:18:51Z</time></trkpt><trkpt lat="59.5600056835" lon="31.2665750273"><ele>235.18</ele><time>2026-09-02T19:18:52Z</time></trkpt><trkpt lat="59.5600035880" lon="31.2665836606"><ele>235.66</ele><time>2026-09-02T19:18:53Z</time></trkpt><trkpt lat="59.5600033365" lon="31.2665936351"><ele>235.66</ele><time>2026-09-02T19:18:54Z</time></trkpt><trkpt lat="59.5600033365" lon="31.2665936351"><ele>235.66</ele><time>2026-09-02T19:18:55Z</time></trkpt><trkpt lat="59.5600033365" lon="31.2665936351"><ele>235.66</ele><time>2026-09-02T19:18:56Z</time></trkpt><trkpt lat="59.5600033365" lon="31.2665936351"><ele>235.66</ele><time>2026-09-02T19:18:57Z</time></trkpt><trkpt lat="59.5600033365" lon="31.2665936351"><ele>235.66</ele><time>2026-09-02T19:18:58Z</time></trkpt><trkpt lat="59.5600033365" lon="31.2665936351"><ele>235.66</ele><time>2026-09-02T19:18:59Z</time></trkpt><trkpt lat="59.5600033365" lon="31.2665936351"><ele>235.66</ele><time>2026-09-02T19:19:00Z</time></trkpt><trkpt lat="59.5600033365" lon="31.2665936351"><ele>235.66</ele><time>2026-09-02T19:19:01Z</time></trkpt><trkpt lat="59.5600033365" lon="31.2665936351"><ele>235.66</ele><time>2026-09-02T19:19:02Z</time></trkpt><trkpt lat="59.5600033365" lon="31.2665936351"><ele>235.66</ele><time>2026-09-02T19:19:03Z</time></trkpt><trkpt lat="59.5600033365" lon="31.2665936351"><ele>235.66</ele><time>2026-09-02T19:19:04Z</time></trkpt><trkpt lat="59.5600056835" lon="31.2666378915"><ele>235.66</ele><time>2026-09-02T19:19:05Z</time></trkpt><trkpt lat="59.5600050967" lon="31.2666453514"><ele>235.66</ele><time>2026-09-02T19:19:06Z</time></trkpt><trkpt lat="59.5600028336" lon="31.2666543201"><ele>235.66</ele><time>2026-09-02T19:19:07Z</time></trkpt><trkpt lat="59.5600005705" lon="31.2666642945"><ele>235.66</ele><time>2026-09-02T19:19:08Z</time></trkpt><trkpt lat="59.5599999838" lon="31.2666768674"><ele>235.66</ele><time>2026-09-02T19:19:09Z</time></trkpt><trkpt lat="59.5599969663" lon="31.2666932959"><ele>236.14</ele><time>2026-09-02T19:19:10Z</time></trkpt><trkpt lat="59.5599940326" lon="31.2667051982"><ele>236.14</ele><time>2026-09-02T19:19:11Z</time></trkpt><trkpt lat="59.5599894226" lon="31.2667180225"><ele>236.14</ele><time>2026-09-02T19:19:12Z</time></trkpt><trkpt lat="59.5599866565" lon="31.2667274941"><ele>236.14</ele><time>2026-09-02T19:19:13Z</time></trkpt><trkpt lat="59.5599843934" lon="31.2667395640"><ele>236.14</ele><time>2026-09-02T19:19:14Z</time></trkpt><trkpt lat="59.5599867404" lon="31.2667511310"><ele>236.14</ele><time>2026-09-02T19:19:15Z</time></trkpt><trkpt lat="59.5599868242" lon="31.2667635363"><ele>236.62</ele><time>2026-09-02T19:19:16Z</time></trkpt><trkpt lat="59.5599846449" lon="31.2667769473"><ele>236.62</ele><time>2026-09-02T19:19:17Z</time></trkpt><trkpt lat="59.5599823818" lon="31.2667868380"><ele>236.62</ele><time>2026-09-02T19:19:18Z</time></trkpt><trkpt lat="59.5599803701" lon="31.2667948846"><ele>236.62</ele><time>2026-09-02T19:19:19Z</time></trkpt><trkpt lat="59.5599801186" lon="31.2668061163"><ele>236.62</ele><time>2026-09-02T19:19:20Z</time></trkpt><trkpt lat="59.5599788614" lon="31.2668201979"><ele>236.62</ele><time>2026-09-02T19:19:21Z</time></trkpt><trkpt lat="59.5599769335" lon="31.2668311782"><ele>236.62</ele><time>2026-09-02T19:19:22Z</time></trkpt><trkpt lat="59.5599763468" lon="31.2668430805"><ele>236.62</ele><time>2026-09-02T19:19:23Z</time></trkpt><trkpt lat="59.5599771850" lon="31.2668561563"><ele>237.10</ele><time>2026-09-02T19:19:24Z</time></trkpt><trkpt lat="59.5599781908" lon="31.2668656278"><ele>237.10</ele><time>2026-09-02T19:19:25Z</time></trkpt><trkpt lat="59.5599791966" lon="31.2668815535"><ele>237.10</ele><time>2026-09-02T19:19:26Z</time></trkpt><trkpt lat="59.5599805377" lon="31.2668990716"><ele>237.10</ele><time>2026-09-02T19:19:27Z</time></trkpt><trkpt lat="59.5599826332" lon="31.2669143267"><ele>237.58</ele><time>2026-09-02T19:19:28Z</time></trkpt><trkpt lat="59.5599824656" lon="31.2669210322"><ele>237.58</ele><time>2026-09-02T19:19:29Z</time></trkpt><trkpt lat="59.5599815436" lon="31.2669231277"><ele>237.58</ele><time>2026-09-02T19:19:30Z</time></trkpt><trkpt lat="59.5599808730" lon="31.2669256423"><ele>237.58</ele><time>2026-09-02T19:19:31Z</time></trkpt><trkpt lat="59.5599808730" lon="31.2669256423"><ele>237.58</ele><time>2026-09-02T19:19:32Z</time></trkpt><trkpt lat="59.5599808730" lon="31.2669256423"><ele>237.58</ele><time>2026-09-02T19:19:33Z</time></trkpt><trkpt lat="59.5599808730" lon="31.2669256423"><ele>237.58</ele><time>2026-09-02T19:19:34Z</time></trkpt><trkpt lat="59.5599808730" lon="31.2669256423"><ele>237.58</ele><time>2026-09-02T19:19:35Z</time></trkpt><trkpt lat="59.5599808730" lon="31.2669256423"><ele>237.58</ele><time>2026-09-02T19:19:36Z</time></trkpt><trkpt lat="59.5599808730" lon="31.2669256423"><ele>237.58</ele><time>2026-09-02T19:19:37Z</time></trkpt><trkpt lat="59.5599644445" lon="31.2669005804"><ele>237.58</ele><time>2026-09-02T19:19:38Z</time></trkpt><trkpt lat="59.5599607565" lon="31.2668974791"><ele>237.58</ele><time>2026-09-02T19:19:39Z</time></trkpt><trkpt lat="59.5599545538" lon="31.2668913603"><ele>237.58</ele><time>2026-09-02T19:19:40Z</time></trkpt><trkpt lat="59.5599481836" lon="31.2668828946"><ele>237.58</ele><time>2026-09-02T19:19:41Z</time></trkpt><trkpt lat="59.5599415619" lon="31.2668778654"><ele>237.58</ele><time>2026-09-02T19:19:42Z</time></trkpt><trkpt lat="59.5599354431" lon="31.2668739259"><ele>237.58</ele><time>2026-09-02T19:19:43Z</time></trkpt><trkpt lat="59.5599320903" lon="31.2668717466"><ele>238.06</ele><time>2026-09-02T19:19:44Z</time></trkpt><trkpt lat="59.5599266421" lon="31.2668680586"><ele>238.06</ele><time>2026-09-02T19:19:45Z</time></trkpt><trkpt lat="59.5599246304" lon="31.2668667175"><ele>238.06</ele><time>2026-09-02T19:19:46Z</time></trkpt><trkpt lat="59.5599206910" lon="31.2668623589"><ele>238.06</ele><time>2026-09-02T19:19:47Z</time></trkpt><trkpt lat="59.5599216968" lon="31.2668642867"><ele>238.06</ele><time>2026-09-02T19:19:48Z</time></trkpt><trkpt lat="59.5599216968" lon="31.2668642867"><ele>238.54</ele><time>2026-09-02T19:19:49Z</time></trkpt><trkpt lat="59.5599216968" lon="31.2668642867"><ele>238.54</ele><time>2026-09-02T19:19:50Z</time></trkpt><trkpt lat="59.5599216968" lon="31.2668642867"><ele>238.54</ele><time>2026-09-02T19:19:51Z</time></trkpt><trkpt lat="59.5599216968" lon="31.2668642867"><ele>238.54</ele><time>2026-09-02T19:19:52Z</time></trkpt><trkpt lat="59.5599216968" lon="31.2668642867"><ele>238.54</ele><time>2026-09-02T19:19:53Z</time></trkpt><trkpt lat="59.5599216968" lon="31.2668642867"><ele>238.54</ele><time>2026-09-02T19:19:54Z</time></trkpt><trkpt lat="59.5599216968" lon="31.2668642867"><ele>238.54</ele><time>2026-09-02T19:19:55Z</time></trkpt><trkpt lat="59.5599216968" lon="31.2668642867"><ele>238.54</ele><time>2026-09-02T19:19:56Z</time></trkpt><trkpt lat="59.5599216968" lon="31.2668642867"><ele>238.54</ele><time>2026-09-02T19:19:57Z</time></trkpt><trkpt lat="59.5599216968" lon="31.2668642867"><ele>238.54</ele><time>2026-09-02T19:19:58Z</time></trkpt><trkpt lat="59.5599216968" lon="31.2668642867"><ele>238.54</ele><time>2026-09-02T19:19:59Z</time></trkpt><trkpt lat="59.5599216968" lon="31.2668642867"><ele>238.54</ele><time>2026-09-02T19:20:00Z</time></trkpt><trkpt lat="59.5599216968" lon="31.2668642867"><ele>238.54</ele><time>2026-09-02T19:20:01Z</time></trkpt><trkpt lat="59.5599216968" lon="31.2668642867"><ele>238.54</ele><time>2026-09-02T19:20:02Z</time></trkpt><trkpt lat="59.5599216968" lon="31.2668642867"><ele>239.02</ele><time>2026-09-02T19:20:03Z</time></trkpt><trkpt lat="59.5599216968" lon="31.2668642867"><ele>239.02</ele><time>2026-09-02T19:20:04Z</time></trkpt><trkpt lat="59.5599216968" lon="31.2668642867"><ele>239.02</ele><time>2026-09-02T19:20:05Z</time></trkpt><trkpt lat="59.5599216968" lon="31.2668642867"><ele>239.02</ele><time>2026-09-02T19:20:06Z</time></trkpt><trkpt lat="59.5599216968" lon="31.2668642867"><ele>239.02</ele><time>2026-09-02T19:20:07Z</time></trkpt><trkpt lat="59.5599216968" lon="31.2668642867"><ele>239.02</ele><time>2026-09-02T19:20:08Z</time></trkpt><trkpt lat="59.5599216968" lon="31.2668642867"><ele>239.02</ele><time>2026-09-02T19:20:09Z</time></trkpt><trkpt lat="59.5599216968" lon="31.2668642867"><ele>239.02</ele><time>2026-09-02T19:20:10Z</time></trkpt><trkpt lat="59.5599216968" lon="31.2668642867"><ele>239.02</ele><time>2026-09-02T19:20:11Z</time></trkpt><trkpt lat="59.5599216968" lon="31.2668642867"><ele>239.02</ele><time>2026-09-02T19:20:12Z</time></trkpt><trkpt lat="59.5599216968" lon="31.2668642867"><ele>239.02</ele><time>2026-09-02T19:20:13Z</time></trkpt><trkpt lat="59.5599216968" lon="31.2668642867"><ele>239.02</ele><time>2026-09-02T19:20:14Z</time></trkpt><trkpt lat="59.5599216968" lon="31.2668642867"><ele>239.02</ele><time>2026-09-02T19:20:15Z</time></trkpt><trkpt lat="59.5599216968" lon="31.2668642867"><ele>239.02</ele><time>2026-09-02T19:20:16Z</time></trkpt><trkpt lat="59.5599216968" lon="31.2668642867"><ele>239.02</ele><time>2026-09-02T19:20:17Z</time></trkpt><trkpt lat="59.5599216968" lon="31.2668642867"><ele>239.02</ele><time>2026-09-02T19:20:18Z</time></trkpt><trkpt lat="59.5599216968" lon="31.2668642867"><ele>239.02</ele><time>2026-09-02T19:20:19Z</time></trkpt><trkpt lat="59.5599216968" lon="31.2668642867"><ele>239.02</ele><time>2026-09-02T19:20:20Z</time></trkpt><trkpt lat="59.5599216968" lon="31.2668642867"><ele>239.02</ele><time>2026-09-02T19:20:21Z</time></trkpt><trkpt lat="59.5599216968" lon="31.2668642867"><ele>239.02</ele><time>2026-09-02T19:20:22Z</time></trkpt><trkpt lat="59.5599216968" lon="31.2668642867"><ele>239.51</ele><time>2026-09-02T19:20:23Z</time></trkpt><trkpt lat="59.5599216968" lon="31.2668642867"><ele>239.51</ele><time>2026-09-02T19:20:24Z</time></trkpt><trkpt lat="59.5599216968" lon="31.2668642867"><ele>239.51</ele><time>2026-09-02T19:20:25Z</time></trkpt><trkpt lat="59.5599216968" lon="31.2668642867"><ele>239.51</ele><time>2026-09-02T19:20:26Z</time></trkpt><trkpt lat="59.5599216968" lon="31.2668642867"><ele>239.02</ele><time>2026-09-02T19:20:27Z</time></trkpt><trkpt lat="59.5599216968" lon="31.2668642867"><ele>239.02</ele><time>2026-09-02T19:20:28Z</time></trkpt><trkpt lat="59.5599216968" lon="31.2668642867"><ele>239.02</ele><time>2026-09-02T19:20:29Z</time></trkpt><trkpt lat="59.5599216968" lon="31.2668642867"><ele>239.02</ele><time>2026-09-02T19:20:30Z</time></trkpt><trkpt lat="59.5599216968" lon="31.2668642867"><ele>239.02</ele><time>2026-09-02T19:20:31Z</time></trkpt><trkpt lat="59.5599216968" lon="31.2668642867"><ele>239.02</ele><time>2026-09-02T19:20:32Z</time></trkpt><trkpt lat="59.5599216968" lon="31.2668642867"><ele>239.02</ele><time>2026-09-02T19:20:33Z</time></trkpt><trkpt lat="59.5599216968" lon="31.2668642867"><ele>239.02</ele><time>2026-09-02T19:20:34Z</time></trkpt><trkpt lat="59.5599216968" lon="31.2668642867"><ele>239.02</ele><time>2026-09-02T19:20:35Z</time></trkpt><trkpt lat="59.5599216968" lon="31.2668642867"><ele>238.54</ele><time>2026-09-02T19:20:36Z</time></trkpt><trkpt lat="59.5599216968" lon="31.2668642867"><ele>238.54</ele><time>2026-09-02T19:20:37Z</time></trkpt><trkpt lat="59.5599216968" lon="31.2668642867"><ele>238.54</ele><time>2026-09-02T19:20:38Z</time></trkpt><trkpt lat="59.5599216968" lon="31.2668642867"><ele>238.54</ele><time>2026-09-02T19:20:39Z</time></trkpt><trkpt lat="59.5599216968" lon="31.2668642867"><ele>238.54</ele><time>2026-09-02T19:20:40Z</time></trkpt><trkpt lat="59.5599216968" lon="31.2668642867"><ele>238.54</ele><time>2026-09-02T19:20:41Z</time></trkpt><trkpt lat="59.5599216968" lon="31.2668642867"><ele>239.02</ele><time>2026-09-02T19:20:42Z</time></trkpt><trkpt lat="59.5599216968" lon="31.2668642867"><ele>239.02</ele><time>2026-09-02T19:20:43Z</time></trkpt><trkpt lat="59.5599216968" lon="31.2668642867"><ele>239.02</ele><time>2026-09-02T19:20:44Z</time></trkpt><trkpt lat="59.5599216968" lon="31.2668642867"><ele>239.02</ele><time>2026-09-02T19:20:45Z</time></trkpt><trkpt lat="59.5599216968" lon="31.2668642867"><ele>239.02</ele><time>2026-09-02T19:20:46Z</time></trkpt><trkpt lat="59.5599216968" lon="31.2668642867"><ele>239.02</ele><time>2026-09-02T19:20:47Z</time></trkpt><trkpt lat="59.5599216968" lon="31.2668642867"><ele>239.02</ele><time>2026-09-02T19:20:48Z</time></trkpt><trkpt lat="59.5599216968" lon="31.2668642867"><ele>239.51</ele><time>2026-09-02T19:20:49Z</time></trkpt><trkpt lat="59.5599216968" lon="31.2668642867"><ele>239.51</ele><time>2026-09-02T19:20:50Z</time></trkpt><trkpt lat="59.5599216968" lon="31.2668642867"><ele>239.51</ele><time>2026-09-02T19:20:51Z</time></trkpt><trkpt lat="59.5599216968" lon="31.2668642867"><ele>239.51</ele><time>2026-09-02T19:20:52Z</time></trkpt><trkpt lat="59.5599216968" lon="31.2668642867"><ele>239.51</ele><time>2026-09-02T19:20:53Z</time></trkpt><trkpt lat="59.5599216968" lon="31.2668642867"><ele>239.51</ele><time>2026-09-02T19:20:54Z</time></trkpt><trkpt lat="59.5599216968" lon="31.2668642867"><ele>239.51</ele><time>2026-09-02T19:20:55Z</time></trkpt><trkpt lat="59.5599216968" lon="31.2668642867"><ele>239.51</ele><time>2026-09-02T19:20:56Z</time></trkpt><trkpt lat="59.5599216968" lon="31.2668642867"><ele>239.51</ele><time>2026-09-02T19:20:57Z</time></trkpt><trkpt lat="59.5599216968" lon="31.2668642867"><ele>239.51</ele><time>2026-09-02T19:20:58Z</time></trkpt><trkpt lat="59.5599216968" lon="31.2668642867"><ele>239.51</ele><time>2026-09-02T19:20:59Z</time></trkpt><trkpt lat="59.5599216968" lon="31.2668642867"><ele>239.51</ele><time>2026-09-02T19:21:00Z</time></trkpt><trkpt lat="59.5599216968" lon="31.2668642867"><ele>239.51</ele><time>2026-09-02T19:21:01Z</time></trkpt><trkpt lat="59.5599216968" lon="31.2668642867"><ele>239.51</ele><time>2026-09-02T19:21:02Z</time></trkpt><trkpt lat="59.5599216968" lon="31.2668642867"><ele>239.51</ele><time>2026-09-02T19:21:03Z</time></trkpt><trkpt lat="59.5599216968" lon="31.2668642867"><ele>239.51</ele><time>2026-09-02T19:21:04Z</time></trkpt><trkpt lat="59.5599216968" lon="31.2668642867"><ele>239.51</ele><time>2026-09-02T19:21:05Z</time></trkpt><trkpt lat="59.5599216968" lon="31.2668642867"><ele>239.51</ele><time>2026-09-02T19:21:06Z</time></trkpt><trkpt lat="59.5599216968" lon="31.2668642867"><ele>239.51</ele><time>2026-09-02T19:21:07Z</time></trkpt><trkpt lat="59.5599216968" lon="31.2668642867"><ele>239.51</ele><time>2026-09-02T19:21:08Z</time></trkpt><trkpt lat="59.5599216968" lon="31.2668642867"><ele>239.51</ele><time>2026-09-02T19:21:09Z</time></trkpt><trkpt lat="59.5599216968" lon="31.2668642867"><ele>239.51</ele><time>2026-09-02T19:21:10Z</time></trkpt><trkpt lat="59.5599216968" lon="31.2668642867"><ele>239.51</ele><time>2026-09-02T19:21:11Z</time></trkpt><trkpt lat="59.5599216968" lon="31.2668642867"><ele>239.51</ele><time>2026-09-02T19:21:12Z</time></trkpt><trkpt lat="59.5599216968" lon="31.2668642867"><ele>239.51</ele><time>2026-09-02T19:21:13Z</time></trkpt><trkpt lat="59.5599216968" lon="31.2668642867"><ele>239.51</ele><time>2026-09-02T19:21:14Z</time></trkpt><trkpt lat="59.5599216968" lon="31.2668642867"><ele>239.51</ele><time>2026-09-02T19:21:15Z</time></trkpt><trkpt lat="59.5599216968" lon="31.2668642867"><ele>239.51</ele><time>2026-09-02T19:21:16Z</time></trkpt><trkpt lat="59.5599216968" lon="31.2668642867"><ele>239.51</ele><time>2026-09-02T19:21:17Z</time></trkpt><trkpt lat="59.5599216968" lon="31.2668642867"><ele>239.51</ele><time>2026-09-02T19:21:18Z</time></trkpt><trkpt lat="59.5599216968" lon="31.2668642867"><ele>239.51</ele><time>2026-09-02T19:21:19Z</time></trkpt><trkpt lat="59.5599216968" lon="31.2668642867"><ele>239.51</ele><time>2026-09-02T19:21:20Z</time></trkpt><trkpt lat="59.5599216968" lon="31.2668642867"><ele>239.51</ele><time>2026-09-02T19:21:21Z</time></trkpt><trkpt lat="59.5599216968" lon="31.2668642867"><ele>239.51</ele><time>2026-09-02T19:21:22Z</time></trkpt><trkpt lat="59.5599216968" lon="31.2668642867"><ele>239.51</ele><time>2026-09-02T19:21:23Z</time></trkpt><trkpt lat="59.5599216968" lon="31.2668642867"><ele>239.51</ele><time>2026-09-02T19:21:24Z</time></trkpt><trkpt lat="59.5599216968" lon="31.2668642867"><ele>239.51</ele><time>2026-09-02T19:21:25Z</time></trkpt><trkpt lat="59.5599216968" lon="31.2668642867"><ele>239.51</ele><time>2026-09-02T19:21:26Z</time></trkpt><trkpt lat="59.5598568209" lon="31.2669942901"><ele>239.51</ele><time>2026-09-02T19:21:27Z</time></trkpt><trkpt lat="59.5598548930" lon="31.2669990677"><ele>239.99</ele><time>2026-09-02T19:21:28Z</time></trkpt><trkpt lat="59.5598555636" lon="31.2670052703"><ele>239.99</ele><time>2026-09-02T19:21:29Z</time></trkpt><trkpt lat="59.5598540548" lon="31.2670177594"><ele>239.99</ele><time>2026-09-02T19:21:30Z</time></trkpt><trkpt lat="59.5598540548" lon="31.2670177594"><ele>239.99</ele><time>2026-09-02T19:21:31Z</time></trkpt><trkpt lat="59.5598540548" lon="31.2670177594"><ele>239.99</ele><time>2026-09-02T19:21:32Z</time></trkpt><trkpt lat="59.5598394703" lon="31.2670578249"><ele>239.99</ele><time>2026-09-02T19:21:33Z</time></trkpt><trkpt lat="59.5598376263" lon="31.2670761812"><ele>239.99</ele><time>2026-09-02T19:21:34Z</time></trkpt><trkpt lat="59.5598338544" lon="31.2670922745"><ele>239.99</ele><time>2026-09-02T19:21:35Z</time></trkpt><trkpt lat="59.5598323457" lon="31.2671062723"><ele>239.99</ele><time>2026-09-02T19:21:36Z</time></trkpt><trkpt lat="59.5598270651" lon="31.2671177555"><ele>239.99</ele><time>2026-09-02T19:21:37Z</time></trkpt><trkpt lat="59.5598237962" lon="31.2671259698"><ele>239.99</ele><time>2026-09-02T19:21:38Z</time></trkpt><trkpt lat="59.5598190185" lon="31.2671343517"><ele>239.99</ele><time>2026-09-02T19:21:39Z</time></trkpt><trkpt lat="59.5598150790" lon="31.2671412248"><ele>239.99</ele><time>2026-09-02T19:21:40Z</time></trkpt><trkpt lat="59.5598123968" lon="31.2671473436"><ele>239.99</ele><time>2026-09-02T19:21:41Z</time></trkpt><trkpt lat="59.5598120615" lon="31.2671495229"><ele>239.99</ele><time>2026-09-02T19:21:42Z</time></trkpt><trkpt lat="59.5598120615" lon="31.2671495229"><ele>239.99</ele><time>2026-09-02T19:21:43Z</time></trkpt><trkpt lat="59.5598120615" lon="31.2671495229"><ele>239.99</ele><time>2026-09-02T19:21:44Z</time></trkpt><trkpt lat="59.5598120615" lon="31.2671495229"><ele>240.47</ele><time>2026-09-02T19:21:45Z</time></trkpt><trkpt lat="59.5598120615" lon="31.2671495229"><ele>240.47</ele><time>2026-09-02T19:21:46Z</time></trkpt><trkpt lat="59.5598120615" lon="31.2671495229"><ele>240.47</ele><time>2026-09-02T19:21:47Z</time></trkpt><trkpt lat="59.5598120615" lon="31.2671495229"><ele>240.47</ele><time>2026-09-02T19:21:48Z</time></trkpt><trkpt lat="59.5598120615" lon="31.2671495229"><ele>240.47</ele><time>2026-09-02T19:21:49Z</time></trkpt><trkpt lat="59.5598120615" lon="31.2671495229"><ele>240.47</ele><time>2026-09-02T19:21:50Z</time></trkpt><trkpt lat="59.5598120615" lon="31.2671495229"><ele>240.47</ele><time>2026-09-02T19:21:51Z</time></trkpt><trkpt lat="59.5598120615" lon="31.2671495229"><ele>240.47</ele><time>2026-09-02T19:21:52Z</time></trkpt><trkpt lat="59.5598120615" lon="31.2671495229"><ele>240.47</ele><time>2026-09-02T19:21:53Z</time></trkpt><trkpt lat="59.5598120615" lon="31.2671495229"><ele>240.47</ele><time>2026-09-02T19:21:54Z</time></trkpt><trkpt lat="59.5598120615" lon="31.2671495229"><ele>240.47</ele><time>2026-09-02T19:21:55Z</time></trkpt><trkpt lat="59.5598120615" lon="31.2671495229"><ele>240.47</ele><time>2026-09-02T19:21:56Z</time></trkpt><trkpt lat="59.5598120615" lon="31.2671495229"><ele>240.47</ele><time>2026-09-02T19:21:57Z</time></trkpt><trkpt lat="59.5598120615" lon="31.2671495229"><ele>240.47</ele><time>2026-09-02T19:21:58Z</time></trkpt><trkpt lat="59.5598120615" lon="31.2671495229"><ele>240.47</ele><time>2026-09-02T19:21:59Z</time></trkpt><trkpt lat="59.5598147437" lon="31.2671381235"><ele>240.47</ele><time>2026-09-02T19:22:00Z</time></trkpt><trkpt lat="59.5598092955" lon="31.2671406381"><ele>240.47</ele><time>2026-09-02T19:22:01Z</time></trkpt><trkpt lat="59.5598031767" lon="31.2671440747"><ele>240.47</ele><time>2026-09-02T19:22:02Z</time></trkpt><trkpt lat="59.5597993210" lon="31.2671466731"><ele>240.47</ele><time>2026-09-02T19:22:03Z</time></trkpt><trkpt lat="59.5597981475" lon="31.2671512831"><ele>240.47</ele><time>2026-09-02T19:22:04Z</time></trkpt><trkpt lat="59.5597965550" lon="31.2671518698"><ele>240.47</ele><time>2026-09-02T19:22:05Z</time></trkpt><trkpt lat="59.5597962197" lon="31.2671523727"><ele>240.47</ele><time>2026-09-02T19:22:06Z</time></trkpt><trkpt lat="59.5597962197" lon="31.2671523727"><ele>240.95</ele><time>2026-09-02T19:22:07Z</time></trkpt><trkpt lat="59.5597962197" lon="31.2671523727"><ele>240.95</ele><time>2026-09-02T19:22:08Z</time></trkpt><trkpt lat="59.5597962197" lon="31.2671523727"><ele>240.95</ele><time>2026-09-02T19:22:09Z</time></trkpt><trkpt lat="59.5597962197" lon="31.2671523727"><ele>241.43</ele><time>2026-09-02T19:22:10Z</time></trkpt><trkpt lat="59.5597962197" lon="31.2671523727"><ele>241.43</ele><time>2026-09-02T19:22:11Z</time></trkpt><trkpt lat="59.5597962197" lon="31.2671523727"><ele>241.43</ele><time>2026-09-02T19:22:12Z</time></trkpt><trkpt lat="59.5597962197" lon="31.2671523727"><ele>241.43</ele><time>2026-09-02T19:22:13Z</time></trkpt><trkpt lat="59.5597962197" lon="31.2671523727"><ele>241.43</ele><time>2026-09-02T19:22:14Z</time></trkpt><trkpt lat="59.5597962197" lon="31.2671523727"><ele>241.43</ele><time>2026-09-02T19:22:15Z</time></trkpt><trkpt lat="59.5597962197" lon="31.2671523727"><ele>241.43</ele><time>2026-09-02T19:22:16Z</time></trkpt><trkpt lat="59.5597962197" lon="31.2671523727"><ele>241.43</ele><time>2026-09-02T19:22:17Z</time></trkpt><trkpt lat="59.5597962197" lon="31.2671523727"><ele>241.43</ele><time>2026-09-02T19:22:18Z</time></trkpt><trkpt lat="59.5597962197" lon="31.2671523727"><ele>241.43</ele><time>2026-09-02T19:22:19Z</time></trkpt><trkpt lat="59.5597962197" lon="31.2671523727"><ele>241.43</ele><time>2026-09-02T19:22:20Z</time></trkpt><trkpt lat="59.5597962197" lon="31.2671523727"><ele>241.43</ele><time>2026-09-02T19:22:21Z</time></trkpt><trkpt lat="59.5597962197" lon="31.2671523727"><ele>241.43</ele><time>2026-09-02T19:22:22Z</time></trkpt><trkpt lat="59.5597962197" lon="31.2671523727"><ele>241.43</ele><time>2026-09-02T19:22:23Z</time></trkpt><trkpt lat="59.5597962197" lon="31.2671523727"><ele>241.43</ele><time>2026-09-02T19:22:24Z</time></trkpt><trkpt lat="59.5597962197" lon="31.2671523727"><ele>241.43</ele><time>2026-09-02T19:22:25Z</time></trkpt><trkpt lat="59.5597962197" lon="31.2671523727"><ele>241.43</ele><time>2026-09-02T19:22:26Z</time></trkpt><trkpt lat="59.5597962197" lon="31.2671523727"><ele>241.43</ele><time>2026-09-02T19:22:27Z</time></trkpt><trkpt lat="59.5597962197" lon="31.2671523727"><ele>241.43</ele><time>2026-09-02T19:22:28Z</time></trkpt><trkpt lat="59.5597962197" lon="31.2671523727"><ele>241.43</ele><time>2026-09-02T19:22:29Z</time></trkpt><trkpt lat="59.5597962197" lon="31.2671523727"><ele>241.43</ele><time>2026-09-02T19:22:30Z</time></trkpt><trkpt lat="59.5597962197" lon="31.2671523727"><ele>241.43</ele><time>2026-09-02T19:22:31Z</time></trkpt><trkpt lat="59.5597962197" lon="31.2671523727"><ele>241.43</ele><time>2026-09-02T19:22:32Z</time></trkpt><trkpt lat="59.5597962197" lon="31.2671523727"><ele>241.43</ele><time>2026-09-02T19:22:33Z</time></trkpt><trkpt lat="59.5597962197" lon="31.2671523727"><ele>241.43</ele><time>2026-09-02T19:22:34Z</time></trkpt><trkpt lat="59.5597962197" lon="31.2671523727"><ele>241.43</ele><time>2026-09-02T19:22:35Z</time></trkpt><trkpt lat="59.5597962197" lon="31.2671523727"><ele>241.43</ele><time>2026-09-02T19:22:36Z</time></trkpt><trkpt lat="59.5597962197" lon="31.2671523727"><ele>241.43</ele><time>2026-09-02T19:22:37Z</time></trkpt><trkpt lat="59.5597962197" lon="31.2671523727"><ele>241.43</ele><time>2026-09-02T19:22:38Z</time></trkpt><trkpt lat="59.5597962197" lon="31.2671523727"><ele>241.43</ele><time>2026-09-02T19:22:39Z</time></trkpt><trkpt lat="59.5597962197" lon="31.2671523727"><ele>241.43</ele><time>2026-09-02T19:22:40Z</time></trkpt><trkpt lat="59.5597962197" lon="31.2671523727"><ele>241.43</ele><time>2026-09-02T19:22:41Z</time></trkpt><trkpt lat="59.5597962197" lon="31.2671523727"><ele>241.43</ele><time>2026-09-02T19:22:42Z</time></trkpt><trkpt lat="59.5597962197" lon="31.2671523727"><ele>241.43</ele><time>2026-09-02T19:22:43Z</time></trkpt><trkpt lat="59.5597962197" lon="31.2671523727"><ele>241.43</ele><time>2026-09-02T19:22:44Z</time></trkpt><trkpt lat="59.5597962197" lon="31.2671523727"><ele>241.43</ele><time>2026-09-02T19:22:45Z</time></trkpt><trkpt lat="59.5597962197" lon="31.2671523727"><ele>241.43</ele><time>2026-09-02T19:22:46Z</time></trkpt><trkpt lat="59.5597962197" lon="31.2671523727"><ele>241.43</ele><time>2026-09-02T19:22:47Z</time></trkpt><trkpt lat="59.5597962197" lon="31.2671523727"><ele>241.43</ele><time>2026-09-02T19:22:48Z</time></trkpt><trkpt lat="59.5597962197" lon="31.2671523727"><ele>241.43</ele><time>2026-09-02T19:22:49Z</time></trkpt><trkpt lat="59.5597962197" lon="31.2671523727"><ele>241.43</ele><time>2026-09-02T19:22:50Z</time></trkpt><trkpt lat="59.5597962197" lon="31.2671523727"><ele>240.95</ele><time>2026-09-02T19:22:51Z</time></trkpt><trkpt lat="59.5597962197" lon="31.2671523727"><ele>240.95</ele><time>2026-09-02T19:22:52Z</time></trkpt><trkpt lat="59.5597962197" lon="31.2671523727"><ele>240.95</ele><time>2026-09-02T19:22:53Z</time></trkpt><trkpt lat="59.5597962197" lon="31.2671523727"><ele>240.95</ele><time>2026-09-02T19:22:54Z</time></trkpt><trkpt lat="59.5597962197" lon="31.2671523727"><ele>240.95</ele><time>2026-09-02T19:22:55Z</time></trkpt><trkpt lat="59.5597962197" lon="31.2671523727"><ele>240.95</ele><time>2026-09-02T19:22:56Z</time></trkpt><trkpt lat="59.5597962197" lon="31.2671523727"><ele>240.95</ele><time>2026-09-02T19:22:57Z</time></trkpt><trkpt lat="59.5597962197" lon="31.2671523727"><ele>240.95</ele><time>2026-09-02T19:22:58Z</time></trkpt><trkpt lat="59.5597962197" lon="31.2671523727"><ele>240.95</ele><time>2026-09-02T19:22:59Z</time></trkpt><trkpt lat="59.5597962197" lon="31.2671523727"><ele>240.95</ele><time>2026-09-02T19:23:00Z</time></trkpt><trkpt lat="59.5597962197" lon="31.2671523727"><ele>240.47</ele><time>2026-09-02T19:23:01Z</time></trkpt><trkpt lat="59.5597962197" lon="31.2671523727"><ele>239.99</ele><time>2026-09-02T19:23:02Z</time></trkpt><trkpt lat="59.5597962197" lon="31.2671523727"><ele>239.99</ele><time>2026-09-02T19:23:03Z</time></trkpt><trkpt lat="59.5597962197" lon="31.2671523727"><ele>239.99</ele><time>2026-09-02T19:23:04Z</time></trkpt><trkpt lat="59.5597962197" lon="31.2671523727"><ele>239.99</ele><time>2026-09-02T19:23:05Z</time></trkpt><trkpt lat="59.5597962197" lon="31.2671523727"><ele>239.51</ele><time>2026-09-02T19:23:06Z</time></trkpt><trkpt lat="59.5597962197" lon="31.2671523727"><ele>239.51</ele><time>2026-09-02T19:23:07Z</time></trkpt><trkpt lat="59.5597962197" lon="31.2671523727"><ele>239.51</ele><time>2026-09-02T19:23:08Z</time></trkpt><trkpt lat="59.5597962197" lon="31.2671523727"><ele>239.51</ele><time>2026-09-02T19:23:09Z</time></trkpt><trkpt lat="59.5597962197" lon="31.2671523727"><ele>239.02</ele><time>2026-09-02T19:23:10Z</time></trkpt><trkpt lat="59.5597962197" lon="31.2671523727"><ele>239.02</ele><time>2026-09-02T19:23:11Z</time></trkpt><trkpt lat="59.5597962197" lon="31.2671523727"><ele>239.02</ele><time>2026-09-02T19:23:12Z</time></trkpt><trkpt lat="59.5597962197" lon="31.2671523727"><ele>239.02</ele><time>2026-09-02T19:23:13Z</time></trkpt><trkpt lat="59.5597962197" lon="31.2671523727"><ele>239.02</ele><time>2026-09-02T19:23:14Z</time></trkpt><trkpt lat="59.5597962197" lon="31.2671523727"><ele>239.02</ele><time>2026-09-02T19:23:15Z</time></trkpt><trkpt lat="59.5597962197" lon="31.2671523727"><ele>239.02</ele><time>2026-09-02T19:23:16Z</time></trkpt><trkpt lat="59.5597962197" lon="31.2671523727"><ele>239.51</ele><time>2026-09-02T19:23:17Z</time></trkpt><trkpt lat="59.5597962197" lon="31.2671523727"><ele>239.51</ele><time>2026-09-02T19:23:18Z</time></trkpt><trkpt lat="59.5597962197" lon="31.2671523727"><ele>239.51</ele><time>2026-09-02T19:23:19Z</time></trkpt><trkpt lat="59.5597962197" lon="31.2671523727"><ele>239.51</ele><time>2026-09-02T19:23:20Z</time></trkpt><trkpt lat="59.5597212855" lon="31.2672162428"><ele>239.51</ele><time>2026-09-02T19:23:21Z</time></trkpt><trkpt lat="59.5597178489" lon="31.2672197632"><ele>239.51</ele><time>2026-09-02T19:23:22Z</time></trkpt><trkpt lat="59.5597146638" lon="31.2672272231"><ele>239.51</ele><time>2026-09-02T19:23:23Z</time></trkpt><trkpt lat="59.5597123168" lon="31.2672314979"><ele>239.51</ele><time>2026-09-02T19:23:24Z</time></trkpt><trkpt lat="59.5597123168" lon="31.2672314979"><ele>239.51</ele><time>2026-09-02T19:23:25Z</time></trkpt><trkpt lat="59.5597123168" lon="31.2672314979"><ele>239.51</ele><time>2026-09-02T19:23:26Z</time></trkpt><trkpt lat="59.5597123168" lon="31.2672314979"><ele>239.51</ele><time>2026-09-02T19:23:27Z</time></trkpt><trkpt lat="59.5597123168" lon="31.2672314979"><ele>239.51</ele><time>2026-09-02T19:23:28Z</time></trkpt><trkpt lat="59.5597123168" lon="31.2672314979"><ele>239.51</ele><time>2026-09-02T19:23:29Z</time></trkpt><trkpt lat="59.5597123168" lon="31.2672314979"><ele>239.51</ele><time>2026-09-02T19:23:30Z</time></trkpt><trkpt lat="59.5597123168" lon="31.2672314979"><ele>239.51</ele><time>2026-09-02T19:23:31Z</time></trkpt><trkpt lat="59.5597123168" lon="31.2672314979"><ele>239.51</ele><time>2026-09-02T19:23:32Z</time></trkpt><trkpt lat="59.5597123168" lon="31.2672314979"><ele>239.51</ele><time>2026-09-02T19:23:33Z</time></trkpt><trkpt lat="59.5597123168" lon="31.2672314979"><ele>239.51</ele><time>2026-09-02T19:23:34Z</time></trkpt><trkpt lat="59.5597123168" lon="31.2672314979"><ele>239.51</ele><time>2026-09-02T19:23:35Z</time></trkpt><trkpt lat="59.5597123168" lon="31.2672314979"><ele>239.51</ele><time>2026-09-02T19:23:36Z</time></trkpt><trkpt lat="59.5597123168" lon="31.2672314979"><ele>239.51</ele><time>2026-09-02T19:23:37Z</time></trkpt><trkpt lat="59.5597123168" lon="31.2672314979"><ele>239.51</ele><time>2026-09-02T19:23:38Z</time></trkpt><trkpt lat="59.5597123168" lon="31.2672314979"><ele>239.51</ele><time>2026-09-02T19:23:39Z</time></trkpt><trkpt lat="59.5597123168" lon="31.2672314979"><ele>239.51</ele><time>2026-09-02T19:23:40Z</time></trkpt><trkpt lat="59.5597123168" lon="31.2672314979"><ele>239.51</ele><time>2026-09-02T19:23:41Z</time></trkpt><trkpt lat="59.5597123168" lon="31.2672314979"><ele>239.51</ele><time>2026-09-02T19:23:42Z</time></trkpt><trkpt lat="59.5597123168" lon="31.2672314979"><ele>239.51</ele><time>2026-09-02T19:23:43Z</time></trkpt><trkpt lat="59.5597123168" lon="31.2672314979"><ele>239.51</ele><time>2026-09-02T19:23:44Z</time></trkpt><trkpt lat="59.5597123168" lon="31.2672314979"><ele>239.51</ele><time>2026-09-02T19:23:45Z</time></trkpt><trkpt lat="59.5597123168" lon="31.2672314979"><ele>239.51</ele><time>2026-09-02T19:23:46Z</time></trkpt><trkpt lat="59.5597123168" lon="31.2672314979"><ele>239.99</ele><time>2026-09-02T19:23:47Z</time></trkpt><trkpt lat="59.5597123168" lon="31.2672314979"><ele>239.51</ele><time>2026-09-02T19:23:48Z</time></trkpt><trkpt lat="59.5597123168" lon="31.2672314979"><ele>239.51</ele><time>2026-09-02T19:23:49Z</time></trkpt><trkpt lat="59.5597123168" lon="31.2672314979"><ele>239.51</ele><time>2026-09-02T19:23:50Z</time></trkpt><trkpt lat="59.5597123168" lon="31.2672314979"><ele>239.51</ele><time>2026-09-02T19:23:51Z</time></trkpt><trkpt lat="59.5597123168" lon="31.2672314979"><ele>239.51</ele><time>2026-09-02T19:23:52Z</time></trkpt><trkpt lat="59.5597123168" lon="31.2672314979"><ele>239.51</ele><time>2026-09-02T19:23:53Z</time></trkpt><trkpt lat="59.5597123168" lon="31.2672314979"><ele>239.51</ele><time>2026-09-02T19:23:54Z</time></trkpt><trkpt lat="59.5597123168" lon="31.2672314979"><ele>239.51</ele><time>2026-09-02T19:23:55Z</time></trkpt><trkpt lat="59.5597123168" lon="31.2672314979"><ele>239.51</ele><time>2026-09-02T19:23:56Z</time></trkpt><trkpt lat="59.5597123168" lon="31.2672314979"><ele>239.51</ele><time>2026-09-02T19:23:57Z</time></trkpt><trkpt lat="59.5597123168" lon="31.2672314979"><ele>239.51</ele><time>2026-09-02T19:23:58Z</time></trkpt><trkpt lat="59.5597123168" lon="31.2672314979"><ele>239.02</ele><time>2026-09-02T19:23:59Z</time></trkpt><trkpt lat="59.5597123168" lon="31.2672314979"><ele>239.02</ele><time>2026-09-02T19:24:00Z</time></trkpt><trkpt lat="59.5597123168" lon="31.2672314979"><ele>239.02</ele><time>2026-09-02T19:24:01Z</time></trkpt><trkpt lat="59.5597123168" lon="31.2672314979"><ele>238.54</ele><time>2026-09-02T19:24:02Z</time></trkpt><trkpt lat="59.5597123168" lon="31.2672314979"><ele>238.54</ele><time>2026-09-02T19:24:03Z</time></trkpt><trkpt lat="59.5597123168" lon="31.2672314979"><ele>238.54</ele><time>2026-09-02T19:24:04Z</time></trkpt><trkpt lat="59.5597123168" lon="31.2672314979"><ele>238.54</ele><time>2026-09-02T19:24:05Z</time></trkpt><trkpt lat="59.5597123168" lon="31.2672314979"><ele>238.54</ele><time>2026-09-02T19:24:06Z</time></trkpt><trkpt lat="59.5597123168" lon="31.2672314979"><ele>238.06</ele><time>2026-09-02T19:24:07Z</time></trkpt><trkpt lat="59.5597123168" lon="31.2672314979"><ele>238.06</ele><time>2026-09-02T19:24:08Z</time></trkpt><trkpt lat="59.5597123168" lon="31.2672314979"><ele>238.06</ele><time>2026-09-02T19:24:09Z</time></trkpt><trkpt lat="59.5597123168" lon="31.2672314979"><ele>238.06</ele><time>2026-09-02T19:24:10Z</time></trkpt><trkpt lat="59.5597123168" lon="31.2672314979"><ele>238.06</ele><time>2026-09-02T19:24:11Z</time></trkpt><trkpt lat="59.5597123168" lon="31.2672314979"><ele>238.06</ele><time>2026-09-02T19:24:12Z</time></trkpt><trkpt lat="59.5597123168" lon="31.2672314979"><ele>237.58</ele><time>2026-09-02T19:24:13Z</time></trkpt><trkpt lat="59.5597123168" lon="31.2672314979"><ele>237.58</ele><time>2026-09-02T19:24:14Z</time></trkpt><trkpt lat="59.5597123168" lon="31.2672314979"><ele>237.58</ele><time>2026-09-02T19:24:15Z</time></trkpt><trkpt lat="59.5597123168" lon="31.2672314979"><ele>237.58</ele><time>2026-09-02T19:24:16Z</time></trkpt><trkpt lat="59.5597123168" lon="31.2672314979"><ele>237.58</ele><time>2026-09-02T19:24:17Z</time></trkpt><trkpt lat="59.5597123168" lon="31.2672314979"><ele>238.06</ele><time>2026-09-02T19:24:18Z</time></trkpt><trkpt lat="59.5597123168" lon="31.2672314979"><ele>238.06</ele><time>2026-09-02T19:24:19Z</time></trkpt><trkpt lat="59.5597123168" lon="31.2672314979"><ele>238.06</ele><time>2026-09-02T19:24:20Z</time></trkpt><trkpt lat="59.5597123168" lon="31.2672314979"><ele>238.06</ele><time>2026-09-02T19:24:21Z</time></trkpt><trkpt lat="59.5597123168" lon="31.2672314979"><ele>238.06</ele><time>2026-09-02T19:24:22Z</time></trkpt><trkpt lat="59.5597123168" lon="31.2672314979"><ele>238.06</ele><time>2026-09-02T19:24:23Z</time></trkpt><trkpt lat="59.5597123168" lon="31.2672314979"><ele>238.06</ele><time>2026-09-02T19:24:24Z</time></trkpt><trkpt lat="59.5597123168" lon="31.2672314979"><ele>238.06</ele><time>2026-09-02T19:24:25Z</time></trkpt><trkpt lat="59.5597123168" lon="31.2672314979"><ele>238.06</ele><time>2026-09-02T19:24:26Z</time></trkpt><trkpt lat="59.5597123168" lon="31.2672314979"><ele>238.54</ele><time>2026-09-02T19:24:27Z</time></trkpt><trkpt lat="59.5597123168" lon="31.2672314979"><ele>238.54</ele><time>2026-09-02T19:24:28Z</time></trkpt><trkpt lat="59.5597123168" lon="31.2672314979"><ele>238.54</ele><time>2026-09-02T19:24:29Z</time></trkpt><trkpt lat="59.5597123168" lon="31.2672314979"><ele>238.06</ele><time>2026-09-02T19:24:30Z</time></trkpt><trkpt lat="59.5597123168" lon="31.2672314979"><ele>238.06</ele><time>2026-09-02T19:24:31Z</time></trkpt><trkpt lat="59.5597123168" lon="31.2672314979"><ele>238.06</ele><time>2026-09-02T19:24:32Z</time></trkpt><trkpt lat="59.5597123168" lon="31.2672314979"><ele>238.06</ele><time>2026-09-02T19:24:33Z</time></trkpt><trkpt lat="59.5597123168" lon="31.2672314979"><ele>238.06</ele><time>2026-09-02T19:24:34Z</time></trkpt><trkpt lat="59.5597123168" lon="31.2672314979"><ele>238.06</ele><time>2026-09-02T19:24:35Z</time></trkpt><trkpt lat="59.5597123168" lon="31.2672314979"><ele>238.06</ele><time>2026-09-02T19:24:36Z</time></trkpt><trkpt lat="59.5597123168" lon="31.2672314979"><ele>238.06</ele><time>2026-09-02T19:24:37Z</time></trkpt><trkpt lat="59.5597123168" lon="31.2672314979"><ele>238.06</ele><time>2026-09-02T19:24:38Z</time></trkpt><trkpt lat="59.5597123168" lon="31.2672314979"><ele>238.06</ele><time>2026-09-02T19:24:39Z</time></trkpt><trkpt lat="59.5596274920" lon="31.2672703899"><ele>238.06</ele><time>2026-09-02T19:24:40Z</time></trkpt><trkpt lat="59.5596239716" lon="31.2672656961"><ele>238.06</ele><time>2026-09-02T19:24:41Z</time></trkpt><trkpt lat="59.5596205350" lon="31.2672705576"><ele>238.06</ele><time>2026-09-02T19:24:42Z</time></trkpt><trkpt lat="59.5596191939" lon="31.2672795262"><ele>238.06</ele><time>2026-09-02T19:24:43Z</time></trkpt><trkpt lat="59.5596145838" lon="31.2672875728"><ele>238.06</ele><time>2026-09-02T19:24:44Z</time></trkpt><trkpt lat="59.5596084651" lon="31.2672899198"><ele>238.06</ele><time>2026-09-02T19:24:45Z</time></trkpt><trkpt lat="59.5596041903" lon="31.2672872376"><ele>238.06</ele><time>2026-09-02T19:24:46Z</time></trkpt><trkpt lat="59.5596025977" lon="31.2672932725"><ele>238.06</ele><time>2026-09-02T19:24:47Z</time></trkpt><trkpt lat="59.5595993288" lon="31.2672957871"><ele>238.06</ele><time>2026-09-02T19:24:48Z</time></trkpt><trkpt lat="59.5595974848" lon="31.2673025765"><ele>238.06</ele><time>2026-09-02T19:24:49Z</time></trkpt><trkpt lat="59.5595974848" lon="31.2673025765"><ele>238.06</ele><time>2026-09-02T19:24:50Z</time></trkpt><trkpt lat="59.5595974848" lon="31.2673025765"><ele>238.06</ele><time>2026-09-02T19:24:51Z</time></trkpt><trkpt lat="59.5595927909" lon="31.2673070189"><ele>238.06</ele><time>2026-09-02T19:24:52Z</time></trkpt><trkpt lat="59.5595893543" lon="31.2673107907"><ele>238.06</ele><time>2026-09-02T19:24:53Z</time></trkpt><trkpt lat="59.5595866721" lon="31.2673092820"><ele>238.06</ele><time>2026-09-02T19:24:54Z</time></trkpt><trkpt lat="59.5595844928" lon="31.2673081923"><ele>238.06</ele><time>2026-09-02T19:24:55Z</time></trkpt><trkpt lat="59.5595785417" lon="31.2673087791"><ele>238.06</ele><time>2026-09-02T19:24:56Z</time></trkpt><trkpt lat="59.5595746860" lon="31.2673071865"><ele>238.06</ele><time>2026-09-02T19:24:57Z</time></trkpt><trkpt lat="59.5595722552" lon="31.2673055939"><ele>238.06</ele><time>2026-09-02T19:24:58Z</time></trkpt><trkpt lat="59.5595697407" lon="31.2673046719"><ele>238.06</ele><time>2026-09-02T19:24:59Z</time></trkpt><trkpt lat="59.5595675614" lon="31.2673087791"><ele>238.06</ele><time>2026-09-02T19:25:00Z</time></trkpt><trkpt lat="59.5595675614" lon="31.2673087791"><ele>238.06</ele><time>2026-09-02T19:25:01Z</time></trkpt><trkpt lat="59.5595675614" lon="31.2673087791"><ele>238.06</ele><time>2026-09-02T19:25:02Z</time></trkpt><trkpt lat="59.5595675614" lon="31.2673087791"><ele>238.06</ele><time>2026-09-02T19:25:03Z</time></trkpt><trkpt lat="59.5595675614" lon="31.2673087791"><ele>238.06</ele><time>2026-09-02T19:25:04Z</time></trkpt><trkpt lat="59.5595675614" lon="31.2673087791"><ele>238.06</ele><time>2026-09-02T19:25:05Z</time></trkpt><trkpt lat="59.5595675614" lon="31.2673087791"><ele>238.06</ele><time>2026-09-02T19:25:06Z</time></trkpt><trkpt lat="59.5595675614" lon="31.2673087791"><ele>237.58</ele><time>2026-09-02T19:25:07Z</time></trkpt><trkpt lat="59.5595426671" lon="31.2673539575"><ele>237.58</ele><time>2026-09-02T19:25:08Z</time></trkpt><trkpt lat="59.5595374703" lon="31.2673620880"><ele>237.58</ele><time>2026-09-02T19:25:09Z</time></trkpt><trkpt lat="59.5595302619" lon="31.2673704699"><ele>238.06</ele><time>2026-09-02T19:25:10Z</time></trkpt><trkpt lat="59.5595223829" lon="31.2673807796"><ele>238.06</ele><time>2026-09-02T19:25:11Z</time></trkpt><trkpt lat="59.5595186949" lon="31.2673883233"><ele>238.06</ele><time>2026-09-02T19:25:12Z</time></trkpt><trkpt lat="59.5595141686" lon="31.2673948612"><ele>238.06</ele><time>2026-09-02T19:25:13Z</time></trkpt><trkpt lat="59.5595097262" lon="31.2673999742"><ele>238.06</ele><time>2026-09-02T19:25:14Z</time></trkpt><trkpt lat="59.5595083851" lon="31.2674023211"><ele>238.06</ele><time>2026-09-02T19:25:15Z</time></trkpt><trkpt lat="59.5595057867" lon="31.2674085237"><ele>238.06</ele><time>2026-09-02T19:25:16Z</time></trkpt><trkpt lat="59.5595004223" lon="31.2674110383"><ele>238.06</ele><time>2026-09-02T19:25:17Z</time></trkpt><trkpt lat="59.5595004223" lon="31.2674110383"><ele>238.06</ele><time>2026-09-02T19:25:18Z</time></trkpt><trkpt lat="59.5595004223" lon="31.2674110383"><ele>238.06</ele><time>2026-09-02T19:25:19Z</time></trkpt><trkpt lat="59.5595004223" lon="31.2674110383"><ele>238.06</ele><time>2026-09-02T19:25:20Z</time></trkpt><trkpt lat="59.5595004223" lon="31.2674110383"><ele>238.06</ele><time>2026-09-02T19:25:21Z</time></trkpt><trkpt lat="59.5595004223" lon="31.2674110383"><ele>238.06</ele><time>2026-09-02T19:25:22Z</time></trkpt><trkpt lat="59.5595004223" lon="31.2674110383"><ele>238.06</ele><time>2026-09-02T19:25:23Z</time></trkpt><trkpt lat="59.5595004223" lon="31.2674110383"><ele>238.06</ele><time>2026-09-02T19:25:24Z</time></trkpt><trkpt lat="59.5594807249" lon="31.2674242817"><ele>238.06</ele><time>2026-09-02T19:25:25Z</time></trkpt><trkpt lat="59.5594801381" lon="31.2674285565"><ele>238.54</ele><time>2026-09-02T19:25:26Z</time></trkpt><trkpt lat="59.5594803896" lon="31.2674339209"><ele>238.54</ele><time>2026-09-02T19:25:27Z</time></trkpt><trkpt lat="59.5594809763" lon="31.2674472481"><ele>238.54</ele><time>2026-09-02T19:25:28Z</time></trkpt><trkpt lat="59.5594793838" lon="31.2674527802"><ele>239.02</ele><time>2026-09-02T19:25:29Z</time></trkpt><trkpt lat="59.5594776236" lon="31.2674565520"><ele>239.02</ele><time>2026-09-02T19:25:30Z</time></trkpt><trkpt lat="59.5594751928" lon="31.2674569711"><ele>239.02</ele><time>2026-09-02T19:25:31Z</time></trkpt><trkpt lat="59.5594740193" lon="31.2674593180"><ele>239.51</ele><time>2026-09-02T19:25:32Z</time></trkpt><trkpt lat="59.5594740193" lon="31.2674593180"><ele>239.51</ele><time>2026-09-02T19:25:33Z</time></trkpt><trkpt lat="59.5594740193" lon="31.2674593180"><ele>239.99</ele><time>2026-09-02T19:25:34Z</time></trkpt><trkpt lat="59.5594740193" lon="31.2674593180"><ele>239.99</ele><time>2026-09-02T19:25:35Z</time></trkpt><trkpt lat="59.5594740193" lon="31.2674593180"><ele>239.99</ele><time>2026-09-02T19:25:36Z</time></trkpt><trkpt lat="59.5594740193" lon="31.2674593180"><ele>239.99</ele><time>2026-09-02T19:25:37Z</time></trkpt><trkpt lat="59.5594740193" lon="31.2674593180"><ele>239.99</ele><time>2026-09-02T19:25:38Z</time></trkpt><trkpt lat="59.5594740193" lon="31.2674593180"><ele>240.47</ele><time>2026-09-02T19:25:39Z</time></trkpt><trkpt lat="59.5594740193" lon="31.2674593180"><ele>240.47</ele><time>2026-09-02T19:25:40Z</time></trkpt><trkpt lat="59.5594740193" lon="31.2674593180"><ele>240.47</ele><time>2026-09-02T19:25:41Z</time></trkpt><trkpt lat="59.5594740193" lon="31.2674593180"><ele>240.47</ele><time>2026-09-02T19:25:42Z</time></trkpt><trkpt lat="59.5594740193" lon="31.2674593180"><ele>240.47</ele><time>2026-09-02T19:25:43Z</time></trkpt><trkpt lat="59.5594740193" lon="31.2674593180"><ele>240.47</ele><time>2026-09-02T19:25:44Z</time></trkpt><trkpt lat="59.5594740193" lon="31.2674593180"><ele>240.47</ele><time>2026-09-02T19:25:45Z</time></trkpt><trkpt lat="59.5594740193" lon="31.2674593180"><ele>240.47</ele><time>2026-09-02T19:25:46Z</time></trkpt><trkpt lat="59.5594740193" lon="31.2674593180"><ele>239.99</ele><time>2026-09-02T19:25:47Z</time></trkpt><trkpt lat="59.5594740193" lon="31.2674593180"><ele>239.99</ele><time>2026-09-02T19:25:48Z</time></trkpt><trkpt lat="59.5594740193" lon="31.2674593180"><ele>239.99</ele><time>2026-09-02T19:25:49Z</time></trkpt><trkpt lat="59.5594740193" lon="31.2674593180"><ele>239.99</ele><time>2026-09-02T19:25:50Z</time></trkpt><trkpt lat="59.5594740193" lon="31.2674593180"><ele>239.99</ele><time>2026-09-02T19:25:51Z</time></trkpt><trkpt lat="59.5594740193" lon="31.2674593180"><ele>239.99</ele><time>2026-09-02T19:25:52Z</time></trkpt><trkpt lat="59.5594740193" lon="31.2674593180"><ele>239.99</ele><time>2026-09-02T19:25:53Z</time></trkpt><trkpt lat="59.5594740193" lon="31.2674593180"><ele>239.99</ele><time>2026-09-02T19:25:54Z</time></trkpt><trkpt lat="59.5594740193" lon="31.2674593180"><ele>239.99</ele><time>2026-09-02T19:25:55Z</time></trkpt><trkpt lat="59.5594740193" lon="31.2674593180"><ele>239.99</ele><time>2026-09-02T19:25:56Z</time></trkpt><trkpt lat="59.5594740193" lon="31.2674593180"><ele>239.99</ele><time>2026-09-02T19:25:57Z</time></trkpt><trkpt lat="59.5594740193" lon="31.2674593180"><ele>239.99</ele><time>2026-09-02T19:25:58Z</time></trkpt><trkpt lat="59.5594740193" lon="31.2674593180"><ele>239.99</ele><time>2026-09-02T19:25:59Z</time></trkpt><trkpt lat="59.5594740193" lon="31.2674593180"><ele>239.99</ele><time>2026-09-02T19:26:00Z</time></trkpt><trkpt lat="59.5594740193" lon="31.2674593180"><ele>239.99</ele><time>2026-09-02T19:26:01Z</time></trkpt><trkpt lat="59.5594740193" lon="31.2674593180"><ele>239.99</ele><time>2026-09-02T19:26:02Z</time></trkpt><trkpt lat="59.5594740193" lon="31.2674593180"><ele>239.99</ele><time>2026-09-02T19:26:03Z</time></trkpt><trkpt lat="59.5594740193" lon="31.2674593180"><ele>239.99</ele><time>2026-09-02T19:26:04Z</time></trkpt><trkpt lat="59.5594740193" lon="31.2674593180"><ele>239.99</ele><time>2026-09-02T19:26:05Z</time></trkpt><trkpt lat="59.5594740193" lon="31.2674593180"><ele>239.99</ele><time>2026-09-02T19:26:06Z</time></trkpt><trkpt lat="59.5594740193" lon="31.2674593180"><ele>239.99</ele><time>2026-09-02T19:26:07Z</time></trkpt><trkpt lat="59.5594740193" lon="31.2674593180"><ele>239.99</ele><time>2026-09-02T19:26:08Z</time></trkpt><trkpt lat="59.5594740193" lon="31.2674593180"><ele>239.99</ele><time>2026-09-02T19:26:09Z</time></trkpt><trkpt lat="59.5594276674" lon="31.2675963622"><ele>239.51</ele><time>2026-09-02T19:26:10Z</time></trkpt><trkpt lat="59.5594224706" lon="31.2676037382"><ele>239.51</ele><time>2026-09-02T19:26:11Z</time></trkpt><trkpt lat="59.5594162680" lon="31.2676113658"><ele>239.51</ele><time>2026-09-02T19:26:12Z</time></trkpt><trkpt lat="59.5594122447" lon="31.2676175684"><ele>239.51</ele><time>2026-09-02T19:26:13Z</time></trkpt><trkpt lat="59.5594084729" lon="31.2676221784"><ele>239.99</ele><time>2026-09-02T19:26:14Z</time></trkpt><trkpt lat="59.5594054554" lon="31.2676244415"><ele>239.99</ele><time>2026-09-02T19:26:15Z</time></trkpt><trkpt lat="59.5594023541" lon="31.2676306441"><ele>239.99</ele><time>2026-09-02T19:26:16Z</time></trkpt><trkpt lat="59.5593962353" lon="31.2676381879"><ele>239.99</ele><time>2026-09-02T19:26:17Z</time></trkpt><trkpt lat="59.5593962353" lon="31.2676381879"><ele>239.99</ele><time>2026-09-02T19:26:18Z</time></trkpt><trkpt lat="59.5593962353" lon="31.2676381879"><ele>239.99</ele><time>2026-09-02T19:26:19Z</time></trkpt><trkpt lat="59.5593962353" lon="31.2676381879"><ele>239.99</ele><time>2026-09-02T19:26:20Z</time></trkpt><trkpt lat="59.5593962353" lon="31.2676381879"><ele>239.99</ele><time>2026-09-02T19:26:21Z</time></trkpt><trkpt lat="59.5593962353" lon="31.2676381879"><ele>239.99</ele><time>2026-09-02T19:26:22Z</time></trkpt><trkpt lat="59.5593962353" lon="31.2676381879"><ele>239.99</ele><time>2026-09-02T19:26:23Z</time></trkpt><trkpt lat="59.5593962353" lon="31.2676381879"><ele>239.99</ele><time>2026-09-02T19:26:24Z</time></trkpt><trkpt lat="59.5593962353" lon="31.2676381879"><ele>239.99</ele><time>2026-09-02T19:26:25Z</time></trkpt><trkpt lat="59.5593962353" lon="31.2676381879"><ele>239.99</ele><time>2026-09-02T19:26:26Z</time></trkpt><trkpt lat="59.5593962353" lon="31.2676381879"><ele>239.99</ele><time>2026-09-02T19:26:27Z</time></trkpt><trkpt lat="59.5593962353" lon="31.2676381879"><ele>239.99</ele><time>2026-09-02T19:26:28Z</time></trkpt><trkpt lat="59.5593962353" lon="31.2676381879"><ele>239.99</ele><time>2026-09-02T19:26:29Z</time></trkpt><trkpt lat="59.5593962353" lon="31.2676381879"><ele>239.99</ele><time>2026-09-02T19:26:30Z</time></trkpt><trkpt lat="59.5593962353" lon="31.2676381879"><ele>239.51</ele><time>2026-09-02T19:26:31Z</time></trkpt><trkpt lat="59.5593962353" lon="31.2676381879"><ele>239.51</ele><time>2026-09-02T19:26:32Z</time></trkpt><trkpt lat="59.5593962353" lon="31.2676381879"><ele>239.51</ele><time>2026-09-02T19:26:33Z</time></trkpt><trkpt lat="59.5593962353" lon="31.2676381879"><ele>239.51</ele><time>2026-09-02T19:26:34Z</time></trkpt><trkpt lat="59.5593962353" lon="31.2676381879"><ele>239.51</ele><time>2026-09-02T19:26:35Z</time></trkpt><trkpt lat="59.5593962353" lon="31.2676381879"><ele>239.51</ele><time>2026-09-02T19:26:36Z</time></trkpt><trkpt lat="59.5593483746" lon="31.2676477432"><ele>239.51</ele><time>2026-09-02T19:26:37Z</time></trkpt><trkpt lat="59.5593475364" lon="31.2676531915"><ele>239.51</ele><time>2026-09-02T19:26:38Z</time></trkpt><trkpt lat="59.5593434293" lon="31.2676614895"><ele>239.51</ele><time>2026-09-02T19:26:39Z</time></trkpt><trkpt lat="59.5593387354" lon="31.2676675245"><ele>239.51</ele><time>2026-09-02T19:26:40Z</time></trkpt><trkpt lat="59.5593359694" lon="31.2676717993"><ele>239.51</ele><time>2026-09-02T19:26:41Z</time></trkpt><trkpt lat="59.5593363885" lon="31.2676762417"><ele>239.51</ele><time>2026-09-02T19:26:42Z</time></trkpt><trkpt lat="59.5593338739" lon="31.2676843721"><ele>239.51</ele><time>2026-09-02T19:26:43Z</time></trkpt><trkpt lat="59.5593338739" lon="31.2676843721"><ele>239.51</ele><time>2026-09-02T19:26:44Z</time></trkpt><trkpt lat="59.5593338739" lon="31.2676843721"><ele>239.51</ele><time>2026-09-02T19:26:45Z</time></trkpt><trkpt lat="59.5593338739" lon="31.2676843721"><ele>239.51</ele><time>2026-09-02T19:26:46Z</time></trkpt><trkpt lat="59.5593338739" lon="31.2676843721"><ele>239.51</ele><time>2026-09-02T19:26:47Z</time></trkpt><trkpt lat="59.5593338739" lon="31.2676843721"><ele>239.51</ele><time>2026-09-02T19:26:48Z</time></trkpt><trkpt lat="59.5593338739" lon="31.2676843721"><ele>239.51</ele><time>2026-09-02T19:26:49Z</time></trkpt><trkpt lat="59.5593338739" lon="31.2676843721"><ele>239.51</ele><time>2026-09-02T19:26:50Z</time></trkpt><trkpt lat="59.5593338739" lon="31.2676843721"><ele>239.51</ele><time>2026-09-02T19:26:51Z</time></trkpt><trkpt lat="59.5593338739" lon="31.2676843721"><ele>239.51</ele><time>2026-09-02T19:26:52Z</time></trkpt><trkpt lat="59.5593338739" lon="31.2676843721"><ele>239.51</ele><time>2026-09-02T19:26:53Z</time></trkpt><trkpt lat="59.5593338739" lon="31.2676843721"><ele>239.51</ele><time>2026-09-02T19:26:54Z</time></trkpt><trkpt lat="59.5593338739" lon="31.2676843721"><ele>239.51</ele><time>2026-09-02T19:26:55Z</time></trkpt><trkpt lat="59.5593338739" lon="31.2676843721"><ele>239.51</ele><time>2026-09-02T19:26:56Z</time></trkpt><trkpt lat="59.5593338739" lon="31.2676843721"><ele>239.51</ele><time>2026-09-02T19:26:57Z</time></trkpt><trkpt lat="59.5593338739" lon="31.2676843721"><ele>239.51</ele><time>2026-09-02T19:26:58Z</time></trkpt><trkpt lat="59.5593338739" lon="31.2676843721"><ele>239.51</ele><time>2026-09-02T19:26:59Z</time></trkpt><trkpt lat="59.5593338739" lon="31.2676843721"><ele>239.51</ele><time>2026-09-02T19:27:00Z</time></trkpt><trkpt lat="59.5593338739" lon="31.2676843721"><ele>239.99</ele><time>2026-09-02T19:27:01Z</time></trkpt><trkpt lat="59.5593338739" lon="31.2676843721"><ele>239.99</ele><time>2026-09-02T19:27:02Z</time></trkpt><trkpt lat="59.5593338739" lon="31.2676843721"><ele>239.99</ele><time>2026-09-02T19:27:03Z</time></trkpt><trkpt lat="59.5593338739" lon="31.2676843721"><ele>239.99</ele><time>2026-09-02T19:27:04Z</time></trkpt><trkpt lat="59.5593338739" lon="31.2676843721"><ele>239.99</ele><time>2026-09-02T19:27:05Z</time></trkpt><trkpt lat="59.5593338739" lon="31.2676843721"><ele>240.47</ele><time>2026-09-02T19:27:06Z</time></trkpt><trkpt lat="59.5593338739" lon="31.2676843721"><ele>240.47</ele><time>2026-09-02T19:27:07Z</time></trkpt><trkpt lat="59.5593338739" lon="31.2676843721"><ele>240.47</ele><time>2026-09-02T19:27:08Z</time></trkpt><trkpt lat="59.5593338739" lon="31.2676843721"><ele>240.95</ele><time>2026-09-02T19:27:09Z</time></trkpt><trkpt lat="59.5593338739" lon="31.2676843721"><ele>240.95</ele><time>2026-09-02T19:27:10Z</time></trkpt><trkpt lat="59.5593338739" lon="31.2676843721"><ele>240.95</ele><time>2026-09-02T19:27:11Z</time></trkpt><trkpt lat="59.5593338739" lon="31.2676843721"><ele>240.95</ele><time>2026-09-02T19:27:12Z</time></trkpt><trkpt lat="59.5593224745" lon="31.2677735556"><ele>240.95</ele><time>2026-09-02T19:27:13Z</time></trkpt><trkpt lat="59.5593201276" lon="31.2677740585"><ele>240.95</ele><time>2026-09-02T19:27:14Z</time></trkpt><trkpt lat="59.5593187865" lon="31.2677780818"><ele>240.95</ele><time>2026-09-02T19:27:15Z</time></trkpt><trkpt lat="59.5593188703" lon="31.2677833624"><ele>240.95</ele><time>2026-09-02T19:27:16Z</time></trkpt><trkpt lat="59.5593188703" lon="31.2677833624"><ele>240.95</ele><time>2026-09-02T19:27:17Z</time></trkpt><trkpt lat="59.5593188703" lon="31.2677833624"><ele>240.95</ele><time>2026-09-02T19:27:18Z</time></trkpt><trkpt lat="59.5593188703" lon="31.2677833624"><ele>240.95</ele><time>2026-09-02T19:27:19Z</time></trkpt><trkpt lat="59.5593188703" lon="31.2677833624"><ele>241.43</ele><time>2026-09-02T19:27:20Z</time></trkpt><trkpt lat="59.5593188703" lon="31.2677833624"><ele>241.43</ele><time>2026-09-02T19:27:21Z</time></trkpt><trkpt lat="59.5593188703" lon="31.2677833624"><ele>241.43</ele><time>2026-09-02T19:27:22Z</time></trkpt><trkpt lat="59.5593022741" lon="31.2677974440"><ele>241.43</ele><time>2026-09-02T19:27:23Z</time></trkpt><trkpt lat="59.5593001787" lon="31.2678014673"><ele>241.43</ele><time>2026-09-02T19:27:24Z</time></trkpt><trkpt lat="59.5592992567" lon="31.2678027246"><ele>241.43</ele><time>2026-09-02T19:27:25Z</time></trkpt><trkpt lat="59.5592988376" lon="31.2678034790"><ele>241.43</ele><time>2026-09-02T19:27:26Z</time></trkpt><trkpt lat="59.5592988376" lon="31.2678034790"><ele>241.43</ele><time>2026-09-02T19:27:27Z</time></trkpt><trkpt lat="59.5592988376" lon="31.2678034790"><ele>241.43</ele><time>2026-09-02T19:27:28Z</time></trkpt><trkpt lat="59.5592988376" lon="31.2678034790"><ele>241.91</ele><time>2026-09-02T19:27:29Z</time></trkpt><trkpt lat="59.5592988376" lon="31.2678034790"><ele>241.91</ele><time>2026-09-02T19:27:30Z</time></trkpt><trkpt lat="59.5592988376" lon="31.2678034790"><ele>241.91</ele><time>2026-09-02T19:27:31Z</time></trkpt><trkpt lat="59.5592988376" lon="31.2678034790"><ele>241.91</ele><time>2026-09-02T19:27:32Z</time></trkpt><trkpt lat="59.5592988376" lon="31.2678034790"><ele>241.91</ele><time>2026-09-02T19:27:33Z</time></trkpt><trkpt lat="59.5592988376" lon="31.2678034790"><ele>241.91</ele><time>2026-09-02T19:27:34Z</time></trkpt><trkpt lat="59.5592988376" lon="31.2678034790"><ele>241.91</ele><time>2026-09-02T19:27:35Z</time></trkpt><trkpt lat="59.5592988376" lon="31.2678034790"><ele>241.43</ele><time>2026-09-02T19:27:36Z</time></trkpt><trkpt lat="59.5592988376" lon="31.2678034790"><ele>241.43</ele><time>2026-09-02T19:27:37Z</time></trkpt><trkpt lat="59.5592988376" lon="31.2678034790"><ele>240.95</ele><time>2026-09-02T19:27:38Z</time></trkpt><trkpt lat="59.5593119971" lon="31.2678259425"><ele>240.95</ele><time>2026-09-02T19:27:39Z</time></trkpt><trkpt lat="59.5593105722" lon="31.2678311393"><ele>240.95</ele><time>2026-09-02T19:27:40Z</time></trkpt><trkpt lat="59.5593100693" lon="31.2678334862"><ele>240.95</ele><time>2026-09-02T19:27:41Z</time></trkpt><trkpt lat="59.5593112428" lon="31.2678389344"><ele>240.47</ele><time>2026-09-02T19:27:42Z</time></trkpt><trkpt lat="59.5593112428" lon="31.2678389344"><ele>240.47</ele><time>2026-09-02T19:27:43Z</time></trkpt><trkpt lat="59.5593112428" lon="31.2678389344"><ele>240.47</ele><time>2026-09-02T19:27:44Z</time></trkpt><trkpt lat="59.5593112428" lon="31.2678389344"><ele>240.95</ele><time>2026-09-02T19:27:45Z</time></trkpt><trkpt lat="59.5593112428" lon="31.2678389344"><ele>240.95</ele><time>2026-09-02T19:27:46Z</time></trkpt><trkpt lat="59.5593112428" lon="31.2678389344"><ele>240.95</ele><time>2026-09-02T19:27:47Z</time></trkpt><trkpt lat="59.5593112428" lon="31.2678389344"><ele>240.95</ele><time>2026-09-02T19:27:48Z</time></trkpt><trkpt lat="59.5593112428" lon="31.2678389344"><ele>240.95</ele><time>2026-09-02T19:27:49Z</time></trkpt><trkpt lat="59.5593112428" lon="31.2678389344"><ele>240.95</ele><time>2026-09-02T19:27:50Z</time></trkpt><trkpt lat="59.5593112428" lon="31.2678389344"><ele>240.95</ele><time>2026-09-02T19:27:51Z</time></trkpt><trkpt lat="59.5592834987" lon="31.2678846996"><ele>240.95</ele><time>2026-09-02T19:27:52Z</time></trkpt><trkpt lat="59.5592795592" lon="31.2678896450"><ele>240.95</ele><time>2026-09-02T19:27:53Z</time></trkpt><trkpt lat="59.5592775475" lon="31.2678959314"><ele>240.95</ele><time>2026-09-02T19:27:54Z</time></trkpt><trkpt lat="59.5592768770" lon="31.2679030560"><ele>240.95</ele><time>2026-09-02T19:27:55Z</time></trkpt><trkpt lat="59.5592728537" lon="31.2679078337"><ele>240.95</ele><time>2026-09-02T19:27:56Z</time></trkpt><trkpt lat="59.5592728537" lon="31.2679078337"><ele>240.95</ele><time>2026-09-02T19:27:57Z</time></trkpt><trkpt lat="59.5592728537" lon="31.2679078337"><ele>240.95</ele><time>2026-09-02T19:27:58Z</time></trkpt><trkpt lat="59.5592728537" lon="31.2679078337"><ele>241.43</ele><time>2026-09-02T19:27:59Z</time></trkpt><trkpt lat="59.5592728537" lon="31.2679078337"><ele>241.43</ele><time>2026-09-02T19:28:00Z</time></trkpt><trkpt lat="59.5592728537" lon="31.2679078337"><ele>241.43</ele><time>2026-09-02T19:28:01Z</time></trkpt><trkpt lat="59.5592728537" lon="31.2679078337"><ele>241.43</ele><time>2026-09-02T19:28:02Z</time></trkpt><trkpt lat="59.5592728537" lon="31.2679078337"><ele>241.43</ele><time>2026-09-02T19:28:03Z</time></trkpt><trkpt lat="59.5592728537" lon="31.2679078337"><ele>241.43</ele><time>2026-09-02T19:28:04Z</time></trkpt><trkpt lat="59.5592728537" lon="31.2679078337"><ele>241.43</ele><time>2026-09-02T19:28:05Z</time></trkpt><trkpt lat="59.5592728537" lon="31.2679078337"><ele>241.43</ele><time>2026-09-02T19:28:06Z</time></trkpt><trkpt lat="59.5592728537" lon="31.2679078337"><ele>241.43</ele><time>2026-09-02T19:28:07Z</time></trkpt><trkpt lat="59.5592728537" lon="31.2679078337"><ele>241.43</ele><time>2026-09-02T19:28:08Z</time></trkpt><trkpt lat="59.5592728537" lon="31.2679078337"><ele>241.43</ele><time>2026-09-02T19:28:09Z</time></trkpt><trkpt lat="59.5592728537" lon="31.2679078337"><ele>241.43</ele><time>2026-09-02T19:28:10Z</time></trkpt><trkpt lat="59.5592728537" lon="31.2679078337"><ele>241.43</ele><time>2026-09-02T19:28:11Z</time></trkpt><trkpt lat="59.5592728537" lon="31.2679078337"><ele>241.43</ele><time>2026-09-02T19:28:12Z</time></trkpt><trkpt lat="59.5592728537" lon="31.2679078337"><ele>241.91</ele><time>2026-09-02T19:28:13Z</time></trkpt><trkpt lat="59.5592728537" lon="31.2679078337"><ele>241.91</ele><time>2026-09-02T19:28:14Z</time></trkpt><trkpt lat="59.5592728537" lon="31.2679078337"><ele>241.91</ele><time>2026-09-02T19:28:15Z</time></trkpt><trkpt lat="59.5592728537" lon="31.2679078337"><ele>241.91</ele><time>2026-09-02T19:28:16Z</time></trkpt><trkpt lat="59.5592728537" lon="31.2679078337"><ele>241.91</ele><time>2026-09-02T19:28:17Z</time></trkpt><trkpt lat="59.5592728537" lon="31.2679078337"><ele>241.43</ele><time>2026-09-02T19:28:18Z</time></trkpt><trkpt lat="59.5592728537" lon="31.2679078337"><ele>241.43</ele><time>2026-09-02T19:28:19Z</time></trkpt><trkpt lat="59.5592728537" lon="31.2679078337"><ele>241.43</ele><time>2026-09-02T19:28:20Z</time></trkpt><trkpt lat="59.5592728537" lon="31.2679078337"><ele>241.43</ele><time>2026-09-02T19:28:21Z</time></trkpt><trkpt lat="59.5592728537" lon="31.2679078337"><ele>241.43</ele><time>2026-09-02T19:28:22Z</time></trkpt><trkpt lat="59.5592728537" lon="31.2679078337"><ele>241.43</ele><time>2026-09-02T19:28:23Z</time></trkpt><trkpt lat="59.5592728537" lon="31.2679078337"><ele>241.43</ele><time>2026-09-02T19:28:24Z</time></trkpt><trkpt lat="59.5592728537" lon="31.2679078337"><ele>241.43</ele><time>2026-09-02T19:28:25Z</time></trkpt><trkpt lat="59.5592728537" lon="31.2679078337"><ele>241.43</ele><time>2026-09-02T19:28:26Z</time></trkpt><trkpt lat="59.5592728537" lon="31.2679078337"><ele>241.43</ele><time>2026-09-02T19:28:27Z</time></trkpt><trkpt lat="59.5592728537" lon="31.2679078337"><ele>241.43</ele><time>2026-09-02T19:28:28Z</time></trkpt><trkpt lat="59.5592728537" lon="31.2679078337"><ele>241.43</ele><time>2026-09-02T19:28:29Z</time></trkpt><trkpt lat="59.5592728537" lon="31.2679078337"><ele>241.43</ele><time>2026-09-02T19:28:30Z</time></trkpt><trkpt lat="59.5592728537" lon="31.2679078337"><ele>241.43</ele><time>2026-09-02T19:28:31Z</time></trkpt><trkpt lat="59.5592728537" lon="31.2679078337"><ele>241.43</ele><time>2026-09-02T19:28:32Z</time></trkpt><trkpt lat="59.5592728537" lon="31.2679078337"><ele>241.43</ele><time>2026-09-02T19:28:33Z</time></trkpt><trkpt lat="59.5591971651" lon="31.2680157926"><ele>241.43</ele><time>2026-09-02T19:28:34Z</time></trkpt><trkpt lat="59.5591906272" lon="31.2680155411"><ele>241.43</ele><time>2026-09-02T19:28:35Z</time></trkpt><trkpt lat="59.5591816586" lon="31.2680198997"><ele>241.43</ele><time>2026-09-02T19:28:36Z</time></trkpt><trkpt lat="59.5591755398" lon="31.2680281978"><ele>241.43</ele><time>2026-09-02T19:28:37Z</time></trkpt><trkpt lat="59.5591755398" lon="31.2680281978"><ele>241.91</ele><time>2026-09-02T19:28:38Z</time></trkpt><trkpt lat="59.5591755398" lon="31.2680281978"><ele>241.91</ele><time>2026-09-02T19:28:39Z</time></trkpt><trkpt lat="59.5591755398" lon="31.2680281978"><ele>241.91</ele><time>2026-09-02T19:28:40Z</time></trkpt><trkpt lat="59.5591755398" lon="31.2680281978"><ele>241.91</ele><time>2026-09-02T19:28:41Z</time></trkpt><trkpt lat="59.5591755398" lon="31.2680281978"><ele>241.91</ele><time>2026-09-02T19:28:42Z</time></trkpt><trkpt lat="59.5591755398" lon="31.2680281978"><ele>241.91</ele><time>2026-09-02T19:28:43Z</time></trkpt><trkpt lat="59.5591755398" lon="31.2680281978"><ele>241.91</ele><time>2026-09-02T19:28:44Z</time></trkpt><trkpt lat="59.5591755398" lon="31.2680281978"><ele>241.91</ele><time>2026-09-02T19:28:45Z</time></trkpt><trkpt lat="59.5591632184" lon="31.2680729572"><ele>241.91</ele><time>2026-09-02T19:28:46Z</time></trkpt><trkpt lat="59.5591625478" lon="31.2680897210"><ele>241.43</ele><time>2026-09-02T19:28:47Z</time></trkpt><trkpt lat="59.5591616258" lon="31.2681046408"><ele>241.43</ele><time>2026-09-02T19:28:48Z</time></trkpt><trkpt lat="59.5591591951" lon="31.2681177165"><ele>241.43</ele><time>2026-09-02T19:28:49Z</time></trkpt><trkpt lat="59.5591596980" lon="31.2681288645"><ele>241.43</ele><time>2026-09-02T19:28:50Z</time></trkpt><trkpt lat="59.5591567643" lon="31.2681425270"><ele>240.95</ele><time>2026-09-02T19:28:51Z</time></trkpt><trkpt lat="59.5591565967" lon="31.2681545969"><ele>240.95</ele><time>2026-09-02T19:28:52Z</time></trkpt><trkpt lat="59.5591563452" lon="31.2681667507"><ele>240.95</ele><time>2026-09-02T19:28:53Z</time></trkpt><trkpt lat="59.5591567643" lon="31.2681780662"><ele>240.95</ele><time>2026-09-02T19:28:54Z</time></trkpt><trkpt lat="59.5591543335" lon="31.2681863643"><ele>240.95</ele><time>2026-09-02T19:28:55Z</time></trkpt><trkpt lat="59.5591507293" lon="31.2681970932"><ele>240.95</ele><time>2026-09-02T19:28:56Z</time></trkpt><trkpt lat="59.5591474604" lon="31.2682072353"><ele>240.95</ele><time>2026-09-02T19:28:57Z</time></trkpt><trkpt lat="59.5591438562" lon="31.2682117615"><ele>240.47</ele><time>2026-09-02T19:28:58Z</time></trkpt><trkpt lat="59.5591355581" lon="31.2682252564"><ele>240.47</ele><time>2026-09-02T19:28:59Z</time></trkpt><trkpt lat="59.5591319539" lon="31.2682329677"><ele>239.99</ele><time>2026-09-02T19:29:00Z</time></trkpt><trkpt lat="59.5591303613" lon="31.2682438642"><ele>239.99</ele><time>2026-09-02T19:29:01Z</time></trkpt><trkpt lat="59.5591255836" lon="31.2682521623"><ele>239.99</ele><time>2026-09-02T19:29:02Z</time></trkpt><trkpt lat="59.5591214765" lon="31.2682577781"><ele>239.99</ele><time>2026-09-02T19:29:03Z</time></trkpt><trkpt lat="59.5591175370" lon="31.2682663277"><ele>239.99</ele><time>2026-09-02T19:29:04Z</time></trkpt><trkpt lat="59.5591132622" lon="31.2682726979"><ele>239.99</ele><time>2026-09-02T19:29:05Z</time></trkpt><trkpt lat="59.5591088198" lon="31.2682751287"><ele>239.99</ele><time>2026-09-02T19:29:06Z</time></trkpt><trkpt lat="59.5591088198" lon="31.2682751287"><ele>239.99</ele><time>2026-09-02T19:29:07Z</time></trkpt><trkpt lat="59.5591088198" lon="31.2682751287"><ele>239.99</ele><time>2026-09-02T19:29:08Z</time></trkpt><trkpt lat="59.5591088198" lon="31.2682751287"><ele>239.99</ele><time>2026-09-02T19:29:09Z</time></trkpt><trkpt lat="59.5591088198" lon="31.2682751287"><ele>239.99</ele><time>2026-09-02T19:29:10Z</time></trkpt><trkpt lat="59.5591088198" lon="31.2682751287"><ele>239.99</ele><time>2026-09-02T19:29:11Z</time></trkpt><trkpt lat="59.5591088198" lon="31.2682751287"><ele>239.99</ele><time>2026-09-02T19:29:12Z</time></trkpt><trkpt lat="59.5591088198" lon="31.2682751287"><ele>239.99</ele><time>2026-09-02T19:29:13Z</time></trkpt><trkpt lat="59.5590711851" lon="31.2682566885"><ele>239.99</ele><time>2026-09-02T19:29:14Z</time></trkpt><trkpt lat="59.5590664912" lon="31.2682522461"><ele>239.99</ele><time>2026-09-02T19:29:15Z</time></trkpt><trkpt lat="59.5590588637" lon="31.2682518270"><ele>239.99</ele><time>2026-09-02T19:29:16Z</time></trkpt><trkpt lat="59.5590555947" lon="31.2682564370"><ele>239.99</ele><time>2026-09-02T19:29:17Z</time></trkpt><trkpt lat="59.5590555947" lon="31.2682564370"><ele>239.99</ele><time>2026-09-02T19:29:18Z</time></trkpt><trkpt lat="59.5590555947" lon="31.2682564370"><ele>239.99</ele><time>2026-09-02T19:29:19Z</time></trkpt><trkpt lat="59.5590555947" lon="31.2682564370"><ele>239.99</ele><time>2026-09-02T19:29:20Z</time></trkpt><trkpt lat="59.5590376575" lon="31.2682715245"><ele>239.99</ele><time>2026-09-02T19:29:21Z</time></trkpt><trkpt lat="59.5590317901" lon="31.2682711892"><ele>239.99</ele><time>2026-09-02T19:29:22Z</time></trkpt><trkpt lat="59.5590263419" lon="31.2682698481"><ele>239.99</ele><time>2026-09-02T19:29:23Z</time></trkpt><trkpt lat="59.5590195525" lon="31.2682729494"><ele>239.99</ele><time>2026-09-02T19:29:24Z</time></trkpt><trkpt lat="59.5590142719" lon="31.2682715245"><ele>239.99</ele><time>2026-09-02T19:29:25Z</time></trkpt><trkpt lat="59.5590077341" lon="31.2682710215"><ele>239.99</ele><time>2026-09-02T19:29:26Z</time></trkpt><trkpt lat="59.5590003580" lon="31.2682743743"><ele>239.99</ele><time>2026-09-02T19:29:27Z</time></trkpt><trkpt lat="59.5589985978" lon="31.2682837620"><ele>239.99</ele><time>2026-09-02T19:29:28Z</time></trkpt><trkpt lat="59.5589939877" lon="31.2682896294"><ele>240.47</ele><time>2026-09-02T19:29:29Z</time></trkpt><trkpt lat="59.5589886233" lon="31.2682871986"><ele>240.47</ele><time>2026-09-02T19:29:30Z</time></trkpt><trkpt lat="59.5589853544" lon="31.2682843488"><ele>240.47</ele><time>2026-09-02T19:29:31Z</time></trkpt><trkpt lat="59.5589853544" lon="31.2682843488"><ele>240.47</ele><time>2026-09-02T19:29:32Z</time></trkpt><trkpt lat="59.5589853544" lon="31.2682843488"><ele>240.47</ele><time>2026-09-02T19:29:33Z</time></trkpt><trkpt lat="59.5589853544" lon="31.2682843488"><ele>240.47</ele><time>2026-09-02T19:29:34Z</time></trkpt><trkpt lat="59.5589853544" lon="31.2682843488"><ele>240.47</ele><time>2026-09-02T19:29:35Z</time></trkpt><trkpt lat="59.5589853544" lon="31.2682843488"><ele>240.47</ele><time>2026-09-02T19:29:36Z</time></trkpt><trkpt lat="59.5589853544" lon="31.2682843488"><ele>240.47</ele><time>2026-09-02T19:29:37Z</time></trkpt><trkpt lat="59.5589853544" lon="31.2682843488"><ele>240.47</ele><time>2026-09-02T19:29:38Z</time></trkpt><trkpt lat="59.5589853544" lon="31.2682843488"><ele>240.47</ele><time>2026-09-02T19:29:39Z</time></trkpt><trkpt lat="59.5589853544" lon="31.2682843488"><ele>240.47</ele><time>2026-09-02T19:29:40Z</time></trkpt><trkpt lat="59.5589853544" lon="31.2682843488"><ele>240.47</ele><time>2026-09-02T19:29:41Z</time></trkpt><trkpt lat="59.5589853544" lon="31.2682843488"><ele>240.47</ele><time>2026-09-02T19:29:42Z</time></trkpt><trkpt lat="59.5589853544" lon="31.2682843488"><ele>240.47</ele><time>2026-09-02T19:29:43Z</time></trkpt><trkpt lat="59.5589853544" lon="31.2682843488"><ele>240.47</ele><time>2026-09-02T19:29:44Z</time></trkpt><trkpt lat="59.5589853544" lon="31.2682843488"><ele>240.47</ele><time>2026-09-02T19:29:45Z</time></trkpt><trkpt lat="59.5589853544" lon="31.2682843488"><ele>240.47</ele><time>2026-09-02T19:29:46Z</time></trkpt><trkpt lat="59.5589853544" lon="31.2682843488"><ele>240.47</ele><time>2026-09-02T19:29:47Z</time></trkpt><trkpt lat="59.5589853544" lon="31.2682843488"><ele>240.47</ele><time>2026-09-02T19:29:48Z</time></trkpt><trkpt lat="59.5589853544" lon="31.2682843488"><ele>240.47</ele><time>2026-09-02T19:29:49Z</time></trkpt><trkpt lat="59.5589853544" lon="31.2682843488"><ele>240.47</ele><time>2026-09-02T19:29:50Z</time></trkpt><trkpt lat="59.5589853544" lon="31.2682843488"><ele>240.47</ele><time>2026-09-02T19:29:51Z</time></trkpt><trkpt lat="59.5589853544" lon="31.2682843488"><ele>240.47</ele><time>2026-09-02T19:29:52Z</time></trkpt><trkpt lat="59.5589853544" lon="31.2682843488"><ele>240.47</ele><time>2026-09-02T19:29:53Z</time></trkpt><trkpt lat="59.5589853544" lon="31.2682843488"><ele>240.47</ele><time>2026-09-02T19:29:54Z</time></trkpt><trkpt lat="59.5589853544" lon="31.2682843488"><ele>240.47</ele><time>2026-09-02T19:29:55Z</time></trkpt><trkpt lat="59.5589853544" lon="31.2682843488"><ele>240.47</ele><time>2026-09-02T19:29:57Z</time></trkpt><trkpt lat="59.5589853544" lon="31.2682843488"><ele>239.99</ele><time>2026-09-02T19:29:58Z</time></trkpt><trkpt lat="59.5589853544" lon="31.2682843488"><ele>239.99</ele><time>2026-09-02T19:29:59Z</time></trkpt><trkpt lat="59.5589853544" lon="31.2682843488"><ele>239.99</ele><time>2026-09-02T19:30:00Z</time></trkpt><trkpt lat="59.5589853544" lon="31.2682843488"><ele>239.99</ele><time>2026-09-02T19:30:01Z</time></trkpt><trkpt lat="59.5589853544" lon="31.2682843488"><ele>239.99</ele><time>2026-09-02T19:30:02Z</time></trkpt><trkpt lat="59.5589853544" lon="31.2682843488"><ele>239.99</ele><time>2026-09-02T19:30:03Z</time></trkpt><trkpt lat="59.5589853544" lon="31.2682843488"><ele>239.99</ele><time>2026-09-02T19:30:04Z</time></trkpt><trkpt lat="59.5589853544" lon="31.2682843488"><ele>239.99</ele><time>2026-09-02T19:30:05Z</time></trkpt><trkpt lat="59.5589853544" lon="31.2682843488"><ele>239.99</ele><time>2026-09-02T19:30:06Z</time></trkpt><trkpt lat="59.5589853544" lon="31.2682843488"><ele>239.99</ele><time>2026-09-02T19:30:07Z</time></trkpt><trkpt lat="59.5589853544" lon="31.2682843488"><ele>239.99</ele><time>2026-09-02T19:30:08Z</time></trkpt><trkpt lat="59.5589853544" lon="31.2682843488"><ele>239.99</ele><time>2026-09-02T19:30:09Z</time></trkpt><trkpt lat="59.5589853544" lon="31.2682843488"><ele>239.99</ele><time>2026-09-02T19:30:10Z</time></trkpt><trkpt lat="59.5589853544" lon="31.2682843488"><ele>239.99</ele><time>2026-09-02T19:30:11Z</time></trkpt><trkpt lat="59.5589853544" lon="31.2682843488"><ele>239.99</ele><time>2026-09-02T19:30:12Z</time></trkpt><trkpt lat="59.5589853544" lon="31.2682843488"><ele>239.99</ele><time>2026-09-02T19:30:13Z</time></trkpt><trkpt lat="59.5589853544" lon="31.2682843488"><ele>239.99</ele><time>2026-09-02T19:30:14Z</time></trkpt><trkpt lat="59.5589853544" lon="31.2682843488"><ele>239.99</ele><time>2026-09-02T19:30:15Z</time></trkpt><trkpt lat="59.5589853544" lon="31.2682843488"><ele>239.99</ele><time>2026-09-02T19:30:16Z</time></trkpt><trkpt lat="59.5589853544" lon="31.2682843488"><ele>239.99</ele><time>2026-09-02T19:30:17Z</time></trkpt><trkpt lat="59.5589853544" lon="31.2682843488"><ele>239.99</ele><time>2026-09-02T19:30:18Z</time></trkpt><trkpt lat="59.5589853544" lon="31.2682843488"><ele>239.99</ele><time>2026-09-02T19:30:19Z</time></trkpt><trkpt lat="59.5589853544" lon="31.2682843488"><ele>239.99</ele><time>2026-09-02T19:30:20Z</time></trkpt><trkpt lat="59.5589853544" lon="31.2682843488"><ele>239.99</ele><time>2026-09-02T19:30:21Z</time></trkpt><trkpt lat="59.5589853544" lon="31.2682843488"><ele>239.99</ele><time>2026-09-02T19:30:22Z</time></trkpt><trkpt lat="59.5589853544" lon="31.2682843488"><ele>239.99</ele><time>2026-09-02T19:30:23Z</time></trkpt><trkpt lat="59.5589853544" lon="31.2682843488"><ele>239.99</ele><time>2026-09-02T19:30:24Z</time></trkpt><trkpt lat="59.5589853544" lon="31.2682843488"><ele>239.99</ele><time>2026-09-02T19:30:25Z</time></trkpt><trkpt lat="59.5589853544" lon="31.2682843488"><ele>239.99</ele><time>2026-09-02T19:30:26Z</time></trkpt><trkpt lat="59.5589853544" lon="31.2682843488"><ele>239.99</ele><time>2026-09-02T19:30:27Z</time></trkpt><trkpt lat="59.5589853544" lon="31.2682843488"><ele>239.99</ele><time>2026-09-02T19:30:28Z</time></trkpt><trkpt lat="59.5589853544" lon="31.2682843488"><ele>239.99</ele><time>2026-09-02T19:30:29Z</time></trkpt><trkpt lat="59.5589853544" lon="31.2682843488"><ele>239.99</ele><time>2026-09-02T19:30:30Z</time></trkpt><trkpt lat="59.5589853544" lon="31.2682843488"><ele>239.99</ele><time>2026-09-02T19:30:31Z</time></trkpt><trkpt lat="59.5589853544" lon="31.2682843488"><ele>239.99</ele><time>2026-09-02T19:30:32Z</time></trkpt><trkpt lat="59.5589853544" lon="31.2682843488"><ele>239.99</ele><time>2026-09-02T19:30:33Z</time></trkpt><trkpt lat="59.5589853544" lon="31.2682843488"><ele>239.99</ele><time>2026-09-02T19:30:34Z</time></trkpt><trkpt lat="59.5589853544" lon="31.2682843488"><ele>239.99</ele><time>2026-09-02T19:30:35Z</time></trkpt><trkpt lat="59.5589853544" lon="31.2682843488"><ele>239.99</ele><time>2026-09-02T19:30:36Z</time></trkpt><trkpt lat="59.5589853544" lon="31.2682843488"><ele>239.99</ele><time>2026-09-02T19:30:37Z</time></trkpt><trkpt lat="59.5589853544" lon="31.2682843488"><ele>239.99</ele><time>2026-09-02T19:30:38Z</time></trkpt><trkpt lat="59.5589853544" lon="31.2682843488"><ele>239.99</ele><time>2026-09-02T19:30:39Z</time></trkpt><trkpt lat="59.5589853544" lon="31.2682843488"><ele>239.99</ele><time>2026-09-02T19:30:40Z</time></trkpt><trkpt lat="59.5589853544" lon="31.2682843488"><ele>239.99</ele><time>2026-09-02T19:30:41Z</time></trkpt><trkpt lat="59.5589853544" lon="31.2682843488"><ele>239.99</ele><time>2026-09-02T19:30:42Z</time></trkpt><trkpt lat="59.5589853544" lon="31.2682843488"><ele>239.99</ele><time>2026-09-02T19:30:43Z</time></trkpt><trkpt lat="59.5589853544" lon="31.2682843488"><ele>239.99</ele><time>2026-09-02T19:30:44Z</time></trkpt><trkpt lat="59.5589853544" lon="31.2682843488"><ele>239.99</ele><time>2026-09-02T19:30:45Z</time></trkpt><trkpt lat="59.5589853544" lon="31.2682843488"><ele>239.99</ele><time>2026-09-02T19:30:46Z</time></trkpt><trkpt lat="59.5589853544" lon="31.2682843488"><ele>239.99</ele><time>2026-09-02T19:30:47Z</time></trkpt><trkpt lat="59.5589853544" lon="31.2682843488"><ele>239.99</ele><time>2026-09-02T19:30:48Z</time></trkpt><trkpt lat="59.5589853544" lon="31.2682843488"><ele>239.99</ele><time>2026-09-02T19:30:49Z</time></trkpt><trkpt lat="59.5589853544" lon="31.2682843488"><ele>239.99</ele><time>2026-09-02T19:30:50Z</time></trkpt><trkpt lat="59.5589853544" lon="31.2682843488"><ele>239.99</ele><time>2026-09-02T19:30:51Z</time></trkpt><trkpt lat="59.5589853544" lon="31.2682843488"><ele>239.99</ele><time>2026-09-02T19:30:52Z</time></trkpt><trkpt lat="59.5589853544" lon="31.2682843488"><ele>239.99</ele><time>2026-09-02T19:30:53Z</time></trkpt><trkpt lat="59.5589853544" lon="31.2682843488"><ele>239.99</ele><time>2026-09-02T19:30:54Z</time></trkpt><trkpt lat="59.5589853544" lon="31.2682843488"><ele>239.99</ele><time>2026-09-02T19:30:55Z</time></trkpt><trkpt lat="59.5589853544" lon="31.2682843488"><ele>239.99</ele><time>2026-09-02T19:30:56Z</time></trkpt><trkpt lat="59.5589853544" lon="31.2682843488"><ele>239.99</ele><time>2026-09-02T19:30:57Z</time></trkpt><trkpt lat="59.5589853544" lon="31.2682843488"><ele>239.99</ele><time>2026-09-02T19:30:58Z</time></trkpt><trkpt lat="59.5589853544" lon="31.2682843488"><ele>239.99</ele><time>2026-09-02T19:30:59Z</time></trkpt><trkpt lat="59.5589853544" lon="31.2682843488"><ele>239.99</ele><time>2026-09-02T19:31:00Z</time></trkpt><trkpt lat="59.5589853544" lon="31.2682843488"><ele>239.99</ele><time>2026-09-02T19:31:01Z</time></trkpt><trkpt lat="59.5589853544" lon="31.2682843488"><ele>239.99</ele><time>2026-09-02T19:31:02Z</time></trkpt><trkpt lat="59.5589853544" lon="31.2682843488"><ele>239.99</ele><time>2026-09-02T19:31:03Z</time></trkpt><trkpt lat="59.5589736197" lon="31.2682328839"><ele>239.99</ele><time>2026-09-02T19:31:04Z</time></trkpt><trkpt lat="59.5589721948" lon="31.2682301179"><ele>239.99</ele><time>2026-09-02T19:31:05Z</time></trkpt><trkpt lat="59.5589690935" lon="31.2682316266"><ele>240.47</ele><time>2026-09-02T19:31:06Z</time></trkpt><trkpt lat="59.5589680877" lon="31.2682312913"><ele>240.47</ele><time>2026-09-02T19:31:07Z</time></trkpt><trkpt lat="59.5589680877" lon="31.2682307884"><ele>240.47</ele><time>2026-09-02T19:31:08Z</time></trkpt><trkpt lat="59.5589680877" lon="31.2682307884"><ele>240.47</ele><time>2026-09-02T19:31:09Z</time></trkpt><trkpt lat="59.5589680877" lon="31.2682307884"><ele>240.47</ele><time>2026-09-02T19:31:10Z</time></trkpt><trkpt lat="59.5589680877" lon="31.2682307884"><ele>240.47</ele><time>2026-09-02T19:31:11Z</time></trkpt><trkpt lat="59.5589680877" lon="31.2682307884"><ele>240.47</ele><time>2026-09-02T19:31:12Z</time></trkpt><trkpt lat="59.5589680877" lon="31.2682307884"><ele>240.47</ele><time>2026-09-02T19:31:13Z</time></trkpt><trkpt lat="59.5589680877" lon="31.2682307884"><ele>240.47</ele><time>2026-09-02T19:31:14Z</time></trkpt><trkpt lat="59.5589680877" lon="31.2682307884"><ele>240.47</ele><time>2026-09-02T19:31:15Z</time></trkpt><trkpt lat="59.5589680877" lon="31.2682307884"><ele>240.47</ele><time>2026-09-02T19:31:16Z</time></trkpt><trkpt lat="59.5589680877" lon="31.2682307884"><ele>240.47</ele><time>2026-09-02T19:31:17Z</time></trkpt><trkpt lat="59.5589680877" lon="31.2682307884"><ele>240.47</ele><time>2026-09-02T19:31:18Z</time></trkpt><trkpt lat="59.5589680877" lon="31.2682307884"><ele>240.47</ele><time>2026-09-02T19:31:19Z</time></trkpt><trkpt lat="59.5589680877" lon="31.2682307884"><ele>240.47</ele><time>2026-09-02T19:31:20Z</time></trkpt><trkpt lat="59.5589680877" lon="31.2682307884"><ele>240.47</ele><time>2026-09-02T19:31:21Z</time></trkpt><trkpt lat="59.5589680877" lon="31.2682307884"><ele>240.47</ele><time>2026-09-02T19:31:22Z</time></trkpt><trkpt lat="59.5589680877" lon="31.2682307884"><ele>240.47</ele><time>2026-09-02T19:31:23Z</time></trkpt><trkpt lat="59.5589680877" lon="31.2682307884"><ele>240.47</ele><time>2026-09-02T19:31:24Z</time></trkpt><trkpt lat="59.5589680877" lon="31.2682307884"><ele>240.47</ele><time>2026-09-02T19:31:25Z</time></trkpt><trkpt lat="59.5589680877" lon="31.2682307884"><ele>240.47</ele><time>2026-09-02T19:31:26Z</time></trkpt><trkpt lat="59.5589680877" lon="31.2682307884"><ele>240.47</ele><time>2026-09-02T19:31:27Z</time></trkpt><trkpt lat="59.5589680877" lon="31.2682307884"><ele>240.47</ele><time>2026-09-02T19:31:28Z</time></trkpt><trkpt lat="59.5589680877" lon="31.2682307884"><ele>240.47</ele><time>2026-09-02T19:31:29Z</time></trkpt><trkpt lat="59.5589680877" lon="31.2682307884"><ele>240.47</ele><time>2026-09-02T19:31:30Z</time></trkpt><trkpt lat="59.5589680877" lon="31.2682307884"><ele>240.47</ele><time>2026-09-02T19:31:31Z</time></trkpt><trkpt lat="59.5589680877" lon="31.2682307884"><ele>240.47</ele><time>2026-09-02T19:31:32Z</time></trkpt><trkpt lat="59.5589680877" lon="31.2682307884"><ele>240.47</ele><time>2026-09-02T19:31:33Z</time></trkpt><trkpt lat="59.5589680877" lon="31.2682307884"><ele>240.47</ele><time>2026-09-02T19:31:34Z</time></trkpt><trkpt lat="59.5589680877" lon="31.2682307884"><ele>240.47</ele><time>2026-09-02T19:31:35Z</time></trkpt><trkpt lat="59.5589680877" lon="31.2682307884"><ele>240.47</ele><time>2026-09-02T19:31:36Z</time></trkpt><trkpt lat="59.5589680877" lon="31.2682307884"><ele>240.47</ele><time>2026-09-02T19:31:37Z</time></trkpt><trkpt lat="59.5589696802" lon="31.2683687545"><ele>240.47</ele><time>2026-09-02T19:31:38Z</time></trkpt><trkpt lat="59.5589681715" lon="31.2683780584"><ele>240.47</ele><time>2026-09-02T19:31:39Z</time></trkpt><trkpt lat="59.5589639805" lon="31.2683869433"><ele>240.47</ele><time>2026-09-02T19:31:40Z</time></trkpt><trkpt lat="59.5589609630" lon="31.2683917210"><ele>240.47</ele><time>2026-09-02T19:31:41Z</time></trkpt><trkpt lat="59.5589609630" lon="31.2683917210"><ele>240.47</ele><time>2026-09-02T19:31:42Z</time></trkpt><trkpt lat="59.5589609630" lon="31.2683917210"><ele>240.47</ele><time>2026-09-02T19:31:43Z</time></trkpt><trkpt lat="59.5589609630" lon="31.2683917210"><ele>240.47</ele><time>2026-09-02T19:31:44Z</time></trkpt><trkpt lat="59.5589609630" lon="31.2683917210"><ele>240.47</ele><time>2026-09-02T19:31:45Z</time></trkpt><trkpt lat="59.5589609630" lon="31.2683917210"><ele>240.47</ele><time>2026-09-02T19:31:46Z</time></trkpt><trkpt lat="59.5589609630" lon="31.2683917210"><ele>240.47</ele><time>2026-09-02T19:31:47Z</time></trkpt><trkpt lat="59.5589609630" lon="31.2683917210"><ele>240.47</ele><time>2026-09-02T19:31:48Z</time></trkpt><trkpt lat="59.5589609630" lon="31.2683917210"><ele>240.47</ele><time>2026-09-02T19:31:49Z</time></trkpt><trkpt lat="59.5589609630" lon="31.2683917210"><ele>240.47</ele><time>2026-09-02T19:31:50Z</time></trkpt><trkpt lat="59.5589609630" lon="31.2683917210"><ele>240.47</ele><time>2026-09-02T19:31:51Z</time></trkpt><trkpt lat="59.5589609630" lon="31.2683917210"><ele>240.47</ele><time>2026-09-02T19:31:52Z</time></trkpt><trkpt lat="59.5589609630" lon="31.2683917210"><ele>240.47</ele><time>2026-09-02T19:31:53Z</time></trkpt><trkpt lat="59.5589609630" lon="31.2683917210"><ele>240.47</ele><time>2026-09-02T19:31:54Z</time></trkpt><trkpt lat="59.5589609630" lon="31.2683917210"><ele>240.47</ele><time>2026-09-02T19:31:55Z</time></trkpt><trkpt lat="59.5589609630" lon="31.2683917210"><ele>240.47</ele><time>2026-09-02T19:31:56Z</time></trkpt><trkpt lat="59.5589609630" lon="31.2683917210"><ele>240.47</ele><time>2026-09-02T19:31:57Z</time></trkpt><trkpt lat="59.5589609630" lon="31.2683917210"><ele>240.47</ele><time>2026-09-02T19:31:58Z</time></trkpt><trkpt lat="59.5589609630" lon="31.2683917210"><ele>240.47</ele><time>2026-09-02T19:31:59Z</time></trkpt><trkpt lat="59.5589609630" lon="31.2683917210"><ele>240.47</ele><time>2026-09-02T19:32:00Z</time></trkpt><trkpt lat="59.5589609630" lon="31.2683917210"><ele>240.47</ele><time>2026-09-02T19:32:01Z</time></trkpt><trkpt lat="59.5589609630" lon="31.2683917210"><ele>240.47</ele><time>2026-09-02T19:32:02Z</time></trkpt><trkpt lat="59.5589609630" lon="31.2683917210"><ele>240.47</ele><time>2026-09-02T19:32:03Z</time></trkpt><trkpt lat="59.5589609630" lon="31.2683917210"><ele>240.47</ele><time>2026-09-02T19:32:04Z</time></trkpt><trkpt lat="59.5589609630" lon="31.2683917210"><ele>240.47</ele><time>2026-09-02T19:32:05Z</time></trkpt><trkpt lat="59.5589609630" lon="31.2683917210"><ele>240.47</ele><time>2026-09-02T19:32:06Z</time></trkpt><trkpt lat="59.5589609630" lon="31.2683917210"><ele>240.47</ele><time>2026-09-02T19:32:07Z</time></trkpt><trkpt lat="59.5589609630" lon="31.2683917210"><ele>240.47</ele><time>2026-09-02T19:32:08Z</time></trkpt><trkpt lat="59.5589609630" lon="31.2683917210"><ele>240.47</ele><time>2026-09-02T19:32:09Z</time></trkpt><trkpt lat="59.5588934887" lon="31.2684650626"><ele>240.47</ele><time>2026-09-02T19:32:10Z</time></trkpt><trkpt lat="59.5588921476" lon="31.2684716843"><ele>240.47</ele><time>2026-09-02T19:32:11Z</time></trkpt><trkpt lat="59.5588919800" lon="31.2684818264"><ele>240.47</ele><time>2026-09-02T19:32:12Z</time></trkpt><trkpt lat="59.5588906389" lon="31.2684911303"><ele>240.47</ele><time>2026-09-02T19:32:13Z</time></trkpt><trkpt lat="59.5588879567" lon="31.2684992608"><ele>240.47</ele><time>2026-09-02T19:32:14Z</time></trkpt><trkpt lat="59.5588850230" lon="31.2685061339"><ele>240.47</ele><time>2026-09-02T19:32:15Z</time></trkpt><trkpt lat="59.5588824246" lon="31.2685185391"><ele>240.47</ele><time>2026-09-02T19:32:16Z</time></trkpt><trkpt lat="59.5588825922" lon="31.2685303576"><ele>240.47</ele><time>2026-09-02T19:32:17Z</time></trkpt><trkpt lat="59.5588753000" lon="31.2685382366"><ele>240.47</ele><time>2026-09-02T19:32:18Z</time></trkpt><trkpt lat="59.5588708576" lon="31.2685475405"><ele>240.47</ele><time>2026-09-02T19:32:19Z</time></trkpt><trkpt lat="59.5588666666" lon="31.2685578503"><ele>240.47</ele><time>2026-09-02T19:32:20Z</time></trkpt><trkpt lat="59.5588617213" lon="31.2685702555"><ele>240.47</ele><time>2026-09-02T19:32:21Z</time></trkpt><trkpt lat="59.5588565245" lon="31.2685777992"><ele>240.47</ele><time>2026-09-02T19:32:22Z</time></trkpt><trkpt lat="59.5588507410" lon="31.2685929704"><ele>240.47</ele><time>2026-09-02T19:32:23Z</time></trkpt><trkpt lat="59.5588460471" lon="31.2686053757"><ele>240.47</ele><time>2026-09-02T19:32:24Z</time></trkpt><trkpt lat="59.5588448737" lon="31.2686095666"><ele>240.47</ele><time>2026-09-02T19:32:25Z</time></trkpt><trkpt lat="59.5588446222" lon="31.2686112430"><ele>240.47</ele><time>2026-09-02T19:32:26Z</time></trkpt><trkpt lat="59.5588409342" lon="31.2686127517"><ele>240.47</ele><time>2026-09-02T19:32:27Z</time></trkpt><trkpt lat="59.5588409342" lon="31.2686127517"><ele>240.47</ele><time>2026-09-02T19:32:28Z</time></trkpt><trkpt lat="59.5588409342" lon="31.2686127517"><ele>240.47</ele><time>2026-09-02T19:32:29Z</time></trkpt><trkpt lat="59.5588409342" lon="31.2686127517"><ele>240.47</ele><time>2026-09-02T19:32:30Z</time></trkpt><trkpt lat="59.5588409342" lon="31.2686127517"><ele>240.47</ele><time>2026-09-02T19:32:31Z</time></trkpt><trkpt lat="59.5588409342" lon="31.2686127517"><ele>240.47</ele><time>2026-09-02T19:32:32Z</time></trkpt><trkpt lat="59.5588257629" lon="31.2686267495"><ele>240.47</ele><time>2026-09-02T19:32:33Z</time></trkpt><trkpt lat="59.5588242542" lon="31.2686329521"><ele>240.47</ele><time>2026-09-02T19:32:34Z</time></trkpt><trkpt lat="59.5588216558" lon="31.2686400767"><ele>240.47</ele><time>2026-09-02T19:32:35Z</time></trkpt><trkpt lat="59.5588204823" lon="31.2686451897"><ele>239.99</ele><time>2026-09-02T19:32:36Z</time></trkpt><trkpt lat="59.5588204823" lon="31.2686451897"><ele>239.99</ele><time>2026-09-02T19:32:37Z</time></trkpt><trkpt lat="59.5588204823" lon="31.2686451897"><ele>239.99</ele><time>2026-09-02T19:32:38Z</time></trkpt><trkpt lat="59.5588204823" lon="31.2686451897"><ele>239.99</ele><time>2026-09-02T19:32:39Z</time></trkpt><trkpt lat="59.5588204823" lon="31.2686451897"><ele>239.99</ele><time>2026-09-02T19:32:40Z</time></trkpt><trkpt lat="59.5588204823" lon="31.2686451897"><ele>239.99</ele><time>2026-09-02T19:32:41Z</time></trkpt><trkpt lat="59.5588204823" lon="31.2686451897"><ele>239.99</ele><time>2026-09-02T19:32:42Z</time></trkpt><trkpt lat="59.5588154532" lon="31.2687135860"><ele>239.99</ele><time>2026-09-02T19:32:43Z</time></trkpt><trkpt lat="59.5588118490" lon="31.2687260751"><ele>239.99</ele><time>2026-09-02T19:32:44Z</time></trkpt><trkpt lat="59.5588101726" lon="31.2687373906"><ele>239.99</ele><time>2026-09-02T19:32:45Z</time></trkpt><trkpt lat="59.5588084962" lon="31.2687512208"><ele>239.99</ele><time>2026-09-02T19:32:46Z</time></trkpt><trkpt lat="59.5588061493" lon="31.2687605247"><ele>239.99</ele><time>2026-09-02T19:32:47Z</time></trkpt><trkpt lat="59.5588003658" lon="31.2687695771"><ele>239.51</ele><time>2026-09-02T19:32:48Z</time></trkpt><trkpt lat="59.5587954205" lon="31.2687825691"><ele>239.51</ele><time>2026-09-02T19:32:49Z</time></trkpt><trkpt lat="59.5587919839" lon="31.2687994167"><ele>239.51</ele><time>2026-09-02T19:32:50Z</time></trkpt><trkpt lat="59.5587897208" lon="31.2688136660"><ele>239.02</ele><time>2026-09-02T19:32:51Z</time></trkpt><trkpt lat="59.5587863680" lon="31.2688260712"><ele>239.02</ele><time>2026-09-02T19:32:52Z</time></trkpt><trkpt lat="59.5587844402" lon="31.2688374706"><ele>239.02</ele><time>2026-09-02T19:32:53Z</time></trkpt><trkpt lat="59.5587821770" lon="31.2688488699"><ele>239.02</ele><time>2026-09-02T19:32:54Z</time></trkpt><trkpt lat="59.5587797463" lon="31.2688616943"><ele>239.02</ele><time>2026-09-02T19:32:55Z</time></trkpt><trkpt lat="59.5587766450" lon="31.2688721716"><ele>239.02</ele><time>2026-09-02T19:32:56Z</time></trkpt><trkpt lat="59.5587751362" lon="31.2688840739"><ele>239.02</ele><time>2026-09-02T19:32:57Z</time></trkpt><trkpt lat="59.5587744657" lon="31.2688954733"><ele>239.02</ele><time>2026-09-02T19:32:58Z</time></trkpt><trkpt lat="59.5587738790" lon="31.2689039391"><ele>238.54</ele><time>2026-09-02T19:32:59Z</time></trkpt><trkpt lat="59.5587759744" lon="31.2689123210"><ele>238.54</ele><time>2026-09-02T19:33:00Z</time></trkpt><trkpt lat="59.5587774832" lon="31.2689220440"><ele>238.54</ele><time>2026-09-02T19:33:01Z</time></trkpt><trkpt lat="59.5587779861" lon="31.2689298391"><ele>238.54</ele><time>2026-09-02T19:33:02Z</time></trkpt><trkpt lat="59.5587779861" lon="31.2689298391"><ele>238.06</ele><time>2026-09-02T19:33:03Z</time></trkpt><trkpt lat="59.5587779861" lon="31.2689298391"><ele>238.06</ele><time>2026-09-02T19:33:04Z</time></trkpt><trkpt lat="59.5587779861" lon="31.2689298391"><ele>238.06</ele><time>2026-09-02T19:33:05Z</time></trkpt><trkpt lat="59.5587779861" lon="31.2689298391"><ele>238.06</ele><time>2026-09-02T19:33:06Z</time></trkpt><trkpt lat="59.5587779861" lon="31.2689298391"><ele>237.58</ele><time>2026-09-02T19:33:07Z</time></trkpt><trkpt lat="59.5587779861" lon="31.2689298391"><ele>237.58</ele><time>2026-09-02T19:33:08Z</time></trkpt><trkpt lat="59.5587779861" lon="31.2689298391"><ele>237.58</ele><time>2026-09-02T19:33:09Z</time></trkpt><trkpt lat="59.5587779861" lon="31.2689298391"><ele>237.58</ele><time>2026-09-02T19:33:10Z</time></trkpt><trkpt lat="59.5587779861" lon="31.2689298391"><ele>237.58</ele><time>2026-09-02T19:33:11Z</time></trkpt><trkpt lat="59.5587529242" lon="31.2689423282"><ele>237.58</ele><time>2026-09-02T19:33:12Z</time></trkpt><trkpt lat="59.5587506611" lon="31.2689465191"><ele>237.58</ele><time>2026-09-02T19:33:13Z</time></trkpt><trkpt lat="59.5587478951" lon="31.2689564936"><ele>237.58</ele><time>2026-09-02T19:33:14Z</time></trkpt><trkpt lat="59.5587430336" lon="31.2689658813"><ele>237.58</ele><time>2026-09-02T19:33:15Z</time></trkpt><trkpt lat="59.5587381721" lon="31.2689743470"><ele>237.58</ele><time>2026-09-02T19:33:16Z</time></trkpt><trkpt lat="59.5587347355" lon="31.2689795438"><ele>237.58</ele><time>2026-09-02T19:33:17Z</time></trkpt><trkpt lat="59.5587303769" lon="31.2689834833"><ele>237.58</ele><time>2026-09-02T19:33:18Z</time></trkpt><trkpt lat="59.5587253477" lon="31.2689844891"><ele>237.58</ele><time>2026-09-02T19:33:19Z</time></trkpt><trkpt lat="59.5587201510" lon="31.2689829804"><ele>237.58</ele><time>2026-09-02T19:33:20Z</time></trkpt><trkpt lat="59.5587156247" lon="31.2689810526"><ele>237.58</ele><time>2026-09-02T19:33:21Z</time></trkpt><trkpt lat="59.5587123558" lon="31.2689807173"><ele>237.58</ele><time>2026-09-02T19:33:22Z</time></trkpt><trkpt lat="59.5587076619" lon="31.2689824775"><ele>238.06</ele><time>2026-09-02T19:33:23Z</time></trkpt><trkpt lat="59.5587004535" lon="31.2689831480"><ele>238.06</ele><time>2026-09-02T19:33:24Z</time></trkpt><trkpt lat="59.5586955920" lon="31.2689822260"><ele>238.06</ele><time>2026-09-02T19:33:25Z</time></trkpt><trkpt lat="59.5586905628" lon="31.2689782865"><ele>238.06</ele><time>2026-09-02T19:33:26Z</time></trkpt><trkpt lat="59.5586870424" lon="31.2689717487"><ele>238.06</ele><time>2026-09-02T19:33:27Z</time></trkpt><trkpt lat="59.5586825162" lon="31.2689690664"><ele>238.06</ele><time>2026-09-02T19:33:28Z</time></trkpt><trkpt lat="59.5586750563" lon="31.2689640373"><ele>238.06</ele><time>2026-09-02T19:33:29Z</time></trkpt><trkpt lat="59.5586786605" lon="31.2689613551"><ele>238.06</ele><time>2026-09-02T19:33:30Z</time></trkpt><trkpt lat="59.5586755592" lon="31.2689615227"><ele>238.06</ele><time>2026-09-02T19:33:31Z</time></trkpt><trkpt lat="59.5586728770" lon="31.2689608522"><ele>238.54</ele><time>2026-09-02T19:33:32Z</time></trkpt><trkpt lat="59.5586728770" lon="31.2689608522"><ele>238.54</ele><time>2026-09-02T19:33:33Z</time></trkpt><trkpt lat="59.5586728770" lon="31.2689608522"><ele>238.54</ele><time>2026-09-02T19:33:34Z</time></trkpt><trkpt lat="59.5586728770" lon="31.2689608522"><ele>238.54</ele><time>2026-09-02T19:33:35Z</time></trkpt><trkpt lat="59.5586629864" lon="31.2689696532"><ele>238.54</ele><time>2026-09-02T19:33:36Z</time></trkpt><trkpt lat="59.5586603880" lon="31.2689777836"><ele>238.54</ele><time>2026-09-02T19:33:37Z</time></trkpt><trkpt lat="59.5586570352" lon="31.2689860817"><ele>238.54</ele><time>2026-09-02T19:33:38Z</time></trkpt><trkpt lat="59.5586569514" lon="31.2689916976"><ele>238.06</ele><time>2026-09-02T19:33:39Z</time></trkpt><trkpt lat="59.5586572867" lon="31.2689985707"><ele>238.06</ele><time>2026-09-02T19:33:40Z</time></trkpt><trkpt lat="59.5586568676" lon="31.2690060306"><ele>238.06</ele><time>2026-09-02T19:33:41Z</time></trkpt><trkpt lat="59.5586568676" lon="31.2690060306"><ele>238.06</ele><time>2026-09-02T19:33:42Z</time></trkpt><trkpt lat="59.5586568676" lon="31.2690060306"><ele>238.06</ele><time>2026-09-02T19:33:43Z</time></trkpt><trkpt lat="59.5586568676" lon="31.2690060306"><ele>237.58</ele><time>2026-09-02T19:33:44Z</time></trkpt><trkpt lat="59.5586568676" lon="31.2690060306"><ele>237.58</ele><time>2026-09-02T19:33:45Z</time></trkpt><trkpt lat="59.5586568676" lon="31.2690060306"><ele>237.58</ele><time>2026-09-02T19:33:46Z</time></trkpt><trkpt lat="59.5586568676" lon="31.2690060306"><ele>237.58</ele><time>2026-09-02T19:33:47Z</time></trkpt><trkpt lat="59.5586568676" lon="31.2690060306"><ele>237.58</ele><time>2026-09-02T19:33:48Z</time></trkpt><trkpt lat="59.5586568676" lon="31.2690060306"><ele>237.58</ele><time>2026-09-02T19:33:49Z</time></trkpt><trkpt lat="59.5586568676" lon="31.2690060306"><ele>237.58</ele><time>2026-09-02T19:33:50Z</time></trkpt><trkpt lat="59.5586412773" lon="31.2690067850"><ele>237.58</ele><time>2026-09-02T19:33:51Z</time></trkpt><trkpt lat="59.5586343203" lon="31.2690104730"><ele>237.58</ele><time>2026-09-02T19:33:52Z</time></trkpt><trkpt lat="59.5586274471" lon="31.2690133229"><ele>237.58</ele><time>2026-09-02T19:33:53Z</time></trkpt><trkpt lat="59.5586239267" lon="31.2690209504"><ele>238.06</ele><time>2026-09-02T19:33:54Z</time></trkpt><trkpt lat="59.5586210769" lon="31.2690267339"><ele>238.06</ele><time>2026-09-02T19:33:55Z</time></trkpt><trkpt lat="59.5586172212" lon="31.2690357864"><ele>238.06</ele><time>2026-09-02T19:33:56Z</time></trkpt><trkpt lat="59.5586134493" lon="31.2690478563"><ele>238.06</ele><time>2026-09-02T19:33:57Z</time></trkpt><trkpt lat="59.5586097613" lon="31.2690584175"><ele>238.06</ele><time>2026-09-02T19:33:58Z</time></trkpt><trkpt lat="59.5586065762" lon="31.2690704875"><ele>237.58</ele><time>2026-09-02T19:33:59Z</time></trkpt><trkpt lat="59.5586014632" lon="31.2690809648"><ele>237.58</ele><time>2026-09-02T19:34:00Z</time></trkpt><trkpt lat="59.5585968532" lon="31.2690942921"><ele>237.58</ele><time>2026-09-02T19:34:01Z</time></trkpt><trkpt lat="59.5585882198" lon="31.2691026740"><ele>237.58</ele><time>2026-09-02T19:34:02Z</time></trkpt><trkpt lat="59.5585817657" lon="31.2691069487"><ele>237.58</ele><time>2026-09-02T19:34:03Z</time></trkpt><trkpt lat="59.5585759822" lon="31.2691125646"><ele>237.58</ele><time>2026-09-02T19:34:04Z</time></trkpt><trkpt lat="59.5585722942" lon="31.2691174261"><ele>237.58</ele><time>2026-09-02T19:34:05Z</time></trkpt><trkpt lat="59.5585667621" lon="31.2691217847"><ele>237.58</ele><time>2026-09-02T19:34:06Z</time></trkpt><trkpt lat="59.5585625712" lon="31.2691228744"><ele>237.58</ele><time>2026-09-02T19:34:07Z</time></trkpt><trkpt lat="59.5585566200" lon="31.2691312563"><ele>237.58</ele><time>2026-09-02T19:34:08Z</time></trkpt><trkpt lat="59.5585498307" lon="31.2691423204"><ele>237.10</ele><time>2026-09-02T19:34:09Z</time></trkpt><trkpt lat="59.5585453883" lon="31.2691489421"><ele>237.10</ele><time>2026-09-02T19:34:10Z</time></trkpt><trkpt lat="59.5585389342" lon="31.2691589165"><ele>237.10</ele><time>2026-09-02T19:34:11Z</time></trkpt><trkpt lat="59.5585375931" lon="31.2691690587"><ele>237.10</ele><time>2026-09-02T19:34:12Z</time></trkpt><trkpt lat="59.5585330669" lon="31.2691783626"><ele>237.10</ele><time>2026-09-02T19:34:13Z</time></trkpt><trkpt lat="59.5585281216" lon="31.2691901810"><ele>237.10</ele><time>2026-09-02T19:34:14Z</time></trkpt><trkpt lat="59.5585221704" lon="31.2692024186"><ele>236.62</ele><time>2026-09-02T19:34:15Z</time></trkpt><trkpt lat="59.5585153811" lon="31.2692137342"><ele>236.62</ele><time>2026-09-02T19:34:16Z</time></trkpt><trkpt lat="59.5585076697" lon="31.2692272291"><ele>236.62</ele><time>2026-09-02T19:34:17Z</time></trkpt><trkpt lat="59.5584998745" lon="31.2692368682"><ele>236.62</ele><time>2026-09-02T19:34:18Z</time></trkpt><trkpt lat="59.5584935881" lon="31.2692383770"><ele>236.62</ele><time>2026-09-02T19:34:19Z</time></trkpt><trkpt lat="59.5584866311" lon="31.2692433223"><ele>236.62</ele><time>2026-09-02T19:34:20Z</time></trkpt><trkpt lat="59.5584794227" lon="31.2692482676"><ele>236.14</ele><time>2026-09-02T19:34:21Z</time></trkpt><trkpt lat="59.5584698673" lon="31.2692516204"><ele>236.14</ele><time>2026-09-02T19:34:22Z</time></trkpt><trkpt lat="59.5584646706" lon="31.2692547217"><ele>236.14</ele><time>2026-09-02T19:34:23Z</time></trkpt><trkpt lat="59.5584569592" lon="31.2692555599"><ele>236.14</ele><time>2026-09-02T19:34:24Z</time></trkpt><trkpt lat="59.5584504213" lon="31.2692567334"><ele>236.14</ele><time>2026-09-02T19:34:25Z</time></trkpt><trkpt lat="59.5584416203" lon="31.2692550570"><ele>235.66</ele><time>2026-09-02T19:34:26Z</time></trkpt><trkpt lat="59.5584343281" lon="31.2692595832"><ele>235.66</ele><time>2026-09-02T19:34:27Z</time></trkpt><trkpt lat="59.5584288798" lon="31.2692701444"><ele>235.66</ele><time>2026-09-02T19:34:28Z</time></trkpt><trkpt lat="59.5584232640" lon="31.2692785263"><ele>235.66</ele><time>2026-09-02T19:34:29Z</time></trkpt><trkpt lat="59.5584191568" lon="31.2692831364"><ele>235.66</ele><time>2026-09-02T19:34:30Z</time></trkpt><trkpt lat="59.5584142953" lon="31.2692898419"><ele>235.66</ele><time>2026-09-02T19:34:31Z</time></trkpt><trkpt lat="59.5584165584" lon="31.2692992296"><ele>235.66</ele><time>2026-09-02T19:34:32Z</time></trkpt><trkpt lat="59.5584154688" lon="31.2693113834"><ele>235.66</ele><time>2026-09-02T19:34:33Z</time></trkpt><trkpt lat="59.5584154688" lon="31.2693177536"><ele>235.18</ele><time>2026-09-02T19:34:34Z</time></trkpt><trkpt lat="59.5584137924" lon="31.2693251297"><ele>235.18</ele><time>2026-09-02T19:34:35Z</time></trkpt><trkpt lat="59.5584101882" lon="31.2693293206"><ele>235.18</ele><time>2026-09-02T19:34:36Z</time></trkpt><trkpt lat="59.5584071707" lon="31.2693338469"><ele>235.18</ele><time>2026-09-02T19:34:37Z</time></trkpt><trkpt lat="59.5584071707" lon="31.2693338469"><ele>235.18</ele><time>2026-09-02T19:34:38Z</time></trkpt><trkpt lat="59.5584037341" lon="31.2693341821"><ele>235.18</ele><time>2026-09-02T19:34:39Z</time></trkpt><trkpt lat="59.5583978668" lon="31.2693384569"><ele>235.18</ele><time>2026-09-02T19:34:40Z</time></trkpt><trkpt lat="59.5583916642" lon="31.2693397980"><ele>235.18</ele><time>2026-09-02T19:34:41Z</time></trkpt><trkpt lat="59.5583871379" lon="31.2693449948"><ele>235.18</ele><time>2026-09-02T19:34:42Z</time></trkpt><trkpt lat="59.5583830308" lon="31.2693451624"><ele>235.18</ele><time>2026-09-02T19:34:43Z</time></trkpt><trkpt lat="59.5583779179" lon="31.2693486828"><ele>235.18</ele><time>2026-09-02T19:34:44Z</time></trkpt><trkpt lat="59.5583724696" lon="31.2693531252"><ele>235.18</ele><time>2026-09-02T19:34:45Z</time></trkpt><trkpt lat="59.5583661832" lon="31.2693637703"><ele>234.70</ele><time>2026-09-02T19:34:46Z</time></trkpt><trkpt lat="59.5583589748" lon="31.2693760917"><ele>234.70</ele><time>2026-09-02T19:34:47Z</time></trkpt><trkpt lat="59.5583518501" lon="31.2693833839"><ele>234.70</ele><time>2026-09-02T19:34:48Z</time></trkpt><trkpt lat="59.5583456475" lon="31.2693919335"><ele>234.70</ele><time>2026-09-02T19:34:49Z</time></trkpt><trkpt lat="59.5583393611" lon="31.2693994772"><ele>234.70</ele><time>2026-09-02T19:34:50Z</time></trkpt><trkpt lat="59.5583342481" lon="31.2694081943"><ele>234.70</ele><time>2026-09-02T19:34:51Z</time></trkpt><trkpt lat="59.5583291352" lon="31.2694125529"><ele>234.70</ele><time>2026-09-02T19:34:52Z</time></trkpt><trkpt lat="59.5583225973" lon="31.2694141455"><ele>234.70</ele><time>2026-09-02T19:34:53Z</time></trkpt><trkpt lat="59.5583189931" lon="31.2694166601"><ele>234.70</ele><time>2026-09-02T19:34:54Z</time></trkpt><trkpt lat="59.5583132934" lon="31.2694189232"><ele>234.70</ele><time>2026-09-02T19:34:55Z</time></trkpt><trkpt lat="59.5583061688" lon="31.2694229465"><ele>234.70</ele><time>2026-09-02T19:34:56Z</time></trkpt><trkpt lat="59.5582991280" lon="31.2694268860"><ele>234.70</ele><time>2026-09-02T19:34:57Z</time></trkpt><trkpt lat="59.5582943503" lon="31.2694337592"><ele>234.70</ele><time>2026-09-02T19:34:58Z</time></trkpt><trkpt lat="59.5582879800" lon="31.2694417220"><ele>234.70</ele><time>2026-09-02T19:34:59Z</time></trkpt><trkpt lat="59.5582820289" lon="31.2694481760"><ele>234.70</ele><time>2026-09-02T19:35:00Z</time></trkpt><trkpt lat="59.5582770836" lon="31.2694532890"><ele>234.70</ele><time>2026-09-02T19:35:01Z</time></trkpt><trkpt lat="59.5582718868" lon="31.2694579829"><ele>234.70</ele><time>2026-09-02T19:35:02Z</time></trkpt><trkpt lat="59.5582674444" lon="31.2694634311"><ele>234.70</ele><time>2026-09-02T19:35:03Z</time></trkpt><trkpt lat="59.5582654327" lon="31.2694697175"><ele>234.70</ele><time>2026-09-02T19:35:04Z</time></trkpt><trkpt lat="59.5582656842" lon="31.2694779318"><ele>234.70</ele><time>2026-09-02T19:35:05Z</time></trkpt><trkpt lat="59.5582670253" lon="31.2694879901"><ele>234.70</ele><time>2026-09-02T19:35:06Z</time></trkpt><trkpt lat="59.5582683664" lon="31.2694987189"><ele>234.70</ele><time>2026-09-02T19:35:07Z</time></trkpt><trkpt lat="59.5582679473" lon="31.2695101183"><ele>234.70</ele><time>2026-09-02T19:35:08Z</time></trkpt><trkpt lat="59.5582616609" lon="31.2695245352"><ele>234.22</ele><time>2026-09-02T19:35:09Z</time></trkpt><trkpt lat="59.5582575537" lon="31.2695296481"><ele>234.22</ele><time>2026-09-02T19:35:10Z</time></trkpt><trkpt lat="59.5582564641" lon="31.2695382815"><ele>234.22</ele><time>2026-09-02T19:35:11Z</time></trkpt><trkpt lat="59.5582572185" lon="31.2695485912"><ele>234.22</ele><time>2026-09-02T19:35:12Z</time></trkpt><trkpt lat="59.5582577214" lon="31.2695577275"><ele>234.22</ele><time>2026-09-02T19:35:13Z</time></trkpt><trkpt lat="59.5582572185" lon="31.2695623375"><ele>234.22</ele><time>2026-09-02T19:35:14Z</time></trkpt><trkpt lat="59.5582566317" lon="31.2695695460"><ele>234.22</ele><time>2026-09-02T19:35:15Z</time></trkpt><trkpt lat="59.5582556259" lon="31.2695734855"><ele>233.74</ele><time>2026-09-02T19:35:16Z</time></trkpt><trkpt lat="59.5582556259" lon="31.2695734855"><ele>233.74</ele><time>2026-09-02T19:35:17Z</time></trkpt><trkpt lat="59.5582556259" lon="31.2695734855"><ele>233.74</ele><time>2026-09-02T19:35:18Z</time></trkpt><trkpt lat="59.5582556259" lon="31.2695734855"><ele>233.74</ele><time>2026-09-02T19:35:19Z</time></trkpt><trkpt lat="59.5582556259" lon="31.2695734855"><ele>233.74</ele><time>2026-09-02T19:35:20Z</time></trkpt><trkpt lat="59.5582556259" lon="31.2695734855"><ele>233.74</ele><time>2026-09-02T19:35:21Z</time></trkpt><trkpt lat="59.5582556259" lon="31.2695734855"><ele>233.74</ele><time>2026-09-02T19:35:22Z</time></trkpt><trkpt lat="59.5582556259" lon="31.2695734855"><ele>234.22</ele><time>2026-09-02T19:35:23Z</time></trkpt><trkpt lat="59.5582556259" lon="31.2695734855"><ele>234.22</ele><time>2026-09-02T19:35:24Z</time></trkpt><trkpt lat="59.5582556259" lon="31.2695734855"><ele>234.22</ele><time>2026-09-02T19:35:25Z</time></trkpt><trkpt lat="59.5582556259" lon="31.2695734855"><ele>234.22</ele><time>2026-09-02T19:35:26Z</time></trkpt><trkpt lat="59.5582556259" lon="31.2695734855"><ele>234.22</ele><time>2026-09-02T19:35:27Z</time></trkpt><trkpt lat="59.5582224336" lon="31.2696260400"><ele>234.22</ele><time>2026-09-02T19:35:28Z</time></trkpt><trkpt lat="59.5582186617" lon="31.2696323264"><ele>234.22</ele><time>2026-09-02T19:35:29Z</time></trkpt><trkpt lat="59.5582164824" lon="31.2696340866"><ele>234.22</ele><time>2026-09-02T19:35:30Z</time></trkpt><trkpt lat="59.5582141355" lon="31.2696365174"><ele>234.22</ele><time>2026-09-02T19:35:31Z</time></trkpt><trkpt lat="59.5582141355" lon="31.2696365174"><ele>234.22</ele><time>2026-09-02T19:35:32Z</time></trkpt><trkpt lat="59.5582141355" lon="31.2696365174"><ele>234.22</ele><time>2026-09-02T19:35:33Z</time></trkpt><trkpt lat="59.5582141355" lon="31.2696365174"><ele>234.22</ele><time>2026-09-02T19:35:34Z</time></trkpt><trkpt lat="59.5582141355" lon="31.2696365174"><ele>234.22</ele><time>2026-09-02T19:35:35Z</time></trkpt><trkpt lat="59.5582141355" lon="31.2696365174"><ele>234.22</ele><time>2026-09-02T19:35:36Z</time></trkpt><trkpt lat="59.5582141355" lon="31.2696365174"><ele>234.22</ele><time>2026-09-02T19:35:37Z</time></trkpt><trkpt lat="59.5582141355" lon="31.2696365174"><ele>234.22</ele><time>2026-09-02T19:35:38Z</time></trkpt><trkpt lat="59.5582141355" lon="31.2696365174"><ele>234.22</ele><time>2026-09-02T19:35:39Z</time></trkpt><trkpt lat="59.5582141355" lon="31.2696365174"><ele>234.22</ele><time>2026-09-02T19:35:40Z</time></trkpt><trkpt lat="59.5582141355" lon="31.2696365174"><ele>234.22</ele><time>2026-09-02T19:35:41Z</time></trkpt><trkpt lat="59.5582141355" lon="31.2696365174"><ele>234.22</ele><time>2026-09-02T19:35:42Z</time></trkpt><trkpt lat="59.5582141355" lon="31.2696365174"><ele>234.22</ele><time>2026-09-02T19:35:43Z</time></trkpt><trkpt lat="59.5582141355" lon="31.2696365174"><ele>234.22</ele><time>2026-09-02T19:35:44Z</time></trkpt><trkpt lat="59.5582141355" lon="31.2696365174"><ele>234.22</ele><time>2026-09-02T19:35:45Z</time></trkpt><trkpt lat="59.5582141355" lon="31.2696365174"><ele>234.22</ele><time>2026-09-02T19:35:46Z</time></trkpt><trkpt lat="59.5582141355" lon="31.2696365174"><ele>234.22</ele><time>2026-09-02T19:35:47Z</time></trkpt><trkpt lat="59.5582141355" lon="31.2696365174"><ele>234.22</ele><time>2026-09-02T19:35:48Z</time></trkpt><trkpt lat="59.5582141355" lon="31.2696365174"><ele>234.22</ele><time>2026-09-02T19:35:49Z</time></trkpt><trkpt lat="59.5582141355" lon="31.2696365174"><ele>234.22</ele><time>2026-09-02T19:35:50Z</time></trkpt><trkpt lat="59.5582141355" lon="31.2696365174"><ele>234.22</ele><time>2026-09-02T19:35:51Z</time></trkpt><trkpt lat="59.5582141355" lon="31.2696365174"><ele>234.22</ele><time>2026-09-02T19:35:52Z</time></trkpt><trkpt lat="59.5582141355" lon="31.2696365174"><ele>234.22</ele><time>2026-09-02T19:35:53Z</time></trkpt><trkpt lat="59.5582141355" lon="31.2696365174"><ele>234.22</ele><time>2026-09-02T19:35:54Z</time></trkpt><trkpt lat="59.5582141355" lon="31.2696365174"><ele>234.22</ele><time>2026-09-02T19:35:55Z</time></trkpt><trkpt lat="59.5582141355" lon="31.2696365174"><ele>234.22</ele><time>2026-09-02T19:35:56Z</time></trkpt><trkpt lat="59.5582141355" lon="31.2696365174"><ele>234.22</ele><time>2026-09-02T19:35:57Z</time></trkpt><trkpt lat="59.5582141355" lon="31.2696365174"><ele>234.22</ele><time>2026-09-02T19:35:58Z</time></trkpt><trkpt lat="59.5582141355" lon="31.2696365174"><ele>234.22</ele><time>2026-09-02T19:35:59Z</time></trkpt><trkpt lat="59.5582141355" lon="31.2696365174"><ele>234.22</ele><time>2026-09-02T19:36:00Z</time></trkpt><trkpt lat="59.5582141355" lon="31.2696365174"><ele>234.22</ele><time>2026-09-02T19:36:01Z</time></trkpt><trkpt lat="59.5582141355" lon="31.2696365174"><ele>234.22</ele><time>2026-09-02T19:36:02Z</time></trkpt><trkpt lat="59.5582141355" lon="31.2696365174"><ele>234.22</ele><time>2026-09-02T19:36:03Z</time></trkpt><trkpt lat="59.5582141355" lon="31.2696365174"><ele>234.22</ele><time>2026-09-02T19:36:04Z</time></trkpt><trkpt lat="59.5582141355" lon="31.2696365174"><ele>234.22</ele><time>2026-09-02T19:36:05Z</time></trkpt><trkpt lat="59.5582141355" lon="31.2696365174"><ele>234.22</ele><time>2026-09-02T19:36:06Z</time></trkpt><trkpt lat="59.5582141355" lon="31.2696365174"><ele>234.22</ele><time>2026-09-02T19:36:07Z</time></trkpt><trkpt lat="59.5582141355" lon="31.2696365174"><ele>234.22</ele><time>2026-09-02T19:36:08Z</time></trkpt><trkpt lat="59.5582141355" lon="31.2696365174"><ele>234.22</ele><time>2026-09-02T19:36:09Z</time></trkpt><trkpt lat="59.5582141355" lon="31.2696365174"><ele>234.22</ele><time>2026-09-02T19:36:10Z</time></trkpt><trkpt lat="59.5582080167" lon="31.2696965318"><ele>234.22</ele><time>2026-09-02T19:36:11Z</time></trkpt><trkpt lat="59.5582066756" lon="31.2697058357"><ele>234.22</ele><time>2026-09-02T19:36:12Z</time></trkpt><trkpt lat="59.5582066756" lon="31.2697181571"><ele>234.22</ele><time>2026-09-02T19:36:13Z</time></trkpt><trkpt lat="59.5582073461" lon="31.2697266228"><ele>234.22</ele><time>2026-09-02T19:36:14Z</time></trkpt><trkpt lat="59.5582032390" lon="31.2697448954"><ele>234.22</ele><time>2026-09-02T19:36:15Z</time></trkpt><trkpt lat="59.5582007244" lon="31.2697554566"><ele>234.22</ele><time>2026-09-02T19:36:16Z</time></trkpt><trkpt lat="59.5581991319" lon="31.2697701249"><ele>234.22</ele><time>2026-09-02T19:36:17Z</time></trkpt><trkpt lat="59.5581973717" lon="31.2697826978"><ele>234.22</ele><time>2026-09-02T19:36:18Z</time></trkpt><trkpt lat="59.5581936836" lon="31.2697996292"><ele>234.22</ele><time>2026-09-02T19:36:19Z</time></trkpt><trkpt lat="59.5581933483" lon="31.2698139623"><ele>233.74</ele><time>2026-09-02T19:36:20Z</time></trkpt><trkpt lat="59.5581915881" lon="31.2698272895"><ele>233.74</ele><time>2026-09-02T19:36:21Z</time></trkpt><trkpt lat="59.5581913367" lon="31.2698443886"><ele>233.74</ele><time>2026-09-02T19:36:22Z</time></trkpt><trkpt lat="59.5581918396" lon="31.2698604818"><ele>233.74</ele><time>2026-09-02T19:36:23Z</time></trkpt><trkpt lat="59.5581903309" lon="31.2698712945"><ele>233.74</ele><time>2026-09-02T19:36:24Z</time></trkpt><trkpt lat="59.5581899956" lon="31.2698793411"><ele>233.74</ele><time>2026-09-02T19:36:25Z</time></trkpt><trkpt lat="59.5581844635" lon="31.2698864657"><ele>233.74</ele><time>2026-09-02T19:36:26Z</time></trkpt><trkpt lat="59.5581824519" lon="31.2698952667"><ele>233.74</ele><time>2026-09-02T19:36:27Z</time></trkpt><trkpt lat="59.5581824519" lon="31.2698952667"><ele>233.74</ele><time>2026-09-02T19:36:28Z</time></trkpt><trkpt lat="59.5581824519" lon="31.2698952667"><ele>233.74</ele><time>2026-09-02T19:36:29Z</time></trkpt><trkpt lat="59.5581774227" lon="31.2699347455"><ele>233.74</ele><time>2026-09-02T19:36:30Z</time></trkpt><trkpt lat="59.5581765845" lon="31.2699444685"><ele>233.74</ele><time>2026-09-02T19:36:31Z</time></trkpt><trkpt lat="59.5581766684" lon="31.2699504197"><ele>233.74</ele><time>2026-09-02T19:36:32Z</time></trkpt><trkpt lat="59.5581759978" lon="31.2699570414"><ele>233.74</ele><time>2026-09-02T19:36:33Z</time></trkpt><trkpt lat="59.5581758302" lon="31.2699566223"><ele>233.74</ele><time>2026-09-02T19:36:34Z</time></trkpt><trkpt lat="59.5581758302" lon="31.2699566223"><ele>233.74</ele><time>2026-09-02T19:36:35Z</time></trkpt><trkpt lat="59.5581758302" lon="31.2699566223"><ele>233.74</ele><time>2026-09-02T19:36:36Z</time></trkpt><trkpt lat="59.5581758302" lon="31.2699566223"><ele>233.74</ele><time>2026-09-02T19:36:37Z</time></trkpt><trkpt lat="59.5581758302" lon="31.2699566223"><ele>233.74</ele><time>2026-09-02T19:36:38Z</time></trkpt><trkpt lat="59.5581758302" lon="31.2699566223"><ele>233.74</ele><time>2026-09-02T19:36:39Z</time></trkpt><trkpt lat="59.5581758302" lon="31.2699566223"><ele>233.74</ele><time>2026-09-02T19:36:40Z</time></trkpt><trkpt lat="59.5581758302" lon="31.2699566223"><ele>233.74</ele><time>2026-09-02T19:36:41Z</time></trkpt><trkpt lat="59.5581758302" lon="31.2699566223"><ele>233.74</ele><time>2026-09-02T19:36:42Z</time></trkpt><trkpt lat="59.5581758302" lon="31.2699566223"><ele>233.74</ele><time>2026-09-02T19:36:43Z</time></trkpt><trkpt lat="59.5581758302" lon="31.2699566223"><ele>233.74</ele><time>2026-09-02T19:36:44Z</time></trkpt><trkpt lat="59.5581758302" lon="31.2699566223"><ele>233.74</ele><time>2026-09-02T19:36:45Z</time></trkpt><trkpt lat="59.5581758302" lon="31.2699566223"><ele>233.74</ele><time>2026-09-02T19:36:46Z</time></trkpt><trkpt lat="59.5581758302" lon="31.2699566223"><ele>233.74</ele><time>2026-09-02T19:36:47Z</time></trkpt><trkpt lat="59.5581758302" lon="31.2699566223"><ele>233.74</ele><time>2026-09-02T19:36:48Z</time></trkpt><trkpt lat="59.5581758302" lon="31.2699566223"><ele>233.74</ele><time>2026-09-02T19:36:49Z</time></trkpt><trkpt lat="59.5581758302" lon="31.2699566223"><ele>233.74</ele><time>2026-09-02T19:36:50Z</time></trkpt><trkpt lat="59.5581758302" lon="31.2699566223"><ele>233.74</ele><time>2026-09-02T19:36:51Z</time></trkpt><trkpt lat="59.5581758302" lon="31.2699566223"><ele>233.74</ele><time>2026-09-02T19:36:52Z</time></trkpt><trkpt lat="59.5581758302" lon="31.2699566223"><ele>233.74</ele><time>2026-09-02T19:36:53Z</time></trkpt><trkpt lat="59.5581758302" lon="31.2699566223"><ele>233.74</ele><time>2026-09-02T19:36:54Z</time></trkpt><trkpt lat="59.5581758302" lon="31.2699566223"><ele>233.74</ele><time>2026-09-02T19:36:55Z</time></trkpt><trkpt lat="59.5581758302" lon="31.2699566223"><ele>233.74</ele><time>2026-09-02T19:36:56Z</time></trkpt><trkpt lat="59.5581758302" lon="31.2699566223"><ele>233.74</ele><time>2026-09-02T19:36:57Z</time></trkpt><trkpt lat="59.5581758302" lon="31.2699566223"><ele>233.74</ele><time>2026-09-02T19:36:58Z</time></trkpt><trkpt lat="59.5581758302" lon="31.2699566223"><ele>233.74</ele><time>2026-09-02T19:36:59Z</time></trkpt><trkpt lat="59.5581758302" lon="31.2699566223"><ele>233.74</ele><time>2026-09-02T19:37:00Z</time></trkpt><trkpt lat="59.5581758302" lon="31.2699566223"><ele>233.74</ele><time>2026-09-02T19:37:01Z</time></trkpt><trkpt lat="59.5581758302" lon="31.2699566223"><ele>233.74</ele><time>2026-09-02T19:37:02Z</time></trkpt><trkpt lat="59.5581758302" lon="31.2699566223"><ele>233.74</ele><time>2026-09-02T19:37:03Z</time></trkpt><trkpt lat="59.5581758302" lon="31.2699566223"><ele>233.74</ele><time>2026-09-02T19:37:04Z</time></trkpt><trkpt lat="59.5581758302" lon="31.2699566223"><ele>233.74</ele><time>2026-09-02T19:37:05Z</time></trkpt><trkpt lat="59.5581758302" lon="31.2699566223"><ele>233.74</ele><time>2026-09-02T19:37:06Z</time></trkpt><trkpt lat="59.5581758302" lon="31.2699566223"><ele>233.74</ele><time>2026-09-02T19:37:07Z</time></trkpt><trkpt lat="59.5581758302" lon="31.2699566223"><ele>233.74</ele><time>2026-09-02T19:37:08Z</time></trkpt><trkpt lat="59.5581581444" lon="31.2699855398"><ele>233.74</ele><time>2026-09-02T19:37:09Z</time></trkpt><trkpt lat="59.5581544563" lon="31.2699933350"><ele>233.74</ele><time>2026-09-02T19:37:10Z</time></trkpt><trkpt lat="59.5581518579" lon="31.2699997891"><ele>233.74</ele><time>2026-09-02T19:37:11Z</time></trkpt><trkpt lat="59.5581511874" lon="31.2700047344"><ele>233.74</ele><time>2026-09-02T19:37:12Z</time></trkpt><trkpt lat="59.5581511874" lon="31.2700088415"><ele>233.74</ele><time>2026-09-02T19:37:13Z</time></trkpt><trkpt lat="59.5581517741" lon="31.2700134516"><ele>233.74</ele><time>2026-09-02T19:37:14Z</time></trkpt><trkpt lat="59.5581517741" lon="31.2700134516"><ele>233.74</ele><time>2026-09-02T19:37:15Z</time></trkpt><trkpt lat="59.5581517741" lon="31.2700134516"><ele>233.74</ele><time>2026-09-02T19:37:16Z</time></trkpt><trkpt lat="59.5581517741" lon="31.2700134516"><ele>233.74</ele><time>2026-09-02T19:37:17Z</time></trkpt><trkpt lat="59.5581517741" lon="31.2700134516"><ele>233.74</ele><time>2026-09-02T19:37:18Z</time></trkpt><trkpt lat="59.5581517741" lon="31.2700134516"><ele>233.74</ele><time>2026-09-02T19:37:19Z</time></trkpt><trkpt lat="59.5581517741" lon="31.2700134516"><ele>233.74</ele><time>2026-09-02T19:37:20Z</time></trkpt><trkpt lat="59.5581517741" lon="31.2700134516"><ele>233.74</ele><time>2026-09-02T19:37:21Z</time></trkpt><trkpt lat="59.5581517741" lon="31.2700134516"><ele>233.74</ele><time>2026-09-02T19:37:22Z</time></trkpt><trkpt lat="59.5581517741" lon="31.2700134516"><ele>233.74</ele><time>2026-09-02T19:37:23Z</time></trkpt><trkpt lat="59.5581517741" lon="31.2700134516"><ele>233.74</ele><time>2026-09-02T19:37:24Z</time></trkpt><trkpt lat="59.5581517741" lon="31.2700134516"><ele>233.74</ele><time>2026-09-02T19:37:25Z</time></trkpt><trkpt lat="59.5581517741" lon="31.2700134516"><ele>233.74</ele><time>2026-09-02T19:37:26Z</time></trkpt><trkpt lat="59.5581517741" lon="31.2700134516"><ele>233.74</ele><time>2026-09-02T19:37:27Z</time></trkpt><trkpt lat="59.5581517741" lon="31.2700134516"><ele>233.74</ele><time>2026-09-02T19:37:28Z</time></trkpt><trkpt lat="59.5581517741" lon="31.2700134516"><ele>233.74</ele><time>2026-09-02T19:37:29Z</time></trkpt><trkpt lat="59.5581517741" lon="31.2700134516"><ele>233.74</ele><time>2026-09-02T19:37:30Z</time></trkpt><trkpt lat="59.5581517741" lon="31.2700134516"><ele>233.74</ele><time>2026-09-02T19:37:31Z</time></trkpt><trkpt lat="59.5581517741" lon="31.2700134516"><ele>233.74</ele><time>2026-09-02T19:37:32Z</time></trkpt><trkpt lat="59.5581517741" lon="31.2700134516"><ele>233.74</ele><time>2026-09-02T19:37:33Z</time></trkpt><trkpt lat="59.5581517741" lon="31.2700134516"><ele>233.74</ele><time>2026-09-02T19:37:34Z</time></trkpt><trkpt lat="59.5581517741" lon="31.2700134516"><ele>233.74</ele><time>2026-09-02T19:37:35Z</time></trkpt><trkpt lat="59.5581517741" lon="31.2700134516"><ele>233.74</ele><time>2026-09-02T19:37:36Z</time></trkpt><trkpt lat="59.5581517741" lon="31.2700134516"><ele>233.74</ele><time>2026-09-02T19:37:37Z</time></trkpt><trkpt lat="59.5581517741" lon="31.2700134516"><ele>233.74</ele><time>2026-09-02T19:37:38Z</time></trkpt><trkpt lat="59.5581517741" lon="31.2700134516"><ele>233.74</ele><time>2026-09-02T19:37:39Z</time></trkpt><trkpt lat="59.5581517741" lon="31.2700134516"><ele>233.74</ele><time>2026-09-02T19:37:40Z</time></trkpt><trkpt lat="59.5581517741" lon="31.2700134516"><ele>233.74</ele><time>2026-09-02T19:37:41Z</time></trkpt><trkpt lat="59.5581517741" lon="31.2700134516"><ele>233.74</ele><time>2026-09-02T19:37:42Z</time></trkpt><trkpt lat="59.5581517741" lon="31.2700134516"><ele>233.74</ele><time>2026-09-02T19:37:43Z</time></trkpt><trkpt lat="59.5581517741" lon="31.2700134516"><ele>233.74</ele><time>2026-09-02T19:37:44Z</time></trkpt><trkpt lat="59.5581517741" lon="31.2700134516"><ele>233.74</ele><time>2026-09-02T19:37:45Z</time></trkpt><trkpt lat="59.5581517741" lon="31.2700134516"><ele>233.74</ele><time>2026-09-02T19:37:46Z</time></trkpt><trkpt lat="59.5581517741" lon="31.2700134516"><ele>233.74</ele><time>2026-09-02T19:37:47Z</time></trkpt><trkpt lat="59.5581517741" lon="31.2700134516"><ele>233.74</ele><time>2026-09-02T19:37:48Z</time></trkpt><trkpt lat="59.5581517741" lon="31.2700134516"><ele>233.74</ele><time>2026-09-02T19:37:49Z</time></trkpt><trkpt lat="59.5581517741" lon="31.2700134516"><ele>233.74</ele><time>2026-09-02T19:37:50Z</time></trkpt><trkpt lat="59.5581517741" lon="31.2700134516"><ele>233.74</ele><time>2026-09-02T19:37:51Z</time></trkpt><trkpt lat="59.5581517741" lon="31.2700134516"><ele>233.74</ele><time>2026-09-02T19:37:52Z</time></trkpt><trkpt lat="59.5581517741" lon="31.2700134516"><ele>233.74</ele><time>2026-09-02T19:37:53Z</time></trkpt><trkpt lat="59.5581517741" lon="31.2700134516"><ele>233.74</ele><time>2026-09-02T19:37:54Z</time></trkpt><trkpt lat="59.5581517741" lon="31.2700134516"><ele>233.74</ele><time>2026-09-02T19:37:55Z</time></trkpt><trkpt lat="59.5581517741" lon="31.2700134516"><ele>233.74</ele><time>2026-09-02T19:37:56Z</time></trkpt><trkpt lat="59.5581517741" lon="31.2700134516"><ele>233.74</ele><time>2026-09-02T19:37:57Z</time></trkpt><trkpt lat="59.5581517741" lon="31.2700134516"><ele>233.74</ele><time>2026-09-02T19:37:58Z</time></trkpt><trkpt lat="59.5581517741" lon="31.2700134516"><ele>233.74</ele><time>2026-09-02T19:37:59Z</time></trkpt><trkpt lat="59.5581517741" lon="31.2700134516"><ele>233.74</ele><time>2026-09-02T19:38:00Z</time></trkpt><trkpt lat="59.5581517741" lon="31.2700134516"><ele>233.74</ele><time>2026-09-02T19:38:01Z</time></trkpt><trkpt lat="59.5581517741" lon="31.2700134516"><ele>233.74</ele><time>2026-09-02T19:38:02Z</time></trkpt><trkpt lat="59.5581517741" lon="31.2700134516"><ele>233.74</ele><time>2026-09-02T19:38:03Z</time></trkpt><trkpt lat="59.5581517741" lon="31.2700134516"><ele>233.74</ele><time>2026-09-02T19:38:04Z</time></trkpt><trkpt lat="59.5581517741" lon="31.2700134516"><ele>233.74</ele><time>2026-09-02T19:38:05Z</time></trkpt><trkpt lat="59.5581517741" lon="31.2700134516"><ele>233.74</ele><time>2026-09-02T19:38:06Z</time></trkpt><trkpt lat="59.5581517741" lon="31.2700134516"><ele>233.74</ele><time>2026-09-02T19:38:07Z</time></trkpt><trkpt lat="59.5581517741" lon="31.2700134516"><ele>233.74</ele><time>2026-09-02T19:38:08Z</time></trkpt><trkpt lat="59.5581517741" lon="31.2700134516"><ele>233.74</ele><time>2026-09-02T19:38:09Z</time></trkpt><trkpt lat="59.5581517741" lon="31.2700134516"><ele>233.74</ele><time>2026-09-02T19:38:10Z</time></trkpt><trkpt lat="59.5581517741" lon="31.2700134516"><ele>233.74</ele><time>2026-09-02T19:38:11Z</time></trkpt><trkpt lat="59.5581517741" lon="31.2700134516"><ele>233.74</ele><time>2026-09-02T19:38:12Z</time></trkpt><trkpt lat="59.5581517741" lon="31.2700134516"><ele>233.74</ele><time>2026-09-02T19:38:13Z</time></trkpt><trkpt lat="59.5581517741" lon="31.2700134516"><ele>233.74</ele><time>2026-09-02T19:38:14Z</time></trkpt><trkpt lat="59.5581517741" lon="31.2700134516"><ele>233.74</ele><time>2026-09-02T19:38:15Z</time></trkpt><trkpt lat="59.5581517741" lon="31.2700134516"><ele>233.74</ele><time>2026-09-02T19:38:16Z</time></trkpt><trkpt lat="59.5581517741" lon="31.2700134516"><ele>233.74</ele><time>2026-09-02T19:38:17Z</time></trkpt><trkpt lat="59.5581517741" lon="31.2700134516"><ele>233.74</ele><time>2026-09-02T19:38:18Z</time></trkpt><trkpt lat="59.5581517741" lon="31.2700134516"><ele>233.74</ele><time>2026-09-02T19:38:19Z</time></trkpt><trkpt lat="59.5581517741" lon="31.2700134516"><ele>233.74</ele><time>2026-09-02T19:38:20Z</time></trkpt><trkpt lat="59.5581517741" lon="31.2700134516"><ele>233.74</ele><time>2026-09-02T19:38:21Z</time></trkpt><trkpt lat="59.5580842998" lon="31.2700465601"><ele>233.74</ele><time>2026-09-02T19:38:22Z</time></trkpt><trkpt lat="59.5580791868" lon="31.2700452190"><ele>233.74</ele><time>2026-09-02T19:38:23Z</time></trkpt><trkpt lat="59.5580744930" lon="31.2700552773"><ele>233.74</ele><time>2026-09-02T19:38:24Z</time></trkpt><trkpt lat="59.5580682904" lon="31.2700448837"><ele>233.74</ele><time>2026-09-02T19:38:25Z</time></trkpt><trkpt lat="59.5580601599" lon="31.2700407766"><ele>233.74</ele><time>2026-09-02T19:38:26Z</time></trkpt><trkpt lat="59.5580532867" lon="31.2700461410"><ele>233.74</ele><time>2026-09-02T19:38:27Z</time></trkpt><trkpt lat="59.5580497663" lon="31.2700505834"><ele>233.74</ele><time>2026-09-02T19:38:28Z</time></trkpt><trkpt lat="59.5580450725" lon="31.2700512540"><ele>233.74</ele><time>2026-09-02T19:38:29Z</time></trkpt><trkpt lat="59.5580418874" lon="31.2700524274"><ele>233.74</ele><time>2026-09-02T19:38:30Z</time></trkpt><trkpt lat="59.5580418874" lon="31.2700524274"><ele>233.74</ele><time>2026-09-02T19:38:31Z</time></trkpt><trkpt lat="59.5580324996" lon="31.2700590491"><ele>233.74</ele><time>2026-09-02T19:38:32Z</time></trkpt><trkpt lat="59.5580296498" lon="31.2700591329"><ele>233.74</ele><time>2026-09-02T19:38:33Z</time></trkpt><trkpt lat="59.5580278896" lon="31.2700627372"><ele>233.74</ele><time>2026-09-02T19:38:34Z</time></trkpt><trkpt lat="59.5580277219" lon="31.2700670958"><ele>233.74</ele><time>2026-09-02T19:38:35Z</time></trkpt><trkpt lat="59.5580277219" lon="31.2700670958"><ele>233.74</ele><time>2026-09-02T19:38:36Z</time></trkpt><trkpt lat="59.5580288954" lon="31.2700714543"><ele>233.74</ele><time>2026-09-02T19:38:37Z</time></trkpt><trkpt lat="59.5580295660" lon="31.2700797524"><ele>233.74</ele><time>2026-09-02T19:38:38Z</time></trkpt><trkpt lat="59.5580305718" lon="31.2700876314"><ele>233.74</ele><time>2026-09-02T19:38:39Z</time></trkpt><trkpt lat="59.5580325834" lon="31.2700961810"><ele>233.74</ele><time>2026-09-02T19:38:40Z</time></trkpt><trkpt lat="59.5580305718" lon="31.2700987794"><ele>233.74</ele><time>2026-09-02T19:38:41Z</time></trkpt><trkpt lat="59.5580312423" lon="31.2701012939"><ele>233.74</ele><time>2026-09-02T19:38:42Z</time></trkpt><trkpt lat="59.5580333378" lon="31.2701072451"><ele>233.74</ele><time>2026-09-02T19:38:43Z</time></trkpt><trkpt lat="59.5580333378" lon="31.2701072451"><ele>233.74</ele><time>2026-09-02T19:38:44Z</time></trkpt><trkpt lat="59.5580414683" lon="31.2701273616"><ele>233.26</ele><time>2026-09-02T19:38:45Z</time></trkpt><trkpt lat="59.5580429770" lon="31.2701358274"><ele>233.26</ele><time>2026-09-02T19:38:46Z</time></trkpt><trkpt lat="59.5580426417" lon="31.2701402698"><ele>233.26</ele><time>2026-09-02T19:38:47Z</time></trkpt><trkpt lat="59.5580418874" lon="31.2701456342"><ele>233.26</ele><time>2026-09-02T19:38:48Z</time></trkpt><trkpt lat="59.5580396242" lon="31.2701507472"><ele>233.26</ele><time>2026-09-02T19:38:49Z</time></trkpt><trkpt lat="59.5580396242" lon="31.2701507472"><ele>233.26</ele><time>2026-09-02T19:38:50Z</time></trkpt><trkpt lat="59.5580396242" lon="31.2701507472"><ele>233.26</ele><time>2026-09-02T19:38:51Z</time></trkpt><trkpt lat="59.5580363553" lon="31.2701751385"><ele>233.26</ele><time>2026-09-02T19:38:52Z</time></trkpt><trkpt lat="59.5580361877" lon="31.2701835204"><ele>233.26</ele><time>2026-09-02T19:38:53Z</time></trkpt><trkpt lat="59.5580346789" lon="31.2701905612"><ele>233.26</ele><time>2026-09-02T19:38:54Z</time></trkpt><trkpt lat="59.5580333378" lon="31.2701973505"><ele>233.26</ele><time>2026-09-02T19:38:55Z</time></trkpt><trkpt lat="59.5580325834" lon="31.2702025473"><ele>233.26</ele><time>2026-09-02T19:38:56Z</time></trkpt><trkpt lat="59.5580295660" lon="31.2702107616"><ele>233.26</ele><time>2026-09-02T19:38:57Z</time></trkpt><trkpt lat="59.5580295660" lon="31.2702107616"><ele>233.26</ele><time>2026-09-02T19:38:58Z</time></trkpt><trkpt lat="59.5580186695" lon="31.2702364940"><ele>233.26</ele><time>2026-09-02T19:38:59Z</time></trkpt><trkpt lat="59.5580137242" lon="31.2702391762"><ele>233.26</ele><time>2026-09-02T19:39:00Z</time></trkpt><trkpt lat="59.5580090303" lon="31.2702482287"><ele>233.26</ele><time>2026-09-02T19:39:01Z</time></trkpt><trkpt lat="59.5580023248" lon="31.2702571973"><ele>233.26</ele><time>2026-09-02T19:39:02Z</time></trkpt><trkpt lat="59.5579969604" lon="31.2702678423"><ele>233.26</ele><time>2026-09-02T19:39:03Z</time></trkpt><trkpt lat="59.5579934400" lon="31.2702798285"><ele>233.26</ele><time>2026-09-02T19:39:04Z</time></trkpt><trkpt lat="59.5579918474" lon="31.2702897191"><ele>233.26</ele><time>2026-09-02T19:39:05Z</time></trkpt><trkpt lat="59.5579911768" lon="31.2702932395"><ele>233.26</ele><time>2026-09-02T19:39:06Z</time></trkpt><trkpt lat="59.5579900872" lon="31.2702978496"><ele>233.26</ele><time>2026-09-02T19:39:07Z</time></trkpt><trkpt lat="59.5579883270" lon="31.2703003641"><ele>233.26</ele><time>2026-09-02T19:39:08Z</time></trkpt><trkpt lat="59.5579865668" lon="31.2703022920"><ele>233.26</ele><time>2026-09-02T19:39:09Z</time></trkpt><trkpt lat="59.5579865668" lon="31.2703022920"><ele>233.26</ele><time>2026-09-02T19:39:10Z</time></trkpt><trkpt lat="59.5579865668" lon="31.2703022920"><ele>233.26</ele><time>2026-09-02T19:39:11Z</time></trkpt><trkpt lat="59.5579865668" lon="31.2703022920"><ele>233.26</ele><time>2026-09-02T19:39:12Z</time></trkpt><trkpt lat="59.5579865668" lon="31.2703022920"><ele>233.26</ele><time>2026-09-02T19:39:13Z</time></trkpt><trkpt lat="59.5579865668" lon="31.2703022920"><ele>233.26</ele><time>2026-09-02T19:39:14Z</time></trkpt><trkpt lat="59.5579865668" lon="31.2703022920"><ele>233.26</ele><time>2026-09-02T19:39:15Z</time></trkpt><trkpt lat="59.5579865668" lon="31.2703022920"><ele>233.26</ele><time>2026-09-02T19:39:16Z</time></trkpt><trkpt lat="59.5579865668" lon="31.2703022920"><ele>233.26</ele><time>2026-09-02T19:39:17Z</time></trkpt><trkpt lat="59.5579865668" lon="31.2703022920"><ele>233.26</ele><time>2026-09-02T19:39:18Z</time></trkpt><trkpt lat="59.5579865668" lon="31.2703022920"><ele>233.26</ele><time>2026-09-02T19:39:19Z</time></trkpt><trkpt lat="59.5579668693" lon="31.2703222409"><ele>233.26</ele><time>2026-09-02T19:39:20Z</time></trkpt><trkpt lat="59.5579621755" lon="31.2703261804"><ele>233.26</ele><time>2026-09-02T19:39:21Z</time></trkpt><trkpt lat="59.5579577330" lon="31.2703333888"><ele>233.26</ele><time>2026-09-02T19:39:22Z</time></trkpt><trkpt lat="59.5579521172" lon="31.2703413516"><ele>233.26</ele><time>2026-09-02T19:39:23Z</time></trkpt><trkpt lat="59.5579465851" lon="31.2703444529"><ele>233.26</ele><time>2026-09-02T19:39:24Z</time></trkpt><trkpt lat="59.5579398796" lon="31.2703494821"><ele>233.26</ele><time>2026-09-02T19:39:25Z</time></trkpt><trkpt lat="59.5579312462" lon="31.2703535892"><ele>233.26</ele><time>2026-09-02T19:39:26Z</time></trkpt><trkpt lat="59.5579233672" lon="31.2703571934"><ele>233.26</ele><time>2026-09-02T19:39:27Z</time></trkpt><trkpt lat="59.5579150692" lon="31.2703556847"><ele>233.26</ele><time>2026-09-02T19:39:28Z</time></trkpt><trkpt lat="59.5579067711" lon="31.2703566905"><ele>233.26</ele><time>2026-09-02T19:39:29Z</time></trkpt><trkpt lat="59.5578998979" lon="31.2703544274"><ele>233.26</ele><time>2026-09-02T19:39:30Z</time></trkpt><trkpt lat="59.5578933600" lon="31.2703535892"><ele>233.26</ele><time>2026-09-02T19:39:31Z</time></trkpt><trkpt lat="59.5578875765" lon="31.2703507394"><ele>233.26</ele><time>2026-09-02T19:39:32Z</time></trkpt><trkpt lat="59.5578822959" lon="31.2703499850"><ele>233.26</ele><time>2026-09-02T19:39:33Z</time></trkpt><trkpt lat="59.5578767639" lon="31.2703455426"><ele>233.26</ele><time>2026-09-02T19:39:34Z</time></trkpt><trkpt lat="59.5578728244" lon="31.2703423575"><ele>233.26</ele><time>2026-09-02T19:39:35Z</time></trkpt><trkpt lat="59.5578683820" lon="31.2703372445"><ele>233.26</ele><time>2026-09-02T19:39:36Z</time></trkpt><trkpt lat="59.5578611735" lon="31.2703315448"><ele>233.26</ele><time>2026-09-02T19:39:37Z</time></trkpt><trkpt lat="59.5578548871" lon="31.2703255937"><ele>233.26</ele><time>2026-09-02T19:39:38Z</time></trkpt><trkpt lat="59.5578492712" lon="31.2703247555"><ele>233.26</ele><time>2026-09-02T19:39:39Z</time></trkpt><trkpt lat="59.5578432363" lon="31.2703247555"><ele>233.26</ele><time>2026-09-02T19:39:40Z</time></trkpt><trkpt lat="59.5578393806" lon="31.2703241687"><ele>233.26</ele><time>2026-09-02T19:39:41Z</time></trkpt><trkpt lat="59.5578341000" lon="31.2703219894"><ele>233.26</ele><time>2026-09-02T19:39:42Z</time></trkpt><trkpt lat="59.5578280650" lon="31.2703237496"><ele>233.26</ele><time>2026-09-02T19:39:43Z</time></trkpt><trkpt lat="59.5578202698" lon="31.2703271862"><ele>233.26</ele><time>2026-09-02T19:39:44Z</time></trkpt><trkpt lat="59.5578160789" lon="31.2703284435"><ele>233.26</ele><time>2026-09-02T19:39:45Z</time></trkpt><trkpt lat="59.5578109659" lon="31.2703271862"><ele>233.26</ele><time>2026-09-02T19:39:46Z</time></trkpt><trkpt lat="59.5578042604" lon="31.2703258451"><ele>233.26</ele><time>2026-09-02T19:39:47Z</time></trkpt><trkpt lat="59.5578008238" lon="31.2703271862"><ele>233.26</ele><time>2026-09-02T19:39:48Z</time></trkpt><trkpt lat="59.5577970520" lon="31.2703255937"><ele>233.26</ele><time>2026-09-02T19:39:49Z</time></trkpt><trkpt lat="59.5577924419" lon="31.2703265995"><ele>233.26</ele><time>2026-09-02T19:39:50Z</time></trkpt><trkpt lat="59.5577924419" lon="31.2703265995"><ele>233.26</ele><time>2026-09-02T19:39:51Z</time></trkpt><trkpt lat="59.5577924419" lon="31.2703265995"><ele>233.26</ele><time>2026-09-02T19:39:52Z</time></trkpt><trkpt lat="59.5577924419" lon="31.2703265995"><ele>233.26</ele><time>2026-09-02T19:39:53Z</time></trkpt><trkpt lat="59.5577924419" lon="31.2703265995"><ele>233.26</ele><time>2026-09-02T19:39:54Z</time></trkpt><trkpt lat="59.5577924419" lon="31.2703265995"><ele>233.26</ele><time>2026-09-02T19:39:55Z</time></trkpt><trkpt lat="59.5577924419" lon="31.2703265995"><ele>233.26</ele><time>2026-09-02T19:39:56Z</time></trkpt><trkpt lat="59.5577924419" lon="31.2703265995"><ele>233.26</ele><time>2026-09-02T19:39:57Z</time></trkpt><trkpt lat="59.5577924419" lon="31.2703265995"><ele>233.26</ele><time>2026-09-02T19:39:58Z</time></trkpt><trkpt lat="59.5577924419" lon="31.2703265995"><ele>233.26</ele><time>2026-09-02T19:39:59Z</time></trkpt><trkpt lat="59.5577924419" lon="31.2703265995"><ele>233.26</ele><time>2026-09-02T19:40:00Z</time></trkpt><trkpt lat="59.5577924419" lon="31.2703265995"><ele>233.26</ele><time>2026-09-02T19:40:01Z</time></trkpt><trkpt lat="59.5577924419" lon="31.2703265995"><ele>233.26</ele><time>2026-09-02T19:40:02Z</time></trkpt><trkpt lat="59.5577924419" lon="31.2703265995"><ele>233.26</ele><time>2026-09-02T19:40:03Z</time></trkpt><trkpt lat="59.5577924419" lon="31.2703265995"><ele>233.26</ele><time>2026-09-02T19:40:04Z</time></trkpt><trkpt lat="59.5577924419" lon="31.2703265995"><ele>233.26</ele><time>2026-09-02T19:40:05Z</time></trkpt><trkpt lat="59.5577924419" lon="31.2703265995"><ele>233.26</ele><time>2026-09-02T19:40:06Z</time></trkpt><trkpt lat="59.5577924419" lon="31.2703265995"><ele>233.26</ele><time>2026-09-02T19:40:07Z</time></trkpt><trkpt lat="59.5577924419" lon="31.2703265995"><ele>233.26</ele><time>2026-09-02T19:40:08Z</time></trkpt><trkpt lat="59.5577924419" lon="31.2703265995"><ele>233.26</ele><time>2026-09-02T19:40:09Z</time></trkpt><trkpt lat="59.5577924419" lon="31.2703265995"><ele>233.26</ele><time>2026-09-02T19:40:10Z</time></trkpt><trkpt lat="59.5577924419" lon="31.2703265995"><ele>233.26</ele><time>2026-09-02T19:40:11Z</time></trkpt><trkpt lat="59.5577924419" lon="31.2703265995"><ele>233.26</ele><time>2026-09-02T19:40:12Z</time></trkpt><trkpt lat="59.5577924419" lon="31.2703265995"><ele>233.26</ele><time>2026-09-02T19:40:13Z</time></trkpt><trkpt lat="59.5577924419" lon="31.2703265995"><ele>233.26</ele><time>2026-09-02T19:40:14Z</time></trkpt><trkpt lat="59.5577924419" lon="31.2703265995"><ele>233.26</ele><time>2026-09-02T19:40:15Z</time></trkpt><trkpt lat="59.5577924419" lon="31.2703265995"><ele>233.26</ele><time>2026-09-02T19:40:16Z</time></trkpt><trkpt lat="59.5577924419" lon="31.2703265995"><ele>233.26</ele><time>2026-09-02T19:40:17Z</time></trkpt><trkpt lat="59.5577924419" lon="31.2703265995"><ele>233.26</ele><time>2026-09-02T19:40:18Z</time></trkpt><trkpt lat="59.5577924419" lon="31.2703265995"><ele>233.26</ele><time>2026-09-02T19:40:19Z</time></trkpt><trkpt lat="59.5577924419" lon="31.2703265995"><ele>233.26</ele><time>2026-09-02T19:40:20Z</time></trkpt><trkpt lat="59.5577924419" lon="31.2703265995"><ele>233.26</ele><time>2026-09-02T19:40:21Z</time></trkpt><trkpt lat="59.5577924419" lon="31.2703265995"><ele>233.26</ele><time>2026-09-02T19:40:22Z</time></trkpt><trkpt lat="59.5577924419" lon="31.2703265995"><ele>233.26</ele><time>2026-09-02T19:40:23Z</time></trkpt><trkpt lat="59.5577924419" lon="31.2703265995"><ele>233.26</ele><time>2026-09-02T19:40:24Z</time></trkpt><trkpt lat="59.5577924419" lon="31.2703265995"><ele>233.26</ele><time>2026-09-02T19:40:25Z</time></trkpt><trkpt lat="59.5577924419" lon="31.2703265995"><ele>233.26</ele><time>2026-09-02T19:40:26Z</time></trkpt><trkpt lat="59.5577924419" lon="31.2703265995"><ele>232.78</ele><time>2026-09-02T19:40:27Z</time></trkpt><trkpt lat="59.5577924419" lon="31.2703265995"><ele>232.78</ele><time>2026-09-02T19:40:28Z</time></trkpt><trkpt lat="59.5577924419" lon="31.2703265995"><ele>232.78</ele><time>2026-09-02T19:40:29Z</time></trkpt><trkpt lat="59.5577924419" lon="31.2703265995"><ele>232.78</ele><time>2026-09-02T19:40:30Z</time></trkpt><trkpt lat="59.5577924419" lon="31.2703265995"><ele>232.78</ele><time>2026-09-02T19:40:31Z</time></trkpt><trkpt lat="59.5577924419" lon="31.2703265995"><ele>232.78</ele><time>2026-09-02T19:40:32Z</time></trkpt><trkpt lat="59.5577924419" lon="31.2703265995"><ele>232.78</ele><time>2026-09-02T19:40:33Z</time></trkpt><trkpt lat="59.5577924419" lon="31.2703265995"><ele>232.78</ele><time>2026-09-02T19:40:34Z</time></trkpt><trkpt lat="59.5577924419" lon="31.2703265995"><ele>232.78</ele><time>2026-09-02T19:40:35Z</time></trkpt><trkpt lat="59.5577924419" lon="31.2703265995"><ele>232.78</ele><time>2026-09-02T19:40:36Z</time></trkpt><trkpt lat="59.5577924419" lon="31.2703265995"><ele>232.78</ele><time>2026-09-02T19:40:37Z</time></trkpt><trkpt lat="59.5577924419" lon="31.2703265995"><ele>232.78</ele><time>2026-09-02T19:40:38Z</time></trkpt><trkpt lat="59.5577924419" lon="31.2703265995"><ele>232.78</ele><time>2026-09-02T19:40:39Z</time></trkpt><trkpt lat="59.5577924419" lon="31.2703265995"><ele>232.78</ele><time>2026-09-02T19:40:40Z</time></trkpt><trkpt lat="59.5577924419" lon="31.2703265995"><ele>232.78</ele><time>2026-09-02T19:40:41Z</time></trkpt><trkpt lat="59.5577924419" lon="31.2703265995"><ele>232.78</ele><time>2026-09-02T19:40:42Z</time></trkpt><trkpt lat="59.5577924419" lon="31.2703265995"><ele>232.78</ele><time>2026-09-02T19:40:43Z</time></trkpt><trkpt lat="59.5577924419" lon="31.2703265995"><ele>232.78</ele><time>2026-09-02T19:40:44Z</time></trkpt><trkpt lat="59.5577924419" lon="31.2703265995"><ele>232.78</ele><time>2026-09-02T19:40:45Z</time></trkpt><trkpt lat="59.5577924419" lon="31.2703265995"><ele>232.78</ele><time>2026-09-02T19:40:46Z</time></trkpt><trkpt lat="59.5577924419" lon="31.2703265995"><ele>232.78</ele><time>2026-09-02T19:40:47Z</time></trkpt><trkpt lat="59.5577924419" lon="31.2703265995"><ele>232.78</ele><time>2026-09-02T19:40:48Z</time></trkpt><trkpt lat="59.5577159990" lon="31.2702229992"><ele>232.78</ele><time>2026-09-02T19:40:49Z</time></trkpt><trkpt lat="59.5577123947" lon="31.2702126894"><ele>232.78</ele><time>2026-09-02T19:40:50Z</time></trkpt><trkpt lat="59.5577078685" lon="31.2702014577"><ele>232.78</ele><time>2026-09-02T19:40:51Z</time></trkpt><trkpt lat="59.5576977264" lon="31.2701923214"><ele>232.78</ele><time>2026-09-02T19:40:52Z</time></trkpt><trkpt lat="59.5576977264" lon="31.2701923214"><ele>232.78</ele><time>2026-09-02T19:40:53Z</time></trkpt><trkpt lat="59.5576977264" lon="31.2701923214"><ele>232.78</ele><time>2026-09-02T19:40:54Z</time></trkpt><trkpt lat="59.5576977264" lon="31.2701923214"><ele>232.78</ele><time>2026-09-02T19:40:55Z</time></trkpt><trkpt lat="59.5576685574" lon="31.2701719534"><ele>232.78</ele><time>2026-09-02T19:40:56Z</time></trkpt><trkpt lat="59.5576597564" lon="31.2701700255"><ele>233.26</ele><time>2026-09-02T19:40:57Z</time></trkpt><trkpt lat="59.5576525480" lon="31.2701722886"><ele>233.26</ele><time>2026-09-02T19:40:58Z</time></trkpt><trkpt lat="59.5576457586" lon="31.2701736297"><ele>233.26</ele><time>2026-09-02T19:40:59Z</time></trkpt><trkpt lat="59.5576409809" lon="31.2701798324"><ele>233.26</ele><time>2026-09-02T19:41:00Z</time></trkpt><trkpt lat="59.5576351974" lon="31.2701822631"><ele>233.26</ele><time>2026-09-02T19:41:01Z</time></trkpt><trkpt lat="59.5576315932" lon="31.2701898906"><ele>233.26</ele><time>2026-09-02T19:41:02Z</time></trkpt><trkpt lat="59.5576276537" lon="31.2701886334"><ele>233.26</ele><time>2026-09-02T19:41:03Z</time></trkpt><trkpt lat="59.5576244686" lon="31.2701875437"><ele>233.26</ele><time>2026-09-02T19:41:04Z</time></trkpt><trkpt lat="59.5576222893" lon="31.2701900583"><ele>233.26</ele><time>2026-09-02T19:41:05Z</time></trkpt><trkpt lat="59.5576222893" lon="31.2701900583"><ele>233.26</ele><time>2026-09-02T19:41:06Z</time></trkpt><trkpt lat="59.5576222893" lon="31.2701900583"><ele>233.26</ele><time>2026-09-02T19:41:07Z</time></trkpt><trkpt lat="59.5576222893" lon="31.2701900583"><ele>233.26</ele><time>2026-09-02T19:41:08Z</time></trkpt><trkpt lat="59.5576222893" lon="31.2701900583"><ele>233.26</ele><time>2026-09-02T19:41:09Z</time></trkpt><trkpt lat="59.5576222893" lon="31.2701900583"><ele>233.26</ele><time>2026-09-02T19:41:10Z</time></trkpt><trkpt lat="59.5576222893" lon="31.2701900583"><ele>233.26</ele><time>2026-09-02T19:41:11Z</time></trkpt><trkpt lat="59.5576222893" lon="31.2701900583"><ele>233.26</ele><time>2026-09-02T19:41:12Z</time></trkpt><trkpt lat="59.5576222893" lon="31.2701900583"><ele>233.26</ele><time>2026-09-02T19:41:13Z</time></trkpt><trkpt lat="59.5576222893" lon="31.2701900583"><ele>233.26</ele><time>2026-09-02T19:41:14Z</time></trkpt><trkpt lat="59.5576222893" lon="31.2701900583"><ele>233.26</ele><time>2026-09-02T19:41:15Z</time></trkpt><trkpt lat="59.5576222893" lon="31.2701900583"><ele>233.26</ele><time>2026-09-02T19:41:16Z</time></trkpt><trkpt lat="59.5576222893" lon="31.2701900583"><ele>233.26</ele><time>2026-09-02T19:41:17Z</time></trkpt><trkpt lat="59.5576222893" lon="31.2701900583"><ele>233.26</ele><time>2026-09-02T19:41:18Z</time></trkpt><trkpt lat="59.5576222893" lon="31.2701900583"><ele>233.26</ele><time>2026-09-02T19:41:19Z</time></trkpt><trkpt lat="59.5576222893" lon="31.2701900583"><ele>233.26</ele><time>2026-09-02T19:41:20Z</time></trkpt><trkpt lat="59.5576222893" lon="31.2701900583"><ele>233.26</ele><time>2026-09-02T19:41:21Z</time></trkpt><trkpt lat="59.5576222893" lon="31.2701900583"><ele>233.26</ele><time>2026-09-02T19:41:22Z</time></trkpt><trkpt lat="59.5576222893" lon="31.2701900583"><ele>233.26</ele><time>2026-09-02T19:41:23Z</time></trkpt><trkpt lat="59.5576222893" lon="31.2701900583"><ele>233.26</ele><time>2026-09-02T19:41:24Z</time></trkpt><trkpt lat="59.5576222893" lon="31.2701900583"><ele>233.26</ele><time>2026-09-02T19:41:25Z</time></trkpt><trkpt lat="59.5576222893" lon="31.2701900583"><ele>233.26</ele><time>2026-09-02T19:41:26Z</time></trkpt><trkpt lat="59.5576222893" lon="31.2701900583"><ele>233.26</ele><time>2026-09-02T19:41:27Z</time></trkpt><trkpt lat="59.5576222893" lon="31.2701900583"><ele>233.26</ele><time>2026-09-02T19:41:28Z</time></trkpt><trkpt lat="59.5576222893" lon="31.2701900583"><ele>233.26</ele><time>2026-09-02T19:41:29Z</time></trkpt><trkpt lat="59.5576222893" lon="31.2701900583"><ele>233.26</ele><time>2026-09-02T19:41:30Z</time></trkpt><trkpt lat="59.5576222893" lon="31.2701900583"><ele>233.26</ele><time>2026-09-02T19:41:31Z</time></trkpt><trkpt lat="59.5576222893" lon="31.2701900583"><ele>233.26</ele><time>2026-09-02T19:41:32Z</time></trkpt><trkpt lat="59.5576222893" lon="31.2701900583"><ele>233.26</ele><time>2026-09-02T19:41:33Z</time></trkpt><trkpt lat="59.5576222893" lon="31.2701900583"><ele>233.26</ele><time>2026-09-02T19:41:34Z</time></trkpt><trkpt lat="59.5576222893" lon="31.2701900583"><ele>233.26</ele><time>2026-09-02T19:41:35Z</time></trkpt><trkpt lat="59.5576222893" lon="31.2701900583"><ele>233.26</ele><time>2026-09-02T19:41:36Z</time></trkpt><trkpt lat="59.5576222893" lon="31.2701900583"><ele>233.26</ele><time>2026-09-02T19:41:37Z</time></trkpt><trkpt lat="59.5576222893" lon="31.2701900583"><ele>233.26</ele><time>2026-09-02T19:41:38Z</time></trkpt><trkpt lat="59.5576222893" lon="31.2701900583"><ele>233.26</ele><time>2026-09-02T19:41:39Z</time></trkpt><trkpt lat="59.5576222893" lon="31.2701900583"><ele>233.26</ele><time>2026-09-02T19:41:40Z</time></trkpt><trkpt lat="59.5576222893" lon="31.2701900583"><ele>233.26</ele><time>2026-09-02T19:41:41Z</time></trkpt><trkpt lat="59.5576222893" lon="31.2701900583"><ele>233.26</ele><time>2026-09-02T19:41:42Z</time></trkpt><trkpt lat="59.5576222893" lon="31.2701900583"><ele>233.26</ele><time>2026-09-02T19:41:43Z</time></trkpt><trkpt lat="59.5576222893" lon="31.2701900583"><ele>233.26</ele><time>2026-09-02T19:41:44Z</time></trkpt><trkpt lat="59.5576222893" lon="31.2701900583"><ele>233.26</ele><time>2026-09-02T19:41:45Z</time></trkpt><trkpt lat="59.5576222893" lon="31.2701900583"><ele>233.26</ele><time>2026-09-02T19:41:46Z</time></trkpt><trkpt lat="59.5576222893" lon="31.2701900583"><ele>233.26</ele><time>2026-09-02T19:41:47Z</time></trkpt><trkpt lat="59.5576222893" lon="31.2701900583"><ele>233.26</ele><time>2026-09-02T19:41:48Z</time></trkpt><trkpt lat="59.5576222893" lon="31.2701900583"><ele>233.26</ele><time>2026-09-02T19:41:49Z</time></trkpt><trkpt lat="59.5576222893" lon="31.2701900583"><ele>233.26</ele><time>2026-09-02T19:41:50Z</time></trkpt><trkpt lat="59.5576222893" lon="31.2701900583"><ele>233.26</ele><time>2026-09-02T19:41:51Z</time></trkpt><trkpt lat="59.5576222893" lon="31.2701900583"><ele>233.26</ele><time>2026-09-02T19:41:52Z</time></trkpt><trkpt lat="59.5576222893" lon="31.2701900583"><ele>233.26</ele><time>2026-09-02T19:41:53Z</time></trkpt><trkpt lat="59.5576222893" lon="31.2701900583"><ele>233.26</ele><time>2026-09-02T19:41:54Z</time></trkpt><trkpt lat="59.5576222893" lon="31.2701900583"><ele>233.26</ele><time>2026-09-02T19:41:55Z</time></trkpt><trkpt lat="59.5576222893" lon="31.2701900583"><ele>233.26</ele><time>2026-09-02T19:41:56Z</time></trkpt><trkpt lat="59.5576222893" lon="31.2701900583"><ele>233.26</ele><time>2026-09-02T19:41:57Z</time></trkpt><trkpt lat="59.5576222893" lon="31.2701900583"><ele>233.26</ele><time>2026-09-02T19:41:58Z</time></trkpt><trkpt lat="59.5576222893" lon="31.2701900583"><ele>233.26</ele><time>2026-09-02T19:41:59Z</time></trkpt><trkpt lat="59.5576222893" lon="31.2701900583"><ele>233.26</ele><time>2026-09-02T19:42:00Z</time></trkpt><trkpt lat="59.5576222893" lon="31.2701900583"><ele>233.26</ele><time>2026-09-02T19:42:01Z</time></trkpt><trkpt lat="59.5576222893" lon="31.2701900583"><ele>233.26</ele><time>2026-09-02T19:42:02Z</time></trkpt><trkpt lat="59.5576222893" lon="31.2701900583"><ele>233.26</ele><time>2026-09-02T19:42:03Z</time></trkpt><trkpt lat="59.5576222893" lon="31.2701900583"><ele>233.26</ele><time>2026-09-02T19:42:04Z</time></trkpt><trkpt lat="59.5576222893" lon="31.2701900583"><ele>233.26</ele><time>2026-09-02T19:42:05Z</time></trkpt><trkpt lat="59.5576222893" lon="31.2701900583"><ele>233.26</ele><time>2026-09-02T19:42:06Z</time></trkpt><trkpt lat="59.5576222893" lon="31.2701900583"><ele>233.26</ele><time>2026-09-02T19:42:07Z</time></trkpt><trkpt lat="59.5576222893" lon="31.2701900583"><ele>233.26</ele><time>2026-09-02T19:42:08Z</time></trkpt><trkpt lat="59.5576222893" lon="31.2701900583"><ele>233.26</ele><time>2026-09-02T19:42:09Z</time></trkpt><trkpt lat="59.5576222893" lon="31.2701900583"><ele>233.26</ele><time>2026-09-02T19:42:10Z</time></trkpt><trkpt lat="59.5576222893" lon="31.2701900583"><ele>233.26</ele><time>2026-09-02T19:42:11Z</time></trkpt><trkpt lat="59.5576222893" lon="31.2701900583"><ele>233.26</ele><time>2026-09-02T19:42:12Z</time></trkpt><trkpt lat="59.5576222893" lon="31.2701900583"><ele>233.26</ele><time>2026-09-02T19:42:13Z</time></trkpt><trkpt lat="59.5576222893" lon="31.2701900583"><ele>233.26</ele><time>2026-09-02T19:42:14Z</time></trkpt><trkpt lat="59.5576222893" lon="31.2701900583"><ele>233.26</ele><time>2026-09-02T19:42:15Z</time></trkpt><trkpt lat="59.5576222893" lon="31.2701900583"><ele>233.26</ele><time>2026-09-02T19:42:16Z</time></trkpt><trkpt lat="59.5576222893" lon="31.2701900583"><ele>233.26</ele><time>2026-09-02T19:42:17Z</time></trkpt><trkpt lat="59.5576222893" lon="31.2701900583"><ele>233.26</ele><time>2026-09-02T19:42:18Z</time></trkpt><trkpt lat="59.5576222893" lon="31.2701900583"><ele>233.26</ele><time>2026-09-02T19:42:19Z</time></trkpt><trkpt lat="59.5576222893" lon="31.2701900583"><ele>233.26</ele><time>2026-09-02T19:42:20Z</time></trkpt><trkpt lat="59.5576222893" lon="31.2701900583"><ele>233.26</ele><time>2026-09-02T19:42:21Z</time></trkpt><trkpt lat="59.5576222893" lon="31.2701900583"><ele>233.26</ele><time>2026-09-02T19:42:22Z</time></trkpt><trkpt lat="59.5576222893" lon="31.2701900583"><ele>233.26</ele><time>2026-09-02T19:42:23Z</time></trkpt><trkpt lat="59.5576222893" lon="31.2701900583"><ele>233.26</ele><time>2026-09-02T19:42:24Z</time></trkpt><trkpt lat="59.5576222893" lon="31.2701900583"><ele>233.26</ele><time>2026-09-02T19:42:25Z</time></trkpt><trkpt lat="59.5576222893" lon="31.2701900583"><ele>233.26</ele><time>2026-09-02T19:42:26Z</time></trkpt><trkpt lat="59.5576222893" lon="31.2701900583"><ele>233.26</ele><time>2026-09-02T19:42:27Z</time></trkpt><trkpt lat="59.5576222893" lon="31.2701900583"><ele>233.26</ele><time>2026-09-02T19:42:28Z</time></trkpt><trkpt lat="59.5576222893" lon="31.2701900583"><ele>233.26</ele><time>2026-09-02T19:42:29Z</time></trkpt><trkpt lat="59.5576222893" lon="31.2701900583"><ele>233.26</ele><time>2026-09-02T19:42:30Z</time></trkpt><trkpt lat="59.5576222893" lon="31.2701900583"><ele>233.26</ele><time>2026-09-02T19:42:31Z</time></trkpt><trkpt lat="59.5576222893" lon="31.2701900583"><ele>233.26</ele><time>2026-09-02T19:42:32Z</time></trkpt><trkpt lat="59.5576222893" lon="31.2701900583"><ele>233.26</ele><time>2026-09-02T19:42:33Z</time></trkpt><trkpt lat="59.5576222893" lon="31.2701900583"><ele>233.26</ele><time>2026-09-02T19:42:34Z</time></trkpt><trkpt lat="59.5576222893" lon="31.2701900583"><ele>233.26</ele><time>2026-09-02T19:42:35Z</time></trkpt><trkpt lat="59.5576222893" lon="31.2701900583"><ele>233.26</ele><time>2026-09-02T19:42:36Z</time></trkpt><trkpt lat="59.5576222893" lon="31.2701900583"><ele>233.26</ele><time>2026-09-02T19:42:37Z</time></trkpt><trkpt lat="59.5576222893" lon="31.2701900583"><ele>233.26</ele><time>2026-09-02T19:42:38Z</time></trkpt><trkpt lat="59.5576222893" lon="31.2701900583"><ele>233.26</ele><time>2026-09-02T19:42:39Z</time></trkpt><trkpt lat="59.5576222893" lon="31.2701900583"><ele>233.26</ele><time>2026-09-02T19:42:40Z</time></trkpt><trkpt lat="59.5576222893" lon="31.2701900583"><ele>233.26</ele><time>2026-09-02T19:42:41Z</time></trkpt><trkpt lat="59.5576222893" lon="31.2701900583"><ele>233.26</ele><time>2026-09-02T19:42:42Z</time></trkpt><trkpt lat="59.5576222893" lon="31.2701900583"><ele>233.26</ele><time>2026-09-02T19:42:43Z</time></trkpt><trkpt lat="59.5576222893" lon="31.2701900583"><ele>233.26</ele><time>2026-09-02T19:42:44Z</time></trkpt><trkpt lat="59.5576222893" lon="31.2701900583"><ele>233.26</ele><time>2026-09-02T19:42:45Z</time></trkpt><trkpt lat="59.5576222893" lon="31.2701900583"><ele>233.26</ele><time>2026-09-02T19:42:46Z</time></trkpt><trkpt lat="59.5576222893" lon="31.2701900583"><ele>233.26</ele><time>2026-09-02T19:42:47Z</time></trkpt><trkpt lat="59.5576222893" lon="31.2701900583"><ele>233.26</ele><time>2026-09-02T19:42:48Z</time></trkpt><trkpt lat="59.5576222893" lon="31.2701900583"><ele>233.26</ele><time>2026-09-02T19:42:49Z</time></trkpt><trkpt lat="59.5576222893" lon="31.2701900583"><ele>233.26</ele><time>2026-09-02T19:42:50Z</time></trkpt><trkpt lat="59.5576222893" lon="31.2701900583"><ele>233.26</ele><time>2026-09-02T19:42:51Z</time></trkpt><trkpt lat="59.5576222893" lon="31.2701900583"><ele>233.26</ele><time>2026-09-02T19:42:52Z</time></trkpt><trkpt lat="59.5576222893" lon="31.2701900583"><ele>233.26</ele><time>2026-09-02T19:42:53Z</time></trkpt><trkpt lat="59.5576222893" lon="31.2701900583"><ele>233.26</ele><time>2026-09-02T19:42:54Z</time></trkpt><trkpt lat="59.5576222893" lon="31.2701900583"><ele>233.26</ele><time>2026-09-02T19:42:55Z</time></trkpt><trkpt lat="59.5576222893" lon="31.2701900583"><ele>233.26</ele><time>2026-09-02T19:42:56Z</time></trkpt><trkpt lat="59.5576222893" lon="31.2701900583"><ele>233.26</ele><time>2026-09-02T19:42:57Z</time></trkpt><trkpt lat="59.5576222893" lon="31.2701900583"><ele>233.26</ele><time>2026-09-02T19:42:58Z</time></trkpt><trkpt lat="59.5576222893" lon="31.2701900583"><ele>233.26</ele><time>2026-09-02T19:42:59Z</time></trkpt><trkpt lat="59.5576222893" lon="31.2701900583"><ele>233.26</ele><time>2026-09-02T19:43:00Z</time></trkpt><trkpt lat="59.5576222893" lon="31.2701900583"><ele>233.26</ele><time>2026-09-02T19:43:01Z</time></trkpt><trkpt lat="59.5576222893" lon="31.2701900583"><ele>233.26</ele><time>2026-09-02T19:43:02Z</time></trkpt><trkpt lat="59.5576222893" lon="31.2701900583"><ele>233.26</ele><time>2026-09-02T19:43:03Z</time></trkpt><trkpt lat="59.5576222893" lon="31.2701900583"><ele>233.26</ele><time>2026-09-02T19:43:04Z</time></trkpt><trkpt lat="59.5576222893" lon="31.2701900583"><ele>233.26</ele><time>2026-09-02T19:43:05Z</time></trkpt><trkpt lat="59.5576222893" lon="31.2701900583"><ele>233.26</ele><time>2026-09-02T19:43:06Z</time></trkpt><trkpt lat="59.5576222893" lon="31.2701900583"><ele>233.26</ele><time>2026-09-02T19:43:07Z</time></trkpt><trkpt lat="59.5576222893" lon="31.2701900583"><ele>233.26</ele><time>2026-09-02T19:43:08Z</time></trkpt><trkpt lat="59.5576222893" lon="31.2701900583"><ele>233.26</ele><time>2026-09-02T19:43:09Z</time></trkpt><trkpt lat="59.5576222893" lon="31.2701900583"><ele>233.26</ele><time>2026-09-02T19:43:10Z</time></trkpt><trkpt lat="59.5576222893" lon="31.2701900583"><ele>233.26</ele><time>2026-09-02T19:43:11Z</time></trkpt><trkpt lat="59.5576222893" lon="31.2701900583"><ele>233.26</ele><time>2026-09-02T19:43:12Z</time></trkpt><trkpt lat="59.5576222893" lon="31.2701900583"><ele>233.26</ele><time>2026-09-02T19:43:13Z</time></trkpt><trkpt lat="59.5576222893" lon="31.2701900583"><ele>233.26</ele><time>2026-09-02T19:43:14Z</time></trkpt><trkpt lat="59.5576222893" lon="31.2701900583"><ele>233.26</ele><time>2026-09-02T19:43:15Z</time></trkpt><trkpt lat="59.5576222893" lon="31.2701900583"><ele>233.26</ele><time>2026-09-02T19:43:16Z</time></trkpt><trkpt lat="59.5576222893" lon="31.2701900583"><ele>233.26</ele><time>2026-09-02T19:43:17Z</time></trkpt><trkpt lat="59.5576222893" lon="31.2701900583"><ele>233.26</ele><time>2026-09-02T19:43:18Z</time></trkpt><trkpt lat="59.5576222893" lon="31.2701900583"><ele>233.26</ele><time>2026-09-02T19:43:19Z</time></trkpt><trkpt lat="59.5576222893" lon="31.2701900583"><ele>233.26</ele><time>2026-09-02T19:43:20Z</time></trkpt><trkpt lat="59.5576222893" lon="31.2701900583"><ele>233.26</ele><time>2026-09-02T19:43:21Z</time></trkpt><trkpt lat="59.5576222893" lon="31.2701900583"><ele>233.26</ele><time>2026-09-02T19:43:22Z</time></trkpt><trkpt lat="59.5576222893" lon="31.2701900583"><ele>233.26</ele><time>2026-09-02T19:43:23Z</time></trkpt><trkpt lat="59.5576222893" lon="31.2701900583"><ele>233.26</ele><time>2026-09-02T19:43:24Z</time></trkpt><trkpt lat="59.5576222893" lon="31.2701900583"><ele>233.26</ele><time>2026-09-02T19:43:25Z</time></trkpt><trkpt lat="59.5576222893" lon="31.2701900583"><ele>233.26</ele><time>2026-09-02T19:43:26Z</time></trkpt><trkpt lat="59.5576222893" lon="31.2701900583"><ele>233.26</ele><time>2026-09-02T19:43:27Z</time></trkpt><trkpt lat="59.5576222893" lon="31.2701900583"><ele>233.26</ele><time>2026-09-02T19:43:28Z</time></trkpt><trkpt lat="59.5576222893" lon="31.2701900583"><ele>233.26</ele><time>2026-09-02T19:43:29Z</time></trkpt><trkpt lat="59.5575817209" lon="31.2702533416"><ele>233.26</ele><time>2026-09-02T19:43:30Z</time></trkpt><trkpt lat="59.5575786196" lon="31.2702650763"><ele>233.26</ele><time>2026-09-02T19:43:31Z</time></trkpt><trkpt lat="59.5575727522" lon="31.2702768948"><ele>233.26</ele><time>2026-09-02T19:43:32Z</time></trkpt><trkpt lat="59.5575691480" lon="31.2702876236"><ele>232.78</ele><time>2026-09-02T19:43:33Z</time></trkpt><trkpt lat="59.5575667173" lon="31.2703029625"><ele>232.78</ele><time>2026-09-02T19:43:34Z</time></trkpt><trkpt lat="59.5575619396" lon="31.2703181338"><ele>232.78</ele><time>2026-09-02T19:43:35Z</time></trkpt><trkpt lat="59.5575574972" lon="31.2703267671"><ele>232.78</ele><time>2026-09-02T19:43:36Z</time></trkpt><trkpt lat="59.5575535577" lon="31.2703405973"><ele>232.78</ele><time>2026-09-02T19:43:37Z</time></trkpt><trkpt lat="59.5575477742" lon="31.2703538407"><ele>232.78</ele><time>2026-09-02T19:43:38Z</time></trkpt><trkpt lat="59.5575446729" lon="31.2703675870"><ele>232.78</ele><time>2026-09-02T19:43:39Z</time></trkpt><trkpt lat="59.5575413201" lon="31.2703795731"><ele>232.78</ele><time>2026-09-02T19:43:40Z</time></trkpt><trkpt lat="59.5575385541" lon="31.2703927327"><ele>232.78</ele><time>2026-09-02T19:43:41Z</time></trkpt><trkpt lat="59.5575330220" lon="31.2704034615"><ele>232.78</ele><time>2026-09-02T19:43:42Z</time></trkpt><trkpt lat="59.5575248916" lon="31.2704132684"><ele>232.78</ele><time>2026-09-02T19:43:43Z</time></trkpt><trkpt lat="59.5575200301" lon="31.2704270985"><ele>232.78</ele><time>2026-09-02T19:43:44Z</time></trkpt><trkpt lat="59.5575159229" lon="31.2704393361"><ele>232.78</ele><time>2026-09-02T19:43:45Z</time></trkpt><trkpt lat="59.5575122349" lon="31.2704513222"><ele>232.78</ele><time>2026-09-02T19:43:46Z</time></trkpt><trkpt lat="59.5575092174" lon="31.2704606261"><ele>232.78</ele><time>2026-09-02T19:43:47Z</time></trkpt><trkpt lat="59.5575069543" lon="31.2704674993"><ele>232.78</ele><time>2026-09-02T19:43:48Z</time></trkpt><trkpt lat="59.5575041883" lon="31.2704709359"><ele>232.78</ele><time>2026-09-02T19:43:49Z</time></trkpt><trkpt lat="59.5575030986" lon="31.2704775576"><ele>232.78</ele><time>2026-09-02T19:43:50Z</time></trkpt><trkpt lat="59.5575030986" lon="31.2704775576"><ele>232.78</ele><time>2026-09-02T19:43:51Z</time></trkpt><trkpt lat="59.5575030986" lon="31.2704775576"><ele>232.78</ele><time>2026-09-02T19:43:52Z</time></trkpt><trkpt lat="59.5575030986" lon="31.2704775576"><ele>232.78</ele><time>2026-09-02T19:43:53Z</time></trkpt><trkpt lat="59.5575030986" lon="31.2704775576"><ele>232.78</ele><time>2026-09-02T19:43:54Z</time></trkpt><trkpt lat="59.5575030986" lon="31.2704775576"><ele>232.78</ele><time>2026-09-02T19:43:55Z</time></trkpt><trkpt lat="59.5575030986" lon="31.2704775576"><ele>232.78</ele><time>2026-09-02T19:43:56Z</time></trkpt><trkpt lat="59.5575017575" lon="31.2704361510"><ele>232.78</ele><time>2026-09-02T19:43:57Z</time></trkpt><trkpt lat="59.5574959740" lon="31.2704283558"><ele>232.78</ele><time>2026-09-02T19:43:58Z</time></trkpt><trkpt lat="59.5574892685" lon="31.2704209797"><ele>232.78</ele><time>2026-09-02T19:43:59Z</time></trkpt><trkpt lat="59.5574860834" lon="31.2704171240"><ele>232.78</ele><time>2026-09-02T19:44:00Z</time></trkpt><trkpt lat="59.5574841555" lon="31.2704125978"><ele>232.78</ele><time>2026-09-02T19:44:01Z</time></trkpt><trkpt lat="59.5574823953" lon="31.2704090774"><ele>232.78</ele><time>2026-09-02T19:44:02Z</time></trkpt><trkpt lat="59.5574823953" lon="31.2704090774"><ele>232.78</ele><time>2026-09-02T19:44:03Z</time></trkpt><trkpt lat="59.5574823953" lon="31.2704090774"><ele>232.78</ele><time>2026-09-02T19:44:04Z</time></trkpt><trkpt lat="59.5574823953" lon="31.2704090774"><ele>232.78</ele><time>2026-09-02T19:44:05Z</time></trkpt><trkpt lat="59.5574823953" lon="31.2704090774"><ele>232.78</ele><time>2026-09-02T19:44:06Z</time></trkpt><trkpt lat="59.5574823953" lon="31.2704090774"><ele>232.78</ele><time>2026-09-02T19:44:07Z</time></trkpt><trkpt lat="59.5574823953" lon="31.2704090774"><ele>232.78</ele><time>2026-09-02T19:44:08Z</time></trkpt><trkpt lat="59.5574823953" lon="31.2704090774"><ele>232.78</ele><time>2026-09-02T19:44:09Z</time></trkpt><trkpt lat="59.5574823953" lon="31.2704090774"><ele>232.78</ele><time>2026-09-02T19:44:10Z</time></trkpt><trkpt lat="59.5574823953" lon="31.2704090774"><ele>232.78</ele><time>2026-09-02T19:44:11Z</time></trkpt><trkpt lat="59.5574823953" lon="31.2704090774"><ele>232.78</ele><time>2026-09-02T19:44:12Z</time></trkpt><trkpt lat="59.5574823953" lon="31.2704090774"><ele>232.78</ele><time>2026-09-02T19:44:13Z</time></trkpt><trkpt lat="59.5574823953" lon="31.2704090774"><ele>232.78</ele><time>2026-09-02T19:44:14Z</time></trkpt><trkpt lat="59.5574823953" lon="31.2704090774"><ele>232.78</ele><time>2026-09-02T19:44:15Z</time></trkpt><trkpt lat="59.5574823953" lon="31.2704090774"><ele>232.78</ele><time>2026-09-02T19:44:16Z</time></trkpt><trkpt lat="59.5574823953" lon="31.2704090774"><ele>232.78</ele><time>2026-09-02T19:44:17Z</time></trkpt><trkpt lat="59.5574823953" lon="31.2704090774"><ele>232.78</ele><time>2026-09-02T19:44:18Z</time></trkpt><trkpt lat="59.5574823953" lon="31.2704090774"><ele>232.78</ele><time>2026-09-02T19:44:19Z</time></trkpt><trkpt lat="59.5574823953" lon="31.2704090774"><ele>232.78</ele><time>2026-09-02T19:44:20Z</time></trkpt><trkpt lat="59.5574823953" lon="31.2704090774"><ele>232.78</ele><time>2026-09-02T19:44:21Z</time></trkpt><trkpt lat="59.5574823953" lon="31.2704090774"><ele>232.78</ele><time>2026-09-02T19:44:22Z</time></trkpt><trkpt lat="59.5574823953" lon="31.2704090774"><ele>232.78</ele><time>2026-09-02T19:44:23Z</time></trkpt><trkpt lat="59.5574823953" lon="31.2704090774"><ele>232.78</ele><time>2026-09-02T19:44:24Z</time></trkpt><trkpt lat="59.5574823953" lon="31.2704090774"><ele>232.78</ele><time>2026-09-02T19:44:25Z</time></trkpt><trkpt lat="59.5574823953" lon="31.2704090774"><ele>232.78</ele><time>2026-09-02T19:44:26Z</time></trkpt><trkpt lat="59.5574823953" lon="31.2704090774"><ele>232.78</ele><time>2026-09-02T19:44:27Z</time></trkpt><trkpt lat="59.5574823953" lon="31.2704090774"><ele>232.78</ele><time>2026-09-02T19:44:28Z</time></trkpt><trkpt lat="59.5574823953" lon="31.2704090774"><ele>232.78</ele><time>2026-09-02T19:44:29Z</time></trkpt><trkpt lat="59.5574823953" lon="31.2704090774"><ele>232.78</ele><time>2026-09-02T19:44:30Z</time></trkpt><trkpt lat="59.5574823953" lon="31.2704090774"><ele>232.78</ele><time>2026-09-02T19:44:31Z</time></trkpt><trkpt lat="59.5574823953" lon="31.2704090774"><ele>232.78</ele><time>2026-09-02T19:44:32Z</time></trkpt><trkpt lat="59.5574823953" lon="31.2704090774"><ele>232.78</ele><time>2026-09-02T19:44:33Z</time></trkpt><trkpt lat="59.5574823953" lon="31.2704090774"><ele>232.78</ele><time>2026-09-02T19:44:34Z</time></trkpt><trkpt lat="59.5574823953" lon="31.2704090774"><ele>232.78</ele><time>2026-09-02T19:44:35Z</time></trkpt><trkpt lat="59.5574823953" lon="31.2704090774"><ele>232.78</ele><time>2026-09-02T19:44:36Z</time></trkpt><trkpt lat="59.5574823953" lon="31.2704090774"><ele>232.78</ele><time>2026-09-02T19:44:37Z</time></trkpt><trkpt lat="59.5574823953" lon="31.2704090774"><ele>232.78</ele><time>2026-09-02T19:44:38Z</time></trkpt><trkpt lat="59.5574823953" lon="31.2704090774"><ele>232.78</ele><time>2026-09-02T19:44:39Z</time></trkpt><trkpt lat="59.5574823953" lon="31.2704090774"><ele>232.78</ele><time>2026-09-02T19:44:40Z</time></trkpt><trkpt lat="59.5574823953" lon="31.2704090774"><ele>232.78</ele><time>2026-09-02T19:44:41Z</time></trkpt><trkpt lat="59.5574823953" lon="31.2704090774"><ele>232.78</ele><time>2026-09-02T19:44:42Z</time></trkpt><trkpt lat="59.5574823953" lon="31.2704090774"><ele>232.78</ele><time>2026-09-02T19:44:43Z</time></trkpt><trkpt lat="59.5574823953" lon="31.2704090774"><ele>232.78</ele><time>2026-09-02T19:44:44Z</time></trkpt><trkpt lat="59.5574823953" lon="31.2704090774"><ele>232.78</ele><time>2026-09-02T19:44:45Z</time></trkpt><trkpt lat="59.5574823953" lon="31.2704090774"><ele>232.78</ele><time>2026-09-02T19:44:46Z</time></trkpt><trkpt lat="59.5574823953" lon="31.2704090774"><ele>232.78</ele><time>2026-09-02T19:44:47Z</time></trkpt><trkpt lat="59.5574823953" lon="31.2704090774"><ele>232.78</ele><time>2026-09-02T19:44:48Z</time></trkpt><trkpt lat="59.5574823953" lon="31.2704090774"><ele>232.78</ele><time>2026-09-02T19:44:49Z</time></trkpt><trkpt lat="59.5574823953" lon="31.2704090774"><ele>232.78</ele><time>2026-09-02T19:44:50Z</time></trkpt><trkpt lat="59.5574727561" lon="31.2704802398"><ele>232.78</ele><time>2026-09-02T19:44:51Z</time></trkpt><trkpt lat="59.5574739296" lon="31.2704857718"><ele>232.78</ele><time>2026-09-02T19:44:52Z</time></trkpt><trkpt lat="59.5574753545" lon="31.2704874482"><ele>232.78</ele><time>2026-09-02T19:44:53Z</time></trkpt><trkpt lat="59.5574754383" lon="31.2704854365"><ele>232.78</ele><time>2026-09-02T19:44:54Z</time></trkpt><trkpt lat="59.5574754383" lon="31.2704854365"><ele>232.78</ele><time>2026-09-02T19:44:55Z</time></trkpt><trkpt lat="59.5574754383" lon="31.2704854365"><ele>232.78</ele><time>2026-09-02T19:44:56Z</time></trkpt><trkpt lat="59.5574754383" lon="31.2704854365"><ele>232.78</ele><time>2026-09-02T19:44:57Z</time></trkpt><trkpt lat="59.5574754383" lon="31.2704854365"><ele>232.78</ele><time>2026-09-02T19:44:58Z</time></trkpt><trkpt lat="59.5574754383" lon="31.2704854365"><ele>232.78</ele><time>2026-09-02T19:44:59Z</time></trkpt><trkpt lat="59.5574754383" lon="31.2704854365"><ele>232.78</ele><time>2026-09-02T19:45:00Z</time></trkpt><trkpt lat="59.5574738458" lon="31.2704813294"><ele>232.78</ele><time>2026-09-02T19:45:01Z</time></trkpt><trkpt lat="59.5574730914" lon="31.2704726961"><ele>232.78</ele><time>2026-09-02T19:45:02Z</time></trkpt><trkpt lat="59.5574732590" lon="31.2704692595"><ele>232.78</ele><time>2026-09-02T19:45:03Z</time></trkpt><trkpt lat="59.5574746840" lon="31.2704622187"><ele>232.78</ele><time>2026-09-02T19:45:04Z</time></trkpt><trkpt lat="59.5574751869" lon="31.2704573572"><ele>232.78</ele><time>2026-09-02T19:45:05Z</time></trkpt><trkpt lat="59.5574751869" lon="31.2704573572"><ele>232.78</ele><time>2026-09-02T19:45:06Z</time></trkpt><trkpt lat="59.5574751869" lon="31.2704573572"><ele>233.26</ele><time>2026-09-02T19:45:07Z</time></trkpt><trkpt lat="59.5574751869" lon="31.2704573572"><ele>233.26</ele><time>2026-09-02T19:45:08Z</time></trkpt><trkpt lat="59.5574751869" lon="31.2704573572"><ele>233.26</ele><time>2026-09-02T19:45:09Z</time></trkpt><trkpt lat="59.5574751869" lon="31.2704573572"><ele>233.26</ele><time>2026-09-02T19:45:10Z</time></trkpt><trkpt lat="59.5574751869" lon="31.2704573572"><ele>233.26</ele><time>2026-09-02T19:45:11Z</time></trkpt><trkpt lat="59.5574751869" lon="31.2704573572"><ele>233.26</ele><time>2026-09-02T19:45:12Z</time></trkpt><trkpt lat="59.5574751869" lon="31.2704573572"><ele>233.26</ele><time>2026-09-02T19:45:13Z</time></trkpt><trkpt lat="59.5574751869" lon="31.2704573572"><ele>233.26</ele><time>2026-09-02T19:45:14Z</time></trkpt><trkpt lat="59.5574751869" lon="31.2704573572"><ele>233.26</ele><time>2026-09-02T19:45:15Z</time></trkpt><trkpt lat="59.5574751869" lon="31.2704573572"><ele>233.26</ele><time>2026-09-02T19:45:16Z</time></trkpt><trkpt lat="59.5574751869" lon="31.2704573572"><ele>233.26</ele><time>2026-09-02T19:45:17Z</time></trkpt><trkpt lat="59.5574751869" lon="31.2704573572"><ele>233.26</ele><time>2026-09-02T19:45:18Z</time></trkpt><trkpt lat="59.5574751869" lon="31.2704573572"><ele>233.26</ele><time>2026-09-02T19:45:19Z</time></trkpt><trkpt lat="59.5574751869" lon="31.2704573572"><ele>233.26</ele><time>2026-09-02T19:45:20Z</time></trkpt><trkpt lat="59.5574956387" lon="31.2703668326"><ele>233.26</ele><time>2026-09-02T19:45:21Z</time></trkpt><trkpt lat="59.5574972313" lon="31.2703591213"><ele>233.26</ele><time>2026-09-02T19:45:22Z</time></trkpt><trkpt lat="59.5575046912" lon="31.2703642342"><ele>233.26</ele><time>2026-09-02T19:45:23Z</time></trkpt><trkpt lat="59.5575085469" lon="31.2703594565"><ele>233.26</ele><time>2026-09-02T19:45:24Z</time></trkpt><trkpt lat="59.5575122349" lon="31.2703534216"><ele>233.26</ele><time>2026-09-02T19:45:25Z</time></trkpt><trkpt lat="59.5575149171" lon="31.2703479733"><ele>232.78</ele><time>2026-09-02T19:45:26Z</time></trkpt><trkpt lat="59.5575202815" lon="31.2703378312"><ele>233.26</ele><time>2026-09-02T19:45:27Z</time></trkpt><trkpt lat="59.5575281605" lon="31.2703325506"><ele>233.26</ele><time>2026-09-02T19:45:28Z</time></trkpt><trkpt lat="59.5575369615" lon="31.2703286950"><ele>233.26</ele><time>2026-09-02T19:45:29Z</time></trkpt><trkpt lat="59.5575443376" lon="31.2703177985"><ele>233.26</ele><time>2026-09-02T19:45:30Z</time></trkpt><trkpt lat="59.5575495344" lon="31.2703084946"><ele>233.26</ele><time>2026-09-02T19:45:31Z</time></trkpt><trkpt lat="59.5575526357" lon="31.2702982686"><ele>233.26</ele><time>2026-09-02T19:45:32Z</time></trkpt><trkpt lat="59.5575571619" lon="31.2702849414"><ele>233.26</ele><time>2026-09-02T19:45:33Z</time></trkpt><trkpt lat="59.5575663820" lon="31.2702705245"><ele>233.26</ele><time>2026-09-02T19:45:34Z</time></trkpt><trkpt lat="59.5575729199" lon="31.2702561915"><ele>233.26</ele><time>2026-09-02T19:45:35Z</time></trkpt><trkpt lat="59.5575800445" lon="31.2702434510"><ele>233.26</ele><time>2026-09-02T19:45:36Z</time></trkpt><trkpt lat="59.5575885940" lon="31.2702371646"><ele>233.26</ele><time>2026-09-02T19:45:37Z</time></trkpt><trkpt lat="59.5575933717" lon="31.2702254299"><ele>233.26</ele><time>2026-09-02T19:45:38Z</time></trkpt><trkpt lat="59.5575991552" lon="31.2702117674"><ele>233.26</ele><time>2026-09-02T19:45:39Z</time></trkpt><trkpt lat="59.5576037653" lon="31.2701974344"><ele>233.26</ele><time>2026-09-02T19:45:40Z</time></trkpt><trkpt lat="59.5576090459" lon="31.2701892201"><ele>233.26</ele><time>2026-09-02T19:45:41Z</time></trkpt><trkpt lat="59.5576112252" lon="31.2701787427"><ele>233.26</ele><time>2026-09-02T19:45:42Z</time></trkpt><trkpt lat="59.5576141588" lon="31.2701691873"><ele>233.26</ele><time>2026-09-02T19:45:43Z</time></trkpt><trkpt lat="59.5576190203" lon="31.2701662537"><ele>233.26</ele><time>2026-09-02T19:45:44Z</time></trkpt><trkpt lat="59.5576202776" lon="31.2701595481"><ele>233.26</ele><time>2026-09-02T19:45:45Z</time></trkpt><trkpt lat="59.5576202776" lon="31.2701595481"><ele>233.26</ele><time>2026-09-02T19:45:46Z</time></trkpt><trkpt lat="59.5576202776" lon="31.2701595481"><ele>233.74</ele><time>2026-09-02T19:45:47Z</time></trkpt><trkpt lat="59.5576202776" lon="31.2701595481"><ele>233.74</ele><time>2026-09-02T19:45:48Z</time></trkpt><trkpt lat="59.5576202776" lon="31.2701595481"><ele>233.74</ele><time>2026-09-02T19:45:49Z</time></trkpt><trkpt lat="59.5576202776" lon="31.2701595481"><ele>233.74</ele><time>2026-09-02T19:45:50Z</time></trkpt><trkpt lat="59.5576202776" lon="31.2701595481"><ele>233.74</ele><time>2026-09-02T19:45:51Z</time></trkpt><trkpt lat="59.5576366223" lon="31.2701568659"><ele>233.74</ele><time>2026-09-02T19:45:52Z</time></trkpt><trkpt lat="59.5576429926" lon="31.2701603863"><ele>233.74</ele><time>2026-09-02T19:45:53Z</time></trkpt><trkpt lat="59.5576492790" lon="31.2701634876"><ele>233.74</ele><time>2026-09-02T19:45:54Z</time></trkpt><trkpt lat="59.5576541405" lon="31.2701636553"><ele>233.74</ele><time>2026-09-02T19:45:55Z</time></trkpt><trkpt lat="59.5576585829" lon="31.2701601349"><ele>233.26</ele><time>2026-09-02T19:45:56Z</time></trkpt><trkpt lat="59.5576621871" lon="31.2701545190"><ele>233.26</ele><time>2026-09-02T19:45:57Z</time></trkpt><trkpt lat="59.5576644503" lon="31.2701499928"><ele>233.26</ele><time>2026-09-02T19:45:58Z</time></trkpt><trkpt lat="59.5576667972" lon="31.2701463886"><ele>233.26</ele><time>2026-09-02T19:45:59Z</time></trkpt><trkpt lat="59.5576686412" lon="31.2701423652"><ele>233.26</ele><time>2026-09-02T19:46:00Z</time></trkpt><trkpt lat="59.5576686412" lon="31.2701423652"><ele>233.26</ele><time>2026-09-02T19:46:01Z</time></trkpt><trkpt lat="59.5576686412" lon="31.2701423652"><ele>233.26</ele><time>2026-09-02T19:46:02Z</time></trkpt><trkpt lat="59.5576686412" lon="31.2701423652"><ele>233.26</ele><time>2026-09-02T19:46:03Z</time></trkpt><trkpt lat="59.5576686412" lon="31.2701423652"><ele>233.26</ele><time>2026-09-02T19:46:04Z</time></trkpt><trkpt lat="59.5576686412" lon="31.2701423652"><ele>233.26</ele><time>2026-09-02T19:46:05Z</time></trkpt><trkpt lat="59.5576686412" lon="31.2701423652"><ele>233.26</ele><time>2026-09-02T19:46:06Z</time></trkpt><trkpt lat="59.5576686412" lon="31.2701423652"><ele>233.26</ele><time>2026-09-02T19:46:07Z</time></trkpt><trkpt lat="59.5576686412" lon="31.2701423652"><ele>233.26</ele><time>2026-09-02T19:46:08Z</time></trkpt><trkpt lat="59.5576686412" lon="31.2701423652"><ele>233.26</ele><time>2026-09-02T19:46:09Z</time></trkpt><trkpt lat="59.5576686412" lon="31.2701423652"><ele>233.26</ele><time>2026-09-02T19:46:10Z</time></trkpt><trkpt lat="59.5576686412" lon="31.2701423652"><ele>233.26</ele><time>2026-09-02T19:46:11Z</time></trkpt><trkpt lat="59.5576686412" lon="31.2701423652"><ele>233.26</ele><time>2026-09-02T19:46:12Z</time></trkpt><trkpt lat="59.5576686412" lon="31.2701423652"><ele>233.26</ele><time>2026-09-02T19:46:13Z</time></trkpt><trkpt lat="59.5576686412" lon="31.2701423652"><ele>233.26</ele><time>2026-09-02T19:46:14Z</time></trkpt><trkpt lat="59.5576686412" lon="31.2701423652"><ele>233.26</ele><time>2026-09-02T19:46:15Z</time></trkpt><trkpt lat="59.5576686412" lon="31.2701423652"><ele>233.26</ele><time>2026-09-02T19:46:16Z</time></trkpt><trkpt lat="59.5576686412" lon="31.2701423652"><ele>233.26</ele><time>2026-09-02T19:46:17Z</time></trkpt><trkpt lat="59.5576686412" lon="31.2701423652"><ele>233.26</ele><time>2026-09-02T19:46:18Z</time></trkpt><trkpt lat="59.5576686412" lon="31.2701423652"><ele>233.26</ele><time>2026-09-02T19:46:19Z</time></trkpt><trkpt lat="59.5576686412" lon="31.2701423652"><ele>233.26</ele><time>2026-09-02T19:46:20Z</time></trkpt><trkpt lat="59.5576686412" lon="31.2701423652"><ele>233.26</ele><time>2026-09-02T19:46:21Z</time></trkpt><trkpt lat="59.5576686412" lon="31.2701423652"><ele>233.26</ele><time>2026-09-02T19:46:22Z</time></trkpt><trkpt lat="59.5576686412" lon="31.2701423652"><ele>233.26</ele><time>2026-09-02T19:46:23Z</time></trkpt><trkpt lat="59.5576686412" lon="31.2701423652"><ele>233.26</ele><time>2026-09-02T19:46:24Z</time></trkpt><trkpt lat="59.5576686412" lon="31.2701423652"><ele>233.26</ele><time>2026-09-02T19:46:25Z</time></trkpt><trkpt lat="59.5576686412" lon="31.2701423652"><ele>233.26</ele><time>2026-09-02T19:46:26Z</time></trkpt><trkpt lat="59.5576686412" lon="31.2701423652"><ele>233.26</ele><time>2026-09-02T19:46:27Z</time></trkpt><trkpt lat="59.5576686412" lon="31.2701423652"><ele>233.26</ele><time>2026-09-02T19:46:28Z</time></trkpt><trkpt lat="59.5576686412" lon="31.2701423652"><ele>233.26</ele><time>2026-09-02T19:46:29Z</time></trkpt><trkpt lat="59.5576686412" lon="31.2701423652"><ele>233.26</ele><time>2026-09-02T19:46:30Z</time></trkpt><trkpt lat="59.5576686412" lon="31.2701423652"><ele>232.78</ele><time>2026-09-02T19:46:31Z</time></trkpt><trkpt lat="59.5576686412" lon="31.2701423652"><ele>232.78</ele><time>2026-09-02T19:46:32Z</time></trkpt><trkpt lat="59.5576686412" lon="31.2701423652"><ele>232.78</ele><time>2026-09-02T19:46:33Z</time></trkpt><trkpt lat="59.5576686412" lon="31.2701423652"><ele>232.78</ele><time>2026-09-02T19:46:34Z</time></trkpt><trkpt lat="59.5576686412" lon="31.2701423652"><ele>232.78</ele><time>2026-09-02T19:46:35Z</time></trkpt><trkpt lat="59.5576686412" lon="31.2701423652"><ele>232.78</ele><time>2026-09-02T19:46:36Z</time></trkpt><trkpt lat="59.5576686412" lon="31.2701423652"><ele>232.78</ele><time>2026-09-02T19:46:37Z</time></trkpt><trkpt lat="59.5576686412" lon="31.2701423652"><ele>232.78</ele><time>2026-09-02T19:46:38Z</time></trkpt><trkpt lat="59.5576686412" lon="31.2701423652"><ele>232.78</ele><time>2026-09-02T19:46:39Z</time></trkpt><trkpt lat="59.5576686412" lon="31.2701423652"><ele>232.78</ele><time>2026-09-02T19:46:40Z</time></trkpt><trkpt lat="59.5576686412" lon="31.2701423652"><ele>232.78</ele><time>2026-09-02T19:46:41Z</time></trkpt><trkpt lat="59.5576686412" lon="31.2701423652"><ele>232.78</ele><time>2026-09-02T19:46:42Z</time></trkpt><trkpt lat="59.5577129815" lon="31.2701367494"><ele>232.78</ele><time>2026-09-02T19:46:43Z</time></trkpt><trkpt lat="59.5577152446" lon="31.2701322231"><ele>232.78</ele><time>2026-09-02T19:46:44Z</time></trkpt><trkpt lat="59.5577181783" lon="31.2701262720"><ele>232.78</ele><time>2026-09-02T19:46:45Z</time></trkpt><trkpt lat="59.5577241294" lon="31.2701123580"><ele>232.78</ele><time>2026-09-02T19:46:46Z</time></trkpt><trkpt lat="59.5577268954" lon="31.2701010425"><ele>232.78</ele><time>2026-09-02T19:46:47Z</time></trkpt><trkpt lat="59.5577276498" lon="31.2700859550"><ele>232.78</ele><time>2026-09-02T19:46:48Z</time></trkpt><trkpt lat="59.5577307511" lon="31.2700784951"><ele>232.78</ele><time>2026-09-02T19:46:49Z</time></trkpt><trkpt lat="59.5577316731" lon="31.2700707838"><ele>232.78</ele><time>2026-09-02T19:46:50Z</time></trkpt><trkpt lat="59.5577336848" lon="31.2700607255"><ele>232.78</ele><time>2026-09-02T19:46:51Z</time></trkpt><trkpt lat="59.5577303320" lon="31.2700561993"><ele>232.78</ele><time>2026-09-02T19:46:52Z</time></trkpt><trkpt lat="59.5577267278" lon="31.2700464763"><ele>232.78</ele><time>2026-09-02T19:46:53Z</time></trkpt><trkpt lat="59.5577241294" lon="31.2700398546"><ele>233.26</ele><time>2026-09-02T19:46:54Z</time></trkpt><trkpt lat="59.5577241294" lon="31.2700398546"><ele>233.26</ele><time>2026-09-02T19:46:55Z</time></trkpt><trkpt lat="59.5577241294" lon="31.2700398546"><ele>233.26</ele><time>2026-09-02T19:46:56Z</time></trkpt><trkpt lat="59.5577241294" lon="31.2700398546"><ele>233.26</ele><time>2026-09-02T19:46:57Z</time></trkpt><trkpt lat="59.5577241294" lon="31.2700398546"><ele>233.26</ele><time>2026-09-02T19:46:58Z</time></trkpt><trkpt lat="59.5576987322" lon="31.2700097635"><ele>233.26</ele><time>2026-09-02T19:46:59Z</time></trkpt><trkpt lat="59.5576930325" lon="31.2700079195"><ele>233.74</ele><time>2026-09-02T19:47:00Z</time></trkpt><trkpt lat="59.5576847345" lon="31.2700083386"><ele>233.74</ele><time>2026-09-02T19:47:01Z</time></trkpt><trkpt lat="59.5576716587" lon="31.2700048182"><ele>233.74</ele><time>2026-09-02T19:47:02Z</time></trkpt><trkpt lat="59.5576628577" lon="31.2700048182"><ele>233.74</ele><time>2026-09-02T19:47:03Z</time></trkpt><trkpt lat="59.5576574933" lon="31.2700028904"><ele>233.74</ele><time>2026-09-02T19:47:04Z</time></trkpt><trkpt lat="59.5576496981" lon="31.2700065784"><ele>233.74</ele><time>2026-09-02T19:47:05Z</time></trkpt><trkpt lat="59.5576428249" lon="31.2700058240"><ele>233.74</ele><time>2026-09-02T19:47:06Z</time></trkpt><trkpt lat="59.5576356165" lon="31.2700058240"><ele>233.74</ele><time>2026-09-02T19:47:07Z</time></trkpt><trkpt lat="59.5576311741" lon="31.2700070813"><ele>233.74</ele><time>2026-09-02T19:47:08Z</time></trkpt><trkpt lat="59.5576308388" lon="31.2700118590"><ele>234.22</ele><time>2026-09-02T19:47:09Z</time></trkpt><trkpt lat="59.5576281566" lon="31.2700150441"><ele>234.22</ele><time>2026-09-02T19:47:10Z</time></trkpt><trkpt lat="59.5576281566" lon="31.2700150441"><ele>234.22</ele><time>2026-09-02T19:47:11Z</time></trkpt><trkpt lat="59.5576281566" lon="31.2700150441"><ele>234.22</ele><time>2026-09-02T19:47:12Z</time></trkpt><trkpt lat="59.5576281566" lon="31.2700150441"><ele>234.22</ele><time>2026-09-02T19:47:13Z</time></trkpt><trkpt lat="59.5576281566" lon="31.2700150441"><ele>234.22</ele><time>2026-09-02T19:47:14Z</time></trkpt><trkpt lat="59.5576281566" lon="31.2700150441"><ele>234.22</ele><time>2026-09-02T19:47:15Z</time></trkpt><trkpt lat="59.5576281566" lon="31.2700150441"><ele>234.22</ele><time>2026-09-02T19:47:16Z</time></trkpt><trkpt lat="59.5576281566" lon="31.2700150441"><ele>234.22</ele><time>2026-09-02T19:47:17Z</time></trkpt><trkpt lat="59.5576281566" lon="31.2700150441"><ele>234.22</ele><time>2026-09-02T19:47:18Z</time></trkpt><trkpt lat="59.5576281566" lon="31.2700150441"><ele>234.22</ele><time>2026-09-02T19:47:19Z</time></trkpt><trkpt lat="59.5576281566" lon="31.2700150441"><ele>234.22</ele><time>2026-09-02T19:47:20Z</time></trkpt><trkpt lat="59.5576281566" lon="31.2700150441"><ele>234.22</ele><time>2026-09-02T19:47:21Z</time></trkpt><trkpt lat="59.5576281566" lon="31.2700150441"><ele>234.22</ele><time>2026-09-02T19:47:22Z</time></trkpt><trkpt lat="59.5576281566" lon="31.2700150441"><ele>234.22</ele><time>2026-09-02T19:47:23Z</time></trkpt><trkpt lat="59.5576281566" lon="31.2700150441"><ele>234.22</ele><time>2026-09-02T19:47:24Z</time></trkpt><trkpt lat="59.5576281566" lon="31.2700150441"><ele>234.22</ele><time>2026-09-02T19:47:25Z</time></trkpt><trkpt lat="59.5576281566" lon="31.2700150441"><ele>234.22</ele><time>2026-09-02T19:47:26Z</time></trkpt><trkpt lat="59.5576281566" lon="31.2700150441"><ele>234.22</ele><time>2026-09-02T19:47:27Z</time></trkpt><trkpt lat="59.5576281566" lon="31.2700150441"><ele>234.22</ele><time>2026-09-02T19:47:28Z</time></trkpt><trkpt lat="59.5576281566" lon="31.2700150441"><ele>234.22</ele><time>2026-09-02T19:47:29Z</time></trkpt><trkpt lat="59.5576281566" lon="31.2700150441"><ele>234.22</ele><time>2026-09-02T19:47:30Z</time></trkpt><trkpt lat="59.5576281566" lon="31.2700150441"><ele>234.22</ele><time>2026-09-02T19:47:31Z</time></trkpt><trkpt lat="59.5576281566" lon="31.2700150441"><ele>234.22</ele><time>2026-09-02T19:47:32Z</time></trkpt><trkpt lat="59.5576281566" lon="31.2700150441"><ele>234.22</ele><time>2026-09-02T19:47:33Z</time></trkpt><trkpt lat="59.5576281566" lon="31.2700150441"><ele>234.22</ele><time>2026-09-02T19:47:34Z</time></trkpt><trkpt lat="59.5576281566" lon="31.2700150441"><ele>234.22</ele><time>2026-09-02T19:47:35Z</time></trkpt><trkpt lat="59.5576281566" lon="31.2700150441"><ele>234.22</ele><time>2026-09-02T19:47:36Z</time></trkpt><trkpt lat="59.5576281566" lon="31.2700150441"><ele>234.22</ele><time>2026-09-02T19:47:37Z</time></trkpt><trkpt lat="59.5576281566" lon="31.2700150441"><ele>234.22</ele><time>2026-09-02T19:47:38Z</time></trkpt><trkpt lat="59.5576281566" lon="31.2700150441"><ele>234.22</ele><time>2026-09-02T19:47:39Z</time></trkpt><trkpt lat="59.5576281566" lon="31.2700150441"><ele>234.22</ele><time>2026-09-02T19:47:40Z</time></trkpt><trkpt lat="59.5576281566" lon="31.2700150441"><ele>234.22</ele><time>2026-09-02T19:47:41Z</time></trkpt><trkpt lat="59.5576281566" lon="31.2700150441"><ele>234.22</ele><time>2026-09-02T19:47:42Z</time></trkpt><trkpt lat="59.5576281566" lon="31.2700150441"><ele>234.22</ele><time>2026-09-02T19:47:43Z</time></trkpt><trkpt lat="59.5576281566" lon="31.2700150441"><ele>234.22</ele><time>2026-09-02T19:47:44Z</time></trkpt><trkpt lat="59.5576281566" lon="31.2700150441"><ele>234.22</ele><time>2026-09-02T19:47:45Z</time></trkpt><trkpt lat="59.5576281566" lon="31.2700150441"><ele>234.22</ele><time>2026-09-02T19:47:46Z</time></trkpt><trkpt lat="59.5576281566" lon="31.2700150441"><ele>234.22</ele><time>2026-09-02T19:47:47Z</time></trkpt><trkpt lat="59.5576281566" lon="31.2700150441"><ele>234.22</ele><time>2026-09-02T19:47:48Z</time></trkpt><trkpt lat="59.5576281566" lon="31.2700150441"><ele>234.22</ele><time>2026-09-02T19:47:49Z</time></trkpt><trkpt lat="59.5576281566" lon="31.2700150441"><ele>234.22</ele><time>2026-09-02T19:47:50Z</time></trkpt><trkpt lat="59.5576281566" lon="31.2700150441"><ele>234.22</ele><time>2026-09-02T19:47:51Z</time></trkpt><trkpt lat="59.5576281566" lon="31.2700150441"><ele>234.22</ele><time>2026-09-02T19:47:52Z</time></trkpt><trkpt lat="59.5576281566" lon="31.2700150441"><ele>234.22</ele><time>2026-09-02T19:47:53Z</time></trkpt><trkpt lat="59.5576281566" lon="31.2700150441"><ele>234.22</ele><time>2026-09-02T19:47:54Z</time></trkpt><trkpt lat="59.5576281566" lon="31.2700150441"><ele>234.22</ele><time>2026-09-02T19:47:55Z</time></trkpt><trkpt lat="59.5576281566" lon="31.2700150441"><ele>234.22</ele><time>2026-09-02T19:47:56Z</time></trkpt><trkpt lat="59.5576281566" lon="31.2700150441"><ele>234.22</ele><time>2026-09-02T19:47:57Z</time></trkpt><trkpt lat="59.5576281566" lon="31.2700150441"><ele>234.22</ele><time>2026-09-02T19:47:58Z</time></trkpt><trkpt lat="59.5576281566" lon="31.2700150441"><ele>234.22</ele><time>2026-09-02T19:47:59Z</time></trkpt><trkpt lat="59.5576281566" lon="31.2700150441"><ele>234.22</ele><time>2026-09-02T19:48:00Z</time></trkpt><trkpt lat="59.5576281566" lon="31.2700150441"><ele>234.22</ele><time>2026-09-02T19:48:01Z</time></trkpt><trkpt lat="59.5576281566" lon="31.2700150441"><ele>234.22</ele><time>2026-09-02T19:48:02Z</time></trkpt><trkpt lat="59.5576281566" lon="31.2700150441"><ele>234.22</ele><time>2026-09-02T19:48:03Z</time></trkpt><trkpt lat="59.5576281566" lon="31.2700150441"><ele>234.22</ele><time>2026-09-02T19:48:04Z</time></trkpt><trkpt lat="59.5576281566" lon="31.2700150441"><ele>234.22</ele><time>2026-09-02T19:48:05Z</time></trkpt><trkpt lat="59.5576281566" lon="31.2700150441"><ele>234.22</ele><time>2026-09-02T19:48:06Z</time></trkpt><trkpt lat="59.5576281566" lon="31.2700150441"><ele>234.22</ele><time>2026-09-02T19:48:07Z</time></trkpt><trkpt lat="59.5576281566" lon="31.2700150441"><ele>234.22</ele><time>2026-09-02T19:48:08Z</time></trkpt><trkpt lat="59.5576281566" lon="31.2700150441"><ele>234.22</ele><time>2026-09-02T19:48:09Z</time></trkpt><trkpt lat="59.5576281566" lon="31.2700150441"><ele>234.22</ele><time>2026-09-02T19:48:10Z</time></trkpt><trkpt lat="59.5576281566" lon="31.2700150441"><ele>234.22</ele><time>2026-09-02T19:48:11Z</time></trkpt><trkpt lat="59.5576281566" lon="31.2700150441"><ele>234.22</ele><time>2026-09-02T19:48:12Z</time></trkpt><trkpt lat="59.5576281566" lon="31.2700150441"><ele>234.22</ele><time>2026-09-02T19:48:13Z</time></trkpt><trkpt lat="59.5576281566" lon="31.2700150441"><ele>234.22</ele><time>2026-09-02T19:48:14Z</time></trkpt><trkpt lat="59.5576281566" lon="31.2700150441"><ele>234.22</ele><time>2026-09-02T19:48:15Z</time></trkpt><trkpt lat="59.5576281566" lon="31.2700150441"><ele>234.22</ele><time>2026-09-02T19:48:16Z</time></trkpt><trkpt lat="59.5576281566" lon="31.2700150441"><ele>234.22</ele><time>2026-09-02T19:48:17Z</time></trkpt><trkpt lat="59.5576281566" lon="31.2700150441"><ele>234.22</ele><time>2026-09-02T19:48:18Z</time></trkpt><trkpt lat="59.5576281566" lon="31.2700150441"><ele>234.22</ele><time>2026-09-02T19:48:19Z</time></trkpt><trkpt lat="59.5576281566" lon="31.2700150441"><ele>234.22</ele><time>2026-09-02T19:48:20Z</time></trkpt><trkpt lat="59.5576281566" lon="31.2700150441"><ele>234.22</ele><time>2026-09-02T19:48:21Z</time></trkpt><trkpt lat="59.5576281566" lon="31.2700150441"><ele>234.22</ele><time>2026-09-02T19:48:22Z</time></trkpt><trkpt lat="59.5576281566" lon="31.2700150441"><ele>234.22</ele><time>2026-09-02T19:48:23Z</time></trkpt><trkpt lat="59.5576281566" lon="31.2700150441"><ele>234.22</ele><time>2026-09-02T19:48:24Z</time></trkpt><trkpt lat="59.5576281566" lon="31.2700150441"><ele>234.22</ele><time>2026-09-02T19:48:25Z</time></trkpt><trkpt lat="59.5576281566" lon="31.2700150441"><ele>234.22</ele><time>2026-09-02T19:48:26Z</time></trkpt><trkpt lat="59.5576281566" lon="31.2700150441"><ele>234.22</ele><time>2026-09-02T19:48:27Z</time></trkpt><trkpt lat="59.5576281566" lon="31.2700150441"><ele>234.22</ele><time>2026-09-02T19:48:28Z</time></trkpt><trkpt lat="59.5576281566" lon="31.2700150441"><ele>234.22</ele><time>2026-09-02T19:48:29Z</time></trkpt><trkpt lat="59.5576281566" lon="31.2700150441"><ele>234.22</ele><time>2026-09-02T19:48:30Z</time></trkpt><trkpt lat="59.5576281566" lon="31.2700150441"><ele>234.22</ele><time>2026-09-02T19:48:31Z</time></trkpt><trkpt lat="59.5576281566" lon="31.2700150441"><ele>234.22</ele><time>2026-09-02T19:48:32Z</time></trkpt><trkpt lat="59.5576281566" lon="31.2700150441"><ele>234.22</ele><time>2026-09-02T19:48:33Z</time></trkpt><trkpt lat="59.5576281566" lon="31.2700150441"><ele>234.22</ele><time>2026-09-02T19:48:34Z</time></trkpt><trkpt lat="59.5576281566" lon="31.2700150441"><ele>234.22</ele><time>2026-09-02T19:48:35Z</time></trkpt><trkpt lat="59.5576281566" lon="31.2700150441"><ele>234.22</ele><time>2026-09-02T19:48:36Z</time></trkpt><trkpt lat="59.5576281566" lon="31.2700150441"><ele>234.22</ele><time>2026-09-02T19:48:37Z</time></trkpt><trkpt lat="59.5576281566" lon="31.2700150441"><ele>234.22</ele><time>2026-09-02T19:48:38Z</time></trkpt><trkpt lat="59.5576281566" lon="31.2700150441"><ele>234.22</ele><time>2026-09-02T19:48:39Z</time></trkpt><trkpt lat="59.5576281566" lon="31.2700150441"><ele>234.22</ele><time>2026-09-02T19:48:40Z</time></trkpt><trkpt lat="59.5576281566" lon="31.2700150441"><ele>234.22</ele><time>2026-09-02T19:48:41Z</time></trkpt><trkpt lat="59.5576281566" lon="31.2700150441"><ele>234.22</ele><time>2026-09-02T19:48:42Z</time></trkpt><trkpt lat="59.5576281566" lon="31.2700150441"><ele>234.22</ele><time>2026-09-02T19:48:43Z</time></trkpt><trkpt lat="59.5576281566" lon="31.2700150441"><ele>234.22</ele><time>2026-09-02T19:48:44Z</time></trkpt><trkpt lat="59.5576281566" lon="31.2700150441"><ele>234.22</ele><time>2026-09-02T19:48:45Z</time></trkpt><trkpt lat="59.5576281566" lon="31.2700150441"><ele>234.22</ele><time>2026-09-02T19:48:46Z</time></trkpt><trkpt lat="59.5576281566" lon="31.2700150441"><ele>234.22</ele><time>2026-09-02T19:48:47Z</time></trkpt><trkpt lat="59.5576281566" lon="31.2700150441"><ele>234.22</ele><time>2026-09-02T19:48:48Z</time></trkpt><trkpt lat="59.5576281566" lon="31.2700150441"><ele>234.22</ele><time>2026-09-02T19:48:49Z</time></trkpt><trkpt lat="59.5576281566" lon="31.2700150441"><ele>234.22</ele><time>2026-09-02T19:48:50Z</time></trkpt><trkpt lat="59.5576281566" lon="31.2700150441"><ele>234.22</ele><time>2026-09-02T19:48:51Z</time></trkpt><trkpt lat="59.5576281566" lon="31.2700150441"><ele>234.22</ele><time>2026-09-02T19:48:52Z</time></trkpt><trkpt lat="59.5576281566" lon="31.2700150441"><ele>234.22</ele><time>2026-09-02T19:48:53Z</time></trkpt><trkpt lat="59.5576281566" lon="31.2700150441"><ele>234.22</ele><time>2026-09-02T19:48:54Z</time></trkpt><trkpt lat="59.5576281566" lon="31.2700150441"><ele>234.22</ele><time>2026-09-02T19:48:55Z</time></trkpt><trkpt lat="59.5576281566" lon="31.2700150441"><ele>234.22</ele><time>2026-09-02T19:48:56Z</time></trkpt><trkpt lat="59.5576281566" lon="31.2700150441"><ele>234.22</ele><time>2026-09-02T19:48:57Z</time></trkpt><trkpt lat="59.5576281566" lon="31.2700150441"><ele>234.22</ele><time>2026-09-02T19:48:58Z</time></trkpt><trkpt lat="59.5576281566" lon="31.2700150441"><ele>234.22</ele><time>2026-09-02T19:48:59Z</time></trkpt><trkpt lat="59.5576281566" lon="31.2700150441"><ele>234.22</ele><time>2026-09-02T19:49:00Z</time></trkpt><trkpt lat="59.5576281566" lon="31.2700150441"><ele>234.22</ele><time>2026-09-02T19:49:01Z</time></trkpt><trkpt lat="59.5576281566" lon="31.2700150441"><ele>234.22</ele><time>2026-09-02T19:49:02Z</time></trkpt><trkpt lat="59.5576281566" lon="31.2700150441"><ele>234.22</ele><time>2026-09-02T19:49:03Z</time></trkpt><trkpt lat="59.5576281566" lon="31.2700150441"><ele>234.22</ele><time>2026-09-02T19:49:04Z</time></trkpt><trkpt lat="59.5576281566" lon="31.2700150441"><ele>234.22</ele><time>2026-09-02T19:49:05Z</time></trkpt><trkpt lat="59.5576281566" lon="31.2700150441"><ele>234.22</ele><time>2026-09-02T19:49:06Z</time></trkpt><trkpt lat="59.5576281566" lon="31.2700150441"><ele>234.22</ele><time>2026-09-02T19:49:07Z</time></trkpt><trkpt lat="59.5576281566" lon="31.2700150441"><ele>234.22</ele><time>2026-09-02T19:49:08Z</time></trkpt><trkpt lat="59.5576281566" lon="31.2700150441"><ele>234.22</ele><time>2026-09-02T19:49:09Z</time></trkpt><trkpt lat="59.5576281566" lon="31.2700150441"><ele>234.22</ele><time>2026-09-02T19:49:10Z</time></trkpt><trkpt lat="59.5576281566" lon="31.2700150441"><ele>234.22</ele><time>2026-09-02T19:49:11Z</time></trkpt><trkpt lat="59.5576281566" lon="31.2700150441"><ele>234.22</ele><time>2026-09-02T19:49:12Z</time></trkpt><trkpt lat="59.5576281566" lon="31.2700150441"><ele>234.22</ele><time>2026-09-02T19:49:13Z</time></trkpt><trkpt lat="59.5576281566" lon="31.2700150441"><ele>234.22</ele><time>2026-09-02T19:49:14Z</time></trkpt><trkpt lat="59.5576281566" lon="31.2700150441"><ele>234.22</ele><time>2026-09-02T19:49:15Z</time></trkpt><trkpt lat="59.5576281566" lon="31.2700150441"><ele>234.22</ele><time>2026-09-02T19:49:16Z</time></trkpt><trkpt lat="59.5576281566" lon="31.2700150441"><ele>234.22</ele><time>2026-09-02T19:49:17Z</time></trkpt><trkpt lat="59.5576281566" lon="31.2700150441"><ele>234.22</ele><time>2026-09-02T19:49:18Z</time></trkpt><trkpt lat="59.5576281566" lon="31.2700150441"><ele>234.22</ele><time>2026-09-02T19:49:19Z</time></trkpt><trkpt lat="59.5576281566" lon="31.2700150441"><ele>234.22</ele><time>2026-09-02T19:49:20Z</time></trkpt><trkpt lat="59.5576281566" lon="31.2700150441"><ele>234.22</ele><time>2026-09-02T19:49:21Z</time></trkpt><trkpt lat="59.5576281566" lon="31.2700150441"><ele>234.22</ele><time>2026-09-02T19:49:22Z</time></trkpt><trkpt lat="59.5576281566" lon="31.2700150441"><ele>234.22</ele><time>2026-09-02T19:49:23Z</time></trkpt><trkpt lat="59.5576281566" lon="31.2700150441"><ele>234.22</ele><time>2026-09-02T19:49:24Z</time></trkpt><trkpt lat="59.5576281566" lon="31.2700150441"><ele>234.22</ele><time>2026-09-02T19:49:25Z</time></trkpt><trkpt lat="59.5576281566" lon="31.2700150441"><ele>234.22</ele><time>2026-09-02T19:49:26Z</time></trkpt><trkpt lat="59.5576281566" lon="31.2700150441"><ele>234.22</ele><time>2026-09-02T19:49:27Z</time></trkpt><trkpt lat="59.5576281566" lon="31.2700150441"><ele>234.22</ele><time>2026-09-02T19:49:28Z</time></trkpt><trkpt lat="59.5576281566" lon="31.2700150441"><ele>234.22</ele><time>2026-09-02T19:49:29Z</time></trkpt><trkpt lat="59.5576281566" lon="31.2700150441"><ele>234.22</ele><time>2026-09-02T19:49:30Z</time></trkpt><trkpt lat="59.5576281566" lon="31.2700150441"><ele>234.22</ele><time>2026-09-02T19:49:31Z</time></trkpt><trkpt lat="59.5576281566" lon="31.2700150441"><ele>234.22</ele><time>2026-09-02T19:49:32Z</time></trkpt><trkpt lat="59.5576281566" lon="31.2700150441"><ele>234.22</ele><time>2026-09-02T19:49:33Z</time></trkpt><trkpt lat="59.5576281566" lon="31.2700150441"><ele>234.22</ele><time>2026-09-02T19:49:34Z</time></trkpt><trkpt lat="59.5576281566" lon="31.2700150441"><ele>234.22</ele><time>2026-09-02T19:49:35Z</time></trkpt><trkpt lat="59.5576281566" lon="31.2700150441"><ele>234.22</ele><time>2026-09-02T19:49:36Z</time></trkpt><trkpt lat="59.5576281566" lon="31.2700150441"><ele>234.22</ele><time>2026-09-02T19:49:37Z</time></trkpt><trkpt lat="59.5576281566" lon="31.2700150441"><ele>234.22</ele><time>2026-09-02T19:49:38Z</time></trkpt><trkpt lat="59.5576281566" lon="31.2700150441"><ele>234.22</ele><time>2026-09-02T19:49:39Z</time></trkpt><trkpt lat="59.5576281566" lon="31.2700150441"><ele>234.22</ele><time>2026-09-02T19:49:40Z</time></trkpt><trkpt lat="59.5576281566" lon="31.2700150441"><ele>234.22</ele><time>2026-09-02T19:49:41Z</time></trkpt><trkpt lat="59.5576281566" lon="31.2700150441"><ele>234.22</ele><time>2026-09-02T19:49:42Z</time></trkpt><trkpt lat="59.5576281566" lon="31.2700150441"><ele>234.22</ele><time>2026-09-02T19:49:43Z</time></trkpt><trkpt lat="59.5576281566" lon="31.2700150441"><ele>234.22</ele><time>2026-09-02T19:49:44Z</time></trkpt><trkpt lat="59.5576281566" lon="31.2700150441"><ele>234.22</ele><time>2026-09-02T19:49:45Z</time></trkpt><trkpt lat="59.5576407295" lon="31.2699427921"><ele>234.22</ele><time>2026-09-02T19:49:46Z</time></trkpt><trkpt lat="59.5576431602" lon="31.2699329853"><ele>234.22</ele><time>2026-09-02T19:49:47Z</time></trkpt><trkpt lat="59.5576490276" lon="31.2699226756"><ele>234.22</ele><time>2026-09-02T19:49:48Z</time></trkpt><trkpt lat="59.5576527994" lon="31.2699118629"><ele>234.22</ele><time>2026-09-02T19:49:49Z</time></trkpt><trkpt lat="59.5576564875" lon="31.2699013855"><ele>234.22</ele><time>2026-09-02T19:49:50Z</time></trkpt><trkpt lat="59.5576614328" lon="31.2698905729"><ele>234.22</ele><time>2026-09-02T19:49:51Z</time></trkpt><trkpt lat="59.5576668810" lon="31.2698804308"><ele>234.22</ele><time>2026-09-02T19:49:52Z</time></trkpt><trkpt lat="59.5576728322" lon="31.2698732223"><ele>234.22</ele><time>2026-09-02T19:49:53Z</time></trkpt><trkpt lat="59.5576785319" lon="31.2698677741"><ele>234.22</ele><time>2026-09-02T19:49:54Z</time></trkpt><trkpt lat="59.5576834772" lon="31.2698626611"><ele>234.22</ele><time>2026-09-02T19:49:55Z</time></trkpt><trkpt lat="59.5576868299" lon="31.2698615715"><ele>234.22</ele><time>2026-09-02T19:49:56Z</time></trkpt><trkpt lat="59.5576917753" lon="31.2698630802"><ele>234.22</ele><time>2026-09-02T19:49:57Z</time></trkpt><trkpt lat="59.5576955471" lon="31.2698617391"><ele>234.22</ele><time>2026-09-02T19:49:58Z</time></trkpt><trkpt lat="59.5577021688" lon="31.2698599789"><ele>234.22</ele><time>2026-09-02T19:49:59Z</time></trkpt><trkpt lat="59.5577114727" lon="31.2698640861"><ele>234.22</ele><time>2026-09-02T19:50:00Z</time></trkpt><trkpt lat="59.5577170886" lon="31.2698624935"><ele>234.22</ele><time>2026-09-02T19:50:01Z</time></trkpt><trkpt lat="59.5577254705" lon="31.2698545307"><ele>234.22</ele><time>2026-09-02T19:50:02Z</time></trkpt><trkpt lat="59.5577318408" lon="31.2698509265"><ele>234.22</ele><time>2026-09-02T19:50:03Z</time></trkpt><trkpt lat="59.5577396359" lon="31.2698432989"><ele>234.22</ele><time>2026-09-02T19:50:04Z</time></trkpt><trkpt lat="59.5577455871" lon="31.2698346656"><ele>234.22</ele><time>2026-09-02T19:50:05Z</time></trkpt><trkpt lat="59.5577532984" lon="31.2698290497"><ele>234.22</ele><time>2026-09-02T19:50:06Z</time></trkpt><trkpt lat="59.5577599201" lon="31.2698218413"><ele>234.22</ele><time>2026-09-02T19:50:07Z</time></trkpt><trkpt lat="59.5577682182" lon="31.2698165607"><ele>234.22</ele><time>2026-09-02T19:50:08Z</time></trkpt><trkpt lat="59.5577758458" lon="31.2698082626"><ele>234.22</ele><time>2026-09-02T19:50:09Z</time></trkpt><trkpt lat="59.5577825513" lon="31.2698003836"><ele>234.22</ele><time>2026-09-02T19:50:10Z</time></trkpt><trkpt lat="59.5577909332" lon="31.2697923370"><ele>234.22</ele><time>2026-09-02T19:50:11Z</time></trkpt><trkpt lat="59.5577986445" lon="31.2697864696"><ele>234.22</ele><time>2026-09-02T19:50:12Z</time></trkpt><trkpt lat="59.5578043442" lon="31.2697867211"><ele>234.22</ele><time>2026-09-02T19:50:13Z</time></trkpt><trkpt lat="59.5578087866" lon="31.2697827816"><ele>234.70</ele><time>2026-09-02T19:50:14Z</time></trkpt><trkpt lat="59.5578160789" lon="31.2697779201"><ele>234.70</ele><time>2026-09-02T19:50:15Z</time></trkpt><trkpt lat="59.5578209404" lon="31.2697714660"><ele>234.70</ele><time>2026-09-02T19:50:16Z</time></trkpt><trkpt lat="59.5578212757" lon="31.2697728910"><ele>234.70</ele><time>2026-09-02T19:50:17Z</time></trkpt><trkpt lat="59.5578256343" lon="31.2697659340"><ele>234.70</ele><time>2026-09-02T19:50:18Z</time></trkpt><trkpt lat="59.5578308310" lon="31.2697576359"><ele>234.70</ele><time>2026-09-02T19:50:19Z</time></trkpt><trkpt lat="59.5578345191" lon="31.2697469909"><ele>234.70</ele><time>2026-09-02T19:50:20Z</time></trkpt><trkpt lat="59.5578381233" lon="31.2697308976"><ele>234.70</ele><time>2026-09-02T19:50:21Z</time></trkpt><trkpt lat="59.5578428172" lon="31.2697149720"><ele>234.70</ele><time>2026-09-02T19:50:22Z</time></trkpt><trkpt lat="59.5578485169" lon="31.2697026506"><ele>234.70</ele><time>2026-09-02T19:50:23Z</time></trkpt><trkpt lat="59.5578532945" lon="31.2696940172"><ele>234.70</ele><time>2026-09-02T19:50:24Z</time></trkpt><trkpt lat="59.5578579884" lon="31.2696829531"><ele>234.70</ele><time>2026-09-02T19:50:25Z</time></trkpt><trkpt lat="59.5578655321" lon="31.2696724758"><ele>235.18</ele><time>2026-09-02T19:50:26Z</time></trkpt><trkpt lat="59.5578704774" lon="31.2696618307"><ele>235.18</ele><time>2026-09-02T19:50:27Z</time></trkpt><trkpt lat="59.5578756742" lon="31.2696532812"><ele>235.18</ele><time>2026-09-02T19:50:28Z</time></trkpt><trkpt lat="59.5578814577" lon="31.2696422171"><ele>235.18</ele><time>2026-09-02T19:50:29Z</time></trkpt><trkpt lat="59.5578869898" lon="31.2696300633"><ele>235.18</ele><time>2026-09-02T19:50:30Z</time></trkpt><trkpt lat="59.5578946173" lon="31.2696136348"><ele>235.18</ele><time>2026-09-02T19:50:31Z</time></trkpt><trkpt lat="59.5579031669" lon="31.2696012296"><ele>235.18</ele><time>2026-09-02T19:50:32Z</time></trkpt><trkpt lat="59.5579103753" lon="31.2695908360"><ele>235.18</ele><time>2026-09-02T19:50:33Z</time></trkpt><trkpt lat="59.5579171646" lon="31.2695807777"><ele>235.18</ele><time>2026-09-02T19:50:34Z</time></trkpt><trkpt lat="59.5579227805" lon="31.2695723958"><ele>235.18</ele><time>2026-09-02T19:50:35Z</time></trkpt><trkpt lat="59.5579246245" lon="31.2695653550"><ele>235.18</ele><time>2026-09-02T19:50:36Z</time></trkpt><trkpt lat="59.5579249598" lon="31.2695613317"><ele>235.18</ele><time>2026-09-02T19:50:37Z</time></trkpt><trkpt lat="59.5579220261" lon="31.2695526984"><ele>235.18</ele><time>2026-09-02T19:50:38Z</time></trkpt><trkpt lat="59.5579255465" lon="31.2695456576"><ele>235.18</ele><time>2026-09-02T19:50:39Z</time></trkpt><trkpt lat="59.5579255465" lon="31.2695456576"><ele>235.18</ele><time>2026-09-02T19:50:40Z</time></trkpt><trkpt lat="59.5579255465" lon="31.2695456576"><ele>235.18</ele><time>2026-09-02T19:50:41Z</time></trkpt><trkpt lat="59.5579255465" lon="31.2695456576"><ele>235.18</ele><time>2026-09-02T19:50:42Z</time></trkpt><trkpt lat="59.5579255465" lon="31.2695456576"><ele>235.18</ele><time>2026-09-02T19:50:43Z</time></trkpt><trkpt lat="59.5579255465" lon="31.2695456576"><ele>235.18</ele><time>2026-09-02T19:50:44Z</time></trkpt><trkpt lat="59.5579255465" lon="31.2695456576"><ele>235.18</ele><time>2026-09-02T19:50:45Z</time></trkpt><trkpt lat="59.5579398796" lon="31.2695244513"><ele>235.18</ele><time>2026-09-02T19:50:46Z</time></trkpt><trkpt lat="59.5579470880" lon="31.2695157342"><ele>235.18</ele><time>2026-09-02T19:50:47Z</time></trkpt><trkpt lat="59.5579546317" lon="31.2695133872"><ele>235.18</ele><time>2026-09-02T19:50:48Z</time></trkpt><trkpt lat="59.5579619240" lon="31.2695116270"><ele>235.18</ele><time>2026-09-02T19:50:49Z</time></trkpt><trkpt lat="59.5579669531" lon="31.2695094477"><ele>235.18</ele><time>2026-09-02T19:50:50Z</time></trkpt><trkpt lat="59.5579745807" lon="31.2695115432"><ele>235.18</ele><time>2026-09-02T19:50:51Z</time></trkpt><trkpt lat="59.5579815377" lon="31.2695158180"><ele>235.18</ele><time>2026-09-02T19:50:52Z</time></trkpt><trkpt lat="59.5579920989" lon="31.2695177458"><ele>235.18</ele><time>2026-09-02T19:50:53Z</time></trkpt><trkpt lat="59.5580022410" lon="31.2695157342"><ele>235.18</ele><time>2026-09-02T19:50:54Z</time></trkpt><trkpt lat="59.5580077730" lon="31.2695118785"><ele>235.18</ele><time>2026-09-02T19:50:55Z</time></trkpt><trkpt lat="59.5580160711" lon="31.2695084419"><ele>235.18</ele><time>2026-09-02T19:50:56Z</time></trkpt><trkpt lat="59.5580218546" lon="31.2695089448"><ele>235.18</ele><time>2026-09-02T19:50:57Z</time></trkpt><trkpt lat="59.5580285601" lon="31.2695124652"><ele>235.18</ele><time>2026-09-02T19:50:58Z</time></trkpt><trkpt lat="59.5580371935" lon="31.2695154827"><ele>235.18</ele><time>2026-09-02T19:50:59Z</time></trkpt><trkpt lat="59.5580445696" lon="31.2695151474"><ele>234.70</ele><time>2026-09-02T19:51:00Z</time></trkpt><trkpt lat="59.5580556337" lon="31.2695183326"><ele>234.70</ele><time>2026-09-02T19:51:01Z</time></trkpt><trkpt lat="59.5580642670" lon="31.2695216853"><ele>234.70</ele><time>2026-09-02T19:51:02Z</time></trkpt><trkpt lat="59.5580761693" lon="31.2695203442"><ele>234.70</ele><time>2026-09-02T19:51:03Z</time></trkpt><trkpt lat="59.5580853894" lon="31.2695259601"><ele>234.70</ele><time>2026-09-02T19:51:04Z</time></trkpt><trkpt lat="59.5580918435" lon="31.2695266306"><ele>234.70</ele><time>2026-09-02T19:51:05Z</time></trkpt><trkpt lat="59.5580988843" lon="31.2695168238"><ele>234.70</ele><time>2026-09-02T19:51:06Z</time></trkpt><trkpt lat="59.5581050869" lon="31.2695067655"><ele>234.70</ele><time>2026-09-02T19:51:07Z</time></trkpt><trkpt lat="59.5581124630" lon="31.2694940250"><ele>234.70</ele><time>2026-09-02T19:51:08Z</time></trkpt><trkpt lat="59.5581185818" lon="31.2694794405"><ele>234.70</ele><time>2026-09-02T19:51:09Z</time></trkpt><trkpt lat="59.5581201743" lon="31.2694675382"><ele>234.70</ele><time>2026-09-02T19:51:10Z</time></trkpt><trkpt lat="59.5581190847" lon="31.2694549654"><ele>234.70</ele><time>2026-09-02T19:51:11Z</time></trkpt><trkpt lat="59.5581180789" lon="31.2694452424"><ele>234.70</ele><time>2026-09-02T19:51:12Z</time></trkpt><trkpt lat="59.5581152290" lon="31.2694345973"><ele>234.70</ele><time>2026-09-02T19:51:13Z</time></trkpt><trkpt lat="59.5581122953" lon="31.2694259640"><ele>234.70</ele><time>2026-09-02T19:51:14Z</time></trkpt><trkpt lat="59.5581091940" lon="31.2694148999"><ele>234.70</ele><time>2026-09-02T19:51:15Z</time></trkpt><trkpt lat="59.5581075177" lon="31.2694037519"><ele>234.70</ele><time>2026-09-02T19:51:16Z</time></trkpt><trkpt lat="59.5581034943" lon="31.2693915982"><ele>234.70</ele><time>2026-09-02T19:51:17Z</time></trkpt><trkpt lat="59.5581003930" lon="31.2693794444"><ele>234.70</ele><time>2026-09-02T19:51:18Z</time></trkpt><trkpt lat="59.5580992196" lon="31.2693722360"><ele>234.70</ele><time>2026-09-02T19:51:19Z</time></trkpt><trkpt lat="59.5580996387" lon="31.2693630997"><ele>234.70</ele><time>2026-09-02T19:51:20Z</time></trkpt><trkpt lat="59.5580966212" lon="31.2693557236"><ele>234.70</ele><time>2026-09-02T19:51:21Z</time></trkpt><trkpt lat="59.5580947772" lon="31.2693451624"><ele>234.70</ele><time>2026-09-02T19:51:22Z</time></trkpt><trkpt lat="59.5580920950" lon="31.2693334278"><ele>235.18</ele><time>2026-09-02T19:51:23Z</time></trkpt><trkpt lat="59.5580919273" lon="31.2693232857"><ele>235.18</ele><time>2026-09-02T19:51:24Z</time></trkpt><trkpt lat="59.5580933522" lon="31.2693081982"><ele>235.18</ele><time>2026-09-02T19:51:25Z</time></trkpt><trkpt lat="59.5580924302" lon="31.2692916859"><ele>235.18</ele><time>2026-09-02T19:51:26Z</time></trkpt><trkpt lat="59.5580929331" lon="31.2692784425"><ele>235.18</ele><time>2026-09-02T19:51:27Z</time></trkpt><trkpt lat="59.5580922626" lon="31.2692642771"><ele>235.18</ele><time>2026-09-02T19:51:28Z</time></trkpt><trkpt lat="59.5580904186" lon="31.2692505307"><ele>235.18</ele><time>2026-09-02T19:51:29Z</time></trkpt><trkpt lat="59.5580883231" lon="31.2692385446"><ele>235.18</ele><time>2026-09-02T19:51:30Z</time></trkpt><trkpt lat="59.5580889937" lon="31.2692245468"><ele>235.18</ele><time>2026-09-02T19:51:31Z</time></trkpt><trkpt lat="59.5580907539" lon="31.2692096271"><ele>235.18</ele><time>2026-09-02T19:51:32Z</time></trkpt><trkpt lat="59.5580893289" lon="31.2691966351"><ele>235.18</ele><time>2026-09-02T19:51:33Z</time></trkpt><trkpt lat="59.5580899995" lon="31.2691880856"><ele>235.18</ele><time>2026-09-02T19:51:34Z</time></trkpt><trkpt lat="59.5580915920" lon="31.2691822182"><ele>235.18</ele><time>2026-09-02T19:51:35Z</time></trkpt><trkpt lat="59.5580931846" lon="31.2691777758"><ele>235.18</ele><time>2026-09-02T19:51:36Z</time></trkpt><trkpt lat="59.5580920950" lon="31.2691708189"><ele>235.18</ele><time>2026-09-02T19:51:37Z</time></trkpt><trkpt lat="59.5580923464" lon="31.2691601738"><ele>235.18</ele><time>2026-09-02T19:51:38Z</time></trkpt><trkpt lat="59.5580923464" lon="31.2691601738"><ele>235.18</ele><time>2026-09-02T19:51:39Z</time></trkpt><trkpt lat="59.5580923464" lon="31.2691601738"><ele>235.66</ele><time>2026-09-02T19:51:40Z</time></trkpt><trkpt lat="59.5580923464" lon="31.2691601738"><ele>235.66</ele><time>2026-09-02T19:51:41Z</time></trkpt><trkpt lat="59.5580923464" lon="31.2691601738"><ele>235.66</ele><time>2026-09-02T19:51:42Z</time></trkpt><trkpt lat="59.5580923464" lon="31.2691601738"><ele>236.14</ele><time>2026-09-02T19:51:43Z</time></trkpt><trkpt lat="59.5580923464" lon="31.2691601738"><ele>236.62</ele><time>2026-09-02T19:51:44Z</time></trkpt><trkpt lat="59.5580923464" lon="31.2691601738"><ele>236.62</ele><time>2026-09-02T19:51:45Z</time></trkpt><trkpt lat="59.5580923464" lon="31.2691601738"><ele>236.62</ele><time>2026-09-02T19:51:46Z</time></trkpt><trkpt lat="59.5580923464" lon="31.2691601738"><ele>237.10</ele><time>2026-09-02T19:51:47Z</time></trkpt><trkpt lat="59.5580923464" lon="31.2691601738"><ele>237.10</ele><time>2026-09-02T19:51:48Z</time></trkpt><trkpt lat="59.5580923464" lon="31.2691601738"><ele>237.58</ele><time>2026-09-02T19:51:49Z</time></trkpt><trkpt lat="59.5580998901" lon="31.2690820545"><ele>237.58</ele><time>2026-09-02T19:51:50Z</time></trkpt><trkpt lat="59.5581008960" lon="31.2690760195"><ele>237.58</ele><time>2026-09-02T19:51:51Z</time></trkpt><trkpt lat="59.5581004769" lon="31.2690701522"><ele>237.58</ele><time>2026-09-02T19:51:52Z</time></trkpt><trkpt lat="59.5581000578" lon="31.2690617703"><ele>237.58</ele><time>2026-09-02T19:51:53Z</time></trkpt><trkpt lat="59.5580988843" lon="31.2690462638"><ele>237.58</ele><time>2026-09-02T19:51:54Z</time></trkpt><trkpt lat="59.5580969565" lon="31.2690355349"><ele>238.06</ele><time>2026-09-02T19:51:55Z</time></trkpt><trkpt lat="59.5580967888" lon="31.2690291647"><ele>238.06</ele><time>2026-09-02T19:51:56Z</time></trkpt><trkpt lat="59.5580954477" lon="31.2690236326"><ele>238.06</ele><time>2026-09-02T19:51:57Z</time></trkpt><trkpt lat="59.5580932684" lon="31.2690169271"><ele>238.06</ele><time>2026-09-02T19:51:58Z</time></trkpt><trkpt lat="59.5580932684" lon="31.2690169271"><ele>238.06</ele><time>2026-09-02T19:51:59Z</time></trkpt><trkpt lat="59.5580932684" lon="31.2690169271"><ele>238.06</ele><time>2026-09-02T19:52:00Z</time></trkpt><trkpt lat="59.5580932684" lon="31.2690169271"><ele>238.06</ele><time>2026-09-02T19:52:01Z</time></trkpt><trkpt lat="59.5580932684" lon="31.2690169271"><ele>238.06</ele><time>2026-09-02T19:52:02Z</time></trkpt><trkpt lat="59.5580932684" lon="31.2690169271"><ele>238.54</ele><time>2026-09-02T19:52:03Z</time></trkpt><trkpt lat="59.5580932684" lon="31.2690169271"><ele>238.54</ele><time>2026-09-02T19:52:04Z</time></trkpt><trkpt lat="59.5580932684" lon="31.2690169271"><ele>238.54</ele><time>2026-09-02T19:52:05Z</time></trkpt><trkpt lat="59.5580932684" lon="31.2690169271"><ele>238.54</ele><time>2026-09-02T19:52:06Z</time></trkpt><trkpt lat="59.5580932684" lon="31.2690169271"><ele>238.54</ele><time>2026-09-02T19:52:07Z</time></trkpt><trkpt lat="59.5580932684" lon="31.2690169271"><ele>238.54</ele><time>2026-09-02T19:52:08Z</time></trkpt><trkpt lat="59.5580932684" lon="31.2690169271"><ele>238.54</ele><time>2026-09-02T19:52:09Z</time></trkpt><trkpt lat="59.5580932684" lon="31.2690169271"><ele>238.54</ele><time>2026-09-02T19:52:10Z</time></trkpt><trkpt lat="59.5580932684" lon="31.2690169271"><ele>238.54</ele><time>2026-09-02T19:52:11Z</time></trkpt><trkpt lat="59.5580932684" lon="31.2690169271"><ele>238.54</ele><time>2026-09-02T19:52:12Z</time></trkpt><trkpt lat="59.5580932684" lon="31.2690169271"><ele>238.54</ele><time>2026-09-02T19:52:13Z</time></trkpt><trkpt lat="59.5581383631" lon="31.2689691503"><ele>238.54</ele><time>2026-09-02T19:52:14Z</time></trkpt><trkpt lat="59.5581460744" lon="31.2689622771"><ele>238.54</ele><time>2026-09-02T19:52:15Z</time></trkpt><trkpt lat="59.5581506845" lon="31.2689614389"><ele>238.54</ele><time>2026-09-02T19:52:16Z</time></trkpt><trkpt lat="59.5581524447" lon="31.2689589243"><ele>238.54</ele><time>2026-09-02T19:52:17Z</time></trkpt><trkpt lat="59.5581564680" lon="31.2689572480"><ele>238.54</ele><time>2026-09-02T19:52:18Z</time></trkpt><trkpt lat="59.5581564680" lon="31.2689581700"><ele>238.54</ele><time>2026-09-02T19:52:19Z</time></trkpt><trkpt lat="59.5581576414" lon="31.2689584214"><ele>238.54</ele><time>2026-09-02T19:52:20Z</time></trkpt><trkpt lat="59.5581576414" lon="31.2689584214"><ele>238.54</ele><time>2026-09-02T19:52:21Z</time></trkpt><trkpt lat="59.5581576414" lon="31.2689584214"><ele>238.54</ele><time>2026-09-02T19:52:22Z</time></trkpt><trkpt lat="59.5581576414" lon="31.2689584214"><ele>238.54</ele><time>2026-09-02T19:52:23Z</time></trkpt><trkpt lat="59.5581576414" lon="31.2689584214"><ele>238.54</ele><time>2026-09-02T19:52:24Z</time></trkpt><trkpt lat="59.5581576414" lon="31.2689584214"><ele>238.54</ele><time>2026-09-02T19:52:25Z</time></trkpt><trkpt lat="59.5581576414" lon="31.2689584214"><ele>238.54</ele><time>2026-09-02T19:52:26Z</time></trkpt><trkpt lat="59.5581576414" lon="31.2689584214"><ele>238.54</ele><time>2026-09-02T19:52:27Z</time></trkpt><trkpt lat="59.5581576414" lon="31.2689584214"><ele>238.54</ele><time>2026-09-02T19:52:28Z</time></trkpt><trkpt lat="59.5581576414" lon="31.2689584214"><ele>238.54</ele><time>2026-09-02T19:52:29Z</time></trkpt><trkpt lat="59.5581576414" lon="31.2689584214"><ele>238.54</ele><time>2026-09-02T19:52:30Z</time></trkpt><trkpt lat="59.5581576414" lon="31.2689584214"><ele>238.54</ele><time>2026-09-02T19:52:31Z</time></trkpt><trkpt lat="59.5581576414" lon="31.2689584214"><ele>238.54</ele><time>2026-09-02T19:52:32Z</time></trkpt><trkpt lat="59.5581576414" lon="31.2689584214"><ele>238.54</ele><time>2026-09-02T19:52:33Z</time></trkpt><trkpt lat="59.5581576414" lon="31.2689584214"><ele>238.54</ele><time>2026-09-02T19:52:34Z</time></trkpt><trkpt lat="59.5581576414" lon="31.2689584214"><ele>238.54</ele><time>2026-09-02T19:52:35Z</time></trkpt><trkpt lat="59.5581576414" lon="31.2689584214"><ele>238.54</ele><time>2026-09-02T19:52:36Z</time></trkpt><trkpt lat="59.5581576414" lon="31.2689584214"><ele>238.54</ele><time>2026-09-02T19:52:37Z</time></trkpt><trkpt lat="59.5581576414" lon="31.2689584214"><ele>238.54</ele><time>2026-09-02T19:52:38Z</time></trkpt><trkpt lat="59.5581576414" lon="31.2689584214"><ele>238.54</ele><time>2026-09-02T19:52:39Z</time></trkpt><trkpt lat="59.5581576414" lon="31.2689584214"><ele>238.54</ele><time>2026-09-02T19:52:40Z</time></trkpt><trkpt lat="59.5581576414" lon="31.2689584214"><ele>238.54</ele><time>2026-09-02T19:52:41Z</time></trkpt><trkpt lat="59.5581576414" lon="31.2689584214"><ele>238.54</ele><time>2026-09-02T19:52:42Z</time></trkpt><trkpt lat="59.5581576414" lon="31.2689584214"><ele>238.54</ele><time>2026-09-02T19:52:43Z</time></trkpt><trkpt lat="59.5581576414" lon="31.2689584214"><ele>238.54</ele><time>2026-09-02T19:52:44Z</time></trkpt><trkpt lat="59.5581576414" lon="31.2689584214"><ele>238.54</ele><time>2026-09-02T19:52:45Z</time></trkpt><trkpt lat="59.5581576414" lon="31.2689584214"><ele>238.54</ele><time>2026-09-02T19:52:46Z</time></trkpt><trkpt lat="59.5581576414" lon="31.2689584214"><ele>238.54</ele><time>2026-09-02T19:52:47Z</time></trkpt><trkpt lat="59.5581576414" lon="31.2689584214"><ele>238.54</ele><time>2026-09-02T19:52:48Z</time></trkpt><trkpt lat="59.5581576414" lon="31.2689584214"><ele>238.54</ele><time>2026-09-02T19:52:49Z</time></trkpt><trkpt lat="59.5581576414" lon="31.2689584214"><ele>238.54</ele><time>2026-09-02T19:52:50Z</time></trkpt><trkpt lat="59.5581576414" lon="31.2689584214"><ele>238.54</ele><time>2026-09-02T19:52:51Z</time></trkpt><trkpt lat="59.5581576414" lon="31.2689584214"><ele>238.54</ele><time>2026-09-02T19:52:52Z</time></trkpt><trkpt lat="59.5581576414" lon="31.2689584214"><ele>238.54</ele><time>2026-09-02T19:52:53Z</time></trkpt><trkpt lat="59.5581576414" lon="31.2689584214"><ele>238.54</ele><time>2026-09-02T19:52:54Z</time></trkpt><trkpt lat="59.5581576414" lon="31.2689584214"><ele>238.54</ele><time>2026-09-02T19:52:55Z</time></trkpt><trkpt lat="59.5581576414" lon="31.2689584214"><ele>238.54</ele><time>2026-09-02T19:52:56Z</time></trkpt><trkpt lat="59.5581576414" lon="31.2689584214"><ele>238.54</ele><time>2026-09-02T19:52:57Z</time></trkpt><trkpt lat="59.5581576414" lon="31.2689584214"><ele>239.02</ele><time>2026-09-02T19:52:58Z</time></trkpt><trkpt lat="59.5581576414" lon="31.2689584214"><ele>239.02</ele><time>2026-09-02T19:52:59Z</time></trkpt><trkpt lat="59.5581576414" lon="31.2689584214"><ele>239.02</ele><time>2026-09-02T19:53:00Z</time></trkpt><trkpt lat="59.5581576414" lon="31.2689584214"><ele>239.02</ele><time>2026-09-02T19:53:01Z</time></trkpt><trkpt lat="59.5581576414" lon="31.2689584214"><ele>239.02</ele><time>2026-09-02T19:53:02Z</time></trkpt><trkpt lat="59.5581576414" lon="31.2689584214"><ele>238.54</ele><time>2026-09-02T19:53:03Z</time></trkpt><trkpt lat="59.5581576414" lon="31.2689584214"><ele>238.54</ele><time>2026-09-02T19:53:04Z</time></trkpt><trkpt lat="59.5581576414" lon="31.2689584214"><ele>238.54</ele><time>2026-09-02T19:53:05Z</time></trkpt><trkpt lat="59.5581576414" lon="31.2689584214"><ele>238.54</ele><time>2026-09-02T19:53:06Z</time></trkpt><trkpt lat="59.5581576414" lon="31.2689584214"><ele>238.54</ele><time>2026-09-02T19:53:07Z</time></trkpt><trkpt lat="59.5581576414" lon="31.2689584214"><ele>238.54</ele><time>2026-09-02T19:53:08Z</time></trkpt><trkpt lat="59.5581576414" lon="31.2689584214"><ele>238.54</ele><time>2026-09-02T19:53:09Z</time></trkpt><trkpt lat="59.5581576414" lon="31.2689584214"><ele>238.54</ele><time>2026-09-02T19:53:10Z</time></trkpt><trkpt lat="59.5581576414" lon="31.2689584214"><ele>238.54</ele><time>2026-09-02T19:53:11Z</time></trkpt><trkpt lat="59.5581576414" lon="31.2689584214"><ele>238.06</ele><time>2026-09-02T19:53:12Z</time></trkpt><trkpt lat="59.5581576414" lon="31.2689584214"><ele>238.06</ele><time>2026-09-02T19:53:13Z</time></trkpt><trkpt lat="59.5581576414" lon="31.2689584214"><ele>238.06</ele><time>2026-09-02T19:53:14Z</time></trkpt><trkpt lat="59.5581576414" lon="31.2689584214"><ele>238.06</ele><time>2026-09-02T19:53:15Z</time></trkpt><trkpt lat="59.5581576414" lon="31.2689584214"><ele>238.54</ele><time>2026-09-02T19:53:16Z</time></trkpt><trkpt lat="59.5581576414" lon="31.2689584214"><ele>238.54</ele><time>2026-09-02T19:53:17Z</time></trkpt><trkpt lat="59.5581576414" lon="31.2689584214"><ele>238.54</ele><time>2026-09-02T19:53:18Z</time></trkpt><trkpt lat="59.5581576414" lon="31.2689584214"><ele>238.54</ele><time>2026-09-02T19:53:19Z</time></trkpt><trkpt lat="59.5581576414" lon="31.2689584214"><ele>238.54</ele><time>2026-09-02T19:53:20Z</time></trkpt><trkpt lat="59.5581576414" lon="31.2689584214"><ele>238.54</ele><time>2026-09-02T19:53:21Z</time></trkpt><trkpt lat="59.5581576414" lon="31.2689584214"><ele>238.54</ele><time>2026-09-02T19:53:22Z</time></trkpt><trkpt lat="59.5581576414" lon="31.2689584214"><ele>238.54</ele><time>2026-09-02T19:53:23Z</time></trkpt><trkpt lat="59.5581576414" lon="31.2689584214"><ele>238.54</ele><time>2026-09-02T19:53:24Z</time></trkpt><trkpt lat="59.5581576414" lon="31.2689584214"><ele>238.54</ele><time>2026-09-02T19:53:25Z</time></trkpt><trkpt lat="59.5581576414" lon="31.2689584214"><ele>238.54</ele><time>2026-09-02T19:53:26Z</time></trkpt><trkpt lat="59.5581576414" lon="31.2689584214"><ele>238.54</ele><time>2026-09-02T19:53:27Z</time></trkpt><trkpt lat="59.5581576414" lon="31.2689584214"><ele>238.54</ele><time>2026-09-02T19:53:28Z</time></trkpt><trkpt lat="59.5582253672" lon="31.2689590920"><ele>238.54</ele><time>2026-09-02T19:53:29Z</time></trkpt><trkpt lat="59.5582280494" lon="31.2689576671"><ele>238.54</ele><time>2026-09-02T19:53:30Z</time></trkpt><trkpt lat="59.5582303964" lon="31.2689579185"><ele>238.54</ele><time>2026-09-02T19:53:31Z</time></trkpt><trkpt lat="59.5582325757" lon="31.2689567450"><ele>238.54</ele><time>2026-09-02T19:53:32Z</time></trkpt><trkpt lat="59.5582325757" lon="31.2689567450"><ele>238.54</ele><time>2026-09-02T19:53:33Z</time></trkpt><trkpt lat="59.5582325757" lon="31.2689567450"><ele>238.54</ele><time>2026-09-02T19:53:34Z</time></trkpt><trkpt lat="59.5582325757" lon="31.2689567450"><ele>238.54</ele><time>2026-09-02T19:53:35Z</time></trkpt><trkpt lat="59.5582325757" lon="31.2689567450"><ele>238.06</ele><time>2026-09-02T19:53:36Z</time></trkpt><trkpt lat="59.5582325757" lon="31.2689567450"><ele>238.06</ele><time>2026-09-02T19:53:37Z</time></trkpt><trkpt lat="59.5582325757" lon="31.2689567450"><ele>238.06</ele><time>2026-09-02T19:53:38Z</time></trkpt><trkpt lat="59.5582325757" lon="31.2689567450"><ele>238.06</ele><time>2026-09-02T19:53:39Z</time></trkpt><trkpt lat="59.5582325757" lon="31.2689567450"><ele>238.06</ele><time>2026-09-02T19:53:40Z</time></trkpt><trkpt lat="59.5582325757" lon="31.2689567450"><ele>238.06</ele><time>2026-09-02T19:53:41Z</time></trkpt><trkpt lat="59.5582325757" lon="31.2689567450"><ele>238.06</ele><time>2026-09-02T19:53:42Z</time></trkpt><trkpt lat="59.5582325757" lon="31.2689567450"><ele>238.06</ele><time>2026-09-02T19:53:43Z</time></trkpt><trkpt lat="59.5582325757" lon="31.2689567450"><ele>238.06</ele><time>2026-09-02T19:53:44Z</time></trkpt><trkpt lat="59.5582325757" lon="31.2689567450"><ele>238.06</ele><time>2026-09-02T19:53:45Z</time></trkpt><trkpt lat="59.5582325757" lon="31.2689567450"><ele>238.06</ele><time>2026-09-02T19:53:46Z</time></trkpt><trkpt lat="59.5582325757" lon="31.2689567450"><ele>238.06</ele><time>2026-09-02T19:53:47Z</time></trkpt><trkpt lat="59.5582325757" lon="31.2689567450"><ele>238.06</ele><time>2026-09-02T19:53:48Z</time></trkpt><trkpt lat="59.5582325757" lon="31.2689567450"><ele>238.06</ele><time>2026-09-02T19:53:49Z</time></trkpt><trkpt lat="59.5582325757" lon="31.2689567450"><ele>238.54</ele><time>2026-09-02T19:53:50Z</time></trkpt><trkpt lat="59.5582325757" lon="31.2689567450"><ele>238.54</ele><time>2026-09-02T19:53:51Z</time></trkpt><trkpt lat="59.5582325757" lon="31.2689567450"><ele>238.54</ele><time>2026-09-02T19:53:52Z</time></trkpt><trkpt lat="59.5582325757" lon="31.2689567450"><ele>238.54</ele><time>2026-09-02T19:53:53Z</time></trkpt><trkpt lat="59.5582325757" lon="31.2689567450"><ele>238.54</ele><time>2026-09-02T19:53:54Z</time></trkpt><trkpt lat="59.5582325757" lon="31.2689567450"><ele>238.06</ele><time>2026-09-02T19:53:55Z</time></trkpt><trkpt lat="59.5582325757" lon="31.2689567450"><ele>238.06</ele><time>2026-09-02T19:53:56Z</time></trkpt><trkpt lat="59.5582325757" lon="31.2689567450"><ele>238.06</ele><time>2026-09-02T19:53:57Z</time></trkpt><trkpt lat="59.5582325757" lon="31.2689567450"><ele>238.06</ele><time>2026-09-02T19:53:58Z</time></trkpt><trkpt lat="59.5582698751" lon="31.2689297553"><ele>238.06</ele><time>2026-09-02T19:53:59Z</time></trkpt><trkpt lat="59.5582720544" lon="31.2689265702"><ele>238.06</ele><time>2026-09-02T19:54:00Z</time></trkpt><trkpt lat="59.5582727250" lon="31.2689232174"><ele>238.06</ele><time>2026-09-02T19:54:01Z</time></trkpt><trkpt lat="59.5582723897" lon="31.2689153384"><ele>238.06</ele><time>2026-09-02T19:54:02Z</time></trkpt><trkpt lat="59.5582725573" lon="31.2689098902"><ele>238.06</ele><time>2026-09-02T19:54:03Z</time></trkpt><trkpt lat="59.5582725573" lon="31.2689098902"><ele>238.54</ele><time>2026-09-02T19:54:04Z</time></trkpt><trkpt lat="59.5582725573" lon="31.2689098902"><ele>238.54</ele><time>2026-09-02T19:54:05Z</time></trkpt><trkpt lat="59.5582725573" lon="31.2689098902"><ele>238.54</ele><time>2026-09-02T19:54:06Z</time></trkpt><trkpt lat="59.5582725573" lon="31.2689098902"><ele>238.54</ele><time>2026-09-02T19:54:07Z</time></trkpt><trkpt lat="59.5582725573" lon="31.2689098902"><ele>238.54</ele><time>2026-09-02T19:54:08Z</time></trkpt><trkpt lat="59.5582725573" lon="31.2689098902"><ele>238.54</ele><time>2026-09-02T19:54:09Z</time></trkpt><trkpt lat="59.5582725573" lon="31.2689098902"><ele>238.06</ele><time>2026-09-02T19:54:10Z</time></trkpt><trkpt lat="59.5582725573" lon="31.2689098902"><ele>238.06</ele><time>2026-09-02T19:54:11Z</time></trkpt><trkpt lat="59.5582725573" lon="31.2689098902"><ele>238.06</ele><time>2026-09-02T19:54:12Z</time></trkpt><trkpt lat="59.5582725573" lon="31.2689098902"><ele>238.06</ele><time>2026-09-02T19:54:13Z</time></trkpt><trkpt lat="59.5582725573" lon="31.2689098902"><ele>238.06</ele><time>2026-09-02T19:54:14Z</time></trkpt><trkpt lat="59.5582725573" lon="31.2689098902"><ele>238.06</ele><time>2026-09-02T19:54:15Z</time></trkpt><trkpt lat="59.5582725573" lon="31.2689098902"><ele>238.54</ele><time>2026-09-02T19:54:16Z</time></trkpt><trkpt lat="59.5582725573" lon="31.2689098902"><ele>238.54</ele><time>2026-09-02T19:54:17Z</time></trkpt><trkpt lat="59.5582725573" lon="31.2689098902"><ele>238.54</ele><time>2026-09-02T19:54:18Z</time></trkpt><trkpt lat="59.5582725573" lon="31.2689098902"><ele>238.54</ele><time>2026-09-02T19:54:19Z</time></trkpt><trkpt lat="59.5582725573" lon="31.2689098902"><ele>238.54</ele><time>2026-09-02T19:54:20Z</time></trkpt><trkpt lat="59.5582725573" lon="31.2689098902"><ele>238.54</ele><time>2026-09-02T19:54:21Z</time></trkpt><trkpt lat="59.5582725573" lon="31.2689098902"><ele>238.54</ele><time>2026-09-02T19:54:22Z</time></trkpt><trkpt lat="59.5582725573" lon="31.2689098902"><ele>238.54</ele><time>2026-09-02T19:54:23Z</time></trkpt><trkpt lat="59.5582725573" lon="31.2689098902"><ele>238.54</ele><time>2026-09-02T19:54:24Z</time></trkpt><trkpt lat="59.5582725573" lon="31.2689098902"><ele>238.54</ele><time>2026-09-02T19:54:25Z</time></trkpt><trkpt lat="59.5582725573" lon="31.2689098902"><ele>238.54</ele><time>2026-09-02T19:54:26Z</time></trkpt><trkpt lat="59.5582725573" lon="31.2689098902"><ele>238.54</ele><time>2026-09-02T19:54:27Z</time></trkpt><trkpt lat="59.5582725573" lon="31.2689098902"><ele>238.54</ele><time>2026-09-02T19:54:28Z</time></trkpt><trkpt lat="59.5582725573" lon="31.2689098902"><ele>238.54</ele><time>2026-09-02T19:54:29Z</time></trkpt><trkpt lat="59.5582725573" lon="31.2689098902"><ele>238.54</ele><time>2026-09-02T19:54:30Z</time></trkpt><trkpt lat="59.5582725573" lon="31.2689098902"><ele>238.54</ele><time>2026-09-02T19:54:31Z</time></trkpt><trkpt lat="59.5582725573" lon="31.2689098902"><ele>238.54</ele><time>2026-09-02T19:54:32Z</time></trkpt><trkpt lat="59.5582725573" lon="31.2689098902"><ele>238.54</ele><time>2026-09-02T19:54:33Z</time></trkpt><trkpt lat="59.5582725573" lon="31.2689098902"><ele>238.54</ele><time>2026-09-02T19:54:34Z</time></trkpt><trkpt lat="59.5582725573" lon="31.2689098902"><ele>238.54</ele><time>2026-09-02T19:54:35Z</time></trkpt><trkpt lat="59.5582725573" lon="31.2689098902"><ele>238.54</ele><time>2026-09-02T19:54:36Z</time></trkpt><trkpt lat="59.5582725573" lon="31.2689098902"><ele>238.54</ele><time>2026-09-02T19:54:37Z</time></trkpt><trkpt lat="59.5582725573" lon="31.2689098902"><ele>238.54</ele><time>2026-09-02T19:54:38Z</time></trkpt><trkpt lat="59.5582725573" lon="31.2689098902"><ele>238.54</ele><time>2026-09-02T19:54:39Z</time></trkpt><trkpt lat="59.5582725573" lon="31.2689098902"><ele>238.54</ele><time>2026-09-02T19:54:40Z</time></trkpt><trkpt lat="59.5582725573" lon="31.2689098902"><ele>238.54</ele><time>2026-09-02T19:54:41Z</time></trkpt><trkpt lat="59.5582725573" lon="31.2689098902"><ele>238.54</ele><time>2026-09-02T19:54:42Z</time></trkpt><trkpt lat="59.5582725573" lon="31.2689098902"><ele>238.54</ele><time>2026-09-02T19:54:43Z</time></trkpt><trkpt lat="59.5582725573" lon="31.2689098902"><ele>238.54</ele><time>2026-09-02T19:54:44Z</time></trkpt><trkpt lat="59.5582725573" lon="31.2689098902"><ele>238.54</ele><time>2026-09-02T19:54:45Z</time></trkpt><trkpt lat="59.5582725573" lon="31.2689098902"><ele>238.54</ele><time>2026-09-02T19:54:46Z</time></trkpt><trkpt lat="59.5582725573" lon="31.2689098902"><ele>238.54</ele><time>2026-09-02T19:54:47Z</time></trkpt><trkpt lat="59.5582725573" lon="31.2689098902"><ele>238.54</ele><time>2026-09-02T19:54:48Z</time></trkpt><trkpt lat="59.5582725573" lon="31.2689098902"><ele>238.54</ele><time>2026-09-02T19:54:49Z</time></trkpt><trkpt lat="59.5582725573" lon="31.2689098902"><ele>238.54</ele><time>2026-09-02T19:54:50Z</time></trkpt><trkpt lat="59.5582725573" lon="31.2689098902"><ele>238.54</ele><time>2026-09-02T19:54:51Z</time></trkpt><trkpt lat="59.5582725573" lon="31.2689098902"><ele>238.54</ele><time>2026-09-02T19:54:52Z</time></trkpt><trkpt lat="59.5582725573" lon="31.2689098902"><ele>238.54</ele><time>2026-09-02T19:54:53Z</time></trkpt><trkpt lat="59.5583180711" lon="31.2688289210"><ele>238.54</ele><time>2026-09-02T19:54:54Z</time></trkpt><trkpt lat="59.5583217591" lon="31.2688191980"><ele>238.54</ele><time>2026-09-02T19:54:55Z</time></trkpt><trkpt lat="59.5583263692" lon="31.2688126601"><ele>238.54</ele><time>2026-09-02T19:54:56Z</time></trkpt><trkpt lat="59.5583322365" lon="31.2688035239"><ele>238.54</ele><time>2026-09-02T19:54:57Z</time></trkpt><trkpt lat="59.5583387744" lon="31.2687969860"><ele>238.54</ele><time>2026-09-02T19:54:58Z</time></trkpt><trkpt lat="59.5583432168" lon="31.2687910348"><ele>238.54</ele><time>2026-09-02T19:54:59Z</time></trkpt><trkpt lat="59.5583479945" lon="31.2687874306"><ele>238.54</ele><time>2026-09-02T19:55:00Z</time></trkpt><trkpt lat="59.5583526883" lon="31.2687821500"><ele>238.54</ele><time>2026-09-02T19:55:01Z</time></trkpt><trkpt lat="59.5583551191" lon="31.2687740196"><ele>238.54</ele><time>2026-09-02T19:55:02Z</time></trkpt><trkpt lat="59.5583551191" lon="31.2687687390"><ele>238.54</ele><time>2026-09-02T19:55:03Z</time></trkpt><trkpt lat="59.5583558735" lon="31.2687581778"><ele>238.54</ele><time>2026-09-02T19:55:04Z</time></trkpt><trkpt lat="59.5583577175" lon="31.2687507179"><ele>238.54</ele><time>2026-09-02T19:55:05Z</time></trkpt><trkpt lat="59.5583577175" lon="31.2687507179"><ele>238.54</ele><time>2026-09-02T19:55:06Z</time></trkpt><trkpt lat="59.5583577175" lon="31.2687507179"><ele>238.54</ele><time>2026-09-02T19:55:07Z</time></trkpt><trkpt lat="59.5583577175" lon="31.2687507179"><ele>238.54</ele><time>2026-09-02T19:55:08Z</time></trkpt><trkpt lat="59.5583577175" lon="31.2687507179"><ele>239.02</ele><time>2026-09-02T19:55:09Z</time></trkpt><trkpt lat="59.5583577175" lon="31.2687507179"><ele>239.02</ele><time>2026-09-02T19:55:10Z</time></trkpt><trkpt lat="59.5583577175" lon="31.2687507179"><ele>239.02</ele><time>2026-09-02T19:55:11Z</time></trkpt><trkpt lat="59.5583577175" lon="31.2687507179"><ele>239.02</ele><time>2026-09-02T19:55:12Z</time></trkpt><trkpt lat="59.5583577175" lon="31.2687507179"><ele>239.02</ele><time>2026-09-02T19:55:13Z</time></trkpt><trkpt lat="59.5583577175" lon="31.2687507179"><ele>238.54</ele><time>2026-09-02T19:55:14Z</time></trkpt><trkpt lat="59.5583675243" lon="31.2687364686"><ele>238.54</ele><time>2026-09-02T19:55:15Z</time></trkpt><trkpt lat="59.5583726373" lon="31.2687351275"><ele>238.54</ele><time>2026-09-02T19:55:16Z</time></trkpt><trkpt lat="59.5583754871" lon="31.2687330320"><ele>239.02</ele><time>2026-09-02T19:55:17Z</time></trkpt><trkpt lat="59.5583762415" lon="31.2687322777"><ele>239.02</ele><time>2026-09-02T19:55:18Z</time></trkpt><trkpt lat="59.5583779179" lon="31.2687312718"><ele>239.02</ele><time>2026-09-02T19:55:19Z</time></trkpt><trkpt lat="59.5583788399" lon="31.2687266618"><ele>239.02</ele><time>2026-09-02T19:55:20Z</time></trkpt><trkpt lat="59.5583788399" lon="31.2687266618"><ele>239.02</ele><time>2026-09-02T19:55:21Z</time></trkpt><trkpt lat="59.5583788399" lon="31.2687266618"><ele>239.02</ele><time>2026-09-02T19:55:22Z</time></trkpt><trkpt lat="59.5583788399" lon="31.2687266618"><ele>239.02</ele><time>2026-09-02T19:55:23Z</time></trkpt><trkpt lat="59.5583788399" lon="31.2687266618"><ele>239.02</ele><time>2026-09-02T19:55:24Z</time></trkpt><trkpt lat="59.5583883952" lon="31.2687063776"><ele>239.02</ele><time>2026-09-02T19:55:25Z</time></trkpt><trkpt lat="59.5583884791" lon="31.2686993368"><ele>239.02</ele><time>2026-09-02T19:55:26Z</time></trkpt><trkpt lat="59.5583914965" lon="31.2686947268"><ele>239.02</ele><time>2026-09-02T19:55:27Z</time></trkpt><trkpt lat="59.5583929215" lon="31.2686881889"><ele>239.02</ele><time>2026-09-02T19:55:28Z</time></trkpt><trkpt lat="59.5583929215" lon="31.2686881889"><ele>239.02</ele><time>2026-09-02T19:55:29Z</time></trkpt><trkpt lat="59.5584002975" lon="31.2686739396"><ele>239.02</ele><time>2026-09-02T19:55:30Z</time></trkpt><trkpt lat="59.5584047399" lon="31.2686683238"><ele>239.02</ele><time>2026-09-02T19:55:31Z</time></trkpt><trkpt lat="59.5584056620" lon="31.2686630432"><ele>239.02</ele><time>2026-09-02T19:55:32Z</time></trkpt><trkpt lat="59.5584101882" lon="31.2686579302"><ele>239.02</ele><time>2026-09-02T19:55:33Z</time></trkpt><trkpt lat="59.5584147982" lon="31.2686544936"><ele>239.02</ele><time>2026-09-02T19:55:34Z</time></trkpt><trkpt lat="59.5584147982" lon="31.2686544936"><ele>239.02</ele><time>2026-09-02T19:55:35Z</time></trkpt><trkpt lat="59.5584147982" lon="31.2686544936"><ele>239.02</ele><time>2026-09-02T19:55:36Z</time></trkpt><trkpt lat="59.5584147982" lon="31.2686544936"><ele>239.02</ele><time>2026-09-02T19:55:37Z</time></trkpt><trkpt lat="59.5584147982" lon="31.2686544936"><ele>239.02</ele><time>2026-09-02T19:55:38Z</time></trkpt><trkpt lat="59.5584147982" lon="31.2686544936"><ele>239.02</ele><time>2026-09-02T19:55:39Z</time></trkpt><trkpt lat="59.5584147982" lon="31.2686544936"><ele>239.02</ele><time>2026-09-02T19:55:40Z</time></trkpt><trkpt lat="59.5584147982" lon="31.2686544936"><ele>239.02</ele><time>2026-09-02T19:55:41Z</time></trkpt><trkpt lat="59.5584147982" lon="31.2686544936"><ele>239.02</ele><time>2026-09-02T19:55:42Z</time></trkpt><trkpt lat="59.5584147982" lon="31.2686544936"><ele>239.02</ele><time>2026-09-02T19:55:43Z</time></trkpt><trkpt lat="59.5584147982" lon="31.2686544936"><ele>239.02</ele><time>2026-09-02T19:55:44Z</time></trkpt><trkpt lat="59.5584147982" lon="31.2686544936"><ele>239.02</ele><time>2026-09-02T19:55:45Z</time></trkpt><trkpt lat="59.5584147982" lon="31.2686544936"><ele>239.02</ele><time>2026-09-02T19:55:46Z</time></trkpt><trkpt lat="59.5584147982" lon="31.2686544936"><ele>239.02</ele><time>2026-09-02T19:55:47Z</time></trkpt><trkpt lat="59.5584147982" lon="31.2686544936"><ele>239.02</ele><time>2026-09-02T19:55:48Z</time></trkpt><trkpt lat="59.5584147982" lon="31.2686544936"><ele>239.02</ele><time>2026-09-02T19:55:49Z</time></trkpt><trkpt lat="59.5584147982" lon="31.2686544936"><ele>239.02</ele><time>2026-09-02T19:55:50Z</time></trkpt><trkpt lat="59.5584147982" lon="31.2686544936"><ele>239.02</ele><time>2026-09-02T19:55:51Z</time></trkpt><trkpt lat="59.5584147982" lon="31.2686544936"><ele>239.02</ele><time>2026-09-02T19:55:52Z</time></trkpt><trkpt lat="59.5584147982" lon="31.2686544936"><ele>239.02</ele><time>2026-09-02T19:55:53Z</time></trkpt><trkpt lat="59.5584147982" lon="31.2686544936"><ele>239.02</ele><time>2026-09-02T19:55:54Z</time></trkpt><trkpt lat="59.5584147982" lon="31.2686544936"><ele>239.02</ele><time>2026-09-02T19:55:55Z</time></trkpt><trkpt lat="59.5584147982" lon="31.2686544936"><ele>239.02</ele><time>2026-09-02T19:55:56Z</time></trkpt><trkpt lat="59.5584147982" lon="31.2686544936"><ele>239.02</ele><time>2026-09-02T19:55:57Z</time></trkpt><trkpt lat="59.5584147982" lon="31.2686544936"><ele>239.02</ele><time>2026-09-02T19:55:58Z</time></trkpt><trkpt lat="59.5584147982" lon="31.2686544936"><ele>239.02</ele><time>2026-09-02T19:55:59Z</time></trkpt><trkpt lat="59.5584147982" lon="31.2686544936"><ele>239.02</ele><time>2026-09-02T19:56:00Z</time></trkpt><trkpt lat="59.5584147982" lon="31.2686544936"><ele>239.02</ele><time>2026-09-02T19:56:01Z</time></trkpt><trkpt lat="59.5584147982" lon="31.2686544936"><ele>239.02</ele><time>2026-09-02T19:56:02Z</time></trkpt><trkpt lat="59.5584147982" lon="31.2686544936"><ele>239.02</ele><time>2026-09-02T19:56:03Z</time></trkpt><trkpt lat="59.5584147982" lon="31.2686544936"><ele>239.02</ele><time>2026-09-02T19:56:04Z</time></trkpt><trkpt lat="59.5584147982" lon="31.2686544936"><ele>239.02</ele><time>2026-09-02T19:56:05Z</time></trkpt><trkpt lat="59.5584147982" lon="31.2686544936"><ele>239.02</ele><time>2026-09-02T19:56:06Z</time></trkpt><trkpt lat="59.5584147982" lon="31.2686544936"><ele>239.02</ele><time>2026-09-02T19:56:07Z</time></trkpt><trkpt lat="59.5584147982" lon="31.2686544936"><ele>239.02</ele><time>2026-09-02T19:56:08Z</time></trkpt><trkpt lat="59.5584147982" lon="31.2686544936"><ele>239.02</ele><time>2026-09-02T19:56:09Z</time></trkpt><trkpt lat="59.5584147982" lon="31.2686544936"><ele>239.02</ele><time>2026-09-02T19:56:10Z</time></trkpt><trkpt lat="59.5584147982" lon="31.2686544936"><ele>239.02</ele><time>2026-09-02T19:56:11Z</time></trkpt><trkpt lat="59.5584147982" lon="31.2686544936"><ele>239.02</ele><time>2026-09-02T19:56:12Z</time></trkpt><trkpt lat="59.5584147982" lon="31.2686544936"><ele>239.02</ele><time>2026-09-02T19:56:13Z</time></trkpt><trkpt lat="59.5584147982" lon="31.2686544936"><ele>239.02</ele><time>2026-09-02T19:56:14Z</time></trkpt><trkpt lat="59.5584147982" lon="31.2686544936"><ele>239.02</ele><time>2026-09-02T19:56:15Z</time></trkpt><trkpt lat="59.5584147982" lon="31.2686544936"><ele>239.02</ele><time>2026-09-02T19:56:16Z</time></trkpt><trkpt lat="59.5584147982" lon="31.2686544936"><ele>239.02</ele><time>2026-09-02T19:56:17Z</time></trkpt><trkpt lat="59.5584147982" lon="31.2686544936"><ele>239.02</ele><time>2026-09-02T19:56:18Z</time></trkpt><trkpt lat="59.5584147982" lon="31.2686544936"><ele>239.02</ele><time>2026-09-02T19:56:19Z</time></trkpt><trkpt lat="59.5585008804" lon="31.2686033640"><ele>239.02</ele><time>2026-09-02T19:56:20Z</time></trkpt><trkpt lat="59.5585026406" lon="31.2685973290"><ele>239.02</ele><time>2026-09-02T19:56:21Z</time></trkpt><trkpt lat="59.5585042331" lon="31.2685894500"><ele>239.02</ele><time>2026-09-02T19:56:22Z</time></trkpt><trkpt lat="59.5585066639" lon="31.2685826607"><ele>239.02</ele><time>2026-09-02T19:56:23Z</time></trkpt><trkpt lat="59.5585066639" lon="31.2685826607"><ele>239.02</ele><time>2026-09-02T19:56:24Z</time></trkpt><trkpt lat="59.5585066639" lon="31.2685826607"><ele>239.02</ele><time>2026-09-02T19:56:25Z</time></trkpt><trkpt lat="59.5585066639" lon="31.2685826607"><ele>239.02</ele><time>2026-09-02T19:56:26Z</time></trkpt><trkpt lat="59.5585066639" lon="31.2685826607"><ele>239.02</ele><time>2026-09-02T19:56:27Z</time></trkpt><trkpt lat="59.5585066639" lon="31.2685826607"><ele>239.02</ele><time>2026-09-02T19:56:28Z</time></trkpt><trkpt lat="59.5585066639" lon="31.2685826607"><ele>239.02</ele><time>2026-09-02T19:56:29Z</time></trkpt><trkpt lat="59.5585066639" lon="31.2685826607"><ele>239.02</ele><time>2026-09-02T19:56:30Z</time></trkpt><trkpt lat="59.5585066639" lon="31.2685826607"><ele>239.02</ele><time>2026-09-02T19:56:31Z</time></trkpt><trkpt lat="59.5585066639" lon="31.2685826607"><ele>239.02</ele><time>2026-09-02T19:56:32Z</time></trkpt><trkpt lat="59.5585066639" lon="31.2685826607"><ele>239.02</ele><time>2026-09-02T19:56:33Z</time></trkpt><trkpt lat="59.5585130341" lon="31.2685221434"><ele>239.02</ele><time>2026-09-02T19:56:34Z</time></trkpt><trkpt lat="59.5585148782" lon="31.2685160246"><ele>239.02</ele><time>2026-09-02T19:56:35Z</time></trkpt><trkpt lat="59.5585193206" lon="31.2685123365"><ele>239.02</ele><time>2026-09-02T19:56:36Z</time></trkpt><trkpt lat="59.5585214999" lon="31.2685085647"><ele>239.02</ele><time>2026-09-02T19:56:37Z</time></trkpt><trkpt lat="59.5585214999" lon="31.2685085647"><ele>239.02</ele><time>2026-09-02T19:56:38Z</time></trkpt><trkpt lat="59.5585214999" lon="31.2685085647"><ele>239.02</ele><time>2026-09-02T19:56:39Z</time></trkpt><trkpt lat="59.5585214999" lon="31.2685085647"><ele>239.02</ele><time>2026-09-02T19:56:40Z</time></trkpt><trkpt lat="59.5585328992" lon="31.2684847601"><ele>239.02</ele><time>2026-09-02T19:56:41Z</time></trkpt><trkpt lat="59.5585348271" lon="31.2684830837"><ele>239.02</ele><time>2026-09-02T19:56:42Z</time></trkpt><trkpt lat="59.5585356653" lon="31.2684809882"><ele>239.02</ele><time>2026-09-02T19:56:43Z</time></trkpt><trkpt lat="59.5585388504" lon="31.2684828322"><ele>239.02</ele><time>2026-09-02T19:56:44Z</time></trkpt><trkpt lat="59.5585388504" lon="31.2684828322"><ele>239.02</ele><time>2026-09-02T19:56:45Z</time></trkpt><trkpt lat="59.5585388504" lon="31.2684828322"><ele>239.02</ele><time>2026-09-02T19:56:46Z</time></trkpt><trkpt lat="59.5585388504" lon="31.2684828322"><ele>239.02</ele><time>2026-09-02T19:56:47Z</time></trkpt><trkpt lat="59.5585578773" lon="31.2684556749"><ele>239.02</ele><time>2026-09-02T19:56:48Z</time></trkpt><trkpt lat="59.5585628226" lon="31.2684405874"><ele>239.02</ele><time>2026-09-02T19:56:49Z</time></trkpt><trkpt lat="59.5585639961" lon="31.2684315350"><ele>239.02</ele><time>2026-09-02T19:56:50Z</time></trkpt><trkpt lat="59.5585672650" lon="31.2684229854"><ele>239.02</ele><time>2026-09-02T19:56:51Z</time></trkpt><trkpt lat="59.5585715398" lon="31.2684121728"><ele>239.02</ele><time>2026-09-02T19:56:52Z</time></trkpt><trkpt lat="59.5585715398" lon="31.2684121728"><ele>239.02</ele><time>2026-09-02T19:56:53Z</time></trkpt><trkpt lat="59.5585715398" lon="31.2684121728"><ele>239.02</ele><time>2026-09-02T19:56:54Z</time></trkpt><trkpt lat="59.5585715398" lon="31.2684121728"><ele>239.02</ele><time>2026-09-02T19:56:55Z</time></trkpt><trkpt lat="59.5585715398" lon="31.2684121728"><ele>239.02</ele><time>2026-09-02T19:56:56Z</time></trkpt><trkpt lat="59.5585715398" lon="31.2684121728"><ele>239.02</ele><time>2026-09-02T19:56:57Z</time></trkpt><trkpt lat="59.5585715398" lon="31.2684121728"><ele>239.02</ele><time>2026-09-02T19:56:58Z</time></trkpt><trkpt lat="59.5585818496" lon="31.2683604565"><ele>239.02</ele><time>2026-09-02T19:56:59Z</time></trkpt><trkpt lat="59.5585794188" lon="31.2683482189"><ele>239.51</ele><time>2026-09-02T19:57:00Z</time></trkpt><trkpt lat="59.5585760660" lon="31.2683371548"><ele>239.51</ele><time>2026-09-02T19:57:01Z</time></trkpt><trkpt lat="59.5585743897" lon="31.2683269288"><ele>239.51</ele><time>2026-09-02T19:57:02Z</time></trkpt><trkpt lat="59.5585702825" lon="31.2683149427"><ele>239.51</ele><time>2026-09-02T19:57:03Z</time></trkpt><trkpt lat="59.5585711207" lon="31.2683025375"><ele>239.51</ele><time>2026-09-02T19:57:04Z</time></trkpt><trkpt lat="59.5585678518" lon="31.2682886235"><ele>239.51</ele><time>2026-09-02T19:57:05Z</time></trkpt><trkpt lat="59.5585626550" lon="31.2682753801"><ele>239.51</ele><time>2026-09-02T19:57:06Z</time></trkpt><trkpt lat="59.5585590508" lon="31.2682630587"><ele>239.51</ele><time>2026-09-02T19:57:07Z</time></trkpt><trkpt lat="59.5585587993" lon="31.2682533357"><ele>239.51</ele><time>2026-09-02T19:57:08Z</time></trkpt><trkpt lat="59.5585588831" lon="31.2682434451"><ele>239.51</ele><time>2026-09-02T19:57:09Z</time></trkpt><trkpt lat="59.5585601404" lon="31.2682336383"><ele>239.51</ele><time>2026-09-02T19:57:10Z</time></trkpt><trkpt lat="59.5585632417" lon="31.2682304531"><ele>239.51</ele><time>2026-09-02T19:57:11Z</time></trkpt><trkpt lat="59.5585692767" lon="31.2682274356"><ele>239.51</ele><time>2026-09-02T19:57:12Z</time></trkpt><trkpt lat="59.5585723780" lon="31.2682238314"><ele>239.51</ele><time>2026-09-02T19:57:13Z</time></trkpt><trkpt lat="59.5585723780" lon="31.2682238314"><ele>239.51</ele><time>2026-09-02T19:57:14Z</time></trkpt><trkpt lat="59.5585723780" lon="31.2682238314"><ele>239.51</ele><time>2026-09-02T19:57:15Z</time></trkpt><trkpt lat="59.5585723780" lon="31.2682238314"><ele>239.51</ele><time>2026-09-02T19:57:16Z</time></trkpt><trkpt lat="59.5585723780" lon="31.2682238314"><ele>239.51</ele><time>2026-09-02T19:57:17Z</time></trkpt><trkpt lat="59.5585802570" lon="31.2682136893"><ele>239.51</ele><time>2026-09-02T19:57:18Z</time></trkpt><trkpt lat="59.5585863758" lon="31.2682113424"><ele>239.51</ele><time>2026-09-02T19:57:19Z</time></trkpt><trkpt lat="59.5585935842" lon="31.2682104204"><ele>239.51</ele><time>2026-09-02T19:57:20Z</time></trkpt><trkpt lat="59.5586027205" lon="31.2682165392"><ele>239.51</ele><time>2026-09-02T19:57:21Z</time></trkpt><trkpt lat="59.5586082526" lon="31.2682207301"><ele>239.51</ele><time>2026-09-02T19:57:22Z</time></trkpt><trkpt lat="59.5586129464" lon="31.2682171259"><ele>239.51</ele><time>2026-09-02T19:57:23Z</time></trkpt><trkpt lat="59.5586177241" lon="31.2682143599"><ele>239.51</ele><time>2026-09-02T19:57:24Z</time></trkpt><trkpt lat="59.5586227532" lon="31.2682111748"><ele>239.51</ele><time>2026-09-02T19:57:25Z</time></trkpt><trkpt lat="59.5586270280" lon="31.2682081573"><ele>239.51</ele><time>2026-09-02T19:57:26Z</time></trkpt><trkpt lat="59.5586314704" lon="31.2682042178"><ele>239.51</ele><time>2026-09-02T19:57:27Z</time></trkpt><trkpt lat="59.5586340688" lon="31.2681969255"><ele>239.51</ele><time>2026-09-02T19:57:28Z</time></trkpt><trkpt lat="59.5586371701" lon="31.2681947462"><ele>239.51</ele><time>2026-09-02T19:57:29Z</time></trkpt><trkpt lat="59.5586389303" lon="31.2681921478"><ele>239.51</ele><time>2026-09-02T19:57:30Z</time></trkpt><trkpt lat="59.5586409420" lon="31.2681909744"><ele>239.51</ele><time>2026-09-02T19:57:31Z</time></trkpt><trkpt lat="59.5586409420" lon="31.2681909744"><ele>239.51</ele><time>2026-09-02T19:57:32Z</time></trkpt><trkpt lat="59.5586409420" lon="31.2681909744"><ele>239.51</ele><time>2026-09-02T19:57:33Z</time></trkpt><trkpt lat="59.5586409420" lon="31.2681909744"><ele>239.51</ele><time>2026-09-02T19:57:34Z</time></trkpt><trkpt lat="59.5586409420" lon="31.2681909744"><ele>239.51</ele><time>2026-09-02T19:57:35Z</time></trkpt><trkpt lat="59.5586409420" lon="31.2681909744"><ele>239.51</ele><time>2026-09-02T19:57:36Z</time></trkpt><trkpt lat="59.5586409420" lon="31.2681909744"><ele>239.51</ele><time>2026-09-02T19:57:37Z</time></trkpt><trkpt lat="59.5586409420" lon="31.2681909744"><ele>239.51</ele><time>2026-09-02T19:57:38Z</time></trkpt><trkpt lat="59.5586409420" lon="31.2681909744"><ele>239.51</ele><time>2026-09-02T19:57:39Z</time></trkpt><trkpt lat="59.5586409420" lon="31.2681909744"><ele>239.51</ele><time>2026-09-02T19:57:40Z</time></trkpt><trkpt lat="59.5586409420" lon="31.2681909744"><ele>239.51</ele><time>2026-09-02T19:57:41Z</time></trkpt><trkpt lat="59.5586409420" lon="31.2681909744"><ele>239.51</ele><time>2026-09-02T19:57:42Z</time></trkpt><trkpt lat="59.5586409420" lon="31.2681909744"><ele>239.51</ele><time>2026-09-02T19:57:43Z</time></trkpt><trkpt lat="59.5586409420" lon="31.2681909744"><ele>239.51</ele><time>2026-09-02T19:57:44Z</time></trkpt><trkpt lat="59.5586409420" lon="31.2681909744"><ele>239.51</ele><time>2026-09-02T19:57:45Z</time></trkpt><trkpt lat="59.5586409420" lon="31.2681909744"><ele>239.51</ele><time>2026-09-02T19:57:46Z</time></trkpt><trkpt lat="59.5586409420" lon="31.2681909744"><ele>239.51</ele><time>2026-09-02T19:57:47Z</time></trkpt><trkpt lat="59.5586409420" lon="31.2681909744"><ele>239.51</ele><time>2026-09-02T19:57:48Z</time></trkpt><trkpt lat="59.5586409420" lon="31.2681909744"><ele>239.51</ele><time>2026-09-02T19:57:49Z</time></trkpt><trkpt lat="59.5586409420" lon="31.2681909744"><ele>239.51</ele><time>2026-09-02T19:57:50Z</time></trkpt><trkpt lat="59.5586409420" lon="31.2681909744"><ele>239.51</ele><time>2026-09-02T19:57:51Z</time></trkpt><trkpt lat="59.5586409420" lon="31.2681909744"><ele>239.51</ele><time>2026-09-02T19:57:52Z</time></trkpt><trkpt lat="59.5586409420" lon="31.2681909744"><ele>239.51</ele><time>2026-09-02T19:57:53Z</time></trkpt><trkpt lat="59.5586409420" lon="31.2681909744"><ele>239.51</ele><time>2026-09-02T19:57:54Z</time></trkpt><trkpt lat="59.5586409420" lon="31.2681909744"><ele>239.51</ele><time>2026-09-02T19:57:55Z</time></trkpt><trkpt lat="59.5586409420" lon="31.2681909744"><ele>239.02</ele><time>2026-09-02T19:57:56Z</time></trkpt><trkpt lat="59.5586409420" lon="31.2681909744"><ele>239.02</ele><time>2026-09-02T19:57:57Z</time></trkpt><trkpt lat="59.5586409420" lon="31.2681909744"><ele>239.02</ele><time>2026-09-02T19:57:58Z</time></trkpt><trkpt lat="59.5586409420" lon="31.2681909744"><ele>239.02</ele><time>2026-09-02T19:57:59Z</time></trkpt><trkpt lat="59.5586409420" lon="31.2681909744"><ele>239.02</ele><time>2026-09-02T19:58:00Z</time></trkpt><trkpt lat="59.5586409420" lon="31.2681909744"><ele>239.02</ele><time>2026-09-02T19:58:01Z</time></trkpt><trkpt lat="59.5586409420" lon="31.2681909744"><ele>239.02</ele><time>2026-09-02T19:58:02Z</time></trkpt><trkpt lat="59.5586409420" lon="31.2681909744"><ele>239.02</ele><time>2026-09-02T19:58:03Z</time></trkpt><trkpt lat="59.5586409420" lon="31.2681909744"><ele>239.02</ele><time>2026-09-02T19:58:04Z</time></trkpt><trkpt lat="59.5586409420" lon="31.2681909744"><ele>239.02</ele><time>2026-09-02T19:58:05Z</time></trkpt><trkpt lat="59.5586409420" lon="31.2681909744"><ele>239.02</ele><time>2026-09-02T19:58:06Z</time></trkpt><trkpt lat="59.5586409420" lon="31.2681909744"><ele>239.02</ele><time>2026-09-02T19:58:07Z</time></trkpt><trkpt lat="59.5586409420" lon="31.2681909744"><ele>239.02</ele><time>2026-09-02T19:58:08Z</time></trkpt><trkpt lat="59.5586409420" lon="31.2681909744"><ele>239.02</ele><time>2026-09-02T19:58:09Z</time></trkpt><trkpt lat="59.5586409420" lon="31.2681909744"><ele>239.02</ele><time>2026-09-02T19:58:10Z</time></trkpt><trkpt lat="59.5586409420" lon="31.2681909744"><ele>239.02</ele><time>2026-09-02T19:58:11Z</time></trkpt><trkpt lat="59.5586409420" lon="31.2681909744"><ele>239.02</ele><time>2026-09-02T19:58:12Z</time></trkpt><trkpt lat="59.5586409420" lon="31.2681909744"><ele>239.02</ele><time>2026-09-02T19:58:13Z</time></trkpt><trkpt lat="59.5586409420" lon="31.2681909744"><ele>239.02</ele><time>2026-09-02T19:58:14Z</time></trkpt><trkpt lat="59.5586409420" lon="31.2681909744"><ele>239.02</ele><time>2026-09-02T19:58:15Z</time></trkpt><trkpt lat="59.5586409420" lon="31.2681909744"><ele>239.02</ele><time>2026-09-02T19:58:16Z</time></trkpt><trkpt lat="59.5586409420" lon="31.2681909744"><ele>239.02</ele><time>2026-09-02T19:58:17Z</time></trkpt><trkpt lat="59.5586409420" lon="31.2681909744"><ele>239.02</ele><time>2026-09-02T19:58:18Z</time></trkpt><trkpt lat="59.5586409420" lon="31.2681909744"><ele>239.02</ele><time>2026-09-02T19:58:19Z</time></trkpt><trkpt lat="59.5586409420" lon="31.2681909744"><ele>239.02</ele><time>2026-09-02T19:58:20Z</time></trkpt><trkpt lat="59.5586409420" lon="31.2681909744"><ele>239.02</ele><time>2026-09-02T19:58:21Z</time></trkpt><trkpt lat="59.5586409420" lon="31.2681909744"><ele>239.02</ele><time>2026-09-02T19:58:22Z</time></trkpt><trkpt lat="59.5586409420" lon="31.2681909744"><ele>239.02</ele><time>2026-09-02T19:58:23Z</time></trkpt><trkpt lat="59.5586409420" lon="31.2681909744"><ele>239.02</ele><time>2026-09-02T19:58:24Z</time></trkpt><trkpt lat="59.5586409420" lon="31.2681909744"><ele>239.02</ele><time>2026-09-02T19:58:25Z</time></trkpt><trkpt lat="59.5586409420" lon="31.2681909744"><ele>239.02</ele><time>2026-09-02T19:58:26Z</time></trkpt><trkpt lat="59.5586409420" lon="31.2681909744"><ele>239.02</ele><time>2026-09-02T19:58:27Z</time></trkpt><trkpt lat="59.5586409420" lon="31.2681909744"><ele>239.02</ele><time>2026-09-02T19:58:28Z</time></trkpt><trkpt lat="59.5586409420" lon="31.2681909744"><ele>239.02</ele><time>2026-09-02T19:58:29Z</time></trkpt><trkpt lat="59.5586409420" lon="31.2681909744"><ele>239.02</ele><time>2026-09-02T19:58:30Z</time></trkpt><trkpt lat="59.5586409420" lon="31.2681909744"><ele>239.02</ele><time>2026-09-02T19:58:31Z</time></trkpt><trkpt lat="59.5586409420" lon="31.2681909744"><ele>239.02</ele><time>2026-09-02T19:58:32Z</time></trkpt><trkpt lat="59.5586409420" lon="31.2681909744"><ele>239.51</ele><time>2026-09-02T19:58:33Z</time></trkpt><trkpt lat="59.5586409420" lon="31.2681909744"><ele>239.51</ele><time>2026-09-02T19:58:34Z</time></trkpt><trkpt lat="59.5586409420" lon="31.2681909744"><ele>239.51</ele><time>2026-09-02T19:58:35Z</time></trkpt><trkpt lat="59.5586409420" lon="31.2681909744"><ele>239.51</ele><time>2026-09-02T19:58:36Z</time></trkpt><trkpt lat="59.5586409420" lon="31.2681909744"><ele>239.51</ele><time>2026-09-02T19:58:37Z</time></trkpt><trkpt lat="59.5586409420" lon="31.2681909744"><ele>239.51</ele><time>2026-09-02T19:58:38Z</time></trkpt><trkpt lat="59.5586409420" lon="31.2681909744"><ele>239.51</ele><time>2026-09-02T19:58:39Z</time></trkpt><trkpt lat="59.5586409420" lon="31.2681909744"><ele>239.51</ele><time>2026-09-02T19:58:40Z</time></trkpt><trkpt lat="59.5586409420" lon="31.2681909744"><ele>239.51</ele><time>2026-09-02T19:58:41Z</time></trkpt><trkpt lat="59.5586409420" lon="31.2681909744"><ele>239.99</ele><time>2026-09-02T19:58:42Z</time></trkpt><trkpt lat="59.5586409420" lon="31.2681909744"><ele>239.99</ele><time>2026-09-02T19:58:43Z</time></trkpt><trkpt lat="59.5586409420" lon="31.2681909744"><ele>239.99</ele><time>2026-09-02T19:58:44Z</time></trkpt><trkpt lat="59.5586409420" lon="31.2681909744"><ele>239.99</ele><time>2026-09-02T19:58:45Z</time></trkpt><trkpt lat="59.5586409420" lon="31.2681909744"><ele>239.99</ele><time>2026-09-02T19:58:46Z</time></trkpt><trkpt lat="59.5586409420" lon="31.2681909744"><ele>239.99</ele><time>2026-09-02T19:58:47Z</time></trkpt><trkpt lat="59.5586409420" lon="31.2681909744"><ele>239.99</ele><time>2026-09-02T19:58:48Z</time></trkpt><trkpt lat="59.5586409420" lon="31.2681909744"><ele>239.99</ele><time>2026-09-02T19:58:49Z</time></trkpt><trkpt lat="59.5586409420" lon="31.2681909744"><ele>239.99</ele><time>2026-09-02T19:58:50Z</time></trkpt><trkpt lat="59.5586409420" lon="31.2681909744"><ele>239.99</ele><time>2026-09-02T19:58:51Z</time></trkpt><trkpt lat="59.5586409420" lon="31.2681909744"><ele>239.99</ele><time>2026-09-02T19:58:52Z</time></trkpt><trkpt lat="59.5586409420" lon="31.2681909744"><ele>239.99</ele><time>2026-09-02T19:58:53Z</time></trkpt><trkpt lat="59.5586409420" lon="31.2681909744"><ele>239.99</ele><time>2026-09-02T19:58:54Z</time></trkpt><trkpt lat="59.5586409420" lon="31.2681909744"><ele>239.51</ele><time>2026-09-02T19:58:55Z</time></trkpt><trkpt lat="59.5586409420" lon="31.2681909744"><ele>239.51</ele><time>2026-09-02T19:58:56Z</time></trkpt><trkpt lat="59.5586409420" lon="31.2681909744"><ele>239.51</ele><time>2026-09-02T19:58:57Z</time></trkpt><trkpt lat="59.5586409420" lon="31.2681909744"><ele>239.51</ele><time>2026-09-02T19:58:58Z</time></trkpt><trkpt lat="59.5586409420" lon="31.2681909744"><ele>239.51</ele><time>2026-09-02T19:58:59Z</time></trkpt><trkpt lat="59.5586409420" lon="31.2681909744"><ele>239.51</ele><time>2026-09-02T19:59:00Z</time></trkpt><trkpt lat="59.5586409420" lon="31.2681909744"><ele>239.51</ele><time>2026-09-02T19:59:01Z</time></trkpt><trkpt lat="59.5586409420" lon="31.2681909744"><ele>239.51</ele><time>2026-09-02T19:59:02Z</time></trkpt><trkpt lat="59.5586409420" lon="31.2681909744"><ele>239.51</ele><time>2026-09-02T19:59:03Z</time></trkpt><trkpt lat="59.5586409420" lon="31.2681909744"><ele>239.51</ele><time>2026-09-02T19:59:04Z</time></trkpt><trkpt lat="59.5586409420" lon="31.2681909744"><ele>239.51</ele><time>2026-09-02T19:59:05Z</time></trkpt><trkpt lat="59.5586409420" lon="31.2681909744"><ele>239.51</ele><time>2026-09-02T19:59:06Z</time></trkpt><trkpt lat="59.5586409420" lon="31.2681909744"><ele>239.51</ele><time>2026-09-02T19:59:07Z</time></trkpt><trkpt lat="59.5586409420" lon="31.2681909744"><ele>239.51</ele><time>2026-09-02T19:59:08Z</time></trkpt><trkpt lat="59.5586409420" lon="31.2681909744"><ele>239.51</ele><time>2026-09-02T19:59:09Z</time></trkpt><trkpt lat="59.5586409420" lon="31.2681909744"><ele>239.51</ele><time>2026-09-02T19:59:10Z</time></trkpt><trkpt lat="59.5586409420" lon="31.2681909744"><ele>239.51</ele><time>2026-09-02T19:59:11Z</time></trkpt><trkpt lat="59.5586409420" lon="31.2681909744"><ele>239.51</ele><time>2026-09-02T19:59:12Z</time></trkpt><trkpt lat="59.5586409420" lon="31.2681909744"><ele>239.51</ele><time>2026-09-02T19:59:13Z</time></trkpt><trkpt lat="59.5586409420" lon="31.2681909744"><ele>239.51</ele><time>2026-09-02T19:59:14Z</time></trkpt><trkpt lat="59.5586409420" lon="31.2681909744"><ele>239.51</ele><time>2026-09-02T19:59:15Z</time></trkpt><trkpt lat="59.5586409420" lon="31.2681909744"><ele>239.02</ele><time>2026-09-02T19:59:16Z</time></trkpt><trkpt lat="59.5586409420" lon="31.2681909744"><ele>239.02</ele><time>2026-09-02T19:59:17Z</time></trkpt><trkpt lat="59.5586409420" lon="31.2681909744"><ele>239.02</ele><time>2026-09-02T19:59:18Z</time></trkpt><trkpt lat="59.5586409420" lon="31.2681909744"><ele>239.02</ele><time>2026-09-02T19:59:19Z</time></trkpt><trkpt lat="59.5586409420" lon="31.2681909744"><ele>239.02</ele><time>2026-09-02T19:59:20Z</time></trkpt><trkpt lat="59.5586409420" lon="31.2681909744"><ele>239.02</ele><time>2026-09-02T19:59:21Z</time></trkpt><trkpt lat="59.5586409420" lon="31.2681909744"><ele>239.02</ele><time>2026-09-02T19:59:22Z</time></trkpt><trkpt lat="59.5586409420" lon="31.2681909744"><ele>239.51</ele><time>2026-09-02T19:59:23Z</time></trkpt><trkpt lat="59.5586409420" lon="31.2681909744"><ele>239.51</ele><time>2026-09-02T19:59:24Z</time></trkpt><trkpt lat="59.5586409420" lon="31.2681909744"><ele>239.51</ele><time>2026-09-02T19:59:25Z</time></trkpt><trkpt lat="59.5586409420" lon="31.2681909744"><ele>239.51</ele><time>2026-09-02T19:59:26Z</time></trkpt><trkpt lat="59.5586409420" lon="31.2681909744"><ele>239.99</ele><time>2026-09-02T19:59:27Z</time></trkpt><trkpt lat="59.5586409420" lon="31.2681909744"><ele>239.99</ele><time>2026-09-02T19:59:28Z</time></trkpt><trkpt lat="59.5586409420" lon="31.2681909744"><ele>239.99</ele><time>2026-09-02T19:59:29Z</time></trkpt><trkpt lat="59.5586409420" lon="31.2681909744"><ele>239.99</ele><time>2026-09-02T19:59:30Z</time></trkpt><trkpt lat="59.5586409420" lon="31.2681909744"><ele>239.99</ele><time>2026-09-02T19:59:31Z</time></trkpt><trkpt lat="59.5586409420" lon="31.2681909744"><ele>239.99</ele><time>2026-09-02T19:59:32Z</time></trkpt><trkpt lat="59.5586409420" lon="31.2681909744"><ele>239.99</ele><time>2026-09-02T19:59:33Z</time></trkpt><trkpt lat="59.5586409420" lon="31.2681909744"><ele>239.99</ele><time>2026-09-02T19:59:34Z</time></trkpt><trkpt lat="59.5586409420" lon="31.2681909744"><ele>239.99</ele><time>2026-09-02T19:59:35Z</time></trkpt><trkpt lat="59.5586409420" lon="31.2681909744"><ele>239.99</ele><time>2026-09-02T19:59:36Z</time></trkpt><trkpt lat="59.5586409420" lon="31.2681909744"><ele>239.51</ele><time>2026-09-02T19:59:37Z</time></trkpt><trkpt lat="59.5586409420" lon="31.2681909744"><ele>239.51</ele><time>2026-09-02T19:59:38Z</time></trkpt><trkpt lat="59.5586409420" lon="31.2681909744"><ele>239.51</ele><time>2026-09-02T19:59:39Z</time></trkpt><trkpt lat="59.5586409420" lon="31.2681909744"><ele>239.51</ele><time>2026-09-02T19:59:40Z</time></trkpt><trkpt lat="59.5586409420" lon="31.2681909744"><ele>239.51</ele><time>2026-09-02T19:59:41Z</time></trkpt><trkpt lat="59.5586409420" lon="31.2681909744"><ele>239.51</ele><time>2026-09-02T19:59:42Z</time></trkpt><trkpt lat="59.5586409420" lon="31.2681909744"><ele>239.51</ele><time>2026-09-02T19:59:43Z</time></trkpt><trkpt lat="59.5586409420" lon="31.2681909744"><ele>239.51</ele><time>2026-09-02T19:59:44Z</time></trkpt><trkpt lat="59.5586409420" lon="31.2681909744"><ele>239.51</ele><time>2026-09-02T19:59:45Z</time></trkpt><trkpt lat="59.5586409420" lon="31.2681909744"><ele>239.51</ele><time>2026-09-02T19:59:46Z</time></trkpt><trkpt lat="59.5586409420" lon="31.2681909744"><ele>239.51</ele><time>2026-09-02T19:59:47Z</time></trkpt><trkpt lat="59.5586409420" lon="31.2681909744"><ele>239.51</ele><time>2026-09-02T19:59:48Z</time></trkpt><trkpt lat="59.5586409420" lon="31.2681909744"><ele>239.51</ele><time>2026-09-02T19:59:49Z</time></trkpt><trkpt lat="59.5586409420" lon="31.2681909744"><ele>239.51</ele><time>2026-09-02T19:59:50Z</time></trkpt><trkpt lat="59.5586389303" lon="31.2680117693"><ele>239.51</ele><time>2026-09-02T19:59:51Z</time></trkpt><trkpt lat="59.5586432889" lon="31.2680050638"><ele>239.51</ele><time>2026-09-02T19:59:52Z</time></trkpt><trkpt lat="59.5586395171" lon="31.2680082489"><ele>239.51</ele><time>2026-09-02T19:59:53Z</time></trkpt><trkpt lat="59.5586421993" lon="31.2680022977"><ele>239.51</ele><time>2026-09-02T19:59:54Z</time></trkpt><trkpt lat="59.5586421993" lon="31.2680022977"><ele>239.51</ele><time>2026-09-02T19:59:55Z</time></trkpt><trkpt lat="59.5586421993" lon="31.2680022977"><ele>239.99</ele><time>2026-09-02T19:59:56Z</time></trkpt><trkpt lat="59.5586421993" lon="31.2680022977"><ele>239.99</ele><time>2026-09-02T19:59:57Z</time></trkpt><trkpt lat="59.5586421993" lon="31.2680022977"><ele>239.99</ele><time>2026-09-02T19:59:58Z</time></trkpt><trkpt lat="59.5586421993" lon="31.2680022977"><ele>239.99</ele><time>2026-09-02T19:59:59Z</time></trkpt><trkpt lat="59.5586514194" lon="31.2679668423"><ele>239.99</ele><time>2026-09-02T20:00:00Z</time></trkpt><trkpt lat="59.5586556941" lon="31.2679613940"><ele>239.99</ele><time>2026-09-02T20:00:01Z</time></trkpt><trkpt lat="59.5586591307" lon="31.2679583766"><ele>239.99</ele><time>2026-09-02T20:00:02Z</time></trkpt><trkpt lat="59.5586615615" lon="31.2679536827"><ele>239.99</ele><time>2026-09-02T20:00:03Z</time></trkpt><trkpt lat="59.5586637408" lon="31.2679524254"><ele>239.99</ele><time>2026-09-02T20:00:04Z</time></trkpt><trkpt lat="59.5586637408" lon="31.2679524254"><ele>239.99</ele><time>2026-09-02T20:00:05Z</time></trkpt><trkpt lat="59.5586637408" lon="31.2679524254"><ele>239.99</ele><time>2026-09-02T20:00:06Z</time></trkpt><trkpt lat="59.5586637408" lon="31.2679524254"><ele>239.99</ele><time>2026-09-02T20:00:07Z</time></trkpt><trkpt lat="59.5586637408" lon="31.2679524254"><ele>239.99</ele><time>2026-09-02T20:00:08Z</time></trkpt><trkpt lat="59.5586637408" lon="31.2679524254"><ele>239.99</ele><time>2026-09-02T20:00:09Z</time></trkpt><trkpt lat="59.5586637408" lon="31.2679524254"><ele>239.99</ele><time>2026-09-02T20:00:10Z</time></trkpt><trkpt lat="59.5586637408" lon="31.2679524254"><ele>239.99</ele><time>2026-09-02T20:00:11Z</time></trkpt><trkpt lat="59.5586637408" lon="31.2679524254"><ele>239.99</ele><time>2026-09-02T20:00:12Z</time></trkpt><trkpt lat="59.5586637408" lon="31.2679524254"><ele>239.99</ele><time>2026-09-02T20:00:13Z</time></trkpt><trkpt lat="59.5586637408" lon="31.2679524254"><ele>239.99</ele><time>2026-09-02T20:00:14Z</time></trkpt><trkpt lat="59.5586637408" lon="31.2679524254"><ele>239.99</ele><time>2026-09-02T20:00:15Z</time></trkpt><trkpt lat="59.5586637408" lon="31.2679524254"><ele>239.99</ele><time>2026-09-02T20:00:16Z</time></trkpt><trkpt lat="59.5586637408" lon="31.2679524254"><ele>239.99</ele><time>2026-09-02T20:00:17Z</time></trkpt><trkpt lat="59.5586637408" lon="31.2679524254"><ele>239.99</ele><time>2026-09-02T20:00:18Z</time></trkpt><trkpt lat="59.5586637408" lon="31.2679524254"><ele>239.99</ele><time>2026-09-02T20:00:19Z</time></trkpt><trkpt lat="59.5586637408" lon="31.2679524254"><ele>239.99</ele><time>2026-09-02T20:00:20Z</time></trkpt><trkpt lat="59.5586637408" lon="31.2679524254"><ele>239.99</ele><time>2026-09-02T20:00:21Z</time></trkpt><trkpt lat="59.5586637408" lon="31.2679524254"><ele>239.99</ele><time>2026-09-02T20:00:22Z</time></trkpt><trkpt lat="59.5586637408" lon="31.2679524254"><ele>239.99</ele><time>2026-09-02T20:00:23Z</time></trkpt><trkpt lat="59.5586821809" lon="31.2679368351"><ele>239.99</ele><time>2026-09-02T20:00:24Z</time></trkpt><trkpt lat="59.5586859528" lon="31.2679322250"><ele>239.99</ele><time>2026-09-02T20:00:25Z</time></trkpt><trkpt lat="59.5586886350" lon="31.2679274473"><ele>239.99</ele><time>2026-09-02T20:00:26Z</time></trkpt><trkpt lat="59.5586914849" lon="31.2679239269"><ele>239.99</ele><time>2026-09-02T20:00:27Z</time></trkpt><trkpt lat="59.5586934965" lon="31.2679198198"><ele>239.99</ele><time>2026-09-02T20:00:28Z</time></trkpt><trkpt lat="59.5586948376" lon="31.2679152936"><ele>239.99</ele><time>2026-09-02T20:00:29Z</time></trkpt><trkpt lat="59.5586948376" lon="31.2679152936"><ele>239.99</ele><time>2026-09-02T20:00:30Z</time></trkpt><trkpt lat="59.5586948376" lon="31.2679152936"><ele>239.99</ele><time>2026-09-02T20:00:31Z</time></trkpt><trkpt lat="59.5586948376" lon="31.2679152936"><ele>240.47</ele><time>2026-09-02T20:00:32Z</time></trkpt><trkpt lat="59.5586985257" lon="31.2679013796"><ele>240.47</ele><time>2026-09-02T20:00:33Z</time></trkpt><trkpt lat="59.5587000344" lon="31.2678924948"><ele>240.47</ele><time>2026-09-02T20:00:34Z</time></trkpt><trkpt lat="59.5587012917" lon="31.2678877171"><ele>240.47</ele><time>2026-09-02T20:00:35Z</time></trkpt><trkpt lat="59.5587062370" lon="31.2678811792"><ele>240.47</ele><time>2026-09-02T20:00:36Z</time></trkpt><trkpt lat="59.5587080810" lon="31.2678773236"><ele>240.47</ele><time>2026-09-02T20:00:37Z</time></trkpt><trkpt lat="59.5587080810" lon="31.2678773236"><ele>240.47</ele><time>2026-09-02T20:00:38Z</time></trkpt><trkpt lat="59.5587080810" lon="31.2678773236"><ele>240.47</ele><time>2026-09-02T20:00:39Z</time></trkpt><trkpt lat="59.5587080810" lon="31.2678773236"><ele>240.47</ele><time>2026-09-02T20:00:40Z</time></trkpt><trkpt lat="59.5587080810" lon="31.2678773236"><ele>239.99</ele><time>2026-09-02T20:00:41Z</time></trkpt><trkpt lat="59.5587080810" lon="31.2678773236"><ele>239.99</ele><time>2026-09-02T20:00:42Z</time></trkpt><trkpt lat="59.5587080810" lon="31.2678773236"><ele>239.99</ele><time>2026-09-02T20:00:43Z</time></trkpt><trkpt lat="59.5587080810" lon="31.2678773236"><ele>239.99</ele><time>2026-09-02T20:00:44Z</time></trkpt><trkpt lat="59.5587080810" lon="31.2678773236"><ele>239.99</ele><time>2026-09-02T20:00:45Z</time></trkpt><trkpt lat="59.5587080810" lon="31.2678773236"><ele>239.99</ele><time>2026-09-02T20:00:46Z</time></trkpt><trkpt lat="59.5587080810" lon="31.2678773236"><ele>239.99</ele><time>2026-09-02T20:00:47Z</time></trkpt><trkpt lat="59.5587080810" lon="31.2678773236"><ele>239.99</ele><time>2026-09-02T20:00:48Z</time></trkpt><trkpt lat="59.5587080810" lon="31.2678773236"><ele>239.99</ele><time>2026-09-02T20:00:49Z</time></trkpt><trkpt lat="59.5587080810" lon="31.2678773236"><ele>239.99</ele><time>2026-09-02T20:00:50Z</time></trkpt><trkpt lat="59.5587080810" lon="31.2678773236"><ele>239.99</ele><time>2026-09-02T20:00:51Z</time></trkpt><trkpt lat="59.5587080810" lon="31.2678773236"><ele>239.99</ele><time>2026-09-02T20:00:52Z</time></trkpt><trkpt lat="59.5587080810" lon="31.2678773236"><ele>239.99</ele><time>2026-09-02T20:00:53Z</time></trkpt><trkpt lat="59.5587080810" lon="31.2678773236"><ele>239.99</ele><time>2026-09-02T20:00:54Z</time></trkpt><trkpt lat="59.5587080810" lon="31.2678773236"><ele>239.99</ele><time>2026-09-02T20:00:55Z</time></trkpt><trkpt lat="59.5587080810" lon="31.2678773236"><ele>239.99</ele><time>2026-09-02T20:00:56Z</time></trkpt><trkpt lat="59.5587080810" lon="31.2678773236"><ele>239.99</ele><time>2026-09-02T20:00:57Z</time></trkpt><trkpt lat="59.5587080810" lon="31.2678773236"><ele>239.99</ele><time>2026-09-02T20:00:58Z</time></trkpt><trkpt lat="59.5587080810" lon="31.2678773236"><ele>239.99</ele><time>2026-09-02T20:00:59Z</time></trkpt><trkpt lat="59.5587080810" lon="31.2678773236"><ele>239.99</ele><time>2026-09-02T20:01:00Z</time></trkpt><trkpt lat="59.5587080810" lon="31.2678773236"><ele>239.99</ele><time>2026-09-02T20:01:01Z</time></trkpt><trkpt lat="59.5587080810" lon="31.2678773236"><ele>239.99</ele><time>2026-09-02T20:01:02Z</time></trkpt><trkpt lat="59.5587080810" lon="31.2678773236"><ele>239.99</ele><time>2026-09-02T20:01:03Z</time></trkpt><trkpt lat="59.5587080810" lon="31.2678773236"><ele>239.99</ele><time>2026-09-02T20:01:04Z</time></trkpt><trkpt lat="59.5587080810" lon="31.2678773236"><ele>239.99</ele><time>2026-09-02T20:01:05Z</time></trkpt><trkpt lat="59.5587080810" lon="31.2678773236"><ele>239.99</ele><time>2026-09-02T20:01:06Z</time></trkpt><trkpt lat="59.5587080810" lon="31.2678773236"><ele>239.99</ele><time>2026-09-02T20:01:07Z</time></trkpt><trkpt lat="59.5587080810" lon="31.2678773236"><ele>239.99</ele><time>2026-09-02T20:01:08Z</time></trkpt><trkpt lat="59.5587080810" lon="31.2678773236"><ele>239.99</ele><time>2026-09-02T20:01:09Z</time></trkpt><trkpt lat="59.5587080810" lon="31.2678773236"><ele>239.99</ele><time>2026-09-02T20:01:10Z</time></trkpt><trkpt lat="59.5587080810" lon="31.2678773236"><ele>239.99</ele><time>2026-09-02T20:01:11Z</time></trkpt><trkpt lat="59.5587597974" lon="31.2678486574"><ele>239.99</ele><time>2026-09-02T20:01:12Z</time></trkpt><trkpt lat="59.5587632339" lon="31.2678391859"><ele>239.99</ele><time>2026-09-02T20:01:13Z</time></trkpt><trkpt lat="59.5587655809" lon="31.2678320613"><ele>239.99</ele><time>2026-09-02T20:01:14Z</time></trkpt><trkpt lat="59.5587686822" lon="31.2678269483"><ele>239.99</ele><time>2026-09-02T20:01:15Z</time></trkpt><trkpt lat="59.5587725379" lon="31.2678195722"><ele>239.99</ele><time>2026-09-02T20:01:16Z</time></trkpt><trkpt lat="59.5587759744" lon="31.2678108551"><ele>239.99</ele><time>2026-09-02T20:01:17Z</time></trkpt><trkpt lat="59.5587808359" lon="31.2678014673"><ele>239.99</ele><time>2026-09-02T20:01:18Z</time></trkpt><trkpt lat="59.5587832667" lon="31.2677957676"><ele>239.99</ele><time>2026-09-02T20:01:19Z</time></trkpt><trkpt lat="59.5587882958" lon="31.2677888945"><ele>239.99</ele><time>2026-09-02T20:01:20Z</time></trkpt><trkpt lat="59.5587889664" lon="31.2677738909"><ele>239.99</ele><time>2026-09-02T20:01:21Z</time></trkpt><trkpt lat="59.5587975997" lon="31.2677638326"><ele>239.99</ele><time>2026-09-02T20:01:22Z</time></trkpt><trkpt lat="59.5588010363" lon="31.2677612342"><ele>239.99</ele><time>2026-09-02T20:01:23Z</time></trkpt><trkpt lat="59.5588045567" lon="31.2677588873"><ele>239.99</ele><time>2026-09-02T20:01:24Z</time></trkpt><trkpt lat="59.5588069875" lon="31.2677579653"><ele>239.99</ele><time>2026-09-02T20:01:25Z</time></trkpt><trkpt lat="59.5588069875" lon="31.2677579653"><ele>239.99</ele><time>2026-09-02T20:01:26Z</time></trkpt><trkpt lat="59.5588069875" lon="31.2677579653"><ele>239.99</ele><time>2026-09-02T20:01:27Z</time></trkpt><trkpt lat="59.5588069875" lon="31.2677579653"><ele>239.99</ele><time>2026-09-02T20:01:28Z</time></trkpt><trkpt lat="59.5588069875" lon="31.2677579653"><ele>239.99</ele><time>2026-09-02T20:01:29Z</time></trkpt><trkpt lat="59.5588069875" lon="31.2677579653"><ele>239.99</ele><time>2026-09-02T20:01:30Z</time></trkpt><trkpt lat="59.5588069875" lon="31.2677579653"><ele>239.99</ele><time>2026-09-02T20:01:31Z</time></trkpt><trkpt lat="59.5588069875" lon="31.2677579653"><ele>239.99</ele><time>2026-09-02T20:01:32Z</time></trkpt><trkpt lat="59.5588069875" lon="31.2677579653"><ele>239.99</ele><time>2026-09-02T20:01:33Z</time></trkpt><trkpt lat="59.5588069875" lon="31.2677579653"><ele>239.99</ele><time>2026-09-02T20:01:34Z</time></trkpt><trkpt lat="59.5588069875" lon="31.2677579653"><ele>239.99</ele><time>2026-09-02T20:01:35Z</time></trkpt><trkpt lat="59.5588069875" lon="31.2677579653"><ele>239.99</ele><time>2026-09-02T20:01:36Z</time></trkpt><trkpt lat="59.5588069875" lon="31.2677579653"><ele>239.99</ele><time>2026-09-02T20:01:37Z</time></trkpt><trkpt lat="59.5588069875" lon="31.2677579653"><ele>239.99</ele><time>2026-09-02T20:01:38Z</time></trkpt><trkpt lat="59.5588069875" lon="31.2677579653"><ele>239.99</ele><time>2026-09-02T20:01:39Z</time></trkpt><trkpt lat="59.5588069875" lon="31.2677579653"><ele>239.99</ele><time>2026-09-02T20:01:40Z</time></trkpt><trkpt lat="59.5588069875" lon="31.2677579653"><ele>239.51</ele><time>2026-09-02T20:01:41Z</time></trkpt><trkpt lat="59.5588069875" lon="31.2677579653"><ele>239.51</ele><time>2026-09-02T20:01:42Z</time></trkpt><trkpt lat="59.5588069875" lon="31.2677579653"><ele>239.51</ele><time>2026-09-02T20:01:43Z</time></trkpt><trkpt lat="59.5588069875" lon="31.2677579653"><ele>239.51</ele><time>2026-09-02T20:01:44Z</time></trkpt><trkpt lat="59.5588069875" lon="31.2677579653"><ele>239.51</ele><time>2026-09-02T20:01:45Z</time></trkpt><trkpt lat="59.5588069875" lon="31.2677579653"><ele>239.51</ele><time>2026-09-02T20:01:46Z</time></trkpt><trkpt lat="59.5588069875" lon="31.2677579653"><ele>239.51</ele><time>2026-09-02T20:01:47Z</time></trkpt><trkpt lat="59.5588069875" lon="31.2677579653"><ele>239.51</ele><time>2026-09-02T20:01:48Z</time></trkpt><trkpt lat="59.5588069875" lon="31.2677579653"><ele>239.51</ele><time>2026-09-02T20:01:49Z</time></trkpt><trkpt lat="59.5588069875" lon="31.2677579653"><ele>239.51</ele><time>2026-09-02T20:01:50Z</time></trkpt><trkpt lat="59.5588069875" lon="31.2677579653"><ele>239.51</ele><time>2026-09-02T20:01:51Z</time></trkpt><trkpt lat="59.5588069875" lon="31.2677579653"><ele>239.51</ele><time>2026-09-02T20:01:52Z</time></trkpt><trkpt lat="59.5588069875" lon="31.2677579653"><ele>239.51</ele><time>2026-09-02T20:01:53Z</time></trkpt><trkpt lat="59.5588069875" lon="31.2677579653"><ele>239.51</ele><time>2026-09-02T20:01:54Z</time></trkpt><trkpt lat="59.5588069875" lon="31.2677579653"><ele>239.51</ele><time>2026-09-02T20:01:55Z</time></trkpt><trkpt lat="59.5588069875" lon="31.2677579653"><ele>239.51</ele><time>2026-09-02T20:01:56Z</time></trkpt><trkpt lat="59.5588069875" lon="31.2677579653"><ele>239.51</ele><time>2026-09-02T20:01:57Z</time></trkpt><trkpt lat="59.5588069875" lon="31.2677579653"><ele>239.51</ele><time>2026-09-02T20:01:58Z</time></trkpt><trkpt lat="59.5588069875" lon="31.2677579653"><ele>239.51</ele><time>2026-09-02T20:01:59Z</time></trkpt><trkpt lat="59.5588069875" lon="31.2677579653"><ele>239.51</ele><time>2026-09-02T20:02:00Z</time></trkpt><trkpt lat="59.5588069875" lon="31.2677579653"><ele>239.51</ele><time>2026-09-02T20:02:01Z</time></trkpt><trkpt lat="59.5588069875" lon="31.2677579653"><ele>239.51</ele><time>2026-09-02T20:02:02Z</time></trkpt><trkpt lat="59.5588963386" lon="31.2677373458"><ele>239.51</ele><time>2026-09-02T20:02:03Z</time></trkpt><trkpt lat="59.5588980988" lon="31.2677359208"><ele>239.51</ele><time>2026-09-02T20:02:04Z</time></trkpt><trkpt lat="59.5588984340" lon="31.2677334901"><ele>239.51</ele><time>2026-09-02T20:02:05Z</time></trkpt><trkpt lat="59.5588980988" lon="31.2677304726"><ele>239.51</ele><time>2026-09-02T20:02:06Z</time></trkpt><trkpt lat="59.5588980988" lon="31.2677304726"><ele>239.51</ele><time>2026-09-02T20:02:07Z</time></trkpt><trkpt lat="59.5588980988" lon="31.2677304726"><ele>239.51</ele><time>2026-09-02T20:02:08Z</time></trkpt><trkpt lat="59.5588980988" lon="31.2677304726"><ele>239.51</ele><time>2026-09-02T20:02:09Z</time></trkpt><trkpt lat="59.5588980988" lon="31.2677304726"><ele>239.02</ele><time>2026-09-02T20:02:10Z</time></trkpt><trkpt lat="59.5588980988" lon="31.2677304726"><ele>239.02</ele><time>2026-09-02T20:02:11Z</time></trkpt><trkpt lat="59.5588980988" lon="31.2677304726"><ele>239.02</ele><time>2026-09-02T20:02:12Z</time></trkpt><trkpt lat="59.5588980988" lon="31.2677304726"><ele>239.02</ele><time>2026-09-02T20:02:13Z</time></trkpt><trkpt lat="59.5588980988" lon="31.2677304726"><ele>239.02</ele><time>2026-09-02T20:02:14Z</time></trkpt><trkpt lat="59.5588980988" lon="31.2677304726"><ele>239.02</ele><time>2026-09-02T20:02:15Z</time></trkpt><trkpt lat="59.5588980988" lon="31.2677304726"><ele>239.02</ele><time>2026-09-02T20:02:16Z</time></trkpt><trkpt lat="59.5588980988" lon="31.2677304726"><ele>239.02</ele><time>2026-09-02T20:02:17Z</time></trkpt><trkpt lat="59.5588980988" lon="31.2677304726"><ele>239.02</ele><time>2026-09-02T20:02:18Z</time></trkpt><trkpt lat="59.5588980988" lon="31.2677304726"><ele>239.02</ele><time>2026-09-02T20:02:19Z</time></trkpt><trkpt lat="59.5588980988" lon="31.2677304726"><ele>239.02</ele><time>2026-09-02T20:02:20Z</time></trkpt><trkpt lat="59.5588980988" lon="31.2677304726"><ele>239.02</ele><time>2026-09-02T20:02:21Z</time></trkpt><trkpt lat="59.5588980988" lon="31.2677304726"><ele>239.02</ele><time>2026-09-02T20:02:22Z</time></trkpt><trkpt lat="59.5588980988" lon="31.2677304726"><ele>239.02</ele><time>2026-09-02T20:02:23Z</time></trkpt><trkpt lat="59.5588980988" lon="31.2677304726"><ele>239.02</ele><time>2026-09-02T20:02:24Z</time></trkpt><trkpt lat="59.5588980988" lon="31.2677304726"><ele>239.02</ele><time>2026-09-02T20:02:25Z</time></trkpt><trkpt lat="59.5588980988" lon="31.2677304726"><ele>239.02</ele><time>2026-09-02T20:02:26Z</time></trkpt><trkpt lat="59.5588980988" lon="31.2677304726"><ele>239.02</ele><time>2026-09-02T20:02:27Z</time></trkpt><trkpt lat="59.5588980988" lon="31.2677304726"><ele>239.02</ele><time>2026-09-02T20:02:28Z</time></trkpt><trkpt lat="59.5588980988" lon="31.2677304726"><ele>239.02</ele><time>2026-09-02T20:02:29Z</time></trkpt><trkpt lat="59.5588980988" lon="31.2677304726"><ele>239.02</ele><time>2026-09-02T20:02:30Z</time></trkpt><trkpt lat="59.5588980988" lon="31.2677304726"><ele>239.02</ele><time>2026-09-02T20:02:31Z</time></trkpt><trkpt lat="59.5588980988" lon="31.2677304726"><ele>239.02</ele><time>2026-09-02T20:02:32Z</time></trkpt><trkpt lat="59.5588980988" lon="31.2677304726"><ele>239.02</ele><time>2026-09-02T20:02:33Z</time></trkpt><trkpt lat="59.5588980988" lon="31.2677304726"><ele>239.02</ele><time>2026-09-02T20:02:34Z</time></trkpt><trkpt lat="59.5588980988" lon="31.2677304726"><ele>239.02</ele><time>2026-09-02T20:02:35Z</time></trkpt><trkpt lat="59.5588980988" lon="31.2677304726"><ele>239.02</ele><time>2026-09-02T20:02:36Z</time></trkpt><trkpt lat="59.5588980988" lon="31.2677304726"><ele>239.02</ele><time>2026-09-02T20:02:37Z</time></trkpt><trkpt lat="59.5588980988" lon="31.2677304726"><ele>239.02</ele><time>2026-09-02T20:02:38Z</time></trkpt><trkpt lat="59.5588980988" lon="31.2677304726"><ele>239.02</ele><time>2026-09-02T20:02:39Z</time></trkpt><trkpt lat="59.5588980988" lon="31.2677304726"><ele>239.02</ele><time>2026-09-02T20:02:40Z</time></trkpt><trkpt lat="59.5588980988" lon="31.2677304726"><ele>239.02</ele><time>2026-09-02T20:02:41Z</time></trkpt><trkpt lat="59.5588980988" lon="31.2677304726"><ele>239.02</ele><time>2026-09-02T20:02:42Z</time></trkpt><trkpt lat="59.5588980988" lon="31.2677304726"><ele>239.02</ele><time>2026-09-02T20:02:43Z</time></trkpt><trkpt lat="59.5588980988" lon="31.2677304726"><ele>239.02</ele><time>2026-09-02T20:02:44Z</time></trkpt><trkpt lat="59.5588980988" lon="31.2677304726"><ele>239.02</ele><time>2026-09-02T20:02:45Z</time></trkpt><trkpt lat="59.5588980988" lon="31.2677304726"><ele>239.02</ele><time>2026-09-02T20:02:46Z</time></trkpt><trkpt lat="59.5588980988" lon="31.2677304726"><ele>239.02</ele><time>2026-09-02T20:02:47Z</time></trkpt><trkpt lat="59.5588980988" lon="31.2677304726"><ele>239.02</ele><time>2026-09-02T20:02:48Z</time></trkpt><trkpt lat="59.5588980988" lon="31.2677304726"><ele>239.02</ele><time>2026-09-02T20:02:49Z</time></trkpt><trkpt lat="59.5588980988" lon="31.2677304726"><ele>239.02</ele><time>2026-09-02T20:02:50Z</time></trkpt><trkpt lat="59.5588980988" lon="31.2677304726"><ele>239.02</ele><time>2026-09-02T20:02:51Z</time></trkpt><trkpt lat="59.5588980988" lon="31.2677304726"><ele>239.02</ele><time>2026-09-02T20:02:52Z</time></trkpt><trkpt lat="59.5588980988" lon="31.2677304726"><ele>239.02</ele><time>2026-09-02T20:02:53Z</time></trkpt><trkpt lat="59.5588980988" lon="31.2677304726"><ele>239.02</ele><time>2026-09-02T20:02:54Z</time></trkpt><trkpt lat="59.5588980988" lon="31.2677304726"><ele>239.02</ele><time>2026-09-02T20:02:55Z</time></trkpt><trkpt lat="59.5588980988" lon="31.2677304726"><ele>239.02</ele><time>2026-09-02T20:02:56Z</time></trkpt><trkpt lat="59.5588980988" lon="31.2677304726"><ele>239.02</ele><time>2026-09-02T20:02:57Z</time></trkpt><trkpt lat="59.5588980988" lon="31.2677304726"><ele>239.02</ele><time>2026-09-02T20:02:58Z</time></trkpt><trkpt lat="59.5588980988" lon="31.2677304726"><ele>239.02</ele><time>2026-09-02T20:02:59Z</time></trkpt><trkpt lat="59.5588980988" lon="31.2677304726"><ele>239.51</ele><time>2026-09-02T20:03:00Z</time></trkpt><trkpt lat="59.5588980988" lon="31.2677304726"><ele>239.51</ele><time>2026-09-02T20:03:01Z</time></trkpt><trkpt lat="59.5588980988" lon="31.2677304726"><ele>239.51</ele><time>2026-09-02T20:03:02Z</time></trkpt><trkpt lat="59.5588980988" lon="31.2677304726"><ele>239.51</ele><time>2026-09-02T20:03:03Z</time></trkpt><trkpt lat="59.5588980988" lon="31.2677304726"><ele>239.51</ele><time>2026-09-02T20:03:04Z</time></trkpt><trkpt lat="59.5588980988" lon="31.2677304726"><ele>239.51</ele><time>2026-09-02T20:03:05Z</time></trkpt><trkpt lat="59.5588980988" lon="31.2677304726"><ele>239.51</ele><time>2026-09-02T20:03:06Z</time></trkpt><trkpt lat="59.5588980988" lon="31.2677304726"><ele>239.51</ele><time>2026-09-02T20:03:07Z</time></trkpt><trkpt lat="59.5588980988" lon="31.2677304726"><ele>239.51</ele><time>2026-09-02T20:03:08Z</time></trkpt><trkpt lat="59.5588980988" lon="31.2677304726"><ele>239.51</ele><time>2026-09-02T20:03:09Z</time></trkpt><trkpt lat="59.5588980988" lon="31.2677304726"><ele>239.51</ele><time>2026-09-02T20:03:10Z</time></trkpt><trkpt lat="59.5589417685" lon="31.2676624954"><ele>239.51</ele><time>2026-09-02T20:03:11Z</time></trkpt><trkpt lat="59.5589434449" lon="31.2676512636"><ele>239.51</ele><time>2026-09-02T20:03:12Z</time></trkpt><trkpt lat="59.5589453727" lon="31.2676430494"><ele>239.51</ele><time>2026-09-02T20:03:13Z</time></trkpt><trkpt lat="59.5589446183" lon="31.2676375173"><ele>239.51</ele><time>2026-09-02T20:03:14Z</time></trkpt><trkpt lat="59.5589470491" lon="31.2676329911"><ele>239.51</ele><time>2026-09-02T20:03:15Z</time></trkpt><trkpt lat="59.5589470491" lon="31.2676329911"><ele>239.51</ele><time>2026-09-02T20:03:16Z</time></trkpt><trkpt lat="59.5589470491" lon="31.2676329911"><ele>239.02</ele><time>2026-09-02T20:03:17Z</time></trkpt><trkpt lat="59.5589470491" lon="31.2676329911"><ele>239.02</ele><time>2026-09-02T20:03:18Z</time></trkpt><trkpt lat="59.5589470491" lon="31.2676329911"><ele>239.02</ele><time>2026-09-02T20:03:19Z</time></trkpt><trkpt lat="59.5589470491" lon="31.2676329911"><ele>239.02</ele><time>2026-09-02T20:03:20Z</time></trkpt><trkpt lat="59.5589470491" lon="31.2676329911"><ele>239.02</ele><time>2026-09-02T20:03:21Z</time></trkpt><trkpt lat="59.5589470491" lon="31.2676329911"><ele>239.02</ele><time>2026-09-02T20:03:22Z</time></trkpt><trkpt lat="59.5589470491" lon="31.2676329911"><ele>239.02</ele><time>2026-09-02T20:03:23Z</time></trkpt><trkpt lat="59.5589470491" lon="31.2676329911"><ele>239.02</ele><time>2026-09-02T20:03:24Z</time></trkpt><trkpt lat="59.5589470491" lon="31.2676329911"><ele>239.02</ele><time>2026-09-02T20:03:25Z</time></trkpt><trkpt lat="59.5589470491" lon="31.2676329911"><ele>239.02</ele><time>2026-09-02T20:03:26Z</time></trkpt><trkpt lat="59.5589470491" lon="31.2676329911"><ele>239.02</ele><time>2026-09-02T20:03:27Z</time></trkpt><trkpt lat="59.5589470491" lon="31.2676329911"><ele>239.02</ele><time>2026-09-02T20:03:28Z</time></trkpt><trkpt lat="59.5589470491" lon="31.2676329911"><ele>239.02</ele><time>2026-09-02T20:03:29Z</time></trkpt><trkpt lat="59.5589470491" lon="31.2676329911"><ele>239.02</ele><time>2026-09-02T20:03:30Z</time></trkpt><trkpt lat="59.5589470491" lon="31.2676329911"><ele>239.02</ele><time>2026-09-02T20:03:31Z</time></trkpt><trkpt lat="59.5589470491" lon="31.2676329911"><ele>239.02</ele><time>2026-09-02T20:03:32Z</time></trkpt><trkpt lat="59.5589470491" lon="31.2676329911"><ele>239.02</ele><time>2026-09-02T20:03:33Z</time></trkpt><trkpt lat="59.5589470491" lon="31.2676329911"><ele>239.51</ele><time>2026-09-02T20:03:34Z</time></trkpt><trkpt lat="59.5589470491" lon="31.2676329911"><ele>239.51</ele><time>2026-09-02T20:03:35Z</time></trkpt><trkpt lat="59.5589839295" lon="31.2675880641"><ele>239.51</ele><time>2026-09-02T20:03:36Z</time></trkpt><trkpt lat="59.5589874499" lon="31.2675822806"><ele>239.51</ele><time>2026-09-02T20:03:37Z</time></trkpt><trkpt lat="59.5589915570" lon="31.2675753236"><ele>239.51</ele><time>2026-09-02T20:03:38Z</time></trkpt><trkpt lat="59.5589935686" lon="31.2675710488"><ele>239.51</ele><time>2026-09-02T20:03:39Z</time></trkpt><trkpt lat="59.5589969214" lon="31.2675657682"><ele>239.51</ele><time>2026-09-02T20:03:40Z</time></trkpt><trkpt lat="59.5590009447" lon="31.2675668579"><ele>239.51</ele><time>2026-09-02T20:03:41Z</time></trkpt><trkpt lat="59.5590009447" lon="31.2675668579"><ele>239.51</ele><time>2026-09-02T20:03:42Z</time></trkpt><trkpt lat="59.5590009447" lon="31.2675668579"><ele>239.02</ele><time>2026-09-02T20:03:43Z</time></trkpt><trkpt lat="59.5590009447" lon="31.2675668579"><ele>239.02</ele><time>2026-09-02T20:03:44Z</time></trkpt><trkpt lat="59.5590009447" lon="31.2675668579"><ele>239.02</ele><time>2026-09-02T20:03:45Z</time></trkpt><trkpt lat="59.5590009447" lon="31.2675668579"><ele>239.02</ele><time>2026-09-02T20:03:46Z</time></trkpt><trkpt lat="59.5590009447" lon="31.2675668579"><ele>239.02</ele><time>2026-09-02T20:03:47Z</time></trkpt><trkpt lat="59.5590009447" lon="31.2675668579"><ele>239.02</ele><time>2026-09-02T20:03:48Z</time></trkpt><trkpt lat="59.5590009447" lon="31.2675668579"><ele>239.02</ele><time>2026-09-02T20:03:49Z</time></trkpt><trkpt lat="59.5590009447" lon="31.2675668579"><ele>239.02</ele><time>2026-09-02T20:03:50Z</time></trkpt><trkpt lat="59.5590009447" lon="31.2675668579"><ele>239.02</ele><time>2026-09-02T20:03:51Z</time></trkpt><trkpt lat="59.5590339694" lon="31.2675434723"><ele>239.02</ele><time>2026-09-02T20:03:52Z</time></trkpt><trkpt lat="59.5590376575" lon="31.2675368506"><ele>239.02</ele><time>2026-09-02T20:03:53Z</time></trkpt><trkpt lat="59.5590403397" lon="31.2675318215"><ele>239.02</ele><time>2026-09-02T20:03:54Z</time></trkpt><trkpt lat="59.5590438601" lon="31.2675261218"><ele>239.02</ele><time>2026-09-02T20:03:55Z</time></trkpt><trkpt lat="59.5590438601" lon="31.2675261218"><ele>239.02</ele><time>2026-09-02T20:03:56Z</time></trkpt><trkpt lat="59.5590438601" lon="31.2675261218"><ele>239.02</ele><time>2026-09-02T20:03:57Z</time></trkpt><trkpt lat="59.5590438601" lon="31.2675261218"><ele>239.02</ele><time>2026-09-02T20:03:58Z</time></trkpt><trkpt lat="59.5590438601" lon="31.2675261218"><ele>239.02</ele><time>2026-09-02T20:03:59Z</time></trkpt><trkpt lat="59.5590438601" lon="31.2675261218"><ele>239.51</ele><time>2026-09-02T20:04:00Z</time></trkpt><trkpt lat="59.5590438601" lon="31.2675261218"><ele>239.51</ele><time>2026-09-02T20:04:01Z</time></trkpt><trkpt lat="59.5590438601" lon="31.2675261218"><ele>239.51</ele><time>2026-09-02T20:04:02Z</time></trkpt><trkpt lat="59.5590438601" lon="31.2675261218"><ele>239.51</ele><time>2026-09-02T20:04:03Z</time></trkpt><trkpt lat="59.5590438601" lon="31.2675261218"><ele>239.51</ele><time>2026-09-02T20:04:04Z</time></trkpt><trkpt lat="59.5590438601" lon="31.2675261218"><ele>239.51</ele><time>2026-09-02T20:04:05Z</time></trkpt><trkpt lat="59.5590438601" lon="31.2675261218"><ele>239.51</ele><time>2026-09-02T20:04:06Z</time></trkpt><trkpt lat="59.5590438601" lon="31.2675261218"><ele>239.51</ele><time>2026-09-02T20:04:07Z</time></trkpt><trkpt lat="59.5590438601" lon="31.2675261218"><ele>239.99</ele><time>2026-09-02T20:04:08Z</time></trkpt><trkpt lat="59.5590438601" lon="31.2675261218"><ele>239.99</ele><time>2026-09-02T20:04:09Z</time></trkpt><trkpt lat="59.5590438601" lon="31.2675261218"><ele>239.99</ele><time>2026-09-02T20:04:10Z</time></trkpt><trkpt lat="59.5590438601" lon="31.2675261218"><ele>239.99</ele><time>2026-09-02T20:04:11Z</time></trkpt><trkpt lat="59.5590438601" lon="31.2675261218"><ele>239.99</ele><time>2026-09-02T20:04:12Z</time></trkpt><trkpt lat="59.5590438601" lon="31.2675261218"><ele>239.99</ele><time>2026-09-02T20:04:13Z</time></trkpt><trkpt lat="59.5590438601" lon="31.2675261218"><ele>239.99</ele><time>2026-09-02T20:04:14Z</time></trkpt><trkpt lat="59.5590438601" lon="31.2675261218"><ele>239.99</ele><time>2026-09-02T20:04:15Z</time></trkpt><trkpt lat="59.5590438601" lon="31.2675261218"><ele>239.99</ele><time>2026-09-02T20:04:16Z</time></trkpt><trkpt lat="59.5590438601" lon="31.2675261218"><ele>239.99</ele><time>2026-09-02T20:04:17Z</time></trkpt><trkpt lat="59.5590438601" lon="31.2675261218"><ele>239.99</ele><time>2026-09-02T20:04:18Z</time></trkpt><trkpt lat="59.5590438601" lon="31.2675261218"><ele>239.51</ele><time>2026-09-02T20:04:19Z</time></trkpt><trkpt lat="59.5590438601" lon="31.2675261218"><ele>239.51</ele><time>2026-09-02T20:04:20Z</time></trkpt><trkpt lat="59.5590438601" lon="31.2675261218"><ele>239.51</ele><time>2026-09-02T20:04:21Z</time></trkpt><trkpt lat="59.5590438601" lon="31.2675261218"><ele>239.51</ele><time>2026-09-02T20:04:22Z</time></trkpt><trkpt lat="59.5590438601" lon="31.2675261218"><ele>239.51</ele><time>2026-09-02T20:04:23Z</time></trkpt><trkpt lat="59.5590438601" lon="31.2675261218"><ele>239.51</ele><time>2026-09-02T20:04:24Z</time></trkpt><trkpt lat="59.5590438601" lon="31.2675261218"><ele>239.51</ele><time>2026-09-02T20:04:25Z</time></trkpt><trkpt lat="59.5590438601" lon="31.2675261218"><ele>239.51</ele><time>2026-09-02T20:04:26Z</time></trkpt><trkpt lat="59.5590438601" lon="31.2675261218"><ele>239.51</ele><time>2026-09-02T20:04:27Z</time></trkpt><trkpt lat="59.5590438601" lon="31.2675261218"><ele>239.51</ele><time>2026-09-02T20:04:28Z</time></trkpt><trkpt lat="59.5590438601" lon="31.2675261218"><ele>239.51</ele><time>2026-09-02T20:04:29Z</time></trkpt><trkpt lat="59.5590438601" lon="31.2675261218"><ele>239.51</ele><time>2026-09-02T20:04:30Z</time></trkpt><trkpt lat="59.5590438601" lon="31.2675261218"><ele>239.51</ele><time>2026-09-02T20:04:31Z</time></trkpt><trkpt lat="59.5590438601" lon="31.2675261218"><ele>239.51</ele><time>2026-09-02T20:04:32Z</time></trkpt><trkpt lat="59.5590438601" lon="31.2675261218"><ele>239.99</ele><time>2026-09-02T20:04:33Z</time></trkpt><trkpt lat="59.5590438601" lon="31.2675261218"><ele>239.99</ele><time>2026-09-02T20:04:34Z</time></trkpt><trkpt lat="59.5590438601" lon="31.2675261218"><ele>239.99</ele><time>2026-09-02T20:04:35Z</time></trkpt><trkpt lat="59.5590438601" lon="31.2675261218"><ele>239.99</ele><time>2026-09-02T20:04:36Z</time></trkpt><trkpt lat="59.5590438601" lon="31.2675261218"><ele>239.99</ele><time>2026-09-02T20:04:37Z</time></trkpt><trkpt lat="59.5590438601" lon="31.2675261218"><ele>239.99</ele><time>2026-09-02T20:04:38Z</time></trkpt><trkpt lat="59.5590438601" lon="31.2675261218"><ele>239.99</ele><time>2026-09-02T20:04:39Z</time></trkpt><trkpt lat="59.5590438601" lon="31.2675261218"><ele>239.99</ele><time>2026-09-02T20:04:41Z</time></trkpt><trkpt lat="59.5590438601" lon="31.2675261218"><ele>239.99</ele><time>2026-09-02T20:04:42Z</time></trkpt><trkpt lat="59.5590438601" lon="31.2675261218"><ele>239.99</ele><time>2026-09-02T20:04:43Z</time></trkpt><trkpt lat="59.5590438601" lon="31.2675261218"><ele>239.99</ele><time>2026-09-02T20:04:44Z</time></trkpt><trkpt lat="59.5590438601" lon="31.2675261218"><ele>239.99</ele><time>2026-09-02T20:04:45Z</time></trkpt><trkpt lat="59.5590438601" lon="31.2675261218"><ele>239.99</ele><time>2026-09-02T20:04:46Z</time></trkpt><trkpt lat="59.5590438601" lon="31.2675261218"><ele>239.99</ele><time>2026-09-02T20:04:47Z</time></trkpt><trkpt lat="59.5590438601" lon="31.2675261218"><ele>239.99</ele><time>2026-09-02T20:04:48Z</time></trkpt><trkpt lat="59.5590438601" lon="31.2675261218"><ele>239.99</ele><time>2026-09-02T20:04:49Z</time></trkpt><trkpt lat="59.5590438601" lon="31.2675261218"><ele>239.99</ele><time>2026-09-02T20:04:50Z</time></trkpt><trkpt lat="59.5590438601" lon="31.2675261218"><ele>239.51</ele><time>2026-09-02T20:04:51Z</time></trkpt><trkpt lat="59.5590438601" lon="31.2675261218"><ele>239.51</ele><time>2026-09-02T20:04:52Z</time></trkpt><trkpt lat="59.5590438601" lon="31.2675261218"><ele>239.51</ele><time>2026-09-02T20:04:53Z</time></trkpt><trkpt lat="59.5590438601" lon="31.2675261218"><ele>239.51</ele><time>2026-09-02T20:04:54Z</time></trkpt><trkpt lat="59.5590438601" lon="31.2675261218"><ele>239.51</ele><time>2026-09-02T20:04:55Z</time></trkpt><trkpt lat="59.5590438601" lon="31.2675261218"><ele>239.51</ele><time>2026-09-02T20:04:56Z</time></trkpt><trkpt lat="59.5590438601" lon="31.2675261218"><ele>239.51</ele><time>2026-09-02T20:04:57Z</time></trkpt><trkpt lat="59.5590438601" lon="31.2675261218"><ele>239.51</ele><time>2026-09-02T20:04:58Z</time></trkpt><trkpt lat="59.5590438601" lon="31.2675261218"><ele>239.51</ele><time>2026-09-02T20:04:59Z</time></trkpt><trkpt lat="59.5590438601" lon="31.2675261218"><ele>239.51</ele><time>2026-09-02T20:05:00Z</time></trkpt><trkpt lat="59.5590438601" lon="31.2675261218"><ele>239.51</ele><time>2026-09-02T20:05:01Z</time></trkpt><trkpt lat="59.5590438601" lon="31.2675261218"><ele>239.51</ele><time>2026-09-02T20:05:02Z</time></trkpt><trkpt lat="59.5590438601" lon="31.2675261218"><ele>239.51</ele><time>2026-09-02T20:05:03Z</time></trkpt><trkpt lat="59.5590438601" lon="31.2675261218"><ele>239.51</ele><time>2026-09-02T20:05:04Z</time></trkpt><trkpt lat="59.5590438601" lon="31.2675261218"><ele>239.51</ele><time>2026-09-02T20:05:05Z</time></trkpt><trkpt lat="59.5590438601" lon="31.2675261218"><ele>239.51</ele><time>2026-09-02T20:05:06Z</time></trkpt><trkpt lat="59.5590438601" lon="31.2675261218"><ele>239.51</ele><time>2026-09-02T20:05:07Z</time></trkpt><trkpt lat="59.5590438601" lon="31.2675261218"><ele>239.51</ele><time>2026-09-02T20:05:08Z</time></trkpt><trkpt lat="59.5590438601" lon="31.2675261218"><ele>239.51</ele><time>2026-09-02T20:05:09Z</time></trkpt><trkpt lat="59.5590438601" lon="31.2675261218"><ele>239.51</ele><time>2026-09-02T20:05:10Z</time></trkpt><trkpt lat="59.5590438601" lon="31.2675261218"><ele>239.51</ele><time>2026-09-02T20:05:11Z</time></trkpt><trkpt lat="59.5590438601" lon="31.2675261218"><ele>239.51</ele><time>2026-09-02T20:05:12Z</time></trkpt><trkpt lat="59.5590438601" lon="31.2675261218"><ele>239.51</ele><time>2026-09-02T20:05:13Z</time></trkpt><trkpt lat="59.5590438601" lon="31.2675261218"><ele>239.51</ele><time>2026-09-02T20:05:14Z</time></trkpt><trkpt lat="59.5590438601" lon="31.2675261218"><ele>239.51</ele><time>2026-09-02T20:05:15Z</time></trkpt><trkpt lat="59.5590438601" lon="31.2675261218"><ele>239.51</ele><time>2026-09-02T20:05:16Z</time></trkpt><trkpt lat="59.5590438601" lon="31.2675261218"><ele>239.51</ele><time>2026-09-02T20:05:17Z</time></trkpt><trkpt lat="59.5590438601" lon="31.2675261218"><ele>239.51</ele><time>2026-09-02T20:05:18Z</time></trkpt><trkpt lat="59.5590438601" lon="31.2675261218"><ele>239.51</ele><time>2026-09-02T20:05:19Z</time></trkpt><trkpt lat="59.5590438601" lon="31.2675261218"><ele>239.51</ele><time>2026-09-02T20:05:20Z</time></trkpt><trkpt lat="59.5590438601" lon="31.2675261218"><ele>239.51</ele><time>2026-09-02T20:05:21Z</time></trkpt><trkpt lat="59.5590438601" lon="31.2675261218"><ele>239.51</ele><time>2026-09-02T20:05:22Z</time></trkpt><trkpt lat="59.5590438601" lon="31.2675261218"><ele>239.51</ele><time>2026-09-02T20:05:23Z</time></trkpt><trkpt lat="59.5590438601" lon="31.2675261218"><ele>239.51</ele><time>2026-09-02T20:05:24Z</time></trkpt><trkpt lat="59.5590438601" lon="31.2675261218"><ele>239.51</ele><time>2026-09-02T20:05:25Z</time></trkpt><trkpt lat="59.5590438601" lon="31.2675261218"><ele>239.51</ele><time>2026-09-02T20:05:26Z</time></trkpt><trkpt lat="59.5590438601" lon="31.2675261218"><ele>239.51</ele><time>2026-09-02T20:05:27Z</time></trkpt><trkpt lat="59.5590438601" lon="31.2675261218"><ele>239.51</ele><time>2026-09-02T20:05:28Z</time></trkpt><trkpt lat="59.5590438601" lon="31.2675261218"><ele>239.51</ele><time>2026-09-02T20:05:29Z</time></trkpt><trkpt lat="59.5590438601" lon="31.2675261218"><ele>239.99</ele><time>2026-09-02T20:05:30Z</time></trkpt><trkpt lat="59.5590438601" lon="31.2675261218"><ele>239.99</ele><time>2026-09-02T20:05:31Z</time></trkpt><trkpt lat="59.5590438601" lon="31.2675261218"><ele>239.99</ele><time>2026-09-02T20:05:32Z</time></trkpt><trkpt lat="59.5590438601" lon="31.2675261218"><ele>239.99</ele><time>2026-09-02T20:05:33Z</time></trkpt><trkpt lat="59.5590438601" lon="31.2675261218"><ele>239.99</ele><time>2026-09-02T20:05:34Z</time></trkpt><trkpt lat="59.5590438601" lon="31.2675261218"><ele>239.99</ele><time>2026-09-02T20:05:35Z</time></trkpt><trkpt lat="59.5590438601" lon="31.2675261218"><ele>239.99</ele><time>2026-09-02T20:05:36Z</time></trkpt><trkpt lat="59.5590438601" lon="31.2675261218"><ele>239.99</ele><time>2026-09-02T20:05:37Z</time></trkpt><trkpt lat="59.5590438601" lon="31.2675261218"><ele>239.99</ele><time>2026-09-02T20:05:38Z</time></trkpt><trkpt lat="59.5590438601" lon="31.2675261218"><ele>239.99</ele><time>2026-09-02T20:05:39Z</time></trkpt><trkpt lat="59.5590438601" lon="31.2675261218"><ele>239.99</ele><time>2026-09-02T20:05:40Z</time></trkpt><trkpt lat="59.5590438601" lon="31.2675261218"><ele>239.99</ele><time>2026-09-02T20:05:41Z</time></trkpt><trkpt lat="59.5590438601" lon="31.2675261218"><ele>239.99</ele><time>2026-09-02T20:05:42Z</time></trkpt><trkpt lat="59.5590438601" lon="31.2675261218"><ele>239.99</ele><time>2026-09-02T20:05:43Z</time></trkpt><trkpt lat="59.5590438601" lon="31.2675261218"><ele>239.99</ele><time>2026-09-02T20:05:44Z</time></trkpt><trkpt lat="59.5590438601" lon="31.2675261218"><ele>239.99</ele><time>2026-09-02T20:05:45Z</time></trkpt><trkpt lat="59.5590438601" lon="31.2675261218"><ele>239.99</ele><time>2026-09-02T20:05:46Z</time></trkpt><trkpt lat="59.5590438601" lon="31.2675261218"><ele>239.99</ele><time>2026-09-02T20:05:47Z</time></trkpt><trkpt lat="59.5590438601" lon="31.2675261218"><ele>239.99</ele><time>2026-09-02T20:05:48Z</time></trkpt><trkpt lat="59.5590438601" lon="31.2675261218"><ele>239.51</ele><time>2026-09-02T20:05:49Z</time></trkpt><trkpt lat="59.5590438601" lon="31.2675261218"><ele>239.51</ele><time>2026-09-02T20:05:50Z</time></trkpt><trkpt lat="59.5590438601" lon="31.2675261218"><ele>239.51</ele><time>2026-09-02T20:05:51Z</time></trkpt><trkpt lat="59.5590438601" lon="31.2675261218"><ele>239.51</ele><time>2026-09-02T20:05:52Z</time></trkpt><trkpt lat="59.5590438601" lon="31.2675261218"><ele>239.51</ele><time>2026-09-02T20:05:53Z</time></trkpt><trkpt lat="59.5590438601" lon="31.2675261218"><ele>239.51</ele><time>2026-09-02T20:05:54Z</time></trkpt><trkpt lat="59.5590438601" lon="31.2675261218"><ele>239.51</ele><time>2026-09-02T20:05:55Z</time></trkpt><trkpt lat="59.5590438601" lon="31.2675261218"><ele>239.51</ele><time>2026-09-02T20:05:56Z</time></trkpt><trkpt lat="59.5590438601" lon="31.2675261218"><ele>239.51</ele><time>2026-09-02T20:05:57Z</time></trkpt><trkpt lat="59.5590438601" lon="31.2675261218"><ele>239.51</ele><time>2026-09-02T20:05:58Z</time></trkpt><trkpt lat="59.5590438601" lon="31.2675261218"><ele>239.51</ele><time>2026-09-02T20:05:59Z</time></trkpt><trkpt lat="59.5590438601" lon="31.2675261218"><ele>239.51</ele><time>2026-09-02T20:06:00Z</time></trkpt><trkpt lat="59.5590438601" lon="31.2675261218"><ele>239.51</ele><time>2026-09-02T20:06:01Z</time></trkpt><trkpt lat="59.5591123402" lon="31.2674129661"><ele>239.51</ele><time>2026-09-02T20:06:02Z</time></trkpt><trkpt lat="59.5591161959" lon="31.2674038298"><ele>239.51</ele><time>2026-09-02T20:06:03Z</time></trkpt><trkpt lat="59.5591158606" lon="31.2673961185"><ele>239.51</ele><time>2026-09-02T20:06:04Z</time></trkpt><trkpt lat="59.5591147710" lon="31.2673904188"><ele>239.51</ele><time>2026-09-02T20:06:05Z</time></trkpt><trkpt lat="59.5591141842" lon="31.2673830427"><ele>239.51</ele><time>2026-09-02T20:06:06Z</time></trkpt><trkpt lat="59.5591141842" lon="31.2673830427"><ele>239.51</ele><time>2026-09-02T20:06:07Z</time></trkpt><trkpt lat="59.5591141842" lon="31.2673830427"><ele>239.51</ele><time>2026-09-02T20:06:08Z</time></trkpt><trkpt lat="59.5591141842" lon="31.2673830427"><ele>239.51</ele><time>2026-09-02T20:06:09Z</time></trkpt><trkpt lat="59.5591141842" lon="31.2673830427"><ele>239.51</ele><time>2026-09-02T20:06:10Z</time></trkpt><trkpt lat="59.5591141842" lon="31.2673830427"><ele>239.51</ele><time>2026-09-02T20:06:11Z</time></trkpt><trkpt lat="59.5591141842" lon="31.2673830427"><ele>239.51</ele><time>2026-09-02T20:06:12Z</time></trkpt><trkpt lat="59.5591141842" lon="31.2673830427"><ele>239.51</ele><time>2026-09-02T20:06:13Z</time></trkpt><trkpt lat="59.5591141842" lon="31.2673830427"><ele>239.51</ele><time>2026-09-02T20:06:14Z</time></trkpt><trkpt lat="59.5591141842" lon="31.2673830427"><ele>239.51</ele><time>2026-09-02T20:06:15Z</time></trkpt><trkpt lat="59.5591141842" lon="31.2673830427"><ele>239.51</ele><time>2026-09-02T20:06:16Z</time></trkpt><trkpt lat="59.5591141842" lon="31.2673830427"><ele>239.51</ele><time>2026-09-02T20:06:17Z</time></trkpt><trkpt lat="59.5591141842" lon="31.2673830427"><ele>239.51</ele><time>2026-09-02T20:06:18Z</time></trkpt><trkpt lat="59.5591141842" lon="31.2673830427"><ele>239.51</ele><time>2026-09-02T20:06:19Z</time></trkpt><trkpt lat="59.5591141842" lon="31.2673830427"><ele>239.51</ele><time>2026-09-02T20:06:20Z</time></trkpt><trkpt lat="59.5591141842" lon="31.2673830427"><ele>239.51</ele><time>2026-09-02T20:06:21Z</time></trkpt><trkpt lat="59.5591141842" lon="31.2673830427"><ele>239.51</ele><time>2026-09-02T20:06:22Z</time></trkpt><trkpt lat="59.5591091551" lon="31.2673390377"><ele>239.51</ele><time>2026-09-02T20:06:23Z</time></trkpt><trkpt lat="59.5591098256" lon="31.2673337571"><ele>239.51</ele><time>2026-09-02T20:06:24Z</time></trkpt><trkpt lat="59.5591080654" lon="31.2673269678"><ele>239.51</ele><time>2026-09-02T20:06:25Z</time></trkpt><trkpt lat="59.5591065567" lon="31.2673234474"><ele>239.51</ele><time>2026-09-02T20:06:26Z</time></trkpt><trkpt lat="59.5591065567" lon="31.2673234474"><ele>239.51</ele><time>2026-09-02T20:06:27Z</time></trkpt><trkpt lat="59.5591065567" lon="31.2673234474"><ele>239.51</ele><time>2026-09-02T20:06:28Z</time></trkpt><trkpt lat="59.5591065567" lon="31.2673234474"><ele>239.51</ele><time>2026-09-02T20:06:29Z</time></trkpt><trkpt lat="59.5591065567" lon="31.2673234474"><ele>239.51</ele><time>2026-09-02T20:06:30Z</time></trkpt><trkpt lat="59.5590934809" lon="31.2673128862"><ele>239.51</ele><time>2026-09-02T20:06:31Z</time></trkpt><trkpt lat="59.5590918884" lon="31.2673081923"><ele>239.51</ele><time>2026-09-02T20:06:32Z</time></trkpt><trkpt lat="59.5590921398" lon="31.2673037499"><ele>239.02</ele><time>2026-09-02T20:06:33Z</time></trkpt><trkpt lat="59.5590925589" lon="31.2672999781"><ele>239.02</ele><time>2026-09-02T20:06:34Z</time></trkpt><trkpt lat="59.5590925589" lon="31.2672999781"><ele>239.02</ele><time>2026-09-02T20:06:35Z</time></trkpt><trkpt lat="59.5590925589" lon="31.2672999781"><ele>239.02</ele><time>2026-09-02T20:06:36Z</time></trkpt><trkpt lat="59.5590925589" lon="31.2672999781"><ele>239.02</ele><time>2026-09-02T20:06:37Z</time></trkpt><trkpt lat="59.5590925589" lon="31.2672999781"><ele>239.02</ele><time>2026-09-02T20:06:38Z</time></trkpt><trkpt lat="59.5590925589" lon="31.2672999781"><ele>239.02</ele><time>2026-09-02T20:06:39Z</time></trkpt><trkpt lat="59.5590925589" lon="31.2672999781"><ele>239.02</ele><time>2026-09-02T20:06:40Z</time></trkpt><trkpt lat="59.5590925589" lon="31.2672999781"><ele>239.02</ele><time>2026-09-02T20:06:41Z</time></trkpt><trkpt lat="59.5590898767" lon="31.2672634330"><ele>239.02</ele><time>2026-09-02T20:06:42Z</time></trkpt><trkpt lat="59.5590869430" lon="31.2672570627"><ele>239.02</ele><time>2026-09-02T20:06:43Z</time></trkpt><trkpt lat="59.5590849314" lon="31.2672541291"><ele>239.02</ele><time>2026-09-02T20:06:44Z</time></trkpt><trkpt lat="59.5590837579" lon="31.2672490999"><ele>239.02</ele><time>2026-09-02T20:06:45Z</time></trkpt><trkpt lat="59.5590837579" lon="31.2672490999"><ele>239.02</ele><time>2026-09-02T20:06:46Z</time></trkpt><trkpt lat="59.5590837579" lon="31.2672490999"><ele>239.02</ele><time>2026-09-02T20:06:47Z</time></trkpt><trkpt lat="59.5590837579" lon="31.2672490999"><ele>239.02</ele><time>2026-09-02T20:06:48Z</time></trkpt><trkpt lat="59.5590837579" lon="31.2672490999"><ele>239.02</ele><time>2026-09-02T20:06:49Z</time></trkpt><trkpt lat="59.5590837579" lon="31.2672490999"><ele>239.02</ele><time>2026-09-02T20:06:50Z</time></trkpt><trkpt lat="59.5590837579" lon="31.2672490999"><ele>239.02</ele><time>2026-09-02T20:06:51Z</time></trkpt><trkpt lat="59.5590837579" lon="31.2672490999"><ele>239.02</ele><time>2026-09-02T20:06:52Z</time></trkpt><trkpt lat="59.5590837579" lon="31.2672490999"><ele>239.02</ele><time>2026-09-02T20:06:53Z</time></trkpt><trkpt lat="59.5590837579" lon="31.2672490999"><ele>239.02</ele><time>2026-09-02T20:06:54Z</time></trkpt><trkpt lat="59.5590837579" lon="31.2672490999"><ele>239.02</ele><time>2026-09-02T20:06:55Z</time></trkpt><trkpt lat="59.5590837579" lon="31.2672490999"><ele>239.02</ele><time>2026-09-02T20:06:56Z</time></trkpt><trkpt lat="59.5590837579" lon="31.2672490999"><ele>239.02</ele><time>2026-09-02T20:06:57Z</time></trkpt><trkpt lat="59.5590837579" lon="31.2672490999"><ele>239.02</ele><time>2026-09-02T20:06:58Z</time></trkpt><trkpt lat="59.5590837579" lon="31.2672490999"><ele>239.02</ele><time>2026-09-02T20:06:59Z</time></trkpt><trkpt lat="59.5590837579" lon="31.2672490999"><ele>239.02</ele><time>2026-09-02T20:07:00Z</time></trkpt><trkpt lat="59.5590837579" lon="31.2672490999"><ele>239.02</ele><time>2026-09-02T20:07:01Z</time></trkpt><trkpt lat="59.5590837579" lon="31.2672490999"><ele>239.02</ele><time>2026-09-02T20:07:02Z</time></trkpt><trkpt lat="59.5590837579" lon="31.2672490999"><ele>239.02</ele><time>2026-09-02T20:07:03Z</time></trkpt><trkpt lat="59.5590837579" lon="31.2672490999"><ele>239.02</ele><time>2026-09-02T20:07:04Z</time></trkpt><trkpt lat="59.5590837579" lon="31.2672490999"><ele>239.02</ele><time>2026-09-02T20:07:05Z</time></trkpt><trkpt lat="59.5590837579" lon="31.2672490999"><ele>239.02</ele><time>2026-09-02T20:07:06Z</time></trkpt><trkpt lat="59.5590837579" lon="31.2672490999"><ele>239.02</ele><time>2026-09-02T20:07:07Z</time></trkpt><trkpt lat="59.5590837579" lon="31.2672490999"><ele>239.02</ele><time>2026-09-02T20:07:08Z</time></trkpt><trkpt lat="59.5590837579" lon="31.2672490999"><ele>239.02</ele><time>2026-09-02T20:07:09Z</time></trkpt><trkpt lat="59.5590837579" lon="31.2672490999"><ele>239.02</ele><time>2026-09-02T20:07:10Z</time></trkpt><trkpt lat="59.5590837579" lon="31.2672490999"><ele>239.02</ele><time>2026-09-02T20:07:11Z</time></trkpt><trkpt lat="59.5590837579" lon="31.2672490999"><ele>239.02</ele><time>2026-09-02T20:07:12Z</time></trkpt><trkpt lat="59.5590837579" lon="31.2672490999"><ele>239.02</ele><time>2026-09-02T20:07:13Z</time></trkpt><trkpt lat="59.5590837579" lon="31.2672490999"><ele>239.02</ele><time>2026-09-02T20:07:14Z</time></trkpt><trkpt lat="59.5590837579" lon="31.2672490999"><ele>239.02</ele><time>2026-09-02T20:07:15Z</time></trkpt><trkpt lat="59.5590837579" lon="31.2672490999"><ele>239.02</ele><time>2026-09-02T20:07:16Z</time></trkpt><trkpt lat="59.5590837579" lon="31.2672490999"><ele>239.02</ele><time>2026-09-02T20:07:17Z</time></trkpt><trkpt lat="59.5590837579" lon="31.2672490999"><ele>239.02</ele><time>2026-09-02T20:07:18Z</time></trkpt><trkpt lat="59.5590837579" lon="31.2672490999"><ele>239.02</ele><time>2026-09-02T20:07:19Z</time></trkpt><trkpt lat="59.5590837579" lon="31.2672490999"><ele>239.02</ele><time>2026-09-02T20:07:20Z</time></trkpt><trkpt lat="59.5590837579" lon="31.2672490999"><ele>239.02</ele><time>2026-09-02T20:07:21Z</time></trkpt><trkpt lat="59.5590837579" lon="31.2672490999"><ele>239.02</ele><time>2026-09-02T20:07:22Z</time></trkpt><trkpt lat="59.5590837579" lon="31.2672490999"><ele>239.02</ele><time>2026-09-02T20:07:23Z</time></trkpt><trkpt lat="59.5590837579" lon="31.2672490999"><ele>239.02</ele><time>2026-09-02T20:07:24Z</time></trkpt><trkpt lat="59.5590837579" lon="31.2672490999"><ele>239.02</ele><time>2026-09-02T20:07:25Z</time></trkpt><trkpt lat="59.5590837579" lon="31.2672490999"><ele>239.02</ele><time>2026-09-02T20:07:26Z</time></trkpt><trkpt lat="59.5590837579" lon="31.2672490999"><ele>239.02</ele><time>2026-09-02T20:07:27Z</time></trkpt><trkpt lat="59.5590837579" lon="31.2672490999"><ele>239.02</ele><time>2026-09-02T20:07:28Z</time></trkpt><trkpt lat="59.5590837579" lon="31.2672490999"><ele>239.02</ele><time>2026-09-02T20:07:29Z</time></trkpt><trkpt lat="59.5590837579" lon="31.2672490999"><ele>239.02</ele><time>2026-09-02T20:07:30Z</time></trkpt><trkpt lat="59.5590837579" lon="31.2672490999"><ele>239.02</ele><time>2026-09-02T20:07:31Z</time></trkpt><trkpt lat="59.5590837579" lon="31.2672490999"><ele>239.02</ele><time>2026-09-02T20:07:32Z</time></trkpt><trkpt lat="59.5590837579" lon="31.2672490999"><ele>239.02</ele><time>2026-09-02T20:07:33Z</time></trkpt><trkpt lat="59.5590837579" lon="31.2672490999"><ele>239.02</ele><time>2026-09-02T20:07:34Z</time></trkpt><trkpt lat="59.5590837579" lon="31.2672490999"><ele>239.02</ele><time>2026-09-02T20:07:35Z</time></trkpt><trkpt lat="59.5590837579" lon="31.2672490999"><ele>239.02</ele><time>2026-09-02T20:07:36Z</time></trkpt><trkpt lat="59.5590837579" lon="31.2672490999"><ele>239.02</ele><time>2026-09-02T20:07:37Z</time></trkpt><trkpt lat="59.5590837579" lon="31.2672490999"><ele>239.02</ele><time>2026-09-02T20:07:38Z</time></trkpt><trkpt lat="59.5590837579" lon="31.2672490999"><ele>239.02</ele><time>2026-09-02T20:07:39Z</time></trkpt><trkpt lat="59.5590837579" lon="31.2672490999"><ele>239.02</ele><time>2026-09-02T20:07:40Z</time></trkpt><trkpt lat="59.5590837579" lon="31.2672490999"><ele>239.02</ele><time>2026-09-02T20:07:41Z</time></trkpt><trkpt lat="59.5590837579" lon="31.2672490999"><ele>239.02</ele><time>2026-09-02T20:07:42Z</time></trkpt><trkpt lat="59.5590837579" lon="31.2672490999"><ele>239.02</ele><time>2026-09-02T20:07:43Z</time></trkpt><trkpt lat="59.5590837579" lon="31.2672490999"><ele>239.02</ele><time>2026-09-02T20:07:44Z</time></trkpt><trkpt lat="59.5590837579" lon="31.2672490999"><ele>239.02</ele><time>2026-09-02T20:07:45Z</time></trkpt><trkpt lat="59.5590837579" lon="31.2672490999"><ele>239.02</ele><time>2026-09-02T20:07:46Z</time></trkpt><trkpt lat="59.5590837579" lon="31.2672490999"><ele>239.02</ele><time>2026-09-02T20:07:47Z</time></trkpt><trkpt lat="59.5590837579" lon="31.2672490999"><ele>239.02</ele><time>2026-09-02T20:07:48Z</time></trkpt><trkpt lat="59.5590837579" lon="31.2672490999"><ele>239.02</ele><time>2026-09-02T20:07:49Z</time></trkpt><trkpt lat="59.5590837579" lon="31.2672490999"><ele>239.02</ele><time>2026-09-02T20:07:50Z</time></trkpt><trkpt lat="59.5590837579" lon="31.2672490999"><ele>239.02</ele><time>2026-09-02T20:07:51Z</time></trkpt><trkpt lat="59.5590837579" lon="31.2672490999"><ele>239.02</ele><time>2026-09-02T20:07:52Z</time></trkpt><trkpt lat="59.5590837579" lon="31.2672490999"><ele>239.02</ele><time>2026-09-02T20:07:53Z</time></trkpt><trkpt lat="59.5590837579" lon="31.2672490999"><ele>239.02</ele><time>2026-09-02T20:07:54Z</time></trkpt><trkpt lat="59.5590837579" lon="31.2672490999"><ele>239.02</ele><time>2026-09-02T20:07:55Z</time></trkpt><trkpt lat="59.5590837579" lon="31.2672490999"><ele>238.54</ele><time>2026-09-02T20:07:56Z</time></trkpt><trkpt lat="59.5590837579" lon="31.2672490999"><ele>238.54</ele><time>2026-09-02T20:07:57Z</time></trkpt><trkpt lat="59.5590837579" lon="31.2672490999"><ele>238.54</ele><time>2026-09-02T20:07:58Z</time></trkpt><trkpt lat="59.5590837579" lon="31.2672490999"><ele>239.02</ele><time>2026-09-02T20:07:59Z</time></trkpt><trkpt lat="59.5590837579" lon="31.2672490999"><ele>239.02</ele><time>2026-09-02T20:08:00Z</time></trkpt><trkpt lat="59.5590837579" lon="31.2672490999"><ele>239.02</ele><time>2026-09-02T20:08:01Z</time></trkpt><trkpt lat="59.5590837579" lon="31.2672490999"><ele>239.02</ele><time>2026-09-02T20:08:02Z</time></trkpt><trkpt lat="59.5590837579" lon="31.2672490999"><ele>239.02</ele><time>2026-09-02T20:08:03Z</time></trkpt><trkpt lat="59.5590837579" lon="31.2672490999"><ele>239.02</ele><time>2026-09-02T20:08:04Z</time></trkpt><trkpt lat="59.5590837579" lon="31.2672490999"><ele>239.02</ele><time>2026-09-02T20:08:05Z</time></trkpt><trkpt lat="59.5590837579" lon="31.2672490999"><ele>239.02</ele><time>2026-09-02T20:08:06Z</time></trkpt><trkpt lat="59.5590837579" lon="31.2672490999"><ele>239.02</ele><time>2026-09-02T20:08:07Z</time></trkpt><trkpt lat="59.5590837579" lon="31.2672490999"><ele>239.02</ele><time>2026-09-02T20:08:08Z</time></trkpt><trkpt lat="59.5590837579" lon="31.2672490999"><ele>239.02</ele><time>2026-09-02T20:08:09Z</time></trkpt><trkpt lat="59.5590837579" lon="31.2672490999"><ele>239.02</ele><time>2026-09-02T20:08:10Z</time></trkpt><trkpt lat="59.5590837579" lon="31.2672490999"><ele>239.02</ele><time>2026-09-02T20:08:11Z</time></trkpt><trkpt lat="59.5590837579" lon="31.2672490999"><ele>239.02</ele><time>2026-09-02T20:08:12Z</time></trkpt><trkpt lat="59.5590837579" lon="31.2672490999"><ele>239.02</ele><time>2026-09-02T20:08:13Z</time></trkpt><trkpt lat="59.5590837579" lon="31.2672490999"><ele>239.02</ele><time>2026-09-02T20:08:14Z</time></trkpt><trkpt lat="59.5590837579" lon="31.2672490999"><ele>239.02</ele><time>2026-09-02T20:08:15Z</time></trkpt><trkpt lat="59.5590837579" lon="31.2672490999"><ele>239.02</ele><time>2026-09-02T20:08:16Z</time></trkpt><trkpt lat="59.5590837579" lon="31.2672490999"><ele>239.02</ele><time>2026-09-02T20:08:17Z</time></trkpt><trkpt lat="59.5590837579" lon="31.2672490999"><ele>239.02</ele><time>2026-09-02T20:08:18Z</time></trkpt><trkpt lat="59.5590837579" lon="31.2672490999"><ele>239.02</ele><time>2026-09-02T20:08:19Z</time></trkpt><trkpt lat="59.5590837579" lon="31.2672490999"><ele>239.02</ele><time>2026-09-02T20:08:20Z</time></trkpt><trkpt lat="59.5590837579" lon="31.2672490999"><ele>239.02</ele><time>2026-09-02T20:08:21Z</time></trkpt><trkpt lat="59.5590837579" lon="31.2672490999"><ele>239.02</ele><time>2026-09-02T20:08:22Z</time></trkpt><trkpt lat="59.5590837579" lon="31.2672490999"><ele>239.02</ele><time>2026-09-02T20:08:23Z</time></trkpt><trkpt lat="59.5590837579" lon="31.2672490999"><ele>239.02</ele><time>2026-09-02T20:08:24Z</time></trkpt><trkpt lat="59.5590837579" lon="31.2672490999"><ele>239.02</ele><time>2026-09-02T20:08:25Z</time></trkpt><trkpt lat="59.5590837579" lon="31.2672490999"><ele>239.02</ele><time>2026-09-02T20:08:26Z</time></trkpt><trkpt lat="59.5590837579" lon="31.2672490999"><ele>239.02</ele><time>2026-09-02T20:08:27Z</time></trkpt><trkpt lat="59.5590837579" lon="31.2672490999"><ele>239.02</ele><time>2026-09-02T20:08:28Z</time></trkpt><trkpt lat="59.5590837579" lon="31.2672490999"><ele>239.02</ele><time>2026-09-02T20:08:29Z</time></trkpt><trkpt lat="59.5590837579" lon="31.2672490999"><ele>239.02</ele><time>2026-09-02T20:08:30Z</time></trkpt><trkpt lat="59.5590837579" lon="31.2672490999"><ele>239.02</ele><time>2026-09-02T20:08:31Z</time></trkpt><trkpt lat="59.5590837579" lon="31.2672490999"><ele>239.02</ele><time>2026-09-02T20:08:32Z</time></trkpt><trkpt lat="59.5590837579" lon="31.2672490999"><ele>239.02</ele><time>2026-09-02T20:08:33Z</time></trkpt><trkpt lat="59.5590837579" lon="31.2672490999"><ele>239.02</ele><time>2026-09-02T20:08:34Z</time></trkpt><trkpt lat="59.5590837579" lon="31.2672490999"><ele>239.02</ele><time>2026-09-02T20:08:35Z</time></trkpt><trkpt lat="59.5590837579" lon="31.2672490999"><ele>239.02</ele><time>2026-09-02T20:08:36Z</time></trkpt><trkpt lat="59.5590837579" lon="31.2672490999"><ele>239.02</ele><time>2026-09-02T20:08:37Z</time></trkpt><trkpt lat="59.5590837579" lon="31.2672490999"><ele>239.02</ele><time>2026-09-02T20:08:38Z</time></trkpt><trkpt lat="59.5590837579" lon="31.2672490999"><ele>239.02</ele><time>2026-09-02T20:08:39Z</time></trkpt><trkpt lat="59.5590837579" lon="31.2672490999"><ele>239.02</ele><time>2026-09-02T20:08:40Z</time></trkpt><trkpt lat="59.5590837579" lon="31.2672490999"><ele>239.02</ele><time>2026-09-02T20:08:41Z</time></trkpt><trkpt lat="59.5590837579" lon="31.2672490999"><ele>239.02</ele><time>2026-09-02T20:08:42Z</time></trkpt><trkpt lat="59.5590837579" lon="31.2672490999"><ele>239.02</ele><time>2026-09-02T20:08:43Z</time></trkpt><trkpt lat="59.5590837579" lon="31.2672490999"><ele>239.02</ele><time>2026-09-02T20:08:44Z</time></trkpt><trkpt lat="59.5590837579" lon="31.2672490999"><ele>239.02</ele><time>2026-09-02T20:08:45Z</time></trkpt><trkpt lat="59.5590837579" lon="31.2672490999"><ele>239.02</ele><time>2026-09-02T20:08:46Z</time></trkpt><trkpt lat="59.5590837579" lon="31.2672490999"><ele>239.02</ele><time>2026-09-02T20:08:47Z</time></trkpt><trkpt lat="59.5590837579" lon="31.2672490999"><ele>239.02</ele><time>2026-09-02T20:08:48Z</time></trkpt><trkpt lat="59.5590837579" lon="31.2672490999"><ele>239.02</ele><time>2026-09-02T20:08:49Z</time></trkpt><trkpt lat="59.5590837579" lon="31.2672490999"><ele>239.02</ele><time>2026-09-02T20:08:50Z</time></trkpt><trkpt lat="59.5590837579" lon="31.2672490999"><ele>239.02</ele><time>2026-09-02T20:08:51Z</time></trkpt><trkpt lat="59.5590837579" lon="31.2672490999"><ele>239.02</ele><time>2026-09-02T20:08:52Z</time></trkpt><trkpt lat="59.5590837579" lon="31.2672490999"><ele>239.02</ele><time>2026-09-02T20:08:53Z</time></trkpt><trkpt lat="59.5590837579" lon="31.2672490999"><ele>239.02</ele><time>2026-09-02T20:08:54Z</time></trkpt><trkpt lat="59.5590837579" lon="31.2672490999"><ele>239.02</ele><time>2026-09-02T20:08:55Z</time></trkpt><trkpt lat="59.5590837579" lon="31.2672490999"><ele>239.02</ele><time>2026-09-02T20:08:56Z</time></trkpt><trkpt lat="59.5590837579" lon="31.2672490999"><ele>239.02</ele><time>2026-09-02T20:08:57Z</time></trkpt><trkpt lat="59.5590837579" lon="31.2672490999"><ele>239.02</ele><time>2026-09-02T20:08:58Z</time></trkpt><trkpt lat="59.5590837579" lon="31.2672490999"><ele>239.02</ele><time>2026-09-02T20:08:59Z</time></trkpt><trkpt lat="59.5590837579" lon="31.2672490999"><ele>239.02</ele><time>2026-09-02T20:09:00Z</time></trkpt><trkpt lat="59.5590837579" lon="31.2672490999"><ele>239.02</ele><time>2026-09-02T20:09:01Z</time></trkpt><trkpt lat="59.5590837579" lon="31.2672490999"><ele>239.02</ele><time>2026-09-02T20:09:02Z</time></trkpt><trkpt lat="59.5590837579" lon="31.2672490999"><ele>239.02</ele><time>2026-09-02T20:09:03Z</time></trkpt><trkpt lat="59.5590837579" lon="31.2672490999"><ele>239.02</ele><time>2026-09-02T20:09:04Z</time></trkpt><trkpt lat="59.5590837579" lon="31.2672490999"><ele>239.02</ele><time>2026-09-02T20:09:05Z</time></trkpt><trkpt lat="59.5590837579" lon="31.2672490999"><ele>239.02</ele><time>2026-09-02T20:09:06Z</time></trkpt><trkpt lat="59.5590837579" lon="31.2672490999"><ele>239.02</ele><time>2026-09-02T20:09:07Z</time></trkpt><trkpt lat="59.5590837579" lon="31.2672490999"><ele>239.02</ele><time>2026-09-02T20:09:08Z</time></trkpt><trkpt lat="59.5590837579" lon="31.2672490999"><ele>239.02</ele><time>2026-09-02T20:09:09Z</time></trkpt><trkpt lat="59.5590837579" lon="31.2672490999"><ele>239.02</ele><time>2026-09-02T20:09:10Z</time></trkpt><trkpt lat="59.5590837579" lon="31.2672490999"><ele>239.02</ele><time>2026-09-02T20:09:11Z</time></trkpt><trkpt lat="59.5590837579" lon="31.2672490999"><ele>239.02</ele><time>2026-09-02T20:09:12Z</time></trkpt><trkpt lat="59.5590907987" lon="31.2670711521"><ele>239.02</ele><time>2026-09-02T20:09:13Z</time></trkpt><trkpt lat="59.5590917207" lon="31.2670656200"><ele>239.02</ele><time>2026-09-02T20:09:14Z</time></trkpt><trkpt lat="59.5590915531" lon="31.2670663744"><ele>239.02</ele><time>2026-09-02T20:09:15Z</time></trkpt><trkpt lat="59.5590916369" lon="31.2670627702"><ele>239.02</ele><time>2026-09-02T20:09:16Z</time></trkpt><trkpt lat="59.5590916369" lon="31.2670627702"><ele>239.02</ele><time>2026-09-02T20:09:17Z</time></trkpt><trkpt lat="59.5590916369" lon="31.2670627702"><ele>239.02</ele><time>2026-09-02T20:09:18Z</time></trkpt><trkpt lat="59.5590916369" lon="31.2670627702"><ele>239.02</ele><time>2026-09-02T20:09:19Z</time></trkpt><trkpt lat="59.5590916369" lon="31.2670627702"><ele>239.02</ele><time>2026-09-02T20:09:20Z</time></trkpt><trkpt lat="59.5590916369" lon="31.2670627702"><ele>239.02</ele><time>2026-09-02T20:09:21Z</time></trkpt><trkpt lat="59.5590916369" lon="31.2670627702"><ele>239.02</ele><time>2026-09-02T20:09:22Z</time></trkpt><trkpt lat="59.5590916369" lon="31.2670627702"><ele>239.02</ele><time>2026-09-02T20:09:23Z</time></trkpt><trkpt lat="59.5590916369" lon="31.2670627702"><ele>239.02</ele><time>2026-09-02T20:09:24Z</time></trkpt><trkpt lat="59.5590916369" lon="31.2670627702"><ele>239.02</ele><time>2026-09-02T20:09:25Z</time></trkpt><trkpt lat="59.5590916369" lon="31.2670627702"><ele>239.02</ele><time>2026-09-02T20:09:26Z</time></trkpt><trkpt lat="59.5590916369" lon="31.2670627702"><ele>239.02</ele><time>2026-09-02T20:09:27Z</time></trkpt><trkpt lat="59.5590916369" lon="31.2670627702"><ele>239.02</ele><time>2026-09-02T20:09:28Z</time></trkpt><trkpt lat="59.5590916369" lon="31.2670627702"><ele>239.02</ele><time>2026-09-02T20:09:29Z</time></trkpt><trkpt lat="59.5590916369" lon="31.2670627702"><ele>239.02</ele><time>2026-09-02T20:09:30Z</time></trkpt><trkpt lat="59.5590916369" lon="31.2670627702"><ele>239.02</ele><time>2026-09-02T20:09:31Z</time></trkpt><trkpt lat="59.5590916369" lon="31.2670627702"><ele>239.02</ele><time>2026-09-02T20:09:32Z</time></trkpt><trkpt lat="59.5590916369" lon="31.2670627702"><ele>239.02</ele><time>2026-09-02T20:09:33Z</time></trkpt><trkpt lat="59.5590916369" lon="31.2670627702"><ele>239.02</ele><time>2026-09-02T20:09:34Z</time></trkpt><trkpt lat="59.5590916369" lon="31.2670627702"><ele>239.02</ele><time>2026-09-02T20:09:35Z</time></trkpt><trkpt lat="59.5590916369" lon="31.2670627702"><ele>239.02</ele><time>2026-09-02T20:09:36Z</time></trkpt><trkpt lat="59.5590916369" lon="31.2670627702"><ele>239.02</ele><time>2026-09-02T20:09:37Z</time></trkpt><trkpt lat="59.5590916369" lon="31.2670627702"><ele>239.02</ele><time>2026-09-02T20:09:38Z</time></trkpt><trkpt lat="59.5590916369" lon="31.2670627702"><ele>239.02</ele><time>2026-09-02T20:09:39Z</time></trkpt><trkpt lat="59.5590916369" lon="31.2670627702"><ele>239.02</ele><time>2026-09-02T20:09:40Z</time></trkpt><trkpt lat="59.5590916369" lon="31.2670627702"><ele>239.02</ele><time>2026-09-02T20:09:41Z</time></trkpt><trkpt lat="59.5590916369" lon="31.2670627702"><ele>239.02</ele><time>2026-09-02T20:09:42Z</time></trkpt><trkpt lat="59.5590916369" lon="31.2670627702"><ele>239.02</ele><time>2026-09-02T20:09:43Z</time></trkpt><trkpt lat="59.5590916369" lon="31.2670627702"><ele>239.02</ele><time>2026-09-02T20:09:44Z</time></trkpt><trkpt lat="59.5590916369" lon="31.2670627702"><ele>239.02</ele><time>2026-09-02T20:09:45Z</time></trkpt><trkpt lat="59.5590916369" lon="31.2670627702"><ele>239.02</ele><time>2026-09-02T20:09:46Z</time></trkpt><trkpt lat="59.5591047965" lon="31.2670595851"><ele>239.02</ele><time>2026-09-02T20:09:47Z</time></trkpt><trkpt lat="59.5591089875" lon="31.2670575734"><ele>239.02</ele><time>2026-09-02T20:09:48Z</time></trkpt><trkpt lat="59.5591095742" lon="31.2670544721"><ele>239.02</ele><time>2026-09-02T20:09:49Z</time></trkpt><trkpt lat="59.5591108315" lon="31.2670529634"><ele>239.02</ele><time>2026-09-02T20:09:50Z</time></trkpt><trkpt lat="59.5591111667" lon="31.2670557294"><ele>239.02</ele><time>2026-09-02T20:09:51Z</time></trkpt><trkpt lat="59.5591111667" lon="31.2670557294"><ele>239.02</ele><time>2026-09-02T20:09:52Z</time></trkpt><trkpt lat="59.5591111667" lon="31.2670557294"><ele>239.02</ele><time>2026-09-02T20:09:53Z</time></trkpt><trkpt lat="59.5591111667" lon="31.2670557294"><ele>239.02</ele><time>2026-09-02T20:09:54Z</time></trkpt><trkpt lat="59.5591111667" lon="31.2670557294"><ele>239.02</ele><time>2026-09-02T20:09:55Z</time></trkpt><trkpt lat="59.5591111667" lon="31.2670557294"><ele>239.02</ele><time>2026-09-02T20:09:56Z</time></trkpt><trkpt lat="59.5591111667" lon="31.2670557294"><ele>239.02</ele><time>2026-09-02T20:09:57Z</time></trkpt><trkpt lat="59.5591111667" lon="31.2670557294"><ele>239.02</ele><time>2026-09-02T20:09:58Z</time></trkpt><trkpt lat="59.5591111667" lon="31.2670557294"><ele>239.02</ele><time>2026-09-02T20:09:59Z</time></trkpt><trkpt lat="59.5591111667" lon="31.2670557294"><ele>239.02</ele><time>2026-09-02T20:10:00Z</time></trkpt><trkpt lat="59.5591111667" lon="31.2670557294"><ele>239.02</ele><time>2026-09-02T20:10:01Z</time></trkpt><trkpt lat="59.5591111667" lon="31.2670557294"><ele>239.02</ele><time>2026-09-02T20:10:02Z</time></trkpt><trkpt lat="59.5591111667" lon="31.2670557294"><ele>239.02</ele><time>2026-09-02T20:10:03Z</time></trkpt><trkpt lat="59.5591111667" lon="31.2670557294"><ele>239.02</ele><time>2026-09-02T20:10:04Z</time></trkpt><trkpt lat="59.5591111667" lon="31.2670557294"><ele>239.02</ele><time>2026-09-02T20:10:05Z</time></trkpt><trkpt lat="59.5591111667" lon="31.2670557294"><ele>239.02</ele><time>2026-09-02T20:10:06Z</time></trkpt><trkpt lat="59.5591111667" lon="31.2670557294"><ele>239.02</ele><time>2026-09-02T20:10:07Z</time></trkpt><trkpt lat="59.5591111667" lon="31.2670557294"><ele>239.02</ele><time>2026-09-02T20:10:08Z</time></trkpt><trkpt lat="59.5591111667" lon="31.2670557294"><ele>239.02</ele><time>2026-09-02T20:10:09Z</time></trkpt><trkpt lat="59.5591111667" lon="31.2670557294"><ele>239.02</ele><time>2026-09-02T20:10:10Z</time></trkpt><trkpt lat="59.5591111667" lon="31.2670557294"><ele>239.02</ele><time>2026-09-02T20:10:11Z</time></trkpt><trkpt lat="59.5591111667" lon="31.2670557294"><ele>239.02</ele><time>2026-09-02T20:10:12Z</time></trkpt><trkpt lat="59.5591111667" lon="31.2670557294"><ele>239.02</ele><time>2026-09-02T20:10:13Z</time></trkpt><trkpt lat="59.5591111667" lon="31.2670557294"><ele>239.02</ele><time>2026-09-02T20:10:14Z</time></trkpt><trkpt lat="59.5591111667" lon="31.2670557294"><ele>239.02</ele><time>2026-09-02T20:10:15Z</time></trkpt><trkpt lat="59.5591111667" lon="31.2670557294"><ele>239.02</ele><time>2026-09-02T20:10:16Z</time></trkpt><trkpt lat="59.5591111667" lon="31.2670557294"><ele>239.02</ele><time>2026-09-02T20:10:17Z</time></trkpt><trkpt lat="59.5591111667" lon="31.2670557294"><ele>239.02</ele><time>2026-09-02T20:10:18Z</time></trkpt><trkpt lat="59.5591111667" lon="31.2670557294"><ele>239.02</ele><time>2026-09-02T20:10:19Z</time></trkpt><trkpt lat="59.5591111667" lon="31.2670557294"><ele>239.02</ele><time>2026-09-02T20:10:20Z</time></trkpt><trkpt lat="59.5591111667" lon="31.2670557294"><ele>239.02</ele><time>2026-09-02T20:10:21Z</time></trkpt><trkpt lat="59.5591111667" lon="31.2670557294"><ele>239.02</ele><time>2026-09-02T20:10:22Z</time></trkpt><trkpt lat="59.5591111667" lon="31.2670557294"><ele>239.02</ele><time>2026-09-02T20:10:23Z</time></trkpt><trkpt lat="59.5591111667" lon="31.2670557294"><ele>239.02</ele><time>2026-09-02T20:10:24Z</time></trkpt><trkpt lat="59.5591111667" lon="31.2670557294"><ele>239.02</ele><time>2026-09-02T20:10:25Z</time></trkpt><trkpt lat="59.5591111667" lon="31.2670557294"><ele>239.02</ele><time>2026-09-02T20:10:26Z</time></trkpt><trkpt lat="59.5591111667" lon="31.2670557294"><ele>239.02</ele><time>2026-09-02T20:10:27Z</time></trkpt><trkpt lat="59.5591111667" lon="31.2670557294"><ele>239.02</ele><time>2026-09-02T20:10:28Z</time></trkpt><trkpt lat="59.5591111667" lon="31.2670557294"><ele>239.02</ele><time>2026-09-02T20:10:29Z</time></trkpt><trkpt lat="59.5591111667" lon="31.2670557294"><ele>239.02</ele><time>2026-09-02T20:10:30Z</time></trkpt><trkpt lat="59.5591111667" lon="31.2670557294"><ele>239.02</ele><time>2026-09-02T20:10:31Z</time></trkpt><trkpt lat="59.5591111667" lon="31.2670557294"><ele>239.02</ele><time>2026-09-02T20:10:32Z</time></trkpt><trkpt lat="59.5591111667" lon="31.2670557294"><ele>239.02</ele><time>2026-09-02T20:10:33Z</time></trkpt><trkpt lat="59.5591111667" lon="31.2670557294"><ele>239.02</ele><time>2026-09-02T20:10:34Z</time></trkpt><trkpt lat="59.5591111667" lon="31.2670557294"><ele>239.02</ele><time>2026-09-02T20:10:35Z</time></trkpt><trkpt lat="59.5591111667" lon="31.2670557294"><ele>239.02</ele><time>2026-09-02T20:10:36Z</time></trkpt><trkpt lat="59.5591111667" lon="31.2670557294"><ele>239.02</ele><time>2026-09-02T20:10:37Z</time></trkpt><trkpt lat="59.5591111667" lon="31.2670557294"><ele>239.02</ele><time>2026-09-02T20:10:38Z</time></trkpt><trkpt lat="59.5591111667" lon="31.2670557294"><ele>239.02</ele><time>2026-09-02T20:10:39Z</time></trkpt><trkpt lat="59.5591111667" lon="31.2670557294"><ele>239.02</ele><time>2026-09-02T20:10:40Z</time></trkpt><trkpt lat="59.5591111667" lon="31.2670557294"><ele>239.02</ele><time>2026-09-02T20:10:41Z</time></trkpt><trkpt lat="59.5591111667" lon="31.2670557294"><ele>239.02</ele><time>2026-09-02T20:10:42Z</time></trkpt><trkpt lat="59.5591111667" lon="31.2670557294"><ele>239.02</ele><time>2026-09-02T20:10:43Z</time></trkpt><trkpt lat="59.5591111667" lon="31.2670557294"><ele>239.02</ele><time>2026-09-02T20:10:44Z</time></trkpt><trkpt lat="59.5591111667" lon="31.2670557294"><ele>239.02</ele><time>2026-09-02T20:10:45Z</time></trkpt><trkpt lat="59.5591111667" lon="31.2670557294"><ele>239.02</ele><time>2026-09-02T20:10:46Z</time></trkpt><trkpt lat="59.5591111667" lon="31.2670557294"><ele>239.02</ele><time>2026-09-02T20:10:47Z</time></trkpt><trkpt lat="59.5591111667" lon="31.2670557294"><ele>239.02</ele><time>2026-09-02T20:10:48Z</time></trkpt><trkpt lat="59.5591111667" lon="31.2670557294"><ele>239.02</ele><time>2026-09-02T20:10:49Z</time></trkpt><trkpt lat="59.5591111667" lon="31.2670557294"><ele>239.02</ele><time>2026-09-02T20:10:50Z</time></trkpt><trkpt lat="59.5591111667" lon="31.2670557294"><ele>239.02</ele><time>2026-09-02T20:10:51Z</time></trkpt><trkpt lat="59.5591111667" lon="31.2670557294"><ele>239.02</ele><time>2026-09-02T20:10:52Z</time></trkpt><trkpt lat="59.5591111667" lon="31.2670557294"><ele>238.54</ele><time>2026-09-02T20:10:53Z</time></trkpt><trkpt lat="59.5591111667" lon="31.2670557294"><ele>238.54</ele><time>2026-09-02T20:10:54Z</time></trkpt><trkpt lat="59.5591111667" lon="31.2670557294"><ele>238.54</ele><time>2026-09-02T20:10:55Z</time></trkpt><trkpt lat="59.5591111667" lon="31.2670557294"><ele>238.54</ele><time>2026-09-02T20:10:56Z</time></trkpt><trkpt lat="59.5591111667" lon="31.2670557294"><ele>238.54</ele><time>2026-09-02T20:10:57Z</time></trkpt><trkpt lat="59.5591111667" lon="31.2670557294"><ele>238.54</ele><time>2026-09-02T20:10:58Z</time></trkpt><trkpt lat="59.5591111667" lon="31.2670557294"><ele>238.54</ele><time>2026-09-02T20:10:59Z</time></trkpt><trkpt lat="59.5591111667" lon="31.2670557294"><ele>238.54</ele><time>2026-09-02T20:11:00Z</time></trkpt><trkpt lat="59.5591111667" lon="31.2670557294"><ele>238.54</ele><time>2026-09-02T20:11:01Z</time></trkpt><trkpt lat="59.5591111667" lon="31.2670557294"><ele>238.54</ele><time>2026-09-02T20:11:02Z</time></trkpt><trkpt lat="59.5591111667" lon="31.2670557294"><ele>239.02</ele><time>2026-09-02T20:11:03Z</time></trkpt><trkpt lat="59.5591111667" lon="31.2670557294"><ele>239.02</ele><time>2026-09-02T20:11:04Z</time></trkpt><trkpt lat="59.5591111667" lon="31.2670557294"><ele>239.02</ele><time>2026-09-02T20:11:05Z</time></trkpt><trkpt lat="59.5591111667" lon="31.2670557294"><ele>239.02</ele><time>2026-09-02T20:11:06Z</time></trkpt><trkpt lat="59.5591111667" lon="31.2670557294"><ele>239.02</ele><time>2026-09-02T20:11:07Z</time></trkpt><trkpt lat="59.5591111667" lon="31.2670557294"><ele>239.02</ele><time>2026-09-02T20:11:08Z</time></trkpt><trkpt lat="59.5591111667" lon="31.2670557294"><ele>239.02</ele><time>2026-09-02T20:11:09Z</time></trkpt><trkpt lat="59.5591111667" lon="31.2670557294"><ele>239.02</ele><time>2026-09-02T20:11:10Z</time></trkpt><trkpt lat="59.5591111667" lon="31.2670557294"><ele>239.02</ele><time>2026-09-02T20:11:11Z</time></trkpt><trkpt lat="59.5591111667" lon="31.2670557294"><ele>239.02</ele><time>2026-09-02T20:11:12Z</time></trkpt><trkpt lat="59.5591111667" lon="31.2670557294"><ele>239.02</ele><time>2026-09-02T20:11:13Z</time></trkpt><trkpt lat="59.5591111667" lon="31.2670557294"><ele>239.02</ele><time>2026-09-02T20:11:14Z</time></trkpt><trkpt lat="59.5591111667" lon="31.2670557294"><ele>239.02</ele><time>2026-09-02T20:11:15Z</time></trkpt><trkpt lat="59.5591111667" lon="31.2670557294"><ele>239.02</ele><time>2026-09-02T20:11:16Z</time></trkpt><trkpt lat="59.5591111667" lon="31.2670557294"><ele>239.02</ele><time>2026-09-02T20:11:17Z</time></trkpt><trkpt lat="59.5591111667" lon="31.2670557294"><ele>239.02</ele><time>2026-09-02T20:11:18Z</time></trkpt><trkpt lat="59.5591111667" lon="31.2670557294"><ele>239.02</ele><time>2026-09-02T20:11:19Z</time></trkpt><trkpt lat="59.5591111667" lon="31.2670557294"><ele>239.02</ele><time>2026-09-02T20:11:20Z</time></trkpt><trkpt lat="59.5591111667" lon="31.2670557294"><ele>239.02</ele><time>2026-09-02T20:11:21Z</time></trkpt><trkpt lat="59.5591111667" lon="31.2670557294"><ele>239.02</ele><time>2026-09-02T20:11:22Z</time></trkpt><trkpt lat="59.5591111667" lon="31.2670557294"><ele>239.02</ele><time>2026-09-02T20:11:23Z</time></trkpt><trkpt lat="59.5591111667" lon="31.2670557294"><ele>239.02</ele><time>2026-09-02T20:11:24Z</time></trkpt><trkpt lat="59.5591111667" lon="31.2670557294"><ele>239.02</ele><time>2026-09-02T20:11:25Z</time></trkpt><trkpt lat="59.5591111667" lon="31.2670557294"><ele>239.02</ele><time>2026-09-02T20:11:26Z</time></trkpt><trkpt lat="59.5591111667" lon="31.2670557294"><ele>239.02</ele><time>2026-09-02T20:11:27Z</time></trkpt><trkpt lat="59.5591111667" lon="31.2670557294"><ele>239.02</ele><time>2026-09-02T20:11:28Z</time></trkpt><trkpt lat="59.5591111667" lon="31.2670557294"><ele>239.02</ele><time>2026-09-02T20:11:29Z</time></trkpt><trkpt lat="59.5591111667" lon="31.2670557294"><ele>239.02</ele><time>2026-09-02T20:11:30Z</time></trkpt><trkpt lat="59.5591111667" lon="31.2670557294"><ele>239.02</ele><time>2026-09-02T20:11:31Z</time></trkpt><trkpt lat="59.5591111667" lon="31.2670557294"><ele>239.02</ele><time>2026-09-02T20:11:32Z</time></trkpt><trkpt lat="59.5591111667" lon="31.2670557294"><ele>239.02</ele><time>2026-09-02T20:11:33Z</time></trkpt><trkpt lat="59.5591111667" lon="31.2670557294"><ele>239.02</ele><time>2026-09-02T20:11:34Z</time></trkpt><trkpt lat="59.5591111667" lon="31.2670557294"><ele>239.02</ele><time>2026-09-02T20:11:35Z</time></trkpt><trkpt lat="59.5591111667" lon="31.2670557294"><ele>239.02</ele><time>2026-09-02T20:11:36Z</time></trkpt><trkpt lat="59.5591111667" lon="31.2670557294"><ele>239.02</ele><time>2026-09-02T20:11:37Z</time></trkpt><trkpt lat="59.5591111667" lon="31.2670557294"><ele>239.02</ele><time>2026-09-02T20:11:38Z</time></trkpt><trkpt lat="59.5591111667" lon="31.2670557294"><ele>239.02</ele><time>2026-09-02T20:11:39Z</time></trkpt><trkpt lat="59.5591111667" lon="31.2670557294"><ele>239.02</ele><time>2026-09-02T20:11:40Z</time></trkpt><trkpt lat="59.5591111667" lon="31.2670557294"><ele>239.02</ele><time>2026-09-02T20:11:41Z</time></trkpt><trkpt lat="59.5591111667" lon="31.2670557294"><ele>239.02</ele><time>2026-09-02T20:11:42Z</time></trkpt><trkpt lat="59.5591111667" lon="31.2670557294"><ele>239.02</ele><time>2026-09-02T20:11:43Z</time></trkpt><trkpt lat="59.5591111667" lon="31.2670557294"><ele>239.02</ele><time>2026-09-02T20:11:44Z</time></trkpt><trkpt lat="59.5591111667" lon="31.2670557294"><ele>239.02</ele><time>2026-09-02T20:11:45Z</time></trkpt><trkpt lat="59.5591111667" lon="31.2670557294"><ele>239.02</ele><time>2026-09-02T20:11:46Z</time></trkpt><trkpt lat="59.5591111667" lon="31.2670557294"><ele>239.02</ele><time>2026-09-02T20:11:47Z</time></trkpt><trkpt lat="59.5591111667" lon="31.2670557294"><ele>239.02</ele><time>2026-09-02T20:11:48Z</time></trkpt><trkpt lat="59.5591111667" lon="31.2670557294"><ele>239.02</ele><time>2026-09-02T20:11:49Z</time></trkpt><trkpt lat="59.5591111667" lon="31.2670557294"><ele>239.02</ele><time>2026-09-02T20:11:50Z</time></trkpt><trkpt lat="59.5591111667" lon="31.2670557294"><ele>239.02</ele><time>2026-09-02T20:11:51Z</time></trkpt><trkpt lat="59.5591652300" lon="31.2670287397"><ele>239.02</ele><time>2026-09-02T20:11:52Z</time></trkpt><trkpt lat="59.5591643918" lon="31.2670233753"><ele>239.02</ele><time>2026-09-02T20:11:53Z</time></trkpt><trkpt lat="59.5591659844" lon="31.2670163345"><ele>239.02</ele><time>2026-09-02T20:11:54Z</time></trkpt><trkpt lat="59.5591691695" lon="31.2670096289"><ele>239.02</ele><time>2026-09-02T20:11:55Z</time></trkpt><trkpt lat="59.5591691695" lon="31.2670096289"><ele>239.02</ele><time>2026-09-02T20:11:56Z</time></trkpt><trkpt lat="59.5591691695" lon="31.2670096289"><ele>239.02</ele><time>2026-09-02T20:11:57Z</time></trkpt><trkpt lat="59.5591691695" lon="31.2670096289"><ele>239.02</ele><time>2026-09-02T20:11:58Z</time></trkpt><trkpt lat="59.5591691695" lon="31.2670096289"><ele>239.02</ele><time>2026-09-02T20:11:59Z</time></trkpt><trkpt lat="59.5591691695" lon="31.2670096289"><ele>239.02</ele><time>2026-09-02T20:12:00Z</time></trkpt><trkpt lat="59.5591691695" lon="31.2670096289"><ele>239.02</ele><time>2026-09-02T20:12:01Z</time></trkpt><trkpt lat="59.5591691695" lon="31.2670096289"><ele>239.02</ele><time>2026-09-02T20:12:02Z</time></trkpt><trkpt lat="59.5591691695" lon="31.2670096289"><ele>239.02</ele><time>2026-09-02T20:12:03Z</time></trkpt><trkpt lat="59.5591691695" lon="31.2670096289"><ele>239.02</ele><time>2026-09-02T20:12:04Z</time></trkpt><trkpt lat="59.5591691695" lon="31.2670096289"><ele>239.02</ele><time>2026-09-02T20:12:05Z</time></trkpt><trkpt lat="59.5591691695" lon="31.2670096289"><ele>239.02</ele><time>2026-09-02T20:12:06Z</time></trkpt><trkpt lat="59.5591691695" lon="31.2670096289"><ele>239.02</ele><time>2026-09-02T20:12:07Z</time></trkpt><trkpt lat="59.5591691695" lon="31.2670096289"><ele>239.02</ele><time>2026-09-02T20:12:08Z</time></trkpt><trkpt lat="59.5591691695" lon="31.2670096289"><ele>239.02</ele><time>2026-09-02T20:12:09Z</time></trkpt><trkpt lat="59.5591691695" lon="31.2670096289"><ele>239.02</ele><time>2026-09-02T20:12:10Z</time></trkpt><trkpt lat="59.5591691695" lon="31.2670096289"><ele>239.02</ele><time>2026-09-02T20:12:11Z</time></trkpt><trkpt lat="59.5591691695" lon="31.2670096289"><ele>239.02</ele><time>2026-09-02T20:12:12Z</time></trkpt><trkpt lat="59.5591691695" lon="31.2670096289"><ele>239.02</ele><time>2026-09-02T20:12:13Z</time></trkpt><trkpt lat="59.5591691695" lon="31.2670096289"><ele>239.02</ele><time>2026-09-02T20:12:14Z</time></trkpt><trkpt lat="59.5591691695" lon="31.2670096289"><ele>239.02</ele><time>2026-09-02T20:12:15Z</time></trkpt><trkpt lat="59.5591691695" lon="31.2670096289"><ele>239.02</ele><time>2026-09-02T20:12:16Z</time></trkpt><trkpt lat="59.5591691695" lon="31.2670096289"><ele>239.02</ele><time>2026-09-02T20:12:17Z</time></trkpt><trkpt lat="59.5591691695" lon="31.2670096289"><ele>239.02</ele><time>2026-09-02T20:12:18Z</time></trkpt><trkpt lat="59.5591691695" lon="31.2670096289"><ele>239.02</ele><time>2026-09-02T20:12:19Z</time></trkpt><trkpt lat="59.5591691695" lon="31.2670096289"><ele>239.02</ele><time>2026-09-02T20:12:20Z</time></trkpt><trkpt lat="59.5591691695" lon="31.2670096289"><ele>239.02</ele><time>2026-09-02T20:12:21Z</time></trkpt><trkpt lat="59.5591691695" lon="31.2670096289"><ele>239.02</ele><time>2026-09-02T20:12:22Z</time></trkpt><trkpt lat="59.5591691695" lon="31.2670096289"><ele>239.02</ele><time>2026-09-02T20:12:23Z</time></trkpt><trkpt lat="59.5591691695" lon="31.2670096289"><ele>239.02</ele><time>2026-09-02T20:12:24Z</time></trkpt><trkpt lat="59.5591691695" lon="31.2670096289"><ele>239.02</ele><time>2026-09-02T20:12:25Z</time></trkpt><trkpt lat="59.5591691695" lon="31.2670096289"><ele>239.02</ele><time>2026-09-02T20:12:26Z</time></trkpt><trkpt lat="59.5591691695" lon="31.2670096289"><ele>239.02</ele><time>2026-09-02T20:12:27Z</time></trkpt><trkpt lat="59.5591691695" lon="31.2670096289"><ele>239.02</ele><time>2026-09-02T20:12:28Z</time></trkpt><trkpt lat="59.5591691695" lon="31.2670096289"><ele>239.02</ele><time>2026-09-02T20:12:29Z</time></trkpt><trkpt lat="59.5591691695" lon="31.2670096289"><ele>239.02</ele><time>2026-09-02T20:12:30Z</time></trkpt><trkpt lat="59.5591691695" lon="31.2670096289"><ele>239.02</ele><time>2026-09-02T20:12:31Z</time></trkpt><trkpt lat="59.5591691695" lon="31.2670096289"><ele>239.02</ele><time>2026-09-02T20:12:32Z</time></trkpt><trkpt lat="59.5591691695" lon="31.2670096289"><ele>239.02</ele><time>2026-09-02T20:12:33Z</time></trkpt><trkpt lat="59.5591691695" lon="31.2670096289"><ele>239.02</ele><time>2026-09-02T20:12:34Z</time></trkpt><trkpt lat="59.5591691695" lon="31.2670096289"><ele>239.02</ele><time>2026-09-02T20:12:35Z</time></trkpt><trkpt lat="59.5591691695" lon="31.2670096289"><ele>239.02</ele><time>2026-09-02T20:12:36Z</time></trkpt><trkpt lat="59.5591691695" lon="31.2670096289"><ele>239.02</ele><time>2026-09-02T20:12:37Z</time></trkpt><trkpt lat="59.5591691695" lon="31.2670096289"><ele>239.02</ele><time>2026-09-02T20:12:38Z</time></trkpt><trkpt lat="59.5591691695" lon="31.2670096289"><ele>239.02</ele><time>2026-09-02T20:12:39Z</time></trkpt><trkpt lat="59.5591691695" lon="31.2670096289"><ele>239.02</ele><time>2026-09-02T20:12:40Z</time></trkpt><trkpt lat="59.5591691695" lon="31.2670096289"><ele>239.02</ele><time>2026-09-02T20:12:41Z</time></trkpt><trkpt lat="59.5591691695" lon="31.2670096289"><ele>239.51</ele><time>2026-09-02T20:12:42Z</time></trkpt><trkpt lat="59.5591691695" lon="31.2670096289"><ele>239.51</ele><time>2026-09-02T20:12:43Z</time></trkpt><trkpt lat="59.5591691695" lon="31.2670096289"><ele>239.51</ele><time>2026-09-02T20:12:44Z</time></trkpt><trkpt lat="59.5592608675" lon="31.2670261413"><ele>239.51</ele><time>2026-09-02T20:12:45Z</time></trkpt><trkpt lat="59.5592593588" lon="31.2670320924"><ele>239.51</ele><time>2026-09-02T20:12:46Z</time></trkpt><trkpt lat="59.5592616219" lon="31.2670402229"><ele>239.51</ele><time>2026-09-02T20:12:47Z</time></trkpt><trkpt lat="59.5592592750" lon="31.2670388818"><ele>239.51</ele><time>2026-09-02T20:12:48Z</time></trkpt><trkpt lat="59.5592592750" lon="31.2670388818"><ele>239.51</ele><time>2026-09-02T20:12:49Z</time></trkpt><trkpt lat="59.5592592750" lon="31.2670388818"><ele>239.51</ele><time>2026-09-02T20:12:50Z</time></trkpt><trkpt lat="59.5592592750" lon="31.2670388818"><ele>239.51</ele><time>2026-09-02T20:12:51Z</time></trkpt><trkpt lat="59.5592592750" lon="31.2670388818"><ele>239.51</ele><time>2026-09-02T20:12:52Z</time></trkpt><trkpt lat="59.5592592750" lon="31.2670388818"><ele>239.51</ele><time>2026-09-02T20:12:53Z</time></trkpt><trkpt lat="59.5592592750" lon="31.2670388818"><ele>239.51</ele><time>2026-09-02T20:12:54Z</time></trkpt><trkpt lat="59.5592592750" lon="31.2670388818"><ele>239.51</ele><time>2026-09-02T20:12:55Z</time></trkpt><trkpt lat="59.5592592750" lon="31.2670388818"><ele>239.51</ele><time>2026-09-02T20:12:56Z</time></trkpt><trkpt lat="59.5592592750" lon="31.2670388818"><ele>239.51</ele><time>2026-09-02T20:12:57Z</time></trkpt><trkpt lat="59.5592592750" lon="31.2670388818"><ele>239.51</ele><time>2026-09-02T20:12:58Z</time></trkpt><trkpt lat="59.5592592750" lon="31.2670388818"><ele>239.51</ele><time>2026-09-02T20:12:59Z</time></trkpt><trkpt lat="59.5592592750" lon="31.2670388818"><ele>239.51</ele><time>2026-09-02T20:13:00Z</time></trkpt><trkpt lat="59.5592592750" lon="31.2670388818"><ele>239.51</ele><time>2026-09-02T20:13:01Z</time></trkpt><trkpt lat="59.5592592750" lon="31.2670388818"><ele>239.51</ele><time>2026-09-02T20:13:02Z</time></trkpt><trkpt lat="59.5592592750" lon="31.2670388818"><ele>239.51</ele><time>2026-09-02T20:13:03Z</time></trkpt><trkpt lat="59.5592592750" lon="31.2670388818"><ele>239.51</ele><time>2026-09-02T20:13:04Z</time></trkpt><trkpt lat="59.5592592750" lon="31.2670388818"><ele>239.51</ele><time>2026-09-02T20:13:05Z</time></trkpt><trkpt lat="59.5592592750" lon="31.2670388818"><ele>239.51</ele><time>2026-09-02T20:13:06Z</time></trkpt><trkpt lat="59.5592592750" lon="31.2670388818"><ele>239.51</ele><time>2026-09-02T20:13:07Z</time></trkpt><trkpt lat="59.5592592750" lon="31.2670388818"><ele>239.51</ele><time>2026-09-02T20:13:08Z</time></trkpt><trkpt lat="59.5592592750" lon="31.2670388818"><ele>239.51</ele><time>2026-09-02T20:13:09Z</time></trkpt><trkpt lat="59.5592592750" lon="31.2670388818"><ele>239.51</ele><time>2026-09-02T20:13:10Z</time></trkpt><trkpt lat="59.5592592750" lon="31.2670388818"><ele>239.51</ele><time>2026-09-02T20:13:11Z</time></trkpt><trkpt lat="59.5592592750" lon="31.2670388818"><ele>239.51</ele><time>2026-09-02T20:13:12Z</time></trkpt><trkpt lat="59.5592592750" lon="31.2670388818"><ele>239.51</ele><time>2026-09-02T20:13:13Z</time></trkpt><trkpt lat="59.5592592750" lon="31.2670388818"><ele>239.51</ele><time>2026-09-02T20:13:14Z</time></trkpt><trkpt lat="59.5592592750" lon="31.2670388818"><ele>239.51</ele><time>2026-09-02T20:13:15Z</time></trkpt><trkpt lat="59.5592592750" lon="31.2670388818"><ele>239.51</ele><time>2026-09-02T20:13:16Z</time></trkpt><trkpt lat="59.5592592750" lon="31.2670388818"><ele>239.51</ele><time>2026-09-02T20:13:17Z</time></trkpt><trkpt lat="59.5592592750" lon="31.2670388818"><ele>239.51</ele><time>2026-09-02T20:13:18Z</time></trkpt><trkpt lat="59.5592592750" lon="31.2670388818"><ele>239.51</ele><time>2026-09-02T20:13:19Z</time></trkpt><trkpt lat="59.5592592750" lon="31.2670388818"><ele>239.51</ele><time>2026-09-02T20:13:20Z</time></trkpt><trkpt lat="59.5592592750" lon="31.2670388818"><ele>239.51</ele><time>2026-09-02T20:13:21Z</time></trkpt><trkpt lat="59.5592592750" lon="31.2670388818"><ele>239.02</ele><time>2026-09-02T20:13:22Z</time></trkpt><trkpt lat="59.5592592750" lon="31.2670388818"><ele>239.02</ele><time>2026-09-02T20:13:23Z</time></trkpt><trkpt lat="59.5592592750" lon="31.2670388818"><ele>239.02</ele><time>2026-09-02T20:13:24Z</time></trkpt><trkpt lat="59.5592592750" lon="31.2670388818"><ele>239.02</ele><time>2026-09-02T20:13:25Z</time></trkpt><trkpt lat="59.5592592750" lon="31.2670388818"><ele>239.02</ele><time>2026-09-02T20:13:26Z</time></trkpt><trkpt lat="59.5592592750" lon="31.2670388818"><ele>239.02</ele><time>2026-09-02T20:13:27Z</time></trkpt><trkpt lat="59.5592592750" lon="31.2670388818"><ele>239.02</ele><time>2026-09-02T20:13:28Z</time></trkpt><trkpt lat="59.5592592750" lon="31.2670388818"><ele>239.02</ele><time>2026-09-02T20:13:29Z</time></trkpt><trkpt lat="59.5592592750" lon="31.2670388818"><ele>239.51</ele><time>2026-09-02T20:13:30Z</time></trkpt><trkpt lat="59.5592592750" lon="31.2670388818"><ele>239.51</ele><time>2026-09-02T20:13:31Z</time></trkpt><trkpt lat="59.5592592750" lon="31.2670388818"><ele>239.51</ele><time>2026-09-02T20:13:32Z</time></trkpt><trkpt lat="59.5592592750" lon="31.2670388818"><ele>239.51</ele><time>2026-09-02T20:13:33Z</time></trkpt><trkpt lat="59.5592592750" lon="31.2670388818"><ele>239.51</ele><time>2026-09-02T20:13:34Z</time></trkpt><trkpt lat="59.5592592750" lon="31.2670388818"><ele>239.51</ele><time>2026-09-02T20:13:35Z</time></trkpt><trkpt lat="59.5592592750" lon="31.2670388818"><ele>239.51</ele><time>2026-09-02T20:13:36Z</time></trkpt><trkpt lat="59.5592592750" lon="31.2670388818"><ele>239.51</ele><time>2026-09-02T20:13:37Z</time></trkpt><trkpt lat="59.5592592750" lon="31.2670388818"><ele>239.51</ele><time>2026-09-02T20:13:38Z</time></trkpt><trkpt lat="59.5592592750" lon="31.2670388818"><ele>239.51</ele><time>2026-09-02T20:13:39Z</time></trkpt><trkpt lat="59.5592592750" lon="31.2670388818"><ele>239.51</ele><time>2026-09-02T20:13:40Z</time></trkpt><trkpt lat="59.5592592750" lon="31.2670388818"><ele>239.02</ele><time>2026-09-02T20:13:41Z</time></trkpt><trkpt lat="59.5592592750" lon="31.2670388818"><ele>239.02</ele><time>2026-09-02T20:13:42Z</time></trkpt><trkpt lat="59.5592592750" lon="31.2670388818"><ele>239.02</ele><time>2026-09-02T20:13:43Z</time></trkpt><trkpt lat="59.5592592750" lon="31.2670388818"><ele>239.02</ele><time>2026-09-02T20:13:44Z</time></trkpt><trkpt lat="59.5592592750" lon="31.2670388818"><ele>239.02</ele><time>2026-09-02T20:13:45Z</time></trkpt><trkpt lat="59.5592592750" lon="31.2670388818"><ele>239.02</ele><time>2026-09-02T20:13:46Z</time></trkpt><trkpt lat="59.5592592750" lon="31.2670388818"><ele>239.02</ele><time>2026-09-02T20:13:47Z</time></trkpt><trkpt lat="59.5593510568" lon="31.2670682184"><ele>239.02</ele><time>2026-09-02T20:13:48Z</time></trkpt><trkpt lat="59.5593474526" lon="31.2670668773"><ele>239.02</ele><time>2026-09-02T20:13:49Z</time></trkpt><trkpt lat="59.5593526494" lon="31.2670685537"><ele>239.02</ele><time>2026-09-02T20:13:50Z</time></trkpt><trkpt lat="59.5593566727" lon="31.2670716550"><ele>239.02</ele><time>2026-09-02T20:13:51Z</time></trkpt><trkpt lat="59.5593566727" lon="31.2670716550"><ele>239.02</ele><time>2026-09-02T20:13:52Z</time></trkpt><trkpt lat="59.5593566727" lon="31.2670716550"><ele>239.02</ele><time>2026-09-02T20:13:53Z</time></trkpt><trkpt lat="59.5593566727" lon="31.2670716550"><ele>239.02</ele><time>2026-09-02T20:13:54Z</time></trkpt><trkpt lat="59.5593566727" lon="31.2670716550"><ele>239.02</ele><time>2026-09-02T20:13:55Z</time></trkpt><trkpt lat="59.5593667310" lon="31.2670426536"><ele>239.51</ele><time>2026-09-02T20:13:56Z</time></trkpt><trkpt lat="59.5593710896" lon="31.2670405582"><ele>239.51</ele><time>2026-09-02T20:13:57Z</time></trkpt><trkpt lat="59.5593752805" lon="31.2670368701"><ele>239.51</ele><time>2026-09-02T20:13:58Z</time></trkpt><trkpt lat="59.5593768731" lon="31.2670310866"><ele>239.51</ele><time>2026-09-02T20:13:59Z</time></trkpt><trkpt lat="59.5593768731" lon="31.2670310866"><ele>239.51</ele><time>2026-09-02T20:14:00Z</time></trkpt><trkpt lat="59.5593768731" lon="31.2670310866"><ele>239.51</ele><time>2026-09-02T20:14:01Z</time></trkpt><trkpt lat="59.5593768731" lon="31.2670310866"><ele>239.51</ele><time>2026-09-02T20:14:02Z</time></trkpt><trkpt lat="59.5593768731" lon="31.2670310866"><ele>239.51</ele><time>2026-09-02T20:14:03Z</time></trkpt><trkpt lat="59.5593768731" lon="31.2670310866"><ele>239.51</ele><time>2026-09-02T20:14:04Z</time></trkpt><trkpt lat="59.5593768731" lon="31.2670310866"><ele>239.51</ele><time>2026-09-02T20:14:05Z</time></trkpt><trkpt lat="59.5593768731" lon="31.2670310866"><ele>239.51</ele><time>2026-09-02T20:14:06Z</time></trkpt><trkpt lat="59.5593768731" lon="31.2670310866"><ele>239.51</ele><time>2026-09-02T20:14:07Z</time></trkpt><trkpt lat="59.5593768731" lon="31.2670310866"><ele>239.02</ele><time>2026-09-02T20:14:08Z</time></trkpt><trkpt lat="59.5593768731" lon="31.2670310866"><ele>239.02</ele><time>2026-09-02T20:14:09Z</time></trkpt><trkpt lat="59.5593768731" lon="31.2670310866"><ele>239.02</ele><time>2026-09-02T20:14:10Z</time></trkpt><trkpt lat="59.5593768731" lon="31.2670310866"><ele>239.02</ele><time>2026-09-02T20:14:11Z</time></trkpt><trkpt lat="59.5593768731" lon="31.2670310866"><ele>239.02</ele><time>2026-09-02T20:14:12Z</time></trkpt><trkpt lat="59.5593768731" lon="31.2670310866"><ele>239.02</ele><time>2026-09-02T20:14:13Z</time></trkpt><trkpt lat="59.5593768731" lon="31.2670310866"><ele>239.02</ele><time>2026-09-02T20:14:14Z</time></trkpt><trkpt lat="59.5593768731" lon="31.2670310866"><ele>239.02</ele><time>2026-09-02T20:14:15Z</time></trkpt><trkpt lat="59.5593768731" lon="31.2670310866"><ele>239.02</ele><time>2026-09-02T20:14:16Z</time></trkpt><trkpt lat="59.5593768731" lon="31.2670310866"><ele>239.02</ele><time>2026-09-02T20:14:17Z</time></trkpt><trkpt lat="59.5593768731" lon="31.2670310866"><ele>239.02</ele><time>2026-09-02T20:14:18Z</time></trkpt><trkpt lat="59.5593768731" lon="31.2670310866"><ele>239.02</ele><time>2026-09-02T20:14:19Z</time></trkpt><trkpt lat="59.5593768731" lon="31.2670310866"><ele>239.02</ele><time>2026-09-02T20:14:20Z</time></trkpt><trkpt lat="59.5593768731" lon="31.2670310866"><ele>239.02</ele><time>2026-09-02T20:14:21Z</time></trkpt><trkpt lat="59.5593768731" lon="31.2670310866"><ele>239.02</ele><time>2026-09-02T20:14:22Z</time></trkpt><trkpt lat="59.5593768731" lon="31.2670310866"><ele>239.02</ele><time>2026-09-02T20:14:23Z</time></trkpt><trkpt lat="59.5593768731" lon="31.2670310866"><ele>239.02</ele><time>2026-09-02T20:14:24Z</time></trkpt><trkpt lat="59.5593768731" lon="31.2670310866"><ele>239.02</ele><time>2026-09-02T20:14:25Z</time></trkpt><trkpt lat="59.5593965705" lon="31.2670278177"><ele>239.02</ele><time>2026-09-02T20:14:26Z</time></trkpt><trkpt lat="59.5593984984" lon="31.2670380436"><ele>239.02</ele><time>2026-09-02T20:14:27Z</time></trkpt><trkpt lat="59.5594047848" lon="31.2670485210"><ele>239.02</ele><time>2026-09-02T20:14:28Z</time></trkpt><trkpt lat="59.5594089758" lon="31.2670564838"><ele>239.02</ele><time>2026-09-02T20:14:29Z</time></trkpt><trkpt lat="59.5594130829" lon="31.2670594174"><ele>239.02</ele><time>2026-09-02T20:14:30Z</time></trkpt><trkpt lat="59.5594158489" lon="31.2670684699"><ele>239.02</ele><time>2026-09-02T20:14:31Z</time></trkpt><trkpt lat="59.5594202913" lon="31.2670741696"><ele>239.02</ele><time>2026-09-02T20:14:32Z</time></trkpt><trkpt lat="59.5594262425" lon="31.2670790311"><ele>239.02</ele><time>2026-09-02T20:14:33Z</time></trkpt><trkpt lat="59.5594321936" lon="31.2670819648"><ele>239.02</ele><time>2026-09-02T20:14:34Z</time></trkpt><trkpt lat="59.5594360493" lon="31.2670848984"><ele>239.02</ele><time>2026-09-02T20:14:35Z</time></trkpt><trkpt lat="59.5594389830" lon="31.2670826353"><ele>239.02</ele><time>2026-09-02T20:14:36Z</time></trkpt><trkpt lat="59.5594417490" lon="31.2670822162"><ele>239.02</ele><time>2026-09-02T20:14:37Z</time></trkpt><trkpt lat="59.5594417490" lon="31.2670822162"><ele>239.02</ele><time>2026-09-02T20:14:38Z</time></trkpt><trkpt lat="59.5594417490" lon="31.2670822162"><ele>239.02</ele><time>2026-09-02T20:14:39Z</time></trkpt><trkpt lat="59.5594417490" lon="31.2670822162"><ele>239.51</ele><time>2026-09-02T20:14:40Z</time></trkpt><trkpt lat="59.5594417490" lon="31.2670822162"><ele>239.51</ele><time>2026-09-02T20:14:41Z</time></trkpt><trkpt lat="59.5594417490" lon="31.2670822162"><ele>239.51</ele><time>2026-09-02T20:14:42Z</time></trkpt><trkpt lat="59.5594417490" lon="31.2670822162"><ele>239.51</ele><time>2026-09-02T20:14:43Z</time></trkpt><trkpt lat="59.5594417490" lon="31.2670822162"><ele>239.51</ele><time>2026-09-02T20:14:44Z</time></trkpt><trkpt lat="59.5594417490" lon="31.2670822162"><ele>239.51</ele><time>2026-09-02T20:14:45Z</time></trkpt><trkpt lat="59.5594417490" lon="31.2670822162"><ele>239.51</ele><time>2026-09-02T20:14:46Z</time></trkpt><trkpt lat="59.5594417490" lon="31.2670822162"><ele>239.51</ele><time>2026-09-02T20:14:47Z</time></trkpt><trkpt lat="59.5594417490" lon="31.2670822162"><ele>239.51</ele><time>2026-09-02T20:14:48Z</time></trkpt><trkpt lat="59.5594417490" lon="31.2670822162"><ele>239.51</ele><time>2026-09-02T20:14:49Z</time></trkpt><trkpt lat="59.5594417490" lon="31.2670822162"><ele>239.51</ele><time>2026-09-02T20:14:50Z</time></trkpt><trkpt lat="59.5594417490" lon="31.2670822162"><ele>239.51</ele><time>2026-09-02T20:14:51Z</time></trkpt><trkpt lat="59.5594417490" lon="31.2670822162"><ele>239.51</ele><time>2026-09-02T20:14:52Z</time></trkpt><trkpt lat="59.5594417490" lon="31.2670822162"><ele>239.51</ele><time>2026-09-02T20:14:53Z</time></trkpt><trkpt lat="59.5594417490" lon="31.2670822162"><ele>239.51</ele><time>2026-09-02T20:14:54Z</time></trkpt><trkpt lat="59.5594417490" lon="31.2670822162"><ele>239.02</ele><time>2026-09-02T20:14:55Z</time></trkpt><trkpt lat="59.5594417490" lon="31.2670822162"><ele>239.02</ele><time>2026-09-02T20:14:56Z</time></trkpt><trkpt lat="59.5594417490" lon="31.2670822162"><ele>239.02</ele><time>2026-09-02T20:14:57Z</time></trkpt><trkpt lat="59.5594417490" lon="31.2670822162"><ele>239.02</ele><time>2026-09-02T20:14:58Z</time></trkpt><trkpt lat="59.5594417490" lon="31.2670822162"><ele>239.02</ele><time>2026-09-02T20:14:59Z</time></trkpt><trkpt lat="59.5594417490" lon="31.2670822162"><ele>239.02</ele><time>2026-09-02T20:15:00Z</time></trkpt><trkpt lat="59.5594417490" lon="31.2670822162"><ele>239.02</ele><time>2026-09-02T20:15:01Z</time></trkpt><trkpt lat="59.5594417490" lon="31.2670822162"><ele>239.02</ele><time>2026-09-02T20:15:02Z</time></trkpt><trkpt lat="59.5594417490" lon="31.2670822162"><ele>239.02</ele><time>2026-09-02T20:15:03Z</time></trkpt><trkpt lat="59.5594417490" lon="31.2670822162"><ele>239.02</ele><time>2026-09-02T20:15:04Z</time></trkpt><trkpt lat="59.5594417490" lon="31.2670822162"><ele>239.02</ele><time>2026-09-02T20:15:05Z</time></trkpt><trkpt lat="59.5594417490" lon="31.2670822162"><ele>239.02</ele><time>2026-09-02T20:15:06Z</time></trkpt><trkpt lat="59.5594417490" lon="31.2670822162"><ele>239.02</ele><time>2026-09-02T20:15:07Z</time></trkpt><trkpt lat="59.5594524778" lon="31.2670925260"><ele>239.02</ele><time>2026-09-02T20:15:08Z</time></trkpt><trkpt lat="59.5594571717" lon="31.2670932803"><ele>239.51</ele><time>2026-09-02T20:15:09Z</time></trkpt><trkpt lat="59.5594596863" lon="31.2670929451"><ele>239.51</ele><time>2026-09-02T20:15:10Z</time></trkpt><trkpt lat="59.5594647992" lon="31.2670899276"><ele>239.51</ele><time>2026-09-02T20:15:11Z</time></trkpt><trkpt lat="59.5594703313" lon="31.2670871615"><ele>239.51</ele><time>2026-09-02T20:15:12Z</time></trkpt><trkpt lat="59.5594742708" lon="31.2670854852"><ele>239.51</ele><time>2026-09-02T20:15:13Z</time></trkpt><trkpt lat="59.5594786294" lon="31.2670830544"><ele>239.51</ele><time>2026-09-02T20:15:14Z</time></trkpt><trkpt lat="59.5594847482" lon="31.2670813780"><ele>239.51</ele><time>2026-09-02T20:15:15Z</time></trkpt><trkpt lat="59.5594881848" lon="31.2670808751"><ele>239.51</ele><time>2026-09-02T20:15:16Z</time></trkpt><trkpt lat="59.5594891906" lon="31.2670797855"><ele>239.51</ele><time>2026-09-02T20:15:17Z</time></trkpt><trkpt lat="59.5594900288" lon="31.2670787796"><ele>239.51</ele><time>2026-09-02T20:15:18Z</time></trkpt><trkpt lat="59.5594931301" lon="31.2670779414"><ele>239.51</ele><time>2026-09-02T20:15:19Z</time></trkpt><trkpt lat="59.5594931301" lon="31.2670779414"><ele>239.02</ele><time>2026-09-02T20:15:20Z</time></trkpt><trkpt lat="59.5594931301" lon="31.2670779414"><ele>239.02</ele><time>2026-09-02T20:15:21Z</time></trkpt><trkpt lat="59.5594931301" lon="31.2670779414"><ele>239.02</ele><time>2026-09-02T20:15:22Z</time></trkpt><trkpt lat="59.5594931301" lon="31.2670779414"><ele>239.02</ele><time>2026-09-02T20:15:23Z</time></trkpt><trkpt lat="59.5594931301" lon="31.2670779414"><ele>239.02</ele><time>2026-09-02T20:15:24Z</time></trkpt><trkpt lat="59.5594931301" lon="31.2670779414"><ele>239.02</ele><time>2026-09-02T20:15:25Z</time></trkpt><trkpt lat="59.5594931301" lon="31.2670779414"><ele>239.02</ele><time>2026-09-02T20:15:26Z</time></trkpt><trkpt lat="59.5594931301" lon="31.2670779414"><ele>239.02</ele><time>2026-09-02T20:15:27Z</time></trkpt><trkpt lat="59.5594931301" lon="31.2670779414"><ele>239.02</ele><time>2026-09-02T20:15:28Z</time></trkpt><trkpt lat="59.5594931301" lon="31.2670779414"><ele>239.02</ele><time>2026-09-02T20:15:29Z</time></trkpt><trkpt lat="59.5594931301" lon="31.2670779414"><ele>239.02</ele><time>2026-09-02T20:15:30Z</time></trkpt><trkpt lat="59.5594931301" lon="31.2670779414"><ele>239.02</ele><time>2026-09-02T20:15:31Z</time></trkpt><trkpt lat="59.5594931301" lon="31.2670779414"><ele>239.02</ele><time>2026-09-02T20:15:32Z</time></trkpt><trkpt lat="59.5594931301" lon="31.2670779414"><ele>239.02</ele><time>2026-09-02T20:15:33Z</time></trkpt><trkpt lat="59.5594931301" lon="31.2670779414"><ele>239.02</ele><time>2026-09-02T20:15:34Z</time></trkpt><trkpt lat="59.5594931301" lon="31.2670779414"><ele>239.02</ele><time>2026-09-02T20:15:35Z</time></trkpt><trkpt lat="59.5594931301" lon="31.2670779414"><ele>239.02</ele><time>2026-09-02T20:15:36Z</time></trkpt><trkpt lat="59.5594931301" lon="31.2670779414"><ele>239.02</ele><time>2026-09-02T20:15:37Z</time></trkpt><trkpt lat="59.5594931301" lon="31.2670779414"><ele>239.02</ele><time>2026-09-02T20:15:38Z</time></trkpt><trkpt lat="59.5594931301" lon="31.2670779414"><ele>239.02</ele><time>2026-09-02T20:15:39Z</time></trkpt><trkpt lat="59.5594931301" lon="31.2670779414"><ele>239.02</ele><time>2026-09-02T20:15:40Z</time></trkpt><trkpt lat="59.5594931301" lon="31.2670779414"><ele>239.02</ele><time>2026-09-02T20:15:41Z</time></trkpt><trkpt lat="59.5594931301" lon="31.2670779414"><ele>239.02</ele><time>2026-09-02T20:15:42Z</time></trkpt><trkpt lat="59.5594931301" lon="31.2670779414"><ele>239.02</ele><time>2026-09-02T20:15:43Z</time></trkpt><trkpt lat="59.5594931301" lon="31.2670779414"><ele>239.02</ele><time>2026-09-02T20:15:44Z</time></trkpt><trkpt lat="59.5594931301" lon="31.2670779414"><ele>239.02</ele><time>2026-09-02T20:15:45Z</time></trkpt><trkpt lat="59.5594931301" lon="31.2670779414"><ele>239.02</ele><time>2026-09-02T20:15:46Z</time></trkpt><trkpt lat="59.5594931301" lon="31.2670779414"><ele>239.02</ele><time>2026-09-02T20:15:47Z</time></trkpt><trkpt lat="59.5594931301" lon="31.2670779414"><ele>239.02</ele><time>2026-09-02T20:15:48Z</time></trkpt><trkpt lat="59.5594931301" lon="31.2670779414"><ele>239.02</ele><time>2026-09-02T20:15:49Z</time></trkpt><trkpt lat="59.5594931301" lon="31.2670779414"><ele>239.02</ele><time>2026-09-02T20:15:50Z</time></trkpt><trkpt lat="59.5594931301" lon="31.2670779414"><ele>239.02</ele><time>2026-09-02T20:15:51Z</time></trkpt><trkpt lat="59.5594931301" lon="31.2670779414"><ele>239.02</ele><time>2026-09-02T20:15:52Z</time></trkpt><trkpt lat="59.5594931301" lon="31.2670779414"><ele>239.02</ele><time>2026-09-02T20:15:53Z</time></trkpt><trkpt lat="59.5594931301" lon="31.2670779414"><ele>239.02</ele><time>2026-09-02T20:15:54Z</time></trkpt><trkpt lat="59.5594931301" lon="31.2670779414"><ele>239.02</ele><time>2026-09-02T20:15:55Z</time></trkpt><trkpt lat="59.5594931301" lon="31.2670779414"><ele>239.02</ele><time>2026-09-02T20:15:56Z</time></trkpt><trkpt lat="59.5594931301" lon="31.2670779414"><ele>239.02</ele><time>2026-09-02T20:15:57Z</time></trkpt><trkpt lat="59.5594931301" lon="31.2670779414"><ele>239.02</ele><time>2026-09-02T20:15:58Z</time></trkpt><trkpt lat="59.5594931301" lon="31.2670779414"><ele>239.02</ele><time>2026-09-02T20:15:59Z</time></trkpt><trkpt lat="59.5594931301" lon="31.2670779414"><ele>239.02</ele><time>2026-09-02T20:16:00Z</time></trkpt><trkpt lat="59.5594931301" lon="31.2670779414"><ele>239.02</ele><time>2026-09-02T20:16:01Z</time></trkpt><trkpt lat="59.5594931301" lon="31.2670779414"><ele>239.02</ele><time>2026-09-02T20:16:02Z</time></trkpt><trkpt lat="59.5594931301" lon="31.2670779414"><ele>239.02</ele><time>2026-09-02T20:16:03Z</time></trkpt><trkpt lat="59.5594931301" lon="31.2670779414"><ele>239.02</ele><time>2026-09-02T20:16:04Z</time></trkpt><trkpt lat="59.5594931301" lon="31.2670779414"><ele>239.02</ele><time>2026-09-02T20:16:05Z</time></trkpt><trkpt lat="59.5594931301" lon="31.2670779414"><ele>239.02</ele><time>2026-09-02T20:16:06Z</time></trkpt><trkpt lat="59.5594931301" lon="31.2670779414"><ele>239.02</ele><time>2026-09-02T20:16:07Z</time></trkpt><trkpt lat="59.5594931301" lon="31.2670779414"><ele>239.02</ele><time>2026-09-02T20:16:08Z</time></trkpt><trkpt lat="59.5594931301" lon="31.2670779414"><ele>239.02</ele><time>2026-09-02T20:16:09Z</time></trkpt><trkpt lat="59.5594931301" lon="31.2670779414"><ele>239.02</ele><time>2026-09-02T20:16:10Z</time></trkpt><trkpt lat="59.5594931301" lon="31.2670779414"><ele>239.02</ele><time>2026-09-02T20:16:11Z</time></trkpt><trkpt lat="59.5594931301" lon="31.2670779414"><ele>239.02</ele><time>2026-09-02T20:16:12Z</time></trkpt><trkpt lat="59.5594931301" lon="31.2670779414"><ele>239.02</ele><time>2026-09-02T20:16:13Z</time></trkpt><trkpt lat="59.5594931301" lon="31.2670779414"><ele>239.02</ele><time>2026-09-02T20:16:14Z</time></trkpt><trkpt lat="59.5594931301" lon="31.2670779414"><ele>239.51</ele><time>2026-09-02T20:16:15Z</time></trkpt><trkpt lat="59.5594677329" lon="31.2670804560"><ele>239.51</ele><time>2026-09-02T20:16:16Z</time></trkpt><trkpt lat="59.5594622847" lon="31.2670804560"><ele>239.51</ele><time>2026-09-02T20:16:17Z</time></trkpt><trkpt lat="59.5594560821" lon="31.2670795340"><ele>239.51</ele><time>2026-09-02T20:16:18Z</time></trkpt><trkpt lat="59.5594507176" lon="31.2670758460"><ele>239.51</ele><time>2026-09-02T20:16:19Z</time></trkpt><trkpt lat="59.5594457723" lon="31.2670720741"><ele>239.51</ele><time>2026-09-02T20:16:20Z</time></trkpt><trkpt lat="59.5594428387" lon="31.2670678832"><ele>239.51</ele><time>2026-09-02T20:16:21Z</time></trkpt><trkpt lat="59.5594378933" lon="31.2670647819"><ele>239.02</ele><time>2026-09-02T20:16:22Z</time></trkpt><trkpt lat="59.5594327804" lon="31.2670598365"><ele>239.02</ele><time>2026-09-02T20:16:23Z</time></trkpt><trkpt lat="59.5594301820" lon="31.2670539692"><ele>239.02</ele><time>2026-09-02T20:16:24Z</time></trkpt><trkpt lat="59.5594291762" lon="31.2670494430"><ele>239.02</ele><time>2026-09-02T20:16:25Z</time></trkpt><trkpt lat="59.5594265778" lon="31.2670442462"><ele>239.02</ele><time>2026-09-02T20:16:26Z</time></trkpt><trkpt lat="59.5594260748" lon="31.2670384627"><ele>239.02</ele><time>2026-09-02T20:16:27Z</time></trkpt><trkpt lat="59.5594260748" lon="31.2670384627"><ele>239.02</ele><time>2026-09-02T20:16:28Z</time></trkpt><trkpt lat="59.5594260748" lon="31.2670384627"><ele>239.02</ele><time>2026-09-02T20:16:29Z</time></trkpt><trkpt lat="59.5594260748" lon="31.2670384627"><ele>239.02</ele><time>2026-09-02T20:16:30Z</time></trkpt><trkpt lat="59.5594260748" lon="31.2670384627"><ele>239.02</ele><time>2026-09-02T20:16:31Z</time></trkpt><trkpt lat="59.5594260748" lon="31.2670384627"><ele>239.02</ele><time>2026-09-02T20:16:32Z</time></trkpt><trkpt lat="59.5594260748" lon="31.2670384627"><ele>239.02</ele><time>2026-09-02T20:16:33Z</time></trkpt><trkpt lat="59.5594260748" lon="31.2670384627"><ele>239.02</ele><time>2026-09-02T20:16:34Z</time></trkpt><trkpt lat="59.5594260748" lon="31.2670384627"><ele>239.02</ele><time>2026-09-02T20:16:35Z</time></trkpt><trkpt lat="59.5594260748" lon="31.2670384627"><ele>239.02</ele><time>2026-09-02T20:16:36Z</time></trkpt><trkpt lat="59.5594260748" lon="31.2670384627"><ele>239.02</ele><time>2026-09-02T20:16:37Z</time></trkpt><trkpt lat="59.5594260748" lon="31.2670384627"><ele>239.02</ele><time>2026-09-02T20:16:38Z</time></trkpt><trkpt lat="59.5594260748" lon="31.2670384627"><ele>239.02</ele><time>2026-09-02T20:16:39Z</time></trkpt><trkpt lat="59.5594260748" lon="31.2670384627"><ele>239.02</ele><time>2026-09-02T20:16:40Z</time></trkpt><trkpt lat="59.5594260748" lon="31.2670384627"><ele>239.02</ele><time>2026-09-02T20:16:41Z</time></trkpt><trkpt lat="59.5594260748" lon="31.2670384627"><ele>239.02</ele><time>2026-09-02T20:16:42Z</time></trkpt><trkpt lat="59.5594260748" lon="31.2670384627"><ele>239.02</ele><time>2026-09-02T20:16:43Z</time></trkpt><trkpt lat="59.5594260748" lon="31.2670384627"><ele>239.02</ele><time>2026-09-02T20:16:44Z</time></trkpt><trkpt lat="59.5594260748" lon="31.2670384627"><ele>239.02</ele><time>2026-09-02T20:16:45Z</time></trkpt><trkpt lat="59.5594260748" lon="31.2670384627"><ele>239.02</ele><time>2026-09-02T20:16:46Z</time></trkpt><trkpt lat="59.5594260748" lon="31.2670384627"><ele>239.51</ele><time>2026-09-02T20:16:47Z</time></trkpt><trkpt lat="59.5594260748" lon="31.2670384627"><ele>239.51</ele><time>2026-09-02T20:16:48Z</time></trkpt><trkpt lat="59.5594260748" lon="31.2670384627"><ele>239.51</ele><time>2026-09-02T20:16:49Z</time></trkpt><trkpt lat="59.5594260748" lon="31.2670384627"><ele>239.51</ele><time>2026-09-02T20:16:50Z</time></trkpt><trkpt lat="59.5594260748" lon="31.2670384627"><ele>239.51</ele><time>2026-09-02T20:16:51Z</time></trkpt><trkpt lat="59.5594260748" lon="31.2670384627"><ele>239.51</ele><time>2026-09-02T20:16:52Z</time></trkpt><trkpt lat="59.5594260748" lon="31.2670384627"><ele>239.51</ele><time>2026-09-02T20:16:53Z</time></trkpt><trkpt lat="59.5594260748" lon="31.2670384627"><ele>239.02</ele><time>2026-09-02T20:16:54Z</time></trkpt><trkpt lat="59.5594260748" lon="31.2670384627"><ele>239.02</ele><time>2026-09-02T20:16:55Z</time></trkpt><trkpt lat="59.5594260748" lon="31.2670384627"><ele>239.02</ele><time>2026-09-02T20:16:56Z</time></trkpt><trkpt lat="59.5594260748" lon="31.2670384627"><ele>239.02</ele><time>2026-09-02T20:16:57Z</time></trkpt><trkpt lat="59.5594260748" lon="31.2670384627"><ele>239.02</ele><time>2026-09-02T20:16:58Z</time></trkpt><trkpt lat="59.5594260748" lon="31.2670384627"><ele>239.02</ele><time>2026-09-02T20:16:59Z</time></trkpt><trkpt lat="59.5594260748" lon="31.2670384627"><ele>239.02</ele><time>2026-09-02T20:17:00Z</time></trkpt><trkpt lat="59.5594260748" lon="31.2670384627"><ele>239.02</ele><time>2026-09-02T20:17:01Z</time></trkpt><trkpt lat="59.5594260748" lon="31.2670384627"><ele>239.02</ele><time>2026-09-02T20:17:02Z</time></trkpt><trkpt lat="59.5594260748" lon="31.2670384627"><ele>239.02</ele><time>2026-09-02T20:17:03Z</time></trkpt><trkpt lat="59.5594007615" lon="31.2669913564"><ele>239.02</ele><time>2026-09-02T20:17:04Z</time></trkpt><trkpt lat="59.5594024379" lon="31.2669853214"><ele>239.02</ele><time>2026-09-02T20:17:05Z</time></trkpt><trkpt lat="59.5594014321" lon="31.2669794541"><ele>239.02</ele><time>2026-09-02T20:17:06Z</time></trkpt><trkpt lat="59.5594025217" lon="31.2669728324"><ele>239.02</ele><time>2026-09-02T20:17:07Z</time></trkpt><trkpt lat="59.5594025217" lon="31.2669683900"><ele>239.02</ele><time>2026-09-02T20:17:08Z</time></trkpt><trkpt lat="59.5594025217" lon="31.2669683900"><ele>239.02</ele><time>2026-09-02T20:17:09Z</time></trkpt><trkpt lat="59.5594025217" lon="31.2669683900"><ele>239.02</ele><time>2026-09-02T20:17:10Z</time></trkpt><trkpt lat="59.5594025217" lon="31.2669683900"><ele>239.02</ele><time>2026-09-02T20:17:11Z</time></trkpt><trkpt lat="59.5594025217" lon="31.2669683900"><ele>239.02</ele><time>2026-09-02T20:17:12Z</time></trkpt><trkpt lat="59.5594025217" lon="31.2669683900"><ele>239.02</ele><time>2026-09-02T20:17:13Z</time></trkpt><trkpt lat="59.5594025217" lon="31.2669683900"><ele>239.02</ele><time>2026-09-02T20:17:14Z</time></trkpt><trkpt lat="59.5594025217" lon="31.2669683900"><ele>239.02</ele><time>2026-09-02T20:17:15Z</time></trkpt><trkpt lat="59.5594025217" lon="31.2669683900"><ele>239.02</ele><time>2026-09-02T20:17:16Z</time></trkpt><trkpt lat="59.5594025217" lon="31.2669683900"><ele>239.02</ele><time>2026-09-02T20:17:17Z</time></trkpt><trkpt lat="59.5594025217" lon="31.2669683900"><ele>239.02</ele><time>2026-09-02T20:17:18Z</time></trkpt><trkpt lat="59.5594025217" lon="31.2669683900"><ele>239.02</ele><time>2026-09-02T20:17:19Z</time></trkpt><trkpt lat="59.5594025217" lon="31.2669683900"><ele>239.02</ele><time>2026-09-02T20:17:20Z</time></trkpt><trkpt lat="59.5594025217" lon="31.2669683900"><ele>239.02</ele><time>2026-09-02T20:17:21Z</time></trkpt><trkpt lat="59.5594025217" lon="31.2669683900"><ele>239.02</ele><time>2026-09-02T20:17:22Z</time></trkpt><trkpt lat="59.5594025217" lon="31.2669683900"><ele>239.02</ele><time>2026-09-02T20:17:23Z</time></trkpt><trkpt lat="59.5594025217" lon="31.2669683900"><ele>239.02</ele><time>2026-09-02T20:17:24Z</time></trkpt><trkpt lat="59.5594025217" lon="31.2669683900"><ele>239.02</ele><time>2026-09-02T20:17:25Z</time></trkpt><trkpt lat="59.5594025217" lon="31.2669683900"><ele>239.02</ele><time>2026-09-02T20:17:26Z</time></trkpt><trkpt lat="59.5594025217" lon="31.2669683900"><ele>239.02</ele><time>2026-09-02T20:17:27Z</time></trkpt><trkpt lat="59.5594025217" lon="31.2669683900"><ele>239.02</ele><time>2026-09-02T20:17:28Z</time></trkpt><trkpt lat="59.5594025217" lon="31.2669683900"><ele>239.02</ele><time>2026-09-02T20:17:29Z</time></trkpt><trkpt lat="59.5594025217" lon="31.2669683900"><ele>239.51</ele><time>2026-09-02T20:17:30Z</time></trkpt><trkpt lat="59.5594025217" lon="31.2669683900"><ele>239.51</ele><time>2026-09-02T20:17:31Z</time></trkpt><trkpt lat="59.5594025217" lon="31.2669683900"><ele>239.51</ele><time>2026-09-02T20:17:32Z</time></trkpt><trkpt lat="59.5594025217" lon="31.2669683900"><ele>239.51</ele><time>2026-09-02T20:17:33Z</time></trkpt><trkpt lat="59.5594025217" lon="31.2669683900"><ele>239.51</ele><time>2026-09-02T20:17:34Z</time></trkpt><trkpt lat="59.5594025217" lon="31.2669683900"><ele>239.51</ele><time>2026-09-02T20:17:35Z</time></trkpt><trkpt lat="59.5594025217" lon="31.2669683900"><ele>239.51</ele><time>2026-09-02T20:17:36Z</time></trkpt><trkpt lat="59.5594025217" lon="31.2669683900"><ele>239.51</ele><time>2026-09-02T20:17:37Z</time></trkpt><trkpt lat="59.5594025217" lon="31.2669683900"><ele>239.51</ele><time>2026-09-02T20:17:38Z</time></trkpt><trkpt lat="59.5594025217" lon="31.2669683900"><ele>239.51</ele><time>2026-09-02T20:17:39Z</time></trkpt><trkpt lat="59.5594025217" lon="31.2669683900"><ele>239.51</ele><time>2026-09-02T20:17:40Z</time></trkpt><trkpt lat="59.5594025217" lon="31.2669683900"><ele>239.51</ele><time>2026-09-02T20:17:41Z</time></trkpt><trkpt lat="59.5594025217" lon="31.2669683900"><ele>239.51</ele><time>2026-09-02T20:17:42Z</time></trkpt><trkpt lat="59.5593586843" lon="31.2668565754"><ele>239.51</ele><time>2026-09-02T20:17:43Z</time></trkpt><trkpt lat="59.5593551639" lon="31.2668509595"><ele>239.51</ele><time>2026-09-02T20:17:44Z</time></trkpt><trkpt lat="59.5593534876" lon="31.2668501213"><ele>239.51</ele><time>2026-09-02T20:17:45Z</time></trkpt><trkpt lat="59.5593513921" lon="31.2668480258"><ele>239.51</ele><time>2026-09-02T20:17:46Z</time></trkpt><trkpt lat="59.5593468659" lon="31.2668443378"><ele>239.51</ele><time>2026-09-02T20:17:47Z</time></trkpt><trkpt lat="59.5593468659" lon="31.2668443378"><ele>239.51</ele><time>2026-09-02T20:17:48Z</time></trkpt><trkpt lat="59.5593468659" lon="31.2668443378"><ele>239.51</ele><time>2026-09-02T20:17:49Z</time></trkpt><trkpt lat="59.5593468659" lon="31.2668443378"><ele>239.51</ele><time>2026-09-02T20:17:50Z</time></trkpt><trkpt lat="59.5593468659" lon="31.2668443378"><ele>239.51</ele><time>2026-09-02T20:17:51Z</time></trkpt><trkpt lat="59.5593468659" lon="31.2668443378"><ele>239.51</ele><time>2026-09-02T20:17:52Z</time></trkpt><trkpt lat="59.5593468659" lon="31.2668443378"><ele>239.51</ele><time>2026-09-02T20:17:53Z</time></trkpt><trkpt lat="59.5593468659" lon="31.2668443378"><ele>239.51</ele><time>2026-09-02T20:17:54Z</time></trkpt><trkpt lat="59.5593468659" lon="31.2668443378"><ele>239.51</ele><time>2026-09-02T20:17:55Z</time></trkpt><trkpt lat="59.5593468659" lon="31.2668443378"><ele>239.51</ele><time>2026-09-02T20:17:56Z</time></trkpt><trkpt lat="59.5593468659" lon="31.2668443378"><ele>239.51</ele><time>2026-09-02T20:17:57Z</time></trkpt><trkpt lat="59.5593468659" lon="31.2668443378"><ele>239.51</ele><time>2026-09-02T20:17:58Z</time></trkpt><trkpt lat="59.5593468659" lon="31.2668443378"><ele>239.51</ele><time>2026-09-02T20:17:59Z</time></trkpt><trkpt lat="59.5593468659" lon="31.2668443378"><ele>239.51</ele><time>2026-09-02T20:18:00Z</time></trkpt><trkpt lat="59.5593468659" lon="31.2668443378"><ele>239.02</ele><time>2026-09-02T20:18:01Z</time></trkpt><trkpt lat="59.5593468659" lon="31.2668443378"><ele>239.02</ele><time>2026-09-02T20:18:02Z</time></trkpt><trkpt lat="59.5593468659" lon="31.2668443378"><ele>239.02</ele><time>2026-09-02T20:18:03Z</time></trkpt><trkpt lat="59.5593468659" lon="31.2668443378"><ele>239.02</ele><time>2026-09-02T20:18:04Z</time></trkpt><trkpt lat="59.5593468659" lon="31.2668443378"><ele>239.02</ele><time>2026-09-02T20:18:05Z</time></trkpt><trkpt lat="59.5593468659" lon="31.2668443378"><ele>239.02</ele><time>2026-09-02T20:18:06Z</time></trkpt><trkpt lat="59.5593468659" lon="31.2668443378"><ele>238.54</ele><time>2026-09-02T20:18:07Z</time></trkpt><trkpt lat="59.5593468659" lon="31.2668443378"><ele>238.54</ele><time>2026-09-02T20:18:08Z</time></trkpt><trkpt lat="59.5593468659" lon="31.2668443378"><ele>238.54</ele><time>2026-09-02T20:18:09Z</time></trkpt><trkpt lat="59.5593468659" lon="31.2668443378"><ele>238.54</ele><time>2026-09-02T20:18:10Z</time></trkpt><trkpt lat="59.5593468659" lon="31.2668443378"><ele>238.54</ele><time>2026-09-02T20:18:11Z</time></trkpt><trkpt lat="59.5593468659" lon="31.2668443378"><ele>238.54</ele><time>2026-09-02T20:18:12Z</time></trkpt><trkpt lat="59.5593468659" lon="31.2668443378"><ele>238.54</ele><time>2026-09-02T20:18:13Z</time></trkpt><trkpt lat="59.5593468659" lon="31.2668443378"><ele>238.54</ele><time>2026-09-02T20:18:14Z</time></trkpt><trkpt lat="59.5592714287" lon="31.2667824794"><ele>238.54</ele><time>2026-09-02T20:18:15Z</time></trkpt><trkpt lat="59.5592736918" lon="31.2667808868"><ele>238.54</ele><time>2026-09-02T20:18:16Z</time></trkpt><trkpt lat="59.5592694171" lon="31.2667794619"><ele>238.54</ele><time>2026-09-02T20:18:17Z</time></trkpt><trkpt lat="59.5592691656" lon="31.2667782884"><ele>238.54</ele><time>2026-09-02T20:18:18Z</time></trkpt><trkpt lat="59.5592691656" lon="31.2667782884"><ele>238.54</ele><time>2026-09-02T20:18:19Z</time></trkpt><trkpt lat="59.5592691656" lon="31.2667782884"><ele>238.54</ele><time>2026-09-02T20:18:20Z</time></trkpt><trkpt lat="59.5592691656" lon="31.2667782884"><ele>238.54</ele><time>2026-09-02T20:18:21Z</time></trkpt><trkpt lat="59.5592691656" lon="31.2667782884"><ele>238.54</ele><time>2026-09-02T20:18:22Z</time></trkpt><trkpt lat="59.5592691656" lon="31.2667782884"><ele>238.06</ele><time>2026-09-02T20:18:23Z</time></trkpt><trkpt lat="59.5592691656" lon="31.2667782884"><ele>238.06</ele><time>2026-09-02T20:18:24Z</time></trkpt><trkpt lat="59.5592691656" lon="31.2667782884"><ele>238.06</ele><time>2026-09-02T20:18:25Z</time></trkpt><trkpt lat="59.5592691656" lon="31.2667782884"><ele>238.06</ele><time>2026-09-02T20:18:26Z</time></trkpt><trkpt lat="59.5592691656" lon="31.2667782884"><ele>238.06</ele><time>2026-09-02T20:18:27Z</time></trkpt><trkpt lat="59.5592691656" lon="31.2667782884"><ele>238.54</ele><time>2026-09-02T20:18:28Z</time></trkpt><trkpt lat="59.5592691656" lon="31.2667782884"><ele>238.54</ele><time>2026-09-02T20:18:29Z</time></trkpt><trkpt lat="59.5592691656" lon="31.2667782884"><ele>238.54</ele><time>2026-09-02T20:18:30Z</time></trkpt><trkpt lat="59.5592691656" lon="31.2667782884"><ele>238.54</ele><time>2026-09-02T20:18:31Z</time></trkpt><trkpt lat="59.5592691656" lon="31.2667782884"><ele>238.54</ele><time>2026-09-02T20:18:32Z</time></trkpt><trkpt lat="59.5592691656" lon="31.2667782884"><ele>238.54</ele><time>2026-09-02T20:18:33Z</time></trkpt><trkpt lat="59.5592691656" lon="31.2667782884"><ele>239.02</ele><time>2026-09-02T20:18:34Z</time></trkpt><trkpt lat="59.5592691656" lon="31.2667782884"><ele>239.02</ele><time>2026-09-02T20:18:35Z</time></trkpt><trkpt lat="59.5592691656" lon="31.2667782884"><ele>239.02</ele><time>2026-09-02T20:18:36Z</time></trkpt><trkpt lat="59.5592691656" lon="31.2667782884"><ele>239.02</ele><time>2026-09-02T20:18:37Z</time></trkpt><trkpt lat="59.5592691656" lon="31.2667782884"><ele>239.02</ele><time>2026-09-02T20:18:38Z</time></trkpt><trkpt lat="59.5592691656" lon="31.2667782884"><ele>239.02</ele><time>2026-09-02T20:18:39Z</time></trkpt><trkpt lat="59.5592691656" lon="31.2667782884"><ele>239.02</ele><time>2026-09-02T20:18:40Z</time></trkpt><trkpt lat="59.5592691656" lon="31.2667782884"><ele>239.02</ele><time>2026-09-02T20:18:41Z</time></trkpt><trkpt lat="59.5592691656" lon="31.2667782884"><ele>239.02</ele><time>2026-09-02T20:18:42Z</time></trkpt><trkpt lat="59.5592691656" lon="31.2667782884"><ele>239.02</ele><time>2026-09-02T20:18:43Z</time></trkpt><trkpt lat="59.5592691656" lon="31.2667782884"><ele>239.02</ele><time>2026-09-02T20:18:44Z</time></trkpt><trkpt lat="59.5592691656" lon="31.2667782884"><ele>239.02</ele><time>2026-09-02T20:18:45Z</time></trkpt><trkpt lat="59.5592691656" lon="31.2667782884"><ele>239.02</ele><time>2026-09-02T20:18:46Z</time></trkpt><trkpt lat="59.5592691656" lon="31.2667782884"><ele>239.02</ele><time>2026-09-02T20:18:47Z</time></trkpt><trkpt lat="59.5592691656" lon="31.2667782884"><ele>239.02</ele><time>2026-09-02T20:18:48Z</time></trkpt><trkpt lat="59.5592691656" lon="31.2667782884"><ele>239.02</ele><time>2026-09-02T20:18:49Z</time></trkpt><trkpt lat="59.5592691656" lon="31.2667782884"><ele>239.02</ele><time>2026-09-02T20:18:50Z</time></trkpt><trkpt lat="59.5592691656" lon="31.2667782884"><ele>239.02</ele><time>2026-09-02T20:18:51Z</time></trkpt><trkpt lat="59.5592691656" lon="31.2667782884"><ele>239.02</ele><time>2026-09-02T20:18:52Z</time></trkpt><trkpt lat="59.5592691656" lon="31.2667782884"><ele>239.02</ele><time>2026-09-02T20:18:53Z</time></trkpt><trkpt lat="59.5592691656" lon="31.2667782884"><ele>239.02</ele><time>2026-09-02T20:18:54Z</time></trkpt><trkpt lat="59.5592691656" lon="31.2667782884"><ele>239.02</ele><time>2026-09-02T20:18:55Z</time></trkpt><trkpt lat="59.5592691656" lon="31.2667782884"><ele>239.02</ele><time>2026-09-02T20:18:56Z</time></trkpt><trkpt lat="59.5592691656" lon="31.2667782884"><ele>239.02</ele><time>2026-09-02T20:18:57Z</time></trkpt><trkpt lat="59.5592691656" lon="31.2667782884"><ele>239.02</ele><time>2026-09-02T20:18:58Z</time></trkpt><trkpt lat="59.5592691656" lon="31.2667782884"><ele>239.02</ele><time>2026-09-02T20:18:59Z</time></trkpt><trkpt lat="59.5592691656" lon="31.2667782884"><ele>239.02</ele><time>2026-09-02T20:19:00Z</time></trkpt><trkpt lat="59.5592691656" lon="31.2667782884"><ele>239.02</ele><time>2026-09-02T20:19:01Z</time></trkpt><trkpt lat="59.5592691656" lon="31.2667782884"><ele>239.02</ele><time>2026-09-02T20:19:02Z</time></trkpt><trkpt lat="59.5592691656" lon="31.2667782884"><ele>239.02</ele><time>2026-09-02T20:19:03Z</time></trkpt><trkpt lat="59.5592691656" lon="31.2667782884"><ele>239.02</ele><time>2026-09-02T20:19:04Z</time></trkpt><trkpt lat="59.5592618734" lon="31.2666116562"><ele>239.02</ele><time>2026-09-02T20:19:05Z</time></trkpt><trkpt lat="59.5592647232" lon="31.2666009273"><ele>239.02</ele><time>2026-09-02T20:19:06Z</time></trkpt><trkpt lat="59.5592664834" lon="31.2665922940"><ele>239.02</ele><time>2026-09-02T20:19:07Z</time></trkpt><trkpt lat="59.5592688303" lon="31.2665873487"><ele>239.02</ele><time>2026-09-02T20:19:08Z</time></trkpt><trkpt lat="59.5592713449" lon="31.2665790506"><ele>239.02</ele><time>2026-09-02T20:19:09Z</time></trkpt><trkpt lat="59.5592741948" lon="31.2665716745"><ele>239.02</ele><time>2026-09-02T20:19:10Z</time></trkpt><trkpt lat="59.5592741948" lon="31.2665716745"><ele>239.02</ele><time>2026-09-02T20:19:11Z</time></trkpt><trkpt lat="59.5592741948" lon="31.2665716745"><ele>239.02</ele><time>2026-09-02T20:19:12Z</time></trkpt><trkpt lat="59.5592741948" lon="31.2665716745"><ele>239.02</ele><time>2026-09-02T20:19:13Z</time></trkpt><trkpt lat="59.5592741948" lon="31.2665716745"><ele>239.02</ele><time>2026-09-02T20:19:14Z</time></trkpt><trkpt lat="59.5592741948" lon="31.2665716745"><ele>239.02</ele><time>2026-09-02T20:19:15Z</time></trkpt><trkpt lat="59.5592741948" lon="31.2665716745"><ele>239.02</ele><time>2026-09-02T20:19:16Z</time></trkpt><trkpt lat="59.5592741948" lon="31.2665716745"><ele>239.02</ele><time>2026-09-02T20:19:17Z</time></trkpt><trkpt lat="59.5592741948" lon="31.2665716745"><ele>239.02</ele><time>2026-09-02T20:19:18Z</time></trkpt><trkpt lat="59.5592741948" lon="31.2665716745"><ele>238.54</ele><time>2026-09-02T20:19:19Z</time></trkpt><trkpt lat="59.5592741948" lon="31.2665716745"><ele>238.54</ele><time>2026-09-02T20:19:20Z</time></trkpt><trkpt lat="59.5593002625" lon="31.2665361352"><ele>238.54</ele><time>2026-09-02T20:19:21Z</time></trkpt><trkpt lat="59.5593033638" lon="31.2665277533"><ele>238.54</ele><time>2026-09-02T20:19:22Z</time></trkpt><trkpt lat="59.5593050402" lon="31.2665225565"><ele>238.54</ele><time>2026-09-02T20:19:23Z</time></trkpt><trkpt lat="59.5593062975" lon="31.2665213831"><ele>238.06</ele><time>2026-09-02T20:19:24Z</time></trkpt><trkpt lat="59.5593063813" lon="31.2665202934"><ele>238.06</ele><time>2026-09-02T20:19:25Z</time></trkpt><trkpt lat="59.5593058784" lon="31.2665206287"><ele>238.06</ele><time>2026-09-02T20:19:26Z</time></trkpt><trkpt lat="59.5593058784" lon="31.2665206287"><ele>237.58</ele><time>2026-09-02T20:19:27Z</time></trkpt><trkpt lat="59.5593058784" lon="31.2665206287"><ele>237.58</ele><time>2026-09-02T20:19:28Z</time></trkpt><trkpt lat="59.5593058784" lon="31.2665206287"><ele>237.58</ele><time>2026-09-02T20:19:29Z</time></trkpt><trkpt lat="59.5593058784" lon="31.2665206287"><ele>237.58</ele><time>2026-09-02T20:19:30Z</time></trkpt><trkpt lat="59.5593058784" lon="31.2665206287"><ele>237.58</ele><time>2026-09-02T20:19:31Z</time></trkpt><trkpt lat="59.5593058784" lon="31.2665206287"><ele>237.58</ele><time>2026-09-02T20:19:32Z</time></trkpt><trkpt lat="59.5593058784" lon="31.2665206287"><ele>237.58</ele><time>2026-09-02T20:19:33Z</time></trkpt><trkpt lat="59.5593058784" lon="31.2665206287"><ele>237.58</ele><time>2026-09-02T20:19:34Z</time></trkpt><trkpt lat="59.5593058784" lon="31.2665206287"><ele>237.58</ele><time>2026-09-02T20:19:35Z</time></trkpt><trkpt lat="59.5593058784" lon="31.2665206287"><ele>237.58</ele><time>2026-09-02T20:19:36Z</time></trkpt><trkpt lat="59.5593058784" lon="31.2665206287"><ele>237.58</ele><time>2026-09-02T20:19:37Z</time></trkpt><trkpt lat="59.5593058784" lon="31.2665206287"><ele>237.58</ele><time>2026-09-02T20:19:38Z</time></trkpt><trkpt lat="59.5593058784" lon="31.2665206287"><ele>237.58</ele><time>2026-09-02T20:19:39Z</time></trkpt><trkpt lat="59.5593058784" lon="31.2665206287"><ele>237.58</ele><time>2026-09-02T20:19:40Z</time></trkpt><trkpt lat="59.5593058784" lon="31.2665206287"><ele>237.58</ele><time>2026-09-02T20:19:41Z</time></trkpt><trkpt lat="59.5593058784" lon="31.2665206287"><ele>237.58</ele><time>2026-09-02T20:19:42Z</time></trkpt><trkpt lat="59.5593058784" lon="31.2665206287"><ele>237.58</ele><time>2026-09-02T20:19:43Z</time></trkpt><trkpt lat="59.5593058784" lon="31.2665206287"><ele>237.58</ele><time>2026-09-02T20:19:44Z</time></trkpt><trkpt lat="59.5593058784" lon="31.2665206287"><ele>237.58</ele><time>2026-09-02T20:19:45Z</time></trkpt><trkpt lat="59.5593058784" lon="31.2665206287"><ele>237.58</ele><time>2026-09-02T20:19:46Z</time></trkpt><trkpt lat="59.5593058784" lon="31.2665206287"><ele>237.58</ele><time>2026-09-02T20:19:47Z</time></trkpt><trkpt lat="59.5593058784" lon="31.2665206287"><ele>237.58</ele><time>2026-09-02T20:19:48Z</time></trkpt><trkpt lat="59.5593058784" lon="31.2665206287"><ele>237.58</ele><time>2026-09-02T20:19:49Z</time></trkpt><trkpt lat="59.5593058784" lon="31.2665206287"><ele>237.58</ele><time>2026-09-02T20:19:50Z</time></trkpt><trkpt lat="59.5593058784" lon="31.2665206287"><ele>237.58</ele><time>2026-09-02T20:19:51Z</time></trkpt><trkpt lat="59.5593058784" lon="31.2665206287"><ele>237.58</ele><time>2026-09-02T20:19:52Z</time></trkpt><trkpt lat="59.5593058784" lon="31.2665206287"><ele>237.58</ele><time>2026-09-02T20:19:53Z</time></trkpt><trkpt lat="59.5593058784" lon="31.2665206287"><ele>237.58</ele><time>2026-09-02T20:19:54Z</time></trkpt><trkpt lat="59.5593058784" lon="31.2665206287"><ele>237.58</ele><time>2026-09-02T20:19:55Z</time></trkpt><trkpt lat="59.5593058784" lon="31.2665206287"><ele>237.58</ele><time>2026-09-02T20:19:56Z</time></trkpt><trkpt lat="59.5593058784" lon="31.2665206287"><ele>237.58</ele><time>2026-09-02T20:19:57Z</time></trkpt><trkpt lat="59.5593058784" lon="31.2665206287"><ele>237.58</ele><time>2026-09-02T20:19:58Z</time></trkpt><trkpt lat="59.5593058784" lon="31.2665206287"><ele>237.58</ele><time>2026-09-02T20:19:59Z</time></trkpt><trkpt lat="59.5593058784" lon="31.2665206287"><ele>237.58</ele><time>2026-09-02T20:20:00Z</time></trkpt><trkpt lat="59.5593058784" lon="31.2665206287"><ele>237.58</ele><time>2026-09-02T20:20:01Z</time></trkpt><trkpt lat="59.5593058784" lon="31.2665206287"><ele>237.58</ele><time>2026-09-02T20:20:02Z</time></trkpt><trkpt lat="59.5593058784" lon="31.2665206287"><ele>237.58</ele><time>2026-09-02T20:20:03Z</time></trkpt><trkpt lat="59.5593058784" lon="31.2665206287"><ele>237.58</ele><time>2026-09-02T20:20:04Z</time></trkpt><trkpt lat="59.5593058784" lon="31.2665206287"><ele>237.58</ele><time>2026-09-02T20:20:05Z</time></trkpt><trkpt lat="59.5593058784" lon="31.2665206287"><ele>238.06</ele><time>2026-09-02T20:20:06Z</time></trkpt><trkpt lat="59.5593058784" lon="31.2665206287"><ele>238.06</ele><time>2026-09-02T20:20:07Z</time></trkpt><trkpt lat="59.5593058784" lon="31.2665206287"><ele>238.54</ele><time>2026-09-02T20:20:08Z</time></trkpt><trkpt lat="59.5593058784" lon="31.2665206287"><ele>238.54</ele><time>2026-09-02T20:20:09Z</time></trkpt><trkpt lat="59.5593058784" lon="31.2665206287"><ele>238.54</ele><time>2026-09-02T20:20:10Z</time></trkpt><trkpt lat="59.5593058784" lon="31.2665206287"><ele>239.02</ele><time>2026-09-02T20:20:11Z</time></trkpt><trkpt lat="59.5593058784" lon="31.2665206287"><ele>239.02</ele><time>2026-09-02T20:20:12Z</time></trkpt><trkpt lat="59.5593058784" lon="31.2665206287"><ele>239.02</ele><time>2026-09-02T20:20:13Z</time></trkpt><trkpt lat="59.5593058784" lon="31.2665206287"><ele>239.51</ele><time>2026-09-02T20:20:14Z</time></trkpt><trkpt lat="59.5593058784" lon="31.2665206287"><ele>239.99</ele><time>2026-09-02T20:20:15Z</time></trkpt><trkpt lat="59.5593058784" lon="31.2665206287"><ele>239.99</ele><time>2026-09-02T20:20:16Z</time></trkpt><trkpt lat="59.5593058784" lon="31.2665206287"><ele>239.99</ele><time>2026-09-02T20:20:17Z</time></trkpt><trkpt lat="59.5593058784" lon="31.2665206287"><ele>239.99</ele><time>2026-09-02T20:20:18Z</time></trkpt><trkpt lat="59.5593058784" lon="31.2665206287"><ele>239.99</ele><time>2026-09-02T20:20:19Z</time></trkpt><trkpt lat="59.5593058784" lon="31.2665206287"><ele>239.99</ele><time>2026-09-02T20:20:20Z</time></trkpt><trkpt lat="59.5593058784" lon="31.2665206287"><ele>239.99</ele><time>2026-09-02T20:20:21Z</time></trkpt><trkpt lat="59.5593058784" lon="31.2665206287"><ele>240.47</ele><time>2026-09-02T20:20:22Z</time></trkpt><trkpt lat="59.5593058784" lon="31.2665206287"><ele>240.47</ele><time>2026-09-02T20:20:23Z</time></trkpt><trkpt lat="59.5593058784" lon="31.2665206287"><ele>240.47</ele><time>2026-09-02T20:20:24Z</time></trkpt><trkpt lat="59.5593058784" lon="31.2665206287"><ele>240.47</ele><time>2026-09-02T20:20:25Z</time></trkpt><trkpt lat="59.5593058784" lon="31.2665206287"><ele>240.47</ele><time>2026-09-02T20:20:26Z</time></trkpt><trkpt lat="59.5593058784" lon="31.2665206287"><ele>240.47</ele><time>2026-09-02T20:20:27Z</time></trkpt><trkpt lat="59.5593058784" lon="31.2665206287"><ele>240.47</ele><time>2026-09-02T20:20:28Z</time></trkpt><trkpt lat="59.5593058784" lon="31.2665206287"><ele>240.47</ele><time>2026-09-02T20:20:29Z</time></trkpt><trkpt lat="59.5593058784" lon="31.2665206287"><ele>240.47</ele><time>2026-09-02T20:20:30Z</time></trkpt><trkpt lat="59.5593058784" lon="31.2665206287"><ele>240.47</ele><time>2026-09-02T20:20:31Z</time></trkpt><trkpt lat="59.5593058784" lon="31.2665206287"><ele>240.47</ele><time>2026-09-02T20:20:32Z</time></trkpt><trkpt lat="59.5593058784" lon="31.2665206287"><ele>240.47</ele><time>2026-09-02T20:20:33Z</time></trkpt><trkpt lat="59.5593058784" lon="31.2665206287"><ele>240.47</ele><time>2026-09-02T20:20:34Z</time></trkpt><trkpt lat="59.5593058784" lon="31.2665206287"><ele>240.47</ele><time>2026-09-02T20:20:35Z</time></trkpt><trkpt lat="59.5593058784" lon="31.2665206287"><ele>240.47</ele><time>2026-09-02T20:20:36Z</time></trkpt><trkpt lat="59.5593556669" lon="31.2663661502"><ele>240.47</ele><time>2026-09-02T20:20:37Z</time></trkpt><trkpt lat="59.5593584329" lon="31.2663672399"><ele>240.47</ele><time>2026-09-02T20:20:38Z</time></trkpt><trkpt lat="59.5593624562" lon="31.2663712632"><ele>240.47</ele><time>2026-09-02T20:20:39Z</time></trkpt><trkpt lat="59.5593669824" lon="31.2663774658"><ele>240.47</ele><time>2026-09-02T20:20:40Z</time></trkpt><trkpt lat="59.5593704190" lon="31.2663837522"><ele>239.99</ele><time>2026-09-02T20:20:41Z</time></trkpt><trkpt lat="59.5593696646" lon="31.2663932238"><ele>239.99</ele><time>2026-09-02T20:20:42Z</time></trkpt><trkpt lat="59.5593707543" lon="31.2664002646"><ele>239.99</ele><time>2026-09-02T20:20:43Z</time></trkpt><trkpt lat="59.5593714248" lon="31.2664057966"><ele>239.99</ele><time>2026-09-02T20:20:44Z</time></trkpt><trkpt lat="59.5593704190" lon="31.2664148491"><ele>239.99</ele><time>2026-09-02T20:20:45Z</time></trkpt><trkpt lat="59.5593704190" lon="31.2664148491"><ele>239.99</ele><time>2026-09-02T20:20:46Z</time></trkpt><trkpt lat="59.5593704190" lon="31.2664148491"><ele>239.99</ele><time>2026-09-02T20:20:47Z</time></trkpt><trkpt lat="59.5593704190" lon="31.2664148491"><ele>239.99</ele><time>2026-09-02T20:20:48Z</time></trkpt><trkpt lat="59.5593704190" lon="31.2664148491"><ele>239.99</ele><time>2026-09-02T20:20:49Z</time></trkpt><trkpt lat="59.5593704190" lon="31.2664148491"><ele>239.99</ele><time>2026-09-02T20:20:50Z</time></trkpt><trkpt lat="59.5593857579" lon="31.2664572615"><ele>239.99</ele><time>2026-09-02T20:20:51Z</time></trkpt><trkpt lat="59.5593919605" lon="31.2664521486"><ele>239.99</ele><time>2026-09-02T20:20:52Z</time></trkpt><trkpt lat="59.5593953971" lon="31.2664553337"><ele>239.99</ele><time>2026-09-02T20:20:53Z</time></trkpt><trkpt lat="59.5593994204" lon="31.2664605305"><ele>239.99</ele><time>2026-09-02T20:20:54Z</time></trkpt><trkpt lat="59.5594024379" lon="31.2664638832"><ele>239.99</ele><time>2026-09-02T20:20:55Z</time></trkpt><trkpt lat="59.5594075508" lon="31.2664603628"><ele>239.99</ele><time>2026-09-02T20:20:56Z</time></trkpt><trkpt lat="59.5594069641" lon="31.2664636318"><ele>239.99</ele><time>2026-09-02T20:20:57Z</time></trkpt><trkpt lat="59.5594104845" lon="31.2664619554"><ele>239.99</ele><time>2026-09-02T20:20:58Z</time></trkpt><trkpt lat="59.5594104845" lon="31.2664619554"><ele>239.99</ele><time>2026-09-02T20:20:59Z</time></trkpt><trkpt lat="59.5594104845" lon="31.2664619554"><ele>239.99</ele><time>2026-09-02T20:21:00Z</time></trkpt><trkpt lat="59.5594104845" lon="31.2664619554"><ele>239.99</ele><time>2026-09-02T20:21:01Z</time></trkpt><trkpt lat="59.5594104845" lon="31.2664619554"><ele>239.99</ele><time>2026-09-02T20:21:02Z</time></trkpt><trkpt lat="59.5594104845" lon="31.2664619554"><ele>239.99</ele><time>2026-09-02T20:21:03Z</time></trkpt><trkpt lat="59.5594104845" lon="31.2664619554"><ele>239.99</ele><time>2026-09-02T20:21:04Z</time></trkpt><trkpt lat="59.5594104845" lon="31.2664619554"><ele>239.99</ele><time>2026-09-02T20:21:05Z</time></trkpt><trkpt lat="59.5594104845" lon="31.2664619554"><ele>239.99</ele><time>2026-09-02T20:21:06Z</time></trkpt><trkpt lat="59.5594104845" lon="31.2664619554"><ele>239.99</ele><time>2026-09-02T20:21:07Z</time></trkpt><trkpt lat="59.5594104845" lon="31.2664619554"><ele>239.99</ele><time>2026-09-02T20:21:08Z</time></trkpt><trkpt lat="59.5594104845" lon="31.2664619554"><ele>239.99</ele><time>2026-09-02T20:21:09Z</time></trkpt><trkpt lat="59.5594104845" lon="31.2664619554"><ele>239.99</ele><time>2026-09-02T20:21:10Z</time></trkpt><trkpt lat="59.5594104845" lon="31.2664619554"><ele>239.99</ele><time>2026-09-02T20:21:11Z</time></trkpt><trkpt lat="59.5594104845" lon="31.2664619554"><ele>239.99</ele><time>2026-09-02T20:21:12Z</time></trkpt><trkpt lat="59.5594104845" lon="31.2664619554"><ele>239.99</ele><time>2026-09-02T20:21:13Z</time></trkpt><trkpt lat="59.5594104845" lon="31.2664619554"><ele>239.99</ele><time>2026-09-02T20:21:14Z</time></trkpt><trkpt lat="59.5594104845" lon="31.2664619554"><ele>239.99</ele><time>2026-09-02T20:21:15Z</time></trkpt><trkpt lat="59.5594104845" lon="31.2664619554"><ele>239.99</ele><time>2026-09-02T20:21:16Z</time></trkpt><trkpt lat="59.5594104845" lon="31.2664619554"><ele>239.99</ele><time>2026-09-02T20:21:17Z</time></trkpt><trkpt lat="59.5594104845" lon="31.2664619554"><ele>239.99</ele><time>2026-09-02T20:21:18Z</time></trkpt><trkpt lat="59.5594104845" lon="31.2664619554"><ele>239.99</ele><time>2026-09-02T20:21:19Z</time></trkpt><trkpt lat="59.5594104845" lon="31.2664619554"><ele>239.99</ele><time>2026-09-02T20:21:20Z</time></trkpt><trkpt lat="59.5594104845" lon="31.2664619554"><ele>239.99</ele><time>2026-09-02T20:21:21Z</time></trkpt><trkpt lat="59.5594104845" lon="31.2664619554"><ele>239.51</ele><time>2026-09-02T20:21:22Z</time></trkpt><trkpt lat="59.5594104845" lon="31.2664619554"><ele>239.51</ele><time>2026-09-02T20:21:23Z</time></trkpt><trkpt lat="59.5594104845" lon="31.2664619554"><ele>239.51</ele><time>2026-09-02T20:21:24Z</time></trkpt><trkpt lat="59.5594104845" lon="31.2664619554"><ele>239.51</ele><time>2026-09-02T20:21:25Z</time></trkpt><trkpt lat="59.5594104845" lon="31.2664619554"><ele>239.51</ele><time>2026-09-02T20:21:26Z</time></trkpt><trkpt lat="59.5594104845" lon="31.2664619554"><ele>239.51</ele><time>2026-09-02T20:21:27Z</time></trkpt><trkpt lat="59.5594104845" lon="31.2664619554"><ele>239.51</ele><time>2026-09-02T20:21:28Z</time></trkpt><trkpt lat="59.5594104845" lon="31.2664619554"><ele>239.02</ele><time>2026-09-02T20:21:29Z</time></trkpt><trkpt lat="59.5594104845" lon="31.2664619554"><ele>239.02</ele><time>2026-09-02T20:21:30Z</time></trkpt><trkpt lat="59.5594104845" lon="31.2664619554"><ele>238.54</ele><time>2026-09-02T20:21:31Z</time></trkpt><trkpt lat="59.5594104845" lon="31.2664619554"><ele>238.54</ele><time>2026-09-02T20:21:32Z</time></trkpt><trkpt lat="59.5595008414" lon="31.2664386537"><ele>238.06</ele><time>2026-09-02T20:21:33Z</time></trkpt><trkpt lat="59.5595026854" lon="31.2664375640"><ele>238.06</ele><time>2026-09-02T20:21:34Z</time></trkpt><trkpt lat="59.5595041942" lon="31.2664364744"><ele>238.06</ele><time>2026-09-02T20:21:35Z</time></trkpt><trkpt lat="59.5595067926" lon="31.2664341275"><ele>238.06</ele><time>2026-09-02T20:21:36Z</time></trkpt><trkpt lat="59.5595067926" lon="31.2664341275"><ele>237.58</ele><time>2026-09-02T20:21:37Z</time></trkpt><trkpt lat="59.5595067926" lon="31.2664341275"><ele>237.58</ele><time>2026-09-02T20:21:38Z</time></trkpt><trkpt lat="59.5595067926" lon="31.2664341275"><ele>237.58</ele><time>2026-09-02T20:21:39Z</time></trkpt><trkpt lat="59.5595067926" lon="31.2664341275"><ele>237.58</ele><time>2026-09-02T20:21:40Z</time></trkpt><trkpt lat="59.5595067926" lon="31.2664341275"><ele>237.58</ele><time>2026-09-02T20:21:41Z</time></trkpt><trkpt lat="59.5595067926" lon="31.2664341275"><ele>237.58</ele><time>2026-09-02T20:21:42Z</time></trkpt><trkpt lat="59.5595067926" lon="31.2664341275"><ele>237.58</ele><time>2026-09-02T20:21:43Z</time></trkpt><trkpt lat="59.5595270768" lon="31.2664053775"><ele>237.58</ele><time>2026-09-02T20:21:44Z</time></trkpt><trkpt lat="59.5595310163" lon="31.2664023601"><ele>237.58</ele><time>2026-09-02T20:21:45Z</time></trkpt><trkpt lat="59.5595342852" lon="31.2663927209"><ele>237.58</ele><time>2026-09-02T20:21:46Z</time></trkpt><trkpt lat="59.5595368836" lon="31.2663872726"><ele>237.58</ele><time>2026-09-02T20:21:47Z</time></trkpt><trkpt lat="59.5595399849" lon="31.2663781364"><ele>237.58</ele><time>2026-09-02T20:21:48Z</time></trkpt><trkpt lat="59.5595421642" lon="31.2663711794"><ele>237.58</ele><time>2026-09-02T20:21:49Z</time></trkpt><trkpt lat="59.5595451817" lon="31.2663630489"><ele>237.58</ele><time>2026-09-02T20:21:50Z</time></trkpt><trkpt lat="59.5595470257" lon="31.2663574331"><ele>237.58</ele><time>2026-09-02T20:21:51Z</time></trkpt><trkpt lat="59.5595470257" lon="31.2663574331"><ele>237.58</ele><time>2026-09-02T20:21:52Z</time></trkpt><trkpt lat="59.5595470257" lon="31.2663574331"><ele>237.58</ele><time>2026-09-02T20:21:53Z</time></trkpt><trkpt lat="59.5595470257" lon="31.2663574331"><ele>237.58</ele><time>2026-09-02T20:21:54Z</time></trkpt><trkpt lat="59.5595470257" lon="31.2663574331"><ele>237.58</ele><time>2026-09-02T20:21:55Z</time></trkpt><trkpt lat="59.5595470257" lon="31.2663574331"><ele>238.06</ele><time>2026-09-02T20:21:56Z</time></trkpt><trkpt lat="59.5595470257" lon="31.2663574331"><ele>238.06</ele><time>2026-09-02T20:21:57Z</time></trkpt><trkpt lat="59.5595470257" lon="31.2663574331"><ele>238.06</ele><time>2026-09-02T20:21:58Z</time></trkpt><trkpt lat="59.5595470257" lon="31.2663574331"><ele>238.06</ele><time>2026-09-02T20:21:59Z</time></trkpt><trkpt lat="59.5595470257" lon="31.2663574331"><ele>238.06</ele><time>2026-09-02T20:22:00Z</time></trkpt><trkpt lat="59.5595470257" lon="31.2663574331"><ele>238.54</ele><time>2026-09-02T20:22:01Z</time></trkpt><trkpt lat="59.5595470257" lon="31.2663574331"><ele>238.54</ele><time>2026-09-02T20:22:02Z</time></trkpt><trkpt lat="59.5595470257" lon="31.2663574331"><ele>239.02</ele><time>2026-09-02T20:22:03Z</time></trkpt><trkpt lat="59.5595470257" lon="31.2663574331"><ele>239.02</ele><time>2026-09-02T20:22:04Z</time></trkpt><trkpt lat="59.5595470257" lon="31.2663574331"><ele>239.02</ele><time>2026-09-02T20:22:05Z</time></trkpt><trkpt lat="59.5595470257" lon="31.2663574331"><ele>239.02</ele><time>2026-09-02T20:22:06Z</time></trkpt><trkpt lat="59.5595470257" lon="31.2663574331"><ele>239.02</ele><time>2026-09-02T20:22:07Z</time></trkpt><trkpt lat="59.5595470257" lon="31.2663574331"><ele>239.02</ele><time>2026-09-02T20:22:08Z</time></trkpt><trkpt lat="59.5595470257" lon="31.2663574331"><ele>239.02</ele><time>2026-09-02T20:22:09Z</time></trkpt><trkpt lat="59.5595470257" lon="31.2663574331"><ele>239.02</ele><time>2026-09-02T20:22:10Z</time></trkpt><trkpt lat="59.5595470257" lon="31.2663574331"><ele>239.02</ele><time>2026-09-02T20:22:11Z</time></trkpt><trkpt lat="59.5595470257" lon="31.2663574331"><ele>239.02</ele><time>2026-09-02T20:22:12Z</time></trkpt><trkpt lat="59.5595470257" lon="31.2663574331"><ele>239.02</ele><time>2026-09-02T20:22:13Z</time></trkpt><trkpt lat="59.5595470257" lon="31.2663574331"><ele>239.02</ele><time>2026-09-02T20:22:14Z</time></trkpt><trkpt lat="59.5596072916" lon="31.2664098199"><ele>239.02</ele><time>2026-09-02T20:22:15Z</time></trkpt><trkpt lat="59.5596098900" lon="31.2664140947"><ele>239.02</ele><time>2026-09-02T20:22:16Z</time></trkpt><trkpt lat="59.5596119855" lon="31.2664160226"><ele>239.02</ele><time>2026-09-02T20:22:17Z</time></trkpt><trkpt lat="59.5596148353" lon="31.2664157711"><ele>239.02</ele><time>2026-09-02T20:22:18Z</time></trkpt><trkpt lat="59.5596148353" lon="31.2664157711"><ele>239.02</ele><time>2026-09-02T20:22:19Z</time></trkpt><trkpt lat="59.5596148353" lon="31.2664157711"><ele>239.02</ele><time>2026-09-02T20:22:20Z</time></trkpt><trkpt lat="59.5596148353" lon="31.2664157711"><ele>239.02</ele><time>2026-09-02T20:22:21Z</time></trkpt><trkpt lat="59.5596148353" lon="31.2664157711"><ele>239.02</ele><time>2026-09-02T20:22:22Z</time></trkpt><trkpt lat="59.5596148353" lon="31.2664157711"><ele>239.02</ele><time>2026-09-02T20:22:23Z</time></trkpt><trkpt lat="59.5596148353" lon="31.2664157711"><ele>239.02</ele><time>2026-09-02T20:22:24Z</time></trkpt><trkpt lat="59.5596148353" lon="31.2664157711"><ele>239.02</ele><time>2026-09-02T20:22:25Z</time></trkpt><trkpt lat="59.5596148353" lon="31.2664157711"><ele>239.02</ele><time>2026-09-02T20:22:26Z</time></trkpt><trkpt lat="59.5596148353" lon="31.2664157711"><ele>239.02</ele><time>2026-09-02T20:22:27Z</time></trkpt><trkpt lat="59.5596148353" lon="31.2664157711"><ele>239.02</ele><time>2026-09-02T20:22:28Z</time></trkpt><trkpt lat="59.5596148353" lon="31.2664157711"><ele>239.02</ele><time>2026-09-02T20:22:29Z</time></trkpt><trkpt lat="59.5596148353" lon="31.2664157711"><ele>239.02</ele><time>2026-09-02T20:22:30Z</time></trkpt><trkpt lat="59.5596148353" lon="31.2664157711"><ele>239.02</ele><time>2026-09-02T20:22:31Z</time></trkpt><trkpt lat="59.5596148353" lon="31.2664157711"><ele>239.02</ele><time>2026-09-02T20:22:32Z</time></trkpt><trkpt lat="59.5596148353" lon="31.2664157711"><ele>239.02</ele><time>2026-09-02T20:22:33Z</time></trkpt><trkpt lat="59.5596148353" lon="31.2664157711"><ele>239.02</ele><time>2026-09-02T20:22:34Z</time></trkpt><trkpt lat="59.5596148353" lon="31.2664157711"><ele>239.02</ele><time>2026-09-02T20:22:35Z</time></trkpt><trkpt lat="59.5596148353" lon="31.2664157711"><ele>239.02</ele><time>2026-09-02T20:22:36Z</time></trkpt><trkpt lat="59.5596148353" lon="31.2664157711"><ele>239.02</ele><time>2026-09-02T20:22:37Z</time></trkpt><trkpt lat="59.5596148353" lon="31.2664157711"><ele>239.02</ele><time>2026-09-02T20:22:38Z</time></trkpt><trkpt lat="59.5596148353" lon="31.2664157711"><ele>239.02</ele><time>2026-09-02T20:22:39Z</time></trkpt><trkpt lat="59.5596148353" lon="31.2664157711"><ele>239.02</ele><time>2026-09-02T20:22:40Z</time></trkpt><trkpt lat="59.5596148353" lon="31.2664157711"><ele>239.02</ele><time>2026-09-02T20:22:41Z</time></trkpt><trkpt lat="59.5596148353" lon="31.2664157711"><ele>239.02</ele><time>2026-09-02T20:22:42Z</time></trkpt><trkpt lat="59.5596148353" lon="31.2664157711"><ele>239.02</ele><time>2026-09-02T20:22:43Z</time></trkpt><trkpt lat="59.5596148353" lon="31.2664157711"><ele>239.02</ele><time>2026-09-02T20:22:44Z</time></trkpt><trkpt lat="59.5596148353" lon="31.2664157711"><ele>239.02</ele><time>2026-09-02T20:22:45Z</time></trkpt><trkpt lat="59.5596148353" lon="31.2664157711"><ele>239.02</ele><time>2026-09-02T20:22:46Z</time></trkpt><trkpt lat="59.5596148353" lon="31.2664157711"><ele>239.02</ele><time>2026-09-02T20:22:47Z</time></trkpt><trkpt lat="59.5596148353" lon="31.2664157711"><ele>239.02</ele><time>2026-09-02T20:22:48Z</time></trkpt><trkpt lat="59.5596148353" lon="31.2664157711"><ele>239.02</ele><time>2026-09-02T20:22:49Z</time></trkpt><trkpt lat="59.5596148353" lon="31.2664157711"><ele>239.02</ele><time>2026-09-02T20:22:50Z</time></trkpt><trkpt lat="59.5596148353" lon="31.2664157711"><ele>239.02</ele><time>2026-09-02T20:22:51Z</time></trkpt><trkpt lat="59.5596148353" lon="31.2664157711"><ele>239.02</ele><time>2026-09-02T20:22:52Z</time></trkpt><trkpt lat="59.5596148353" lon="31.2664157711"><ele>239.02</ele><time>2026-09-02T20:22:53Z</time></trkpt><trkpt lat="59.5596148353" lon="31.2664157711"><ele>239.02</ele><time>2026-09-02T20:22:54Z</time></trkpt><trkpt lat="59.5596148353" lon="31.2664157711"><ele>239.02</ele><time>2026-09-02T20:22:55Z</time></trkpt><trkpt lat="59.5596148353" lon="31.2664157711"><ele>239.02</ele><time>2026-09-02T20:22:56Z</time></trkpt><trkpt lat="59.5596148353" lon="31.2664157711"><ele>239.02</ele><time>2026-09-02T20:22:57Z</time></trkpt><trkpt lat="59.5596148353" lon="31.2664157711"><ele>239.02</ele><time>2026-09-02T20:22:58Z</time></trkpt><trkpt lat="59.5596148353" lon="31.2664157711"><ele>239.02</ele><time>2026-09-02T20:22:59Z</time></trkpt><trkpt lat="59.5596148353" lon="31.2664157711"><ele>239.02</ele><time>2026-09-02T20:23:00Z</time></trkpt><trkpt lat="59.5596148353" lon="31.2664157711"><ele>239.02</ele><time>2026-09-02T20:23:01Z</time></trkpt><trkpt lat="59.5596148353" lon="31.2664157711"><ele>239.02</ele><time>2026-09-02T20:23:02Z</time></trkpt><trkpt lat="59.5596148353" lon="31.2664157711"><ele>239.02</ele><time>2026-09-02T20:23:03Z</time></trkpt><trkpt lat="59.5596148353" lon="31.2664157711"><ele>239.02</ele><time>2026-09-02T20:23:04Z</time></trkpt><trkpt lat="59.5596148353" lon="31.2664157711"><ele>239.02</ele><time>2026-09-02T20:23:05Z</time></trkpt><trkpt lat="59.5596148353" lon="31.2664157711"><ele>239.02</ele><time>2026-09-02T20:23:06Z</time></trkpt><trkpt lat="59.5596148353" lon="31.2664157711"><ele>239.02</ele><time>2026-09-02T20:23:07Z</time></trkpt><trkpt lat="59.5596148353" lon="31.2664157711"><ele>239.02</ele><time>2026-09-02T20:23:08Z</time></trkpt><trkpt lat="59.5596148353" lon="31.2664157711"><ele>239.02</ele><time>2026-09-02T20:23:09Z</time></trkpt><trkpt lat="59.5596148353" lon="31.2664157711"><ele>239.02</ele><time>2026-09-02T20:23:10Z</time></trkpt><trkpt lat="59.5596148353" lon="31.2664157711"><ele>239.02</ele><time>2026-09-02T20:23:11Z</time></trkpt><trkpt lat="59.5596148353" lon="31.2664157711"><ele>239.02</ele><time>2026-09-02T20:23:12Z</time></trkpt><trkpt lat="59.5596148353" lon="31.2664157711"><ele>239.02</ele><time>2026-09-02T20:23:13Z</time></trkpt><trkpt lat="59.5596148353" lon="31.2664157711"><ele>239.02</ele><time>2026-09-02T20:23:14Z</time></trkpt><trkpt lat="59.5596148353" lon="31.2664157711"><ele>239.02</ele><time>2026-09-02T20:23:15Z</time></trkpt><trkpt lat="59.5596148353" lon="31.2664157711"><ele>239.02</ele><time>2026-09-02T20:23:16Z</time></trkpt><trkpt lat="59.5596148353" lon="31.2664157711"><ele>239.02</ele><time>2026-09-02T20:23:17Z</time></trkpt><trkpt lat="59.5596148353" lon="31.2664157711"><ele>239.02</ele><time>2026-09-02T20:23:18Z</time></trkpt><trkpt lat="59.5596148353" lon="31.2664157711"><ele>239.02</ele><time>2026-09-02T20:23:19Z</time></trkpt><trkpt lat="59.5596148353" lon="31.2664157711"><ele>239.02</ele><time>2026-09-02T20:23:20Z</time></trkpt><trkpt lat="59.5596148353" lon="31.2664157711"><ele>239.02</ele><time>2026-09-02T20:23:21Z</time></trkpt><trkpt lat="59.5596148353" lon="31.2664157711"><ele>239.02</ele><time>2026-09-02T20:23:22Z</time></trkpt><trkpt lat="59.5596148353" lon="31.2664157711"><ele>239.02</ele><time>2026-09-02T20:23:23Z</time></trkpt><trkpt lat="59.5596148353" lon="31.2664157711"><ele>239.02</ele><time>2026-09-02T20:23:24Z</time></trkpt><trkpt lat="59.5596148353" lon="31.2664157711"><ele>239.02</ele><time>2026-09-02T20:23:25Z</time></trkpt><trkpt lat="59.5596148353" lon="31.2664157711"><ele>239.02</ele><time>2026-09-02T20:23:26Z</time></trkpt><trkpt lat="59.5596148353" lon="31.2664157711"><ele>239.02</ele><time>2026-09-02T20:23:27Z</time></trkpt><trkpt lat="59.5596148353" lon="31.2664157711"><ele>239.02</ele><time>2026-09-02T20:23:28Z</time></trkpt><trkpt lat="59.5596148353" lon="31.2664157711"><ele>239.02</ele><time>2026-09-02T20:23:29Z</time></trkpt><trkpt lat="59.5596148353" lon="31.2664157711"><ele>239.02</ele><time>2026-09-02T20:23:30Z</time></trkpt><trkpt lat="59.5596148353" lon="31.2664157711"><ele>239.02</ele><time>2026-09-02T20:23:31Z</time></trkpt><trkpt lat="59.5596148353" lon="31.2664157711"><ele>239.02</ele><time>2026-09-02T20:23:32Z</time></trkpt><trkpt lat="59.5596148353" lon="31.2664157711"><ele>239.02</ele><time>2026-09-02T20:23:33Z</time></trkpt><trkpt lat="59.5596148353" lon="31.2664157711"><ele>239.02</ele><time>2026-09-02T20:23:34Z</time></trkpt><trkpt lat="59.5596148353" lon="31.2664157711"><ele>239.02</ele><time>2026-09-02T20:23:35Z</time></trkpt><trkpt lat="59.5596148353" lon="31.2664157711"><ele>239.02</ele><time>2026-09-02T20:23:36Z</time></trkpt><trkpt lat="59.5596148353" lon="31.2664157711"><ele>239.02</ele><time>2026-09-02T20:23:37Z</time></trkpt><trkpt lat="59.5596148353" lon="31.2664157711"><ele>239.02</ele><time>2026-09-02T20:23:38Z</time></trkpt><trkpt lat="59.5596148353" lon="31.2664157711"><ele>239.02</ele><time>2026-09-02T20:23:39Z</time></trkpt><trkpt lat="59.5596148353" lon="31.2664157711"><ele>239.02</ele><time>2026-09-02T20:23:40Z</time></trkpt><trkpt lat="59.5596148353" lon="31.2664157711"><ele>239.02</ele><time>2026-09-02T20:23:41Z</time></trkpt><trkpt lat="59.5596148353" lon="31.2664157711"><ele>239.02</ele><time>2026-09-02T20:23:42Z</time></trkpt><trkpt lat="59.5596148353" lon="31.2664157711"><ele>239.02</ele><time>2026-09-02T20:23:43Z</time></trkpt><trkpt lat="59.5596148353" lon="31.2664157711"><ele>239.02</ele><time>2026-09-02T20:23:44Z</time></trkpt><trkpt lat="59.5596148353" lon="31.2664157711"><ele>239.02</ele><time>2026-09-02T20:23:45Z</time></trkpt><trkpt lat="59.5596148353" lon="31.2664157711"><ele>239.02</ele><time>2026-09-02T20:23:46Z</time></trkpt><trkpt lat="59.5596148353" lon="31.2664157711"><ele>239.02</ele><time>2026-09-02T20:23:47Z</time></trkpt><trkpt lat="59.5596148353" lon="31.2664157711"><ele>239.02</ele><time>2026-09-02T20:23:48Z</time></trkpt><trkpt lat="59.5596148353" lon="31.2664157711"><ele>239.02</ele><time>2026-09-02T20:23:49Z</time></trkpt><trkpt lat="59.5596148353" lon="31.2664157711"><ele>239.02</ele><time>2026-09-02T20:23:50Z</time></trkpt><trkpt lat="59.5596148353" lon="31.2664157711"><ele>239.02</ele><time>2026-09-02T20:23:51Z</time></trkpt><trkpt lat="59.5596148353" lon="31.2664157711"><ele>239.02</ele><time>2026-09-02T20:23:52Z</time></trkpt><trkpt lat="59.5596148353" lon="31.2664157711"><ele>239.02</ele><time>2026-09-02T20:23:53Z</time></trkpt><trkpt lat="59.5596148353" lon="31.2664157711"><ele>239.02</ele><time>2026-09-02T20:23:54Z</time></trkpt><trkpt lat="59.5596148353" lon="31.2664157711"><ele>239.02</ele><time>2026-09-02T20:23:55Z</time></trkpt><trkpt lat="59.5596148353" lon="31.2664157711"><ele>239.02</ele><time>2026-09-02T20:23:56Z</time></trkpt><trkpt lat="59.5596148353" lon="31.2664157711"><ele>239.02</ele><time>2026-09-02T20:23:57Z</time></trkpt><trkpt lat="59.5596148353" lon="31.2664157711"><ele>239.02</ele><time>2026-09-02T20:23:58Z</time></trkpt><trkpt lat="59.5596148353" lon="31.2664157711"><ele>239.02</ele><time>2026-09-02T20:23:59Z</time></trkpt><trkpt lat="59.5596148353" lon="31.2664157711"><ele>239.02</ele><time>2026-09-02T20:24:00Z</time></trkpt><trkpt lat="59.5596148353" lon="31.2664157711"><ele>239.02</ele><time>2026-09-02T20:24:01Z</time></trkpt><trkpt lat="59.5596148353" lon="31.2664157711"><ele>239.02</ele><time>2026-09-02T20:24:02Z</time></trkpt><trkpt lat="59.5596148353" lon="31.2664157711"><ele>239.02</ele><time>2026-09-02T20:24:03Z</time></trkpt><trkpt lat="59.5596148353" lon="31.2664157711"><ele>239.02</ele><time>2026-09-02T20:24:04Z</time></trkpt><trkpt lat="59.5596148353" lon="31.2664157711"><ele>239.02</ele><time>2026-09-02T20:24:05Z</time></trkpt><trkpt lat="59.5596148353" lon="31.2664157711"><ele>239.02</ele><time>2026-09-02T20:24:06Z</time></trkpt><trkpt lat="59.5596148353" lon="31.2664157711"><ele>239.02</ele><time>2026-09-02T20:24:07Z</time></trkpt><trkpt lat="59.5596148353" lon="31.2664157711"><ele>239.02</ele><time>2026-09-02T20:24:08Z</time></trkpt><trkpt lat="59.5596148353" lon="31.2664157711"><ele>239.02</ele><time>2026-09-02T20:24:09Z</time></trkpt><trkpt lat="59.5596148353" lon="31.2664157711"><ele>239.02</ele><time>2026-09-02T20:24:10Z</time></trkpt><trkpt lat="59.5596148353" lon="31.2664157711"><ele>239.02</ele><time>2026-09-02T20:24:11Z</time></trkpt><trkpt lat="59.5596148353" lon="31.2664157711"><ele>239.02</ele><time>2026-09-02T20:24:12Z</time></trkpt><trkpt lat="59.5596148353" lon="31.2664157711"><ele>239.02</ele><time>2026-09-02T20:24:13Z</time></trkpt><trkpt lat="59.5596148353" lon="31.2664157711"><ele>239.02</ele><time>2026-09-02T20:24:14Z</time></trkpt><trkpt lat="59.5596148353" lon="31.2664157711"><ele>239.02</ele><time>2026-09-02T20:24:15Z</time></trkpt><trkpt lat="59.5596148353" lon="31.2664157711"><ele>239.02</ele><time>2026-09-02T20:24:16Z</time></trkpt><trkpt lat="59.5596148353" lon="31.2664157711"><ele>239.02</ele><time>2026-09-02T20:24:17Z</time></trkpt><trkpt lat="59.5596148353" lon="31.2664157711"><ele>239.02</ele><time>2026-09-02T20:24:18Z</time></trkpt><trkpt lat="59.5596148353" lon="31.2664157711"><ele>239.02</ele><time>2026-09-02T20:24:19Z</time></trkpt><trkpt lat="59.5596148353" lon="31.2664157711"><ele>239.02</ele><time>2026-09-02T20:24:20Z</time></trkpt><trkpt lat="59.5596148353" lon="31.2664157711"><ele>239.02</ele><time>2026-09-02T20:24:21Z</time></trkpt><trkpt lat="59.5596148353" lon="31.2664157711"><ele>239.02</ele><time>2026-09-02T20:24:22Z</time></trkpt><trkpt lat="59.5596148353" lon="31.2664157711"><ele>239.02</ele><time>2026-09-02T20:24:23Z</time></trkpt><trkpt lat="59.5596148353" lon="31.2664157711"><ele>239.02</ele><time>2026-09-02T20:24:24Z</time></trkpt><trkpt lat="59.5596148353" lon="31.2664157711"><ele>239.02</ele><time>2026-09-02T20:24:25Z</time></trkpt><trkpt lat="59.5596148353" lon="31.2664157711"><ele>239.02</ele><time>2026-09-02T20:24:26Z</time></trkpt><trkpt lat="59.5596148353" lon="31.2664157711"><ele>239.02</ele><time>2026-09-02T20:24:27Z</time></trkpt><trkpt lat="59.5596148353" lon="31.2664157711"><ele>239.02</ele><time>2026-09-02T20:24:28Z</time></trkpt><trkpt lat="59.5596148353" lon="31.2664157711"><ele>239.02</ele><time>2026-09-02T20:24:29Z</time></trkpt><trkpt lat="59.5596148353" lon="31.2664157711"><ele>239.02</ele><time>2026-09-02T20:24:30Z</time></trkpt><trkpt lat="59.5596148353" lon="31.2664157711"><ele>239.02</ele><time>2026-09-02T20:24:31Z</time></trkpt><trkpt lat="59.5596148353" lon="31.2664157711"><ele>239.02</ele><time>2026-09-02T20:24:32Z</time></trkpt><trkpt lat="59.5596148353" lon="31.2664157711"><ele>239.02</ele><time>2026-09-02T20:24:33Z</time></trkpt><trkpt lat="59.5596148353" lon="31.2664157711"><ele>239.02</ele><time>2026-09-02T20:24:34Z</time></trkpt><trkpt lat="59.5596148353" lon="31.2664157711"><ele>239.02</ele><time>2026-09-02T20:24:35Z</time></trkpt><trkpt lat="59.5596148353" lon="31.2664157711"><ele>239.02</ele><time>2026-09-02T20:24:36Z</time></trkpt><trkpt lat="59.5596148353" lon="31.2664157711"><ele>239.02</ele><time>2026-09-02T20:24:37Z</time></trkpt><trkpt lat="59.5596148353" lon="31.2664157711"><ele>239.02</ele><time>2026-09-02T20:24:38Z</time></trkpt><trkpt lat="59.5596148353" lon="31.2664157711"><ele>239.02</ele><time>2026-09-02T20:24:39Z</time></trkpt><trkpt lat="59.5596148353" lon="31.2664157711"><ele>239.02</ele><time>2026-09-02T20:24:40Z</time></trkpt><trkpt lat="59.5596148353" lon="31.2664157711"><ele>239.02</ele><time>2026-09-02T20:24:41Z</time></trkpt><trkpt lat="59.5596148353" lon="31.2664157711"><ele>239.02</ele><time>2026-09-02T20:24:42Z</time></trkpt><trkpt lat="59.5596148353" lon="31.2664157711"><ele>239.02</ele><time>2026-09-02T20:24:43Z</time></trkpt><trkpt lat="59.5596148353" lon="31.2664157711"><ele>239.02</ele><time>2026-09-02T20:24:44Z</time></trkpt><trkpt lat="59.5596148353" lon="31.2664157711"><ele>239.02</ele><time>2026-09-02T20:24:45Z</time></trkpt><trkpt lat="59.5596148353" lon="31.2664157711"><ele>239.02</ele><time>2026-09-02T20:24:46Z</time></trkpt><trkpt lat="59.5596148353" lon="31.2664157711"><ele>239.02</ele><time>2026-09-02T20:24:47Z</time></trkpt><trkpt lat="59.5596148353" lon="31.2664157711"><ele>239.02</ele><time>2026-09-02T20:24:48Z</time></trkpt><trkpt lat="59.5596148353" lon="31.2664157711"><ele>239.02</ele><time>2026-09-02T20:24:49Z</time></trkpt><trkpt lat="59.5596148353" lon="31.2664157711"><ele>239.02</ele><time>2026-09-02T20:24:50Z</time></trkpt><trkpt lat="59.5596148353" lon="31.2664157711"><ele>239.02</ele><time>2026-09-02T20:24:51Z</time></trkpt><trkpt lat="59.5596148353" lon="31.2664157711"><ele>239.02</ele><time>2026-09-02T20:24:52Z</time></trkpt><trkpt lat="59.5596148353" lon="31.2664157711"><ele>239.02</ele><time>2026-09-02T20:24:53Z</time></trkpt><trkpt lat="59.5596148353" lon="31.2664157711"><ele>239.02</ele><time>2026-09-02T20:24:54Z</time></trkpt><trkpt lat="59.5596148353" lon="31.2664157711"><ele>239.02</ele><time>2026-09-02T20:24:55Z</time></trkpt><trkpt lat="59.5596377179" lon="31.2663892843"><ele>239.02</ele><time>2026-09-02T20:24:56Z</time></trkpt><trkpt lat="59.5596370474" lon="31.2663832493"><ele>239.02</ele><time>2026-09-02T20:24:57Z</time></trkpt><trkpt lat="59.5596397296" lon="31.2663816568"><ele>239.02</ele><time>2026-09-02T20:24:58Z</time></trkpt><trkpt lat="59.5596432500" lon="31.2663831655"><ele>239.02</ele><time>2026-09-02T20:24:59Z</time></trkpt><trkpt lat="59.5596499555" lon="31.2663843390"><ele>239.02</ele><time>2026-09-02T20:25:00Z</time></trkpt><trkpt lat="59.5596499555" lon="31.2663843390"><ele>239.02</ele><time>2026-09-02T20:25:01Z</time></trkpt><trkpt lat="59.5596499555" lon="31.2663843390"><ele>239.02</ele><time>2026-09-02T20:25:02Z</time></trkpt><trkpt lat="59.5596499555" lon="31.2663843390"><ele>239.02</ele><time>2026-09-02T20:25:03Z</time></trkpt><trkpt lat="59.5596499555" lon="31.2663843390"><ele>239.02</ele><time>2026-09-02T20:25:04Z</time></trkpt><trkpt lat="59.5596499555" lon="31.2663843390"><ele>239.51</ele><time>2026-09-02T20:25:05Z</time></trkpt><trkpt lat="59.5596499555" lon="31.2663843390"><ele>239.51</ele><time>2026-09-02T20:25:06Z</time></trkpt><trkpt lat="59.5596499555" lon="31.2663843390"><ele>239.51</ele><time>2026-09-02T20:25:07Z</time></trkpt><trkpt lat="59.5596499555" lon="31.2663843390"><ele>239.02</ele><time>2026-09-02T20:25:08Z</time></trkpt><trkpt lat="59.5596499555" lon="31.2663843390"><ele>239.02</ele><time>2026-09-02T20:25:09Z</time></trkpt><trkpt lat="59.5596499555" lon="31.2663843390"><ele>239.02</ele><time>2026-09-02T20:25:10Z</time></trkpt><trkpt lat="59.5596499555" lon="31.2663843390"><ele>239.02</ele><time>2026-09-02T20:25:11Z</time></trkpt><trkpt lat="59.5596499555" lon="31.2663843390"><ele>239.02</ele><time>2026-09-02T20:25:12Z</time></trkpt><trkpt lat="59.5596499555" lon="31.2663843390"><ele>239.02</ele><time>2026-09-02T20:25:13Z</time></trkpt><trkpt lat="59.5596499555" lon="31.2663843390"><ele>239.02</ele><time>2026-09-02T20:25:14Z</time></trkpt><trkpt lat="59.5596499555" lon="31.2663843390"><ele>239.02</ele><time>2026-09-02T20:25:15Z</time></trkpt><trkpt lat="59.5596499555" lon="31.2663843390"><ele>238.54</ele><time>2026-09-02T20:25:16Z</time></trkpt><trkpt lat="59.5596499555" lon="31.2663843390"><ele>238.54</ele><time>2026-09-02T20:25:17Z</time></trkpt><trkpt lat="59.5596499555" lon="31.2663843390"><ele>238.54</ele><time>2026-09-02T20:25:18Z</time></trkpt><trkpt lat="59.5596499555" lon="31.2663843390"><ele>238.54</ele><time>2026-09-02T20:25:19Z</time></trkpt><trkpt lat="59.5596499555" lon="31.2663843390"><ele>238.54</ele><time>2026-09-02T20:25:20Z</time></trkpt><trkpt lat="59.5596499555" lon="31.2663843390"><ele>238.54</ele><time>2026-09-02T20:25:21Z</time></trkpt><trkpt lat="59.5596499555" lon="31.2663843390"><ele>238.06</ele><time>2026-09-02T20:25:22Z</time></trkpt><trkpt lat="59.5597414859" lon="31.2663709279"><ele>238.06</ele><time>2026-09-02T20:25:23Z</time></trkpt><trkpt lat="59.5597467665" lon="31.2663584389"><ele>238.06</ele><time>2026-09-02T20:25:24Z</time></trkpt><trkpt lat="59.5597537234" lon="31.2663481291"><ele>238.06</ele><time>2026-09-02T20:25:25Z</time></trkpt><trkpt lat="59.5597630274" lon="31.2663396634"><ele>237.58</ele><time>2026-09-02T20:25:26Z</time></trkpt><trkpt lat="59.5597714931" lon="31.2663297728"><ele>237.58</ele><time>2026-09-02T20:25:27Z</time></trkpt><trkpt lat="59.5597803779" lon="31.2663205527"><ele>237.10</ele><time>2026-09-02T20:25:28Z</time></trkpt><trkpt lat="59.5597898494" lon="31.2663150206"><ele>236.62</ele><time>2026-09-02T20:25:29Z</time></trkpt><trkpt lat="59.5597964711" lon="31.2663055491"><ele>236.62</ele><time>2026-09-02T20:25:30Z</time></trkpt><trkpt lat="59.5597981475" lon="31.2662946526"><ele>236.14</ele><time>2026-09-02T20:25:31Z</time></trkpt><trkpt lat="59.5598009974" lon="31.2662852649"><ele>236.14</ele><time>2026-09-02T20:25:32Z</time></trkpt><trkpt lat="59.5598015841" lon="31.2662764639"><ele>236.14</ele><time>2026-09-02T20:25:33Z</time></trkpt><trkpt lat="59.5598041825" lon="31.2662670761"><ele>236.14</ele><time>2026-09-02T20:25:34Z</time></trkpt><trkpt lat="59.5598067809" lon="31.2662505638"><ele>236.14</ele><time>2026-09-02T20:25:35Z</time></trkpt><trkpt lat="59.5598089602" lon="31.2662343867"><ele>235.66</ele><time>2026-09-02T20:25:36Z</time></trkpt><trkpt lat="59.5598086249" lon="31.2662181258"><ele>235.66</ele><time>2026-09-02T20:25:37Z</time></trkpt><trkpt lat="59.5598064456" lon="31.2662055530"><ele>235.66</ele><time>2026-09-02T20:25:38Z</time></trkpt><trkpt lat="59.5598070323" lon="31.2661912199"><ele>235.66</ele><time>2026-09-02T20:25:39Z</time></trkpt><trkpt lat="59.5598060265" lon="31.2661772221"><ele>235.66</ele><time>2026-09-02T20:25:40Z</time></trkpt><trkpt lat="59.5598052721" lon="31.2661638949"><ele>235.18</ele><time>2026-09-02T20:25:41Z</time></trkpt><trkpt lat="59.5598046854" lon="31.2661492266"><ele>235.18</ele><time>2026-09-02T20:25:42Z</time></trkpt><trkpt lat="59.5598044340" lon="31.2661323790"><ele>235.18</ele><time>2026-09-02T20:25:43Z</time></trkpt><trkpt lat="59.5597993210" lon="31.2661147770"><ele>235.18</ele><time>2026-09-02T20:25:44Z</time></trkpt><trkpt lat="59.5597980637" lon="31.2660934869"><ele>235.18</ele><time>2026-09-02T20:25:45Z</time></trkpt><trkpt lat="59.5598010812" lon="31.2660764717"><ele>235.18</ele><time>2026-09-02T20:25:46Z</time></trkpt><trkpt lat="59.5598056912" lon="31.2660556845"><ele>235.18</ele><time>2026-09-02T20:25:47Z</time></trkpt><trkpt lat="59.5598109718" lon="31.2660386693"><ele>235.18</ele><time>2026-09-02T20:25:48Z</time></trkpt><trkpt lat="59.5598111395" lon="31.2660146970"><ele>235.18</ele><time>2026-09-02T20:25:49Z</time></trkpt><trkpt lat="59.5598138217" lon="31.2659950834"><ele>235.18</ele><time>2026-09-02T20:25:50Z</time></trkpt><trkpt lat="59.5598163363" lon="31.2659798283"><ele>234.70</ele><time>2026-09-02T20:25:51Z</time></trkpt><trkpt lat="59.5598208625" lon="31.2659604661"><ele>234.70</ele><time>2026-09-02T20:25:52Z</time></trkpt><trkpt lat="59.5598236285" lon="31.2659364939"><ele>234.70</ele><time>2026-09-02T20:25:53Z</time></trkpt><trkpt lat="59.5598268975" lon="31.2659230828"><ele>234.70</ele><time>2026-09-02T20:25:54Z</time></trkpt><trkpt lat="59.5598364528" lon="31.2659175508"><ele>234.70</ele><time>2026-09-02T20:25:55Z</time></trkpt><trkpt lat="59.5598423202" lon="31.2659057323"><ele>234.22</ele><time>2026-09-02T20:25:56Z</time></trkpt><trkpt lat="59.5598485228" lon="31.2658917345"><ele>234.22</ele><time>2026-09-02T20:25:57Z</time></trkpt><trkpt lat="59.5598553959" lon="31.2658758927"><ele>234.22</ele><time>2026-09-02T20:25:58Z</time></trkpt><trkpt lat="59.5598612633" lon="31.2658660859"><ele>234.22</ele><time>2026-09-02T20:25:59Z</time></trkpt><trkpt lat="59.5598676335" lon="31.2658583745"><ele>234.22</ele><time>2026-09-02T20:26:00Z</time></trkpt><trkpt lat="59.5598797873" lon="31.2658505794"><ele>234.22</ele><time>2026-09-02T20:26:01Z</time></trkpt><trkpt lat="59.5598896779" lon="31.2658440415"><ele>234.22</ele><time>2026-09-02T20:26:02Z</time></trkpt><trkpt lat="59.5599042624" lon="31.2658434547"><ele>234.22</ele><time>2026-09-02T20:26:03Z</time></trkpt><trkpt lat="59.5599146560" lon="31.2658398505"><ele>234.22</ele><time>2026-09-02T20:26:04Z</time></trkpt><trkpt lat="59.5599238761" lon="31.2658328936"><ele>234.22</ele><time>2026-09-02T20:26:05Z</time></trkpt><trkpt lat="59.5599336829" lon="31.2658266909"><ele>234.22</ele><time>2026-09-02T20:26:06Z</time></trkpt><trkpt lat="59.5599419810" lon="31.2658191472"><ele>233.74</ele><time>2026-09-02T20:26:07Z</time></trkpt><trkpt lat="59.5599527936" lon="31.2658072449"><ele>233.74</ele><time>2026-09-02T20:26:08Z</time></trkpt><trkpt lat="59.5599624328" lon="31.2657975219"><ele>233.74</ele><time>2026-09-02T20:26:09Z</time></trkpt><trkpt lat="59.5599697251" lon="31.2657877989"><ele>233.74</ele><time>2026-09-02T20:26:10Z</time></trkpt><trkpt lat="59.5599759277" lon="31.2657763995"><ele>233.74</ele><time>2026-09-02T20:26:11Z</time></trkpt><trkpt lat="59.5599818788" lon="31.2657653354"><ele>233.74</ele><time>2026-09-02T20:26:12Z</time></trkpt><trkpt lat="59.5599861536" lon="31.2657529302"><ele>233.74</ele><time>2026-09-02T20:26:13Z</time></trkpt><trkpt lat="59.5599911828" lon="31.2657435425"><ele>233.26</ele><time>2026-09-02T20:26:14Z</time></trkpt><trkpt lat="59.5599983912" lon="31.2657414470"><ele>233.26</ele><time>2026-09-02T20:26:15Z</time></trkpt><trkpt lat="59.5600025821" lon="31.2657318916"><ele>233.26</ele><time>2026-09-02T20:26:16Z</time></trkpt><trkpt lat="59.5600062702" lon="31.2657210790"><ele>233.26</ele><time>2026-09-02T20:26:17Z</time></trkpt><trkpt lat="59.5600110479" lon="31.2657053210"><ele>233.26</ele><time>2026-09-02T20:26:18Z</time></trkpt><trkpt lat="59.5600150712" lon="31.2656892277"><ele>233.26</ele><time>2026-09-02T20:26:19Z</time></trkpt><trkpt lat="59.5600239560" lon="31.2656757329"><ele>233.26</ele><time>2026-09-02T20:26:20Z</time></trkpt><trkpt lat="59.5600310806" lon="31.2656640820"><ele>233.26</ele><time>2026-09-02T20:26:21Z</time></trkpt><trkpt lat="59.5600367803" lon="31.2656551972"><ele>232.78</ele><time>2026-09-02T20:26:22Z</time></trkpt><trkpt lat="59.5600408874" lon="31.2656468991"><ele>232.78</ele><time>2026-09-02T20:26:23Z</time></trkpt><trkpt lat="59.5600409713" lon="31.2656415347"><ele>232.78</ele><time>2026-09-02T20:26:24Z</time></trkpt><trkpt lat="59.5600455813" lon="31.2656286266"><ele>232.78</ele><time>2026-09-02T20:26:25Z</time></trkpt><trkpt lat="59.5600474253" lon="31.2656185683"><ele>232.78</ele><time>2026-09-02T20:26:26Z</time></trkpt><trkpt lat="59.5600475930" lon="31.2656058278"><ele>232.78</ele><time>2026-09-02T20:26:27Z</time></trkpt><trkpt lat="59.5600464195" lon="31.2655938417"><ele>232.30</ele><time>2026-09-02T20:26:28Z</time></trkpt><trkpt lat="59.5600475930" lon="31.2655834481"><ele>232.30</ele><time>2026-09-02T20:26:29Z</time></trkpt><trkpt lat="59.5600541309" lon="31.2655787542"><ele>232.30</ele><time>2026-09-02T20:26:30Z</time></trkpt><trkpt lat="59.5600590762" lon="31.2655705400"><ele>232.30</ele><time>2026-09-02T20:26:31Z</time></trkpt><trkpt lat="59.5600606687" lon="31.2655646726"><ele>232.30</ele><time>2026-09-02T20:26:32Z</time></trkpt><trkpt lat="59.5600634348" lon="31.2655605655"><ele>232.30</ele><time>2026-09-02T20:26:33Z</time></trkpt><trkpt lat="59.5600721519" lon="31.2655604817"><ele>232.30</ele><time>2026-09-02T20:26:34Z</time></trkpt><trkpt lat="59.5600675419" lon="31.2655577995"><ele>232.30</ele><time>2026-09-02T20:26:35Z</time></trkpt><trkpt lat="59.5600712299" lon="31.2655578833"><ele>232.30</ele><time>2026-09-02T20:26:36Z</time></trkpt><trkpt lat="59.5600705594" lon="31.2655542791"><ele>232.30</ele><time>2026-09-02T20:26:37Z</time></trkpt><trkpt lat="59.5600686315" lon="31.2655501720"><ele>232.30</ele><time>2026-09-02T20:26:38Z</time></trkpt><trkpt lat="59.5600686315" lon="31.2655501720"><ele>232.30</ele><time>2026-09-02T20:26:39Z</time></trkpt><trkpt lat="59.5600686315" lon="31.2655501720"><ele>232.30</ele><time>2026-09-02T20:26:40Z</time></trkpt><trkpt lat="59.5600686315" lon="31.2655501720"><ele>232.30</ele><time>2026-09-02T20:26:41Z</time></trkpt><trkpt lat="59.5600686315" lon="31.2655501720"><ele>232.30</ele><time>2026-09-02T20:26:42Z</time></trkpt><trkpt lat="59.5600686315" lon="31.2655501720"><ele>232.30</ele><time>2026-09-02T20:26:43Z</time></trkpt><trkpt lat="59.5600686315" lon="31.2655501720"><ele>232.30</ele><time>2026-09-02T20:26:44Z</time></trkpt><trkpt lat="59.5600686315" lon="31.2655501720"><ele>232.30</ele><time>2026-09-02T20:26:45Z</time></trkpt><trkpt lat="59.5600686315" lon="31.2655501720"><ele>232.30</ele><time>2026-09-02T20:26:46Z</time></trkpt><trkpt lat="59.5600686315" lon="31.2655501720"><ele>232.30</ele><time>2026-09-02T20:26:47Z</time></trkpt><trkpt lat="59.5600686315" lon="31.2655501720"><ele>232.30</ele><time>2026-09-02T20:26:48Z</time></trkpt><trkpt lat="59.5600686315" lon="31.2655501720"><ele>232.30</ele><time>2026-09-02T20:26:49Z</time></trkpt><trkpt lat="59.5600686315" lon="31.2655501720"><ele>232.30</ele><time>2026-09-02T20:26:50Z</time></trkpt><trkpt lat="59.5600686315" lon="31.2655501720"><ele>232.30</ele><time>2026-09-02T20:26:51Z</time></trkpt><trkpt lat="59.5600686315" lon="31.2655501720"><ele>232.30</ele><time>2026-09-02T20:26:52Z</time></trkpt><trkpt lat="59.5600686315" lon="31.2655501720"><ele>232.30</ele><time>2026-09-02T20:26:53Z</time></trkpt><trkpt lat="59.5600686315" lon="31.2655501720"><ele>232.30</ele><time>2026-09-02T20:26:54Z</time></trkpt><trkpt lat="59.5600686315" lon="31.2655501720"><ele>232.30</ele><time>2026-09-02T20:26:55Z</time></trkpt><trkpt lat="59.5600686315" lon="31.2655501720"><ele>232.30</ele><time>2026-09-02T20:26:56Z</time></trkpt><trkpt lat="59.5600686315" lon="31.2655501720"><ele>232.30</ele><time>2026-09-02T20:26:57Z</time></trkpt><trkpt lat="59.5600686315" lon="31.2655501720"><ele>232.30</ele><time>2026-09-02T20:26:58Z</time></trkpt><trkpt lat="59.5600686315" lon="31.2655501720"><ele>232.30</ele><time>2026-09-02T20:26:59Z</time></trkpt><trkpt lat="59.5600686315" lon="31.2655501720"><ele>232.30</ele><time>2026-09-02T20:27:00Z</time></trkpt><trkpt lat="59.5600686315" lon="31.2655501720"><ele>232.30</ele><time>2026-09-02T20:27:01Z</time></trkpt><trkpt lat="59.5600686315" lon="31.2655501720"><ele>232.30</ele><time>2026-09-02T20:27:02Z</time></trkpt><trkpt lat="59.5600686315" lon="31.2655501720"><ele>232.30</ele><time>2026-09-02T20:27:03Z</time></trkpt><trkpt lat="59.5601071883" lon="31.2654151395"><ele>232.30</ele><time>2026-09-02T20:27:04Z</time></trkpt><trkpt lat="59.5601121336" lon="31.2654028181"><ele>232.30</ele><time>2026-09-02T20:27:05Z</time></trkpt><trkpt lat="59.5601160731" lon="31.2653921731"><ele>232.30</ele><time>2026-09-02T20:27:06Z</time></trkpt><trkpt lat="59.5601198450" lon="31.2653796840"><ele>232.30</ele><time>2026-09-02T20:27:07Z</time></trkpt><trkpt lat="59.5601224434" lon="31.2653721403"><ele>232.30</ele><time>2026-09-02T20:27:08Z</time></trkpt><trkpt lat="59.5601253770" lon="31.2653649319"><ele>232.30</ele><time>2026-09-02T20:27:09Z</time></trkpt><trkpt lat="59.5601250418" lon="31.2653563824"><ele>232.30</ele><time>2026-09-02T20:27:10Z</time></trkpt><trkpt lat="59.5601250418" lon="31.2653563824"><ele>232.30</ele><time>2026-09-02T20:27:11Z</time></trkpt><trkpt lat="59.5601263829" lon="31.2653304823"><ele>232.30</ele><time>2026-09-02T20:27:12Z</time></trkpt><trkpt lat="59.5601274725" lon="31.2653153948"><ele>232.30</ele><time>2026-09-02T20:27:13Z</time></trkpt><trkpt lat="59.5601299871" lon="31.2653005589"><ele>232.30</ele><time>2026-09-02T20:27:14Z</time></trkpt><trkpt lat="59.5601346809" lon="31.2652908359"><ele>232.30</ele><time>2026-09-02T20:27:15Z</time></trkpt><trkpt lat="59.5601410512" lon="31.2652799394"><ele>232.30</ele><time>2026-09-02T20:27:16Z</time></trkpt><trkpt lat="59.5601485949" lon="31.2652708869"><ele>232.30</ele><time>2026-09-02T20:27:17Z</time></trkpt><trkpt lat="59.5601556357" lon="31.2652643491"><ele>232.30</ele><time>2026-09-02T20:27:18Z</time></trkpt><trkpt lat="59.5601628441" lon="31.2652589846"><ele>232.30</ele><time>2026-09-02T20:27:19Z</time></trkpt><trkpt lat="59.5601698849" lon="31.2652526982"><ele>232.30</ele><time>2026-09-02T20:27:20Z</time></trkpt><trkpt lat="59.5601745788" lon="31.2652444839"><ele>232.30</ele><time>2026-09-02T20:27:21Z</time></trkpt><trkpt lat="59.5601795241" lon="31.2652364373"><ele>232.30</ele><time>2026-09-02T20:27:22Z</time></trkpt><trkpt lat="59.5601864811" lon="31.2652320787"><ele>232.30</ele><time>2026-09-02T20:27:23Z</time></trkpt><trkpt lat="59.5601910912" lon="31.2652278878"><ele>232.30</ele><time>2026-09-02T20:27:24Z</time></trkpt><trkpt lat="59.5601969585" lon="31.2652230263"><ele>232.30</ele><time>2026-09-02T20:27:25Z</time></trkpt><trkpt lat="59.5602039993" lon="31.2652237806"><ele>232.30</ele><time>2026-09-02T20:27:26Z</time></trkpt><trkpt lat="59.5602082741" lon="31.2652226910"><ele>232.30</ele><time>2026-09-02T20:27:27Z</time></trkpt><trkpt lat="59.5602107886" lon="31.2652157340"><ele>232.30</ele><time>2026-09-02T20:27:28Z</time></trkpt><trkpt lat="59.5602164883" lon="31.2652043346"><ele>232.30</ele><time>2026-09-02T20:27:29Z</time></trkpt><trkpt lat="59.5602233615" lon="31.2652044185"><ele>232.30</ele><time>2026-09-02T20:27:30Z</time></trkpt><trkpt lat="59.5602290612" lon="31.2652031612"><ele>232.30</ele><time>2026-09-02T20:27:31Z</time></trkpt><trkpt lat="59.5602341741" lon="31.2652047537"><ele>232.30</ele><time>2026-09-02T20:27:32Z</time></trkpt><trkpt lat="59.5602372754" lon="31.2652055919"><ele>232.30</ele><time>2026-09-02T20:27:33Z</time></trkpt><trkpt lat="59.5602431428" lon="31.2652041670"><ele>232.30</ele><time>2026-09-02T20:27:34Z</time></trkpt><trkpt lat="59.5602505188" lon="31.2652045861"><ele>232.30</ele><time>2026-09-02T20:27:35Z</time></trkpt><trkpt lat="59.5602588169" lon="31.2651992217"><ele>232.30</ele><time>2026-09-02T20:27:36Z</time></trkpt><trkpt lat="59.5602661930" lon="31.2651939411"><ele>232.30</ele><time>2026-09-02T20:27:37Z</time></trkpt><trkpt lat="59.5602716412" lon="31.2651944440"><ele>232.30</ele><time>2026-09-02T20:27:38Z</time></trkpt><trkpt lat="59.5602787659" lon="31.2651968747"><ele>232.30</ele><time>2026-09-02T20:27:39Z</time></trkpt><trkpt lat="59.5602853876" lon="31.2652000599"><ele>232.30</ele><time>2026-09-02T20:27:40Z</time></trkpt><trkpt lat="59.5602908358" lon="31.2652030773"><ele>232.30</ele><time>2026-09-02T20:27:41Z</time></trkpt><trkpt lat="59.5602934342" lon="31.2651992217"><ele>232.30</ele><time>2026-09-02T20:27:42Z</time></trkpt><trkpt lat="59.5602949429" lon="31.2651940249"><ele>232.30</ele><time>2026-09-02T20:27:43Z</time></trkpt><trkpt lat="59.5602949429" lon="31.2651852239"><ele>232.30</ele><time>2026-09-02T20:27:44Z</time></trkpt><trkpt lat="59.5602942724" lon="31.2651708908"><ele>232.30</ele><time>2026-09-02T20:27:45Z</time></trkpt><trkpt lat="59.5602954458" lon="31.2651567254"><ele>232.30</ele><time>2026-09-02T20:27:46Z</time></trkpt><trkpt lat="59.5602959488" lon="31.2651450746"><ele>232.30</ele><time>2026-09-02T20:27:47Z</time></trkpt><trkpt lat="59.5602997206" lon="31.2651343457"><ele>232.30</ele><time>2026-09-02T20:27:48Z</time></trkpt><trkpt lat="59.5603028219" lon="31.2651234493"><ele>232.30</ele><time>2026-09-02T20:27:49Z</time></trkpt><trkpt lat="59.5603079349" lon="31.2651084457"><ele>232.30</ele><time>2026-09-02T20:27:50Z</time></trkpt><trkpt lat="59.5603108685" lon="31.2650966272"><ele>232.30</ele><time>2026-09-02T20:27:51Z</time></trkpt><trkpt lat="59.5603164844" lon="31.2650861498"><ele>232.30</ele><time>2026-09-02T20:27:52Z</time></trkpt><trkpt lat="59.5603212621" lon="31.2650778517"><ele>232.30</ele><time>2026-09-02T20:27:53Z</time></trkpt><trkpt lat="59.5603235252" lon="31.2650667876"><ele>232.30</ele><time>2026-09-02T20:27:54Z</time></trkpt><trkpt lat="59.5603229385" lon="31.2650575675"><ele>232.30</ele><time>2026-09-02T20:27:55Z</time></trkpt><trkpt lat="59.5603249501" lon="31.2650562264"><ele>232.30</ele><time>2026-09-02T20:27:56Z</time></trkpt><trkpt lat="59.5603246987" lon="31.2650556397"><ele>232.30</ele><time>2026-09-02T20:27:57Z</time></trkpt><trkpt lat="59.5603235252" lon="31.2650553882"><ele>232.30</ele><time>2026-09-02T20:27:58Z</time></trkpt><trkpt lat="59.5603235252" lon="31.2650553882"><ele>232.30</ele><time>2026-09-02T20:27:59Z</time></trkpt><trkpt lat="59.5603235252" lon="31.2650553882"><ele>232.30</ele><time>2026-09-02T20:28:00Z</time></trkpt><trkpt lat="59.5603235252" lon="31.2650553882"><ele>232.30</ele><time>2026-09-02T20:28:01Z</time></trkpt><trkpt lat="59.5603235252" lon="31.2650553882"><ele>232.30</ele><time>2026-09-02T20:28:02Z</time></trkpt><trkpt lat="59.5603235252" lon="31.2650553882"><ele>232.30</ele><time>2026-09-02T20:28:03Z</time></trkpt><trkpt lat="59.5603235252" lon="31.2650553882"><ele>232.30</ele><time>2026-09-02T20:28:04Z</time></trkpt><trkpt lat="59.5603235252" lon="31.2650553882"><ele>232.30</ele><time>2026-09-02T20:28:05Z</time></trkpt><trkpt lat="59.5603235252" lon="31.2650553882"><ele>232.30</ele><time>2026-09-02T20:28:06Z</time></trkpt><trkpt lat="59.5603235252" lon="31.2650553882"><ele>232.30</ele><time>2026-09-02T20:28:07Z</time></trkpt><trkpt lat="59.5603235252" lon="31.2650553882"><ele>232.30</ele><time>2026-09-02T20:28:08Z</time></trkpt><trkpt lat="59.5603235252" lon="31.2650553882"><ele>232.30</ele><time>2026-09-02T20:28:09Z</time></trkpt><trkpt lat="59.5603235252" lon="31.2650553882"><ele>232.30</ele><time>2026-09-02T20:28:10Z</time></trkpt><trkpt lat="59.5603064261" lon="31.2650231179"><ele>232.30</ele><time>2026-09-02T20:28:11Z</time></trkpt><trkpt lat="59.5603020675" lon="31.2650126405"><ele>232.30</ele><time>2026-09-02T20:28:12Z</time></trkpt><trkpt lat="59.5602968708" lon="31.2649984751"><ele>232.30</ele><time>2026-09-02T20:28:13Z</time></trkpt><trkpt lat="59.5602939371" lon="31.2649862375"><ele>232.30</ele><time>2026-09-02T20:28:14Z</time></trkpt><trkpt lat="59.5602927636" lon="31.2649801187"><ele>232.30</ele><time>2026-09-02T20:28:15Z</time></trkpt><trkpt lat="59.5602914225" lon="31.2649750896"><ele>232.30</ele><time>2026-09-02T20:28:16Z</time></trkpt><trkpt lat="59.5602888241" lon="31.2649665400"><ele>232.30</ele><time>2026-09-02T20:28:17Z</time></trkpt><trkpt lat="59.5602861419" lon="31.2649537995"><ele>232.30</ele><time>2026-09-02T20:28:18Z</time></trkpt><trkpt lat="59.5602838788" lon="31.2649382930"><ele>232.30</ele><time>2026-09-02T20:28:19Z</time></trkpt><trkpt lat="59.5602817833" lon="31.2649251334"><ele>232.30</ele><time>2026-09-02T20:28:20Z</time></trkpt><trkpt lat="59.5602789335" lon="31.2649098784"><ele>232.30</ele><time>2026-09-02T20:28:21Z</time></trkpt><trkpt lat="59.5602762513" lon="31.2648978923"><ele>232.30</ele><time>2026-09-02T20:28:22Z</time></trkpt><trkpt lat="59.5602720603" lon="31.2648814637"><ele>232.30</ele><time>2026-09-02T20:28:23Z</time></trkpt><trkpt lat="59.5602694619" lon="31.2648640294"><ele>232.30</ele><time>2026-09-02T20:28:24Z</time></trkpt><trkpt lat="59.5602678694" lon="31.2648471817"><ele>232.30</ele><time>2026-09-02T20:28:25Z</time></trkpt><trkpt lat="59.5602651872" lon="31.2648300827"><ele>232.30</ele><time>2026-09-02T20:28:26Z</time></trkpt><trkpt lat="59.5602603257" lon="31.2648148276"><ele>232.30</ele><time>2026-09-02T20:28:27Z</time></trkpt><trkpt lat="59.5602560509" lon="31.2648004945"><ele>232.30</ele><time>2026-09-02T20:28:28Z</time></trkpt><trkpt lat="59.5602519438" lon="31.2647873349"><ele>232.30</ele><time>2026-09-02T20:28:29Z</time></trkpt><trkpt lat="59.5602467470" lon="31.2647727504"><ele>232.30</ele><time>2026-09-02T20:28:30Z</time></trkpt><trkpt lat="59.5602424722" lon="31.2647578306"><ele>232.30</ele><time>2026-09-02T20:28:31Z</time></trkpt><trkpt lat="59.5602401253" lon="31.2647445872"><ele>232.30</ele><time>2026-09-02T20:28:32Z</time></trkpt><trkpt lat="59.5602392871" lon="31.2647366244"><ele>232.30</ele><time>2026-09-02T20:28:33Z</time></trkpt><trkpt lat="59.5602370240" lon="31.2647298351"><ele>232.30</ele><time>2026-09-02T20:28:34Z</time></trkpt><trkpt lat="59.5602367725" lon="31.2647223752"><ele>232.30</ele><time>2026-09-02T20:28:35Z</time></trkpt><trkpt lat="59.5602352638" lon="31.2647117302"><ele>232.30</ele><time>2026-09-02T20:28:36Z</time></trkpt><trkpt lat="59.5602335874" lon="31.2647020910"><ele>232.30</ele><time>2026-09-02T20:28:37Z</time></trkpt><trkpt lat="59.5602327492" lon="31.2646930385"><ele>232.30</ele><time>2026-09-02T20:28:38Z</time></trkpt><trkpt lat="59.5602334198" lon="31.2646871712"><ele>232.30</ele><time>2026-09-02T20:28:39Z</time></trkpt><trkpt lat="59.5602323301" lon="31.2646781188"><ele>232.30</ele><time>2026-09-02T20:28:40Z</time></trkpt><trkpt lat="59.5602309890" lon="31.2646708265"><ele>232.30</ele><time>2026-09-02T20:28:41Z</time></trkpt><trkpt lat="59.5602309890" lon="31.2646708265"><ele>232.30</ele><time>2026-09-02T20:28:42Z</time></trkpt><trkpt lat="59.5602308214" lon="31.2646537274"><ele>232.30</ele><time>2026-09-02T20:28:43Z</time></trkpt><trkpt lat="59.5602301508" lon="31.2646412384"><ele>232.30</ele><time>2026-09-02T20:28:44Z</time></trkpt><trkpt lat="59.5602297317" lon="31.2646304257"><ele>232.30</ele><time>2026-09-02T20:28:45Z</time></trkpt><trkpt lat="59.5602293964" lon="31.2646211218"><ele>232.30</ele><time>2026-09-02T20:28:46Z</time></trkpt><trkpt lat="59.5602306537" lon="31.2646128237"><ele>232.30</ele><time>2026-09-02T20:28:47Z</time></trkpt><trkpt lat="59.5602315757" lon="31.2646045256"><ele>232.30</ele><time>2026-09-02T20:28:48Z</time></trkpt><trkpt lat="59.5601505227" lon="31.2643899489"><ele>232.30</ele><time>2026-09-02T20:29:01Z</time></trkpt><trkpt lat="59.5601241197" lon="31.2644204590"><ele>232.30</ele><time>2026-09-02T20:29:02Z</time></trkpt><trkpt lat="59.5601188391" lon="31.2644339539"><ele>232.30</ele><time>2026-09-02T20:29:03Z</time></trkpt><trkpt lat="59.5601183362" lon="31.2644187827"><ele>232.30</ele><time>2026-09-02T20:29:04Z</time></trkpt><trkpt lat="59.5601176657" lon="31.2644144241"><ele>232.30</ele><time>2026-09-02T20:29:05Z</time></trkpt><trkpt lat="59.5601186715" lon="31.2644157652"><ele>232.30</ele><time>2026-09-02T20:29:06Z</time></trkpt><trkpt lat="59.5601125527" lon="31.2644069642"><ele>232.30</ele><time>2026-09-02T20:29:07Z</time></trkpt><trkpt lat="59.5601177495" lon="31.2644193694"><ele>232.30</ele><time>2026-09-02T20:29:08Z</time></trkpt><trkpt lat="59.5601142291" lon="31.2644203752"><ele>232.30</ele><time>2026-09-02T20:29:09Z</time></trkpt><trkpt lat="59.5601133909" lon="31.2644218840"><ele>232.30</ele><time>2026-09-02T20:29:10Z</time></trkpt><trkpt lat="59.5601143967" lon="31.2644243985"><ele>232.30</ele><time>2026-09-02T20:29:11Z</time></trkpt><trkpt lat="59.5601149835" lon="31.2644251529"><ele>232.30</ele><time>2026-09-02T20:29:12Z</time></trkpt><trkpt lat="59.5601148997" lon="31.2644273322"><ele>232.30</ele><time>2026-09-02T20:29:13Z</time></trkpt><trkpt lat="59.5601143967" lon="31.2644297630"><ele>232.30</ele><time>2026-09-02T20:29:14Z</time></trkpt><trkpt lat="59.5601137262" lon="31.2644303497"><ele>232.30</ele><time>2026-09-02T20:29:15Z</time></trkpt><trkpt lat="59.5601134747" lon="31.2644332834"><ele>232.30</ele><time>2026-09-02T20:29:16Z</time></trkpt><trkpt lat="59.5601128880" lon="31.2644342892"><ele>232.30</ele><time>2026-09-02T20:29:17Z</time></trkpt><trkpt lat="59.5601135585" lon="31.2644337863"><ele>232.30</ele><time>2026-09-02T20:29:18Z</time></trkpt><trkpt lat="59.5601145644" lon="31.2644327804"><ele>232.30</ele><time>2026-09-02T20:29:19Z</time></trkpt><trkpt lat="59.5601151511" lon="31.2644325290"><ele>232.30</ele><time>2026-09-02T20:29:20Z</time></trkpt><trkpt lat="59.5601156540" lon="31.2644325290"><ele>232.30</ele><time>2026-09-02T20:29:21Z</time></trkpt><trkpt lat="59.5601162408" lon="31.2644319423"><ele>232.30</ele><time>2026-09-02T20:29:22Z</time></trkpt><trkpt lat="59.5601167437" lon="31.2644330319"><ele>232.30</ele><time>2026-09-02T20:29:23Z</time></trkpt><trkpt lat="59.5601166598" lon="31.2644340377"><ele>232.30</ele><time>2026-09-02T20:29:24Z</time></trkpt><trkpt lat="59.5601163246" lon="31.2644356303"><ele>232.30</ele><time>2026-09-02T20:29:25Z</time></trkpt><trkpt lat="59.5601166598" lon="31.2644364685"><ele>232.30</ele><time>2026-09-02T20:29:26Z</time></trkpt><trkpt lat="59.5601162408" lon="31.2644375581"><ele>232.30</ele><time>2026-09-02T20:29:27Z</time></trkpt><trkpt lat="59.5601166598" lon="31.2644377258"><ele>232.30</ele><time>2026-09-02T20:29:28Z</time></trkpt><trkpt lat="59.5601178333" lon="31.2644383963"><ele>232.30</ele><time>2026-09-02T20:29:29Z</time></trkpt><trkpt lat="59.5601181686" lon="31.2644390669"><ele>232.30</ele><time>2026-09-02T20:29:30Z</time></trkpt><trkpt lat="59.5601171628" lon="31.2644398212"><ele>232.30</ele><time>2026-09-02T20:29:31Z</time></trkpt><trkpt lat="59.5601167437" lon="31.2644405756"><ele>232.30</ele><time>2026-09-02T20:29:32Z</time></trkpt><trkpt lat="59.5601166598" lon="31.2644413300"><ele>232.30</ele><time>2026-09-02T20:29:33Z</time></trkpt><trkpt lat="59.5601167437" lon="31.2644420844"><ele>232.30</ele><time>2026-09-02T20:29:34Z</time></trkpt><trkpt lat="59.5601172466" lon="31.2644427549"><ele>232.30</ele><time>2026-09-02T20:29:35Z</time></trkpt><trkpt lat="59.5601179171" lon="31.2644435931"><ele>232.30</ele><time>2026-09-02T20:29:36Z</time></trkpt><trkpt lat="59.5601176657" lon="31.2644416653"><ele>232.30</ele><time>2026-09-02T20:29:37Z</time></trkpt><trkpt lat="59.5601176657" lon="31.2644412462"><ele>232.30</ele><time>2026-09-02T20:29:38Z</time></trkpt><trkpt lat="59.5601179171" lon="31.2644420844"><ele>232.30</ele><time>2026-09-02T20:29:39Z</time></trkpt><trkpt lat="59.5601173304" lon="31.2644434255"><ele>232.30</ele><time>2026-09-02T20:29:40Z</time></trkpt><trkpt lat="59.5601164922" lon="31.2644451857"><ele>232.30</ele><time>2026-09-02T20:29:41Z</time></trkpt><trkpt lat="59.5601162408" lon="31.2644467782"><ele>232.30</ele><time>2026-09-02T20:29:42Z</time></trkpt><trkpt lat="59.5601159893" lon="31.2644479517"><ele>232.30</ele><time>2026-09-02T20:29:43Z</time></trkpt><trkpt lat="59.5601158217" lon="31.2644490413"><ele>232.30</ele><time>2026-09-02T20:29:44Z</time></trkpt><trkpt lat="59.5601155702" lon="31.2644495443"><ele>232.30</ele><time>2026-09-02T20:29:45Z</time></trkpt><trkpt lat="59.5601156540" lon="31.2644507177"><ele>232.30</ele><time>2026-09-02T20:29:46Z</time></trkpt><trkpt lat="59.5601161569" lon="31.2644518912"><ele>232.30</ele><time>2026-09-02T20:29:47Z</time></trkpt><trkpt lat="59.5601167437" lon="31.2644531485"><ele>232.30</ele><time>2026-09-02T20:29:48Z</time></trkpt><trkpt lat="59.5601169951" lon="31.2644535676"><ele>232.30</ele><time>2026-09-02T20:29:49Z</time></trkpt><trkpt lat="59.5601172466" lon="31.2644539867"><ele>232.30</ele><time>2026-09-02T20:29:50Z</time></trkpt><trkpt lat="59.5601175819" lon="31.2644542381"><ele>232.30</ele><time>2026-09-02T20:29:51Z</time></trkpt><trkpt lat="59.5601177495" lon="31.2644543219"><ele>232.30</ele><time>2026-09-02T20:29:52Z</time></trkpt><trkpt lat="59.5601178333" lon="31.2644553278"><ele>232.30</ele><time>2026-09-02T20:29:53Z</time></trkpt><trkpt lat="59.5601179171" lon="31.2644554954"><ele>232.30</ele><time>2026-09-02T20:29:54Z</time></trkpt><trkpt lat="59.5601180848" lon="31.2644562498"><ele>232.30</ele><time>2026-09-02T20:29:55Z</time></trkpt><trkpt lat="59.5601180848" lon="31.2644569203"><ele>232.30</ele><time>2026-09-02T20:29:56Z</time></trkpt><trkpt lat="59.5601182524" lon="31.2644565850"><ele>232.30</ele><time>2026-09-02T20:29:57Z</time></trkpt><trkpt lat="59.5601182524" lon="31.2644563336"><ele>232.30</ele><time>2026-09-02T20:29:58Z</time></trkpt><trkpt lat="59.5601179171" lon="31.2644554954"><ele>232.30</ele><time>2026-09-02T20:29:59Z</time></trkpt><trkpt lat="59.5601176657" lon="31.2644552439"><ele>232.30</ele><time>2026-09-02T20:30:00Z</time></trkpt><trkpt lat="59.5601171628" lon="31.2644545734"><ele>232.30</ele><time>2026-09-02T20:30:01Z</time></trkpt><trkpt lat="59.5601159893" lon="31.2644542381"><ele>232.30</ele><time>2026-09-02T20:30:02Z</time></trkpt><trkpt lat="59.5601158217" lon="31.2644534837"><ele>232.30</ele><time>2026-09-02T20:30:03Z</time></trkpt><trkpt lat="59.5601150673" lon="31.2644533999"><ele>232.30</ele><time>2026-09-02T20:30:04Z</time></trkpt><trkpt lat="59.5601147320" lon="31.2644525617"><ele>232.30</ele><time>2026-09-02T20:30:05Z</time></trkpt><trkpt lat="59.5601140615" lon="31.2644518912"><ele>232.30</ele><time>2026-09-02T20:30:06Z</time></trkpt><trkpt lat="59.5601144806" lon="31.2644510530"><ele>232.30</ele><time>2026-09-02T20:30:07Z</time></trkpt><trkpt lat="59.5601140615" lon="31.2644503824"><ele>232.30</ele><time>2026-09-02T20:30:08Z</time></trkpt><trkpt lat="59.5601146482" lon="31.2644500472"><ele>232.30</ele><time>2026-09-02T20:30:09Z</time></trkpt><trkpt lat="59.5601149835" lon="31.2644496281"><ele>232.30</ele><time>2026-09-02T20:30:10Z</time></trkpt><trkpt lat="59.5601148997" lon="31.2644493766"><ele>232.30</ele><time>2026-09-02T20:30:11Z</time></trkpt><trkpt lat="59.5601146482" lon="31.2644495443"><ele>232.30</ele><time>2026-09-02T20:30:12Z</time></trkpt><trkpt lat="59.5601144806" lon="31.2644495443"><ele>232.30</ele><time>2026-09-02T20:30:13Z</time></trkpt><trkpt lat="59.5601144806" lon="31.2644488737"><ele>232.30</ele><time>2026-09-02T20:30:14Z</time></trkpt><trkpt lat="59.5601143967" lon="31.2644467782"><ele>232.30</ele><time>2026-09-02T20:30:15Z</time></trkpt><trkpt lat="59.5601154864" lon="31.2644461915"><ele>232.30</ele><time>2026-09-02T20:30:16Z</time></trkpt><trkpt lat="59.5601169951" lon="31.2644476164"><ele>232.30</ele><time>2026-09-02T20:30:17Z</time></trkpt><trkpt lat="59.5601180848" lon="31.2644485384"><ele>232.30</ele><time>2026-09-02T20:30:18Z</time></trkpt><trkpt lat="59.5601182524" lon="31.2644483708"><ele>232.30</ele><time>2026-09-02T20:30:19Z</time></trkpt><trkpt lat="59.5601182524" lon="31.2644499633"><ele>232.30</ele><time>2026-09-02T20:30:20Z</time></trkpt><trkpt lat="59.5601188391" lon="31.2644487899"><ele>232.30</ele><time>2026-09-02T20:30:21Z</time></trkpt><trkpt lat="59.5601188391" lon="31.2644486222"><ele>232.30</ele><time>2026-09-02T20:30:22Z</time></trkpt><trkpt lat="59.5601187553" lon="31.2644504663"><ele>232.30</ele><time>2026-09-02T20:30:23Z</time></trkpt><trkpt lat="59.5601172466" lon="31.2644486222"><ele>232.30</ele><time>2026-09-02T20:30:24Z</time></trkpt><trkpt lat="59.5601172466" lon="31.2644501310"><ele>232.30</ele><time>2026-09-02T20:30:25Z</time></trkpt><trkpt lat="59.5601176657" lon="31.2644511368"><ele>232.30</ele><time>2026-09-02T20:30:26Z</time></trkpt><trkpt lat="59.5601177495" lon="31.2644517235"><ele>232.30</ele><time>2026-09-02T20:30:27Z</time></trkpt><trkpt lat="59.5601176657" lon="31.2644506339"><ele>232.30</ele><time>2026-09-02T20:30:28Z</time></trkpt><trkpt lat="59.5601132233" lon="31.2644520588"><ele>232.30</ele><time>2026-09-02T20:30:29Z</time></trkpt><trkpt lat="59.5601107925" lon="31.2644511368"><ele>232.30</ele><time>2026-09-02T20:30:30Z</time></trkpt><trkpt lat="59.5601082779" lon="31.2644516397"><ele>232.30</ele><time>2026-09-02T20:30:31Z</time></trkpt><trkpt lat="59.5601058472" lon="31.2644526456"><ele>232.30</ele><time>2026-09-02T20:30:32Z</time></trkpt><trkpt lat="59.5601032488" lon="31.2644518912"><ele>231.81</ele><time>2026-09-02T20:30:33Z</time></trkpt><trkpt lat="59.5601013210" lon="31.2644524779"><ele>231.81</ele><time>2026-09-02T20:30:34Z</time></trkpt><trkpt lat="59.5600974653" lon="31.2644538190"><ele>231.81</ele><time>2026-09-02T20:30:35Z</time></trkpt><trkpt lat="59.5600947831" lon="31.2644570880"><ele>231.81</ele><time>2026-09-02T20:30:36Z</time></trkpt><trkpt lat="59.5600944478" lon="31.2644547410"><ele>231.81</ele><time>2026-09-02T20:30:37Z</time></trkpt><trkpt lat="59.5600926876" lon="31.2644561660"><ele>231.81</ele><time>2026-09-02T20:30:38Z</time></trkpt><trkpt lat="59.5600918494" lon="31.2644592673"><ele>231.81</ele><time>2026-09-02T20:30:39Z</time></trkpt><trkpt lat="59.5600914303" lon="31.2644610275"><ele>231.81</ele><time>2026-09-02T20:30:40Z</time></trkpt><trkpt lat="59.5600910950" lon="31.2644608598"><ele>231.81</ele><time>2026-09-02T20:30:41Z</time></trkpt><trkpt lat="59.5600910950" lon="31.2644619495"><ele>232.30</ele><time>2026-09-02T20:30:42Z</time></trkpt><trkpt lat="59.5600877423" lon="31.2644665595"><ele>232.30</ele><time>2026-09-02T20:30:43Z</time></trkpt><trkpt lat="59.5600854792" lon="31.2644668948"><ele>232.30</ele><time>2026-09-02T20:30:44Z</time></trkpt><trkpt lat="59.5600808691" lon="31.2644673977"><ele>232.30</ele><time>2026-09-02T20:30:45Z</time></trkpt><trkpt lat="59.5600772649" lon="31.2644690741"><ele>232.30</ele><time>2026-09-02T20:30:46Z</time></trkpt><trkpt lat="59.5600712299" lon="31.2644756958"><ele>232.30</ele><time>2026-09-02T20:30:47Z</time></trkpt><trkpt lat="59.5600653626" lon="31.2644821499"><ele>232.30</ele><time>2026-09-02T20:30:48Z</time></trkpt><trkpt lat="59.5600590762" lon="31.2644886877"><ele>232.30</ele><time>2026-09-02T20:30:49Z</time></trkpt><trkpt lat="59.5600517839" lon="31.2644983269"><ele>232.30</ele><time>2026-09-02T20:30:50Z</time></trkpt><trkpt lat="59.5600452460" lon="31.2645054515"><ele>232.30</ele><time>2026-09-02T20:30:51Z</time></trkpt><trkpt lat="59.5600389596" lon="31.2645068765"><ele>232.30</ele><time>2026-09-02T20:30:52Z</time></trkpt><trkpt lat="59.5600344334" lon="31.2645113189"><ele>232.30</ele><time>2026-09-02T20:30:53Z</time></trkpt><trkpt lat="59.5600285660" lon="31.2645211257"><ele>232.30</ele><time>2026-09-02T20:30:54Z</time></trkpt><trkpt lat="59.5600222796" lon="31.2645348720"><ele>232.30</ele><time>2026-09-02T20:30:55Z</time></trkpt><trkpt lat="59.5600183401" lon="31.2645509653"><ele>232.30</ele><time>2026-09-02T20:30:56Z</time></trkpt><trkpt lat="59.5600152388" lon="31.2645609397"><ele>232.30</ele><time>2026-09-02T20:30:57Z</time></trkpt><trkpt lat="59.5600134786" lon="31.2645694893"><ele>232.30</ele><time>2026-09-02T20:30:58Z</time></trkpt><trkpt lat="59.5600121375" lon="31.2645759434"><ele>232.30</ele><time>2026-09-02T20:30:59Z</time></trkpt><trkpt lat="59.5600105450" lon="31.2645833194"><ele>232.30</ele><time>2026-09-02T20:31:00Z</time></trkpt><trkpt lat="59.5600074437" lon="31.2645904440"><ele>232.30</ele><time>2026-09-02T20:31:01Z</time></trkpt><trkpt lat="59.5600049291" lon="31.2645987421"><ele>232.30</ele><time>2026-09-02T20:31:02Z</time></trkpt><trkpt lat="59.5600008219" lon="31.2646040227"><ele>232.30</ele><time>2026-09-02T20:31:03Z</time></trkpt><trkpt lat="59.5600004867" lon="31.2646058667"><ele>232.30</ele><time>2026-09-02T20:31:04Z</time></trkpt><trkpt lat="59.5599988941" lon="31.2646110635"><ele>232.30</ele><time>2026-09-02T20:31:05Z</time></trkpt><trkpt lat="59.5599977206" lon="31.2646179367"><ele>232.30</ele><time>2026-09-02T20:31:06Z</time></trkpt><trkpt lat="59.5599960443" lon="31.2646264862"><ele>232.30</ele><time>2026-09-02T20:31:07Z</time></trkpt><trkpt lat="59.5599939488" lon="31.2646331917"><ele>232.30</ele><time>2026-09-02T20:31:08Z</time></trkpt><trkpt lat="59.5599888358" lon="31.2646380533"><ele>232.30</ele><time>2026-09-02T20:31:09Z</time></trkpt><trkpt lat="59.5599860698" lon="31.2646490335"><ele>232.30</ele><time>2026-09-02T20:31:10Z</time></trkpt><trkpt lat="59.5599832200" lon="31.2646561582"><ele>232.30</ele><time>2026-09-02T20:31:11Z</time></trkpt><trkpt lat="59.5599800348" lon="31.2646669708"><ele>232.30</ele><time>2026-09-02T20:31:12Z</time></trkpt><trkpt lat="59.5599762630" lon="31.2646823935"><ele>232.30</ele><time>2026-09-02T20:31:13Z</time></trkpt><trkpt lat="59.5599723235" lon="31.2646947987"><ele>232.30</ele><time>2026-09-02T20:31:14Z</time></trkpt><trkpt lat="59.5599688869" lon="31.2647093832"><ele>232.30</ele><time>2026-09-02T20:31:15Z</time></trkpt><trkpt lat="59.5599650312" lon="31.2647207826"><ele>232.30</ele><time>2026-09-02T20:31:16Z</time></trkpt><trkpt lat="59.5599621814" lon="31.2647371273"><ele>232.30</ele><time>2026-09-02T20:31:17Z</time></trkpt><trkpt lat="59.5599599183" lon="31.2647513766"><ele>232.30</ele><time>2026-09-02T20:31:18Z</time></trkpt><trkpt lat="59.5599582419" lon="31.2647608481"><ele>232.30</ele><time>2026-09-02T20:31:19Z</time></trkpt><trkpt lat="59.5599529613" lon="31.2647649553"><ele>232.30</ele><time>2026-09-02T20:31:20Z</time></trkpt><trkpt lat="59.5599454176" lon="31.2647758517"><ele>232.30</ele><time>2026-09-02T20:31:21Z</time></trkpt><trkpt lat="59.5599409752" lon="31.2647811323"><ele>232.30</ele><time>2026-09-02T20:31:22Z</time></trkpt><trkpt lat="59.5599352755" lon="31.2647866644"><ele>232.30</ele><time>2026-09-02T20:31:23Z</time></trkpt><trkpt lat="59.5599255525" lon="31.2647935376"><ele>232.30</ele><time>2026-09-02T20:31:24Z</time></trkpt><trkpt lat="59.5599187631" lon="31.2648024224"><ele>232.30</ele><time>2026-09-02T20:31:25Z</time></trkpt><trkpt lat="59.5599150751" lon="31.2648122292"><ele>232.30</ele><time>2026-09-02T20:31:26Z</time></trkpt><trkpt lat="59.5599102974" lon="31.2648251373"><ele>232.30</ele><time>2026-09-02T20:31:27Z</time></trkpt><trkpt lat="59.5599062741" lon="31.2648397218"><ele>232.30</ele><time>2026-09-02T20:31:28Z</time></trkpt><trkpt lat="59.5599031728" lon="31.2648527976"><ele>232.30</ele><time>2026-09-02T20:31:29Z</time></trkpt><trkpt lat="59.5598984789" lon="31.2648653705"><ele>232.30</ele><time>2026-09-02T20:31:30Z</time></trkpt><trkpt lat="59.5598934498" lon="31.2648778595"><ele>232.30</ele><time>2026-09-02T20:31:31Z</time></trkpt><trkpt lat="59.5598882530" lon="31.2648868281"><ele>232.30</ele><time>2026-09-02T20:31:32Z</time></trkpt><trkpt lat="59.5598823857" lon="31.2648963835"><ele>232.30</ele><time>2026-09-02T20:31:33Z</time></trkpt><trkpt lat="59.5598743390" lon="31.2649066932"><ele>232.30</ele><time>2026-09-02T20:31:34Z</time></trkpt><trkpt lat="59.5598672982" lon="31.2649151590"><ele>232.30</ele><time>2026-09-02T20:31:35Z</time></trkpt><trkpt lat="59.5598628558" lon="31.2649148237"><ele>232.30</ele><time>2026-09-02T20:31:36Z</time></trkpt><trkpt lat="59.5598562341" lon="31.2649167515"><ele>232.30</ele><time>2026-09-02T20:31:37Z</time></trkpt><trkpt lat="59.5598478522" lon="31.2649138179"><ele>232.30</ele><time>2026-09-02T20:31:38Z</time></trkpt><trkpt lat="59.5598406438" lon="31.2649120577"><ele>232.30</ele><time>2026-09-02T20:31:39Z</time></trkpt><trkpt lat="59.5598342735" lon="31.2649094593"><ele>232.30</ele><time>2026-09-02T20:31:40Z</time></trkpt><trkpt lat="59.5598264784" lon="31.2649040949"><ele>232.30</ele><time>2026-09-02T20:31:41Z</time></trkpt><trkpt lat="59.5598191861" lon="31.2649013288"><ele>232.30</ele><time>2026-09-02T20:31:42Z</time></trkpt><trkpt lat="59.5598120615" lon="31.2649034243"><ele>232.30</ele><time>2026-09-02T20:31:43Z</time></trkpt><trkpt lat="59.5598076191" lon="31.2649077829"><ele>232.30</ele><time>2026-09-02T20:31:44Z</time></trkpt><trkpt lat="59.5598054398" lon="31.2649147399"><ele>232.30</ele><time>2026-09-02T20:31:45Z</time></trkpt><trkpt lat="59.5598040987" lon="31.2649225350"><ele>232.30</ele><time>2026-09-02T20:31:46Z</time></trkpt><trkpt lat="59.5598019194" lon="31.2649395503"><ele>232.30</ele><time>2026-09-02T20:31:47Z</time></trkpt><trkpt lat="59.5598010812" lon="31.2649523746"><ele>232.30</ele><time>2026-09-02T20:31:48Z</time></trkpt><trkpt lat="59.5598003268" lon="31.2649634387"><ele>232.30</ele><time>2026-09-02T20:31:49Z</time></trkpt><trkpt lat="59.5597966388" lon="31.2649761792"><ele>232.30</ele><time>2026-09-02T20:31:50Z</time></trkpt><trkpt lat="59.5597936213" lon="31.2649835553"><ele>232.30</ele><time>2026-09-02T20:31:51Z</time></trkpt><trkpt lat="59.5597893465" lon="31.2649930269"><ele>232.30</ele><time>2026-09-02T20:31:52Z</time></trkpt><trkpt lat="59.5597844850" lon="31.2650061864"><ele>232.30</ele><time>2026-09-02T20:31:53Z</time></trkpt><trkpt lat="59.5597815514" lon="31.2650125567"><ele>232.30</ele><time>2026-09-02T20:31:54Z</time></trkpt><trkpt lat="59.5597781986" lon="31.2650183402"><ele>232.30</ele><time>2026-09-02T20:31:55Z</time></trkpt><trkpt lat="59.5597749297" lon="31.2650215253"><ele>232.30</ele><time>2026-09-02T20:31:56Z</time></trkpt><trkpt lat="59.5597727504" lon="31.2650218606"><ele>232.30</ele><time>2026-09-02T20:31:57Z</time></trkpt><trkpt lat="59.5597679727" lon="31.2650253810"><ele>232.30</ele><time>2026-09-02T20:31:58Z</time></trkpt><trkpt lat="59.5597637817" lon="31.2650272250"><ele>232.30</ele><time>2026-09-02T20:31:59Z</time></trkpt><trkpt lat="59.5597589202" lon="31.2650325894"><ele>232.30</ele><time>2026-09-02T20:32:00Z</time></trkpt><trkpt lat="59.5597538911" lon="31.2650335953"><ele>232.30</ele><time>2026-09-02T20:32:01Z</time></trkpt><trkpt lat="59.5597568247" lon="31.2650339305"><ele>232.30</ele><time>2026-09-02T20:32:02Z</time></trkpt><trkpt lat="59.5597537234" lon="31.2650353555"><ele>232.30</ele><time>2026-09-02T20:32:03Z</time></trkpt><trkpt lat="59.5597487781" lon="31.2650398817"><ele>232.30</ele><time>2026-09-02T20:32:04Z</time></trkpt><trkpt lat="59.5597423241" lon="31.2650444917"><ele>232.30</ele><time>2026-09-02T20:32:05Z</time></trkpt><trkpt lat="59.5597370435" lon="31.2650498562"><ele>232.30</ele><time>2026-09-02T20:32:06Z</time></trkpt><trkpt lat="59.5597328525" lon="31.2650539633"><ele>232.30</ele><time>2026-09-02T20:32:07Z</time></trkpt><trkpt lat="59.5597260632" lon="31.2650554720"><ele>232.30</ele><time>2026-09-02T20:32:08Z</time></trkpt><trkpt lat="59.5597174298" lon="31.2650526222"><ele>232.30</ele><time>2026-09-02T20:32:09Z</time></trkpt><trkpt lat="59.5597103890" lon="31.2650527898"><ele>232.30</ele><time>2026-09-02T20:32:10Z</time></trkpt><trkpt lat="59.5597031806" lon="31.2650551368"><ele>232.30</ele><time>2026-09-02T20:32:11Z</time></trkpt><trkpt lat="59.5596979000" lon="31.2650588248"><ele>232.30</ele><time>2026-09-02T20:32:12Z</time></trkpt><trkpt lat="59.5596942957" lon="31.2650600821"><ele>232.30</ele><time>2026-09-02T20:32:13Z</time></trkpt><trkpt lat="59.5596893504" lon="31.2650618423"><ele>232.30</ele><time>2026-09-02T20:32:14Z</time></trkpt><trkpt lat="59.5596854948" lon="31.2650577351"><ele>232.30</ele><time>2026-09-02T20:32:15Z</time></trkpt><trkpt lat="59.5596771967" lon="31.2650659494"><ele>232.30</ele><time>2026-09-02T20:32:16Z</time></trkpt><trkpt lat="59.5596819744" lon="31.2650583219"><ele>232.30</ele><time>2026-09-02T20:32:17Z</time></trkpt><trkpt lat="59.5596774481" lon="31.2650652789"><ele>232.30</ele><time>2026-09-02T20:32:18Z</time></trkpt><trkpt lat="59.5596760232" lon="31.2650675420"><ele>232.30</ele><time>2026-09-02T20:32:19Z</time></trkpt><trkpt lat="59.5596739277" lon="31.2650699727"><ele>232.30</ele><time>2026-09-02T20:32:20Z</time></trkpt><trkpt lat="59.5596714970" lon="31.2650716491"><ele>232.30</ele><time>2026-09-02T20:32:21Z</time></trkpt><trkpt lat="59.5596696530" lon="31.2650711462"><ele>232.30</ele><time>2026-09-02T20:32:22Z</time></trkpt><trkpt lat="59.5596676413" lon="31.2650721520"><ele>232.30</ele><time>2026-09-02T20:32:23Z</time></trkpt><trkpt lat="59.5596652944" lon="31.2650743313"><ele>232.30</ele><time>2026-09-02T20:32:24Z</time></trkpt><trkpt lat="59.5596622769" lon="31.2650738284"><ele>232.30</ele><time>2026-09-02T20:32:25Z</time></trkpt><trkpt lat="59.5596571639" lon="31.2650778517"><ele>231.81</ele><time>2026-09-02T20:32:26Z</time></trkpt><trkpt lat="59.5596518833" lon="31.2650849763"><ele>231.81</ele><time>2026-09-02T20:32:27Z</time></trkpt><trkpt lat="59.5596476924" lon="31.2650906760"><ele>231.81</ele><time>2026-09-02T20:32:28Z</time></trkpt><trkpt lat="59.5596441720" lon="31.2650956213"><ele>231.81</ele><time>2026-09-02T20:32:29Z</time></trkpt><trkpt lat="59.5596412383" lon="31.2651003990"><ele>231.81</ele><time>2026-09-02T20:32:30Z</time></trkpt><trkpt lat="59.5596363768" lon="31.2651053444"><ele>232.30</ele><time>2026-09-02T20:32:31Z</time></trkpt><trkpt lat="59.5596312638" lon="31.2651104573"><ele>232.30</ele><time>2026-09-02T20:32:32Z</time></trkpt><trkpt lat="59.5596344490" lon="31.2651090324"><ele>232.30</ele><time>2026-09-02T20:32:33Z</time></trkpt><trkpt lat="59.5596306771" lon="31.2651122175"><ele>232.30</ele><time>2026-09-02T20:32:34Z</time></trkpt><trkpt lat="59.5596304256" lon="31.2651146483"><ele>232.30</ele><time>2026-09-02T20:32:35Z</time></trkpt><trkpt lat="59.5596291684" lon="31.2651173305"><ele>232.30</ele><time>2026-09-02T20:32:36Z</time></trkpt><trkpt lat="59.5596282464" lon="31.2651177496"><ele>232.30</ele><time>2026-09-02T20:32:37Z</time></trkpt><trkpt lat="59.5596274920" lon="31.2651206832"><ele>232.30</ele><time>2026-09-02T20:32:38Z</time></trkpt><trkpt lat="59.5596258994" lon="31.2651269697"><ele>232.30</ele><time>2026-09-02T20:32:39Z</time></trkpt><trkpt lat="59.5596250612" lon="31.2651340943"><ele>232.30</ele><time>2026-09-02T20:32:40Z</time></trkpt><trkpt lat="59.5596237201" lon="31.2651435658"><ele>232.30</ele><time>2026-09-02T20:32:41Z</time></trkpt><trkpt lat="59.5596208703" lon="31.2651521992"><ele>232.30</ele><time>2026-09-02T20:32:42Z</time></trkpt><trkpt lat="59.5596178528" lon="31.2651600782"><ele>232.30</ele><time>2026-09-02T20:32:43Z</time></trkpt><trkpt lat="59.5596187748" lon="31.2651601620"><ele>232.78</ele><time>2026-09-02T20:32:44Z</time></trkpt><trkpt lat="59.5596155897" lon="31.2651664484"><ele>232.78</ele><time>2026-09-02T20:32:45Z</time></trkpt><trkpt lat="59.5596124884" lon="31.2651758362"><ele>232.78</ele><time>2026-09-02T20:32:46Z</time></trkpt><trkpt lat="59.5596129913" lon="31.2651894987"><ele>232.78</ele><time>2026-09-02T20:32:47Z</time></trkpt><trkpt lat="59.5596132427" lon="31.2652030773"><ele>232.78</ele><time>2026-09-02T20:32:48Z</time></trkpt><trkpt lat="59.5596167631" lon="31.2652148958"><ele>232.78</ele><time>2026-09-02T20:32:49Z</time></trkpt><trkpt lat="59.5596174337" lon="31.2652273849"><ele>232.78</ele><time>2026-09-02T20:32:50Z</time></trkpt><trkpt lat="59.5596173499" lon="31.2652352639"><ele>232.78</ele><time>2026-09-02T20:32:51Z</time></trkpt><trkpt lat="59.5596125722" lon="31.2652431428"><ele>232.78</ele><time>2026-09-02T20:32:52Z</time></trkpt><trkpt lat="59.5596112311" lon="31.2652516924"><ele>232.78</ele><time>2026-09-02T20:32:53Z</time></trkpt><trkpt lat="59.5596086327" lon="31.2652656902"><ele>232.78</ele><time>2026-09-02T20:32:54Z</time></trkpt><trkpt lat="59.5596055314" lon="31.2652747426"><ele>232.78</ele><time>2026-09-02T20:32:55Z</time></trkpt><trkpt lat="59.5596023463" lon="31.2652819511"><ele>232.78</ele><time>2026-09-02T20:32:56Z</time></trkpt><trkpt lat="59.5595996641" lon="31.2652926799"><ele>232.78</ele><time>2026-09-02T20:32:57Z</time></trkpt><trkpt lat="59.5595972333" lon="31.2653087731"><ele>232.78</ele><time>2026-09-02T20:32:58Z</time></trkpt><trkpt lat="59.5595956407" lon="31.2653243635"><ele>232.78</ele><time>2026-09-02T20:32:59Z</time></trkpt><trkpt lat="59.5595911983" lon="31.2653416302"><ele>232.78</ele><time>2026-09-02T20:33:00Z</time></trkpt><trkpt lat="59.5595870912" lon="31.2653606571"><ele>232.78</ele><time>2026-09-02T20:33:01Z</time></trkpt><trkpt lat="59.5595844928" lon="31.2653825339"><ele>232.78</ele><time>2026-09-02T20:33:02Z</time></trkpt><trkpt lat="59.5595779549" lon="31.2654065900"><ele>232.78</ele><time>2026-09-02T20:33:03Z</time></trkpt><trkpt lat="59.5595721714" lon="31.2654302269"><ele>232.78</ele><time>2026-09-02T20:33:04Z</time></trkpt><trkpt lat="59.5595686510" lon="31.2654433865"><ele>232.78</ele><time>2026-09-02T20:33:05Z</time></trkpt><trkpt lat="59.5595652983" lon="31.2654505949"><ele>232.78</ele><time>2026-09-02T20:33:06Z</time></trkpt><trkpt lat="59.5595639572" lon="31.2654648442"><ele>232.78</ele><time>2026-09-02T20:33:07Z</time></trkpt><trkpt lat="59.5595625322" lon="31.2654727232"><ele>232.78</ele><time>2026-09-02T20:33:08Z</time></trkpt><trkpt lat="59.5595608559" lon="31.2654780876"><ele>232.78</ele><time>2026-09-02T20:33:09Z</time></trkpt><trkpt lat="59.5595609397" lon="31.2654788420"><ele>232.78</ele><time>2026-09-02T20:33:10Z</time></trkpt><trkpt lat="59.5595616940" lon="31.2654782552"><ele>232.78</ele><time>2026-09-02T20:33:11Z</time></trkpt><trkpt lat="59.5595646277" lon="31.2654827815"><ele>232.78</ele><time>2026-09-02T20:33:12Z</time></trkpt><trkpt lat="59.5595667232" lon="31.2654907443"><ele>232.78</ele><time>2026-09-02T20:33:13Z</time></trkpt><trkpt lat="59.5595709980" lon="31.2654991262"><ele>232.78</ele><time>2026-09-02T20:33:14Z</time></trkpt><trkpt lat="59.5595751889" lon="31.2655059993"><ele>232.78</ele><time>2026-09-02T20:33:15Z</time></trkpt><trkpt lat="59.5595790446" lon="31.2655137945"><ele>232.78</ele><time>2026-09-02T20:33:16Z</time></trkpt><trkpt lat="59.5595816430" lon="31.2655199971"><ele>232.78</ele><time>2026-09-02T20:33:17Z</time></trkpt><trkpt lat="59.5595862530" lon="31.2655318994"><ele>232.78</ele><time>2026-09-02T20:33:18Z</time></trkpt><trkpt lat="59.5595889352" lon="31.2655407842"><ele>232.78</ele><time>2026-09-02T20:33:19Z</time></trkpt><trkpt lat="59.5595892705" lon="31.2655455619"><ele>232.78</ele><time>2026-09-02T20:33:20Z</time></trkpt><trkpt lat="59.5595899411" lon="31.2655566260"><ele>232.78</ele><time>2026-09-02T20:33:21Z</time></trkpt><trkpt lat="59.5595909469" lon="31.2655731384"><ele>232.78</ele><time>2026-09-02T20:33:22Z</time></trkpt><trkpt lat="59.5595917851" lon="31.2655849569"><ele>232.78</ele><time>2026-09-02T20:33:23Z</time></trkpt><trkpt lat="59.5595921203" lon="31.2655989546"><ele>232.78</ele><time>2026-09-02T20:33:24Z</time></trkpt><trkpt lat="59.5595937967" lon="31.2656172272"><ele>232.78</ele><time>2026-09-02T20:33:25Z</time></trkpt><trkpt lat="59.5595948864" lon="31.2656330690"><ele>232.78</ele><time>2026-09-02T20:33:26Z</time></trkpt><trkpt lat="59.5595953893" lon="31.2656470668"><ele>232.78</ele><time>2026-09-02T20:33:27Z</time></trkpt><trkpt lat="59.5595936291" lon="31.2656611484"><ele>232.78</ele><time>2026-09-02T20:33:28Z</time></trkpt><trkpt lat="59.5595916174" lon="31.2656754814"><ele>232.78</ele><time>2026-09-02T20:33:29Z</time></trkpt><trkpt lat="59.5595821459" lon="31.2656961847"><ele>232.78</ele><time>2026-09-02T20:33:30Z</time></trkpt><trkpt lat="59.5595753565" lon="31.2657159660"><ele>232.78</ele><time>2026-09-02T20:33:31Z</time></trkpt><trkpt lat="59.5595706627" lon="31.2657305505"><ele>232.78</ele><time>2026-09-02T20:33:32Z</time></trkpt><trkpt lat="59.5595653821" lon="31.2657412793"><ele>232.78</ele><time>2026-09-02T20:33:33Z</time></trkpt><trkpt lat="59.5595623646" lon="31.2657450512"><ele>232.78</ele><time>2026-09-02T20:33:34Z</time></trkpt><trkpt lat="59.5595589280" lon="31.2657497451"><ele>232.78</ele><time>2026-09-02T20:33:35Z</time></trkpt><trkpt lat="59.5595550723" lon="31.2657546904"><ele>232.78</ele><time>2026-09-02T20:33:36Z</time></trkpt><trkpt lat="59.5595530607" lon="31.2657577917"><ele>232.78</ele><time>2026-09-02T20:33:37Z</time></trkpt><trkpt lat="59.5595479477" lon="31.2657657545"><ele>232.78</ele><time>2026-09-02T20:33:38Z</time></trkpt><trkpt lat="59.5595414937" lon="31.2657686882"><ele>232.78</ele><time>2026-09-02T20:33:39Z</time></trkpt><trkpt lat="59.5595389791" lon="31.2657681853"><ele>232.78</ele><time>2026-09-02T20:33:40Z</time></trkpt><trkpt lat="59.5595349558" lon="31.2657667603"><ele>232.78</ele><time>2026-09-02T20:33:41Z</time></trkpt><trkpt lat="59.5595310163" lon="31.2657632399"><ele>232.78</ele><time>2026-09-02T20:33:42Z</time></trkpt><trkpt lat="59.5595237240" lon="31.2657597195"><ele>232.78</ele><time>2026-09-02T20:33:43Z</time></trkpt><trkpt lat="59.5595279988" lon="31.2657608930"><ele>232.78</ele><time>2026-09-02T20:33:44Z</time></trkpt><trkpt lat="59.5595241431" lon="31.2657565344"><ele>232.78</ele><time>2026-09-02T20:33:45Z</time></trkpt><trkpt lat="59.5595226344" lon="31.2657550257"><ele>232.78</ele><time>2026-09-02T20:33:46Z</time></trkpt><trkpt lat="59.5595219638" lon="31.2657538522"><ele>232.78</ele><time>2026-09-02T20:33:47Z</time></trkpt><trkpt lat="59.5595211256" lon="31.2657546904"><ele>232.78</ele><time>2026-09-02T20:33:48Z</time></trkpt><trkpt lat="59.5595205389" lon="31.2657529302"><ele>232.78</ele><time>2026-09-02T20:33:49Z</time></trkpt><trkpt lat="59.5595177729" lon="31.2657475658"><ele>232.78</ele><time>2026-09-02T20:33:50Z</time></trkpt><trkpt lat="59.5595128275" lon="31.2657339871"><ele>232.78</ele><time>2026-09-02T20:33:51Z</time></trkpt><trkpt lat="59.5595069602" lon="31.2657285389"><ele>232.78</ele><time>2026-09-02T20:33:52Z</time></trkpt><trkpt lat="59.5595036913" lon="31.2657206599"><ele>232.78</ele><time>2026-09-02T20:33:53Z</time></trkpt><trkpt lat="59.5594984945" lon="31.2657132838"><ele>232.78</ele><time>2026-09-02T20:33:54Z</time></trkpt><trkpt lat="59.5594927948" lon="31.2657077517"><ele>232.78</ele><time>2026-09-02T20:33:55Z</time></trkpt><trkpt lat="59.5594873466" lon="31.2657034770"><ele>232.78</ele><time>2026-09-02T20:33:56Z</time></trkpt><trkpt lat="59.5594856702" lon="31.2656986993"><ele>232.78</ele><time>2026-09-02T20:33:57Z</time></trkpt><trkpt lat="59.5594792999" lon="31.2656950951"><ele>232.78</ele><time>2026-09-02T20:33:58Z</time></trkpt><trkpt lat="59.5594821498" lon="31.2656949274"><ele>232.78</ele><time>2026-09-02T20:33:59Z</time></trkpt><trkpt lat="59.5594788808" lon="31.2656932510"><ele>232.78</ele><time>2026-09-02T20:34:00Z</time></trkpt><trkpt lat="59.5594740193" lon="31.2656901497"><ele>232.78</ele><time>2026-09-02T20:34:01Z</time></trkpt><trkpt lat="59.5594696607" lon="31.2656865455"><ele>233.26</ele><time>2026-09-02T20:34:02Z</time></trkpt><trkpt lat="59.5594596863" lon="31.2656817678"><ele>233.26</ele><time>2026-09-02T20:34:03Z</time></trkpt><trkpt lat="59.5594530646" lon="31.2656814326"><ele>233.26</ele><time>2026-09-02T20:34:04Z</time></trkpt><trkpt lat="59.5594460238" lon="31.2656888925"><ele>233.26</ele><time>2026-09-02T20:34:05Z</time></trkpt><trkpt lat="59.5594390668" lon="31.2656924967"><ele>233.26</ele><time>2026-09-02T20:34:06Z</time></trkpt><trkpt lat="59.5594344568" lon="31.2656973582"><ele>233.74</ele><time>2026-09-02T20:34:07Z</time></trkpt><trkpt lat="59.5594279189" lon="31.2657035608"><ele>233.74</ele><time>2026-09-02T20:34:08Z</time></trkpt><trkpt lat="59.5594213810" lon="31.2657064945"><ele>233.74</ele><time>2026-09-02T20:34:09Z</time></trkpt><trkpt lat="59.5594162680" lon="31.2657090928"><ele>233.74</ele><time>2026-09-02T20:34:10Z</time></trkpt><trkpt lat="59.5594121609" lon="31.2657140382"><ele>234.22</ele><time>2026-09-02T20:34:11Z</time></trkpt><trkpt lat="59.5594062936" lon="31.2657193188"><ele>234.22</ele><time>2026-09-02T20:34:12Z</time></trkpt><trkpt lat="59.5594005939" lon="31.2657215819"><ele>234.22</ele><time>2026-09-02T20:34:13Z</time></trkpt><trkpt lat="59.5593943913" lon="31.2657224201"><ele>234.22</ele><time>2026-09-02T20:34:14Z</time></trkpt><trkpt lat="59.5593875181" lon="31.2657231744"><ele>234.22</ele><time>2026-09-02T20:34:15Z</time></trkpt><trkpt lat="59.5593822375" lon="31.2657270301"><ele>234.22</ele><time>2026-09-02T20:34:16Z</time></trkpt><trkpt lat="59.5593753643" lon="31.2657311372"><ele>234.70</ele><time>2026-09-02T20:34:17Z</time></trkpt><trkpt lat="59.5593707543" lon="31.2657361664"><ele>234.70</ele><time>2026-09-02T20:34:18Z</time></trkpt><trkpt lat="59.5593621209" lon="31.2657376751"><ele>234.70</ele><time>2026-09-02T20:34:19Z</time></trkpt><trkpt lat="59.5593536552" lon="31.2657376751"><ele>234.70</ele><time>2026-09-02T20:34:20Z</time></trkpt><trkpt lat="59.5593461953" lon="31.2657410279"><ele>235.18</ele><time>2026-09-02T20:34:21Z</time></trkpt><trkpt lat="59.5593424235" lon="31.2657366693"><ele>235.18</ele><time>2026-09-02T20:34:22Z</time></trkpt><trkpt lat="59.5593367238" lon="31.2657341547"><ele>235.18</ele><time>2026-09-02T20:34:23Z</time></trkpt><trkpt lat="59.5593320299" lon="31.2657375913"><ele>235.66</ele><time>2026-09-02T20:34:24Z</time></trkpt><trkpt lat="59.5593270846" lon="31.2657421175"><ele>235.66</ele><time>2026-09-02T20:34:25Z</time></trkpt><trkpt lat="59.5593215525" lon="31.2657450512"><ele>236.14</ele><time>2026-09-02T20:34:26Z</time></trkpt><trkpt lat="59.5593194570" lon="31.2657494936"><ele>236.14</ele><time>2026-09-02T20:34:27Z</time></trkpt><trkpt lat="59.5593175292" lon="31.2657552771"><ele>236.14</ele><time>2026-09-02T20:34:28Z</time></trkpt><trkpt lat="59.5593145955" lon="31.2657655869"><ele>236.14</ele><time>2026-09-02T20:34:29Z</time></trkpt><trkpt lat="59.5593068842" lon="31.2657666765"><ele>236.14</ele><time>2026-09-02T20:34:30Z</time></trkpt><trkpt lat="59.5593022741" lon="31.2657727953"><ele>236.62</ele><time>2026-09-02T20:34:31Z</time></trkpt><trkpt lat="59.5592982508" lon="31.2657769863"><ele>236.62</ele><time>2026-09-02T20:34:32Z</time></trkpt><trkpt lat="59.5592957363" lon="31.2657750584"><ele>236.62</ele><time>2026-09-02T20:34:33Z</time></trkpt><trkpt lat="59.5592909586" lon="31.2657836918"><ele>236.62</ele><time>2026-09-02T20:34:34Z</time></trkpt><trkpt lat="59.5592866000" lon="31.2657930795"><ele>237.10</ele><time>2026-09-02T20:34:35Z</time></trkpt><trkpt lat="59.5592804812" lon="31.2658017967"><ele>237.10</ele><time>2026-09-02T20:34:36Z</time></trkpt><trkpt lat="59.5592759550" lon="31.2658060715"><ele>237.58</ele><time>2026-09-02T20:34:37Z</time></trkpt><trkpt lat="59.5592726860" lon="31.2658116873"><ele>237.58</ele><time>2026-09-02T20:34:38Z</time></trkpt><trkpt lat="59.5592707582" lon="31.2658142857"><ele>237.58</ele><time>2026-09-02T20:34:39Z</time></trkpt><trkpt lat="59.5592689980" lon="31.2658206560"><ele>237.58</ele><time>2026-09-02T20:34:40Z</time></trkpt><trkpt lat="59.5592640527" lon="31.2658285350"><ele>237.58</ele><time>2026-09-02T20:34:41Z</time></trkpt><trkpt lat="59.5592628792" lon="31.2658365816"><ele>237.58</ele><time>2026-09-02T20:34:42Z</time></trkpt><trkpt lat="59.5592625439" lon="31.2658351567"><ele>238.06</ele><time>2026-09-02T20:34:43Z</time></trkpt><trkpt lat="59.5592644718" lon="31.2658404373"><ele>238.06</ele><time>2026-09-02T20:34:44Z</time></trkpt><trkpt lat="59.5592671540" lon="31.2658434547"><ele>238.06</ele><time>2026-09-02T20:34:45Z</time></trkpt><trkpt lat="59.5592667349" lon="31.2658450473"><ele>238.06</ele><time>2026-09-02T20:34:46Z</time></trkpt><trkpt lat="59.5592690818" lon="31.2658523396"><ele>238.06</ele><time>2026-09-02T20:34:47Z</time></trkpt><trkpt lat="59.5592710935" lon="31.2658567820"><ele>238.06</ele><time>2026-09-02T20:34:48Z</time></trkpt><trkpt lat="59.5592744462" lon="31.2658646610"><ele>238.06</ele><time>2026-09-02T20:34:49Z</time></trkpt><trkpt lat="59.5592799783" lon="31.2658735458"><ele>238.06</ele><time>2026-09-02T20:34:50Z</time></trkpt><trkpt lat="59.5592824928" lon="31.2658850290"><ele>238.06</ele><time>2026-09-02T20:34:51Z</time></trkpt><trkpt lat="59.5592832472" lon="31.2658948358"><ele>238.06</ele><time>2026-09-02T20:34:52Z</time></trkpt><trkpt lat="59.5592846721" lon="31.2659054808"><ele>238.06</ele><time>2026-09-02T20:34:53Z</time></trkpt><trkpt lat="59.5592859294" lon="31.2659134436"><ele>238.54</ele><time>2026-09-02T20:34:54Z</time></trkpt><trkpt lat="59.5592838340" lon="31.2659286987"><ele>238.54</ele><time>2026-09-02T20:34:55Z</time></trkpt><trkpt lat="59.5592805650" lon="31.2659452949"><ele>238.54</ele><time>2026-09-02T20:34:56Z</time></trkpt><trkpt lat="59.5592794754" lon="31.2659573648"><ele>239.02</ele><time>2026-09-02T20:34:57Z</time></trkpt><trkpt lat="59.5592742786" lon="31.2659653276"><ele>239.02</ele><time>2026-09-02T20:34:58Z</time></trkpt><trkpt lat="59.5592700876" lon="31.2659695186"><ele>239.02</ele><time>2026-09-02T20:34:59Z</time></trkpt><trkpt lat="59.5592652261" lon="31.2659780681"><ele>239.02</ele><time>2026-09-02T20:35:00Z</time></trkpt><trkpt lat="59.5592591912" lon="31.2659872882"><ele>239.02</ele><time>2026-09-02T20:35:01Z</time></trkpt><trkpt lat="59.5592546649" lon="31.2659999449"><ele>239.51</ele><time>2026-09-02T20:35:02Z</time></trkpt><trkpt lat="59.5592549164" lon="31.2660134397"><ele>239.51</ele><time>2026-09-02T20:35:03Z</time></trkpt><trkpt lat="59.5592540782" lon="31.2660285272"><ele>239.51</ele><time>2026-09-02T20:35:04Z</time></trkpt><trkpt lat="59.5592529885" lon="31.2660423573"><ele>239.51</ele><time>2026-09-02T20:35:05Z</time></trkpt><trkpt lat="59.5592485461" lon="31.2660551816"><ele>239.51</ele><time>2026-09-02T20:35:06Z</time></trkpt><trkpt lat="59.5592465345" lon="31.2660653237"><ele>239.99</ele><time>2026-09-02T20:35:07Z</time></trkpt><trkpt lat="59.5592478756" lon="31.2660668325"><ele>239.99</ele><time>2026-09-02T20:35:08Z</time></trkpt><trkpt lat="59.5592459477" lon="31.2660721969"><ele>239.99</ele><time>2026-09-02T20:35:09Z</time></trkpt><trkpt lat="59.5592440199" lon="31.2660753820"><ele>239.99</ele><time>2026-09-02T20:35:10Z</time></trkpt><trkpt lat="59.5592432655" lon="31.2660775613"><ele>239.99</ele><time>2026-09-02T20:35:11Z</time></trkpt><trkpt lat="59.5592423435" lon="31.2660811655"><ele>239.99</ele><time>2026-09-02T20:35:12Z</time></trkpt><trkpt lat="59.5592431817" lon="31.2660784833"><ele>239.99</ele><time>2026-09-02T20:35:13Z</time></trkpt><trkpt lat="59.5592424273" lon="31.2660814170"><ele>239.99</ele><time>2026-09-02T20:35:14Z</time></trkpt><trkpt lat="59.5592421759" lon="31.2660838477"><ele>239.99</ele><time>2026-09-02T20:35:15Z</time></trkpt><trkpt lat="59.5592421759" lon="31.2660849374"><ele>239.99</ele><time>2026-09-02T20:35:16Z</time></trkpt><trkpt lat="59.5592419244" lon="31.2660863623"><ele>239.99</ele><time>2026-09-02T20:35:17Z</time></trkpt><trkpt lat="59.5592418406" lon="31.2660881225"><ele>239.99</ele><time>2026-09-02T20:35:18Z</time></trkpt><trkpt lat="59.5592416730" lon="31.2660893798"><ele>239.99</ele><time>2026-09-02T20:35:19Z</time></trkpt><trkpt lat="59.5592405833" lon="31.2660907209"><ele>239.99</ele><time>2026-09-02T20:35:20Z</time></trkpt><trkpt lat="59.5592405833" lon="31.2660909723"><ele>239.99</ele><time>2026-09-02T20:35:21Z</time></trkpt><trkpt lat="59.5592406671" lon="31.2660918944"><ele>239.99</ele><time>2026-09-02T20:35:22Z</time></trkpt><trkpt lat="59.5592403319" lon="31.2660928164"><ele>239.99</ele><time>2026-09-02T20:35:23Z</time></trkpt><trkpt lat="59.5592400804" lon="31.2660945766"><ele>239.99</ele><time>2026-09-02T20:35:24Z</time></trkpt><trkpt lat="59.5592403319" lon="31.2660970911"><ele>239.99</ele><time>2026-09-02T20:35:25Z</time></trkpt><trkpt lat="59.5592443552" lon="31.2660996895"><ele>239.99</ele><time>2026-09-02T20:35:26Z</time></trkpt><trkpt lat="59.5592415892" lon="31.2660988513"><ele>239.99</ele><time>2026-09-02T20:35:27Z</time></trkpt><trkpt lat="59.5592431817" lon="31.2661032937"><ele>239.99</ele><time>2026-09-02T20:35:28Z</time></trkpt><trkpt lat="59.5592386555" lon="31.2661093287"><ele>239.99</ele><time>2026-09-02T20:35:29Z</time></trkpt><trkpt lat="59.5592334587" lon="31.2661070656"><ele>239.99</ele><time>2026-09-02T20:35:30Z</time></trkpt><trkpt lat="59.5592271723" lon="31.2661078200"><ele>239.99</ele><time>2026-09-02T20:35:31Z</time></trkpt><trkpt lat="59.5592208859" lon="31.2661104184"><ele>239.99</ele><time>2026-09-02T20:35:32Z</time></trkpt><trkpt lat="59.5592150185" lon="31.2661118433"><ele>239.99</ele><time>2026-09-02T20:35:33Z</time></trkpt><trkpt lat="59.5592119172" lon="31.2661157828"><ele>239.99</ele><time>2026-09-02T20:35:34Z</time></trkpt><trkpt lat="59.5592074748" lon="31.2661205605"><ele>239.99</ele><time>2026-09-02T20:35:35Z</time></trkpt><trkpt lat="59.5592063852" lon="31.2661253382"><ele>239.99</ele><time>2026-09-02T20:35:36Z</time></trkpt><trkpt lat="59.5592044573" lon="31.2661301997"><ele>239.99</ele><time>2026-09-02T20:35:37Z</time></trkpt><trkpt lat="59.5592031162" lon="31.2661339715"><ele>239.99</ele><time>2026-09-02T20:35:38Z</time></trkpt><trkpt lat="59.5592018589" lon="31.2661398388"><ele>239.99</ele><time>2026-09-02T20:35:39Z</time></trkpt><trkpt lat="59.5592013560" lon="31.2661370728"><ele>239.99</ele><time>2026-09-02T20:35:40Z</time></trkpt><trkpt lat="59.5592005178" lon="31.2661400903"><ele>239.99</ele><time>2026-09-02T20:35:41Z</time></trkpt><trkpt lat="59.5591995958" lon="31.2661419343"><ele>239.99</ele><time>2026-09-02T20:35:42Z</time></trkpt><trkpt lat="59.5591992605" lon="31.2661436945"><ele>239.99</ele><time>2026-09-02T20:35:43Z</time></trkpt><trkpt lat="59.5591983385" lon="31.2661437783"><ele>239.99</ele><time>2026-09-02T20:35:44Z</time></trkpt><trkpt lat="59.5591972489" lon="31.2661453709"><ele>239.99</ele><time>2026-09-02T20:35:45Z</time></trkpt><trkpt lat="59.5591969974" lon="31.2661472987"><ele>239.99</ele><time>2026-09-02T20:35:46Z</time></trkpt><trkpt lat="59.5591966622" lon="31.2661488913"><ele>239.99</ele><time>2026-09-02T20:35:47Z</time></trkpt><trkpt lat="59.5591964945" lon="31.2661514897"><ele>239.99</ele><time>2026-09-02T20:35:48Z</time></trkpt><trkpt lat="59.5591965783" lon="31.2661534175"><ele>239.99</ele><time>2026-09-02T20:35:49Z</time></trkpt><trkpt lat="59.5591968298" lon="31.2661550939"><ele>239.99</ele><time>2026-09-02T20:35:50Z</time></trkpt><trkpt lat="59.5591968298" lon="31.2661538366"><ele>239.99</ele><time>2026-09-02T20:35:51Z</time></trkpt><trkpt lat="59.5591973327" lon="31.2661552615"><ele>239.99</ele><time>2026-09-02T20:35:52Z</time></trkpt><trkpt lat="59.5591978356" lon="31.2661556806"><ele>239.99</ele><time>2026-09-02T20:35:53Z</time></trkpt><trkpt lat="59.5591979194" lon="31.2661556806"><ele>239.99</ele><time>2026-09-02T20:35:54Z</time></trkpt><trkpt lat="59.5591978356" lon="31.2661559321"><ele>239.99</ele><time>2026-09-02T20:35:55Z</time></trkpt><trkpt lat="59.5591979194" lon="31.2661564350"><ele>239.99</ele><time>2026-09-02T20:35:56Z</time></trkpt><trkpt lat="59.5591976680" lon="31.2661560997"><ele>239.99</ele><time>2026-09-02T20:35:57Z</time></trkpt><trkpt lat="59.5591973327" lon="31.2661567703"><ele>239.99</ele><time>2026-09-02T20:35:58Z</time></trkpt><trkpt lat="59.5591966622" lon="31.2661540881"><ele>239.99</ele><time>2026-09-02T20:35:59Z</time></trkpt><trkpt lat="59.5591959916" lon="31.2661516573"><ele>239.99</ele><time>2026-09-02T20:36:00Z</time></trkpt><trkpt lat="59.5591964945" lon="31.2661528308"><ele>239.99</ele><time>2026-09-02T20:36:01Z</time></trkpt><trkpt lat="59.5591958240" lon="31.2661505677"><ele>239.99</ele><time>2026-09-02T20:36:02Z</time></trkpt><trkpt lat="59.5591958240" lon="31.2661496457"><ele>239.99</ele><time>2026-09-02T20:36:03Z</time></trkpt><trkpt lat="59.5591959916" lon="31.2661478855"><ele>239.99</ele><time>2026-09-02T20:36:04Z</time></trkpt><trkpt lat="59.5591969974" lon="31.2661466282"><ele>239.99</ele><time>2026-09-02T20:36:05Z</time></trkpt><trkpt lat="59.5591973327" lon="31.2661441974"><ele>239.51</ele><time>2026-09-02T20:36:06Z</time></trkpt><trkpt lat="59.5591976680" lon="31.2661463767"><ele>239.51</ele><time>2026-09-02T20:36:07Z</time></trkpt><trkpt lat="59.5591976680" lon="31.2661450356"><ele>239.51</ele><time>2026-09-02T20:36:08Z</time></trkpt><trkpt lat="59.5591980871" lon="31.2661459576"><ele>239.51</ele><time>2026-09-02T20:36:09Z</time></trkpt><trkpt lat="59.5591974165" lon="31.2661444489"><ele>239.51</ele><time>2026-09-02T20:36:10Z</time></trkpt><trkpt lat="59.5591979194" lon="31.2661454547"><ele>239.51</ele><time>2026-09-02T20:36:11Z</time></trkpt><trkpt lat="59.5591978356" lon="31.2661458738"><ele>239.51</ele><time>2026-09-02T20:36:12Z</time></trkpt><trkpt lat="59.5591977518" lon="31.2661458738"><ele>239.51</ele><time>2026-09-02T20:36:13Z</time></trkpt><trkpt lat="59.5591969974" lon="31.2661465444"><ele>239.51</ele><time>2026-09-02T20:36:14Z</time></trkpt><trkpt lat="59.5591958240" lon="31.2661458738"><ele>239.51</ele><time>2026-09-02T20:36:15Z</time></trkpt><trkpt lat="59.5591958240" lon="31.2661461253"><ele>239.51</ele><time>2026-09-02T20:36:16Z</time></trkpt><trkpt lat="59.5591962431" lon="31.2661457900"><ele>239.51</ele><time>2026-09-02T20:36:17Z</time></trkpt><trkpt lat="59.5591970813" lon="31.2661469635"><ele>239.51</ele><time>2026-09-02T20:36:18Z</time></trkpt><trkpt lat="59.5591968298" lon="31.2661477178"><ele>239.51</ele><time>2026-09-02T20:36:19Z</time></trkpt><trkpt lat="59.5591965783" lon="31.2661507353"><ele>239.51</ele><time>2026-09-02T20:36:20Z</time></trkpt><trkpt lat="59.5591964945" lon="31.2661522441"><ele>239.99</ele><time>2026-09-02T20:36:21Z</time></trkpt><trkpt lat="59.5591962431" lon="31.2661500648"><ele>239.99</ele><time>2026-09-02T20:36:22Z</time></trkpt><trkpt lat="59.5591951534" lon="31.2661475502"><ele>239.99</ele><time>2026-09-02T20:36:23Z</time></trkpt><trkpt lat="59.5591963269" lon="31.2661473826"><ele>239.99</ele><time>2026-09-02T20:36:24Z</time></trkpt><trkpt lat="59.5591967460" lon="31.2661471311"><ele>239.99</ele><time>2026-09-02T20:36:25Z</time></trkpt><trkpt lat="59.5591974165" lon="31.2661467958"><ele>239.99</ele><time>2026-09-02T20:36:26Z</time></trkpt><trkpt lat="59.5591974165" lon="31.2661460415"><ele>239.99</ele><time>2026-09-02T20:36:27Z</time></trkpt><trkpt lat="59.5591976680" lon="31.2661467958"><ele>239.99</ele><time>2026-09-02T20:36:28Z</time></trkpt><trkpt lat="59.5591978356" lon="31.2661459576"><ele>239.99</ele><time>2026-09-02T20:36:29Z</time></trkpt><trkpt lat="59.5591980871" lon="31.2661465444"><ele>239.99</ele><time>2026-09-02T20:36:30Z</time></trkpt><trkpt lat="59.5591981709" lon="31.2661459576"><ele>239.99</ele><time>2026-09-02T20:36:31Z</time></trkpt><trkpt lat="59.5591985900" lon="31.2661469635"><ele>239.99</ele><time>2026-09-02T20:36:32Z</time></trkpt><trkpt lat="59.5591982547" lon="31.2661456224"><ele>239.99</ele><time>2026-09-02T20:36:33Z</time></trkpt><trkpt lat="59.5591990929" lon="31.2661477178"><ele>239.99</ele><time>2026-09-02T20:36:34Z</time></trkpt><trkpt lat="59.5591996796" lon="31.2661490589"><ele>239.99</ele><time>2026-09-02T20:36:35Z</time></trkpt><trkpt lat="59.5591998473" lon="31.2661504839"><ele>239.99</ele><time>2026-09-02T20:36:36Z</time></trkpt><trkpt lat="59.5592000987" lon="31.2661513221"><ele>239.99</ele><time>2026-09-02T20:36:37Z</time></trkpt><trkpt lat="59.5591999311" lon="31.2661516573"><ele>239.99</ele><time>2026-09-02T20:36:38Z</time></trkpt><trkpt lat="59.5592002664" lon="31.2661512382"><ele>239.99</ele><time>2026-09-02T20:36:39Z</time></trkpt><trkpt lat="59.5592001826" lon="31.2661529984"><ele>239.99</ele><time>2026-09-02T20:36:40Z</time></trkpt><trkpt lat="59.5592009369" lon="31.2661519926"><ele>239.99</ele><time>2026-09-02T20:36:41Z</time></trkpt><trkpt lat="59.5591998473" lon="31.2661521602"><ele>239.99</ele><time>2026-09-02T20:36:42Z</time></trkpt><trkpt lat="59.5591998473" lon="31.2661514897"><ele>239.99</ele><time>2026-09-02T20:36:43Z</time></trkpt><trkpt lat="59.5591991767" lon="31.2661506515"><ele>239.99</ele><time>2026-09-02T20:36:44Z</time></trkpt><trkpt lat="59.5591999311" lon="31.2661502324"><ele>239.99</ele><time>2026-09-02T20:36:45Z</time></trkpt><trkpt lat="59.5591997635" lon="31.2661488913"><ele>239.99</ele><time>2026-09-02T20:36:46Z</time></trkpt><trkpt lat="59.5591984224" lon="31.2661480531"><ele>239.99</ele><time>2026-09-02T20:36:47Z</time></trkpt><trkpt lat="59.5591981709" lon="31.2661483884"><ele>239.99</ele><time>2026-09-02T20:36:48Z</time></trkpt><trkpt lat="59.5591990929" lon="31.2661500648"><ele>239.99</ele><time>2026-09-02T20:36:49Z</time></trkpt><trkpt lat="59.5591990929" lon="31.2661509868"><ele>239.99</ele><time>2026-09-02T20:36:50Z</time></trkpt><trkpt lat="59.5591988415" lon="31.2661505677"><ele>239.99</ele><time>2026-09-02T20:36:51Z</time></trkpt><trkpt lat="59.5591990929" lon="31.2661510706"><ele>239.99</ele><time>2026-09-02T20:36:52Z</time></trkpt><trkpt lat="59.5591990929" lon="31.2661514897"><ele>239.99</ele><time>2026-09-02T20:36:53Z</time></trkpt><trkpt lat="59.5591987576" lon="31.2661501486"><ele>239.99</ele><time>2026-09-02T20:36:54Z</time></trkpt><trkpt lat="59.5591995958" lon="31.2661514897"><ele>239.99</ele><time>2026-09-02T20:36:55Z</time></trkpt><trkpt lat="59.5591997635" lon="31.2661518250"><ele>239.99</ele><time>2026-09-02T20:36:56Z</time></trkpt><trkpt lat="59.5592002664" lon="31.2661529984"><ele>239.99</ele><time>2026-09-02T20:36:57Z</time></trkpt><trkpt lat="59.5592006855" lon="31.2661530823"><ele>239.99</ele><time>2026-09-02T20:36:58Z</time></trkpt><trkpt lat="59.5592007693" lon="31.2661537528"><ele>239.99</ele><time>2026-09-02T20:36:59Z</time></trkpt><trkpt lat="59.5592009369" lon="31.2661540881"><ele>239.99</ele><time>2026-09-02T20:37:00Z</time></trkpt><trkpt lat="59.5592008531" lon="31.2661538366"><ele>239.99</ele><time>2026-09-02T20:37:01Z</time></trkpt><trkpt lat="59.5592004340" lon="31.2661532499"><ele>239.99</ele><time>2026-09-02T20:37:02Z</time></trkpt><trkpt lat="59.5592001826" lon="31.2661535852"><ele>239.99</ele><time>2026-09-02T20:37:03Z</time></trkpt><trkpt lat="59.5592003502" lon="31.2661531661"><ele>239.99</ele><time>2026-09-02T20:37:04Z</time></trkpt><trkpt lat="59.5592000987" lon="31.2661535852"><ele>239.99</ele><time>2026-09-02T20:37:05Z</time></trkpt><trkpt lat="59.5592002664" lon="31.2661527470"><ele>239.99</ele><time>2026-09-02T20:37:06Z</time></trkpt><trkpt lat="59.5592000987" lon="31.2661528308"><ele>239.99</ele><time>2026-09-02T20:37:07Z</time></trkpt><trkpt lat="59.5592004340" lon="31.2661515735"><ele>239.99</ele><time>2026-09-02T20:37:08Z</time></trkpt><trkpt lat="59.5592005178" lon="31.2661525793"><ele>239.99</ele><time>2026-09-02T20:37:09Z</time></trkpt><trkpt lat="59.5592008531" lon="31.2661507353"><ele>239.99</ele><time>2026-09-02T20:37:10Z</time></trkpt><trkpt lat="59.5592008531" lon="31.2661518250"><ele>239.99</ele><time>2026-09-02T20:37:11Z</time></trkpt><trkpt lat="59.5592010207" lon="31.2661498971"><ele>239.99</ele><time>2026-09-02T20:37:12Z</time></trkpt><trkpt lat="59.5592009369" lon="31.2661517411"><ele>239.99</ele><time>2026-09-02T20:37:13Z</time></trkpt><trkpt lat="59.5592011884" lon="31.2661502324"><ele>239.99</ele><time>2026-09-02T20:37:14Z</time></trkpt><trkpt lat="59.5592018589" lon="31.2661500648"><ele>239.99</ele><time>2026-09-02T20:37:15Z</time></trkpt><trkpt lat="59.5592022780" lon="31.2661489751"><ele>239.99</ele><time>2026-09-02T20:37:16Z</time></trkpt><trkpt lat="59.5592032839" lon="31.2661498971"><ele>239.99</ele><time>2026-09-02T20:37:17Z</time></trkpt><trkpt lat="59.5592026971" lon="31.2661490589"><ele>239.99</ele><time>2026-09-02T20:37:18Z</time></trkpt><trkpt lat="59.5592026971" lon="31.2661487237"><ele>239.99</ele><time>2026-09-02T20:37:19Z</time></trkpt><trkpt lat="59.5592018589" lon="31.2661484722"><ele>239.99</ele><time>2026-09-02T20:37:20Z</time></trkpt><trkpt lat="59.5592006855" lon="31.2661489751"><ele>239.99</ele><time>2026-09-02T20:37:21Z</time></trkpt><trkpt lat="59.5591993444" lon="31.2661491428"><ele>239.99</ele><time>2026-09-02T20:37:22Z</time></trkpt><trkpt lat="59.5591984224" lon="31.2661487237"><ele>239.99</ele><time>2026-09-02T20:37:23Z</time></trkpt><trkpt lat="59.5591980871" lon="31.2661492266"><ele>239.99</ele><time>2026-09-02T20:37:24Z</time></trkpt><trkpt lat="59.5591975842" lon="31.2661489751"><ele>239.99</ele><time>2026-09-02T20:37:25Z</time></trkpt><trkpt lat="59.5591976680" lon="31.2661491428"><ele>239.99</ele><time>2026-09-02T20:37:26Z</time></trkpt><trkpt lat="59.5591982547" lon="31.2661489751"><ele>239.99</ele><time>2026-09-02T20:37:27Z</time></trkpt><trkpt lat="59.5591993444" lon="31.2661492266"><ele>239.99</ele><time>2026-09-02T20:37:28Z</time></trkpt><trkpt lat="59.5591999311" lon="31.2661504839"><ele>239.99</ele><time>2026-09-02T20:37:29Z</time></trkpt><trkpt lat="59.5591998473" lon="31.2661511544"><ele>239.99</ele><time>2026-09-02T20:37:30Z</time></trkpt><trkpt lat="59.5592006855" lon="31.2661516573"><ele>239.99</ele><time>2026-09-02T20:37:31Z</time></trkpt><trkpt lat="59.5592008531" lon="31.2661526632"><ele>239.99</ele><time>2026-09-02T20:37:32Z</time></trkpt><trkpt lat="59.5592015237" lon="31.2661539204"><ele>239.99</ele><time>2026-09-02T20:37:33Z</time></trkpt><trkpt lat="59.5592013560" lon="31.2661556806"><ele>239.99</ele><time>2026-09-02T20:37:34Z</time></trkpt><trkpt lat="59.5592011884" lon="31.2661567703"><ele>239.99</ele><time>2026-09-02T20:37:35Z</time></trkpt><trkpt lat="59.5592017751" lon="31.2661575247"><ele>239.99</ele><time>2026-09-02T20:37:36Z</time></trkpt><trkpt lat="59.5592014398" lon="31.2661564350"><ele>239.99</ele><time>2026-09-02T20:37:37Z</time></trkpt><trkpt lat="59.5592004340" lon="31.2661563512"><ele>239.99</ele><time>2026-09-02T20:37:38Z</time></trkpt><trkpt lat="59.5592011884" lon="31.2661564350"><ele>239.99</ele><time>2026-09-02T20:37:39Z</time></trkpt><trkpt lat="59.5592006855" lon="31.2661571894"><ele>239.99</ele><time>2026-09-02T20:37:40Z</time></trkpt><trkpt lat="59.5592012722" lon="31.2661582790"><ele>239.99</ele><time>2026-09-02T20:37:41Z</time></trkpt><trkpt lat="59.5592013560" lon="31.2661587819"><ele>239.99</ele><time>2026-09-02T20:37:42Z</time></trkpt><trkpt lat="59.5592022780" lon="31.2661610451"><ele>239.99</ele><time>2026-09-02T20:37:43Z</time></trkpt><trkpt lat="59.5592016913" lon="31.2661621347"><ele>239.99</ele><time>2026-09-02T20:37:44Z</time></trkpt><trkpt lat="59.5592009369" lon="31.2661636434"><ele>239.99</ele><time>2026-09-02T20:37:45Z</time></trkpt><trkpt lat="59.5591994282" lon="31.2661619671"><ele>239.99</ele><time>2026-09-02T20:37:46Z</time></trkpt><trkpt lat="59.5591981709" lon="31.2661598716"><ele>239.99</ele><time>2026-09-02T20:37:47Z</time></trkpt><trkpt lat="59.5591975842" lon="31.2661597878"><ele>239.99</ele><time>2026-09-02T20:37:48Z</time></trkpt><trkpt lat="59.5591971651" lon="31.2661582790"><ele>239.99</ele><time>2026-09-02T20:37:49Z</time></trkpt><trkpt lat="59.5591971651" lon="31.2661592849"><ele>239.99</ele><time>2026-09-02T20:37:50Z</time></trkpt><trkpt lat="59.5591968298" lon="31.2661576923"><ele>239.99</ele><time>2026-09-02T20:37:51Z</time></trkpt><trkpt lat="59.5591961592" lon="31.2661565188"><ele>239.99</ele><time>2026-09-02T20:37:52Z</time></trkpt><trkpt lat="59.5591957401" lon="31.2661561836"><ele>239.99</ele><time>2026-09-02T20:37:53Z</time></trkpt><trkpt lat="59.5591959916" lon="31.2661574408"><ele>239.99</ele><time>2026-09-02T20:37:54Z</time></trkpt><trkpt lat="59.5591952372" lon="31.2661583629"><ele>239.99</ele><time>2026-09-02T20:37:55Z</time></trkpt><trkpt lat="59.5591951534" lon="31.2661578599"><ele>239.99</ele><time>2026-09-02T20:37:56Z</time></trkpt><trkpt lat="59.5591943990" lon="31.2661582790"><ele>239.99</ele><time>2026-09-02T20:37:57Z</time></trkpt><trkpt lat="59.5591942314" lon="31.2661572732"><ele>239.99</ele><time>2026-09-02T20:37:58Z</time></trkpt><trkpt lat="59.5591941476" lon="31.2661583629"><ele>239.99</ele><time>2026-09-02T20:37:59Z</time></trkpt><trkpt lat="59.5591941476" lon="31.2661570217"><ele>239.99</ele><time>2026-09-02T20:38:00Z</time></trkpt><trkpt lat="59.5591945667" lon="31.2661578599"><ele>239.99</ele><time>2026-09-02T20:38:01Z</time></trkpt><trkpt lat="59.5591943990" lon="31.2661577761"><ele>239.99</ele><time>2026-09-02T20:38:02Z</time></trkpt><trkpt lat="59.5591951534" lon="31.2661572732"><ele>239.99</ele><time>2026-09-02T20:38:03Z</time></trkpt><trkpt lat="59.5591947343" lon="31.2661572732"><ele>239.99</ele><time>2026-09-02T20:38:04Z</time></trkpt><trkpt lat="59.5591936447" lon="31.2661565188"><ele>239.99</ele><time>2026-09-02T20:38:05Z</time></trkpt><trkpt lat="59.5591926388" lon="31.2661559321"><ele>239.99</ele><time>2026-09-02T20:38:06Z</time></trkpt><trkpt lat="59.5591926388" lon="31.2661549263"><ele>239.99</ele><time>2026-09-02T20:38:07Z</time></trkpt><trkpt lat="59.5591929741" lon="31.2661549263"><ele>239.99</ele><time>2026-09-02T20:38:08Z</time></trkpt><trkpt lat="59.5591926388" lon="31.2661543395"><ele>239.99</ele><time>2026-09-02T20:38:09Z</time></trkpt><trkpt lat="59.5591930579" lon="31.2661546748"><ele>239.99</ele><time>2026-09-02T20:38:10Z</time></trkpt><trkpt lat="59.5591935609" lon="31.2661543395"><ele>239.99</ele><time>2026-09-02T20:38:11Z</time></trkpt><trkpt lat="59.5591940638" lon="31.2661528308"><ele>239.99</ele><time>2026-09-02T20:38:12Z</time></trkpt><trkpt lat="59.5591948181" lon="31.2661517411"><ele>239.99</ele><time>2026-09-02T20:38:13Z</time></trkpt><trkpt lat="59.5591953211" lon="31.2661501486"><ele>239.99</ele><time>2026-09-02T20:38:14Z</time></trkpt><trkpt lat="59.5591945667" lon="31.2661500648"><ele>239.99</ele><time>2026-09-02T20:38:15Z</time></trkpt><trkpt lat="59.5591943990" lon="31.2661493942"><ele>239.99</ele><time>2026-09-02T20:38:16Z</time></trkpt><trkpt lat="59.5591936447" lon="31.2661470473"><ele>239.99</ele><time>2026-09-02T20:38:17Z</time></trkpt><trkpt lat="59.5591943990" lon="31.2661489751"><ele>239.99</ele><time>2026-09-02T20:38:18Z</time></trkpt><trkpt lat="59.5591935609" lon="31.2661467958"><ele>239.99</ele><time>2026-09-02T20:38:19Z</time></trkpt><trkpt lat="59.5591942314" lon="31.2661472987"><ele>239.99</ele><time>2026-09-02T20:38:20Z</time></trkpt><trkpt lat="59.5591949858" lon="31.2661478855"><ele>239.99</ele><time>2026-09-02T20:38:21Z</time></trkpt><trkpt lat="59.5591950696" lon="31.2661498971"><ele>239.99</ele><time>2026-09-02T20:38:22Z</time></trkpt><trkpt lat="59.5591958240" lon="31.2661506515"><ele>239.99</ele><time>2026-09-02T20:38:23Z</time></trkpt><trkpt lat="59.5591980871" lon="31.2661521602"><ele>239.99</ele><time>2026-09-02T20:38:24Z</time></trkpt><trkpt lat="59.5591967460" lon="31.2661517411"><ele>239.99</ele><time>2026-09-02T20:38:25Z</time></trkpt><trkpt lat="59.5591988415" lon="31.2661529984"><ele>239.99</ele><time>2026-09-02T20:38:26Z</time></trkpt><trkpt lat="59.5591966622" lon="31.2661514897"><ele>239.99</ele><time>2026-09-02T20:38:27Z</time></trkpt><trkpt lat="59.5591963269" lon="31.2661499809"><ele>239.99</ele><time>2026-09-02T20:38:28Z</time></trkpt><trkpt lat="59.5591959916" lon="31.2661487237"><ele>239.99</ele><time>2026-09-02T20:38:29Z</time></trkpt><trkpt lat="59.5591958240" lon="31.2661481369"><ele>239.99</ele><time>2026-09-02T20:38:30Z</time></trkpt><trkpt lat="59.5591956563" lon="31.2661474664"><ele>239.99</ele><time>2026-09-02T20:38:31Z</time></trkpt><trkpt lat="59.5591944829" lon="31.2661470473"><ele>239.99</ele><time>2026-09-02T20:38:32Z</time></trkpt><trkpt lat="59.5591942314" lon="31.2661478855"><ele>239.99</ele><time>2026-09-02T20:38:33Z</time></trkpt><trkpt lat="59.5591938961" lon="31.2661464605"><ele>239.99</ele><time>2026-09-02T20:38:34Z</time></trkpt><trkpt lat="59.5591938961" lon="31.2661478855"><ele>239.99</ele><time>2026-09-02T20:38:35Z</time></trkpt><trkpt lat="59.5591951534" lon="31.2661485560"><ele>239.99</ele><time>2026-09-02T20:38:36Z</time></trkpt><trkpt lat="59.5591963269" lon="31.2661491428"><ele>239.99</ele><time>2026-09-02T20:38:37Z</time></trkpt><trkpt lat="59.5591966622" lon="31.2661486398"><ele>239.99</ele><time>2026-09-02T20:38:38Z</time></trkpt><trkpt lat="59.5591960754" lon="31.2661476340"><ele>239.99</ele><time>2026-09-02T20:38:39Z</time></trkpt><trkpt lat="59.5591963269" lon="31.2661478855"><ele>239.99</ele><time>2026-09-02T20:38:40Z</time></trkpt><trkpt lat="59.5591963269" lon="31.2661473826"><ele>239.99</ele><time>2026-09-02T20:38:41Z</time></trkpt><trkpt lat="59.5591964945" lon="31.2661479693"><ele>239.99</ele><time>2026-09-02T20:38:42Z</time></trkpt><trkpt lat="59.5591965783" lon="31.2661482207"><ele>239.99</ele><time>2026-09-02T20:38:43Z</time></trkpt><trkpt lat="59.5591964945" lon="31.2661495619"><ele>239.99</ele><time>2026-09-02T20:38:44Z</time></trkpt><trkpt lat="59.5591954887" lon="31.2661469635"><ele>239.99</ele><time>2026-09-02T20:38:45Z</time></trkpt><trkpt lat="59.5591957401" lon="31.2661459576"><ele>239.99</ele><time>2026-09-02T20:38:46Z</time></trkpt><trkpt lat="59.5591958240" lon="31.2661455385"><ele>239.99</ele><time>2026-09-02T20:38:47Z</time></trkpt><trkpt lat="59.5591960754" lon="31.2661459576"><ele>239.99</ele><time>2026-09-02T20:38:48Z</time></trkpt><trkpt lat="59.5591952372" lon="31.2661473826"><ele>239.99</ele><time>2026-09-02T20:38:49Z</time></trkpt><trkpt lat="59.5591958240" lon="31.2661464605"><ele>239.99</ele><time>2026-09-02T20:38:50Z</time></trkpt><trkpt lat="59.5591951534" lon="31.2661475502"><ele>239.99</ele><time>2026-09-02T20:38:51Z</time></trkpt><trkpt lat="59.5591954887" lon="31.2661473826"><ele>239.99</ele><time>2026-09-02T20:38:52Z</time></trkpt><trkpt lat="59.5591947343" lon="31.2661481369"><ele>239.99</ele><time>2026-09-02T20:38:53Z</time></trkpt><trkpt lat="59.5591950696" lon="31.2661482207"><ele>239.99</ele><time>2026-09-02T20:38:54Z</time></trkpt><trkpt lat="59.5591946505" lon="31.2661487237"><ele>239.99</ele><time>2026-09-02T20:38:55Z</time></trkpt><trkpt lat="59.5591948181" lon="31.2661488913"><ele>239.99</ele><time>2026-09-02T20:38:56Z</time></trkpt><trkpt lat="59.5591948181" lon="31.2661495619"><ele>239.99</ele><time>2026-09-02T20:38:57Z</time></trkpt><trkpt lat="59.5591951534" lon="31.2661504839"><ele>239.99</ele><time>2026-09-02T20:38:58Z</time></trkpt><trkpt lat="59.5591957401" lon="31.2661517411"><ele>239.99</ele><time>2026-09-02T20:38:59Z</time></trkpt><trkpt lat="59.5591961592" lon="31.2661521602"><ele>239.99</ele><time>2026-09-02T20:39:00Z</time></trkpt><trkpt lat="59.5591965783" lon="31.2661532499"><ele>239.99</ele><time>2026-09-02T20:39:01Z</time></trkpt><trkpt lat="59.5591969974" lon="31.2661546748"><ele>239.99</ele><time>2026-09-02T20:39:02Z</time></trkpt><trkpt lat="59.5591975842" lon="31.2661568541"><ele>239.99</ele><time>2026-09-02T20:39:03Z</time></trkpt><trkpt lat="59.5591974165" lon="31.2661574408"><ele>239.99</ele><time>2026-09-02T20:39:04Z</time></trkpt><trkpt lat="59.5591974165" lon="31.2661581952"><ele>239.99</ele><time>2026-09-02T20:39:05Z</time></trkpt><trkpt lat="59.5591973327" lon="31.2661573570"><ele>239.99</ele><time>2026-09-02T20:39:06Z</time></trkpt><trkpt lat="59.5591968298" lon="31.2661562674"><ele>239.99</ele><time>2026-09-02T20:39:07Z</time></trkpt><trkpt lat="59.5591973327" lon="31.2661563512"><ele>239.99</ele><time>2026-09-02T20:39:08Z</time></trkpt><trkpt lat="59.5591965783" lon="31.2661565188"><ele>239.99</ele><time>2026-09-02T20:39:09Z</time></trkpt><trkpt lat="59.5591970813" lon="31.2661565188"><ele>239.99</ele><time>2026-09-02T20:39:10Z</time></trkpt><trkpt lat="59.5591968298" lon="31.2661577761"><ele>239.99</ele><time>2026-09-02T20:39:11Z</time></trkpt><trkpt lat="59.5591962431" lon="31.2661586981"><ele>239.99</ele><time>2026-09-02T20:39:12Z</time></trkpt><trkpt lat="59.5591970813" lon="31.2661594525"><ele>239.99</ele><time>2026-09-02T20:39:13Z</time></trkpt><trkpt lat="59.5591978356" lon="31.2661594525"><ele>239.99</ele><time>2026-09-02T20:39:14Z</time></trkpt><trkpt lat="59.5591970813" lon="31.2661581952"><ele>239.99</ele><time>2026-09-02T20:39:15Z</time></trkpt><trkpt lat="59.5591965783" lon="31.2661568541"><ele>239.99</ele><time>2026-09-02T20:39:16Z</time></trkpt><trkpt lat="59.5591960754" lon="31.2661561836"><ele>239.99</ele><time>2026-09-02T20:39:17Z</time></trkpt><trkpt lat="59.5591944829" lon="31.2661549263"><ele>239.99</ele><time>2026-09-02T20:39:18Z</time></trkpt><trkpt lat="59.5591954887" lon="31.2661553454"><ele>239.99</ele><time>2026-09-02T20:39:19Z</time></trkpt><trkpt lat="59.5591939799" lon="31.2661544234"><ele>239.99</ele><time>2026-09-02T20:39:20Z</time></trkpt><trkpt lat="59.5591946505" lon="31.2661555968"><ele>239.99</ele><time>2026-09-02T20:39:21Z</time></trkpt><trkpt lat="59.5591949858" lon="31.2661572732"><ele>239.99</ele><time>2026-09-02T20:39:22Z</time></trkpt><trkpt lat="59.5591957401" lon="31.2661586981"><ele>239.99</ele><time>2026-09-02T20:39:23Z</time></trkpt><trkpt lat="59.5591961592" lon="31.2661597878"><ele>239.99</ele><time>2026-09-02T20:39:24Z</time></trkpt><trkpt lat="59.5591953211" lon="31.2661610451"><ele>239.99</ele><time>2026-09-02T20:39:25Z</time></trkpt><trkpt lat="59.5591944829" lon="31.2661613803"><ele>239.99</ele><time>2026-09-02T20:39:26Z</time></trkpt><trkpt lat="59.5591952372" lon="31.2661622185"><ele>239.99</ele><time>2026-09-02T20:39:27Z</time></trkpt><trkpt lat="59.5591943990" lon="31.2661620509"><ele>239.99</ele><time>2026-09-02T20:39:28Z</time></trkpt><trkpt lat="59.5591942314" lon="31.2661621347"><ele>239.99</ele><time>2026-09-02T20:39:29Z</time></trkpt><trkpt lat="59.5591929741" lon="31.2661617994"><ele>239.99</ele><time>2026-09-02T20:39:30Z</time></trkpt><trkpt lat="59.5591917168" lon="31.2661610451"><ele>239.99</ele><time>2026-09-02T20:39:31Z</time></trkpt><trkpt lat="59.5591912977" lon="31.2661602907"><ele>239.99</ele><time>2026-09-02T20:39:32Z</time></trkpt><trkpt lat="59.5591903757" lon="31.2661623862"><ele>239.99</ele><time>2026-09-02T20:39:33Z</time></trkpt><trkpt lat="59.5591903757" lon="31.2661631405"><ele>239.99</ele><time>2026-09-02T20:39:34Z</time></trkpt><trkpt lat="59.5591903757" lon="31.2661629729"><ele>239.99</ele><time>2026-09-02T20:39:35Z</time></trkpt><trkpt lat="59.5591898728" lon="31.2661635596"><ele>239.99</ele><time>2026-09-02T20:39:36Z</time></trkpt><trkpt lat="59.5591899566" lon="31.2661630567"><ele>239.99</ele><time>2026-09-02T20:39:37Z</time></trkpt><trkpt lat="59.5591895375" lon="31.2661628891"><ele>239.99</ele><time>2026-09-02T20:39:38Z</time></trkpt><trkpt lat="59.5591884479" lon="31.2661623862"><ele>239.99</ele><time>2026-09-02T20:39:39Z</time></trkpt><trkpt lat="59.5591881964" lon="31.2661612965"><ele>239.99</ele><time>2026-09-02T20:39:40Z</time></trkpt><trkpt lat="59.5591877773" lon="31.2661613803"><ele>239.99</ele><time>2026-09-02T20:39:41Z</time></trkpt><trkpt lat="59.5591887832" lon="31.2661634758"><ele>239.99</ele><time>2026-09-02T20:39:42Z</time></trkpt><trkpt lat="59.5591897890" lon="31.2661649846"><ele>239.99</ele><time>2026-09-02T20:39:43Z</time></trkpt><trkpt lat="59.5591890346" lon="31.2661653198"><ele>239.99</ele><time>2026-09-02T20:39:44Z</time></trkpt><trkpt lat="59.5591899566" lon="31.2661652360"><ele>239.99</ele><time>2026-09-02T20:39:45Z</time></trkpt><trkpt lat="59.5591893699" lon="31.2661655713"><ele>239.99</ele><time>2026-09-02T20:39:46Z</time></trkpt><trkpt lat="59.5591894537" lon="31.2661651522"><ele>239.99</ele><time>2026-09-02T20:39:47Z</time></trkpt><trkpt lat="59.5591893699" lon="31.2661644816"><ele>239.99</ele><time>2026-09-02T20:39:48Z</time></trkpt><trkpt lat="59.5591881964" lon="31.2661636434"><ele>239.99</ele><time>2026-09-02T20:39:49Z</time></trkpt><trkpt lat="59.5591871906" lon="31.2661622185"><ele>239.99</ele><time>2026-09-02T20:39:50Z</time></trkpt><trkpt lat="59.5591863524" lon="31.2661613803"><ele>239.99</ele><time>2026-09-02T20:39:51Z</time></trkpt><trkpt lat="59.5591854304" lon="31.2661592849"><ele>239.99</ele><time>2026-09-02T20:39:52Z</time></trkpt><trkpt lat="59.5591829997" lon="31.2661615480"><ele>239.99</ele><time>2026-09-02T20:39:53Z</time></trkpt><trkpt lat="59.5591842569" lon="31.2661589496"><ele>239.99</ele><time>2026-09-02T20:39:54Z</time></trkpt><trkpt lat="59.5591821615" lon="31.2661611289"><ele>239.99</ele><time>2026-09-02T20:39:55Z</time></trkpt><trkpt lat="59.5591823291" lon="31.2661620509"><ele>239.99</ele><time>2026-09-02T20:39:56Z</time></trkpt><trkpt lat="59.5591825806" lon="31.2661623862"><ele>239.99</ele><time>2026-09-02T20:39:57Z</time></trkpt><trkpt lat="59.5591837540" lon="31.2661648169"><ele>239.99</ele><time>2026-09-02T20:39:58Z</time></trkpt><trkpt lat="59.5591847599" lon="31.2661641464"><ele>239.99</ele><time>2026-09-02T20:39:59Z</time></trkpt><trkpt lat="59.5591866877" lon="31.2661626376"><ele>239.99</ele><time>2026-09-02T20:40:00Z</time></trkpt><trkpt lat="59.5591877773" lon="31.2661621347"><ele>239.99</ele><time>2026-09-02T20:40:01Z</time></trkpt><trkpt lat="59.5591880288" lon="31.2661604583"><ele>239.99</ele><time>2026-09-02T20:40:02Z</time></trkpt><trkpt lat="59.5591888670" lon="31.2661613803"><ele>239.99</ele><time>2026-09-02T20:40:03Z</time></trkpt><trkpt lat="59.5591889508" lon="31.2661592849"><ele>239.99</ele><time>2026-09-02T20:40:04Z</time></trkpt><trkpt lat="59.5591898728" lon="31.2661585305"><ele>239.99</ele><time>2026-09-02T20:40:05Z</time></trkpt><trkpt lat="59.5591905434" lon="31.2661587819"><ele>239.99</ele><time>2026-09-02T20:40:06Z</time></trkpt><trkpt lat="59.5591915492" lon="31.2661598716"><ele>239.99</ele><time>2026-09-02T20:40:07Z</time></trkpt><trkpt lat="59.5591915492" lon="31.2661599554"><ele>239.99</ele><time>2026-09-02T20:40:08Z</time></trkpt><trkpt lat="59.5591913816" lon="31.2661580276"><ele>239.99</ele><time>2026-09-02T20:40:09Z</time></trkpt><trkpt lat="59.5591886993" lon="31.2661584467"><ele>239.99</ele><time>2026-09-02T20:40:10Z</time></trkpt><trkpt lat="59.5591871906" lon="31.2661585305"><ele>239.99</ele><time>2026-09-02T20:40:11Z</time></trkpt><trkpt lat="59.5591817424" lon="31.2661527470"><ele>239.99</ele><time>2026-09-02T20:40:12Z</time></trkpt><trkpt lat="59.5591845922" lon="31.2661576923"><ele>239.99</ele><time>2026-09-02T20:40:13Z</time></trkpt><trkpt lat="59.5591812395" lon="31.2661517411"><ele>239.99</ele><time>2026-09-02T20:40:14Z</time></trkpt><trkpt lat="59.5591815747" lon="31.2661521602"><ele>239.99</ele><time>2026-09-02T20:40:15Z</time></trkpt><trkpt lat="59.5591825806" lon="31.2661509868"><ele>239.99</ele><time>2026-09-02T20:40:16Z</time></trkpt><trkpt lat="59.5591839217" lon="31.2661490589"><ele>239.99</ele><time>2026-09-02T20:40:17Z</time></trkpt><trkpt lat="59.5591856819" lon="31.2661422696"><ele>239.99</ele><time>2026-09-02T20:40:18Z</time></trkpt><trkpt lat="59.5591891184" lon="31.2661315408"><ele>239.99</ele><time>2026-09-02T20:40:19Z</time></trkpt><trkpt lat="59.5591876935" lon="31.2661209796"><ele>239.99</ele><time>2026-09-02T20:40:20Z</time></trkpt><trkpt lat="59.5591847599" lon="31.2661134358"><ele>239.99</ele><time>2026-09-02T20:40:21Z</time></trkpt><trkpt lat="59.5591826644" lon="31.2661064789"><ele>239.99</ele><time>2026-09-02T20:40:22Z</time></trkpt><trkpt lat="59.5591801498" lon="31.2661016174"><ele>239.99</ele><time>2026-09-02T20:40:23Z</time></trkpt><trkpt lat="59.5591756236" lon="31.2660959177"><ele>239.99</ele><time>2026-09-02T20:40:24Z</time></trkpt><trkpt lat="59.5591703430" lon="31.2660912238"><ele>239.99</ele><time>2026-09-02T20:40:25Z</time></trkpt><trkpt lat="59.5591626316" lon="31.2660907209"><ele>239.99</ele><time>2026-09-02T20:40:26Z</time></trkpt><trkpt lat="59.5591511484" lon="31.2660946604"><ele>239.99</ele><time>2026-09-02T20:40:27Z</time></trkpt><trkpt lat="59.5591429342" lon="31.2661001924"><ele>239.99</ele><time>2026-09-02T20:40:28Z</time></trkpt><trkpt lat="59.5591307804" lon="31.2661011983"><ele>239.99</ele><time>2026-09-02T20:40:29Z</time></trkpt><trkpt lat="59.5591174532" lon="31.2661005277"><ele>239.99</ele><time>2026-09-02T20:40:30Z</time></trkpt><trkpt lat="59.5591056347" lon="31.2661116756"><ele>239.99</ele><time>2026-09-02T20:40:31Z</time></trkpt><trkpt lat="59.5590976719" lon="31.2661189679"><ele>239.99</ele><time>2026-09-02T20:40:32Z</time></trkpt><trkpt lat="59.5590880327" lon="31.2661227398"><ele>239.99</ele><time>2026-09-02T20:40:33Z</time></trkpt><trkpt lat="59.5590813272" lon="31.2661260925"><ele>239.99</ele><time>2026-09-02T20:40:34Z</time></trkpt><trkpt lat="59.5590757951" lon="31.2661344744"><ele>239.99</ele><time>2026-09-02T20:40:35Z</time></trkpt><trkpt lat="59.5590715203" lon="31.2661467958"><ele>239.99</ele><time>2026-09-02T20:40:36Z</time></trkpt><trkpt lat="59.5590642281" lon="31.2661550939"><ele>239.99</ele><time>2026-09-02T20:40:37Z</time></trkpt><trkpt lat="59.5590608753" lon="31.2661619671"><ele>239.99</ele><time>2026-09-02T20:40:38Z</time></trkpt><trkpt lat="59.5590561815" lon="31.2661682535"><ele>239.99</ele><time>2026-09-02T20:40:39Z</time></trkpt><trkpt lat="59.5590503979" lon="31.2661752943"><ele>239.99</ele><time>2026-09-02T20:40:40Z</time></trkpt><trkpt lat="59.5590466261" lon="31.2661789823"><ele>239.51</ele><time>2026-09-02T20:40:41Z</time></trkpt><trkpt lat="59.5590438601" lon="31.2661833409"><ele>239.51</ele><time>2026-09-02T20:40:42Z</time></trkpt><trkpt lat="59.5590422675" lon="31.2661879510"><ele>239.51</ele><time>2026-09-02T20:40:43Z</time></trkpt><trkpt lat="59.5590434410" lon="31.2661874481"><ele>239.51</ele><time>2026-09-02T20:40:44Z</time></trkpt><trkpt lat="59.5590426866" lon="31.2661893759"><ele>239.51</ele><time>2026-09-02T20:40:45Z</time></trkpt><trkpt lat="59.5590491407" lon="31.2661960814"><ele>239.51</ele><time>2026-09-02T20:40:46Z</time></trkpt><trkpt lat="59.5590525772" lon="31.2662025355"><ele>239.51</ele><time>2026-09-02T20:40:47Z</time></trkpt><trkpt lat="59.5590553433" lon="31.2662052177"><ele>239.51</ele><time>2026-09-02T20:40:48Z</time></trkpt><trkpt lat="59.5590573549" lon="31.2662115879"><ele>239.51</ele><time>2026-09-02T20:40:49Z</time></trkpt><trkpt lat="59.5590613782" lon="31.2662185449"><ele>239.51</ele><time>2026-09-02T20:40:50Z</time></trkpt><trkpt lat="59.5590638928" lon="31.2662284356"><ele>239.51</ele><time>2026-09-02T20:40:51Z</time></trkpt><trkpt lat="59.5590658206" lon="31.2662355602"><ele>239.51</ele><time>2026-09-02T20:40:52Z</time></trkpt><trkpt lat="59.5590687543" lon="31.2662439421"><ele>239.51</ele><time>2026-09-02T20:40:53Z</time></trkpt><trkpt lat="59.5590731967" lon="31.2662519887"><ele>239.99</ele><time>2026-09-02T20:40:54Z</time></trkpt><trkpt lat="59.5590729453" lon="31.2662583590"><ele>239.99</ele><time>2026-09-02T20:40:55Z</time></trkpt><trkpt lat="59.5590723585" lon="31.2662619632"><ele>239.99</ele><time>2026-09-02T20:40:56Z</time></trkpt><trkpt lat="59.5590735320" lon="31.2662671600"><ele>239.99</ele><time>2026-09-02T20:40:57Z</time></trkpt><trkpt lat="59.5590723585" lon="31.2662748713"><ele>239.99</ele><time>2026-09-02T20:40:58Z</time></trkpt><trkpt lat="59.5590714365" lon="31.2662810739"><ele>239.99</ele><time>2026-09-02T20:40:59Z</time></trkpt><trkpt lat="59.5590698440" lon="31.2662881985"><ele>239.99</ele><time>2026-09-02T20:41:00Z</time></trkpt><trkpt lat="59.5590705983" lon="31.2662848458"><ele>239.99</ele><time>2026-09-02T20:41:01Z</time></trkpt><trkpt lat="59.5590703469" lon="31.2662900425"><ele>240.47</ele><time>2026-09-02T20:41:02Z</time></trkpt><trkpt lat="59.5590657368" lon="31.2662990950"><ele>240.47</ele><time>2026-09-02T20:41:03Z</time></trkpt><trkpt lat="59.5590617973" lon="31.2663105782"><ele>240.47</ele><time>2026-09-02T20:41:04Z</time></trkpt><trkpt lat="59.5590575226" lon="31.2663218938"><ele>240.47</ele><time>2026-09-02T20:41:05Z</time></trkpt><trkpt lat="59.5590535831" lon="31.2663313653"><ele>240.47</ele><time>2026-09-02T20:41:06Z</time></trkpt><trkpt lat="59.5590502303" lon="31.2663398311"><ele>240.47</ele><time>2026-09-02T20:41:07Z</time></trkpt><trkpt lat="59.5590472966" lon="31.2663477939"><ele>240.47</ele><time>2026-09-02T20:41:08Z</time></trkpt><trkpt lat="59.5590427704" lon="31.2663561758"><ele>240.47</ele><time>2026-09-02T20:41:09Z</time></trkpt><trkpt lat="59.5590385795" lon="31.2663681619"><ele>240.47</ele><time>2026-09-02T20:41:10Z</time></trkpt><trkpt lat="59.5590330474" lon="31.2663778849"><ele>240.95</ele><time>2026-09-02T20:41:11Z</time></trkpt><trkpt lat="59.5590304490" lon="31.2663890328"><ele>240.95</ele><time>2026-09-02T20:41:12Z</time></trkpt><trkpt lat="59.5590242464" lon="31.2664019410"><ele>240.95</ele><time>2026-09-02T20:41:13Z</time></trkpt><trkpt lat="59.5590211451" lon="31.2664124183"><ele>240.47</ele><time>2026-09-02T20:41:14Z</time></trkpt><trkpt lat="59.5590158645" lon="31.2664274219"><ele>240.47</ele><time>2026-09-02T20:41:15Z</time></trkpt><trkpt lat="59.5590135176" lon="31.2664403301"><ele>240.47</ele><time>2026-09-02T20:41:16Z</time></trkpt><trkpt lat="59.5590088237" lon="31.2664500531"><ele>240.47</ele><time>2026-09-02T20:41:17Z</time></trkpt><trkpt lat="59.5590043813" lon="31.2664592732"><ele>240.47</ele><time>2026-09-02T20:41:18Z</time></trkpt><trkpt lat="59.5590022858" lon="31.2664661463"><ele>239.99</ele><time>2026-09-02T20:41:19Z</time></trkpt><trkpt lat="59.5590015315" lon="31.2664705887"><ele>239.99</ele><time>2026-09-02T20:41:20Z</time></trkpt><trkpt lat="59.5590009447" lon="31.2664726842"><ele>239.99</ele><time>2026-09-02T20:41:21Z</time></trkpt><trkpt lat="59.5590009447" lon="31.2664760370"><ele>239.99</ele><time>2026-09-02T20:41:22Z</time></trkpt><trkpt lat="59.5590002742" lon="31.2664736900"><ele>239.99</ele><time>2026-09-02T20:41:23Z</time></trkpt><trkpt lat="59.5590003580" lon="31.2664767914"><ele>239.99</ele><time>2026-09-02T20:41:24Z</time></trkpt><trkpt lat="59.5590006933" lon="31.2664776295"><ele>239.99</ele><time>2026-09-02T20:41:25Z</time></trkpt><trkpt lat="59.5590006933" lon="31.2664776295"><ele>239.99</ele><time>2026-09-02T20:41:26Z</time></trkpt><trkpt lat="59.5590002742" lon="31.2664815690"><ele>239.99</ele><time>2026-09-02T20:41:29Z</time></trkpt><trkpt lat="59.5589993522" lon="31.2664844189"><ele>239.99</ele><time>2026-09-02T20:41:31Z</time></trkpt><trkpt lat="59.5589986816" lon="31.2664866820"><ele>239.99</ele><time>2026-09-02T20:41:32Z</time></trkpt><trkpt lat="59.5589984301" lon="31.2664884422"><ele>239.99</ele><time>2026-09-02T20:41:33Z</time></trkpt><trkpt lat="59.5589978434" lon="31.2664903700"><ele>239.99</ele><time>2026-09-02T20:41:34Z</time></trkpt><trkpt lat="59.5589979272" lon="31.2664915435"><ele>239.99</ele><time>2026-09-02T20:41:35Z</time></trkpt><trkpt lat="59.5589970890" lon="31.2664933875"><ele>239.99</ele><time>2026-09-02T20:41:36Z</time></trkpt><trkpt lat="59.5589958318" lon="31.2664930522"><ele>239.99</ele><time>2026-09-02T20:41:37Z</time></trkpt><trkpt lat="59.5589942392" lon="31.2664930522"><ele>239.99</ele><time>2026-09-02T20:41:38Z</time></trkpt><trkpt lat="59.5589889586" lon="31.2664947286"><ele>239.99</ele><time>2026-09-02T20:41:39Z</time></trkpt><trkpt lat="59.5589830913" lon="31.2664968241"><ele>239.99</ele><time>2026-09-02T20:41:40Z</time></trkpt><trkpt lat="59.5589782298" lon="31.2664983328"><ele>239.99</ele><time>2026-09-02T20:41:41Z</time></trkpt><trkpt lat="59.5589741226" lon="31.2665024400"><ele>239.99</ele><time>2026-09-02T20:41:42Z</time></trkpt><trkpt lat="59.5589673333" lon="31.2665093970"><ele>239.99</ele><time>2026-09-02T20:41:43Z</time></trkpt><trkpt lat="59.5589620527" lon="31.2665196229"><ele>239.51</ele><time>2026-09-02T20:41:44Z</time></trkpt><trkpt lat="59.5589550957" lon="31.2665311899"><ele>239.51</ele><time>2026-09-02T20:41:45Z</time></trkpt><trkpt lat="59.5589493960" lon="31.2665387336"><ele>239.51</ele><time>2026-09-02T20:41:46Z</time></trkpt><trkpt lat="59.5589438640" lon="31.2665410805"><ele>239.51</ele><time>2026-09-02T20:41:47Z</time></trkpt><trkpt lat="59.5589389186" lon="31.2665531505"><ele>239.51</ele><time>2026-09-02T20:41:48Z</time></trkpt><trkpt lat="59.5589332189" lon="31.2665613648"><ele>239.51</ele><time>2026-09-02T20:41:49Z</time></trkpt><trkpt lat="59.5589271840" lon="31.2665678188"><ele>239.51</ele><time>2026-09-02T20:41:50Z</time></trkpt><trkpt lat="59.5589204784" lon="31.2665708363"><ele>239.51</ele><time>2026-09-02T20:41:51Z</time></trkpt><trkpt lat="59.5589156169" lon="31.2665757816"><ele>239.51</ele><time>2026-09-02T20:41:52Z</time></trkpt><trkpt lat="59.5589124318" lon="31.2665779609"><ele>239.51</ele><time>2026-09-02T20:41:53Z</time></trkpt><trkpt lat="59.5589101687" lon="31.2665818166"><ele>239.51</ele><time>2026-09-02T20:41:54Z</time></trkpt><trkpt lat="59.5589052234" lon="31.2665939704"><ele>239.51</ele><time>2026-09-02T20:41:55Z</time></trkpt><trkpt lat="59.5589015353" lon="31.2666058727"><ele>239.51</ele><time>2026-09-02T20:41:56Z</time></trkpt><trkpt lat="59.5588992722" lon="31.2666126620"><ele>239.99</ele><time>2026-09-02T20:41:57Z</time></trkpt><trkpt lat="59.5588940755" lon="31.2666190322"><ele>239.99</ele><time>2026-09-02T20:41:58Z</time></trkpt><trkpt lat="59.5588907227" lon="31.2666272465"><ele>239.99</ele><time>2026-09-02T20:41:59Z</time></trkpt><trkpt lat="59.5588875376" lon="31.2666317727"><ele>239.99</ele><time>2026-09-02T20:42:00Z</time></trkpt><trkpt lat="59.5588802453" lon="31.2666335329"><ele>239.99</ele><time>2026-09-02T20:42:01Z</time></trkpt><trkpt lat="59.5588724501" lon="31.2666390650"><ele>239.99</ele><time>2026-09-02T20:42:02Z</time></trkpt><trkpt lat="59.5588704385" lon="31.2666491233"><ele>239.51</ele><time>2026-09-02T20:42:03Z</time></trkpt><trkpt lat="59.5588639844" lon="31.2666611932"><ele>239.51</ele><time>2026-09-02T20:42:04Z</time></trkpt><trkpt lat="59.5588564407" lon="31.2666784599"><ele>239.51</ele><time>2026-09-02T20:42:05Z</time></trkpt><trkpt lat="59.5588519983" lon="31.2666902784"><ele>239.51</ele><time>2026-09-02T20:42:06Z</time></trkpt><trkpt lat="59.5588483941" lon="31.2666995823"><ele>239.51</ele><time>2026-09-02T20:42:07Z</time></trkpt><trkpt lat="59.5588482264" lon="31.2667135801"><ele>239.02</ele><time>2026-09-02T20:42:08Z</time></trkpt><trkpt lat="59.5588456281" lon="31.2667271588"><ele>239.02</ele><time>2026-09-02T20:42:09Z</time></trkpt><trkpt lat="59.5588440355" lon="31.2667415757"><ele>239.02</ele><time>2026-09-02T20:42:10Z</time></trkpt><trkpt lat="59.5588444546" lon="31.2667623628"><ele>239.02</ele><time>2026-09-02T20:42:11Z</time></trkpt><trkpt lat="59.5588435326" lon="31.2667772826"><ele>239.02</ele><time>2026-09-02T20:42:12Z</time></trkpt><trkpt lat="59.5588421915" lon="31.2667930406"><ele>239.02</ele><time>2026-09-02T20:42:13Z</time></trkpt><trkpt lat="59.5588378329" lon="31.2668097205"><ele>239.02</ele><time>2026-09-02T20:42:14Z</time></trkpt><trkpt lat="59.5588329714" lon="31.2668247242"><ele>239.02</ele><time>2026-09-02T20:42:15Z</time></trkpt><trkpt lat="59.5588285290" lon="31.2668362912"><ele>239.02</ele><time>2026-09-02T20:42:16Z</time></trkpt><trkpt lat="59.5588249248" lon="31.2668454275"><ele>239.02</ele><time>2026-09-02T20:42:17Z</time></trkpt><trkpt lat="59.5588201471" lon="31.2668520492"><ele>239.02</ele><time>2026-09-02T20:42:18Z</time></trkpt><trkpt lat="59.5588144474" lon="31.2668553181"><ele>239.02</ele><time>2026-09-02T20:42:19Z</time></trkpt><trkpt lat="59.5588057302" lon="31.2668666337"><ele>239.02</ele><time>2026-09-02T20:42:20Z</time></trkpt><trkpt lat="59.5587988570" lon="31.2668753508"><ele>238.54</ele><time>2026-09-02T20:42:21Z</time></trkpt><trkpt lat="59.5587907266" lon="31.2668862473"><ele>238.54</ele><time>2026-09-02T20:42:22Z</time></trkpt><trkpt lat="59.5587839372" lon="31.2668908574"><ele>238.54</ele><time>2026-09-02T20:42:23Z</time></trkpt><trkpt lat="59.5587779861" lon="31.2668966409"><ele>238.54</ele><time>2026-09-02T20:42:24Z</time></trkpt><trkpt lat="59.5587718673" lon="31.2669033464"><ele>238.54</ele><time>2026-09-02T20:42:25Z</time></trkpt><trkpt lat="59.5587673411" lon="31.2669049390"><ele>239.02</ele><time>2026-09-02T20:42:26Z</time></trkpt><trkpt lat="59.5587649941" lon="31.2669122312"><ele>239.02</ele><time>2026-09-02T20:42:27Z</time></trkpt><trkpt lat="59.5587587915" lon="31.2669184338"><ele>239.02</ele><time>2026-09-02T20:42:28Z</time></trkpt><trkpt lat="59.5587564446" lon="31.2669251394"><ele>239.02</ele><time>2026-09-02T20:42:29Z</time></trkpt><trkpt lat="59.5587538462" lon="31.2669305876"><ele>239.02</ele><time>2026-09-02T20:42:30Z</time></trkpt><trkpt lat="59.5587531757" lon="31.2669384666"><ele>239.02</ele><time>2026-09-02T20:42:31Z</time></trkpt><trkpt lat="59.5587507449" lon="31.2669452559"><ele>239.02</ele><time>2026-09-02T20:42:32Z</time></trkpt><trkpt lat="59.5587486494" lon="31.2669535540"><ele>239.02</ele><time>2026-09-02T20:42:33Z</time></trkpt><trkpt lat="59.5587440394" lon="31.2669654563"><ele>239.02</ele><time>2026-09-02T20:42:34Z</time></trkpt><trkpt lat="59.5587413572" lon="31.2669750955"><ele>239.02</ele><time>2026-09-02T20:42:35Z</time></trkpt><trkpt lat="59.5587365795" lon="31.2669789512"><ele>239.02</ele><time>2026-09-02T20:42:36Z</time></trkpt><trkpt lat="59.5587323885" lon="31.2669861596"><ele>239.02</ele><time>2026-09-02T20:42:37Z</time></trkpt><trkpt lat="59.5587275270" lon="31.2669933680"><ele>238.54</ele><time>2026-09-02T20:42:38Z</time></trkpt><trkpt lat="59.5587238390" lon="31.2669985648"><ele>238.54</ele><time>2026-09-02T20:42:39Z</time></trkpt><trkpt lat="59.5587194804" lon="31.2670001574"><ele>238.54</ele><time>2026-09-02T20:42:40Z</time></trkpt><trkpt lat="59.5587143674" lon="31.2670081202"><ele>238.06</ele><time>2026-09-02T20:42:41Z</time></trkpt><trkpt lat="59.5587100927" lon="31.2670178432"><ele>238.06</ele><time>2026-09-02T20:42:42Z</time></trkpt><trkpt lat="59.5587052312" lon="31.2670317572"><ele>238.06</ele><time>2026-09-02T20:42:43Z</time></trkpt><trkpt lat="59.5587013755" lon="31.2670452520"><ele>238.06</ele><time>2026-09-02T20:42:44Z</time></trkpt><trkpt lat="59.5586968493" lon="31.2670585793"><ele>238.06</ele><time>2026-09-02T20:42:45Z</time></trkpt><trkpt lat="59.5586933289" lon="31.2670703977"><ele>238.06</ele><time>2026-09-02T20:42:46Z</time></trkpt><trkpt lat="59.5586904790" lon="31.2670844793"><ele>238.06</ele><time>2026-09-02T20:42:47Z</time></trkpt><trkpt lat="59.5586854499" lon="31.2670926936"><ele>238.06</ele><time>2026-09-02T20:42:48Z</time></trkpt><trkpt lat="59.5586820971" lon="31.2670961302"><ele>238.06</ele><time>2026-09-02T20:42:49Z</time></trkpt><trkpt lat="59.5586781576" lon="31.2671037577"><ele>238.54</ele><time>2026-09-02T20:42:50Z</time></trkpt><trkpt lat="59.5586739667" lon="31.2671082839"><ele>238.54</ele><time>2026-09-02T20:42:51Z</time></trkpt><trkpt lat="59.5586703625" lon="31.2671169173"><ele>238.54</ele><time>2026-09-02T20:42:52Z</time></trkpt><trkpt lat="59.5586629864" lon="31.2671186775"><ele>238.54</ele><time>2026-09-02T20:42:53Z</time></trkpt><trkpt lat="59.5586587954" lon="31.2671236228"><ele>238.54</ele><time>2026-09-02T20:42:54Z</time></trkpt><trkpt lat="59.5586534310" lon="31.2671325915"><ele>238.54</ele><time>2026-09-02T20:42:55Z</time></trkpt><trkpt lat="59.5586513355" lon="31.2671381235"><ele>238.54</ele><time>2026-09-02T20:42:56Z</time></trkpt><trkpt lat="59.5586476475" lon="31.2671408895"><ele>238.54</ele><time>2026-09-02T20:42:57Z</time></trkpt><trkpt lat="59.5586442947" lon="31.2671458349"><ele>238.54</ele><time>2026-09-02T20:42:58Z</time></trkpt><trkpt lat="59.5586420316" lon="31.2671517860"><ele>238.54</ele><time>2026-09-02T20:42:59Z</time></trkpt><trkpt lat="59.5586420316" lon="31.2671505287"><ele>239.02</ele><time>2026-09-02T20:43:00Z</time></trkpt><trkpt lat="59.5586404391" lon="31.2671575695"><ele>239.02</ele><time>2026-09-02T20:43:01Z</time></trkpt><trkpt lat="59.5586379245" lon="31.2671603356"><ele>239.02</ele><time>2026-09-02T20:43:02Z</time></trkpt><trkpt lat="59.5586361643" lon="31.2671611737"><ele>239.02</ele><time>2026-09-02T20:43:03Z</time></trkpt><trkpt lat="59.5586321410" lon="31.2671671249"><ele>239.02</ele><time>2026-09-02T20:43:04Z</time></trkpt><trkpt lat="59.5586261898" lon="31.2671653647"><ele>239.02</ele><time>2026-09-02T20:43:05Z</time></trkpt><trkpt lat="59.5586217474" lon="31.2671632692"><ele>239.02</ele><time>2026-09-02T20:43:06Z</time></trkpt><trkpt lat="59.5586171374" lon="31.2671598326"><ele>239.02</ele><time>2026-09-02T20:43:07Z</time></trkpt><trkpt lat="59.5586137846" lon="31.2671555579"><ele>239.02</ele><time>2026-09-02T20:43:08Z</time></trkpt><trkpt lat="59.5586091746" lon="31.2671498582"><ele>239.02</ele><time>2026-09-02T20:43:09Z</time></trkpt><trkpt lat="59.5586035587" lon="31.2671461701"><ele>239.02</ele><time>2026-09-02T20:43:10Z</time></trkpt><trkpt lat="59.5585970208" lon="31.2671442423"><ele>239.02</ele><time>2026-09-02T20:43:11Z</time></trkpt><trkpt lat="59.5585906506" lon="31.2671460863"><ele>238.54</ele><time>2026-09-02T20:43:12Z</time></trkpt><trkpt lat="59.5585833583" lon="31.2671490200"><ele>238.54</ele><time>2026-09-02T20:43:13Z</time></trkpt><trkpt lat="59.5585759822" lon="31.2671530433"><ele>239.02</ele><time>2026-09-02T20:43:14Z</time></trkpt><trkpt lat="59.5585697796" lon="31.2671627663"><ele>239.02</ele><time>2026-09-02T20:43:15Z</time></trkpt><trkpt lat="59.5585624874" lon="31.2671737466"><ele>239.02</ele><time>2026-09-02T20:43:16Z</time></trkpt><trkpt lat="59.5585558657" lon="31.2671843916"><ele>239.02</ele><time>2026-09-02T20:43:17Z</time></trkpt><trkpt lat="59.5585510880" lon="31.2671960425"><ele>239.02</ele><time>2026-09-02T20:43:18Z</time></trkpt><trkpt lat="59.5585463941" lon="31.2672063522"><ele>239.02</ele><time>2026-09-02T20:43:19Z</time></trkpt><trkpt lat="59.5585425384" lon="31.2672169972"><ele>239.02</ele><time>2026-09-02T20:43:20Z</time></trkpt><trkpt lat="59.5585374255" lon="31.2672239542"><ele>239.02</ele><time>2026-09-02T20:43:21Z</time></trkpt><trkpt lat="59.5585302170" lon="31.2672308274"><ele>239.02</ele><time>2026-09-02T20:43:22Z</time></trkpt><trkpt lat="59.5585240982" lon="31.2672362756"><ele>239.02</ele><time>2026-09-02T20:43:23Z</time></trkpt><trkpt lat="59.5585179795" lon="31.2672573980"><ele>239.02</ele><time>2026-09-02T20:43:24Z</time></trkpt><trkpt lat="59.5585146267" lon="31.2672668695"><ele>239.02</ele><time>2026-09-02T20:43:25Z</time></trkpt><trkpt lat="59.5585110225" lon="31.2672740780"><ele>239.02</ele><time>2026-09-02T20:43:26Z</time></trkpt><trkpt lat="59.5585093461" lon="31.2672790233"><ele>239.51</ele><time>2026-09-02T20:43:27Z</time></trkpt><trkpt lat="59.5585075859" lon="31.2672861479"><ele>239.51</ele><time>2026-09-02T20:43:28Z</time></trkpt><trkpt lat="59.5585057419" lon="31.2672935240"><ele>239.51</ele><time>2026-09-02T20:43:29Z</time></trkpt><trkpt lat="59.5585009642" lon="31.2673082761"><ele>239.51</ele><time>2026-09-02T20:43:30Z</time></trkpt><trkpt lat="59.5584965218" lon="31.2673196755"><ele>239.51</ele><time>2026-09-02T20:43:31Z</time></trkpt><trkpt lat="59.5584936719" lon="31.2673233636"><ele>239.51</ele><time>2026-09-02T20:43:32Z</time></trkpt><trkpt lat="59.5584899839" lon="31.2673333380"><ele>239.51</ele><time>2026-09-02T20:43:33Z</time></trkpt><trkpt lat="59.5584825240" lon="31.2673418876"><ele>239.51</ele><time>2026-09-02T20:43:34Z</time></trkpt><trkpt lat="59.5584770758" lon="31.2673514429"><ele>239.51</ele><time>2026-09-02T20:43:35Z</time></trkpt><trkpt lat="59.5584724657" lon="31.2673571426"><ele>239.51</ele><time>2026-09-02T20:43:36Z</time></trkpt><trkpt lat="59.5584694482" lon="31.2673718948"><ele>239.51</ele><time>2026-09-02T20:43:37Z</time></trkpt><trkpt lat="59.5584675204" lon="31.2673846353"><ele>239.51</ele><time>2026-09-02T20:43:38Z</time></trkpt><trkpt lat="59.5584653411" lon="31.2673924305"><ele>239.51</ele><time>2026-09-02T20:43:39Z</time></trkpt><trkpt lat="59.5584628265" lon="31.2673991360"><ele>239.51</ele><time>2026-09-02T20:43:40Z</time></trkpt><trkpt lat="59.5584605634" lon="31.2674093619"><ele>239.51</ele><time>2026-09-02T20:43:41Z</time></trkpt><trkpt lat="59.5584570430" lon="31.2674179953"><ele>239.51</ele><time>2026-09-02T20:43:42Z</time></trkpt><trkpt lat="59.5584550314" lon="31.2674266286"><ele>239.51</ele><time>2026-09-02T20:43:43Z</time></trkpt><trkpt lat="59.5584522653" lon="31.2674423866"><ele>239.51</ele><time>2026-09-02T20:43:44Z</time></trkpt><trkpt lat="59.5584493317" lon="31.2674576417"><ele>239.51</ele><time>2026-09-02T20:43:45Z</time></trkpt><trkpt lat="59.5584481582" lon="31.2674750760"><ele>239.51</ele><time>2026-09-02T20:43:46Z</time></trkpt><trkpt lat="59.5584461465" lon="31.2674883194"><ele>239.51</ele><time>2026-09-02T20:43:47Z</time></trkpt><trkpt lat="59.5584449731" lon="31.2674966175"><ele>239.51</ele><time>2026-09-02T20:43:48Z</time></trkpt><trkpt lat="59.5584421232" lon="31.2675068434"><ele>239.51</ele><time>2026-09-02T20:43:49Z</time></trkpt><trkpt lat="59.5584394410" lon="31.2675156444"><ele>239.51</ele><time>2026-09-02T20:43:50Z</time></trkpt><trkpt lat="59.5584380999" lon="31.2675315700"><ele>239.51</ele><time>2026-09-02T20:43:51Z</time></trkpt><trkpt lat="59.5584326517" lon="31.2675418798"><ele>239.51</ele><time>2026-09-02T20:43:52Z</time></trkpt><trkpt lat="59.5584307238" lon="31.2675524410"><ele>239.51</ele><time>2026-09-02T20:43:53Z</time></trkpt><trkpt lat="59.5584250242" lon="31.2675616611"><ele>239.99</ele><time>2026-09-02T20:43:54Z</time></trkpt><trkpt lat="59.5584206656" lon="31.2675677799"><ele>239.99</ele><time>2026-09-02T20:43:55Z</time></trkpt><trkpt lat="59.5584181510" lon="31.2675688695"><ele>239.99</ele><time>2026-09-02T20:43:56Z</time></trkpt><trkpt lat="59.5584125351" lon="31.2675797660"><ele>239.99</ele><time>2026-09-02T20:43:57Z</time></trkpt><trkpt lat="59.5584078413" lon="31.2675890699"><ele>239.99</ele><time>2026-09-02T20:43:58Z</time></trkpt><trkpt lat="59.5584039856" lon="31.2675967813"><ele>239.99</ele><time>2026-09-02T20:43:59Z</time></trkpt><trkpt lat="59.5583999623" lon="31.2676094379"><ele>239.99</ele><time>2026-09-02T20:44:00Z</time></trkpt><trkpt lat="59.5583953522" lon="31.2676219270"><ele>239.99</ele><time>2026-09-02T20:44:01Z</time></trkpt><trkpt lat="59.5583896525" lon="31.2676311471"><ele>239.99</ele><time>2026-09-02T20:44:02Z</time></trkpt><trkpt lat="59.5583833661" lon="31.2676393613"><ele>239.99</ele><time>2026-09-02T20:44:03Z</time></trkpt><trkpt lat="59.5583791751" lon="31.2676453963"><ele>239.99</ele><time>2026-09-02T20:44:04Z</time></trkpt><trkpt lat="59.5583781693" lon="31.2676549517"><ele>239.99</ele><time>2026-09-02T20:44:05Z</time></trkpt><trkpt lat="59.5583759900" lon="31.2676689494"><ele>239.99</ele><time>2026-09-02T20:44:06Z</time></trkpt><trkpt lat="59.5583728887" lon="31.2676790915"><ele>239.99</ele><time>2026-09-02T20:44:07Z</time></trkpt><trkpt lat="59.5583696198" lon="31.2676944304"><ele>239.99</ele><time>2026-09-02T20:44:08Z</time></trkpt><trkpt lat="59.5583672728" lon="31.2677089311"><ele>239.99</ele><time>2026-09-02T20:44:09Z</time></trkpt><trkpt lat="59.5583642554" lon="31.2677228451"><ele>239.99</ele><time>2026-09-02T20:44:10Z</time></trkpt><trkpt lat="59.5583608188" lon="31.2677333225"><ele>239.99</ele><time>2026-09-02T20:44:11Z</time></trkpt><trkpt lat="59.5583597291" lon="31.2677423749"><ele>239.99</ele><time>2026-09-02T20:44:12Z</time></trkpt><trkpt lat="59.5583595615" lon="31.2677532714"><ele>239.99</ele><time>2026-09-02T20:44:13Z</time></trkpt><trkpt lat="59.5583563764" lon="31.2677652575"><ele>239.99</ele><time>2026-09-02T20:44:14Z</time></trkpt><trkpt lat="59.5583547000" lon="31.2677729689"><ele>239.99</ele><time>2026-09-02T20:44:15Z</time></trkpt><trkpt lat="59.5583515987" lon="31.2677825242"><ele>239.99</ele><time>2026-09-02T20:44:16Z</time></trkpt><trkpt lat="59.5583455637" lon="31.2677916605"><ele>239.99</ele><time>2026-09-02T20:44:17Z</time></trkpt><trkpt lat="59.5583410375" lon="31.2678022217"><ele>239.99</ele><time>2026-09-02T20:44:18Z</time></trkpt><trkpt lat="59.5583357569" lon="31.2678133696"><ele>239.99</ele><time>2026-09-02T20:44:19Z</time></trkpt><trkpt lat="59.5583310630" lon="31.2678248528"><ele>239.99</ele><time>2026-09-02T20:44:20Z</time></trkpt><trkpt lat="59.5583259501" lon="31.2678304687"><ele>239.99</ele><time>2026-09-02T20:44:21Z</time></trkpt><trkpt lat="59.5583178196" lon="31.2678383477"><ele>239.99</ele><time>2026-09-02T20:44:22Z</time></trkpt><trkpt lat="59.5583151374" lon="31.2678396888"><ele>239.99</ele><time>2026-09-02T20:44:23Z</time></trkpt><trkpt lat="59.5583090186" lon="31.2678369228"><ele>239.99</ele><time>2026-09-02T20:44:24Z</time></trkpt><trkpt lat="59.5583048277" lon="31.2678384315"><ele>239.99</ele><time>2026-09-02T20:44:25Z</time></trkpt><trkpt lat="59.5583002176" lon="31.2678392697"><ele>239.99</ele><time>2026-09-02T20:44:26Z</time></trkpt><trkpt lat="59.5582907461" lon="31.2678463943"><ele>239.51</ele><time>2026-09-02T20:44:27Z</time></trkpt><trkpt lat="59.5582870580" lon="31.2678547762"><ele>239.51</ele><time>2026-09-02T20:44:28Z</time></trkpt><trkpt lat="59.5582819451" lon="31.2678600568"><ele>239.51</ele><time>2026-09-02T20:44:29Z</time></trkpt><trkpt lat="59.5582780894" lon="31.2678647507"><ele>239.51</ele><time>2026-09-02T20:44:30Z</time></trkpt><trkpt lat="59.5582732279" lon="31.2678710371"><ele>239.51</ele><time>2026-09-02T20:44:31Z</time></trkpt><trkpt lat="59.5582662709" lon="31.2678765692"><ele>239.99</ele><time>2026-09-02T20:44:32Z</time></trkpt><trkpt lat="59.5582613256" lon="31.2678818498"><ele>239.99</ele><time>2026-09-02T20:44:33Z</time></trkpt><trkpt lat="59.5582587272" lon="31.2678912375"><ele>239.99</ele><time>2026-09-02T20:44:34Z</time></trkpt><trkpt lat="59.5582556259" lon="31.2679033913"><ele>239.99</ele><time>2026-09-02T20:44:35Z</time></trkpt><trkpt lat="59.5582530275" lon="31.2679076660"><ele>239.51</ele><time>2026-09-02T20:44:36Z</time></trkpt><trkpt lat="59.5582490880" lon="31.2679125275"><ele>239.51</ele><time>2026-09-02T20:44:37Z</time></trkpt><trkpt lat="59.5582454000" lon="31.2679181434"><ele>239.51</ele><time>2026-09-02T20:44:38Z</time></trkpt><trkpt lat="59.5582408737" lon="31.2679284532"><ele>239.51</ele><time>2026-09-02T20:44:39Z</time></trkpt><trkpt lat="59.5582368504" lon="31.2679461390"><ele>239.51</ele><time>2026-09-02T20:44:40Z</time></trkpt><trkpt lat="59.5582342520" lon="31.2679598853"><ele>239.51</ele><time>2026-09-02T20:44:41Z</time></trkpt><trkpt lat="59.5582288876" lon="31.2679695245"><ele>239.51</ele><time>2026-09-02T20:44:42Z</time></trkpt><trkpt lat="59.5582221821" lon="31.2679787446"><ele>239.51</ele><time>2026-09-02T20:44:43Z</time></trkpt><trkpt lat="59.5582162309" lon="31.2679860368"><ele>239.51</ele><time>2026-09-02T20:44:44Z</time></trkpt><trkpt lat="59.5582093578" lon="31.2679946702"><ele>239.02</ele><time>2026-09-02T20:44:45Z</time></trkpt><trkpt lat="59.5582036581" lon="31.2680031359"><ele>239.02</ele><time>2026-09-02T20:44:46Z</time></trkpt><trkpt lat="59.5581981260" lon="31.2680113502"><ele>239.02</ele><time>2026-09-02T20:44:47Z</time></trkpt><trkpt lat="59.5581927616" lon="31.2680194806"><ele>239.02</ele><time>2026-09-02T20:44:48Z</time></trkpt><trkpt lat="59.5581874810" lon="31.2680280302"><ele>239.02</ele><time>2026-09-02T20:44:49Z</time></trkpt><trkpt lat="59.5581784286" lon="31.2680363283"><ele>239.02</ele><time>2026-09-02T20:44:50Z</time></trkpt><trkpt lat="59.5581714716" lon="31.2680425309"><ele>239.02</ele><time>2026-09-02T20:44:51Z</time></trkpt><trkpt lat="59.5581643470" lon="31.2680465542"><ele>239.02</ele><time>2026-09-02T20:44:52Z</time></trkpt><trkpt lat="59.5581616648" lon="31.2680492364"><ele>239.02</ele><time>2026-09-02T20:44:53Z</time></trkpt><trkpt lat="59.5581608266" lon="31.2680529244"><ele>239.02</ele><time>2026-09-02T20:44:54Z</time></trkpt><trkpt lat="59.5581590664" lon="31.2680543493"><ele>239.02</ele><time>2026-09-02T20:44:55Z</time></trkpt><trkpt lat="59.5581563842" lon="31.2680558581"><ele>239.02</ele><time>2026-09-02T20:44:56Z</time></trkpt><trkpt lat="59.5581502654" lon="31.2680550199"><ele>239.02</ele><time>2026-09-02T20:44:57Z</time></trkpt><trkpt lat="59.5581461582" lon="31.2680610549"><ele>239.02</ele><time>2026-09-02T20:44:58Z</time></trkpt><trkpt lat="59.5581422187" lon="31.2680622283"><ele>239.02</ele><time>2026-09-02T20:44:59Z</time></trkpt><trkpt lat="59.5581366867" lon="31.2680628989"><ele>239.02</ele><time>2026-09-02T20:45:00Z</time></trkpt><trkpt lat="59.5581303164" lon="31.2680658326"><ele>239.02</ele><time>2026-09-02T20:45:01Z</time></trkpt><trkpt lat="59.5581248682" lon="31.2680695206"><ele>239.02</ele><time>2026-09-02T20:45:02Z</time></trkpt><trkpt lat="59.5581205934" lon="31.2680722866"><ele>239.02</ele><time>2026-09-02T20:45:03Z</time></trkpt><trkpt lat="59.5581158996" lon="31.2680770643"><ele>239.02</ele><time>2026-09-02T20:45:04Z</time></trkpt><trkpt lat="59.5581116248" lon="31.2680826802"><ele>239.02</ele><time>2026-09-02T20:45:05Z</time></trkpt><trkpt lat="59.5581081882" lon="31.2680797465"><ele>239.02</ele><time>2026-09-02T20:45:06Z</time></trkpt><trkpt lat="59.5581040811" lon="31.2680834346"><ele>239.02</ele><time>2026-09-02T20:45:07Z</time></trkpt><trkpt lat="59.5580951963" lon="31.2680806685"><ele>239.02</ele><time>2026-09-02T20:45:08Z</time></trkpt><trkpt lat="59.5580899995" lon="31.2680891342"><ele>239.02</ele><time>2026-09-02T20:45:09Z</time></trkpt><trkpt lat="59.5580843836" lon="31.2680862844"><ele>239.02</ele><time>2026-09-02T20:45:10Z</time></trkpt><trkpt lat="59.5580787677" lon="31.2680826802"><ele>239.02</ele><time>2026-09-02T20:45:11Z</time></trkpt><trkpt lat="59.5580763370" lon="31.2680813391"><ele>239.02</ele><time>2026-09-02T20:45:12Z</time></trkpt><trkpt lat="59.5580726489" lon="31.2680774834"><ele>239.02</ele><time>2026-09-02T20:45:13Z</time></trkpt><trkpt lat="59.5580732357" lon="31.2680696882"><ele>239.02</ele><time>2026-09-02T20:45:14Z</time></trkpt><trkpt lat="59.5580796897" lon="31.2680631503"><ele>239.02</ele><time>2026-09-02T20:45:15Z</time></trkpt><trkpt lat="59.5580748282" lon="31.2680640724"><ele>239.02</ele><time>2026-09-02T20:45:16Z</time></trkpt><trkpt lat="59.5580837969" lon="31.2680583727"><ele>239.02</ele><time>2026-09-02T20:45:17Z</time></trkpt><trkpt lat="59.5580903348" lon="31.2680512480"><ele>239.02</ele><time>2026-09-02T20:45:18Z</time></trkpt><trkpt lat="59.5581003930" lon="31.2680487335"><ele>239.02</ele><time>2026-09-02T20:45:19Z</time></trkpt><trkpt lat="59.5581066795" lon="31.2680457998"><ele>239.02</ele><time>2026-09-02T20:45:20Z</time></trkpt><trkpt lat="59.5581109542" lon="31.2680391781"><ele>239.02</ele><time>2026-09-02T20:45:21Z</time></trkpt><trkpt lat="59.5581141394" lon="31.2680294551"><ele>239.02</ele><time>2026-09-02T20:45:22Z</time></trkpt><trkpt lat="59.5581198391" lon="31.2680218276"><ele>239.02</ele><time>2026-09-02T20:45:23Z</time></trkpt><trkpt lat="59.5581263769" lon="31.2680170499"><ele>239.02</ele><time>2026-09-02T20:45:24Z</time></trkpt><trkpt lat="59.5581331663" lon="31.2680192292"><ele>239.02</ele><time>2026-09-02T20:45:25Z</time></trkpt><trkpt lat="59.5581391174" lon="31.2680251803"><ele>239.02</ele><time>2026-09-02T20:45:26Z</time></trkpt><trkpt lat="59.5581433922" lon="31.2680272758"><ele>239.02</ele><time>2026-09-02T20:45:27Z</time></trkpt><trkpt lat="59.5581458230" lon="31.2680254318"><ele>239.02</ele><time>2026-09-02T20:45:28Z</time></trkpt><trkpt lat="59.5581467450" lon="31.2680280302"><ele>239.02</ele><time>2026-09-02T20:45:29Z</time></trkpt><trkpt lat="59.5581479184" lon="31.2680310477"><ele>239.02</ele><time>2026-09-02T20:45:30Z</time></trkpt><trkpt lat="59.5581480861" lon="31.2680290360"><ele>239.02</ele><time>2026-09-02T20:45:31Z</time></trkpt><trkpt lat="59.5581487566" lon="31.2680316344"><ele>239.02</ele><time>2026-09-02T20:45:32Z</time></trkpt><trkpt lat="59.5581493434" lon="31.2680324726"><ele>239.02</ele><time>2026-09-02T20:45:33Z</time></trkpt><trkpt lat="59.5581501815" lon="31.2680350710"><ele>239.02</ele><time>2026-09-02T20:45:34Z</time></trkpt><trkpt lat="59.5581527799" lon="31.2680399325"><ele>239.02</ele><time>2026-09-02T20:45:35Z</time></trkpt><trkpt lat="59.5581552945" lon="31.2680457998"><ele>239.02</ele><time>2026-09-02T20:45:36Z</time></trkpt><trkpt lat="59.5581581444" lon="31.2680504937"><ele>239.02</ele><time>2026-09-02T20:45:37Z</time></trkpt><trkpt lat="59.5581627544" lon="31.2680472247"><ele>239.02</ele><time>2026-09-02T20:45:38Z</time></trkpt><trkpt lat="59.5581682865" lon="31.2680470571"><ele>239.02</ele><time>2026-09-02T20:45:39Z</time></trkpt><trkpt lat="59.5581731480" lon="31.2680483982"><ele>239.51</ele><time>2026-09-02T20:45:40Z</time></trkpt><trkpt lat="59.5581773389" lon="31.2680533435"><ele>239.51</ele><time>2026-09-02T20:45:41Z</time></trkpt><trkpt lat="59.5581803564" lon="31.2680620607"><ele>239.51</ele><time>2026-09-02T20:45:42Z</time></trkpt><trkpt lat="59.5581826195" lon="31.2680688500"><ele>239.51</ele><time>2026-09-02T20:45:43Z</time></trkpt><trkpt lat="59.5581837930" lon="31.2680667546"><ele>239.51</ele><time>2026-09-02T20:45:44Z</time></trkpt><trkpt lat="59.5581845473" lon="31.2680756394"><ele>239.02</ele><time>2026-09-02T20:45:45Z</time></trkpt><trkpt lat="59.5581855532" lon="31.2680859491"><ele>239.02</ele><time>2026-09-02T20:45:46Z</time></trkpt><trkpt lat="59.5581868943" lon="31.2680989411"><ele>239.02</ele><time>2026-09-02T20:45:47Z</time></trkpt><trkpt lat="59.5581892412" lon="31.2681128550"><ele>239.02</ele><time>2026-09-02T20:45:48Z</time></trkpt><trkpt lat="59.5581916720" lon="31.2681244221"><ele>239.02</ele><time>2026-09-02T20:45:49Z</time></trkpt><trkpt lat="59.5581941865" lon="31.2681357376"><ele>239.02</ele><time>2026-09-02T20:45:50Z</time></trkpt><trkpt lat="59.5581942704" lon="31.2681539264"><ele>239.02</ele><time>2026-09-02T20:45:51Z</time></trkpt><trkpt lat="59.5581960306" lon="31.2681666669"><ele>239.02</ele><time>2026-09-02T20:45:52Z</time></trkpt><trkpt lat="59.5581977908" lon="31.2681760546"><ele>239.02</ele><time>2026-09-02T20:45:53Z</time></trkpt><trkpt lat="59.5581984613" lon="31.2681870349"><ele>239.02</ele><time>2026-09-02T20:45:54Z</time></trkpt><trkpt lat="59.5582058374" lon="31.2681937404"><ele>239.02</ele><time>2026-09-02T20:45:55Z</time></trkpt><trkpt lat="59.5582104474" lon="31.2682016194"><ele>239.02</ele><time>2026-09-02T20:45:56Z</time></trkpt><trkpt lat="59.5582147222" lon="31.2682058942"><ele>239.02</ele><time>2026-09-02T20:45:57Z</time></trkpt><trkpt lat="59.5582177397" lon="31.2682120968"><ele>239.02</ele><time>2026-09-02T20:45:58Z</time></trkpt><trkpt lat="59.5582221821" lon="31.2682132702"><ele>239.02</ele><time>2026-09-02T20:45:59Z</time></trkpt><trkpt lat="59.5582231879" lon="31.2682182994"><ele>239.02</ele><time>2026-09-02T20:46:00Z</time></trkpt><trkpt lat="59.5582244452" lon="31.2682226580"><ele>239.02</ele><time>2026-09-02T20:46:01Z</time></trkpt><trkpt lat="59.5582247805" lon="31.2682266813"><ele>239.02</ele><time>2026-09-02T20:46:02Z</time></trkpt><trkpt lat="59.5582253672" lon="31.2682268489"><ele>239.02</ele><time>2026-09-02T20:46:03Z</time></trkpt><trkpt lat="59.5582246967" lon="31.2682292797"><ele>239.02</ele><time>2026-09-02T20:46:04Z</time></trkpt><trkpt lat="59.5582240261" lon="31.2682308722"><ele>239.02</ele><time>2026-09-02T20:46:05Z</time></trkpt><trkpt lat="59.5582238585" lon="31.2682327162"><ele>239.02</ele><time>2026-09-02T20:46:06Z</time></trkpt><trkpt lat="59.5582251996" lon="31.2682349794"><ele>239.02</ele><time>2026-09-02T20:46:07Z</time></trkpt><trkpt lat="59.5582249481" lon="31.2682394218"><ele>239.02</ele><time>2026-09-02T20:46:08Z</time></trkpt><trkpt lat="59.5582251996" lon="31.2682376616"><ele>239.02</ele><time>2026-09-02T20:46:09Z</time></trkpt><trkpt lat="59.5582248643" lon="31.2682418525"><ele>239.02</ele><time>2026-09-02T20:46:10Z</time></trkpt><trkpt lat="59.5582244452" lon="31.2682436965"><ele>239.02</ele><time>2026-09-02T20:46:11Z</time></trkpt><trkpt lat="59.5582245290" lon="31.2682481389"><ele>239.02</ele><time>2026-09-02T20:46:12Z</time></trkpt><trkpt lat="59.5582236908" lon="31.2682456244"><ele>239.02</ele><time>2026-09-02T20:46:13Z</time></trkpt><trkpt lat="59.5582230203" lon="31.2682468817"><ele>239.02</ele><time>2026-09-02T20:46:14Z</time></trkpt><trkpt lat="59.5582214277" lon="31.2682487257"><ele>239.02</ele><time>2026-09-02T20:46:15Z</time></trkpt><trkpt lat="59.5582202543" lon="31.2682525814"><ele>239.02</ele><time>2026-09-02T20:46:16Z</time></trkpt><trkpt lat="59.5582164824" lon="31.2682561856"><ele>239.02</ele><time>2026-09-02T20:46:17Z</time></trkpt><trkpt lat="59.5582160633" lon="31.2682574429"><ele>239.02</ele><time>2026-09-02T20:46:18Z</time></trkpt><trkpt lat="59.5582148898" lon="31.2682632264"><ele>239.02</ele><time>2026-09-02T20:46:19Z</time></trkpt><trkpt lat="59.5582145546" lon="31.2682604603"><ele>239.02</ele><time>2026-09-02T20:46:20Z</time></trkpt><trkpt lat="59.5582138840" lon="31.2682637293"><ele>239.02</ele><time>2026-09-02T20:46:21Z</time></trkpt><trkpt lat="59.5582135487" lon="31.2682641484"><ele>239.02</ele><time>2026-09-02T20:46:22Z</time></trkpt><trkpt lat="59.5582138840" lon="31.2682670821"><ele>239.02</ele><time>2026-09-02T20:46:23Z</time></trkpt><trkpt lat="59.5582131296" lon="31.2682736199"><ele>239.02</ele><time>2026-09-02T20:46:24Z</time></trkpt><trkpt lat="59.5582132973" lon="31.2682786491"><ele>239.02</ele><time>2026-09-02T20:46:25Z</time></trkpt><trkpt lat="59.5582136326" lon="31.2682823371"><ele>239.02</ele><time>2026-09-02T20:46:26Z</time></trkpt><trkpt lat="59.5582129620" lon="31.2682870310"><ele>239.02</ele><time>2026-09-02T20:46:27Z</time></trkpt><trkpt lat="59.5582137164" lon="31.2682857737"><ele>239.02</ele><time>2026-09-02T20:46:28Z</time></trkpt><trkpt lat="59.5582135487" lon="31.2682887912"><ele>239.02</ele><time>2026-09-02T20:46:29Z</time></trkpt><trkpt lat="59.5582144707" lon="31.2682890426"><ele>239.02</ele><time>2026-09-02T20:46:30Z</time></trkpt><trkpt lat="59.5582154766" lon="31.2682912219"><ele>238.54</ele><time>2026-09-02T20:46:31Z</time></trkpt><trkpt lat="59.5582158957" lon="31.2682945747"><ele>238.54</ele><time>2026-09-02T20:46:32Z</time></trkpt><trkpt lat="59.5582169853" lon="31.2682942394"><ele>238.54</ele><time>2026-09-02T20:46:33Z</time></trkpt><trkpt lat="59.5582156442" lon="31.2682943232"><ele>238.54</ele><time>2026-09-02T20:46:34Z</time></trkpt><trkpt lat="59.5582148898" lon="31.2682944909"><ele>238.54</ele><time>2026-09-02T20:46:35Z</time></trkpt><trkpt lat="59.5582149737" lon="31.2682968378"><ele>238.54</ele><time>2026-09-02T20:46:36Z</time></trkpt><trkpt lat="59.5582150575" lon="31.2683009449"><ele>238.54</ele><time>2026-09-02T20:46:37Z</time></trkpt><trkpt lat="59.5582140516" lon="31.2683096621"><ele>238.54</ele><time>2026-09-02T20:46:38Z</time></trkpt><trkpt lat="59.5582126267" lon="31.2683124281"><ele>238.54</ele><time>2026-09-02T20:46:39Z</time></trkpt><trkpt lat="59.5582082681" lon="31.2683151942"><ele>238.54</ele><time>2026-09-02T20:46:40Z</time></trkpt><trkpt lat="59.5582047477" lon="31.2683155295"><ele>238.54</ele><time>2026-09-02T20:46:41Z</time></trkpt><trkpt lat="59.5582010597" lon="31.2683203910"><ele>238.54</ele><time>2026-09-02T20:46:42Z</time></trkpt><trkpt lat="59.5581948571" lon="31.2683246657"><ele>238.54</ele><time>2026-09-02T20:46:43Z</time></trkpt><trkpt lat="59.5581903309" lon="31.2683306169"><ele>238.54</ele><time>2026-09-02T20:46:44Z</time></trkpt><trkpt lat="59.5581870619" lon="31.2683426868"><ele>238.54</ele><time>2026-09-02T20:46:45Z</time></trkpt><trkpt lat="59.5581841283" lon="31.2683530804"><ele>238.54</ele><time>2026-09-02T20:46:46Z</time></trkpt><trkpt lat="59.5581812784" lon="31.2683607917"><ele>238.54</ele><time>2026-09-02T20:46:47Z</time></trkpt><trkpt lat="59.5581801888" lon="31.2683661561"><ele>238.54</ele><time>2026-09-02T20:46:48Z</time></trkpt><trkpt lat="59.5581772551" lon="31.2683744542"><ele>238.54</ele><time>2026-09-02T20:46:49Z</time></trkpt><trkpt lat="59.5581791829" lon="31.2683698442"><ele>238.54</ele><time>2026-09-02T20:46:50Z</time></trkpt><trkpt lat="59.5581768360" lon="31.2683753762"><ele>238.54</ele><time>2026-09-02T20:46:51Z</time></trkpt><trkpt lat="59.5581760816" lon="31.2683748733"><ele>238.54</ele><time>2026-09-02T20:46:52Z</time></trkpt><trkpt lat="59.5581736509" lon="31.2683755439"><ele>238.54</ele><time>2026-09-02T20:46:53Z</time></trkpt><trkpt lat="59.5581720583" lon="31.2683790643"><ele>238.54</ele><time>2026-09-02T20:46:54Z</time></trkpt><trkpt lat="59.5581695437" lon="31.2683799863"><ele>238.54</ele><time>2026-09-02T20:46:55Z</time></trkpt><trkpt lat="59.5581666939" lon="31.2683802377"><ele>238.54</ele><time>2026-09-02T20:46:56Z</time></trkpt><trkpt lat="59.5581647661" lon="31.2683818303"><ele>238.54</ele><time>2026-09-02T20:46:57Z</time></trkpt><trkpt lat="59.5581618324" lon="31.2683840934"><ele>238.54</ele><time>2026-09-02T20:46:58Z</time></trkpt><trkpt lat="59.5581600722" lon="31.2683876976"><ele>238.54</ele><time>2026-09-02T20:46:59Z</time></trkpt><trkpt lat="59.5581598207" lon="31.2683850992"><ele>238.54</ele><time>2026-09-02T20:47:00Z</time></trkpt><trkpt lat="59.5581586473" lon="31.2683881167"><ele>238.54</ele><time>2026-09-02T20:47:01Z</time></trkpt><trkpt lat="59.5581597369" lon="31.2683863565"><ele>238.54</ele><time>2026-09-02T20:47:02Z</time></trkpt><trkpt lat="59.5581599884" lon="31.2683869433"><ele>238.54</ele><time>2026-09-02T20:47:03Z</time></trkpt><trkpt lat="59.5581603236" lon="31.2683848478"><ele>238.54</ele><time>2026-09-02T20:47:04Z</time></trkpt><trkpt lat="59.5581597369" lon="31.2683823332"><ele>238.54</ele><time>2026-09-02T20:47:05Z</time></trkpt><trkpt lat="59.5581597369" lon="31.2683837581"><ele>238.54</ele><time>2026-09-02T20:47:06Z</time></trkpt><trkpt lat="59.5581587311" lon="31.2683828361"><ele>238.54</ele><time>2026-09-02T20:47:07Z</time></trkpt><trkpt lat="59.5581578929" lon="31.2683865242"><ele>238.54</ele><time>2026-09-02T20:47:08Z</time></trkpt><trkpt lat="59.5581526961" lon="31.2683921400"><ele>238.54</ele><time>2026-09-02T20:47:09Z</time></trkpt><trkpt lat="59.5581492595" lon="31.2683968339"><ele>238.54</ele><time>2026-09-02T20:47:10Z</time></trkpt><trkpt lat="59.5581501815" lon="31.2683970854"><ele>238.54</ele><time>2026-09-02T20:47:11Z</time></trkpt><trkpt lat="59.5581475832" lon="31.2683997676"><ele>238.54</ele><time>2026-09-02T20:47:12Z</time></trkpt><trkpt lat="59.5581441466" lon="31.2684035394"><ele>238.54</ele><time>2026-09-02T20:47:13Z</time></trkpt><trkpt lat="59.5581403747" lon="31.2684052996"><ele>238.54</ele><time>2026-09-02T20:47:14Z</time></trkpt><trkpt lat="59.5581393689" lon="31.2684026174"><ele>238.54</ele><time>2026-09-02T20:47:15Z</time></trkpt><trkpt lat="59.5581373572" lon="31.2684047967"><ele>238.54</ele><time>2026-09-02T20:47:16Z</time></trkpt><trkpt lat="59.5581372734" lon="31.2684119213"><ele>238.54</ele><time>2026-09-02T20:47:17Z</time></trkpt><trkpt lat="59.5581358485" lon="31.2684162799"><ele>238.54</ele><time>2026-09-02T20:47:18Z</time></trkpt><trkpt lat="59.5581340883" lon="31.2684238236"><ele>238.54</ele><time>2026-09-02T20:47:19Z</time></trkpt><trkpt lat="59.5581324957" lon="31.2684296910"><ele>238.54</ele><time>2026-09-02T20:47:20Z</time></trkpt><trkpt lat="59.5581278857" lon="31.2684365641"><ele>238.54</ele><time>2026-09-02T20:47:21Z</time></trkpt><trkpt lat="59.5581188332" lon="31.2684373185"><ele>238.54</ele><time>2026-09-02T20:47:22Z</time></trkpt><trkpt lat="59.5581132174" lon="31.2684404198"><ele>238.54</ele><time>2026-09-02T20:47:23Z</time></trkpt><trkpt lat="59.5581093617" lon="31.2684425991"><ele>238.54</ele><time>2026-09-02T20:47:24Z</time></trkpt><trkpt lat="59.5581031591" lon="31.2684461195"><ele>238.54</ele><time>2026-09-02T20:47:25Z</time></trkpt><trkpt lat="59.5580968726" lon="31.2684556749"><ele>238.54</ele><time>2026-09-02T20:47:26Z</time></trkpt><trkpt lat="59.5580982976" lon="31.2684496399"><ele>238.54</ele><time>2026-09-02T20:47:27Z</time></trkpt><trkpt lat="59.5580927655" lon="31.2684423476"><ele>238.54</ele><time>2026-09-02T20:47:28Z</time></trkpt><trkpt lat="59.5580888260" lon="31.2684371509"><ele>238.54</ele><time>2026-09-02T20:47:29Z</time></trkpt><trkpt lat="59.5580846351" lon="31.2684368994"><ele>238.54</ele><time>2026-09-02T20:47:30Z</time></trkpt><trkpt lat="59.5580798574" lon="31.2684369832"><ele>238.54</ele><time>2026-09-02T20:47:31Z</time></trkpt><trkpt lat="59.5580741577" lon="31.2684389949"><ele>238.54</ele><time>2026-09-02T20:47:32Z</time></trkpt><trkpt lat="59.5580685418" lon="31.2684398331"><ele>238.54</ele><time>2026-09-02T20:47:33Z</time></trkpt><trkpt lat="59.5580648538" lon="31.2684424315"><ele>238.54</ele><time>2026-09-02T20:47:34Z</time></trkpt><trkpt lat="59.5580633450" lon="31.2684373185"><ele>238.54</ele><time>2026-09-02T20:47:35Z</time></trkpt><trkpt lat="59.5580575615" lon="31.2684330437"><ele>238.54</ele><time>2026-09-02T20:47:36Z</time></trkpt><trkpt lat="59.5580508560" lon="31.2684317864"><ele>238.54</ele><time>2026-09-02T20:47:37Z</time></trkpt><trkpt lat="59.5580423903" lon="31.2684270926"><ele>238.54</ele><time>2026-09-02T20:47:38Z</time></trkpt><trkpt lat="59.5580353495" lon="31.2684250809"><ele>238.54</ele><time>2026-09-02T20:47:39Z</time></trkpt><trkpt lat="59.5580297336" lon="31.2684188783"><ele>238.54</ele><time>2026-09-02T20:47:40Z</time></trkpt><trkpt lat="59.5580253750" lon="31.2684113346"><ele>239.02</ele><time>2026-09-02T20:47:41Z</time></trkpt><trkpt lat="59.5580153167" lon="31.2684018631"><ele>239.02</ele><time>2026-09-02T20:47:42Z</time></trkpt><trkpt lat="59.5580051746" lon="31.2683980912"><ele>239.02</ele><time>2026-09-02T20:47:43Z</time></trkpt><trkpt lat="59.5579986367" lon="31.2683957443"><ele>239.02</ele><time>2026-09-02T20:47:44Z</time></trkpt><trkpt lat="59.5579882432" lon="31.2683929782"><ele>239.02</ele><time>2026-09-02T20:47:45Z</time></trkpt><trkpt lat="59.5579837169" lon="31.2683889549"><ele>239.02</ele><time>2026-09-02T20:47:46Z</time></trkpt><trkpt lat="59.5579773467" lon="31.2683938164"><ele>239.02</ele><time>2026-09-02T20:47:47Z</time></trkpt><trkpt lat="59.5579694677" lon="31.2683986779"><ele>239.02</ele><time>2026-09-02T20:47:48Z</time></trkpt><trkpt lat="59.5579635166" lon="31.2684053835"><ele>239.02</ele><time>2026-09-02T20:47:49Z</time></trkpt><trkpt lat="59.5579575654" lon="31.2684147712"><ele>239.02</ele><time>2026-09-02T20:47:50Z</time></trkpt><trkpt lat="59.5579465851" lon="31.2684244942"><ele>239.02</ele><time>2026-09-02T20:47:51Z</time></trkpt><trkpt lat="59.5579403825" lon="31.2684318703"><ele>239.02</ele><time>2026-09-02T20:47:52Z</time></trkpt><trkpt lat="59.5579338446" lon="31.2684340496"><ele>239.02</ele><time>2026-09-02T20:47:53Z</time></trkpt><trkpt lat="59.5579297375" lon="31.2684388272"><ele>239.02</ele><time>2026-09-02T20:47:54Z</time></trkpt><trkpt lat="59.5579251274" lon="31.2684446946"><ele>239.02</ele><time>2026-09-02T20:47:55Z</time></trkpt><trkpt lat="59.5579160750" lon="31.2684529927"><ele>239.02</ele><time>2026-09-02T20:47:56Z</time></trkpt><trkpt lat="59.5579216909" lon="31.2684503943"><ele>239.02</ele><time>2026-09-02T20:47:57Z</time></trkpt><trkpt lat="59.5579166617" lon="31.2684529927"><ele>239.02</ele><time>2026-09-02T20:47:58Z</time></trkpt><trkpt lat="59.5579125546" lon="31.2684582733"><ele>239.02</ele><time>2026-09-02T20:47:59Z</time></trkpt><trkpt lat="59.5579104591" lon="31.2684577703"><ele>239.02</ele><time>2026-09-02T20:48:00Z</time></trkpt><trkpt lat="59.5579112973" lon="31.2684540823"><ele>239.02</ele><time>2026-09-02T20:48:01Z</time></trkpt><trkpt lat="59.5579108782" lon="31.2684525736"><ele>239.02</ele><time>2026-09-02T20:48:02Z</time></trkpt><trkpt lat="59.5579146501" lon="31.2684540823"><ele>239.02</ele><time>2026-09-02T20:48:03Z</time></trkpt><trkpt lat="59.5579167455" lon="31.2684461195"><ele>239.02</ele><time>2026-09-02T20:48:04Z</time></trkpt><trkpt lat="59.5579155721" lon="31.2684352230"><ele>239.02</ele><time>2026-09-02T20:48:05Z</time></trkpt><trkpt lat="59.5579140633" lon="31.2684288528"><ele>239.02</ele><time>2026-09-02T20:48:06Z</time></trkpt><trkpt lat="59.5579096209" lon="31.2684220634"><ele>239.02</ele><time>2026-09-02T20:48:07Z</time></trkpt><trkpt lat="59.5579049271" lon="31.2684187945"><ele>239.02</ele><time>2026-09-02T20:48:08Z</time></trkpt><trkpt lat="59.5579005685" lon="31.2684160285"><ele>239.02</ele><time>2026-09-02T20:48:09Z</time></trkpt><trkpt lat="59.5578926895" lon="31.2684168667"><ele>239.02</ele><time>2026-09-02T20:48:10Z</time></trkpt><trkpt lat="59.5578862354" lon="31.2684171181"><ele>239.02</ele><time>2026-09-02T20:48:11Z</time></trkpt><trkpt lat="59.5578804519" lon="31.2684195489"><ele>239.02</ele><time>2026-09-02T20:48:12Z</time></trkpt><trkpt lat="59.5578725729" lon="31.2684245780"><ele>239.51</ele><time>2026-09-02T20:48:13Z</time></trkpt><trkpt lat="59.5578628499" lon="31.2684291881"><ele>239.51</ele><time>2026-09-02T20:48:14Z</time></trkpt><trkpt lat="59.5578574855" lon="31.2684355583"><ele>239.51</ele><time>2026-09-02T20:48:15Z</time></trkpt><trkpt lat="59.5578537975" lon="31.2684444431"><ele>239.51</ele><time>2026-09-02T20:48:16Z</time></trkpt><trkpt lat="59.5578501932" lon="31.2684534956"><ele>239.51</ele><time>2026-09-02T20:48:17Z</time></trkpt><trkpt lat="59.5578456670" lon="31.2684616260"><ele>239.51</ele><time>2026-09-02T20:48:18Z</time></trkpt><trkpt lat="59.5578397997" lon="31.2684722710"><ele>239.51</ele><time>2026-09-02T20:48:19Z</time></trkpt><trkpt lat="59.5578326751" lon="31.2684763782"><ele>239.51</ele><time>2026-09-02T20:48:20Z</time></trkpt><trkpt lat="59.5578273945" lon="31.2684819940"><ele>239.51</ele><time>2026-09-02T20:48:21Z</time></trkpt><trkpt lat="59.5578225330" lon="31.2684895378"><ele>239.51</ele><time>2026-09-02T20:48:22Z</time></trkpt><trkpt lat="59.5578166656" lon="31.2684952375"><ele>239.51</ele><time>2026-09-02T20:48:23Z</time></trkpt><trkpt lat="59.5578115527" lon="31.2685092352"><ele>239.51</ele><time>2026-09-02T20:48:24Z</time></trkpt><trkpt lat="59.5578060206" lon="31.2685201317"><ele>239.51</ele><time>2026-09-02T20:48:25Z</time></trkpt><trkpt lat="59.5578038413" lon="31.2685351353"><ele>239.51</ele><time>2026-09-02T20:48:26Z</time></trkpt><trkpt lat="59.5578046795" lon="31.2685452774"><ele>239.51</ele><time>2026-09-02T20:48:27Z</time></trkpt><trkpt lat="59.5578044280" lon="31.2685555872"><ele>239.51</ele><time>2026-09-02T20:48:28Z</time></trkpt><trkpt lat="59.5578039251" lon="31.2685642205"><ele>239.02</ele><time>2026-09-02T20:48:29Z</time></trkpt><trkpt lat="59.5578036737" lon="31.2685718480"><ele>239.02</ele><time>2026-09-02T20:48:30Z</time></trkpt><trkpt lat="59.5578044280" lon="31.2685809843"><ele>239.02</ele><time>2026-09-02T20:48:31Z</time></trkpt><trkpt lat="59.5578048471" lon="31.2685872708"><ele>239.02</ele><time>2026-09-02T20:48:32Z</time></trkpt><trkpt lat="59.5578049310" lon="31.2685917970"><ele>239.02</ele><time>2026-09-02T20:48:33Z</time></trkpt><trkpt lat="59.5578075293" lon="31.2685969938"><ele>239.02</ele><time>2026-09-02T20:48:34Z</time></trkpt><trkpt lat="59.5578114688" lon="31.2686123326"><ele>239.02</ele><time>2026-09-02T20:48:35Z</time></trkpt><trkpt lat="59.5578095410" lon="31.2686264981"><ele>239.02</ele><time>2026-09-02T20:48:36Z</time></trkpt><trkpt lat="59.5578091219" lon="31.2686342932"><ele>239.02</ele><time>2026-09-02T20:48:37Z</time></trkpt><trkpt lat="59.5578097925" lon="31.2686426751"><ele>239.02</ele><time>2026-09-02T20:48:38Z</time></trkpt><trkpt lat="59.5578086190" lon="31.2686567567"><ele>239.02</ele><time>2026-09-02T20:48:39Z</time></trkpt><trkpt lat="59.5578077808" lon="31.2686641328"><ele>239.02</ele><time>2026-09-02T20:48:40Z</time></trkpt><trkpt lat="59.5578092895" lon="31.2686631270"><ele>239.02</ele><time>2026-09-02T20:48:41Z</time></trkpt><trkpt lat="59.5578098763" lon="31.2686677370"><ele>239.02</ele><time>2026-09-02T20:48:42Z</time></trkpt><trkpt lat="59.5578159951" lon="31.2686783820"><ele>239.02</ele><time>2026-09-02T20:48:43Z</time></trkpt><trkpt lat="59.5578197669" lon="31.2686881889"><ele>239.02</ele><time>2026-09-02T20:48:44Z</time></trkpt><trkpt lat="59.5578226168" lon="31.2686957326"><ele>239.02</ele><time>2026-09-02T20:48:45Z</time></trkpt><trkpt lat="59.5578245446" lon="31.2687040307"><ele>239.02</ele><time>2026-09-02T20:48:46Z</time></trkpt><trkpt lat="59.5578279812" lon="31.2687098980"><ele>239.02</ele><time>2026-09-02T20:48:47Z</time></trkpt><trkpt lat="59.5578299928" lon="31.2687183637"><ele>238.54</ele><time>2026-09-02T20:48:48Z</time></trkpt><trkpt lat="59.5578319207" lon="31.2687257398"><ele>238.54</ele><time>2026-09-02T20:48:49Z</time></trkpt><trkpt lat="59.5578363631" lon="31.2687358819"><ele>238.54</ele><time>2026-09-02T20:48:50Z</time></trkpt><trkpt lat="59.5578390453" lon="31.2687429227"><ele>238.54</ele><time>2026-09-02T20:48:51Z</time></trkpt><trkpt lat="59.5578401349" lon="31.2687531486"><ele>238.54</ele><time>2026-09-02T20:48:52Z</time></trkpt><trkpt lat="59.5578376204" lon="31.2687576748"><ele>238.54</ele><time>2026-09-02T20:48:53Z</time></trkpt><trkpt lat="59.5578352734" lon="31.2687666435"><ele>238.54</ele><time>2026-09-02T20:48:54Z</time></trkpt><trkpt lat="59.5578318369" lon="31.2687741872"><ele>238.06</ele><time>2026-09-02T20:48:55Z</time></trkpt><trkpt lat="59.5578303281" lon="31.2687836587"><ele>238.06</ele><time>2026-09-02T20:48:56Z</time></trkpt><trkpt lat="59.5578280650" lon="31.2687942199"><ele>238.06</ele><time>2026-09-02T20:48:57Z</time></trkpt><trkpt lat="59.5578251313" lon="31.2688025180"><ele>238.06</ele><time>2026-09-02T20:48:58Z</time></trkpt><trkpt lat="59.5578223653" lon="31.2688064575"><ele>238.06</ele><time>2026-09-02T20:48:59Z</time></trkpt><trkpt lat="59.5578223653" lon="31.2688099779"><ele>238.06</ele><time>2026-09-02T20:49:00Z</time></trkpt><trkpt lat="59.5578216948" lon="31.2688146718"><ele>238.54</ele><time>2026-09-02T20:49:01Z</time></trkpt><trkpt lat="59.5578149892" lon="31.2688247301"><ele>238.54</ele><time>2026-09-02T20:49:02Z</time></trkpt><trkpt lat="59.5578195993" lon="31.2688201200"><ele>238.54</ele><time>2026-09-02T20:49:03Z</time></trkpt><trkpt lat="59.5578170847" lon="31.2688255683"><ele>238.54</ele><time>2026-09-02T20:49:04Z</time></trkpt><trkpt lat="59.5578155760" lon="31.2688307650"><ele>238.54</ele><time>2026-09-02T20:49:05Z</time></trkpt><trkpt lat="59.5578132290" lon="31.2688356265"><ele>238.06</ele><time>2026-09-02T20:49:06Z</time></trkpt><trkpt lat="59.5578101277" lon="31.2688397337"><ele>238.06</ele><time>2026-09-02T20:49:07Z</time></trkpt><trkpt lat="59.5578078646" lon="31.2688426673"><ele>238.06</ele><time>2026-09-02T20:49:08Z</time></trkpt><trkpt lat="59.5578051824" lon="31.2688458525"><ele>238.06</ele><time>2026-09-02T20:49:09Z</time></trkpt><trkpt lat="59.5578015782" lon="31.2688509654"><ele>238.54</ele><time>2026-09-02T20:49:10Z</time></trkpt><trkpt lat="59.5577977225" lon="31.2688561622"><ele>238.54</ele><time>2026-09-02T20:49:11Z</time></trkpt><trkpt lat="59.5577958785" lon="31.2688605208"><ele>238.54</ele><time>2026-09-02T20:49:12Z</time></trkpt><trkpt lat="59.5577935316" lon="31.2688666396"><ele>238.54</ele><time>2026-09-02T20:49:13Z</time></trkpt><trkpt lat="59.5577897597" lon="31.2688711658"><ele>238.54</ele><time>2026-09-02T20:49:14Z</time></trkpt><trkpt lat="59.5577863231" lon="31.2688779552"><ele>238.54</ele><time>2026-09-02T20:49:15Z</time></trkpt><trkpt lat="59.5577869937" lon="31.2688756920"><ele>238.54</ele><time>2026-09-02T20:49:16Z</time></trkpt><trkpt lat="59.5577850658" lon="31.2688772846"><ele>238.06</ele><time>2026-09-02T20:49:17Z</time></trkpt><trkpt lat="59.5577848982" lon="31.2688788772"><ele>238.06</ele><time>2026-09-02T20:49:18Z</time></trkpt><trkpt lat="59.5577842277" lon="31.2688759435"><ele>238.06</ele><time>2026-09-02T20:49:19Z</time></trkpt><trkpt lat="59.5577832218" lon="31.2688741833"><ele>238.54</ele><time>2026-09-02T20:49:20Z</time></trkpt><trkpt lat="59.5577831380" lon="31.2688784581"><ele>238.54</ele><time>2026-09-02T20:49:21Z</time></trkpt><trkpt lat="59.5577838924" lon="31.2688852474"><ele>238.54</ele><time>2026-09-02T20:49:22Z</time></trkpt><trkpt lat="59.5577835571" lon="31.2688920368"><ele>238.54</ele><time>2026-09-02T20:49:23Z</time></trkpt><trkpt lat="59.5577840600" lon="31.2689038552"><ele>238.54</ele><time>2026-09-02T20:49:24Z</time></trkpt><trkpt lat="59.5577837247" lon="31.2689111475"><ele>238.54</ele><time>2026-09-02T20:49:25Z</time></trkpt><trkpt lat="59.5577809587" lon="31.2689129915"><ele>238.54</ele><time>2026-09-02T20:49:26Z</time></trkpt><trkpt lat="59.5577802882" lon="31.2689148355"><ele>238.54</ele><time>2026-09-02T20:49:27Z</time></trkpt><trkpt lat="59.5577800367" lon="31.2689179368"><ele>238.54</ele><time>2026-09-02T20:49:28Z</time></trkpt><trkpt lat="59.5577777736" lon="31.2689297553"><ele>238.54</ele><time>2026-09-02T20:49:29Z</time></trkpt><trkpt lat="59.5577747561" lon="31.2689315993"><ele>238.54</ele><time>2026-09-02T20:49:30Z</time></trkpt><trkpt lat="59.5577765163" lon="31.2689358741"><ele>238.54</ele><time>2026-09-02T20:49:31Z</time></trkpt><trkpt lat="59.5577741694" lon="31.2689355388"><ele>238.06</ele><time>2026-09-02T20:49:32Z</time></trkpt><trkpt lat="59.5577721577" lon="31.2689397298"><ele>238.06</ele><time>2026-09-02T20:49:33Z</time></trkpt><trkpt lat="59.5577715710" lon="31.2689435855"><ele>238.06</ele><time>2026-09-02T20:49:34Z</time></trkpt><trkpt lat="59.5577711519" lon="31.2689446751"><ele>238.06</ele><time>2026-09-02T20:49:35Z</time></trkpt><trkpt lat="59.5577713195" lon="31.2689464353"><ele>238.06</ele><time>2026-09-02T20:49:36Z</time></trkpt><trkpt lat="59.5577706490" lon="31.2689467706"><ele>238.06</ele><time>2026-09-02T20:49:37Z</time></trkpt><trkpt lat="59.5577681344" lon="31.2689440884"><ele>238.06</ele><time>2026-09-02T20:49:38Z</time></trkpt><trkpt lat="59.5577699784" lon="31.2689466868"><ele>238.06</ele><time>2026-09-02T20:49:39Z</time></trkpt><trkpt lat="59.5577675477" lon="31.2689421605"><ele>238.06</ele><time>2026-09-02T20:49:40Z</time></trkpt><trkpt lat="59.5577681344" lon="31.2689406518"><ele>238.06</ele><time>2026-09-02T20:49:41Z</time></trkpt><trkpt lat="59.5577681344" lon="31.2689416576"><ele>238.06</ele><time>2026-09-02T20:49:42Z</time></trkpt><trkpt lat="59.5577672962" lon="31.2689420767"><ele>238.06</ele><time>2026-09-02T20:49:43Z</time></trkpt><trkpt lat="59.5577663742" lon="31.2689402327"><ele>238.06</ele><time>2026-09-02T20:49:44Z</time></trkpt><trkpt lat="59.5577616803" lon="31.2689400651"><ele>238.06</ele><time>2026-09-02T20:49:45Z</time></trkpt><trkpt lat="59.5577568188" lon="31.2689406518"><ele>237.58</ele><time>2026-09-02T20:49:46Z</time></trkpt><trkpt lat="59.5577590819" lon="31.2689401489"><ele>237.58</ele><time>2026-09-02T20:49:47Z</time></trkpt><trkpt lat="59.5577552263" lon="31.2689385563"><ele>237.58</ele><time>2026-09-02T20:49:48Z</time></trkpt><trkpt lat="59.5577509515" lon="31.2689349521"><ele>237.58</ele><time>2026-09-02T20:49:49Z</time></trkpt><trkpt lat="59.5577480178" lon="31.2689302582"><ele>237.58</ele><time>2026-09-02T20:49:50Z</time></trkpt><trkpt lat="59.5577461738" lon="31.2689242233"><ele>237.58</ele><time>2026-09-02T20:49:51Z</time></trkpt><trkpt lat="59.5577454194" lon="31.2689143326"><ele>237.58</ele><time>2026-09-02T20:49:52Z</time></trkpt><trkpt lat="59.5577424858" lon="31.2689080462"><ele>237.58</ele><time>2026-09-02T20:49:53Z</time></trkpt><trkpt lat="59.5577403903" lon="31.2689064536"><ele>237.58</ele><time>2026-09-02T20:49:54Z</time></trkpt><trkpt lat="59.5577378757" lon="31.2689029332"><ele>237.58</ele><time>2026-09-02T20:49:55Z</time></trkpt><trkpt lat="59.5577346906" lon="31.2689022627"><ele>237.58</ele><time>2026-09-02T20:49:56Z</time></trkpt><trkpt lat="59.5577335171" lon="31.2689024303"><ele>237.58</ele><time>2026-09-02T20:49:57Z</time></trkpt><trkpt lat="59.5577333495" lon="31.2689004187"><ele>237.58</ele><time>2026-09-02T20:49:58Z</time></trkpt><trkpt lat="59.5577340201" lon="31.2688983232"><ele>237.58</ele><time>2026-09-02T20:49:59Z</time></trkpt><trkpt lat="59.5577339362" lon="31.2688902766"><ele>237.58</ele><time>2026-09-02T20:50:00Z</time></trkpt><trkpt lat="59.5577328466" lon="31.2688853312"><ele>237.58</ele><time>2026-09-02T20:50:01Z</time></trkpt><trkpt lat="59.5577317569" lon="31.2688822299"><ele>237.58</ele><time>2026-09-02T20:50:02Z</time></trkpt><trkpt lat="59.5577279851" lon="31.2688784581"><ele>237.58</ele><time>2026-09-02T20:50:03Z</time></trkpt><trkpt lat="59.5577244647" lon="31.2688757759"><ele>237.58</ele><time>2026-09-02T20:50:04Z</time></trkpt><trkpt lat="59.5577185974" lon="31.2688720878"><ele>237.58</ele><time>2026-09-02T20:50:05Z</time></trkpt><trkpt lat="59.5577144902" lon="31.2688704953"><ele>237.58</ele><time>2026-09-02T20:50:06Z</time></trkpt><trkpt lat="59.5577094611" lon="31.2688658852"><ele>237.58</ele><time>2026-09-02T20:50:07Z</time></trkpt><trkpt lat="59.5577064436" lon="31.2688572519"><ele>237.58</ele><time>2026-09-02T20:50:08Z</time></trkpt><trkpt lat="59.5577021688" lon="31.2688514683"><ele>237.58</ele><time>2026-09-02T20:50:09Z</time></trkpt><trkpt lat="59.5576989837" lon="31.2688455172"><ele>237.58</ele><time>2026-09-02T20:50:10Z</time></trkpt><trkpt lat="59.5576943737" lon="31.2688382249"><ele>237.58</ele><time>2026-09-02T20:50:11Z</time></trkpt><trkpt lat="59.5576865785" lon="31.2688332796"><ele>237.58</ele><time>2026-09-02T20:50:12Z</time></trkpt><trkpt lat="59.5576775260" lon="31.2688301783"><ele>237.58</ele><time>2026-09-02T20:50:13Z</time></trkpt><trkpt lat="59.5576715749" lon="31.2688268255"><ele>237.58</ele><time>2026-09-02T20:50:14Z</time></trkpt><trkpt lat="59.5576633606" lon="31.2688317709"><ele>237.58</ele><time>2026-09-02T20:50:15Z</time></trkpt><trkpt lat="59.5576528832" lon="31.2688214611"><ele>237.58</ele><time>2026-09-02T20:50:16Z</time></trkpt><trkpt lat="59.5576503687" lon="31.2688327767"><ele>237.58</ele><time>2026-09-02T20:50:17Z</time></trkpt><trkpt lat="59.5576406457" lon="31.2688381411"><ele>237.58</ele><time>2026-09-02T20:50:18Z</time></trkpt><trkpt lat="59.5576262288" lon="31.2688389793"><ele>237.58</ele><time>2026-09-02T20:50:19Z</time></trkpt><trkpt lat="59.5576137397" lon="31.2688439246"><ele>237.58</ele><time>2026-09-02T20:50:20Z</time></trkpt><trkpt lat="59.5576059446" lon="31.2688449305"><ele>237.58</ele><time>2026-09-02T20:50:21Z</time></trkpt><trkpt lat="59.5576019213" lon="31.2688562460"><ele>237.58</ele><time>2026-09-02T20:50:22Z</time></trkpt><trkpt lat="59.5575975627" lon="31.2688580900"><ele>237.58</ele><time>2026-09-02T20:50:23Z</time></trkpt><trkpt lat="59.5576001611" lon="31.2688578386"><ele>237.58</ele><time>2026-09-02T20:50:24Z</time></trkpt><trkpt lat="59.5575964730" lon="31.2688598502"><ele>237.58</ele><time>2026-09-02T20:50:25Z</time></trkpt><trkpt lat="59.5575931203" lon="31.2688641250"><ele>237.58</ele><time>2026-09-02T20:50:26Z</time></trkpt><trkpt lat="59.5575915277" lon="31.2688699923"><ele>237.58</ele><time>2026-09-02T20:50:27Z</time></trkpt><trkpt lat="59.5575888455" lon="31.2688727584"><ele>237.58</ele><time>2026-09-02T20:50:28Z</time></trkpt><trkpt lat="59.5575859956" lon="31.2688769493"><ele>237.58</ele><time>2026-09-02T20:50:29Z</time></trkpt><trkpt lat="59.5575819723" lon="31.2688794639"><ele>237.58</ele><time>2026-09-02T20:50:30Z</time></trkpt><trkpt lat="59.5575830620" lon="31.2688808888"><ele>237.58</ele><time>2026-09-02T20:50:31Z</time></trkpt><trkpt lat="59.5575797930" lon="31.2688817270"><ele>237.58</ele><time>2026-09-02T20:50:32Z</time></trkpt><trkpt lat="59.5575807989" lon="31.2688809726"><ele>237.10</ele><time>2026-09-02T20:50:33Z</time></trkpt><trkpt lat="59.5575770270" lon="31.2688838225"><ele>237.10</ele><time>2026-09-02T20:50:34Z</time></trkpt><trkpt lat="59.5575717464" lon="31.2688876782"><ele>237.10</ele><time>2026-09-02T20:50:35Z</time></trkpt><trkpt lat="59.5575713273" lon="31.2688896898"><ele>237.10</ele><time>2026-09-02T20:50:36Z</time></trkpt><trkpt lat="59.5575693995" lon="31.2688851636"><ele>237.10</ele><time>2026-09-02T20:50:37Z</time></trkpt><trkpt lat="59.5575674716" lon="31.2688854989"><ele>237.10</ele><time>2026-09-02T20:50:38Z</time></trkpt><trkpt lat="59.5575621910" lon="31.2688865885"><ele>237.10</ele><time>2026-09-02T20:50:39Z</time></trkpt><trkpt lat="59.5575579163" lon="31.2688858341"><ele>237.10</ele><time>2026-09-02T20:50:40Z</time></trkpt><trkpt lat="59.5575550664" lon="31.2688851636"><ele>237.10</ele><time>2026-09-02T20:50:41Z</time></trkpt><trkpt lat="59.5575549826" lon="31.2688852474"><ele>237.10</ele><time>2026-09-02T20:50:42Z</time></trkpt><trkpt lat="59.5575533900" lon="31.2688859180"><ele>237.10</ele><time>2026-09-02T20:50:43Z</time></trkpt><trkpt lat="59.5575546473" lon="31.2688893545"><ele>237.10</ele><time>2026-09-02T20:50:44Z</time></trkpt><trkpt lat="59.5575540606" lon="31.2688879296"><ele>237.10</ele><time>2026-09-02T20:50:45Z</time></trkpt><trkpt lat="59.5575553179" lon="31.2688901927"><ele>237.10</ele><time>2026-09-02T20:50:46Z</time></trkpt><trkpt lat="59.5575540606" lon="31.2688906956"><ele>237.10</ele><time>2026-09-02T20:50:47Z</time></trkpt><trkpt lat="59.5575531386" lon="31.2688933779"><ele>237.10</ele><time>2026-09-02T20:50:48Z</time></trkpt><trkpt lat="59.5575492829" lon="31.2688973173"><ele>237.10</ele><time>2026-09-02T20:50:49Z</time></trkpt><trkpt lat="59.5575438347" lon="31.2688999996"><ele>237.10</ele><time>2026-09-02T20:50:50Z</time></trkpt><trkpt lat="59.5575384703" lon="31.2689013407"><ele>237.10</ele><time>2026-09-02T20:50:51Z</time></trkpt><trkpt lat="59.5575317647" lon="31.2689136621"><ele>237.10</ele><time>2026-09-02T20:50:52Z</time></trkpt><trkpt lat="59.5575248916" lon="31.2689160928"><ele>237.10</ele><time>2026-09-02T20:50:53Z</time></trkpt><trkpt lat="59.5575191919" lon="31.2689198647"><ele>237.10</ele><time>2026-09-02T20:50:54Z</time></trkpt><trkpt lat="59.5575159229" lon="31.2689219601"><ele>237.10</ele><time>2026-09-02T20:50:55Z</time></trkpt><trkpt lat="59.5575129893" lon="31.2689276598"><ele>237.10</ele><time>2026-09-02T20:50:56Z</time></trkpt><trkpt lat="59.5575084630" lon="31.2689271569"><ele>237.10</ele><time>2026-09-02T20:50:57Z</time></trkpt><trkpt lat="59.5575025957" lon="31.2689267378"><ele>237.10</ele><time>2026-09-02T20:50:58Z</time></trkpt><trkpt lat="59.5575001650" lon="31.2689270731"><ele>237.10</ele><time>2026-09-02T20:50:59Z</time></trkpt><trkpt lat="59.5574960578" lon="31.2689268216"><ele>237.10</ele><time>2026-09-02T20:51:00Z</time></trkpt><trkpt lat="59.5574977342" lon="31.2689267378"><ele>237.10</ele><time>2026-09-02T20:51:01Z</time></trkpt><trkpt lat="59.5574947167" lon="31.2689295877"><ele>237.10</ele><time>2026-09-02T20:51:02Z</time></trkpt><trkpt lat="59.5574932918" lon="31.2689384725"><ele>237.10</ele><time>2026-09-02T20:51:03Z</time></trkpt><trkpt lat="59.5574948844" lon="31.2689471897"><ele>237.10</ele><time>2026-09-02T20:51:04Z</time></trkpt><trkpt lat="59.5575005841" lon="31.2689565774"><ele>237.10</ele><time>2026-09-02T20:51:05Z</time></trkpt><trkpt lat="59.5575041883" lon="31.2689690664"><ele>237.10</ele><time>2026-09-02T20:51:06Z</time></trkpt><trkpt lat="59.5575071219" lon="31.2689797953"><ele>237.10</ele><time>2026-09-02T20:51:07Z</time></trkpt><trkpt lat="59.5575085469" lon="31.2689863332"><ele>237.10</ele><time>2026-09-02T20:51:08Z</time></trkpt><trkpt lat="59.5575087983" lon="31.2689926196"><ele>237.10</ele><time>2026-09-02T20:51:09Z</time></trkpt><trkpt lat="59.5575077925" lon="31.2689970620"><ele>237.10</ele><time>2026-09-02T20:51:10Z</time></trkpt><trkpt lat="59.5575025957" lon="31.2690031808"><ele>237.10</ele><time>2026-09-02T20:51:11Z</time></trkpt><trkpt lat="59.5574960578" lon="31.2690013368"><ele>237.10</ele><time>2026-09-02T20:51:12Z</time></trkpt><trkpt lat="59.5574910287" lon="31.2690129876"><ele>237.10</ele><time>2026-09-02T20:51:13Z</time></trkpt><trkpt lat="59.5574849937" lon="31.2690236326"><ele>237.10</ele><time>2026-09-02T20:51:14Z</time></trkpt><trkpt lat="59.5574809704" lon="31.2690286618"><ele>237.10</ele><time>2026-09-02T20:51:15Z</time></trkpt><trkpt lat="59.5574809704" lon="31.2690316793"><ele>237.10</ele><time>2026-09-02T20:51:16Z</time></trkpt><trkpt lat="59.5574762765" lon="31.2690353673"><ele>237.10</ele><time>2026-09-02T20:51:17Z</time></trkpt><trkpt lat="59.5574796293" lon="31.2690345291"><ele>237.10</ele><time>2026-09-02T20:51:18Z</time></trkpt><trkpt lat="59.5574763604" lon="31.2690338586"><ele>237.10</ele><time>2026-09-02T20:51:19Z</time></trkpt><trkpt lat="59.5574718341" lon="31.2690303382"><ele>237.10</ele><time>2026-09-02T20:51:20Z</time></trkpt><trkpt lat="59.5574654639" lon="31.2690333556"><ele>237.10</ele><time>2026-09-02T20:51:21Z</time></trkpt><trkpt lat="59.5574589260" lon="31.2690442521"><ele>237.10</ele><time>2026-09-02T20:51:22Z</time></trkpt><trkpt lat="59.5574536454" lon="31.2690515444"><ele>237.10</ele><time>2026-09-02T20:51:23Z</time></trkpt><trkpt lat="59.5574487839" lon="31.2690602615"><ele>237.10</ele><time>2026-09-02T20:51:24Z</time></trkpt><trkpt lat="59.5574444253" lon="31.2690675538"><ele>237.10</ele><time>2026-09-02T20:51:25Z</time></trkpt><trkpt lat="59.5574422460" lon="31.2690753490"><ele>237.10</ele><time>2026-09-02T20:51:26Z</time></trkpt><trkpt lat="59.5574392285" lon="31.2690812163"><ele>237.10</ele><time>2026-09-02T20:51:27Z</time></trkpt><trkpt lat="59.5574363787" lon="31.2690849882"><ele>237.10</ele><time>2026-09-02T20:51:28Z</time></trkpt><trkpt lat="59.5574361272" lon="31.2690876704"><ele>237.10</ele><time>2026-09-02T20:51:29Z</time></trkpt><trkpt lat="59.5574341994" lon="31.2690891791"><ele>237.10</ele><time>2026-09-02T20:51:30Z</time></trkpt><trkpt lat="59.5574327745" lon="31.2690913584"><ele>237.10</ele><time>2026-09-02T20:51:31Z</time></trkpt><trkpt lat="59.5574315172" lon="31.2690936215"><ele>237.10</ele><time>2026-09-02T20:51:32Z</time></trkpt><trkpt lat="59.5574302599" lon="31.2690970581"><ele>236.62</ele><time>2026-09-02T20:51:33Z</time></trkpt><trkpt lat="59.5574280806" lon="31.2690987345"><ele>236.62</ele><time>2026-09-02T20:51:34Z</time></trkpt><trkpt lat="59.5574268233" lon="31.2690987345"><ele>236.62</ele><time>2026-09-02T20:51:35Z</time></trkpt><trkpt lat="59.5574244764" lon="31.2690995727"><ele>236.62</ele><time>2026-09-02T20:51:36Z</time></trkpt><trkpt lat="59.5574251469" lon="31.2690996565"><ele>236.62</ele><time>2026-09-02T20:51:37Z</time></trkpt><trkpt lat="59.5574240573" lon="31.2691009976"><ele>236.62</ele><time>2026-09-02T20:51:38Z</time></trkpt><trkpt lat="59.5574233867" lon="31.2691042665"><ele>236.62</ele><time>2026-09-02T20:51:39Z</time></trkpt><trkpt lat="59.5574224647" lon="31.2691059429"><ele>236.62</ele><time>2026-09-02T20:51:40Z</time></trkpt><trkpt lat="59.5574194472" lon="31.2691135705"><ele>236.62</ele><time>2026-09-02T20:51:41Z</time></trkpt><trkpt lat="59.5574162621" lon="31.2691170909"><ele>236.14</ele><time>2026-09-02T20:51:42Z</time></trkpt><trkpt lat="59.5574137475" lon="31.2691265624"><ele>236.14</ele><time>2026-09-02T20:51:43Z</time></trkpt><trkpt lat="59.5574143343" lon="31.2691359501"><ele>236.14</ele><time>2026-09-02T20:51:44Z</time></trkpt><trkpt lat="59.5574153401" lon="31.2691393867"><ele>235.66</ele><time>2026-09-02T20:51:45Z</time></trkpt><trkpt lat="59.5574175194" lon="31.2691444997"><ele>235.18</ele><time>2026-09-02T20:51:46Z</time></trkpt><trkpt lat="59.5574178547" lon="31.2691521272"><ele>235.18</ele><time>2026-09-02T20:51:47Z</time></trkpt><trkpt lat="59.5574166812" lon="31.2691574916"><ele>234.70</ele><time>2026-09-02T20:51:48Z</time></trkpt><trkpt lat="59.5574173518" lon="31.2691681366"><ele>234.70</ele><time>2026-09-02T20:51:49Z</time></trkpt><trkpt lat="59.5574176870" lon="31.2691737525"><ele>234.22</ele><time>2026-09-02T20:51:50Z</time></trkpt><trkpt lat="59.5574186929" lon="31.2691741716"><ele>234.22</ele><time>2026-09-02T20:51:51Z</time></trkpt><trkpt lat="59.5574180223" lon="31.2691778596"><ele>234.22</ele><time>2026-09-02T20:51:52Z</time></trkpt><trkpt lat="59.5574169327" lon="31.2691766862"><ele>234.22</ele><time>2026-09-02T20:51:53Z</time></trkpt><trkpt lat="59.5574171841" lon="31.2691848166"><ele>234.22</ele><time>2026-09-02T20:51:54Z</time></trkpt><trkpt lat="59.5574177708" lon="31.2691942882"><ele>234.22</ele><time>2026-09-02T20:51:55Z</time></trkpt><trkpt lat="59.5574193634" lon="31.2692032568"><ele>234.22</ele><time>2026-09-02T20:51:56Z</time></trkpt><trkpt lat="59.5574212912" lon="31.2692172546"><ele>234.22</ele><time>2026-09-02T20:51:57Z</time></trkpt><trkpt lat="59.5574223809" lon="31.2692304980"><ele>234.22</ele><time>2026-09-02T20:51:58Z</time></trkpt><trkpt lat="59.5574225485" lon="31.2692456692"><ele>234.22</ele><time>2026-09-02T20:51:59Z</time></trkpt><trkpt lat="59.5574253984" lon="31.2692565657"><ele>234.22</ele><time>2026-09-02T20:52:00Z</time></trkpt><trkpt lat="59.5574278291" lon="31.2692660373"><ele>234.22</ele><time>2026-09-02T20:52:01Z</time></trkpt><trkpt lat="59.5574298408" lon="31.2692759279"><ele>234.22</ele><time>2026-09-02T20:52:02Z</time></trkpt><trkpt lat="59.5574286673" lon="31.2692880817"><ele>234.22</ele><time>2026-09-02T20:52:03Z</time></trkpt><trkpt lat="59.5574258175" lon="31.2692997325"><ele>234.22</ele><time>2026-09-02T20:52:04Z</time></trkpt><trkpt lat="59.5574242249" lon="31.2693130597"><ele>234.22</ele><time>2026-09-02T20:52:05Z</time></trkpt><trkpt lat="59.5574201178" lon="31.2693296559"><ele>233.74</ele><time>2026-09-02T20:52:06Z</time></trkpt><trkpt lat="59.5574188605" lon="31.2693410553"><ele>233.74</ele><time>2026-09-02T20:52:07Z</time></trkpt><trkpt lat="59.5574149210" lon="31.2693570647"><ele>233.74</ele><time>2026-09-02T20:52:08Z</time></trkpt><trkpt lat="59.5574120712" lon="31.2693731580"><ele>233.74</ele><time>2026-09-02T20:52:09Z</time></trkpt><trkpt lat="59.5574080478" lon="31.2693891674"><ele>233.74</ele><time>2026-09-02T20:52:10Z</time></trkpt><trkpt lat="59.5574039407" lon="31.2694036681"><ele>233.74</ele><time>2026-09-02T20:52:11Z</time></trkpt><trkpt lat="59.5574018452" lon="31.2694155704"><ele>233.74</ele><time>2026-09-02T20:52:12Z</time></trkpt><trkpt lat="59.5573993307" lon="31.2694311608"><ele>233.74</ele><time>2026-09-02T20:52:13Z</time></trkpt><trkpt lat="59.5573951397" lon="31.2694453262"><ele>233.74</ele><time>2026-09-02T20:52:14Z</time></trkpt><trkpt lat="59.5573914517" lon="31.2694664486"><ele>233.26</ele><time>2026-09-02T20:52:15Z</time></trkpt><trkpt lat="59.5573885180" lon="31.2694819551"><ele>233.26</ele><time>2026-09-02T20:52:16Z</time></trkpt><trkpt lat="59.5573849976" lon="31.2694950309"><ele>233.26</ele><time>2026-09-02T20:52:17Z</time></trkpt><trkpt lat="59.5573816448" lon="31.2695028260"><ele>233.26</ele><time>2026-09-02T20:52:18Z</time></trkpt><trkpt lat="59.5573752746" lon="31.2695045862"><ele>233.26</ele><time>2026-09-02T20:52:19Z</time></trkpt><trkpt lat="59.5573685691" lon="31.2695107888"><ele>233.26</ele><time>2026-09-02T20:52:20Z</time></trkpt><trkpt lat="59.5573664736" lon="31.2695150636"><ele>233.26</ele><time>2026-09-02T20:52:21Z</time></trkpt><trkpt lat="59.5573581755" lon="31.2695184164"><ele>233.26</ele><time>2026-09-02T20:52:22Z</time></trkpt><trkpt lat="59.5573512185" lon="31.2695243675"><ele>233.26</ele><time>2026-09-02T20:52:23Z</time></trkpt><trkpt lat="59.5573451836" lon="31.2695265468"><ele>232.78</ele><time>2026-09-02T20:52:24Z</time></trkpt><trkpt lat="59.5573405735" lon="31.2695275526"><ele>232.78</ele><time>2026-09-02T20:52:25Z</time></trkpt><trkpt lat="59.5573360473" lon="31.2695350964"><ele>232.78</ele><time>2026-09-02T20:52:26Z</time></trkpt><trkpt lat="59.5573289227" lon="31.2695483398"><ele>232.78</ele><time>2026-09-02T20:52:27Z</time></trkpt><trkpt lat="59.5573225524" lon="31.2695501838"><ele>232.78</ele><time>2026-09-02T20:52:28Z</time></trkpt><trkpt lat="59.5573142543" lon="31.2695541233"><ele>232.78</ele><time>2026-09-02T20:52:29Z</time></trkpt><trkpt lat="59.5573090576" lon="31.2695516925"><ele>232.78</ele><time>2026-09-02T20:52:30Z</time></trkpt><trkpt lat="59.5573040284" lon="31.2695477530"><ele>232.78</ele><time>2026-09-02T20:52:31Z</time></trkpt><trkpt lat="59.5573012624" lon="31.2695449870"><ele>232.78</ele><time>2026-09-02T20:52:32Z</time></trkpt><trkpt lat="59.5573016815" lon="31.2695445679"><ele>232.78</ele><time>2026-09-02T20:52:33Z</time></trkpt><trkpt lat="59.5573000889" lon="31.2695441488"><ele>232.78</ele><time>2026-09-02T20:52:34Z</time></trkpt><trkpt lat="59.5572997537" lon="31.2695442326"><ele>232.78</ele><time>2026-09-02T20:52:35Z</time></trkpt><trkpt lat="59.5572992507" lon="31.2695448194"><ele>232.30</ele><time>2026-09-02T20:52:36Z</time></trkpt><trkpt lat="59.5572988316" lon="31.2695448194"><ele>232.30</ele><time>2026-09-02T20:52:37Z</time></trkpt><trkpt lat="59.5572986640" lon="31.2695448194"><ele>232.30</ele><time>2026-09-02T20:52:38Z</time></trkpt><trkpt lat="59.5572979935" lon="31.2695452385"><ele>232.30</ele><time>2026-09-02T20:52:39Z</time></trkpt><trkpt lat="59.5572975744" lon="31.2695454899"><ele>232.30</ele><time>2026-09-02T20:52:40Z</time></trkpt><trkpt lat="59.5572969876" lon="31.2695456576"><ele>232.30</ele><time>2026-09-02T20:52:41Z</time></trkpt><trkpt lat="59.5572963171" lon="31.2695460767"><ele>232.30</ele><time>2026-09-02T20:52:42Z</time></trkpt><trkpt lat="59.5572968200" lon="31.2695458252"><ele>232.30</ele><time>2026-09-02T20:52:43Z</time></trkpt><trkpt lat="59.5572964847" lon="31.2695464958"><ele>232.78</ele><time>2026-09-02T20:52:44Z</time></trkpt><trkpt lat="59.5572963171" lon="31.2695459928"><ele>232.30</ele><time>2026-09-02T20:52:45Z</time></trkpt><trkpt lat="59.5572965685" lon="31.2695457414"><ele>232.30</ele><time>2026-09-02T20:52:46Z</time></trkpt><trkpt lat="59.5572968200" lon="31.2695462443"><ele>232.30</ele><time>2026-09-02T20:52:47Z</time></trkpt><trkpt lat="59.5572965685" lon="31.2695467472"><ele>232.30</ele><time>2026-09-02T20:52:48Z</time></trkpt><trkpt lat="59.5572957303" lon="31.2695475854"><ele>232.30</ele><time>2026-09-02T20:52:49Z</time></trkpt><trkpt lat="59.5572951436" lon="31.2695477530"><ele>232.30</ele><time>2026-09-02T20:52:50Z</time></trkpt><trkpt lat="59.5572955627" lon="31.2695481721"><ele>232.30</ele><time>2026-09-02T20:52:51Z</time></trkpt><trkpt lat="59.5572950598" lon="31.2695478369"><ele>232.30</ele><time>2026-09-02T20:52:52Z</time></trkpt><trkpt lat="59.5572949760" lon="31.2695471663"><ele>232.30</ele><time>2026-09-02T20:52:53Z</time></trkpt><trkpt lat="59.5572945569" lon="31.2695471663"><ele>232.30</ele><time>2026-09-02T20:52:54Z</time></trkpt><trkpt lat="59.5572942216" lon="31.2695457414"><ele>232.30</ele><time>2026-09-02T20:52:55Z</time></trkpt><trkpt lat="59.5572937187" lon="31.2695453223"><ele>232.30</ele><time>2026-09-02T20:52:56Z</time></trkpt><trkpt lat="59.5572936349" lon="31.2695457414"><ele>232.30</ele><time>2026-09-02T20:52:57Z</time></trkpt><trkpt lat="59.5572938863" lon="31.2695465796"><ele>232.30</ele><time>2026-09-02T20:52:58Z</time></trkpt><trkpt lat="59.5572928805" lon="31.2695469987"><ele>232.30</ele><time>2026-09-02T20:52:59Z</time></trkpt><trkpt lat="59.5572940540" lon="31.2695467472"><ele>232.30</ele><time>2026-09-02T20:53:00Z</time></trkpt><trkpt lat="59.5572930481" lon="31.2695473339"><ele>232.78</ele><time>2026-09-02T20:53:01Z</time></trkpt><trkpt lat="59.5572932996" lon="31.2695493456"><ele>232.78</ele><time>2026-09-02T20:53:02Z</time></trkpt><trkpt lat="59.5572957303" lon="31.2695540395"><ele>232.78</ele><time>2026-09-02T20:53:03Z</time></trkpt><trkpt lat="59.5572985802" lon="31.2695594877"><ele>232.78</ele><time>2026-09-02T20:53:04Z</time></trkpt><trkpt lat="59.5573000889" lon="31.2695645168"><ele>232.78</ele><time>2026-09-02T20:53:05Z</time></trkpt><trkpt lat="59.5572959818" lon="31.2695634272"><ele>232.78</ele><time>2026-09-02T20:53:06Z</time></trkpt><trkpt lat="59.5572934672" lon="31.2695717253"><ele>232.30</ele><time>2026-09-02T20:53:07Z</time></trkpt><trkpt lat="59.5572915394" lon="31.2695740722"><ele>232.30</ele><time>2026-09-02T20:53:08Z</time></trkpt><trkpt lat="59.5572914556" lon="31.2695779279"><ele>232.30</ele><time>2026-09-02T20:53:09Z</time></trkpt><trkpt lat="59.5572900306" lon="31.2695812806"><ele>232.30</ele><time>2026-09-02T20:53:10Z</time></trkpt><trkpt lat="59.5572902821" lon="31.2695827894"><ele>232.30</ele><time>2026-09-02T20:53:11Z</time></trkpt><trkpt lat="59.5572884381" lon="31.2695876509"><ele>232.30</ele><time>2026-09-02T20:53:12Z</time></trkpt><trkpt lat="59.5572848339" lon="31.2695907522"><ele>232.30</ele><time>2026-09-02T20:53:13Z</time></trkpt><trkpt lat="59.5572783798" lon="31.2696026545"><ele>232.30</ele><time>2026-09-02T20:53:14Z</time></trkpt><trkpt lat="59.5572742727" lon="31.2696096953"><ele>232.30</ele><time>2026-09-02T20:53:15Z</time></trkpt><trkpt lat="59.5572706684" lon="31.2696144730"><ele>232.30</ele><time>2026-09-02T20:53:16Z</time></trkpt><trkpt lat="59.5572704170" lon="31.2696229387"><ele>232.30</ele><time>2026-09-02T20:53:17Z</time></trkpt><trkpt lat="59.5572679862" lon="31.2696277164"><ele>231.81</ele><time>2026-09-02T20:53:18Z</time></trkpt><trkpt lat="59.5572641306" lon="31.2696322426"><ele>231.81</ele><time>2026-09-02T20:53:19Z</time></trkpt><trkpt lat="59.5572615322" lon="31.2696436420"><ele>231.81</ele><time>2026-09-02T20:53:20Z</time></trkpt><trkpt lat="59.5572594367" lon="31.2696499284"><ele>231.81</ele><time>2026-09-02T20:53:21Z</time></trkpt><trkpt lat="59.5572571736" lon="31.2696564663"><ele>231.81</ele><time>2026-09-02T20:53:22Z</time></trkpt><trkpt lat="59.5572564192" lon="31.2696665246"><ele>231.81</ele><time>2026-09-02T20:53:23Z</time></trkpt><trkpt lat="59.5572552457" lon="31.2696764991"><ele>231.81</ele><time>2026-09-02T20:53:24Z</time></trkpt><trkpt lat="59.5572509710" lon="31.2696934305"><ele>231.81</ele><time>2026-09-02T20:53:25Z</time></trkpt><trkpt lat="59.5572469477" lon="31.2697082665"><ele>231.81</ele><time>2026-09-02T20:53:26Z</time></trkpt><trkpt lat="59.5572434273" lon="31.2697161455"><ele>231.81</ele><time>2026-09-02T20:53:27Z</time></trkpt><trkpt lat="59.5572404936" lon="31.2697226834"><ele>231.81</ele><time>2026-09-02T20:53:28Z</time></trkpt><trkpt lat="59.5572361350" lon="31.2697286345"><ele>231.81</ele><time>2026-09-02T20:53:29Z</time></trkpt><trkpt lat="59.5572324470" lon="31.2697372679"><ele>231.81</ele><time>2026-09-02T20:53:30Z</time></trkpt><trkpt lat="59.5572311897" lon="31.2697397824"><ele>231.81</ele><time>2026-09-02T20:53:31Z</time></trkpt><trkpt lat="59.5572294295" lon="31.2697401177"><ele>231.81</ele><time>2026-09-02T20:53:32Z</time></trkpt><trkpt lat="59.5572255738" lon="31.2697392795"><ele>231.81</ele><time>2026-09-02T20:53:33Z</time></trkpt><trkpt lat="59.5572198741" lon="31.2697462365"><ele>231.81</ele><time>2026-09-02T20:53:34Z</time></trkpt><trkpt lat="59.5572123304" lon="31.2697576359"><ele>231.81</ele><time>2026-09-02T20:53:35Z</time></trkpt><trkpt lat="59.5572056249" lon="31.2697626650"><ele>231.81</ele><time>2026-09-02T20:53:36Z</time></trkpt><trkpt lat="59.5571990870" lon="31.2697702926"><ele>231.81</ele><time>2026-09-02T20:53:37Z</time></trkpt><trkpt lat="59.5571936388" lon="31.2697784230"><ele>231.81</ele><time>2026-09-02T20:53:38Z</time></trkpt><trkpt lat="59.5571888611" lon="31.2697885651"><ele>231.81</ele><time>2026-09-02T20:53:39Z</time></trkpt><trkpt lat="59.5571826585" lon="31.2698043231"><ele>231.81</ele><time>2026-09-02T20:53:40Z</time></trkpt><trkpt lat="59.5571803953" lon="31.2698208354"><ele>231.81</ele><time>2026-09-02T20:53:41Z</time></trkpt><trkpt lat="59.5571788866" lon="31.2698351685"><ele>231.81</ele><time>2026-09-02T20:53:42Z</time></trkpt><trkpt lat="59.5571746957" lon="31.2698460650"><ele>231.81</ele><time>2026-09-02T20:53:43Z</time></trkpt><trkpt lat="59.5571692474" lon="31.2698581349"><ele>231.81</ele><time>2026-09-02T20:53:44Z</time></trkpt><trkpt lat="59.5571640506" lon="31.2698679417"><ele>231.81</ele><time>2026-09-02T20:53:45Z</time></trkpt><trkpt lat="59.5571596920" lon="31.2698784191"><ele>231.81</ele><time>2026-09-02T20:53:46Z</time></trkpt><trkpt lat="59.5571560878" lon="31.2698906567"><ele>231.81</ele><time>2026-09-02T20:53:47Z</time></trkpt><trkpt lat="59.5571543276" lon="31.2699082587"><ele>231.81</ele><time>2026-09-02T20:53:48Z</time></trkpt><trkpt lat="59.5571505558" lon="31.2699266989"><ele>231.81</ele><time>2026-09-02T20:53:49Z</time></trkpt><trkpt lat="59.5571469516" lon="31.2699391879"><ele>231.81</ele><time>2026-09-02T20:53:50Z</time></trkpt><trkpt lat="59.5571440179" lon="31.2699578796"><ele>231.81</ele><time>2026-09-02T20:53:51Z</time></trkpt><trkpt lat="59.5571389887" lon="31.2699702848"><ele>231.81</ele><time>2026-09-02T20:53:52Z</time></trkpt><trkpt lat="59.5571324509" lon="31.2699814327"><ele>231.81</ele><time>2026-09-02T20:53:53Z</time></trkpt><trkpt lat="59.5571263321" lon="31.2699940894"><ele>231.81</ele><time>2026-09-02T20:53:54Z</time></trkpt><trkpt lat="59.5571205486" lon="31.2700045668"><ele>231.81</ele><time>2026-09-02T20:53:55Z</time></trkpt><trkpt lat="59.5571147650" lon="31.2700199895"><ele>231.81</ele><time>2026-09-02T20:53:56Z</time></trkpt><trkpt lat="59.5571102388" lon="31.2700368371"><ele>231.81</ele><time>2026-09-02T20:53:57Z</time></trkpt><trkpt lat="59.5571064670" lon="31.2700504996"><ele>231.81</ele><time>2026-09-02T20:53:58Z</time></trkpt><trkpt lat="59.5571047906" lon="31.2700605579"><ele>231.81</ele><time>2026-09-02T20:53:59Z</time></trkpt><trkpt lat="59.5571007673" lon="31.2700702809"><ele>231.81</ele><time>2026-09-02T20:54:00Z</time></trkpt><trkpt lat="59.5570976660" lon="31.2700793333"><ele>231.81</ele><time>2026-09-02T20:54:01Z</time></trkpt><trkpt lat="59.5570954867" lon="31.2700827699"><ele>231.81</ele><time>2026-09-02T20:54:02Z</time></trkpt><trkpt lat="59.5570943970" lon="31.2700869609"><ele>231.81</ele><time>2026-09-02T20:54:03Z</time></trkpt><trkpt lat="59.5570929721" lon="31.2700902298"><ele>231.81</ele><time>2026-09-02T20:54:04Z</time></trkpt><trkpt lat="59.5570915472" lon="31.2700933311"><ele>231.81</ele><time>2026-09-02T20:54:05Z</time></trkpt><trkpt lat="59.5570917986" lon="31.2700903974"><ele>231.81</ele><time>2026-09-02T20:54:06Z</time></trkpt><trkpt lat="59.5570912957" lon="31.2700930797"><ele>231.81</ele><time>2026-09-02T20:54:07Z</time></trkpt><trkpt lat="59.5570917986" lon="31.2700927444"><ele>231.81</ele><time>2026-09-02T20:54:08Z</time></trkpt><trkpt lat="59.5570914634" lon="31.2700950913"><ele>231.81</ele><time>2026-09-02T20:54:09Z</time></trkpt><trkpt lat="59.5570909604" lon="31.2700974382"><ele>231.81</ele><time>2026-09-02T20:54:10Z</time></trkpt><trkpt lat="59.5570908766" lon="31.2700979412"><ele>231.81</ele><time>2026-09-02T20:54:11Z</time></trkpt><trkpt lat="59.5570910443" lon="31.2700979412"><ele>231.81</ele><time>2026-09-02T20:54:12Z</time></trkpt><trkpt lat="59.5570913795" lon="31.2700981926"><ele>231.81</ele><time>2026-09-02T20:54:13Z</time></trkpt><trkpt lat="59.5570917986" lon="31.2700978573"><ele>231.81</ele><time>2026-09-02T20:54:14Z</time></trkpt><trkpt lat="59.5570919663" lon="31.2700951751"><ele>231.81</ele><time>2026-09-02T20:54:15Z</time></trkpt><trkpt lat="59.5570927206" lon="31.2700951751"><ele>231.81</ele><time>2026-09-02T20:54:16Z</time></trkpt><trkpt lat="59.5570929721" lon="31.2700950913"><ele>231.81</ele><time>2026-09-02T20:54:17Z</time></trkpt><trkpt lat="59.5570934750" lon="31.2700937502"><ele>231.81</ele><time>2026-09-02T20:54:18Z</time></trkpt><trkpt lat="59.5570935588" lon="31.2700907327"><ele>231.81</ele><time>2026-09-02T20:54:19Z</time></trkpt><trkpt lat="59.5570934750" lon="31.2700881343"><ele>231.81</ele><time>2026-09-02T20:54:20Z</time></trkpt><trkpt lat="59.5570916310" lon="31.2700896431"><ele>231.81</ele><time>2026-09-02T20:54:21Z</time></trkpt><trkpt lat="59.5570920501" lon="31.2700900622"><ele>231.81</ele><time>2026-09-02T20:54:22Z</time></trkpt><trkpt lat="59.5570927206" lon="31.2700907327"><ele>231.81</ele><time>2026-09-02T20:54:23Z</time></trkpt><trkpt lat="59.5570926368" lon="31.2700916547"><ele>231.81</ele><time>2026-09-02T20:54:24Z</time></trkpt><trkpt lat="59.5570925530" lon="31.2700927444"><ele>231.81</ele><time>2026-09-02T20:54:25Z</time></trkpt><trkpt lat="59.5570924692" lon="31.2700934988"><ele>231.81</ele><time>2026-09-02T20:54:26Z</time></trkpt><trkpt lat="59.5570929721" lon="31.2700934988"><ele>231.81</ele><time>2026-09-02T20:54:27Z</time></trkpt><trkpt lat="59.5570927206" lon="31.2700929958"><ele>231.81</ele><time>2026-09-02T20:54:28Z</time></trkpt><trkpt lat="59.5570934750" lon="31.2700949237"><ele>231.81</ele><time>2026-09-02T20:54:29Z</time></trkpt><trkpt lat="59.5570939779" lon="31.2700956780"><ele>231.81</ele><time>2026-09-02T20:54:30Z</time></trkpt><trkpt lat="59.5570934750" lon="31.2700950913"><ele>231.81</ele><time>2026-09-02T20:54:31Z</time></trkpt><trkpt lat="59.5570938941" lon="31.2700955942"><ele>231.81</ele><time>2026-09-02T20:54:32Z</time></trkpt><trkpt lat="59.5570938941" lon="31.2700955942"><ele>231.81</ele><time>2026-09-02T20:54:33Z</time></trkpt><trkpt lat="59.5570938941" lon="31.2700955942"><ele>231.81</ele><time>2026-09-02T20:54:34Z</time></trkpt><trkpt lat="59.5570940617" lon="31.2700961810"><ele>231.81</ele><time>2026-09-02T20:54:35Z</time></trkpt><trkpt lat="59.5570940617" lon="31.2700959295"><ele>231.81</ele><time>2026-09-02T20:54:36Z</time></trkpt><trkpt lat="59.5570938941" lon="31.2700957619"><ele>231.81</ele><time>2026-09-02T20:54:37Z</time></trkpt><trkpt lat="59.5570939779" lon="31.2700958457"><ele>231.81</ele><time>2026-09-02T20:54:38Z</time></trkpt><trkpt lat="59.5570937265" lon="31.2700949237"><ele>231.81</ele><time>2026-09-02T20:54:39Z</time></trkpt><trkpt lat="59.5570939779" lon="31.2700943369"><ele>231.81</ele><time>2026-09-02T20:54:40Z</time></trkpt><trkpt lat="59.5570943970" lon="31.2700935826"><ele>231.81</ele><time>2026-09-02T20:54:41Z</time></trkpt><trkpt lat="59.5570948999" lon="31.2700929958"><ele>231.81</ele><time>2026-09-02T20:54:42Z</time></trkpt><trkpt lat="59.5570957381" lon="31.2700922415"><ele>231.81</ele><time>2026-09-02T20:54:43Z</time></trkpt><trkpt lat="59.5570962410" lon="31.2700919900"><ele>231.81</ele><time>2026-09-02T20:54:44Z</time></trkpt><trkpt lat="59.5570966601" lon="31.2700923253"><ele>231.81</ele><time>2026-09-02T20:54:45Z</time></trkpt><trkpt lat="59.5570971631" lon="31.2700928282"><ele>231.81</ele><time>2026-09-02T20:54:46Z</time></trkpt><trkpt lat="59.5570976660" lon="31.2700924929"><ele>231.81</ele><time>2026-09-02T20:54:47Z</time></trkpt><trkpt lat="59.5570980851" lon="31.2700926606"><ele>231.81</ele><time>2026-09-02T20:54:48Z</time></trkpt><trkpt lat="59.5570985880" lon="31.2700930797"><ele>231.81</ele><time>2026-09-02T20:54:49Z</time></trkpt><trkpt lat="59.5570990909" lon="31.2700937502"><ele>231.81</ele><time>2026-09-02T20:54:50Z</time></trkpt><trkpt lat="59.5570999291" lon="31.2700940855"><ele>231.81</ele><time>2026-09-02T20:54:51Z</time></trkpt><trkpt lat="59.5571009349" lon="31.2700938340"><ele>231.81</ele><time>2026-09-02T20:54:52Z</time></trkpt><trkpt lat="59.5571018569" lon="31.2700961810"><ele>231.81</ele><time>2026-09-02T20:54:53Z</time></trkpt><trkpt lat="59.5571034495" lon="31.2700979412"><ele>231.81</ele><time>2026-09-02T20:54:54Z</time></trkpt><trkpt lat="59.5571020246" lon="31.2700963486"><ele>231.81</ele><time>2026-09-02T20:54:55Z</time></trkpt><trkpt lat="59.5571031980" lon="31.2700975221"><ele>231.81</ele><time>2026-09-02T20:54:56Z</time></trkpt><trkpt lat="59.5571030304" lon="31.2700978573"><ele>231.81</ele><time>2026-09-02T20:54:57Z</time></trkpt><trkpt lat="59.5571031980" lon="31.2700982764"><ele>231.81</ele><time>2026-09-02T20:54:58Z</time></trkpt><trkpt lat="59.5571030304" lon="31.2701001205"><ele>231.81</ele><time>2026-09-02T20:54:59Z</time></trkpt><trkpt lat="59.5571024437" lon="31.2701018807"><ele>231.81</ele><time>2026-09-02T20:55:00Z</time></trkpt><trkpt lat="59.5571010187" lon="31.2701033894"><ele>231.81</ele><time>2026-09-02T20:55:01Z</time></trkpt><trkpt lat="59.5571006835" lon="31.2701045629"><ele>231.81</ele><time>2026-09-02T20:55:02Z</time></trkpt><trkpt lat="59.5571004320" lon="31.2701066583"><ele>231.81</ele><time>2026-09-02T20:55:03Z</time></trkpt><trkpt lat="59.5571000967" lon="31.2701070774"><ele>231.81</ele><time>2026-09-02T20:55:04Z</time></trkpt><trkpt lat="59.5571000967" lon="31.2701090891"><ele>231.81</ele><time>2026-09-02T20:55:05Z</time></trkpt><trkpt lat="59.5571000967" lon="31.2701092567"><ele>231.81</ele><time>2026-09-02T20:55:06Z</time></trkpt><trkpt lat="59.5571000967" lon="31.2701064907"><ele>231.81</ele><time>2026-09-02T20:55:07Z</time></trkpt><trkpt lat="59.5570999291" lon="31.2701086700"><ele>231.81</ele><time>2026-09-02T20:55:08Z</time></trkpt><trkpt lat="59.5570990909" lon="31.2701091729"><ele>231.81</ele><time>2026-09-02T20:55:09Z</time></trkpt><trkpt lat="59.5570981689" lon="31.2701053172"><ele>231.81</ele><time>2026-09-02T20:55:10Z</time></trkpt><trkpt lat="59.5570979174" lon="31.2701005396"><ele>231.81</ele><time>2026-09-02T20:55:11Z</time></trkpt><trkpt lat="59.5570976660" lon="31.2701024674"><ele>231.81</ele><time>2026-09-02T20:55:12Z</time></trkpt><trkpt lat="59.5570993423" lon="31.2700993661"><ele>231.81</ele><time>2026-09-02T20:55:13Z</time></trkpt><trkpt lat="59.5571001805" lon="31.2700961810"><ele>231.81</ele><time>2026-09-02T20:55:14Z</time></trkpt><trkpt lat="59.5570987556" lon="31.2700915709"><ele>231.81</ele><time>2026-09-02T20:55:15Z</time></trkpt><trkpt lat="59.5570983365" lon="31.2700926606"><ele>231.81</ele><time>2026-09-02T20:55:16Z</time></trkpt><trkpt lat="59.5570974983" lon="31.2700915709"><ele>231.81</ele><time>2026-09-02T20:55:17Z</time></trkpt><trkpt lat="59.5570980851" lon="31.2700921576"><ele>231.81</ele><time>2026-09-02T20:55:18Z</time></trkpt><trkpt lat="59.5570970792" lon="31.2700946722"><ele>231.81</ele><time>2026-09-02T20:55:19Z</time></trkpt><trkpt lat="59.5570947323" lon="31.2700943369"><ele>231.81</ele><time>2026-09-02T20:55:20Z</time></trkpt><trkpt lat="59.5570894517" lon="31.2700942531"><ele>231.81</ele><time>2026-09-02T20:55:21Z</time></trkpt><trkpt lat="59.5570843387" lon="31.2700908165"><ele>231.81</ele><time>2026-09-02T20:55:22Z</time></trkpt><trkpt lat="59.5570768788" lon="31.2700851168"><ele>231.81</ele><time>2026-09-02T20:55:23Z</time></trkpt><trkpt lat="59.5570709277" lon="31.2700794172"><ele>231.81</ele><time>2026-09-02T20:55:24Z</time></trkpt><trkpt lat="59.5570631325" lon="31.2700756453"><ele>231.81</ele><time>2026-09-02T20:55:25Z</time></trkpt><trkpt lat="59.5570574328" lon="31.2700700294"><ele>231.81</ele><time>2026-09-02T20:55:26Z</time></trkpt><trkpt lat="59.5570500568" lon="31.2700662576"><ele>231.81</ele><time>2026-09-02T20:55:27Z</time></trkpt><trkpt lat="59.5570426807" lon="31.2700645812"><ele>231.81</ele><time>2026-09-02T20:55:28Z</time></trkpt><trkpt lat="59.5570341311" lon="31.2700677663"><ele>231.81</ele><time>2026-09-02T20:55:29Z</time></trkpt><trkpt lat="59.5570263360" lon="31.2700692751"><ele>231.81</ele><time>2026-09-02T20:55:30Z</time></trkpt><trkpt lat="59.5570201334" lon="31.2700688560"><ele>231.81</ele><time>2026-09-02T20:55:31Z</time></trkpt><trkpt lat="59.5570140984" lon="31.2700658385"><ele>231.81</ele><time>2026-09-02T20:55:32Z</time></trkpt><trkpt lat="59.5570068900" lon="31.2700560316"><ele>231.81</ele><time>2026-09-02T20:55:33Z</time></trkpt><trkpt lat="59.5569983404" lon="31.2700483203"><ele>231.81</ele><time>2026-09-02T20:55:34Z</time></trkpt><trkpt lat="59.5569886174" lon="31.2700432912"><ele>231.81</ele><time>2026-09-02T20:55:35Z</time></trkpt><trkpt lat="59.5569801517" lon="31.2700365856"><ele>231.81</ele><time>2026-09-02T20:55:36Z</time></trkpt><trkpt lat="59.5569715183" lon="31.2700255215"><ele>231.81</ele><time>2026-09-02T20:55:37Z</time></trkpt><trkpt lat="59.5569643937" lon="31.2700152956"><ele>231.81</ele><time>2026-09-02T20:55:38Z</time></trkpt><trkpt lat="59.5569554251" lon="31.2700054888"><ele>231.81</ele><time>2026-09-02T20:55:39Z</time></trkpt><trkpt lat="59.5569499768" lon="31.2699975260"><ele>231.81</ele><time>2026-09-02T20:55:40Z</time></trkpt><trkpt lat="59.5569427684" lon="31.2699869648"><ele>231.81</ele><time>2026-09-02T20:55:41Z</time></trkpt><trkpt lat="59.5569362305" lon="31.2699774932"><ele>231.81</ele><time>2026-09-02T20:55:42Z</time></trkpt><trkpt lat="59.5569275972" lon="31.2699718773"><ele>231.81</ele><time>2026-09-02T20:55:43Z</time></trkpt><trkpt lat="59.5569210593" lon="31.2699697819"><ele>231.81</ele><time>2026-09-02T20:55:44Z</time></trkpt><trkpt lat="59.5569121744" lon="31.2699691951"><ele>231.81</ele><time>2026-09-02T20:55:45Z</time></trkpt><trkpt lat="59.5569022000" lon="31.2699706201"><ele>231.81</ele><time>2026-09-02T20:55:46Z</time></trkpt><trkpt lat="59.5568937343" lon="31.2699674349"><ele>231.81</ele><time>2026-09-02T20:55:47Z</time></trkpt><trkpt lat="59.5568856876" lon="31.2699583825"><ele>231.81</ele><time>2026-09-02T20:55:48Z</time></trkpt><trkpt lat="59.5568781439" lon="31.2699535210"><ele>231.81</ele><time>2026-09-02T20:55:49Z</time></trkpt><trkpt lat="59.5568711869" lon="31.2699480727"><ele>231.81</ele><time>2026-09-02T20:55:50Z</time></trkpt><trkpt lat="59.5568621345" lon="31.2699383497"><ele>231.81</ele><time>2026-09-02T20:55:51Z</time></trkpt><trkpt lat="59.5568547584" lon="31.2699295487"><ele>231.81</ele><time>2026-09-02T20:55:52Z</time></trkpt><trkpt lat="59.5568460412" lon="31.2699211668"><ele>231.81</ele><time>2026-09-02T20:55:53Z</time></trkpt><trkpt lat="59.5568409283" lon="31.2699136231"><ele>231.81</ele><time>2026-09-02T20:55:54Z</time></trkpt><trkpt lat="59.5568333846" lon="31.2699031457"><ele>231.81</ele><time>2026-09-02T20:55:55Z</time></trkpt><trkpt lat="59.5568240806" lon="31.2698908243"><ele>231.81</ele><time>2026-09-02T20:55:56Z</time></trkpt><trkpt lat="59.5568173751" lon="31.2698793411"><ele>231.81</ele><time>2026-09-02T20:55:57Z</time></trkpt><trkpt lat="59.5568070654" lon="31.2698692828"><ele>231.81</ele><time>2026-09-02T20:55:58Z</time></trkpt><trkpt lat="59.5567984320" lon="31.2698595598"><ele>231.81</ele><time>2026-09-02T20:55:59Z</time></trkpt><trkpt lat="59.5567924809" lon="31.2698526867"><ele>231.81</ele><time>2026-09-02T20:56:00Z</time></trkpt><trkpt lat="59.5567872841" lon="31.2698455621"><ele>231.81</ele><time>2026-09-02T20:56:01Z</time></trkpt><trkpt lat="59.5567790698" lon="31.2698375992"><ele>231.81</ele><time>2026-09-02T20:56:02Z</time></trkpt><trkpt lat="59.5567717776" lon="31.2698238529"><ele>231.81</ele><time>2026-09-02T20:56:03Z</time></trkpt><trkpt lat="59.5567640662" lon="31.2698108610"><ele>231.81</ele><time>2026-09-02T20:56:04Z</time></trkpt><trkpt lat="59.5567604620" lon="31.2697979528"><ele>231.81</ele><time>2026-09-02T20:56:05Z</time></trkpt><trkpt lat="59.5567564387" lon="31.2697900739"><ele>231.81</ele><time>2026-09-02T20:56:06Z</time></trkpt><trkpt lat="59.5567541756" lon="31.2697861344"><ele>231.81</ele><time>2026-09-02T20:56:07Z</time></trkpt><trkpt lat="59.5567525830" lon="31.2697809376"><ele>231.81</ele><time>2026-09-02T20:56:08Z</time></trkpt><trkpt lat="59.5567517448" lon="31.2697777525"><ele>231.81</ele><time>2026-09-02T20:56:09Z</time></trkpt><trkpt lat="59.5567517448" lon="31.2697785906"><ele>231.81</ele><time>2026-09-02T20:56:10Z</time></trkpt><trkpt lat="59.5567512419" lon="31.2697772495"><ele>231.81</ele><time>2026-09-02T20:56:11Z</time></trkpt><trkpt lat="59.5567506552" lon="31.2697778363"><ele>231.81</ele><time>2026-09-02T20:56:12Z</time></trkpt><trkpt lat="59.5567502361" lon="31.2697749864"><ele>231.81</ele><time>2026-09-02T20:56:13Z</time></trkpt><trkpt lat="59.5567512419" lon="31.2697660178"><ele>231.81</ele><time>2026-09-02T20:56:14Z</time></trkpt><trkpt lat="59.5567496493" lon="31.2697514333"><ele>231.81</ele><time>2026-09-02T20:56:15Z</time></trkpt><trkpt lat="59.5567475539" lon="31.2697420456"><ele>231.81</ele><time>2026-09-02T20:56:16Z</time></trkpt><trkpt lat="59.5567414351" lon="31.2697310653"><ele>231.81</ele><time>2026-09-02T20:56:17Z</time></trkpt><trkpt lat="59.5567368250" lon="31.2697188277"><ele>231.81</ele><time>2026-09-02T20:56:18Z</time></trkpt><trkpt lat="59.5567330532" lon="31.2697075959"><ele>231.81</ele><time>2026-09-02T20:56:19Z</time></trkpt><trkpt lat="59.5567283593" lon="31.2696956936"><ele>231.81</ele><time>2026-09-02T20:56:20Z</time></trkpt><trkpt lat="59.5567252580" lon="31.2696849648"><ele>231.81</ele><time>2026-09-02T20:56:21Z</time></trkpt><trkpt lat="59.5567201450" lon="31.2696750741"><ele>231.81</ele><time>2026-09-02T20:56:22Z</time></trkpt><trkpt lat="59.5567148644" lon="31.2696674466"><ele>231.81</ele><time>2026-09-02T20:56:23Z</time></trkpt><trkpt lat="59.5567116793" lon="31.2696564663"><ele>231.81</ele><time>2026-09-02T20:56:24Z</time></trkpt><trkpt lat="59.5567025431" lon="31.2696440611"><ele>231.81</ele><time>2026-09-02T20:56:25Z</time></trkpt><trkpt lat="59.5566949993" lon="31.2696278840"><ele>231.81</ele><time>2026-09-02T20:56:26Z</time></trkpt><trkpt lat="59.5566904731" lon="31.2696184963"><ele>231.81</ele><time>2026-09-02T20:56:27Z</time></trkpt><trkpt lat="59.5566870365" lon="31.2696099468"><ele>231.81</ele><time>2026-09-02T20:56:28Z</time></trkpt><trkpt lat="59.5566837676" lon="31.2696026545"><ele>231.81</ele><time>2026-09-02T20:56:29Z</time></trkpt><trkpt lat="59.5566811692" lon="31.2695976254"><ele>231.81</ele><time>2026-09-02T20:56:30Z</time></trkpt><trkpt lat="59.5566777326" lon="31.2695938535"><ele>231.81</ele><time>2026-09-02T20:56:31Z</time></trkpt><trkpt lat="59.5566760562" lon="31.2695889920"><ele>231.81</ele><time>2026-09-02T20:56:32Z</time></trkpt><trkpt lat="59.5566756371" lon="31.2695903331"><ele>231.81</ele><time>2026-09-02T20:56:33Z</time></trkpt><trkpt lat="59.5566747990" lon="31.2695871480"><ele>231.81</ele><time>2026-09-02T20:56:34Z</time></trkpt><trkpt lat="59.5566748828" lon="31.2695864774"><ele>231.81</ele><time>2026-09-02T20:56:35Z</time></trkpt><trkpt lat="59.5566743799" lon="31.2695847172"><ele>231.81</ele><time>2026-09-02T20:56:36Z</time></trkpt><trkpt lat="59.5566736255" lon="31.2695833761"><ele>231.81</ele><time>2026-09-02T20:56:37Z</time></trkpt><trkpt lat="59.5566732902" lon="31.2695836276"><ele>231.81</ele><time>2026-09-02T20:56:38Z</time></trkpt><trkpt lat="59.5566736255" lon="31.2695837952"><ele>231.81</ele><time>2026-09-02T20:56:39Z</time></trkpt><trkpt lat="59.5566737931" lon="31.2695839629"><ele>231.81</ele><time>2026-09-02T20:56:40Z</time></trkpt><trkpt lat="59.5566740446" lon="31.2695835438"><ele>231.81</ele><time>2026-09-02T20:56:41Z</time></trkpt><trkpt lat="59.5566735417" lon="31.2695841305"><ele>231.81</ele><time>2026-09-02T20:56:42Z</time></trkpt><trkpt lat="59.5566737931" lon="31.2695837952"><ele>231.81</ele><time>2026-09-02T20:56:43Z</time></trkpt><trkpt lat="59.5566739608" lon="31.2695836276"><ele>231.81</ele><time>2026-09-02T20:56:44Z</time></trkpt><trkpt lat="59.5566742960" lon="31.2695844658"><ele>231.81</ele><time>2026-09-02T20:56:45Z</time></trkpt><trkpt lat="59.5566742960" lon="31.2695850525"><ele>231.81</ele><time>2026-09-02T20:56:46Z</time></trkpt><trkpt lat="59.5566749666" lon="31.2695852201"><ele>231.81</ele><time>2026-09-02T20:56:47Z</time></trkpt><trkpt lat="59.5566756371" lon="31.2695858907"><ele>231.81</ele><time>2026-09-02T20:56:48Z</time></trkpt><trkpt lat="59.5566753857" lon="31.2695856392"><ele>231.81</ele><time>2026-09-02T20:56:49Z</time></trkpt><trkpt lat="59.5566750504" lon="31.2695857231"><ele>231.81</ele><time>2026-09-02T20:56:50Z</time></trkpt><trkpt lat="59.5566742960" lon="31.2695857231"><ele>231.81</ele><time>2026-09-02T20:56:51Z</time></trkpt><trkpt lat="59.5566745475" lon="31.2695865612"><ele>231.81</ele><time>2026-09-02T20:56:52Z</time></trkpt><trkpt lat="59.5566744637" lon="31.2695870642"><ele>231.81</ele><time>2026-09-02T20:56:53Z</time></trkpt><trkpt lat="59.5566748828" lon="31.2695882376"><ele>231.81</ele><time>2026-09-02T20:56:54Z</time></trkpt><trkpt lat="59.5566738769" lon="31.2695875671"><ele>231.81</ele><time>2026-09-02T20:56:55Z</time></trkpt><trkpt lat="59.5566728711" lon="31.2695854716"><ele>231.81</ele><time>2026-09-02T20:56:56Z</time></trkpt><trkpt lat="59.5566737931" lon="31.2695872318"><ele>231.81</ele><time>2026-09-02T20:56:57Z</time></trkpt><trkpt lat="59.5566726197" lon="31.2695851363"><ele>231.81</ele><time>2026-09-02T20:56:58Z</time></trkpt><trkpt lat="59.5566735417" lon="31.2695853878"><ele>231.81</ele><time>2026-09-02T20:56:59Z</time></trkpt><trkpt lat="59.5566735417" lon="31.2695838790"><ele>231.81</ele><time>2026-09-02T20:57:00Z</time></trkpt><trkpt lat="59.5566725358" lon="31.2695843820"><ele>231.81</ele><time>2026-09-02T20:57:01Z</time></trkpt><trkpt lat="59.5566722844" lon="31.2695845496"><ele>231.81</ele><time>2026-09-02T20:57:02Z</time></trkpt><trkpt lat="59.5566727873" lon="31.2695825379"><ele>231.81</ele><time>2026-09-02T20:57:03Z</time></trkpt><trkpt lat="59.5566734578" lon="31.2695815321"><ele>231.81</ele><time>2026-09-02T20:57:04Z</time></trkpt><trkpt lat="59.5566742960" lon="31.2695801910"><ele>231.81</ele><time>2026-09-02T20:57:05Z</time></trkpt><trkpt lat="59.5566736255" lon="31.2695809454"><ele>231.81</ele><time>2026-09-02T20:57:06Z</time></trkpt><trkpt lat="59.5566744637" lon="31.2695797719"><ele>231.81</ele><time>2026-09-02T20:57:07Z</time></trkpt><trkpt lat="59.5566749666" lon="31.2695790175"><ele>231.81</ele><time>2026-09-02T20:57:08Z</time></trkpt><trkpt lat="59.5566751342" lon="31.2695786823"><ele>231.81</ele><time>2026-09-02T20:57:09Z</time></trkpt><trkpt lat="59.5566748828" lon="31.2695792690"><ele>231.81</ele><time>2026-09-02T20:57:10Z</time></trkpt><trkpt lat="59.5566753857" lon="31.2695785984"><ele>231.81</ele><time>2026-09-02T20:57:11Z</time></trkpt><trkpt lat="59.5566755533" lon="31.2695778441"><ele>231.81</ele><time>2026-09-02T20:57:12Z</time></trkpt><trkpt lat="59.5566753857" lon="31.2695770897"><ele>231.81</ele><time>2026-09-02T20:57:13Z</time></trkpt><trkpt lat="59.5566745475" lon="31.2695764191"><ele>231.81</ele><time>2026-09-02T20:57:14Z</time></trkpt><trkpt lat="59.5566741284" lon="31.2695763353"><ele>231.81</ele><time>2026-09-02T20:57:15Z</time></trkpt><trkpt lat="59.5566742960" lon="31.2695764191"><ele>231.81</ele><time>2026-09-02T20:57:16Z</time></trkpt><trkpt lat="59.5566739608" lon="31.2695763353"><ele>231.81</ele><time>2026-09-02T20:57:17Z</time></trkpt><trkpt lat="59.5566740446" lon="31.2695764191"><ele>231.81</ele><time>2026-09-02T20:57:18Z</time></trkpt><trkpt lat="59.5566742960" lon="31.2695763353"><ele>231.81</ele><time>2026-09-02T20:57:19Z</time></trkpt><trkpt lat="59.5566743799" lon="31.2695756648"><ele>231.81</ele><time>2026-09-02T20:57:20Z</time></trkpt><trkpt lat="59.5566738769" lon="31.2695756648"><ele>231.81</ele><time>2026-09-02T20:57:21Z</time></trkpt><trkpt lat="59.5566736255" lon="31.2695757486"><ele>231.81</ele><time>2026-09-02T20:57:22Z</time></trkpt><trkpt lat="59.5566737931" lon="31.2695755810"><ele>231.81</ele><time>2026-09-02T20:57:23Z</time></trkpt><trkpt lat="59.5566735417" lon="31.2695757486"><ele>231.81</ele><time>2026-09-02T20:57:24Z</time></trkpt><trkpt lat="59.5566734578" lon="31.2695760839"><ele>231.81</ele><time>2026-09-02T20:57:25Z</time></trkpt><trkpt lat="59.5566732902" lon="31.2695763353"><ele>231.81</ele><time>2026-09-02T20:57:26Z</time></trkpt><trkpt lat="59.5566729549" lon="31.2695765868"><ele>231.81</ele><time>2026-09-02T20:57:27Z</time></trkpt><trkpt lat="59.5566726197" lon="31.2695764191"><ele>231.81</ele><time>2026-09-02T20:57:28Z</time></trkpt><trkpt lat="59.5566728711" lon="31.2695767544"><ele>231.81</ele><time>2026-09-02T20:57:29Z</time></trkpt><trkpt lat="59.5566725358" lon="31.2695764191"><ele>231.81</ele><time>2026-09-02T20:57:30Z</time></trkpt><trkpt lat="59.5566727873" lon="31.2695768382"><ele>231.81</ele><time>2026-09-02T20:57:31Z</time></trkpt><trkpt lat="59.5566725358" lon="31.2695773412"><ele>231.81</ele><time>2026-09-02T20:57:32Z</time></trkpt><trkpt lat="59.5566728711" lon="31.2695773412"><ele>231.81</ele><time>2026-09-02T20:57:33Z</time></trkpt><trkpt lat="59.5566734578" lon="31.2695767544"><ele>231.81</ele><time>2026-09-02T20:57:34Z</time></trkpt><trkpt lat="59.5566737931" lon="31.2695768382"><ele>231.81</ele><time>2026-09-02T20:57:35Z</time></trkpt><trkpt lat="59.5566735417" lon="31.2695778441"><ele>231.81</ele><time>2026-09-02T20:57:36Z</time></trkpt><trkpt lat="59.5566738769" lon="31.2695786823"><ele>231.81</ele><time>2026-09-02T20:57:37Z</time></trkpt><trkpt lat="59.5566736255" lon="31.2695789337"><ele>231.81</ele><time>2026-09-02T20:57:38Z</time></trkpt><trkpt lat="59.5566731226" lon="31.2695797719"><ele>231.81</ele><time>2026-09-02T20:57:39Z</time></trkpt><trkpt lat="59.5566735417" lon="31.2695792690"><ele>231.81</ele><time>2026-09-02T20:57:40Z</time></trkpt><trkpt lat="59.5566729549" lon="31.2695801910"><ele>231.81</ele><time>2026-09-02T20:57:41Z</time></trkpt><trkpt lat="59.5566731226" lon="31.2695812806"><ele>231.81</ele><time>2026-09-02T20:57:42Z</time></trkpt><trkpt lat="59.5566730388" lon="31.2695818674"><ele>231.81</ele><time>2026-09-02T20:57:43Z</time></trkpt><trkpt lat="59.5566732902" lon="31.2695819512"><ele>231.81</ele><time>2026-09-02T20:57:44Z</time></trkpt><trkpt lat="59.5566726197" lon="31.2695817836"><ele>231.81</ele><time>2026-09-02T20:57:45Z</time></trkpt><trkpt lat="59.5566729549" lon="31.2695821188"><ele>231.81</ele><time>2026-09-02T20:57:46Z</time></trkpt><trkpt lat="59.5566728711" lon="31.2695817836"><ele>231.81</ele><time>2026-09-02T20:57:47Z</time></trkpt><trkpt lat="59.5566733740" lon="31.2695817836"><ele>231.81</ele><time>2026-09-02T20:57:48Z</time></trkpt><trkpt lat="59.5566729549" lon="31.2695820350"><ele>231.81</ele><time>2026-09-02T20:57:49Z</time></trkpt><trkpt lat="59.5566736255" lon="31.2695819512"><ele>231.81</ele><time>2026-09-02T20:57:50Z</time></trkpt><trkpt lat="59.5566743799" lon="31.2695818674"><ele>231.81</ele><time>2026-09-02T20:57:51Z</time></trkpt><trkpt lat="59.5566754695" lon="31.2695814483"><ele>231.81</ele><time>2026-09-02T20:57:52Z</time></trkpt><trkpt lat="59.5566757210" lon="31.2695818674"><ele>231.81</ele><time>2026-09-02T20:57:53Z</time></trkpt><trkpt lat="59.5566761401" lon="31.2695814483"><ele>231.81</ele><time>2026-09-02T20:57:54Z</time></trkpt><trkpt lat="59.5566761401" lon="31.2695798557"><ele>231.81</ele><time>2026-09-02T20:57:55Z</time></trkpt><trkpt lat="59.5566765592" lon="31.2695812806"><ele>231.81</ele><time>2026-09-02T20:57:56Z</time></trkpt><trkpt lat="59.5566800795" lon="31.2695884891"><ele>231.81</ele><time>2026-09-02T20:57:57Z</time></trkpt><trkpt lat="59.5566811692" lon="31.2695966195"><ele>231.81</ele><time>2026-09-02T20:57:58Z</time></trkpt><trkpt lat="59.5566838514" lon="31.2696036603"><ele>231.81</ele><time>2026-09-02T20:57:59Z</time></trkpt><trkpt lat="59.5566855278" lon="31.2696094438"><ele>231.81</ele><time>2026-09-02T20:58:00Z</time></trkpt><trkpt lat="59.5566874556" lon="31.2696141377"><ele>231.81</ele><time>2026-09-02T20:58:01Z</time></trkpt><trkpt lat="59.5566877909" lon="31.2696171552"><ele>231.81</ele><time>2026-09-02T20:58:02Z</time></trkpt><trkpt lat="59.5566883776" lon="31.2696212623"><ele>231.33</ele><time>2026-09-02T20:58:03Z</time></trkpt><trkpt lat="59.5566890482" lon="31.2696221843"><ele>231.33</ele><time>2026-09-02T20:58:04Z</time></trkpt><trkpt lat="59.5566896349" lon="31.2696253695"><ele>231.33</ele><time>2026-09-02T20:58:05Z</time></trkpt><trkpt lat="59.5566904731" lon="31.2696261238"><ele>231.33</ele><time>2026-09-02T20:58:06Z</time></trkpt><trkpt lat="59.5566912275" lon="31.2696265429"><ele>231.33</ele><time>2026-09-02T20:58:07Z</time></trkpt><trkpt lat="59.5566917304" lon="31.2696263753"><ele>231.33</ele><time>2026-09-02T20:58:08Z</time></trkpt><trkpt lat="59.5566919819" lon="31.2696257886"><ele>231.33</ele><time>2026-09-02T20:58:09Z</time></trkpt><trkpt lat="59.5566919819" lon="31.2696257886"><ele>231.33</ele><time>2026-09-02T20:58:10Z</time></trkpt><trkpt lat="59.5566921495" lon="31.2696254533"><ele>231.33</ele><time>2026-09-02T20:58:11Z</time></trkpt><trkpt lat="59.5566922333" lon="31.2696256209"><ele>231.33</ele><time>2026-09-02T20:58:12Z</time></trkpt><trkpt lat="59.5566913951" lon="31.2696275488"><ele>231.33</ele><time>2026-09-02T20:58:13Z</time></trkpt><trkpt lat="59.5566919819" lon="31.2696293928"><ele>231.33</ele><time>2026-09-02T20:58:14Z</time></trkpt><trkpt lat="59.5566925686" lon="31.2696300633"><ele>231.33</ele><time>2026-09-02T20:58:15Z</time></trkpt><trkpt lat="59.5566919819" lon="31.2696303986"><ele>231.33</ele><time>2026-09-02T20:58:16Z</time></trkpt><trkpt lat="59.5566923171" lon="31.2696308177"><ele>231.33</ele><time>2026-09-02T20:58:17Z</time></trkpt><trkpt lat="59.5566929877" lon="31.2696330808"><ele>231.33</ele><time>2026-09-02T20:58:18Z</time></trkpt><trkpt lat="59.5566930715" lon="31.2696351763"><ele>231.33</ele><time>2026-09-02T20:58:19Z</time></trkpt><trkpt lat="59.5566937421" lon="31.2696368527"><ele>231.33</ele><time>2026-09-02T20:58:20Z</time></trkpt><trkpt lat="59.5566932391" lon="31.2696371879"><ele>231.33</ele><time>2026-09-02T20:58:21Z</time></trkpt><trkpt lat="59.5566935744" lon="31.2696380261"><ele>231.33</ele><time>2026-09-02T20:58:22Z</time></trkpt><trkpt lat="59.5566927362" lon="31.2696383614"><ele>231.33</ele><time>2026-09-02T20:58:23Z</time></trkpt><trkpt lat="59.5566929877" lon="31.2696379423"><ele>231.33</ele><time>2026-09-02T20:58:24Z</time></trkpt><trkpt lat="59.5566934906" lon="31.2696378585"><ele>231.33</ele><time>2026-09-02T20:58:25Z</time></trkpt><trkpt lat="59.5566940773" lon="31.2696377747"><ele>231.33</ele><time>2026-09-02T20:58:26Z</time></trkpt><trkpt lat="59.5566949993" lon="31.2696375232"><ele>231.33</ele><time>2026-09-02T20:58:27Z</time></trkpt><trkpt lat="59.5566947479" lon="31.2696374394"><ele>231.33</ele><time>2026-09-02T20:58:28Z</time></trkpt><trkpt lat="59.5566954184" lon="31.2696370203"><ele>231.33</ele><time>2026-09-02T20:58:29Z</time></trkpt><trkpt lat="59.5566949993" lon="31.2696368527"><ele>231.33</ele><time>2026-09-02T20:58:30Z</time></trkpt><trkpt lat="59.5566954184" lon="31.2696376909"><ele>231.33</ele><time>2026-09-02T20:58:31Z</time></trkpt><trkpt lat="59.5566948317" lon="31.2696355954"><ele>231.33</ele><time>2026-09-02T20:58:32Z</time></trkpt><trkpt lat="59.5566956699" lon="31.2696365174"><ele>231.33</ele><time>2026-09-02T20:58:33Z</time></trkpt><trkpt lat="59.5566960890" lon="31.2696350925"><ele>231.33</ele><time>2026-09-02T20:58:34Z</time></trkpt><trkpt lat="59.5566971786" lon="31.2696347572"><ele>231.33</ele><time>2026-09-02T20:58:35Z</time></trkpt><trkpt lat="59.5566970948" lon="31.2696338352"><ele>231.33</ele><time>2026-09-02T20:58:36Z</time></trkpt><trkpt lat="59.5566970948" lon="31.2696339190"><ele>231.33</ele><time>2026-09-02T20:58:37Z</time></trkpt><trkpt lat="59.5566970948" lon="31.2696336675"><ele>231.33</ele><time>2026-09-02T20:58:38Z</time></trkpt><trkpt lat="59.5566981845" lon="31.2696328294"><ele>231.33</ele><time>2026-09-02T20:58:39Z</time></trkpt><trkpt lat="59.5566994417" lon="31.2696321588"><ele>230.85</ele><time>2026-09-02T20:58:40Z</time></trkpt><trkpt lat="59.5567003638" lon="31.2696319912"><ele>230.85</ele><time>2026-09-02T20:58:41Z</time></trkpt><trkpt lat="59.5567005314" lon="31.2696315721"><ele>230.85</ele><time>2026-09-02T20:58:42Z</time></trkpt><trkpt lat="59.5567001961" lon="31.2696300633"><ele>230.85</ele><time>2026-09-02T20:58:43Z</time></trkpt><trkpt lat="59.5567004476" lon="31.2696291413"><ele>230.85</ele><time>2026-09-02T20:58:44Z</time></trkpt><trkpt lat="59.5567001961" lon="31.2696283869"><ele>230.85</ele><time>2026-09-02T20:58:45Z</time></trkpt><trkpt lat="59.5567000285" lon="31.2696280517"><ele>230.85</ele><time>2026-09-02T20:58:46Z</time></trkpt><trkpt lat="59.5566999447" lon="31.2696274649"><ele>230.85</ele><time>2026-09-02T20:58:47Z</time></trkpt><trkpt lat="59.5567002799" lon="31.2696272973"><ele>230.85</ele><time>2026-09-02T20:58:48Z</time></trkpt><trkpt lat="59.5567008667" lon="31.2696266267"><ele>230.85</ele><time>2026-09-02T20:58:49Z</time></trkpt><trkpt lat="59.5567013696" lon="31.2696267944"><ele>230.85</ele><time>2026-09-02T20:58:50Z</time></trkpt><trkpt lat="59.5567012858" lon="31.2696261238"><ele>230.85</ele><time>2026-09-02T20:58:51Z</time></trkpt><trkpt lat="59.5567017887" lon="31.2696250342"><ele>230.85</ele><time>2026-09-02T20:58:52Z</time></trkpt><trkpt lat="59.5567018725" lon="31.2696213461"><ele>230.85</ele><time>2026-09-02T20:58:53Z</time></trkpt><trkpt lat="59.5566991903" lon="31.2696256209"><ele>230.85</ele><time>2026-09-02T20:58:54Z</time></trkpt><trkpt lat="59.5566986874" lon="31.2696266267"><ele>230.85</ele><time>2026-09-02T20:58:55Z</time></trkpt><trkpt lat="59.5566986874" lon="31.2696262915"><ele>230.85</ele><time>2026-09-02T20:58:56Z</time></trkpt><trkpt lat="59.5566986874" lon="31.2696266267"><ele>231.33</ele><time>2026-09-02T20:58:57Z</time></trkpt><trkpt lat="59.5566985197" lon="31.2696266267"><ele>231.33</ele><time>2026-09-02T20:58:58Z</time></trkpt><trkpt lat="59.5566984359" lon="31.2696267944"><ele>231.33</ele><time>2026-09-02T20:58:59Z</time></trkpt><trkpt lat="59.5566980168" lon="31.2696267944"><ele>231.33</ele><time>2026-09-02T20:59:00Z</time></trkpt><trkpt lat="59.5566977654" lon="31.2696284708"><ele>231.33</ele><time>2026-09-02T20:59:01Z</time></trkpt><trkpt lat="59.5566972625" lon="31.2696299795"><ele>231.33</ele><time>2026-09-02T20:59:02Z</time></trkpt><trkpt lat="59.5566966757" lon="31.2696298957"><ele>231.33</ele><time>2026-09-02T20:59:03Z</time></trkpt><trkpt lat="59.5566964243" lon="31.2696288899"><ele>231.33</ele><time>2026-09-02T20:59:04Z</time></trkpt><trkpt lat="59.5566959213" lon="31.2696275488"><ele>231.33</ele><time>2026-09-02T20:59:05Z</time></trkpt><trkpt lat="59.5566955861" lon="31.2696267944"><ele>231.33</ele><time>2026-09-02T20:59:06Z</time></trkpt><trkpt lat="59.5566957537" lon="31.2696268782"><ele>231.33</ele><time>2026-09-02T20:59:07Z</time></trkpt><trkpt lat="59.5566955861" lon="31.2696264591"><ele>231.33</ele><time>2026-09-02T20:59:08Z</time></trkpt><trkpt lat="59.5566955861" lon="31.2696263753"><ele>231.33</ele><time>2026-09-02T20:59:09Z</time></trkpt><trkpt lat="59.5566953346" lon="31.2696260400"><ele>231.33</ele><time>2026-09-02T20:59:10Z</time></trkpt><trkpt lat="59.5566954184" lon="31.2696262915"><ele>231.33</ele><time>2026-09-02T20:59:11Z</time></trkpt><trkpt lat="59.5566953346" lon="31.2696259562"><ele>231.33</ele><time>2026-09-02T20:59:12Z</time></trkpt><trkpt lat="59.5566949993" lon="31.2696253695"><ele>231.33</ele><time>2026-09-02T20:59:13Z</time></trkpt><trkpt lat="59.5566950832" lon="31.2696242798"><ele>231.33</ele><time>2026-09-02T20:59:14Z</time></trkpt><trkpt lat="59.5566950832" lon="31.2696233578"><ele>231.33</ele><time>2026-09-02T20:59:15Z</time></trkpt><trkpt lat="59.5566956699" lon="31.2696225196"><ele>231.33</ele><time>2026-09-02T20:59:16Z</time></trkpt><trkpt lat="59.5566958375" lon="31.2696230225"><ele>231.33</ele><time>2026-09-02T20:59:17Z</time></trkpt><trkpt lat="59.5566964243" lon="31.2696227711"><ele>231.33</ele><time>2026-09-02T20:59:18Z</time></trkpt><trkpt lat="59.5566970948" lon="31.2696220167"><ele>231.33</ele><time>2026-09-02T20:59:19Z</time></trkpt><trkpt lat="59.5566973463" lon="31.2696219329"><ele>231.33</ele><time>2026-09-02T20:59:20Z</time></trkpt><trkpt lat="59.5566977654" lon="31.2696212623"><ele>231.33</ele><time>2026-09-02T20:59:21Z</time></trkpt><trkpt lat="59.5566984359" lon="31.2696206756"><ele>231.33</ele><time>2026-09-02T20:59:22Z</time></trkpt><trkpt lat="59.5566983521" lon="31.2696202565"><ele>231.33</ele><time>2026-09-02T20:59:23Z</time></trkpt><trkpt lat="59.5566986874" lon="31.2696196698"><ele>231.33</ele><time>2026-09-02T20:59:24Z</time></trkpt><trkpt lat="59.5566983521" lon="31.2696201727"><ele>231.33</ele><time>2026-09-02T20:59:25Z</time></trkpt><trkpt lat="59.5566985197" lon="31.2696197536"><ele>231.33</ele><time>2026-09-02T20:59:26Z</time></trkpt><trkpt lat="59.5566990227" lon="31.2696197536"><ele>231.33</ele><time>2026-09-02T20:59:27Z</time></trkpt><trkpt lat="59.5566992741" lon="31.2696204241"><ele>231.33</ele><time>2026-09-02T20:59:28Z</time></trkpt><trkpt lat="59.5566995256" lon="31.2696206756"><ele>231.33</ele><time>2026-09-02T20:59:29Z</time></trkpt><trkpt lat="59.5566999447" lon="31.2696213461"><ele>231.33</ele><time>2026-09-02T20:59:30Z</time></trkpt><trkpt lat="59.5567004476" lon="31.2696216814"><ele>231.33</ele><time>2026-09-02T20:59:31Z</time></trkpt><trkpt lat="59.5567008667" lon="31.2696219329"><ele>231.33</ele><time>2026-09-02T20:59:32Z</time></trkpt><trkpt lat="59.5567006990" lon="31.2696214300"><ele>231.33</ele><time>2026-09-02T20:59:33Z</time></trkpt><trkpt lat="59.5567009505" lon="31.2696225196"><ele>231.33</ele><time>2026-09-02T20:59:34Z</time></trkpt><trkpt lat="59.5567008667" lon="31.2696235254"><ele>231.33</ele><time>2026-09-02T20:59:35Z</time></trkpt><trkpt lat="59.5567007829" lon="31.2696234416"><ele>231.33</ele><time>2026-09-02T20:59:36Z</time></trkpt><trkpt lat="59.5567004476" lon="31.2696238607"><ele>231.33</ele><time>2026-09-02T20:59:37Z</time></trkpt><trkpt lat="59.5567001961" lon="31.2696252856"><ele>231.33</ele><time>2026-09-02T20:59:38Z</time></trkpt><trkpt lat="59.5567002799" lon="31.2696252856"><ele>231.33</ele><time>2026-09-02T20:59:39Z</time></trkpt><trkpt lat="59.5567005314" lon="31.2696259562"><ele>231.33</ele><time>2026-09-02T20:59:40Z</time></trkpt><trkpt lat="59.5567005314" lon="31.2696280517"><ele>231.33</ele><time>2026-09-02T20:59:41Z</time></trkpt><trkpt lat="59.5567006990" lon="31.2696262915"><ele>231.33</ele><time>2026-09-02T20:59:42Z</time></trkpt><trkpt lat="59.5567006990" lon="31.2696279678"><ele>231.33</ele><time>2026-09-02T20:59:43Z</time></trkpt><trkpt lat="59.5567006990" lon="31.2696287222"><ele>231.33</ele><time>2026-09-02T20:59:44Z</time></trkpt><trkpt lat="59.5567007829" lon="31.2696294766"><ele>231.33</ele><time>2026-09-02T20:59:45Z</time></trkpt><trkpt lat="59.5567007829" lon="31.2696302310"><ele>231.33</ele><time>2026-09-02T20:59:46Z</time></trkpt><trkpt lat="59.5567005314" lon="31.2696310692"><ele>231.33</ele><time>2026-09-02T20:59:47Z</time></trkpt><trkpt lat="59.5567005314" lon="31.2696315721"><ele>231.33</ele><time>2026-09-02T20:59:48Z</time></trkpt><trkpt lat="59.5567004476" lon="31.2696322426"><ele>231.33</ele><time>2026-09-02T20:59:49Z</time></trkpt><trkpt lat="59.5567003638" lon="31.2696326617"><ele>231.33</ele><time>2026-09-02T20:59:50Z</time></trkpt><trkpt lat="59.5566998608" lon="31.2696324941"><ele>231.33</ele><time>2026-09-02T20:59:51Z</time></trkpt><trkpt lat="59.5566995256" lon="31.2696326617"><ele>231.33</ele><time>2026-09-02T20:59:52Z</time></trkpt><trkpt lat="59.5566995256" lon="31.2696333323"><ele>231.33</ele><time>2026-09-02T20:59:53Z</time></trkpt><trkpt lat="59.5566992741" lon="31.2696337514"><ele>231.33</ele><time>2026-09-02T20:59:54Z</time></trkpt><trkpt lat="59.5566987712" lon="31.2696339190"><ele>231.33</ele><time>2026-09-02T20:59:55Z</time></trkpt><trkpt lat="59.5566984359" lon="31.2696333323"><ele>231.33</ele><time>2026-09-02T20:59:56Z</time></trkpt><trkpt lat="59.5566980168" lon="31.2696330808"><ele>231.33</ele><time>2026-09-02T20:59:57Z</time></trkpt><trkpt lat="59.5566973463" lon="31.2696324941"><ele>231.33</ele><time>2026-09-02T20:59:58Z</time></trkpt><trkpt lat="59.5566969272" lon="31.2696327455"><ele>231.33</ele><time>2026-09-02T20:59:59Z</time></trkpt><trkpt lat="59.5566960890" lon="31.2696339190"><ele>231.33</ele><time>2026-09-02T21:00:00Z</time></trkpt><trkpt lat="59.5566943288" lon="31.2696338352"><ele>231.33</ele><time>2026-09-02T21:00:01Z</time></trkpt><trkpt lat="59.5566929877" lon="31.2696341705"><ele>231.33</ele><time>2026-09-02T21:00:02Z</time></trkpt><trkpt lat="59.5566941611" lon="31.2696338352"><ele>231.33</ele><time>2026-09-02T21:00:03Z</time></trkpt><trkpt lat="59.5566930715" lon="31.2696341705"><ele>231.33</ele><time>2026-09-02T21:00:04Z</time></trkpt><trkpt lat="59.5566926524" lon="31.2696342543"><ele>231.33</ele><time>2026-09-02T21:00:05Z</time></trkpt><trkpt lat="59.5566922333" lon="31.2696346734"><ele>231.33</ele><time>2026-09-02T21:00:06Z</time></trkpt><trkpt lat="59.5566916466" lon="31.2696348410"><ele>231.33</ele><time>2026-09-02T21:00:07Z</time></trkpt><trkpt lat="59.5566914789" lon="31.2696350925"><ele>231.33</ele><time>2026-09-02T21:00:08Z</time></trkpt><trkpt lat="59.5566914789" lon="31.2696352601"><ele>231.33</ele><time>2026-09-02T21:00:09Z</time></trkpt><trkpt lat="59.5566906407" lon="31.2696364336"><ele>231.33</ele><time>2026-09-02T21:00:10Z</time></trkpt><trkpt lat="59.5566892996" lon="31.2696365174"><ele>231.33</ele><time>2026-09-02T21:00:11Z</time></trkpt><trkpt lat="59.5566890482" lon="31.2696368527"><ele>231.33</ele><time>2026-09-02T21:00:12Z</time></trkpt><trkpt lat="59.5566883776" lon="31.2696366850"><ele>231.33</ele><time>2026-09-02T21:00:13Z</time></trkpt><trkpt lat="59.5566873718" lon="31.2696373556"><ele>231.33</ele><time>2026-09-02T21:00:14Z</time></trkpt><trkpt lat="59.5566869527" lon="31.2696381938"><ele>231.33</ele><time>2026-09-02T21:00:15Z</time></trkpt><trkpt lat="59.5566859469" lon="31.2696367688"><ele>231.33</ele><time>2026-09-02T21:00:16Z</time></trkpt><trkpt lat="59.5566864498" lon="31.2696376909"><ele>231.33</ele><time>2026-09-02T21:00:17Z</time></trkpt><trkpt lat="59.5566866174" lon="31.2696382776"><ele>231.33</ele><time>2026-09-02T21:00:18Z</time></trkpt><trkpt lat="59.5566861983" lon="31.2696381938"><ele>231.33</ele><time>2026-09-02T21:00:19Z</time></trkpt><trkpt lat="59.5566861983" lon="31.2696390320"><ele>231.33</ele><time>2026-09-02T21:00:20Z</time></trkpt><trkpt lat="59.5566857792" lon="31.2696402892"><ele>231.33</ele><time>2026-09-02T21:00:21Z</time></trkpt><trkpt lat="59.5566853601" lon="31.2696419656"><ele>231.33</ele><time>2026-09-02T21:00:22Z</time></trkpt><trkpt lat="59.5566859469" lon="31.2696438935"><ele>231.33</ele><time>2026-09-02T21:00:23Z</time></trkpt><trkpt lat="59.5566851925" lon="31.2696423847"><ele>231.33</ele><time>2026-09-02T21:00:24Z</time></trkpt><trkpt lat="59.5566856954" lon="31.2696438935"><ele>231.33</ele><time>2026-09-02T21:00:25Z</time></trkpt><trkpt lat="59.5566858631" lon="31.2696440611"><ele>231.33</ele><time>2026-09-02T21:00:26Z</time></trkpt><trkpt lat="59.5566857792" lon="31.2696444802"><ele>231.33</ele><time>2026-09-02T21:00:27Z</time></trkpt><trkpt lat="59.5566855278" lon="31.2696448993"><ele>231.33</ele><time>2026-09-02T21:00:28Z</time></trkpt><trkpt lat="59.5566855278" lon="31.2696452346"><ele>231.33</ele><time>2026-09-02T21:00:29Z</time></trkpt><trkpt lat="59.5566850249" lon="31.2696457375"><ele>231.33</ele><time>2026-09-02T21:00:30Z</time></trkpt><trkpt lat="59.5566835999" lon="31.2696432229"><ele>231.33</ele><time>2026-09-02T21:00:31Z</time></trkpt><trkpt lat="59.5566827618" lon="31.2696425524"><ele>231.33</ele><time>2026-09-02T21:00:32Z</time></trkpt><trkpt lat="59.5566837676" lon="31.2696419656"><ele>231.33</ele><time>2026-09-02T21:00:33Z</time></trkpt><trkpt lat="59.5566832647" lon="31.2696419656"><ele>231.33</ele><time>2026-09-02T21:00:34Z</time></trkpt><trkpt lat="59.5566825941" lon="31.2696420494"><ele>231.33</ele><time>2026-09-02T21:00:35Z</time></trkpt><trkpt lat="59.5566822588" lon="31.2696422171"><ele>231.33</ele><time>2026-09-02T21:00:36Z</time></trkpt><trkpt lat="59.5566822588" lon="31.2696424685"><ele>231.33</ele><time>2026-09-02T21:00:37Z</time></trkpt><trkpt lat="59.5566819236" lon="31.2696419656"><ele>231.33</ele><time>2026-09-02T21:00:38Z</time></trkpt><trkpt lat="59.5566819236" lon="31.2696421333"><ele>230.85</ele><time>2026-09-02T21:00:39Z</time></trkpt><trkpt lat="59.5566819236" lon="31.2696421333"><ele>230.85</ele><time>2026-09-02T21:00:40Z</time></trkpt><trkpt lat="59.5566820912" lon="31.2696425524"><ele>230.85</ele><time>2026-09-02T21:00:41Z</time></trkpt><trkpt lat="59.5566819236" lon="31.2696428876"><ele>230.85</ele><time>2026-09-02T21:00:42Z</time></trkpt><trkpt lat="59.5566818397" lon="31.2696433906"><ele>230.85</ele><time>2026-09-02T21:00:43Z</time></trkpt><trkpt lat="59.5566818397" lon="31.2696438935"><ele>230.85</ele><time>2026-09-02T21:00:44Z</time></trkpt><trkpt lat="59.5566817559" lon="31.2696444802"><ele>230.85</ele><time>2026-09-02T21:00:45Z</time></trkpt><trkpt lat="59.5566813368" lon="31.2696444802"><ele>230.85</ele><time>2026-09-02T21:00:46Z</time></trkpt><trkpt lat="59.5566806663" lon="31.2696462404"><ele>230.85</ele><time>2026-09-02T21:00:47Z</time></trkpt><trkpt lat="59.5566801634" lon="31.2696478330"><ele>230.85</ele><time>2026-09-02T21:00:48Z</time></trkpt><trkpt lat="59.5566799957" lon="31.2696485873"><ele>230.85</ele><time>2026-09-02T21:00:49Z</time></trkpt><trkpt lat="59.5566799957" lon="31.2696484197"><ele>230.85</ele><time>2026-09-02T21:00:50Z</time></trkpt><trkpt lat="59.5566798281" lon="31.2696490902"><ele>230.85</ele><time>2026-09-02T21:00:51Z</time></trkpt><trkpt lat="59.5566796605" lon="31.2696495932"><ele>230.85</ele><time>2026-09-02T21:00:52Z</time></trkpt><trkpt lat="59.5566796605" lon="31.2696495932"><ele>230.85</ele><time>2026-09-02T21:00:53Z</time></trkpt><trkpt lat="59.5566796605" lon="31.2696493417"><ele>230.85</ele><time>2026-09-02T21:00:54Z</time></trkpt><trkpt lat="59.5566796605" lon="31.2696494255"><ele>230.85</ele><time>2026-09-02T21:00:55Z</time></trkpt><trkpt lat="59.5566793252" lon="31.2696482521"><ele>230.85</ele><time>2026-09-02T21:00:56Z</time></trkpt><trkpt lat="59.5566795766" lon="31.2696491741"><ele>230.85</ele><time>2026-09-02T21:00:57Z</time></trkpt><trkpt lat="59.5566794928" lon="31.2696486712"><ele>230.85</ele><time>2026-09-02T21:00:58Z</time></trkpt><trkpt lat="59.5566790737" lon="31.2696485873"><ele>230.85</ele><time>2026-09-02T21:00:59Z</time></trkpt><trkpt lat="59.5566787384" lon="31.2696485873"><ele>230.85</ele><time>2026-09-02T21:01:00Z</time></trkpt><trkpt lat="59.5566780679" lon="31.2696482521"><ele>231.33</ele><time>2026-09-02T21:01:01Z</time></trkpt><trkpt lat="59.5566779841" lon="31.2696469948"><ele>231.33</ele><time>2026-09-02T21:01:02Z</time></trkpt><trkpt lat="59.5566775650" lon="31.2696475815"><ele>231.33</ele><time>2026-09-02T21:01:03Z</time></trkpt><trkpt lat="59.5566776488" lon="31.2696477491"><ele>231.33</ele><time>2026-09-02T21:01:04Z</time></trkpt><trkpt lat="59.5566777326" lon="31.2696473300"><ele>231.33</ele><time>2026-09-02T21:01:05Z</time></trkpt><trkpt lat="59.5566779841" lon="31.2696457375"><ele>231.33</ele><time>2026-09-02T21:01:06Z</time></trkpt><trkpt lat="59.5566785708" lon="31.2696447317"><ele>231.33</ele><time>2026-09-02T21:01:07Z</time></trkpt><trkpt lat="59.5566791575" lon="31.2696441449"><ele>231.33</ele><time>2026-09-02T21:01:08Z</time></trkpt><trkpt lat="59.5566802472" lon="31.2696443964"><ele>231.33</ele><time>2026-09-02T21:01:09Z</time></trkpt><trkpt lat="59.5566807501" lon="31.2696444802"><ele>231.33</ele><time>2026-09-02T21:01:10Z</time></trkpt><trkpt lat="59.5566814207" lon="31.2696431391"><ele>231.33</ele><time>2026-09-02T21:01:11Z</time></trkpt><trkpt lat="59.5566823427" lon="31.2696424685"><ele>231.33</ele><time>2026-09-02T21:01:12Z</time></trkpt><trkpt lat="59.5566828456" lon="31.2696426362"><ele>231.33</ele><time>2026-09-02T21:01:13Z</time></trkpt><trkpt lat="59.5566823427" lon="31.2696425524"><ele>231.33</ele><time>2026-09-02T21:01:14Z</time></trkpt><trkpt lat="59.5566827618" lon="31.2696426362"><ele>231.33</ele><time>2026-09-02T21:01:15Z</time></trkpt><trkpt lat="59.5566828456" lon="31.2696426362"><ele>231.33</ele><time>2026-09-02T21:01:16Z</time></trkpt><trkpt lat="59.5566827618" lon="31.2696424685"><ele>231.33</ele><time>2026-09-02T21:01:17Z</time></trkpt><trkpt lat="59.5566828456" lon="31.2696423847"><ele>231.33</ele><time>2026-09-02T21:01:18Z</time></trkpt><trkpt lat="59.5566829294" lon="31.2696424685"><ele>231.33</ele><time>2026-09-02T21:01:19Z</time></trkpt><trkpt lat="59.5566830970" lon="31.2696423847"><ele>231.33</ele><time>2026-09-02T21:01:20Z</time></trkpt><trkpt lat="59.5566833485" lon="31.2696424685"><ele>231.33</ele><time>2026-09-02T21:01:21Z</time></trkpt><trkpt lat="59.5566834323" lon="31.2696421333"><ele>231.33</ele><time>2026-09-02T21:01:22Z</time></trkpt><trkpt lat="59.5566836838" lon="31.2696419656"><ele>231.33</ele><time>2026-09-02T21:01:23Z</time></trkpt><trkpt lat="59.5566837676" lon="31.2696421333"><ele>231.33</ele><time>2026-09-02T21:01:24Z</time></trkpt><trkpt lat="59.5566837676" lon="31.2696420494"><ele>231.81</ele><time>2026-09-02T21:01:25Z</time></trkpt><trkpt lat="59.5566839352" lon="31.2696427200"><ele>231.81</ele><time>2026-09-02T21:01:26Z</time></trkpt><trkpt lat="59.5566837676" lon="31.2696431391"><ele>231.81</ele><time>2026-09-02T21:01:27Z</time></trkpt><trkpt lat="59.5566839352" lon="31.2696438935"><ele>231.81</ele><time>2026-09-02T21:01:28Z</time></trkpt><trkpt lat="59.5566838514" lon="31.2696447317"><ele>231.81</ele><time>2026-09-02T21:01:29Z</time></trkpt><trkpt lat="59.5566838514" lon="31.2696439773"><ele>231.81</ele><time>2026-09-02T21:01:30Z</time></trkpt><trkpt lat="59.5566838514" lon="31.2696456537"><ele>231.81</ele><time>2026-09-02T21:01:31Z</time></trkpt><trkpt lat="59.5566836838" lon="31.2696458213"><ele>231.81</ele><time>2026-09-02T21:01:32Z</time></trkpt><trkpt lat="59.5566835999" lon="31.2696456537"><ele>231.81</ele><time>2026-09-02T21:01:33Z</time></trkpt><trkpt lat="59.5566831809" lon="31.2696453184"><ele>231.81</ele><time>2026-09-02T21:01:34Z</time></trkpt><trkpt lat="59.5566829294" lon="31.2696446478"><ele>231.33</ele><time>2026-09-02T21:01:35Z</time></trkpt><trkpt lat="59.5566828456" lon="31.2696441449"><ele>231.33</ele><time>2026-09-02T21:01:36Z</time></trkpt><trkpt lat="59.5566821750" lon="31.2696448993"><ele>231.33</ele><time>2026-09-02T21:01:37Z</time></trkpt><trkpt lat="59.5566827618" lon="31.2696442287"><ele>231.33</ele><time>2026-09-02T21:01:38Z</time></trkpt><trkpt lat="59.5566823427" lon="31.2696447317"><ele>231.33</ele><time>2026-09-02T21:01:39Z</time></trkpt><trkpt lat="59.5566822588" lon="31.2696447317"><ele>231.33</ele><time>2026-09-02T21:01:40Z</time></trkpt><trkpt lat="59.5566822588" lon="31.2696446478"><ele>231.33</ele><time>2026-09-02T21:01:41Z</time></trkpt><trkpt lat="59.5566822588" lon="31.2696448993"><ele>231.33</ele><time>2026-09-02T21:01:42Z</time></trkpt><trkpt lat="59.5566822588" lon="31.2696447317"><ele>231.33</ele><time>2026-09-02T21:01:43Z</time></trkpt><trkpt lat="59.5566820912" lon="31.2696444802"><ele>231.33</ele><time>2026-09-02T21:01:44Z</time></trkpt><trkpt lat="59.5566819236" lon="31.2696442287"><ele>231.33</ele><time>2026-09-02T21:01:45Z</time></trkpt><trkpt lat="59.5566818397" lon="31.2696439773"><ele>231.33</ele><time>2026-09-02T21:01:46Z</time></trkpt><trkpt lat="59.5566815883" lon="31.2696435582"><ele>231.33</ele><time>2026-09-02T21:01:47Z</time></trkpt><trkpt lat="59.5566811692" lon="31.2696438935"><ele>231.33</ele><time>2026-09-02T21:01:48Z</time></trkpt><trkpt lat="59.5566809177" lon="31.2696431391"><ele>231.33</ele><time>2026-09-02T21:01:49Z</time></trkpt><trkpt lat="59.5566803310" lon="31.2696444802"><ele>231.33</ele><time>2026-09-02T21:01:50Z</time></trkpt><trkpt lat="59.5566791575" lon="31.2696448993"><ele>231.81</ele><time>2026-09-02T21:01:51Z</time></trkpt><trkpt lat="59.5566783193" lon="31.2696431391"><ele>231.81</ele><time>2026-09-02T21:01:52Z</time></trkpt><trkpt lat="59.5566780679" lon="31.2696464919"><ele>231.81</ele><time>2026-09-02T21:01:53Z</time></trkpt><trkpt lat="59.5566762239" lon="31.2696433906"><ele>231.81</ele><time>2026-09-02T21:01:54Z</time></trkpt><trkpt lat="59.5566769782" lon="31.2696506828"><ele>231.81</ele><time>2026-09-02T21:01:55Z</time></trkpt><trkpt lat="59.5566774812" lon="31.2696505990"><ele>231.81</ele><time>2026-09-02T21:01:56Z</time></trkpt><trkpt lat="59.5566781517" lon="31.2696487550"><ele>231.81</ele><time>2026-09-02T21:01:57Z</time></trkpt><trkpt lat="59.5566785708" lon="31.2696484197"><ele>231.81</ele><time>2026-09-02T21:01:58Z</time></trkpt><trkpt lat="59.5566788223" lon="31.2696475815"><ele>231.81</ele><time>2026-09-02T21:01:59Z</time></trkpt><trkpt lat="59.5566789899" lon="31.2696469948"><ele>231.81</ele><time>2026-09-02T21:02:00Z</time></trkpt><trkpt lat="59.5566785708" lon="31.2696459889"><ele>231.81</ele><time>2026-09-02T21:02:01Z</time></trkpt><trkpt lat="59.5566791575" lon="31.2696461566"><ele>231.33</ele><time>2026-09-02T21:02:02Z</time></trkpt><trkpt lat="59.5566788223" lon="31.2696453184"><ele>231.33</ele><time>2026-09-02T21:02:03Z</time></trkpt><trkpt lat="59.5566791575" lon="31.2696461566"><ele>231.33</ele><time>2026-09-02T21:02:04Z</time></trkpt><trkpt lat="59.5566787384" lon="31.2696451508"><ele>231.33</ele><time>2026-09-02T21:02:05Z</time></trkpt><trkpt lat="59.5566794928" lon="31.2696460728"><ele>231.33</ele><time>2026-09-02T21:02:06Z</time></trkpt><trkpt lat="59.5566792414" lon="31.2696467433"><ele>231.33</ele><time>2026-09-02T21:02:07Z</time></trkpt><trkpt lat="59.5566795766" lon="31.2696469948"><ele>231.33</ele><time>2026-09-02T21:02:08Z</time></trkpt><trkpt lat="59.5566785708" lon="31.2696459889"><ele>231.33</ele><time>2026-09-02T21:02:09Z</time></trkpt><trkpt lat="59.5566794928" lon="31.2696466595"><ele>231.33</ele><time>2026-09-02T21:02:10Z</time></trkpt><trkpt lat="59.5566790737" lon="31.2696462404"><ele>231.33</ele><time>2026-09-02T21:02:11Z</time></trkpt><trkpt lat="59.5566797443" lon="31.2696459889"><ele>231.33</ele><time>2026-09-02T21:02:12Z</time></trkpt><trkpt lat="59.5566788223" lon="31.2696455698"><ele>231.33</ele><time>2026-09-02T21:02:13Z</time></trkpt><trkpt lat="59.5566797443" lon="31.2696455698"><ele>231.33</ele><time>2026-09-02T21:02:14Z</time></trkpt><trkpt lat="59.5566790737" lon="31.2696439773"><ele>231.33</ele><time>2026-09-02T21:02:15Z</time></trkpt><trkpt lat="59.5566790737" lon="31.2696431391"><ele>231.33</ele><time>2026-09-02T21:02:16Z</time></trkpt><trkpt lat="59.5566775650" lon="31.2696410436"><ele>231.33</ele><time>2026-09-02T21:02:17Z</time></trkpt><trkpt lat="59.5566785708" lon="31.2696401216"><ele>231.33</ele><time>2026-09-02T21:02:18Z</time></trkpt><trkpt lat="59.5566774812" lon="31.2696387805"><ele>231.33</ele><time>2026-09-02T21:02:19Z</time></trkpt><trkpt lat="59.5566784870" lon="31.2696381938"><ele>231.33</ele><time>2026-09-02T21:02:20Z</time></trkpt><trkpt lat="59.5566785708" lon="31.2696359307"><ele>231.33</ele><time>2026-09-02T21:02:21Z</time></trkpt><trkpt lat="59.5566786546" lon="31.2696387805"><ele>231.33</ele><time>2026-09-02T21:02:22Z</time></trkpt><trkpt lat="59.5566786546" lon="31.2696380261"><ele>231.33</ele><time>2026-09-02T21:02:23Z</time></trkpt><trkpt lat="59.5566790737" lon="31.2696401216"><ele>231.33</ele><time>2026-09-02T21:02:24Z</time></trkpt><trkpt lat="59.5566796605" lon="31.2696374394"><ele>231.33</ele><time>2026-09-02T21:02:25Z</time></trkpt><trkpt lat="59.5566810854" lon="31.2696376909"><ele>231.33</ele><time>2026-09-02T21:02:26Z</time></trkpt><trkpt lat="59.5566814207" lon="31.2696369365"><ele>231.33</ele><time>2026-09-02T21:02:27Z</time></trkpt><trkpt lat="59.5566828456" lon="31.2696369365"><ele>231.33</ele><time>2026-09-02T21:02:28Z</time></trkpt><trkpt lat="59.5566836838" lon="31.2696359307"><ele>231.33</ele><time>2026-09-02T21:02:29Z</time></trkpt><trkpt lat="59.5566840190" lon="31.2696361821"><ele>231.33</ele><time>2026-09-02T21:02:30Z</time></trkpt><trkpt lat="59.5566843543" lon="31.2696357630"><ele>231.33</ele><time>2026-09-02T21:02:31Z</time></trkpt><trkpt lat="59.5566846896" lon="31.2696355954"><ele>231.33</ele><time>2026-09-02T21:02:32Z</time></trkpt><trkpt lat="59.5566851925" lon="31.2696357630"><ele>231.33</ele><time>2026-09-02T21:02:33Z</time></trkpt><trkpt lat="59.5566857792" lon="31.2696361821"><ele>231.33</ele><time>2026-09-02T21:02:34Z</time></trkpt><trkpt lat="59.5566862822" lon="31.2696370203"><ele>231.33</ele><time>2026-09-02T21:02:35Z</time></trkpt><trkpt lat="59.5566866174" lon="31.2696367688"><ele>231.33</ele><time>2026-09-02T21:02:36Z</time></trkpt><trkpt lat="59.5566860307" lon="31.2696382776"><ele>231.33</ele><time>2026-09-02T21:02:37Z</time></trkpt><trkpt lat="59.5566867851" lon="31.2696379423"><ele>231.33</ele><time>2026-09-02T21:02:38Z</time></trkpt><trkpt lat="59.5566855278" lon="31.2696387805"><ele>231.33</ele><time>2026-09-02T21:02:39Z</time></trkpt><trkpt lat="59.5566862822" lon="31.2696382776"><ele>231.33</ele><time>2026-09-02T21:02:40Z</time></trkpt><trkpt lat="59.5566855278" lon="31.2696387805"><ele>231.33</ele><time>2026-09-02T21:02:41Z</time></trkpt><trkpt lat="59.5566857792" lon="31.2696389481"><ele>231.33</ele><time>2026-09-02T21:02:42Z</time></trkpt><trkpt lat="59.5566852763" lon="31.2696384452"><ele>231.33</ele><time>2026-09-02T21:02:43Z</time></trkpt><trkpt lat="59.5566851925" lon="31.2696393672"><ele>231.33</ele><time>2026-09-02T21:02:44Z</time></trkpt><trkpt lat="59.5566845220" lon="31.2696396187"><ele>231.33</ele><time>2026-09-02T21:02:45Z</time></trkpt><trkpt lat="59.5566841867" lon="31.2696408760"><ele>231.33</ele><time>2026-09-02T21:02:46Z</time></trkpt><trkpt lat="59.5566844381" lon="31.2696401216"><ele>231.33</ele><time>2026-09-02T21:02:47Z</time></trkpt><trkpt lat="59.5566845220" lon="31.2696402892"><ele>231.33</ele><time>2026-09-02T21:02:48Z</time></trkpt><trkpt lat="59.5566852763" lon="31.2696397863"><ele>231.33</ele><time>2026-09-02T21:02:49Z</time></trkpt><trkpt lat="59.5566851925" lon="31.2696394511"><ele>231.33</ele><time>2026-09-02T21:02:50Z</time></trkpt><trkpt lat="59.5566856954" lon="31.2696386967"><ele>231.33</ele><time>2026-09-02T21:02:51Z</time></trkpt><trkpt lat="59.5566859469" lon="31.2696380261"><ele>231.33</ele><time>2026-09-02T21:02:52Z</time></trkpt><trkpt lat="59.5566856954" lon="31.2696372718"><ele>231.33</ele><time>2026-09-02T21:02:53Z</time></trkpt><trkpt lat="59.5566854440" lon="31.2696370203"><ele>231.33</ele><time>2026-09-02T21:02:54Z</time></trkpt><trkpt lat="59.5566851925" lon="31.2696359307"><ele>231.33</ele><time>2026-09-02T21:02:55Z</time></trkpt><trkpt lat="59.5566849411" lon="31.2696354277"><ele>231.33</ele><time>2026-09-02T21:02:56Z</time></trkpt><trkpt lat="59.5566846896" lon="31.2696352601"><ele>231.33</ele><time>2026-09-02T21:02:57Z</time></trkpt><trkpt lat="59.5566846896" lon="31.2696354277"><ele>231.33</ele><time>2026-09-02T21:02:58Z</time></trkpt><trkpt lat="59.5566843543" lon="31.2696354277"><ele>231.33</ele><time>2026-09-02T21:02:59Z</time></trkpt><trkpt lat="59.5566849411" lon="31.2696355954"><ele>231.33</ele><time>2026-09-02T21:03:00Z</time></trkpt><trkpt lat="59.5566849411" lon="31.2696352601"><ele>231.33</ele><time>2026-09-02T21:03:01Z</time></trkpt><trkpt lat="59.5566855278" lon="31.2696354277"><ele>231.33</ele><time>2026-09-02T21:03:02Z</time></trkpt><trkpt lat="59.5566852763" lon="31.2696351763"><ele>231.33</ele><time>2026-09-02T21:03:03Z</time></trkpt><trkpt lat="59.5566853601" lon="31.2696358468"><ele>231.33</ele><time>2026-09-02T21:03:04Z</time></trkpt><trkpt lat="59.5566851925" lon="31.2696364336"><ele>231.33</ele><time>2026-09-02T21:03:05Z</time></trkpt><trkpt lat="59.5566850249" lon="31.2696368527"><ele>231.33</ele><time>2026-09-02T21:03:06Z</time></trkpt><trkpt lat="59.5566843543" lon="31.2696376909"><ele>231.33</ele><time>2026-09-02T21:03:07Z</time></trkpt><trkpt lat="59.5566839352" lon="31.2696372718"><ele>231.33</ele><time>2026-09-02T21:03:08Z</time></trkpt><trkpt lat="59.5566832647" lon="31.2696373556"><ele>231.33</ele><time>2026-09-02T21:03:09Z</time></trkpt><trkpt lat="59.5566828456" lon="31.2696371879"><ele>231.33</ele><time>2026-09-02T21:03:10Z</time></trkpt><trkpt lat="59.5566831809" lon="31.2696373556"><ele>231.33</ele><time>2026-09-02T21:03:11Z</time></trkpt><trkpt lat="59.5566831809" lon="31.2696356792"><ele>231.33</ele><time>2026-09-02T21:03:12Z</time></trkpt><trkpt lat="59.5566841867" lon="31.2696330808"><ele>231.33</ele><time>2026-09-02T21:03:13Z</time></trkpt><trkpt lat="59.5566868689" lon="31.2696294766"><ele>231.33</ele><time>2026-09-02T21:03:14Z</time></trkpt><trkpt lat="59.5566887967" lon="31.2696262915"><ele>231.33</ele><time>2026-09-02T21:03:15Z</time></trkpt><trkpt lat="59.5566894673" lon="31.2696214300"><ele>231.33</ele><time>2026-09-02T21:03:16Z</time></trkpt><trkpt lat="59.5566882938" lon="31.2696207594"><ele>231.33</ele><time>2026-09-02T21:03:17Z</time></trkpt><trkpt lat="59.5566881262" lon="31.2696210947"><ele>231.33</ele><time>2026-09-02T21:03:18Z</time></trkpt><trkpt lat="59.5566875394" lon="31.2696194183"><ele>231.33</ele><time>2026-09-02T21:03:19Z</time></trkpt><trkpt lat="59.5566907246" lon="31.2696208432"><ele>231.33</ele><time>2026-09-02T21:03:20Z</time></trkpt><trkpt lat="59.5566887967" lon="31.2696179934"><ele>231.33</ele><time>2026-09-02T21:03:21Z</time></trkpt><trkpt lat="59.5566913951" lon="31.2696190830"><ele>231.33</ele><time>2026-09-02T21:03:22Z</time></trkpt><trkpt lat="59.5566912275" lon="31.2696196698"><ele>231.81</ele><time>2026-09-02T21:03:23Z</time></trkpt><trkpt lat="59.5566912275" lon="31.2696181610"><ele>231.81</ele><time>2026-09-02T21:03:24Z</time></trkpt><trkpt lat="59.5566904731" lon="31.2696155626"><ele>231.81</ele><time>2026-09-02T21:03:25Z</time></trkpt><trkpt lat="59.5566901378" lon="31.2696135510"><ele>231.81</ele><time>2026-09-02T21:03:26Z</time></trkpt><trkpt lat="59.5566911437" lon="31.2696120422"><ele>231.81</ele><time>2026-09-02T21:03:27Z</time></trkpt><trkpt lat="59.5566920657" lon="31.2696100306"><ele>231.81</ele><time>2026-09-02T21:03:28Z</time></trkpt><trkpt lat="59.5566929877" lon="31.2696068455"><ele>231.81</ele><time>2026-09-02T21:03:29Z</time></trkpt><trkpt lat="59.5566931553" lon="31.2696053367"><ele>231.81</ele><time>2026-09-02T21:03:30Z</time></trkpt><trkpt lat="59.5566935744" lon="31.2696020678"><ele>231.81</ele><time>2026-09-02T21:03:31Z</time></trkpt><trkpt lat="59.5566942450" lon="31.2696003914"><ele>231.81</ele><time>2026-09-02T21:03:32Z</time></trkpt><trkpt lat="59.5566944964" lon="31.2695978768"><ele>231.81</ele><time>2026-09-02T21:03:33Z</time></trkpt><trkpt lat="59.5566944964" lon="31.2695985474"><ele>231.81</ele><time>2026-09-02T21:03:34Z</time></trkpt><trkpt lat="59.5566958375" lon="31.2695995532"><ele>231.81</ele><time>2026-09-02T21:03:35Z</time></trkpt><trkpt lat="59.5566977654" lon="31.2696016487"><ele>231.81</ele><time>2026-09-02T21:03:36Z</time></trkpt><trkpt lat="59.5566994417" lon="31.2695969548"><ele>231.81</ele><time>2026-09-02T21:03:37Z</time></trkpt><trkpt lat="59.5567026269" lon="31.2695870642"><ele>231.81</ele><time>2026-09-02T21:03:38Z</time></trkpt><trkpt lat="59.5567086618" lon="31.2695779279"><ele>231.81</ele><time>2026-09-02T21:03:39Z</time></trkpt><trkpt lat="59.5567117631" lon="31.2695724797"><ele>231.81</ele><time>2026-09-02T21:03:40Z</time></trkpt><trkpt lat="59.5567170437" lon="31.2695632596"><ele>231.81</ele><time>2026-09-02T21:03:41Z</time></trkpt><trkpt lat="59.5567214862" lon="31.2695496809"><ele>231.81</ele><time>2026-09-02T21:03:42Z</time></trkpt><trkpt lat="59.5567243360" lon="31.2695394550"><ele>231.81</ele><time>2026-09-02T21:03:43Z</time></trkpt><trkpt lat="59.5567276888" lon="31.2695215177"><ele>231.81</ele><time>2026-09-02T21:03:44Z</time></trkpt><trkpt lat="59.5567301195" lon="31.2695049215"><ele>231.81</ele><time>2026-09-02T21:03:45Z</time></trkpt><trkpt lat="59.5567320473" lon="31.2694911752"><ele>231.81</ele><time>2026-09-02T21:03:46Z</time></trkpt><trkpt lat="59.5567338914" lon="31.2694820389"><ele>231.81</ele><time>2026-09-02T21:03:47Z</time></trkpt><trkpt lat="59.5567369927" lon="31.2694725674"><ele>231.81</ele><time>2026-09-02T21:03:48Z</time></trkpt><trkpt lat="59.5567396749" lon="31.2694596592"><ele>231.81</ele><time>2026-09-02T21:03:49Z</time></trkpt><trkpt lat="59.5567433629" lon="31.2694448233"><ele>231.81</ele><time>2026-09-02T21:03:50Z</time></trkpt><trkpt lat="59.5567445364" lon="31.2694379501"><ele>231.81</ele><time>2026-09-02T21:03:51Z</time></trkpt><trkpt lat="59.5567447878" lon="31.2694305740"><ele>231.81</ele><time>2026-09-02T21:03:52Z</time></trkpt><trkpt lat="59.5567436982" lon="31.2694215216"><ele>231.81</ele><time>2026-09-02T21:03:53Z</time></trkpt><trkpt lat="59.5567510743" lon="31.2694065180"><ele>231.81</ele><time>2026-09-02T21:03:54Z</time></trkpt><trkpt lat="59.5567458775" lon="31.2694143970"><ele>231.81</ele><time>2026-09-02T21:03:55Z</time></trkpt><trkpt lat="59.5567505714" lon="31.2694067694"><ele>231.81</ele><time>2026-09-02T21:03:56Z</time></trkpt><trkpt lat="59.5567571931" lon="31.2693986390"><ele>231.81</ele><time>2026-09-02T21:03:57Z</time></trkpt><trkpt lat="59.5567638986" lon="31.2693960406"><ele>231.81</ele><time>2026-09-02T21:03:58Z</time></trkpt><trkpt lat="59.5567680895" lon="31.2693910953"><ele>231.81</ele><time>2026-09-02T21:03:59Z</time></trkpt><trkpt lat="59.5567719452" lon="31.2693847250"><ele>231.81</ele><time>2026-09-02T21:04:00Z</time></trkpt><trkpt lat="59.5567768905" lon="31.2693795282"><ele>231.81</ele><time>2026-09-02T21:04:01Z</time></trkpt><trkpt lat="59.5567815844" lon="31.2693735771"><ele>231.81</ele><time>2026-09-02T21:04:02Z</time></trkpt><trkpt lat="59.5567835961" lon="31.2693666201"><ele>231.81</ele><time>2026-09-02T21:04:03Z</time></trkpt><trkpt lat="59.5567848533" lon="31.2693583220"><ele>231.81</ele><time>2026-09-02T21:04:04Z</time></trkpt><trkpt lat="59.5567867812" lon="31.2693491857"><ele>231.81</ele><time>2026-09-02T21:04:05Z</time></trkpt><trkpt lat="59.5567883737" lon="31.2693402171"><ele>231.81</ele><time>2026-09-02T21:04:06Z</time></trkpt><trkpt lat="59.5567866974" lon="31.2693288177"><ele>231.81</ele><time>2026-09-02T21:04:07Z</time></trkpt><trkpt lat="59.5567885414" lon="31.2693230342"><ele>231.81</ele><time>2026-09-02T21:04:08Z</time></trkpt><trkpt lat="59.5567934867" lon="31.2693179213"><ele>231.81</ele><time>2026-09-02T21:04:09Z</time></trkpt><trkpt lat="59.5567961689" lon="31.2693150714"><ele>231.81</ele><time>2026-09-02T21:04:10Z</time></trkpt><trkpt lat="59.5567962527" lon="31.2693073601"><ele>231.81</ele><time>2026-09-02T21:04:11Z</time></trkpt><trkpt lat="59.5568010304" lon="31.2693018280"><ele>231.81</ele><time>2026-09-02T21:04:12Z</time></trkpt><trkpt lat="59.5568040479" lon="31.2692926917"><ele>231.81</ele><time>2026-09-02T21:04:13Z</time></trkpt><trkpt lat="59.5568082388" lon="31.2692867406"><ele>231.81</ele><time>2026-09-02T21:04:14Z</time></trkpt><trkpt lat="59.5568124298" lon="31.2692771852"><ele>232.30</ele><time>2026-09-02T21:04:15Z</time></trkpt><trkpt lat="59.5568145253" lon="31.2692636903"><ele>232.30</ele><time>2026-09-02T21:04:16Z</time></trkpt><trkpt lat="59.5568185486" lon="31.2692554761"><ele>232.78</ele><time>2026-09-02T21:04:17Z</time></trkpt><trkpt lat="59.5568220690" lon="31.2692458369"><ele>232.78</ele><time>2026-09-02T21:04:18Z</time></trkpt><trkpt lat="59.5568248350" lon="31.2692405563"><ele>232.78</ele><time>2026-09-02T21:04:19Z</time></trkpt><trkpt lat="59.5568266790" lon="31.2692310847"><ele>232.78</ele><time>2026-09-02T21:04:20Z</time></trkpt><trkpt lat="59.5568297803" lon="31.2692241278"><ele>232.78</ele><time>2026-09-02T21:04:21Z</time></trkpt><trkpt lat="59.5568328816" lon="31.2692172546"><ele>232.78</ele><time>2026-09-02T21:04:22Z</time></trkpt><trkpt lat="59.5568365697" lon="31.2692120578"><ele>233.26</ele><time>2026-09-02T21:04:23Z</time></trkpt><trkpt lat="59.5568399224" lon="31.2692075316"><ele>233.26</ele><time>2026-09-02T21:04:24Z</time></trkpt><trkpt lat="59.5568427723" lon="31.2692044303"><ele>233.26</ele><time>2026-09-02T21:04:25Z</time></trkpt><trkpt lat="59.5568475500" lon="31.2692010775"><ele>233.26</ele><time>2026-09-02T21:04:26Z</time></trkpt><trkpt lat="59.5568513218" lon="31.2691982277"><ele>233.26</ele><time>2026-09-02T21:04:27Z</time></trkpt><trkpt lat="59.5568568539" lon="31.2691944558"><ele>233.74</ele><time>2026-09-02T21:04:28Z</time></trkpt><trkpt lat="59.5568605419" lon="31.2691870797"><ele>233.74</ele><time>2026-09-02T21:04:29Z</time></trkpt><trkpt lat="59.5568675827" lon="31.2691779435"><ele>233.74</ele><time>2026-09-02T21:04:30Z</time></trkpt><trkpt lat="59.5568733662" lon="31.2691666279"><ele>233.74</ele><time>2026-09-02T21:04:31Z</time></trkpt><trkpt lat="59.5568790659" lon="31.2691552285"><ele>233.74</ele><time>2026-09-02T21:04:32Z</time></trkpt><trkpt lat="59.5568885375" lon="31.2691473495"><ele>233.74</ele><time>2026-09-02T21:04:33Z</time></trkpt><trkpt lat="59.5568978414" lon="31.2691340223"><ele>233.74</ele><time>2026-09-02T21:04:34Z</time></trkpt><trkpt lat="59.5569065586" lon="31.2691213656"><ele>233.74</ele><time>2026-09-02T21:04:35Z</time></trkpt><trkpt lat="59.5569127612" lon="31.2691111397"><ele>234.22</ele><time>2026-09-02T21:04:36Z</time></trkpt><trkpt lat="59.5569222327" lon="31.2691016681"><ele>234.22</ele><time>2026-09-02T21:04:37Z</time></trkpt><trkpt lat="59.5569316205" lon="31.2690934539"><ele>234.22</ele><time>2026-09-02T21:04:38Z</time></trkpt><trkpt lat="59.5569413435" lon="31.2690869998"><ele>234.22</ele><time>2026-09-02T21:04:39Z</time></trkpt><trkpt lat="59.5569485519" lon="31.2690781988"><ele>234.22</ele><time>2026-09-02T21:04:40Z</time></trkpt><trkpt lat="59.5569550898" lon="31.2690691464"><ele>234.70</ele><time>2026-09-02T21:04:41Z</time></trkpt><trkpt lat="59.5569612924" lon="31.2690581661"><ele>234.70</ele><time>2026-09-02T21:04:42Z</time></trkpt><trkpt lat="59.5569680817" lon="31.2690468505"><ele>234.70</ele><time>2026-09-02T21:04:43Z</time></trkpt><trkpt lat="59.5569732785" lon="31.2690376304"><ele>234.70</ele><time>2026-09-02T21:04:44Z</time></trkpt><trkpt lat="59.5569799840" lon="31.2690275721"><ele>234.70</ele><time>2026-09-02T21:04:45Z</time></trkpt><trkpt lat="59.5569862705" lon="31.2690186873"><ele>235.18</ele><time>2026-09-02T21:04:46Z</time></trkpt><trkpt lat="59.5569942333" lon="31.2690107245"><ele>235.18</ele><time>2026-09-02T21:04:47Z</time></trkpt><trkpt lat="59.5570030343" lon="31.2690071203"><ele>235.18</ele><time>2026-09-02T21:04:48Z</time></trkpt><trkpt lat="59.5570117515" lon="31.2690006662"><ele>235.18</ele><time>2026-09-02T21:04:49Z</time></trkpt><trkpt lat="59.5570194628" lon="31.2689904403"><ele>235.18</ele><time>2026-09-02T21:04:50Z</time></trkpt><trkpt lat="59.5570243243" lon="31.2689773645"><ele>235.18</ele><time>2026-09-02T21:04:51Z</time></trkpt><trkpt lat="59.5570308622" lon="31.2689668871"><ele>235.18</ele><time>2026-09-02T21:04:52Z</time></trkpt><trkpt lat="59.5570382383" lon="31.2689562421"><ele>235.18</ele><time>2026-09-02T21:04:53Z</time></trkpt><trkpt lat="59.5570445247" lon="31.2689429987"><ele>235.66</ele><time>2026-09-02T21:04:54Z</time></trkpt><trkpt lat="59.5570513979" lon="31.2689277437"><ele>235.66</ele><time>2026-09-02T21:04:55Z</time></trkpt><trkpt lat="59.5570587739" lon="31.2689143326"><ele>235.66</ele><time>2026-09-02T21:04:56Z</time></trkpt><trkpt lat="59.5570653956" lon="31.2689028494"><ele>235.66</ele><time>2026-09-02T21:04:57Z</time></trkpt><trkpt lat="59.5570695866" lon="31.2688899413"><ele>235.66</ele><time>2026-09-02T21:04:58Z</time></trkpt><trkpt lat="59.5570718497" lon="31.2688742671"><ele>236.14</ele><time>2026-09-02T21:04:59Z</time></trkpt><trkpt lat="59.5570719335" lon="31.2688571680"><ele>236.14</ele><time>2026-09-02T21:05:00Z</time></trkpt><trkpt lat="59.5570770465" lon="31.2688429188"><ele>236.62</ele><time>2026-09-02T21:05:01Z</time></trkpt><trkpt lat="59.5570800640" lon="31.2688239757"><ele>236.62</ele><time>2026-09-02T21:05:02Z</time></trkpt><trkpt lat="59.5570851769" lon="31.2688071281"><ele>236.62</ele><time>2026-09-02T21:05:03Z</time></trkpt><trkpt lat="59.5570887811" lon="31.2687867600"><ele>236.62</ele><time>2026-09-02T21:05:04Z</time></trkpt><trkpt lat="59.5570912957" lon="31.2687720917"><ele>237.10</ele><time>2026-09-02T21:05:05Z</time></trkpt><trkpt lat="59.5570943970" lon="31.2687602732"><ele>237.10</ele><time>2026-09-02T21:05:06Z</time></trkpt><trkpt lat="59.5571017731" lon="31.2687572557"><ele>237.58</ele><time>2026-09-02T21:05:07Z</time></trkpt><trkpt lat="59.5571065508" lon="31.2687491253"><ele>237.58</ele><time>2026-09-02T21:05:08Z</time></trkpt><trkpt lat="59.5571131725" lon="31.2687398214"><ele>237.58</ele><time>2026-09-02T21:05:09Z</time></trkpt><trkpt lat="59.5571205486" lon="31.2687345408"><ele>237.58</ele><time>2026-09-02T21:05:10Z</time></trkpt><trkpt lat="59.5571279246" lon="31.2687314395"><ele>237.58</ele><time>2026-09-02T21:05:11Z</time></trkpt><trkpt lat="59.5571357198" lon="31.2687270809"><ele>238.06</ele><time>2026-09-02T21:05:12Z</time></trkpt><trkpt lat="59.5571375638" lon="31.2687252369"><ele>238.06</ele><time>2026-09-02T21:05:13Z</time></trkpt><trkpt lat="59.5571374800" lon="31.2687262427"><ele>238.06</ele><time>2026-09-02T21:05:14Z</time></trkpt><trkpt lat="59.5571332891" lon="31.2687225547"><ele>238.06</ele><time>2026-09-02T21:05:15Z</time></trkpt><trkpt lat="59.5571378991" lon="31.2687272485"><ele>238.06</ele><time>2026-09-02T21:05:16Z</time></trkpt><trkpt lat="59.5571355522" lon="31.2687230576"><ele>238.54</ele><time>2026-09-02T21:05:17Z</time></trkpt><trkpt lat="59.5571394917" lon="31.2687174417"><ele>238.54</ele><time>2026-09-02T21:05:18Z</time></trkpt><trkpt lat="59.5571438503" lon="31.2687132508"><ele>238.54</ele><time>2026-09-02T21:05:19Z</time></trkpt><trkpt lat="59.5571477897" lon="31.2687043659"><ele>238.54</ele><time>2026-09-02T21:05:20Z</time></trkpt><trkpt lat="59.5571524836" lon="31.2686973251"><ele>238.54</ele><time>2026-09-02T21:05:21Z</time></trkpt><trkpt lat="59.5571578480" lon="31.2686884403"><ele>238.54</ele><time>2026-09-02T21:05:22Z</time></trkpt><trkpt lat="59.5571613684" lon="31.2686770409"><ele>238.54</ele><time>2026-09-02T21:05:23Z</time></trkpt><trkpt lat="59.5571662299" lon="31.2686624564"><ele>238.54</ele><time>2026-09-02T21:05:24Z</time></trkpt><trkpt lat="59.5571703371" lon="31.2686514761"><ele>238.54</ele><time>2026-09-02T21:05:25Z</time></trkpt><trkpt lat="59.5571754500" lon="31.2686427590"><ele>238.54</ele><time>2026-09-02T21:05:26Z</time></trkpt><trkpt lat="59.5571793895" lon="31.2686320301"><ele>238.54</ele><time>2026-09-02T21:05:27Z</time></trkpt><trkpt lat="59.5571818203" lon="31.2686222233"><ele>238.54</ele><time>2026-09-02T21:05:28Z</time></trkpt><trkpt lat="59.5571867656" lon="31.2686121650"><ele>238.54</ele><time>2026-09-02T21:05:29Z</time></trkpt><trkpt lat="59.5571907889" lon="31.2686004303"><ele>238.54</ele><time>2026-09-02T21:05:30Z</time></trkpt><trkpt lat="59.5571946446" lon="31.2685902882"><ele>238.54</ele><time>2026-09-02T21:05:31Z</time></trkpt><trkpt lat="59.5571974944" lon="31.2685815711"><ele>238.54</ele><time>2026-09-02T21:05:32Z</time></trkpt><trkpt lat="59.5571988355" lon="31.2685770448"><ele>238.54</ele><time>2026-09-02T21:05:33Z</time></trkpt><trkpt lat="59.5572037809" lon="31.2685682438"><ele>238.54</ele><time>2026-09-02T21:05:34Z</time></trkpt><trkpt lat="59.5572057925" lon="31.2685588561"><ele>238.54</ele><time>2026-09-02T21:05:35Z</time></trkpt><trkpt lat="59.5572088938" lon="31.2685504742"><ele>238.54</ele><time>2026-09-02T21:05:36Z</time></trkpt><trkpt lat="59.5572103187" lon="31.2685386557"><ele>238.54</ele><time>2026-09-02T21:05:37Z</time></trkpt><trkpt lat="59.5572116598" lon="31.2685296871"><ele>238.54</ele><time>2026-09-02T21:05:38Z</time></trkpt><trkpt lat="59.5572158508" lon="31.2685200479"><ele>238.54</ele><time>2026-09-02T21:05:39Z</time></trkpt><trkpt lat="59.5572191197" lon="31.2685120851"><ele>238.54</ele><time>2026-09-02T21:05:40Z</time></trkpt><trkpt lat="59.5572275855" lon="31.2685050443"><ele>238.54</ele><time>2026-09-02T21:05:41Z</time></trkpt><trkpt lat="59.5572336204" lon="31.2684947345"><ele>238.54</ele><time>2026-09-02T21:05:42Z</time></trkpt><trkpt lat="59.5572394878" lon="31.2684806529"><ele>238.54</ele><time>2026-09-02T21:05:43Z</time></trkpt><trkpt lat="59.5572416671" lon="31.2684659846"><ele>238.54</ele><time>2026-09-02T21:05:44Z</time></trkpt><trkpt lat="59.5572461933" lon="31.2684607878"><ele>238.54</ele><time>2026-09-02T21:05:45Z</time></trkpt><trkpt lat="59.5572506357" lon="31.2684498914"><ele>238.54</ele><time>2026-09-02T21:05:46Z</time></trkpt><trkpt lat="59.5572538208" lon="31.2684344687"><ele>238.54</ele><time>2026-09-02T21:05:47Z</time></trkpt><trkpt lat="59.5572579280" lon="31.2684225664"><ele>238.54</ele><time>2026-09-02T21:05:48Z</time></trkpt><trkpt lat="59.5572659746" lon="31.2684001867"><ele>238.54</ele><time>2026-09-02T21:05:49Z</time></trkpt><trkpt lat="59.5572715905" lon="31.2683893740"><ele>238.54</ele><time>2026-09-02T21:05:50Z</time></trkpt><trkpt lat="59.5572798885" lon="31.2683814950"><ele>238.54</ele><time>2026-09-02T21:05:51Z</time></trkpt><trkpt lat="59.5572856721" lon="31.2683662400"><ele>238.54</ele><time>2026-09-02T21:05:52Z</time></trkpt><trkpt lat="59.5572911203" lon="31.2683599535"><ele>239.02</ele><time>2026-09-02T21:05:53Z</time></trkpt><trkpt lat="59.5572965685" lon="31.2683544215"><ele>239.02</ele><time>2026-09-02T21:05:54Z</time></trkpt><trkpt lat="59.5573040284" lon="31.2683487218"><ele>239.02</ele><time>2026-09-02T21:05:55Z</time></trkpt><trkpt lat="59.5573100634" lon="31.2683417648"><ele>239.02</ele><time>2026-09-02T21:05:56Z</time></trkpt><trkpt lat="59.5573184453" lon="31.2683325447"><ele>239.02</ele><time>2026-09-02T21:05:57Z</time></trkpt><trkpt lat="59.5573250670" lon="31.2683280185"><ele>238.54</ele><time>2026-09-02T21:05:58Z</time></trkpt><trkpt lat="59.5573302638" lon="31.2683181278"><ele>238.54</ele><time>2026-09-02T21:05:59Z</time></trkpt><trkpt lat="59.5573384780" lon="31.2683073990"><ele>238.54</ele><time>2026-09-02T21:06:00Z</time></trkpt><trkpt lat="59.5573427528" lon="31.2683029566"><ele>238.54</ele><time>2026-09-02T21:06:01Z</time></trkpt><trkpt lat="59.5573488716" lon="31.2683013640"><ele>238.54</ele><time>2026-09-02T21:06:02Z</time></trkpt><trkpt lat="59.5573562477" lon="31.2682966702"><ele>239.02</ele><time>2026-09-02T21:06:03Z</time></trkpt><trkpt lat="59.5573631208" lon="31.2682875339"><ele>239.02</ele><time>2026-09-02T21:06:04Z</time></trkpt><trkpt lat="59.5573691558" lon="31.2682761345"><ele>239.02</ele><time>2026-09-02T21:06:05Z</time></trkpt><trkpt lat="59.5573719218" lon="31.2682674173"><ele>239.02</ele><time>2026-09-02T21:06:06Z</time></trkpt><trkpt lat="59.5573727600" lon="31.2682488933"><ele>239.02</ele><time>2026-09-02T21:06:07Z</time></trkpt><trkpt lat="59.5573758613" lon="31.2682332192"><ele>239.02</ele><time>2026-09-02T21:06:08Z</time></trkpt><trkpt lat="59.5573782921" lon="31.2682219874"><ele>239.02</ele><time>2026-09-02T21:06:09Z</time></trkpt><trkpt lat="59.5573815610" lon="31.2682139408"><ele>239.51</ele><time>2026-09-02T21:06:10Z</time></trkpt><trkpt lat="59.5573855843" lon="31.2682065647"><ele>239.51</ele><time>2026-09-02T21:06:11Z</time></trkpt><trkpt lat="59.5573910326" lon="31.2681984343"><ele>239.51</ele><time>2026-09-02T21:06:12Z</time></trkpt><trkpt lat="59.5573987439" lon="31.2681903876"><ele>239.51</ele><time>2026-09-02T21:06:13Z</time></trkpt><trkpt lat="59.5574045274" lon="31.2681771442"><ele>239.02</ele><time>2026-09-02T21:06:14Z</time></trkpt><trkpt lat="59.5574138314" lon="31.2681579497"><ele>239.02</ele><time>2026-09-02T21:06:15Z</time></trkpt><trkpt lat="59.5574189443" lon="31.2681440357"><ele>239.02</ele><time>2026-09-02T21:06:16Z</time></trkpt><trkpt lat="59.5574265718" lon="31.2681332231"><ele>239.02</ele><time>2026-09-02T21:06:17Z</time></trkpt><trkpt lat="59.5574346185" lon="31.2681235839"><ele>239.02</ele><time>2026-09-02T21:06:18Z</time></trkpt><trkpt lat="59.5574433357" lon="31.2681099214"><ele>239.02</ele><time>2026-09-02T21:06:19Z</time></trkpt><trkpt lat="59.5574519690" lon="31.2680949178"><ele>239.02</ele><time>2026-09-02T21:06:20Z</time></trkpt><trkpt lat="59.5574600995" lon="31.2680767290"><ele>239.02</ele><time>2026-09-02T21:06:21Z</time></trkpt><trkpt lat="59.5574670564" lon="31.2680588756"><ele>239.51</ele><time>2026-09-02T21:06:22Z</time></trkpt><trkpt lat="59.5574742649" lon="31.2680422794"><ele>239.51</ele><time>2026-09-02T21:06:23Z</time></trkpt><trkpt lat="59.5574809704" lon="31.2680263538"><ele>239.51</ele><time>2026-09-02T21:06:24Z</time></trkpt><trkpt lat="59.5574878436" lon="31.2680141162"><ele>239.51</ele><time>2026-09-02T21:06:25Z</time></trkpt><trkpt lat="59.5574965607" lon="31.2680053990"><ele>239.51</ele><time>2026-09-02T21:06:26Z</time></trkpt><trkpt lat="59.5575058647" lon="31.2679967657"><ele>239.51</ele><time>2026-09-02T21:06:27Z</time></trkpt><trkpt lat="59.5575151686" lon="31.2679890543"><ele>239.51</ele><time>2026-09-02T21:06:28Z</time></trkpt><trkpt lat="59.5575255621" lon="31.2679837737"><ele>239.51</ele><time>2026-09-02T21:06:29Z</time></trkpt><trkpt lat="59.5575351175" lon="31.2679785769"><ele>239.51</ele><time>2026-09-02T21:06:30Z</time></trkpt><trkpt lat="59.5575468522" lon="31.2679716200"><ele>239.51</ele><time>2026-09-02T21:06:31Z</time></trkpt><trkpt lat="59.5575568266" lon="31.2679657526"><ele>239.51</ele><time>2026-09-02T21:06:32Z</time></trkpt><trkpt lat="59.5575670525" lon="31.2679609749"><ele>239.51</ele><time>2026-09-02T21:06:33Z</time></trkpt><trkpt lat="59.5575728361" lon="31.2679569516"><ele>239.51</ele><time>2026-09-02T21:06:34Z</time></trkpt><trkpt lat="59.5575756859" lon="31.2679480668"><ele>239.51</ele><time>2026-09-02T21:06:35Z</time></trkpt><trkpt lat="59.5575786196" lon="31.2679278664"><ele>239.51</ele><time>2026-09-02T21:06:36Z</time></trkpt><trkpt lat="59.5575841516" lon="31.2679116894"><ele>239.51</ele><time>2026-09-02T21:06:37Z</time></trkpt><trkpt lat="59.5575885940" lon="31.2678967696"><ele>239.51</ele><time>2026-09-02T21:06:38Z</time></trkpt><trkpt lat="59.5575920306" lon="31.2678844482"><ele>239.51</ele><time>2026-09-02T21:06:39Z</time></trkpt><trkpt lat="59.5575958863" lon="31.2678734679"><ele>239.51</ele><time>2026-09-02T21:06:40Z</time></trkpt><trkpt lat="59.5575993229" lon="31.2678641640"><ele>239.51</ele><time>2026-09-02T21:06:41Z</time></trkpt><trkpt lat="59.5576023404" lon="31.2678514235"><ele>239.51</ele><time>2026-09-02T21:06:42Z</time></trkpt><trkpt lat="59.5576049387" lon="31.2678401917"><ele>239.51</ele><time>2026-09-02T21:06:43Z</time></trkpt><trkpt lat="59.5576055255" lon="31.2678284571"><ele>239.51</ele><time>2026-09-02T21:06:44Z</time></trkpt><trkpt lat="59.5576073695" lon="31.2678174768"><ele>239.51</ele><time>2026-09-02T21:06:45Z</time></trkpt><trkpt lat="59.5576074533" lon="31.2678038981"><ele>239.51</ele><time>2026-09-02T21:06:46Z</time></trkpt><trkpt lat="59.5576056931" lon="31.2677958515"><ele>239.51</ele><time>2026-09-02T21:06:47Z</time></trkpt><trkpt lat="59.5576059446" lon="31.2677942589"><ele>239.51</ele><time>2026-09-02T21:06:48Z</time></trkpt><trkpt lat="59.5576028433" lon="31.2678023893"><ele>239.51</ele><time>2026-09-02T21:06:49Z</time></trkpt><trkpt lat="59.5575993229" lon="31.2677969411"><ele>239.51</ele><time>2026-09-02T21:06:50Z</time></trkpt><trkpt lat="59.5576023404" lon="31.2677943427"><ele>239.02</ele><time>2026-09-02T21:06:51Z</time></trkpt><trkpt lat="59.5575984847" lon="31.2677888945"><ele>239.02</ele><time>2026-09-02T21:06:52Z</time></trkpt><trkpt lat="59.5575981494" lon="31.2677832786"><ele>239.02</ele><time>2026-09-02T21:06:53Z</time></trkpt><trkpt lat="59.5575985685" lon="31.2677863799"><ele>239.02</ele><time>2026-09-02T21:06:54Z</time></trkpt><trkpt lat="59.5575993229" lon="31.2677822728"><ele>239.02</ele><time>2026-09-02T21:06:55Z</time></trkpt><trkpt lat="59.5576011669" lon="31.2677785847"><ele>239.02</ele><time>2026-09-02T21:06:56Z</time></trkpt><trkpt lat="59.5576021727" lon="31.2677739747"><ele>239.02</ele><time>2026-09-02T21:06:57Z</time></trkpt><trkpt lat="59.5576040167" lon="31.2677677721"><ele>239.02</ele><time>2026-09-02T21:06:58Z</time></trkpt><trkpt lat="59.5576037653" lon="31.2677692808"><ele>239.02</ele><time>2026-09-02T21:06:59Z</time></trkpt><trkpt lat="59.5576022565" lon="31.2677696999"><ele>239.02</ele><time>2026-09-02T21:07:00Z</time></trkpt><trkpt lat="59.5576005802" lon="31.2677680235"><ele>239.02</ele><time>2026-09-02T21:07:01Z</time></trkpt><trkpt lat="59.5576021727" lon="31.2677684426"><ele>239.02</ele><time>2026-09-02T21:07:02Z</time></trkpt><trkpt lat="59.5576007478" lon="31.2677672692"><ele>239.02</ele><time>2026-09-02T21:07:03Z</time></trkpt><trkpt lat="59.5575995743" lon="31.2677671853"><ele>239.02</ele><time>2026-09-02T21:07:04Z</time></trkpt><trkpt lat="59.5575982332" lon="31.2677672692"><ele>239.02</ele><time>2026-09-02T21:07:05Z</time></trkpt><trkpt lat="59.5575986523" lon="31.2677706219"><ele>239.02</ele><time>2026-09-02T21:07:06Z</time></trkpt><trkpt lat="59.5575987361" lon="31.2677699514"><ele>239.02</ele><time>2026-09-02T21:07:07Z</time></trkpt><trkpt lat="59.5576002449" lon="31.2677673530"><ele>239.02</ele><time>2026-09-02T21:07:08Z</time></trkpt><trkpt lat="59.5576006640" lon="31.2677653413"><ele>238.54</ele><time>2026-09-02T21:07:09Z</time></trkpt><trkpt lat="59.5576005802" lon="31.2677667663"><ele>238.54</ele><time>2026-09-02T21:07:10Z</time></trkpt><trkpt lat="59.5576015860" lon="31.2677640840"><ele>238.54</ele><time>2026-09-02T21:07:11Z</time></trkpt><trkpt lat="59.5576033462" lon="31.2677577976"><ele>238.54</ele><time>2026-09-02T21:07:12Z</time></trkpt><trkpt lat="59.5576050226" lon="31.2677503377"><ele>238.54</ele><time>2026-09-02T21:07:13Z</time></trkpt><trkpt lat="59.5576069504" lon="31.2677429616"><ele>238.54</ele><time>2026-09-02T21:07:14Z</time></trkpt><trkpt lat="59.5576079562" lon="31.2677349988"><ele>238.54</ele><time>2026-09-02T21:07:15Z</time></trkpt><trkpt lat="59.5576080400" lon="31.2677297182"><ele>238.06</ele><time>2026-09-02T21:07:16Z</time></trkpt><trkpt lat="59.5576079562" lon="31.2677217554"><ele>238.06</ele><time>2026-09-02T21:07:17Z</time></trkpt><trkpt lat="59.5576089621" lon="31.2677132897"><ele>238.06</ele><time>2026-09-02T21:07:18Z</time></trkpt><trkpt lat="59.5576081239" lon="31.2677063327"><ele>238.06</ele><time>2026-09-02T21:07:19Z</time></trkpt><trkpt lat="59.5576063637" lon="31.2676971965"><ele>238.06</ele><time>2026-09-02T21:07:20Z</time></trkpt><trkpt lat="59.5576026756" lon="31.2676889822"><ele>238.06</ele><time>2026-09-02T21:07:21Z</time></trkpt><trkpt lat="59.5575957187" lon="31.2676690333"><ele>238.06</ele><time>2026-09-02T21:07:22Z</time></trkpt><trkpt lat="59.5575908571" lon="31.2676554546"><ele>238.06</ele><time>2026-09-02T21:07:23Z</time></trkpt><trkpt lat="59.5575866662" lon="31.2676452287"><ele>238.06</ele><time>2026-09-02T21:07:24Z</time></trkpt><trkpt lat="59.5575819723" lon="31.2676313985"><ele>237.58</ele><time>2026-09-02T21:07:25Z</time></trkpt><trkpt lat="59.5575691480" lon="31.2676086836"><ele>238.06</ele><time>2026-09-02T21:07:26Z</time></trkpt><trkpt lat="59.5575611852" lon="31.2675887346"><ele>238.06</ele><time>2026-09-02T21:07:27Z</time></trkpt><trkpt lat="59.5575570781" lon="31.2675730605"><ele>238.06</ele><time>2026-09-02T21:07:28Z</time></trkpt><trkpt lat="59.5575513784" lon="31.2675609905"><ele>238.06</ele><time>2026-09-02T21:07:29Z</time></trkpt><trkpt lat="59.5575533900" lon="31.2675475795"><ele>238.06</ele><time>2026-09-02T21:07:30Z</time></trkpt><trkpt lat="59.5575561561" lon="31.2675384432"><ele>238.06</ele><time>2026-09-02T21:07:31Z</time></trkpt><trkpt lat="59.5575607661" lon="31.2675290555"><ele>237.58</ele><time>2026-09-02T21:07:32Z</time></trkpt><trkpt lat="59.5575630292" lon="31.2675266247"><ele>237.58</ele><time>2026-09-02T21:07:33Z</time></trkpt><trkpt lat="59.5575680584" lon="31.2675229367"><ele>237.58</ele><time>2026-09-02T21:07:34Z</time></trkpt><trkpt lat="59.5575740933" lon="31.2675174884"><ele>237.58</ele><time>2026-09-02T21:07:35Z</time></trkpt><trkpt lat="59.5575706568" lon="31.2675199192"><ele>237.58</ele><time>2026-09-02T21:07:36Z</time></trkpt><trkpt lat="59.5575747639" lon="31.2675149739"><ele>237.58</ele><time>2026-09-02T21:07:37Z</time></trkpt><trkpt lat="59.5575756859" lon="31.2675154768"><ele>237.58</ele><time>2026-09-02T21:07:38Z</time></trkpt><trkpt lat="59.5575777814" lon="31.2675186619"><ele>237.58</ele><time>2026-09-02T21:07:39Z</time></trkpt><trkpt lat="59.5575810503" lon="31.2675187457"><ele>237.58</ele><time>2026-09-02T21:07:40Z</time></trkpt><trkpt lat="59.5575823914" lon="31.2675190810"><ele>237.58</ele><time>2026-09-02T21:07:41Z</time></trkpt><trkpt lat="59.5575850736" lon="31.2675170694"><ele>237.58</ele><time>2026-09-02T21:07:42Z</time></trkpt><trkpt lat="59.5575884264" lon="31.2675130460"><ele>237.58</ele><time>2026-09-02T21:07:43Z</time></trkpt><trkpt lat="59.5575924497" lon="31.2675069273"><ele>237.58</ele><time>2026-09-02T21:07:44Z</time></trkpt><trkpt lat="59.5575913601" lon="31.2675098609"><ele>237.58</ele><time>2026-09-02T21:07:45Z</time></trkpt><trkpt lat="59.5575951319" lon="31.2675053347"><ele>237.58</ele><time>2026-09-02T21:07:46Z</time></trkpt><trkpt lat="59.5576022565" lon="31.2675070949"><ele>237.58</ele><time>2026-09-02T21:07:47Z</time></trkpt><trkpt lat="59.5576065313" lon="31.2675124593"><ele>237.58</ele><time>2026-09-02T21:07:48Z</time></trkpt><trkpt lat="59.5576107223" lon="31.2675183266"><ele>237.58</ele><time>2026-09-02T21:07:49Z</time></trkpt><trkpt lat="59.5576143265" lon="31.2675246969"><ele>237.58</ele><time>2026-09-02T21:07:50Z</time></trkpt><trkpt lat="59.5576201938" lon="31.2675314862"><ele>237.10</ele><time>2026-09-02T21:07:51Z</time></trkpt><trkpt lat="59.5576269832" lon="31.2675300613"><ele>237.10</ele><time>2026-09-02T21:07:52Z</time></trkpt><trkpt lat="59.5576372929" lon="31.2675321568"><ele>237.10</ele><time>2026-09-02T21:07:53Z</time></trkpt><trkpt lat="59.5576459263" lon="31.2675340846"><ele>237.10</ele><time>2026-09-02T21:07:54Z</time></trkpt><trkpt lat="59.5576549787" lon="31.2675382756"><ele>237.10</ele><time>2026-09-02T21:07:55Z</time></trkpt><trkpt lat="59.5576628577" lon="31.2675339170"><ele>237.58</ele><time>2026-09-02T21:07:56Z</time></trkpt><trkpt lat="59.5576740894" lon="31.2675316539"><ele>237.58</ele><time>2026-09-02T21:07:57Z</time></trkpt><trkpt lat="59.5576858241" lon="31.2675304804"><ele>237.58</ele><time>2026-09-02T21:07:58Z</time></trkpt><trkpt lat="59.5576954633" lon="31.2675348390"><ele>237.58</ele><time>2026-09-02T21:07:59Z</time></trkpt><trkpt lat="59.5577079523" lon="31.2675414607"><ele>237.58</ele><time>2026-09-02T21:08:00Z</time></trkpt><trkpt lat="59.5577196870" lon="31.2675484177"><ele>237.58</ele><time>2026-09-02T21:08:01Z</time></trkpt><trkpt lat="59.5577269793" lon="31.2675524410"><ele>237.58</ele><time>2026-09-02T21:08:02Z</time></trkpt><trkpt lat="59.5577365346" lon="31.2675512675"><ele>237.58</ele><time>2026-09-02T21:08:03Z</time></trkpt><trkpt lat="59.5577457547" lon="31.2675462384"><ele>237.58</ele><time>2026-09-02T21:08:04Z</time></trkpt><trkpt lat="59.5577565674" lon="31.2675416283"><ele>237.58</ele><time>2026-09-02T21:08:05Z</time></trkpt><trkpt lat="59.5577652846" lon="31.2675368506"><ele>237.58</ele><time>2026-09-02T21:08:06Z</time></trkpt><trkpt lat="59.5577694755" lon="31.2675334979"><ele>237.10</ele><time>2026-09-02T21:08:07Z</time></trkpt><trkpt lat="59.5577741694" lon="31.2675352581"><ele>237.10</ele><time>2026-09-02T21:08:08Z</time></trkpt><trkpt lat="59.5577805396" lon="31.2675408740"><ele>237.10</ele><time>2026-09-02T21:08:09Z</time></trkpt><trkpt lat="59.5577869937" lon="31.2675429694"><ele>237.10</ele><time>2026-09-02T21:08:10Z</time></trkpt><trkpt lat="59.5577947889" lon="31.2675413769"><ele>237.10</ele><time>2026-09-02T21:08:11Z</time></trkpt><trkpt lat="59.5578009915" lon="31.2675338332"><ele>237.10</ele><time>2026-09-02T21:08:12Z</time></trkpt><trkpt lat="59.5578036737" lon="31.2675299775"><ele>237.10</ele><time>2026-09-02T21:08:13Z</time></trkpt><trkpt lat="59.5578065235" lon="31.2675237749"><ele>237.10</ele><time>2026-09-02T21:08:14Z</time></trkpt><trkpt lat="59.5578086190" lon="31.2675172370"><ele>237.10</ele><time>2026-09-02T21:08:15Z</time></trkpt><trkpt lat="59.5578059368" lon="31.2675111182"><ele>236.62</ele><time>2026-09-02T21:08:16Z</time></trkpt><trkpt lat="59.5578094572" lon="31.2675153930"><ele>236.62</ele><time>2026-09-02T21:08:17Z</time></trkpt><trkpt lat="59.5578068588" lon="31.2675109506"><ele>236.62</ele><time>2026-09-02T21:08:18Z</time></trkpt><trkpt lat="59.5578061882" lon="31.2675090227"><ele>236.62</ele><time>2026-09-02T21:08:19Z</time></trkpt><trkpt lat="59.5578059368" lon="31.2675075978"><ele>236.62</ele><time>2026-09-02T21:08:20Z</time></trkpt><trkpt lat="59.5578065235" lon="31.2675064243"><ele>236.62</ele><time>2026-09-02T21:08:21Z</time></trkpt><trkpt lat="59.5578065235" lon="31.2675048318"><ele>236.62</ele><time>2026-09-02T21:08:22Z</time></trkpt><trkpt lat="59.5578061882" lon="31.2675028201"><ele>236.62</ele><time>2026-09-02T21:08:23Z</time></trkpt><trkpt lat="59.5578052662" lon="31.2675037421"><ele>236.62</ele><time>2026-09-02T21:08:24Z</time></trkpt><trkpt lat="59.5578054339" lon="31.2675041612"><ele>236.62</ele><time>2026-09-02T21:08:25Z</time></trkpt><trkpt lat="59.5578050986" lon="31.2675034907"><ele>236.62</ele><time>2026-09-02T21:08:26Z</time></trkpt><trkpt lat="59.5578046795" lon="31.2675032392"><ele>236.62</ele><time>2026-09-02T21:08:27Z</time></trkpt><trkpt lat="59.5578046795" lon="31.2675029878"><ele>236.62</ele><time>2026-09-02T21:08:28Z</time></trkpt><trkpt lat="59.5578044280" lon="31.2675029878"><ele>236.62</ele><time>2026-09-02T21:08:29Z</time></trkpt><trkpt lat="59.5578045957" lon="31.2675028201"><ele>236.62</ele><time>2026-09-02T21:08:30Z</time></trkpt><trkpt lat="59.5578046795" lon="31.2675025687"><ele>236.62</ele><time>2026-09-02T21:08:31Z</time></trkpt><trkpt lat="59.5578046795" lon="31.2675017305"><ele>236.62</ele><time>2026-09-02T21:08:32Z</time></trkpt><trkpt lat="59.5578041766" lon="31.2675005570"><ele>236.62</ele><time>2026-09-02T21:08:33Z</time></trkpt><trkpt lat="59.5578040928" lon="31.2674999703"><ele>236.62</ele><time>2026-09-02T21:08:34Z</time></trkpt><trkpt lat="59.5578043442" lon="31.2674990483"><ele>236.62</ele><time>2026-09-02T21:08:35Z</time></trkpt><trkpt lat="59.5578039251" lon="31.2674992997"><ele>236.62</ele><time>2026-09-02T21:08:36Z</time></trkpt><trkpt lat="59.5578048471" lon="31.2674966175"><ele>236.62</ele><time>2026-09-02T21:08:37Z</time></trkpt><trkpt lat="59.5578053501" lon="31.2674892414"><ele>236.62</ele><time>2026-09-02T21:08:38Z</time></trkpt><trkpt lat="59.5578088704" lon="31.2674779259"><ele>236.62</ele><time>2026-09-02T21:08:39Z</time></trkpt><trkpt lat="59.5578104630" lon="31.2674687896"><ele>236.62</ele><time>2026-09-02T21:08:40Z</time></trkpt><trkpt lat="59.5578118879" lon="31.2674586475"><ele>236.62</ele><time>2026-09-02T21:08:41Z</time></trkpt><trkpt lat="59.5578141510" lon="31.2674467452"><ele>236.62</ele><time>2026-09-02T21:08:42Z</time></trkpt><trkpt lat="59.5578174200" lon="31.2674338371"><ele>236.62</ele><time>2026-09-02T21:08:43Z</time></trkpt><trkpt lat="59.5578194316" lon="31.2674200907"><ele>236.62</ele><time>2026-09-02T21:08:44Z</time></trkpt><trkpt lat="59.5578233711" lon="31.2674057577"><ele>236.14</ele><time>2026-09-02T21:08:45Z</time></trkpt><trkpt lat="59.5578283165" lon="31.2673898321"><ele>236.14</ele><time>2026-09-02T21:08:46Z</time></trkpt><trkpt lat="59.5578332618" lon="31.2673737388"><ele>236.14</ele><time>2026-09-02T21:08:47Z</time></trkpt><trkpt lat="59.5578353573" lon="31.2673578970"><ele>236.14</ele><time>2026-09-02T21:08:48Z</time></trkpt><trkpt lat="59.5578404702" lon="31.2673406303"><ele>236.14</ele><time>2026-09-02T21:08:49Z</time></trkpt><trkpt lat="59.5578450803" lon="31.2673234474"><ele>236.14</ele><time>2026-09-02T21:08:50Z</time></trkpt><trkpt lat="59.5578529593" lon="31.2673077732"><ele>236.14</ele><time>2026-09-02T21:08:51Z</time></trkpt><trkpt lat="59.5578619279" lon="31.2672927696"><ele>236.14</ele><time>2026-09-02T21:08:52Z</time></trkpt><trkpt lat="59.5578675438" lon="31.2672771793"><ele>236.14</ele><time>2026-09-02T21:08:53Z</time></trkpt><trkpt lat="59.5578705613" lon="31.2672599964"><ele>236.14</ele><time>2026-09-02T21:08:54Z</time></trkpt><trkpt lat="59.5578732435" lon="31.2672450766"><ele>236.14</ele><time>2026-09-02T21:08:55Z</time></trkpt><trkpt lat="59.5578762610" lon="31.2672298215"><ele>236.14</ele><time>2026-09-02T21:08:56Z</time></trkpt><trkpt lat="59.5578813739" lon="31.2672162428"><ele>236.14</ele><time>2026-09-02T21:08:57Z</time></trkpt><trkpt lat="59.5578865707" lon="31.2672018260"><ele>236.14</ele><time>2026-09-02T21:08:58Z</time></trkpt><trkpt lat="59.5578879956" lon="31.2671905942"><ele>236.14</ele><time>2026-09-02T21:08:59Z</time></trkpt><trkpt lat="59.5578901749" lon="31.2671786919"><ele>236.14</ele><time>2026-09-02T21:09:00Z</time></trkpt><trkpt lat="59.5578931924" lon="31.2671585754"><ele>236.14</ele><time>2026-09-02T21:09:01Z</time></trkpt><trkpt lat="59.5578923542" lon="31.2671403866"><ele>236.14</ele><time>2026-09-02T21:09:02Z</time></trkpt><trkpt lat="59.5578951202" lon="31.2671192642"><ele>236.14</ele><time>2026-09-02T21:09:03Z</time></trkpt><trkpt lat="59.5578948688" lon="31.2670981418"><ele>236.14</ele><time>2026-09-02T21:09:04Z</time></trkpt><trkpt lat="59.5578955393" lon="31.2670840602"><ele>236.14</ele><time>2026-09-02T21:09:05Z</time></trkpt><trkpt lat="59.5578978863" lon="31.2670784444"><ele>236.14</ele><time>2026-09-02T21:09:06Z</time></trkpt><trkpt lat="59.5579027478" lon="31.2670781929"><ele>236.14</ele><time>2026-09-02T21:09:07Z</time></trkpt><trkpt lat="59.5579042565" lon="31.2670776900"><ele>236.14</ele><time>2026-09-02T21:09:08Z</time></trkpt><trkpt lat="59.5579096209" lon="31.2670788635"><ele>236.14</ele><time>2026-09-02T21:09:09Z</time></trkpt><trkpt lat="59.5579165779" lon="31.2670863234"><ele>236.14</ele><time>2026-09-02T21:09:10Z</time></trkpt><trkpt lat="59.5579238702" lon="31.2670919392"><ele>236.14</ele><time>2026-09-02T21:09:11Z</time></trkpt><trkpt lat="59.5579335932" lon="31.2670889217"><ele>236.14</ele><time>2026-09-02T21:09:12Z</time></trkpt><trkpt lat="59.5579416398" lon="31.2670907658"><ele>236.14</ele><time>2026-09-02T21:09:13Z</time></trkpt><trkpt lat="59.5579479262" lon="31.2670900952"><ele>236.14</ele><time>2026-09-02T21:09:14Z</time></trkpt><trkpt lat="59.5579564758" lon="31.2670911849"><ele>236.14</ele><time>2026-09-02T21:09:15Z</time></trkpt><trkpt lat="59.5579686295" lon="31.2670884188"><ele>236.14</ele><time>2026-09-02T21:09:16Z</time></trkpt><trkpt lat="59.5579792745" lon="31.2670845632"><ele>236.14</ele><time>2026-09-02T21:09:17Z</time></trkpt><trkpt lat="59.5579871535" lon="31.2670799531"><ele>236.14</ele><time>2026-09-02T21:09:18Z</time></trkpt><trkpt lat="59.5579962898" lon="31.2670751754"><ele>236.14</ele><time>2026-09-02T21:09:19Z</time></trkpt><trkpt lat="59.5580042526" lon="31.2670712359"><ele>236.14</ele><time>2026-09-02T21:09:20Z</time></trkpt><trkpt lat="59.5580155682" lon="31.2670666259"><ele>236.14</ele><time>2026-09-02T21:09:21Z</time></trkpt><trkpt lat="59.5580276381" lon="31.2670634408"><ele>236.14</ele><time>2026-09-02T21:09:22Z</time></trkpt><trkpt lat="59.5580375288" lon="31.2670597527"><ele>236.14</ele><time>2026-09-02T21:09:23Z</time></trkpt><trkpt lat="59.5580449887" lon="31.2670529634"><ele>236.14</ele><time>2026-09-02T21:09:24Z</time></trkpt><trkpt lat="59.5580526162" lon="31.2670473475"><ele>236.14</ele><time>2026-09-02T21:09:25Z</time></trkpt><trkpt lat="59.5580619201" lon="31.2670400552"><ele>236.14</ele><time>2026-09-02T21:09:26Z</time></trkpt><trkpt lat="59.5580681227" lon="31.2670337688"><ele>236.14</ele><time>2026-09-02T21:09:27Z</time></trkpt><trkpt lat="59.5580740739" lon="31.2670283206"><ele>236.14</ele><time>2026-09-02T21:09:28Z</time></trkpt><trkpt lat="59.5580760855" lon="31.2670238782"><ele>236.14</ele><time>2026-09-02T21:09:29Z</time></trkpt><trkpt lat="59.5580816176" lon="31.2670216989"><ele>236.14</ele><time>2026-09-02T21:09:30Z</time></trkpt><trkpt lat="59.5580833778" lon="31.2670215312"><ele>236.14</ele><time>2026-09-02T21:09:31Z</time></trkpt><trkpt lat="59.5580843836" lon="31.2670221180"><ele>236.14</ele><time>2026-09-02T21:09:32Z</time></trkpt><trkpt lat="59.5580826234" lon="31.2670168374"><ele>236.14</ele><time>2026-09-02T21:09:33Z</time></trkpt><trkpt lat="59.5580860600" lon="31.2670209445"><ele>236.14</ele><time>2026-09-02T21:09:34Z</time></trkpt><trkpt lat="59.5580850542" lon="31.2670144904"><ele>236.14</ele><time>2026-09-02T21:09:35Z</time></trkpt><trkpt lat="59.5580861438" lon="31.2670066953"><ele>236.14</ele><time>2026-09-02T21:09:36Z</time></trkpt><trkpt lat="59.5580836292" lon="31.2669915240"><ele>236.14</ele><time>2026-09-02T21:09:37Z</time></trkpt><trkpt lat="59.5580830425" lon="31.2669748440"><ele>236.14</ele><time>2026-09-02T21:09:38Z</time></trkpt><trkpt lat="59.5580816176" lon="31.2669592537"><ele>236.14</ele><time>2026-09-02T21:09:39Z</time></trkpt><trkpt lat="59.5580776781" lon="31.2669391371"><ele>236.14</ele><time>2026-09-02T21:09:40Z</time></trkpt><trkpt lat="59.5580719784" lon="31.2669190206"><ele>236.14</ele><time>2026-09-02T21:09:41Z</time></trkpt><trkpt lat="59.5580683742" lon="31.2669039331"><ele>236.14</ele><time>2026-09-02T21:09:42Z</time></trkpt><trkpt lat="59.5580668654" lon="31.2668947969"><ele>236.14</ele><time>2026-09-02T21:09:43Z</time></trkpt><trkpt lat="59.5580617525" lon="31.2668844871"><ele>236.14</ele><time>2026-09-02T21:09:44Z</time></trkpt><trkpt lat="59.5580583997" lon="31.2668761890"><ele>236.14</ele><time>2026-09-02T21:09:45Z</time></trkpt><trkpt lat="59.5580562204" lon="31.2668749318"><ele>236.14</ele><time>2026-09-02T21:09:46Z</time></trkpt><trkpt lat="59.5580553822" lon="31.2668693997"><ele>236.14</ele><time>2026-09-02T21:09:47Z</time></trkpt><trkpt lat="59.5580561366" lon="31.2668741774"><ele>236.14</ele><time>2026-09-02T21:09:48Z</time></trkpt><trkpt lat="59.5580594894" lon="31.2668848224"><ele>236.14</ele><time>2026-09-02T21:09:49Z</time></trkpt><trkpt lat="59.5580610819" lon="31.2669013347"><ele>235.66</ele><time>2026-09-02T21:09:50Z</time></trkpt><trkpt lat="59.5580617525" lon="31.2669157516"><ele>235.66</ele><time>2026-09-02T21:09:51Z</time></trkpt><trkpt lat="59.5580641832" lon="31.2669324316"><ele>235.66</ele><time>2026-09-02T21:09:52Z</time></trkpt><trkpt lat="59.5580677874" lon="31.2669455912"><ele>235.66</ele><time>2026-09-02T21:09:53Z</time></trkpt><trkpt lat="59.5580710564" lon="31.2669573259"><ele>235.66</ele><time>2026-09-02T21:09:54Z</time></trkpt><trkpt lat="59.5580767561" lon="31.2669712398"><ele>236.14</ele><time>2026-09-02T21:09:55Z</time></trkpt><trkpt lat="59.5580807794" lon="31.2669824716"><ele>236.14</ele><time>2026-09-02T21:09:56Z</time></trkpt><trkpt lat="59.5580861438" lon="31.2669927813"><ele>236.14</ele><time>2026-09-02T21:09:57Z</time></trkpt><trkpt lat="59.5580897480" lon="31.2669972237"><ele>236.14</ele><time>2026-09-02T21:09:58Z</time></trkpt><trkpt lat="59.5580942743" lon="31.2670020852"><ele>236.14</ele><time>2026-09-02T21:09:59Z</time></trkpt><trkpt lat="59.5580976270" lon="31.2670023367"><ele>236.14</ele><time>2026-09-02T21:10:00Z</time></trkpt><trkpt lat="59.5581087749" lon="31.2670031749"><ele>236.14</ele><time>2026-09-02T21:10:01Z</time></trkpt><trkpt lat="59.5581126306" lon="31.2669991516"><ele>236.14</ele><time>2026-09-02T21:10:02Z</time></trkpt><trkpt lat="59.5581173245" lon="31.2669970561"><ele>236.14</ele><time>2026-09-02T21:10:03Z</time></trkpt><trkpt lat="59.5581240300" lon="31.2669944577"><ele>236.14</ele><time>2026-09-02T21:10:04Z</time></trkpt><trkpt lat="59.5581294782" lon="31.2669911887"><ele>236.14</ele><time>2026-09-02T21:10:05Z</time></trkpt><trkpt lat="59.5581371896" lon="31.2669837289"><ele>236.14</ele><time>2026-09-02T21:10:06Z</time></trkpt><trkpt lat="59.5581467450" lon="31.2669827230"><ele>236.14</ele><time>2026-09-02T21:10:07Z</time></trkpt><trkpt lat="59.5581565518" lon="31.2669770233"><ele>236.14</ele><time>2026-09-02T21:10:08Z</time></trkpt><trkpt lat="59.5581641793" lon="31.2669701502"><ele>236.14</ele><time>2026-09-02T21:10:09Z</time></trkpt><trkpt lat="59.5581714716" lon="31.2669657916"><ele>236.14</ele><time>2026-09-02T21:10:10Z</time></trkpt><trkpt lat="59.5581791829" lon="31.2669597566"><ele>236.14</ele><time>2026-09-02T21:10:11Z</time></trkpt><trkpt lat="59.5581846312" lon="31.2669498660"><ele>236.14</ele><time>2026-09-02T21:10:12Z</time></trkpt><trkpt lat="59.5581883192" lon="31.2669399753"><ele>236.14</ele><time>2026-09-02T21:10:13Z</time></trkpt><trkpt lat="59.5581915881" lon="31.2669327669"><ele>236.14</ele><time>2026-09-02T21:10:14Z</time></trkpt><trkpt lat="59.5581955276" lon="31.2669195235"><ele>236.14</ele><time>2026-09-02T21:10:15Z</time></trkpt><trkpt lat="59.5581944380" lon="31.2669022568"><ele>236.14</ele><time>2026-09-02T21:10:16Z</time></trkpt><trkpt lat="59.5581925940" lon="31.2668932881"><ele>236.14</ele><time>2026-09-02T21:10:17Z</time></trkpt><trkpt lat="59.5581912529" lon="31.2668859959"><ele>236.14</ele><time>2026-09-02T21:10:18Z</time></trkpt><trkpt lat="59.5581913367" lon="31.2668738421"><ele>236.14</ele><time>2026-09-02T21:10:19Z</time></trkpt><trkpt lat="59.5581912529" lon="31.2668683939"><ele>236.14</ele><time>2026-09-02T21:10:20Z</time></trkpt><trkpt lat="59.5581917558" lon="31.2668677233"><ele>236.14</ele><time>2026-09-02T21:10:21Z</time></trkpt><trkpt lat="59.5581907500" lon="31.2668692321"><ele>236.14</ele><time>2026-09-02T21:10:22Z</time></trkpt><trkpt lat="59.5581897441" lon="31.2668697350"><ele>236.14</ele><time>2026-09-02T21:10:23Z</time></trkpt><trkpt lat="59.5581874810" lon="31.2668702379"><ele>236.14</ele><time>2026-09-02T21:10:24Z</time></trkpt><trkpt lat="59.5581845473" lon="31.2668703217"><ele>236.14</ele><time>2026-09-02T21:10:25Z</time></trkpt><trkpt lat="59.5581829548" lon="31.2668681424"><ele>236.14</ele><time>2026-09-02T21:10:26Z</time></trkpt><trkpt lat="59.5581801888" lon="31.2668663822"><ele>236.14</ele><time>2026-09-02T21:10:27Z</time></trkpt><trkpt lat="59.5581789315" lon="31.2668609340"><ele>236.14</ele><time>2026-09-02T21:10:28Z</time></trkpt><trkpt lat="59.5581766684" lon="31.2668546475"><ele>236.14</ele><time>2026-09-02T21:10:29Z</time></trkpt><trkpt lat="59.5581766684" lon="31.2668560725"><ele>236.14</ele><time>2026-09-02T21:10:30Z</time></trkpt><trkpt lat="59.5581754949" lon="31.2668516301"><ele>236.14</ele><time>2026-09-02T21:10:31Z</time></trkpt><trkpt lat="59.5581745729" lon="31.2668426614"><ele>236.14</ele><time>2026-09-02T21:10:32Z</time></trkpt><trkpt lat="59.5581746567" lon="31.2668301724"><ele>236.14</ele><time>2026-09-02T21:10:33Z</time></trkpt><trkpt lat="59.5581747405" lon="31.2668174319"><ele>236.14</ele><time>2026-09-02T21:10:34Z</time></trkpt><trkpt lat="59.5581775904" lon="31.2668067869"><ele>236.14</ele><time>2026-09-02T21:10:35Z</time></trkpt><trkpt lat="59.5581813622" lon="31.2667967286"><ele>235.66</ele><time>2026-09-02T21:10:36Z</time></trkpt><trkpt lat="59.5581841283" lon="31.2667885982"><ele>235.66</ele><time>2026-09-02T21:10:37Z</time></trkpt><trkpt lat="59.5581866428" lon="31.2667766958"><ele>235.66</ele><time>2026-09-02T21:10:38Z</time></trkpt><trkpt lat="59.5581862237" lon="31.2667705771"><ele>235.66</ele><time>2026-09-02T21:10:39Z</time></trkpt><trkpt lat="59.5581881516" lon="31.2667607702"><ele>235.66</ele><time>2026-09-02T21:10:40Z</time></trkpt><trkpt lat="59.5581941865" lon="31.2667490356"><ele>235.66</ele><time>2026-09-02T21:10:41Z</time></trkpt><trkpt lat="59.5582005568" lon="31.2667378876"><ele>235.66</ele><time>2026-09-02T21:10:42Z</time></trkpt><trkpt lat="59.5582040772" lon="31.2667226326"><ele>235.66</ele><time>2026-09-02T21:10:43Z</time></trkpt><trkpt lat="59.5582079329" lon="31.2667078804"><ele>235.66</ele><time>2026-09-02T21:10:44Z</time></trkpt><trkpt lat="59.5582127944" lon="31.2666939665"><ele>235.66</ele><time>2026-09-02T21:10:45Z</time></trkpt><trkpt lat="59.5582180750" lon="31.2666797172"><ele>235.66</ele><time>2026-09-02T21:10:46Z</time></trkpt><trkpt lat="59.5582222659" lon="31.2666670606"><ele>235.66</ele><time>2026-09-02T21:10:47Z</time></trkpt><trkpt lat="59.5582251996" lon="31.2666567508"><ele>235.66</ele><time>2026-09-02T21:10:48Z</time></trkpt><trkpt lat="59.5582275465" lon="31.2666485365"><ele>235.66</ele><time>2026-09-02T21:10:49Z</time></trkpt><trkpt lat="59.5582316536" lon="31.2666456867"><ele>235.66</ele><time>2026-09-02T21:10:50Z</time></trkpt><trkpt lat="59.5582308993" lon="31.2666420825"><ele>235.66</ele><time>2026-09-02T21:10:51Z</time></trkpt><trkpt lat="59.5582336653" lon="31.2666399870"><ele>235.66</ele><time>2026-09-02T21:10:52Z</time></trkpt><trkpt lat="59.5582325757" lon="31.2666402385"><ele>235.66</ele><time>2026-09-02T21:10:53Z</time></trkpt><trkpt lat="59.5582347549" lon="31.2666396517"><ele>235.66</ele><time>2026-09-02T21:10:54Z</time></trkpt><trkpt lat="59.5582352579" lon="31.2666397355"><ele>235.66</ele><time>2026-09-02T21:10:55Z</time></trkpt><trkpt lat="59.5582337491" lon="31.2666398194"><ele>235.66</ele><time>2026-09-02T21:10:56Z</time></trkpt><trkpt lat="59.5582308993" lon="31.2666413281"><ele>235.66</ele><time>2026-09-02T21:10:57Z</time></trkpt><trkpt lat="59.5582288876" lon="31.2666405737"><ele>235.66</ele><time>2026-09-02T21:10:58Z</time></trkpt><trkpt lat="59.5582261216" lon="31.2666405737"><ele>235.66</ele><time>2026-09-02T21:10:59Z</time></trkpt><trkpt lat="59.5582240261" lon="31.2666419987"><ele>235.66</ele><time>2026-09-02T21:11:00Z</time></trkpt><trkpt lat="59.5582240261" lon="31.2666414957"><ele>235.66</ele><time>2026-09-02T21:11:01Z</time></trkpt><trkpt lat="59.5582224336" lon="31.2666425854"><ele>235.66</ele><time>2026-09-02T21:11:02Z</time></trkpt><trkpt lat="59.5582222659" lon="31.2666441780"><ele>235.66</ele><time>2026-09-02T21:11:03Z</time></trkpt><trkpt lat="59.5582218468" lon="31.2666436750"><ele>235.66</ele><time>2026-09-02T21:11:04Z</time></trkpt><trkpt lat="59.5582205895" lon="31.2666432559"><ele>235.66</ele><time>2026-09-02T21:11:05Z</time></trkpt><trkpt lat="59.5582180750" lon="31.2666429207"><ele>235.66</ele><time>2026-09-02T21:11:06Z</time></trkpt><trkpt lat="59.5582166500" lon="31.2666456867"><ele>235.66</ele><time>2026-09-02T21:11:07Z</time></trkpt><trkpt lat="59.5582141355" lon="31.2666479498"><ele>235.66</ele><time>2026-09-02T21:11:08Z</time></trkpt><trkpt lat="59.5582149737" lon="31.2666472793"><ele>235.66</ele><time>2026-09-02T21:11:09Z</time></trkpt><trkpt lat="59.5582132973" lon="31.2666475307"><ele>235.66</ele><time>2026-09-02T21:11:10Z</time></trkpt><trkpt lat="59.5582118724" lon="31.2666465249"><ele>235.66</ele><time>2026-09-02T21:11:11Z</time></trkpt><trkpt lat="59.5582116209" lon="31.2666451838"><ele>235.66</ele><time>2026-09-02T21:11:12Z</time></trkpt><trkpt lat="59.5582112856" lon="31.2666443456"><ele>235.66</ele><time>2026-09-02T21:11:13Z</time></trkpt><trkpt lat="59.5582105312" lon="31.2666442618"><ele>235.66</ele><time>2026-09-02T21:11:14Z</time></trkpt><trkpt lat="59.5582089387" lon="31.2666451000"><ele>235.66</ele><time>2026-09-02T21:11:15Z</time></trkpt><trkpt lat="59.5582100283" lon="31.2666435912"><ele>235.66</ele><time>2026-09-02T21:11:16Z</time></trkpt><trkpt lat="59.5582087710" lon="31.2666444294"><ele>235.66</ele><time>2026-09-02T21:11:17Z</time></trkpt><trkpt lat="59.5582078490" lon="31.2666451838"><ele>235.66</ele><time>2026-09-02T21:11:18Z</time></trkpt><trkpt lat="59.5582071785" lon="31.2666459382"><ele>235.66</ele><time>2026-09-02T21:11:19Z</time></trkpt><trkpt lat="59.5582056697" lon="31.2666472793"><ele>235.66</ele><time>2026-09-02T21:11:20Z</time></trkpt><trkpt lat="59.5582033228" lon="31.2666500453"><ele>235.66</ele><time>2026-09-02T21:11:21Z</time></trkpt><trkpt lat="59.5582020655" lon="31.2666500453"><ele>235.66</ele><time>2026-09-02T21:11:22Z</time></trkpt><trkpt lat="59.5582012273" lon="31.2666492909"><ele>235.66</ele><time>2026-09-02T21:11:23Z</time></trkpt><trkpt lat="59.5582005568" lon="31.2666502967"><ele>235.66</ele><time>2026-09-02T21:11:24Z</time></trkpt><trkpt lat="59.5582001377" lon="31.2666499615"><ele>235.66</ele><time>2026-09-02T21:11:25Z</time></trkpt><trkpt lat="59.5581997186" lon="31.2666501291"><ele>235.66</ele><time>2026-09-02T21:11:26Z</time></trkpt><trkpt lat="59.5581996348" lon="31.2666502967"><ele>235.66</ele><time>2026-09-02T21:11:27Z</time></trkpt><trkpt lat="59.5581976231" lon="31.2666523922"><ele>235.66</ele><time>2026-09-02T21:11:28Z</time></trkpt><trkpt lat="59.5581965335" lon="31.2666534819"><ele>235.66</ele><time>2026-09-02T21:11:29Z</time></trkpt><trkpt lat="59.5581959467" lon="31.2666548230"><ele>235.66</ele><time>2026-09-02T21:11:30Z</time></trkpt><trkpt lat="59.5581960306" lon="31.2666548230"><ele>235.66</ele><time>2026-09-02T21:11:31Z</time></trkpt><trkpt lat="59.5581932645" lon="31.2666566670"><ele>235.66</ele><time>2026-09-02T21:11:32Z</time></trkpt><trkpt lat="59.5581904985" lon="31.2666581757"><ele>235.66</ele><time>2026-09-02T21:11:33Z</time></trkpt><trkpt lat="59.5581883192" lon="31.2666590977"><ele>235.66</ele><time>2026-09-02T21:11:34Z</time></trkpt><trkpt lat="59.5581893250" lon="31.2666581757"><ele>235.66</ele><time>2026-09-02T21:11:35Z</time></trkpt><trkpt lat="59.5581876487" lon="31.2666587625"><ele>235.66</ele><time>2026-09-02T21:11:36Z</time></trkpt><trkpt lat="59.5581878163" lon="31.2666587625"><ele>235.66</ele><time>2026-09-02T21:11:37Z</time></trkpt><trkpt lat="59.5581878163" lon="31.2666587625"><ele>235.66</ele><time>2026-09-02T21:11:38Z</time></trkpt><trkpt lat="59.5581884868" lon="31.2666598521"><ele>235.66</ele><time>2026-09-02T21:11:39Z</time></trkpt><trkpt lat="59.5581891574" lon="31.2666596845"><ele>235.66</ele><time>2026-09-02T21:11:40Z</time></trkpt><trkpt lat="59.5581894927" lon="31.2666599359"><ele>235.66</ele><time>2026-09-02T21:11:41Z</time></trkpt><trkpt lat="59.5581901632" lon="31.2666589301"><ele>235.66</ele><time>2026-09-02T21:11:42Z</time></trkpt><trkpt lat="59.5581897441" lon="31.2666598521"><ele>235.66</ele><time>2026-09-02T21:11:43Z</time></trkpt><trkpt lat="59.5581905823" lon="31.2666592654"><ele>235.66</ele><time>2026-09-02T21:11:44Z</time></trkpt><trkpt lat="59.5581899956" lon="31.2666602712"><ele>235.66</ele><time>2026-09-02T21:11:45Z</time></trkpt><trkpt lat="59.5581904985" lon="31.2666593492"><ele>235.66</ele><time>2026-09-02T21:11:46Z</time></trkpt><trkpt lat="59.5581901632" lon="31.2666585948"><ele>235.66</ele><time>2026-09-02T21:11:47Z</time></trkpt><trkpt lat="59.5581901632" lon="31.2666588463"><ele>235.66</ele><time>2026-09-02T21:11:48Z</time></trkpt><trkpt lat="59.5581896603" lon="31.2666591816"><ele>235.66</ele><time>2026-09-02T21:11:49Z</time></trkpt><trkpt lat="59.5581905823" lon="31.2666599359"><ele>235.66</ele><time>2026-09-02T21:11:50Z</time></trkpt><trkpt lat="59.5581906661" lon="31.2666604389"><ele>235.66</ele><time>2026-09-02T21:11:51Z</time></trkpt><trkpt lat="59.5581929293" lon="31.2666573375"><ele>235.66</ele><time>2026-09-02T21:11:52Z</time></trkpt><trkpt lat="59.5581908338" lon="31.2666607741"><ele>235.66</ele><time>2026-09-02T21:11:53Z</time></trkpt><trkpt lat="59.5581926778" lon="31.2666589301"><ele>235.66</ele><time>2026-09-02T21:11:54Z</time></trkpt><trkpt lat="59.5581962820" lon="31.2666562479"><ele>235.66</ele><time>2026-09-02T21:11:55Z</time></trkpt><trkpt lat="59.5581998862" lon="31.2666504644"><ele>235.66</ele><time>2026-09-02T21:11:56Z</time></trkpt><trkpt lat="59.5582041610" lon="31.2666442618"><ele>235.66</ele><time>2026-09-02T21:11:57Z</time></trkpt><trkpt lat="59.5582068432" lon="31.2666409928"><ele>235.66</ele><time>2026-09-02T21:11:58Z</time></trkpt><trkpt lat="59.5582098607" lon="31.2666364666"><ele>235.66</ele><time>2026-09-02T21:11:59Z</time></trkpt><trkpt lat="59.5582140516" lon="31.2666366342"><ele>235.66</ele><time>2026-09-02T21:12:00Z</time></trkpt><trkpt lat="59.5582159795" lon="31.2666396517"><ele>235.66</ele><time>2026-09-02T21:12:01Z</time></trkpt><trkpt lat="59.5582116209" lon="31.2666401546"><ele>235.66</ele><time>2026-09-02T21:12:02Z</time></trkpt><trkpt lat="59.5582134649" lon="31.2666464411"><ele>235.66</ele><time>2026-09-02T21:12:03Z</time></trkpt><trkpt lat="59.5582161471" lon="31.2666519731"><ele>235.66</ele><time>2026-09-02T21:12:04Z</time></trkpt><trkpt lat="59.5582222659" lon="31.2666640431"><ele>235.66</ele><time>2026-09-02T21:12:05Z</time></trkpt><trkpt lat="59.5582181588" lon="31.2666588463"><ele>235.66</ele><time>2026-09-02T21:12:06Z</time></trkpt><trkpt lat="59.5582240261" lon="31.2666631211"><ele>235.66</ele><time>2026-09-02T21:12:07Z</time></trkpt><trkpt lat="59.5582300611" lon="31.2666674796"><ele>235.66</ele><time>2026-09-02T21:12:08Z</time></trkpt><trkpt lat="59.5582362637" lon="31.2666656356"><ele>235.66</ele><time>2026-09-02T21:12:09Z</time></trkpt><trkpt lat="59.5582414605" lon="31.2666521408"><ele>235.66</ele><time>2026-09-02T21:12:10Z</time></trkpt><trkpt lat="59.5582485851" lon="31.2666448485"><ele>235.66</ele><time>2026-09-02T21:12:11Z</time></trkpt><trkpt lat="59.5582561288" lon="31.2666349579"><ele>235.66</ele><time>2026-09-02T21:12:12Z</time></trkpt><trkpt lat="59.5582657680" lon="31.2666273303"><ele>235.66</ele><time>2026-09-02T21:12:13Z</time></trkpt><trkpt lat="59.5582743175" lon="31.2666195352"><ele>235.66</ele><time>2026-09-02T21:12:14Z</time></trkpt><trkpt lat="59.5582813583" lon="31.2666134164"><ele>235.66</ele><time>2026-09-02T21:12:15Z</time></trkpt><trkpt lat="59.5582867227" lon="31.2666059565"><ele>235.66</ele><time>2026-09-02T21:12:16Z</time></trkpt><trkpt lat="59.5582943503" lon="31.2665961497"><ele>235.66</ele><time>2026-09-02T21:12:17Z</time></trkpt><trkpt lat="59.5583021455" lon="31.2665826548"><ele>235.66</ele><time>2026-09-02T21:12:18Z</time></trkpt><trkpt lat="59.5583103597" lon="31.2665710878"><ele>235.66</ele><time>2026-09-02T21:12:19Z</time></trkpt><trkpt lat="59.5583176520" lon="31.2665608618"><ele>235.66</ele><time>2026-09-02T21:12:20Z</time></trkpt><trkpt lat="59.5583254471" lon="31.2665444333"><ele>235.66</ele><time>2026-09-02T21:12:21Z</time></trkpt><trkpt lat="59.5583314821" lon="31.2665342912"><ele>235.66</ele><time>2026-09-02T21:12:22Z</time></trkpt><trkpt lat="59.5583364274" lon="31.2665261608"><ele>235.66</ele><time>2026-09-02T21:12:23Z</time></trkpt><trkpt lat="59.5583428815" lon="31.2665220536"><ele>235.66</ele><time>2026-09-02T21:12:24Z</time></trkpt><trkpt lat="59.5583480783" lon="31.2665152643"><ele>235.66</ele><time>2026-09-02T21:12:25Z</time></trkpt><trkpt lat="59.5583543647" lon="31.2665074691"><ele>235.66</ele><time>2026-09-02T21:12:26Z</time></trkpt><trkpt lat="59.5583649259" lon="31.2664988358"><ele>235.66</ele><time>2026-09-02T21:12:27Z</time></trkpt><trkpt lat="59.5583746489" lon="31.2664853409"><ele>235.66</ele><time>2026-09-02T21:12:28Z</time></trkpt><trkpt lat="59.5583818574" lon="31.2664694991"><ele>235.66</ele><time>2026-09-02T21:12:29Z</time></trkpt><trkpt lat="59.5583918318" lon="31.2664535735"><ele>235.66</ele><time>2026-09-02T21:12:30Z</time></trkpt><trkpt lat="59.5584005490" lon="31.2664437667"><ele>235.66</ele><time>2026-09-02T21:12:31Z</time></trkpt><trkpt lat="59.5584083442" lon="31.2664314453"><ele>235.66</ele><time>2026-09-02T21:12:32Z</time></trkpt><trkpt lat="59.5584151335" lon="31.2664173637"><ele>235.66</ele><time>2026-09-02T21:12:33Z</time></trkpt><trkpt lat="59.5584208332" lon="31.2664109934"><ele>235.66</ele><time>2026-09-02T21:12:34Z</time></trkpt><trkpt lat="59.5584279578" lon="31.2664019410"><ele>235.66</ele><time>2026-09-02T21:12:35Z</time></trkpt><trkpt lat="59.5584341604" lon="31.2663853448"><ele>235.66</ele><time>2026-09-02T21:12:36Z</time></trkpt><trkpt lat="59.5584421232" lon="31.2663747836"><ele>235.66</ele><time>2026-09-02T21:12:37Z</time></trkpt><trkpt lat="59.5584453922" lon="31.2663636357"><ele>235.66</ele><time>2026-09-02T21:12:38Z</time></trkpt><trkpt lat="59.5584530197" lon="31.2663546670"><ele>235.66</ele><time>2026-09-02T21:12:39Z</time></trkpt><trkpt lat="59.5584601443" lon="31.2663463689"><ele>235.66</ele><time>2026-09-02T21:12:40Z</time></trkpt><trkpt lat="59.5584667660" lon="31.2663375679"><ele>235.66</ele><time>2026-09-02T21:12:41Z</time></trkpt><trkpt lat="59.5584739745" lon="31.2663299404"><ele>235.66</ele><time>2026-09-02T21:12:42Z</time></trkpt><trkpt lat="59.5584806800" lon="31.2663182896"><ele>235.66</ele><time>2026-09-02T21:12:43Z</time></trkpt><trkpt lat="59.5584886428" lon="31.2663003523"><ele>235.18</ele><time>2026-09-02T21:12:44Z</time></trkpt><trkpt lat="59.5584942587" lon="31.2662841752"><ele>235.18</ele><time>2026-09-02T21:12:45Z</time></trkpt><trkpt lat="59.5584970247" lon="31.2662719376"><ele>235.66</ele><time>2026-09-02T21:12:46Z</time></trkpt><trkpt lat="59.5585000422" lon="31.2662645616"><ele>235.66</ele><time>2026-09-02T21:12:47Z</time></trkpt><trkpt lat="59.5585046522" lon="31.2662548386"><ele>235.18</ele><time>2026-09-02T21:12:48Z</time></trkpt><trkpt lat="59.5585041493" lon="31.2662454508"><ele>235.18</ele><time>2026-09-02T21:12:49Z</time></trkpt><trkpt lat="59.5585021377" lon="31.2662310340"><ele>235.18</ele><time>2026-09-02T21:12:50Z</time></trkpt><trkpt lat="59.5585001260" lon="31.2662180420"><ele>235.18</ele><time>2026-09-02T21:12:51Z</time></trkpt><trkpt lat="59.5585016347" lon="31.2662040442"><ele>235.18</ele><time>2026-09-02T21:12:52Z</time></trkpt><trkpt lat="59.5585042331" lon="31.2661871966"><ele>235.18</ele><time>2026-09-02T21:12:53Z</time></trkpt><trkpt lat="59.5585074183" lon="31.2661699299"><ele>235.18</ele><time>2026-09-02T21:12:54Z</time></trkpt><trkpt lat="59.5585092623" lon="31.2661511544"><ele>235.18</ele><time>2026-09-02T21:12:55Z</time></trkpt><trkpt lat="59.5585124474" lon="31.2661347259"><ele>235.18</ele><time>2026-09-02T21:12:56Z</time></trkpt><trkpt lat="59.5585144591" lon="31.2661205605"><ele>235.18</ele><time>2026-09-02T21:12:57Z</time></trkpt><trkpt lat="59.5585174765" lon="31.2661100831"><ele>235.18</ele><time>2026-09-02T21:12:58Z</time></trkpt><trkpt lat="59.5585213322" lon="31.2661026232"><ele>235.18</ele><time>2026-09-02T21:12:59Z</time></trkpt><trkpt lat="59.5585276186" lon="31.2660935707"><ele>235.18</ele><time>2026-09-02T21:13:00Z</time></trkpt><trkpt lat="59.5585327316" lon="31.2660847697"><ele>235.18</ele><time>2026-09-02T21:13:01Z</time></trkpt><trkpt lat="59.5585386828" lon="31.2660752982"><ele>235.18</ele><time>2026-09-02T21:13:02Z</time></trkpt><trkpt lat="59.5585471485" lon="31.2660678383"><ele>235.66</ele><time>2026-09-02T21:13:03Z</time></trkpt><trkpt lat="59.5585543569" lon="31.2660604622"><ele>235.66</ele><time>2026-09-02T21:13:04Z</time></trkpt><trkpt lat="59.5585663430" lon="31.2660602946"><ele>235.66</ele><time>2026-09-02T21:13:05Z</time></trkpt><trkpt lat="59.5585751440" lon="31.2660596240"><ele>235.66</ele><time>2026-09-02T21:13:06Z</time></trkpt><trkpt lat="59.5585833583" lon="31.2660567742"><ele>235.66</ele><time>2026-09-02T21:13:07Z</time></trkpt><trkpt lat="59.5585912373" lon="31.2660535891"><ele>235.66</ele><time>2026-09-02T21:13:08Z</time></trkpt><trkpt lat="59.5586023852" lon="31.2660590373"><ele>235.66</ele><time>2026-09-02T21:13:09Z</time></trkpt><trkpt lat="59.5586109348" lon="31.2660575286"><ele>235.66</ele><time>2026-09-02T21:13:10Z</time></trkpt><trkpt lat="59.5586201549" lon="31.2660545949"><ele>235.66</ele><time>2026-09-02T21:13:11Z</time></trkpt><trkpt lat="59.5586286206" lon="31.2660519965"><ele>235.66</ele><time>2026-09-02T21:13:12Z</time></trkpt><trkpt lat="59.5586356614" lon="31.2660482246"><ele>235.66</ele><time>2026-09-02T21:13:13Z</time></trkpt><trkpt lat="59.5586396847" lon="31.2660379987"><ele>235.66</ele><time>2026-09-02T21:13:14Z</time></trkpt><trkpt lat="59.5586443786" lon="31.2660282757"><ele>235.66</ele><time>2026-09-02T21:13:15Z</time></trkpt><trkpt lat="59.5586512517" lon="31.2660160381"><ele>235.66</ele><time>2026-09-02T21:13:16Z</time></trkpt><trkpt lat="59.5586557779" lon="31.2660088297"><ele>235.66</ele><time>2026-09-02T21:13:17Z</time></trkpt><trkpt lat="59.5586604718" lon="31.2660024595"><ele>235.66</ele><time>2026-09-02T21:13:18Z</time></trkpt><trkpt lat="59.5586650819" lon="31.2659988552"><ele>235.18</ele><time>2026-09-02T21:13:19Z</time></trkpt><trkpt lat="59.5586731285" lon="31.2659915630"><ele>235.18</ele><time>2026-09-02T21:13:20Z</time></trkpt><trkpt lat="59.5586794987" lon="31.2659847736"><ele>235.18</ele><time>2026-09-02T21:13:21Z</time></trkpt><trkpt lat="59.5586856175" lon="31.2659798283"><ele>235.18</ele><time>2026-09-02T21:13:22Z</time></trkpt><trkpt lat="59.5586908981" lon="31.2659705244"><ele>235.18</ele><time>2026-09-02T21:13:23Z</time></trkpt><trkpt lat="59.5586980227" lon="31.2659612205"><ele>235.18</ele><time>2026-09-02T21:13:24Z</time></trkpt><trkpt lat="59.5587029681" lon="31.2659549341"><ele>235.18</ele><time>2026-09-02T21:13:25Z</time></trkpt><trkpt lat="59.5587027166" lon="31.2659447920"><ele>235.18</ele><time>2026-09-02T21:13:26Z</time></trkpt><trkpt lat="59.5587066561" lon="31.2659340631"><ele>235.18</ele><time>2026-09-02T21:13:27Z</time></trkpt><trkpt lat="59.5587092545" lon="31.2659220770"><ele>235.18</ele><time>2026-09-02T21:13:28Z</time></trkpt><trkpt lat="59.5587080810" lon="31.2659157906"><ele>234.70</ele><time>2026-09-02T21:13:29Z</time></trkpt><trkpt lat="59.5587027166" lon="31.2659054808"><ele>234.70</ele><time>2026-09-02T21:13:30Z</time></trkpt><trkpt lat="59.5586974360" lon="31.2659012899"><ele>234.70</ele><time>2026-09-02T21:13:31Z</time></trkpt><trkpt lat="59.5586905628" lon="31.2658923212"><ele>234.70</ele><time>2026-09-02T21:13:32Z</time></trkpt><trkpt lat="59.5586845279" lon="31.2658835202"><ele>234.70</ele><time>2026-09-02T21:13:33Z</time></trkpt><trkpt lat="59.5586822648" lon="31.2658762280"><ele>234.70</ele><time>2026-09-02T21:13:34Z</time></trkpt><trkpt lat="59.5586839411" lon="31.2658625655"><ele>234.70</ele><time>2026-09-02T21:13:35Z</time></trkpt><trkpt lat="59.5586845279" lon="31.2658493221"><ele>235.18</ele><time>2026-09-02T21:13:36Z</time></trkpt><trkpt lat="59.5586821809" lon="31.2658361625"><ele>235.18</ele><time>2026-09-02T21:13:37Z</time></trkpt><trkpt lat="59.5586760622" lon="31.2658225838"><ele>235.18</ele><time>2026-09-02T21:13:38Z</time></trkpt><trkpt lat="59.5586641598" lon="31.2658154592"><ele>235.18</ele><time>2026-09-02T21:13:39Z</time></trkpt><trkpt lat="59.5586596336" lon="31.2658091728"><ele>235.18</ele><time>2026-09-02T21:13:40Z</time></trkpt><trkpt lat="59.5586560294" lon="31.2658074964"><ele>235.18</ele><time>2026-09-02T21:13:41Z</time></trkpt><trkpt lat="59.5586523414" lon="31.2658061553"><ele>235.18</ele><time>2026-09-02T21:13:42Z</time></trkpt><trkpt lat="59.5586503297" lon="31.2658028863"><ele>235.18</ele><time>2026-09-02T21:13:43Z</time></trkpt><trkpt lat="59.5586483181" lon="31.2657927442"><ele>235.18</ele><time>2026-09-02T21:13:44Z</time></trkpt><trkpt lat="59.5586499944" lon="31.2658008747"><ele>235.18</ele><time>2026-09-02T21:13:45Z</time></trkpt><trkpt lat="59.5586492401" lon="31.2657925766"><ele>235.18</ele><time>2026-09-02T21:13:46Z</time></trkpt><trkpt lat="59.5586516708" lon="31.2657841947"><ele>235.18</ele><time>2026-09-02T21:13:47Z</time></trkpt><trkpt lat="59.5586526766" lon="31.2657754775"><ele>235.18</ele><time>2026-09-02T21:13:48Z</time></trkpt><trkpt lat="59.5586546883" lon="31.2657768186"><ele>235.18</ele><time>2026-09-02T21:13:49Z</time></trkpt><trkpt lat="59.5586588793" lon="31.2657741364"><ele>235.18</ele><time>2026-09-02T21:13:50Z</time></trkpt><trkpt lat="59.5586646628" lon="31.2657768186"><ele>235.18</ele><time>2026-09-02T21:13:51Z</time></trkpt><trkpt lat="59.5586669259" lon="31.2657816801"><ele>235.18</ele><time>2026-09-02T21:13:52Z</time></trkpt><trkpt lat="59.5586711168" lon="31.2657801714"><ele>235.18</ele><time>2026-09-02T21:13:53Z</time></trkpt><trkpt lat="59.5586781576" lon="31.2657852843"><ele>235.18</ele><time>2026-09-02T21:13:54Z</time></trkpt><trkpt lat="59.5586836897" lon="31.2657804228"><ele>235.18</ele><time>2026-09-02T21:13:55Z</time></trkpt><trkpt lat="59.5586908981" lon="31.2657857873"><ele>235.18</ele><time>2026-09-02T21:13:56Z</time></trkpt><trkpt lat="59.5586972684" lon="31.2657882180"><ele>234.70</ele><time>2026-09-02T21:13:57Z</time></trkpt><trkpt lat="59.5587049797" lon="31.2657910679"><ele>234.70</ele><time>2026-09-02T21:13:58Z</time></trkpt><trkpt lat="59.5587118529" lon="31.2657877989"><ele>234.70</ele><time>2026-09-02T21:13:59Z</time></trkpt><trkpt lat="59.5587201510" lon="31.2657770701"><ele>234.70</ele><time>2026-09-02T21:14:00Z</time></trkpt><trkpt lat="59.5587276947" lon="31.2657712866"><ele>234.22</ele><time>2026-09-02T21:14:01Z</time></trkpt><trkpt lat="59.5587335620" lon="31.2657643296"><ele>234.22</ele><time>2026-09-02T21:14:02Z</time></trkpt><trkpt lat="59.5587387588" lon="31.2657570373"><ele>234.22</ele><time>2026-09-02T21:14:03Z</time></trkpt><trkpt lat="59.5587440394" lon="31.2657509185"><ele>233.74</ele><time>2026-09-02T21:14:04Z</time></trkpt><trkpt lat="59.5587482303" lon="31.2657429557"><ele>233.74</ele><time>2026-09-02T21:14:05Z</time></trkpt><trkpt lat="59.5587555226" lon="31.2657342386"><ele>233.74</ele><time>2026-09-02T21:14:06Z</time></trkpt><trkpt lat="59.5587622281" lon="31.2657258566"><ele>233.74</ele><time>2026-09-02T21:14:07Z</time></trkpt><trkpt lat="59.5587614737" lon="31.2657136191"><ele>233.26</ele><time>2026-09-02T21:14:08Z</time></trkpt><trkpt lat="59.5587695204" lon="31.2657067459"><ele>233.26</ele><time>2026-09-02T21:14:09Z</time></trkpt><trkpt lat="59.5587769803" lon="31.2657003757"><ele>233.26</ele><time>2026-09-02T21:14:10Z</time></trkpt><trkpt lat="59.5587857813" lon="31.2656918261"><ele>233.26</ele><time>2026-09-02T21:14:11Z</time></trkpt><trkpt lat="59.5587929897" lon="31.2656821869"><ele>233.26</ele><time>2026-09-02T21:14:12Z</time></trkpt><trkpt lat="59.5587989409" lon="31.2656796724"><ele>233.26</ele><time>2026-09-02T21:14:13Z</time></trkpt><trkpt lat="59.5588014554" lon="31.2656769902"><ele>233.26</ele><time>2026-09-02T21:14:14Z</time></trkpt><trkpt lat="59.5588009525" lon="31.2656762358"><ele>233.26</ele><time>2026-09-02T21:14:15Z</time></trkpt><trkpt lat="59.5588004496" lon="31.2656752300"><ele>233.26</ele><time>2026-09-02T21:14:16Z</time></trkpt><trkpt lat="59.5588015392" lon="31.2656770740"><ele>233.26</ele><time>2026-09-02T21:14:17Z</time></trkpt><trkpt lat="59.5588001981" lon="31.2656746432"><ele>233.26</ele><time>2026-09-02T21:14:18Z</time></trkpt><trkpt lat="59.5587974321" lon="31.2656681892"><ele>233.26</ele><time>2026-09-02T21:14:19Z</time></trkpt><trkpt lat="59.5587960910" lon="31.2656630762"><ele>233.26</ele><time>2026-09-02T21:14:20Z</time></trkpt><trkpt lat="59.5587932412" lon="31.2656546943"><ele>233.26</ele><time>2026-09-02T21:14:21Z</time></trkpt><trkpt lat="59.5587911457" lon="31.2656448875"><ele>233.26</ele><time>2026-09-02T21:14:22Z</time></trkpt><trkpt lat="59.5587908942" lon="31.2656341586"><ele>233.26</ele><time>2026-09-02T21:14:23Z</time></trkpt><trkpt lat="59.5587898884" lon="31.2656210829"><ele>233.26</ele><time>2026-09-02T21:14:24Z</time></trkpt><trkpt lat="59.5587923191" lon="31.2656093482"><ele>233.26</ele><time>2026-09-02T21:14:25Z</time></trkpt><trkpt lat="59.5587950852" lon="31.2655938417"><ele>233.26</ele><time>2026-09-02T21:14:26Z</time></trkpt><trkpt lat="59.5587974321" lon="31.2655781675"><ele>233.26</ele><time>2026-09-02T21:14:27Z</time></trkpt><trkpt lat="59.5588000305" lon="31.2655645888"><ele>233.26</ele><time>2026-09-02T21:14:28Z</time></trkpt><trkpt lat="59.5588019583" lon="31.2655485794"><ele>233.26</ele><time>2026-09-02T21:14:29Z</time></trkpt><trkpt lat="59.5588036347" lon="31.2655390240"><ele>233.26</ele><time>2026-09-02T21:14:30Z</time></trkpt><trkpt lat="59.5588055626" lon="31.2655262835"><ele>233.26</ele><time>2026-09-02T21:14:31Z</time></trkpt><trkpt lat="59.5588054787" lon="31.2655185722"><ele>233.26</ele><time>2026-09-02T21:14:32Z</time></trkpt><trkpt lat="59.5588068198" lon="31.2655110285"><ele>233.26</ele><time>2026-09-02T21:14:33Z</time></trkpt><trkpt lat="59.5588070713" lon="31.2655019760"><ele>233.26</ele><time>2026-09-02T21:14:34Z</time></trkpt><trkpt lat="59.5588104241" lon="31.2654865533"><ele>233.26</ele><time>2026-09-02T21:14:35Z</time></trkpt><trkpt lat="59.5588122681" lon="31.2654721364"><ele>233.26</ele><time>2026-09-02T21:14:36Z</time></trkpt><trkpt lat="59.5588199794" lon="31.2654651795"><ele>233.26</ele><time>2026-09-02T21:14:37Z</time></trkpt><trkpt lat="59.5588284452" lon="31.2654591445"><ele>233.26</ele><time>2026-09-02T21:14:38Z</time></trkpt><trkpt lat="59.5588368271" lon="31.2654505949"><ele>233.26</ele><time>2026-09-02T21:14:39Z</time></trkpt><trkpt lat="59.5588425267" lon="31.2654396985"><ele>233.26</ele><time>2026-09-02T21:14:40Z</time></trkpt><trkpt lat="59.5588497352" lon="31.2654358428"><ele>233.26</ele><time>2026-09-02T21:14:41Z</time></trkpt><trkpt lat="59.5588569436" lon="31.2654285505"><ele>233.26</ele><time>2026-09-02T21:14:42Z</time></trkpt><trkpt lat="59.5588632300" lon="31.2654240243"><ele>233.26</ele><time>2026-09-02T21:14:43Z</time></trkpt><trkpt lat="59.5588711929" lon="31.2654162291"><ele>233.26</ele><time>2026-09-02T21:14:44Z</time></trkpt><trkpt lat="59.5588751324" lon="31.2654039916"><ele>233.26</ele><time>2026-09-02T21:14:45Z</time></trkpt><trkpt lat="59.5588758867" lon="31.2653908320"><ele>233.26</ele><time>2026-09-02T21:14:46Z</time></trkpt><trkpt lat="59.5588762220" lon="31.2653800193"><ele>233.26</ele><time>2026-09-02T21:14:47Z</time></trkpt><trkpt lat="59.5588830952" lon="31.2653676979"><ele>233.26</ele><time>2026-09-02T21:14:48Z</time></trkpt><trkpt lat="59.5588798262" lon="31.2653575558"><ele>233.26</ele><time>2026-09-02T21:14:49Z</time></trkpt><trkpt lat="59.5588804968" lon="31.2653507665"><ele>233.26</ele><time>2026-09-02T21:14:50Z</time></trkpt><trkpt lat="59.5588812511" lon="31.2653414626"><ele>233.26</ele><time>2026-09-02T21:14:51Z</time></trkpt><trkpt lat="59.5588826761" lon="31.2653331645"><ele>233.26</ele><time>2026-09-02T21:14:52Z</time></trkpt><trkpt lat="59.5588833466" lon="31.2653220166"><ele>233.26</ele><time>2026-09-02T21:14:53Z</time></trkpt><trkpt lat="59.5588896330" lon="31.2653082702"><ele>233.26</ele><time>2026-09-02T21:14:54Z</time></trkpt><trkpt lat="59.5588952489" lon="31.2652978767"><ele>233.26</ele><time>2026-09-02T21:14:55Z</time></trkpt><trkpt lat="59.5589024574" lon="31.2652857229"><ele>233.26</ele><time>2026-09-02T21:14:56Z</time></trkpt><trkpt lat="59.5589085761" lon="31.2652694620"><ele>233.26</ele><time>2026-09-02T21:14:57Z</time></trkpt><trkpt lat="59.5589128509" lon="31.2652598228"><ele>233.26</ele><time>2026-09-02T21:14:58Z</time></trkpt><trkpt lat="59.5589147788" lon="31.2652522791"><ele>233.26</ele><time>2026-09-02T21:14:59Z</time></trkpt><trkpt lat="59.5589189697" lon="31.2652459927"><ele>233.26</ele><time>2026-09-02T21:15:00Z</time></trkpt><trkpt lat="59.5589211490" lon="31.2652410474"><ele>233.26</ele><time>2026-09-02T21:15:01Z</time></trkpt><trkpt lat="59.5589229930" lon="31.2652343418"><ele>233.26</ele><time>2026-09-02T21:15:02Z</time></trkpt><trkpt lat="59.5589190535" lon="31.2652220204"><ele>233.26</ele><time>2026-09-02T21:15:03Z</time></trkpt><trkpt lat="59.5589175448" lon="31.2652138900"><ele>233.26</ele><time>2026-09-02T21:15:04Z</time></trkpt><trkpt lat="59.5589177962" lon="31.2652134709"><ele>233.26</ele><time>2026-09-02T21:15:05Z</time></trkpt><trkpt lat="59.5589170419" lon="31.2652110402"><ele>233.26</ele><time>2026-09-02T21:15:06Z</time></trkpt><trkpt lat="59.5589175448" lon="31.2652127165"><ele>233.26</ele><time>2026-09-02T21:15:07Z</time></trkpt><trkpt lat="59.5589150302" lon="31.2652134709"><ele>233.26</ele><time>2026-09-02T21:15:08Z</time></trkpt><trkpt lat="59.5589136891" lon="31.2652077712"><ele>233.26</ele><time>2026-09-02T21:15:09Z</time></trkpt><trkpt lat="59.5589126833" lon="31.2652020715"><ele>233.26</ele><time>2026-09-02T21:15:10Z</time></trkpt><trkpt lat="59.5589125995" lon="31.2652012333"><ele>233.26</ele><time>2026-09-02T21:15:11Z</time></trkpt><trkpt lat="59.5589086600" lon="31.2652002275"><ele>233.26</ele><time>2026-09-02T21:15:12Z</time></trkpt><trkpt lat="59.5589091629" lon="31.2651968747"><ele>233.26</ele><time>2026-09-02T21:15:13Z</time></trkpt><trkpt lat="59.5589099173" lon="31.2651895825"><ele>233.26</ele><time>2026-09-02T21:15:14Z</time></trkpt><trkpt lat="59.5589092467" lon="31.2651915941"><ele>233.26</ele><time>2026-09-02T21:15:15Z</time></trkpt><trkpt lat="59.5589110907" lon="31.2651843857"><ele>233.26</ele><time>2026-09-02T21:15:16Z</time></trkpt><trkpt lat="59.5589126833" lon="31.2651818711"><ele>233.26</ele><time>2026-09-02T21:15:17Z</time></trkpt><trkpt lat="59.5589170419" lon="31.2651765905"><ele>233.26</ele><time>2026-09-02T21:15:18Z</time></trkpt><trkpt lat="59.5589195564" lon="31.2651737407"><ele>233.26</ele><time>2026-09-02T21:15:19Z</time></trkpt><trkpt lat="59.5589191373" lon="31.2651671190"><ele>233.26</ele><time>2026-09-02T21:15:20Z</time></trkpt><trkpt lat="59.5589202270" lon="31.2651611678"><ele>233.26</ele><time>2026-09-02T21:15:21Z</time></trkpt><trkpt lat="59.5589161199" lon="31.2651496846"><ele>232.78</ele><time>2026-09-02T21:15:22Z</time></trkpt><trkpt lat="59.5589190535" lon="31.2651541270"><ele>232.78</ele><time>2026-09-02T21:15:23Z</time></trkpt><trkpt lat="59.5589166228" lon="31.2651442364"><ele>232.78</ele><time>2026-09-02T21:15:24Z</time></trkpt><trkpt lat="59.5589145273" lon="31.2651373632"><ele>232.78</ele><time>2026-09-02T21:15:25Z</time></trkpt><trkpt lat="59.5589127671" lon="31.2651263829"><ele>232.78</ele><time>2026-09-02T21:15:26Z</time></trkpt><trkpt lat="59.5589109231" lon="31.2651149835"><ele>232.78</ele><time>2026-09-02T21:15:27Z</time></trkpt><trkpt lat="59.5589142758" lon="31.2651123852"><ele>232.78</ele><time>2026-09-02T21:15:28Z</time></trkpt><trkpt lat="59.5589126833" lon="31.2651023269"><ele>232.78</ele><time>2026-09-02T21:15:29Z</time></trkpt><trkpt lat="59.5589140244" lon="31.2650946993"><ele>232.78</ele><time>2026-09-02T21:15:30Z</time></trkpt><trkpt lat="59.5589183830" lon="31.2650904246"><ele>232.78</ele><time>2026-09-02T21:15:31Z</time></trkpt><trkpt lat="59.5589228254" lon="31.2650916819"><ele>232.78</ele><time>2026-09-02T21:15:32Z</time></trkpt><trkpt lat="59.5589299500" lon="31.2650915980"><ele>232.78</ele><time>2026-09-02T21:15:33Z</time></trkpt><trkpt lat="59.5589365717" lon="31.2650961243"><ele>232.78</ele><time>2026-09-02T21:15:34Z</time></trkpt><trkpt lat="59.5589428581" lon="31.2650979683"><ele>232.78</ele><time>2026-09-02T21:15:35Z</time></trkpt><trkpt lat="59.5589492284" lon="31.2651004829"><ele>232.78</ele><time>2026-09-02T21:15:36Z</time></trkpt><trkpt lat="59.5589541737" lon="31.2651033327"><ele>232.78</ele><time>2026-09-02T21:15:37Z</time></trkpt><trkpt lat="59.5589587837" lon="31.2651083618"><ele>232.78</ele><time>2026-09-02T21:15:38Z</time></trkpt><trkpt lat="59.5589644834" lon="31.2651136424"><ele>232.78</ele><time>2026-09-02T21:15:39Z</time></trkpt><trkpt lat="59.5589706860" lon="31.2651138939"><ele>232.78</ele><time>2026-09-02T21:15:40Z</time></trkpt><trkpt lat="59.5589781459" lon="31.2651064340"><ele>232.78</ele><time>2026-09-02T21:15:41Z</time></trkpt><trkpt lat="59.5589833427" lon="31.2650998961"><ele>232.78</ele><time>2026-09-02T21:15:42Z</time></trkpt><trkpt lat="59.5589886233" lon="31.2650945317"><ele>232.78</ele><time>2026-09-02T21:15:43Z</time></trkpt><trkpt lat="59.5589946583" lon="31.2650881615"><ele>232.78</ele><time>2026-09-02T21:15:44Z</time></trkpt><trkpt lat="59.5590004418" lon="31.2650850601"><ele>232.78</ele><time>2026-09-02T21:15:45Z</time></trkpt><trkpt lat="59.5590059739" lon="31.2650832999"><ele>232.78</ele><time>2026-09-02T21:15:46Z</time></trkpt><trkpt lat="59.5590100810" lon="31.2650886644"><ele>232.78</ele><time>2026-09-02T21:15:47Z</time></trkpt><trkpt lat="59.5590145234" lon="31.2650908437"><ele>232.78</ele><time>2026-09-02T21:15:48Z</time></trkpt><trkpt lat="59.5590188820" lon="31.2650940288"><ele>232.78</ele><time>2026-09-02T21:15:49Z</time></trkpt><trkpt lat="59.5590232406" lon="31.2651016563"><ele>233.26</ele><time>2026-09-02T21:15:50Z</time></trkpt><trkpt lat="59.5590251684" lon="31.2651116308"><ele>233.26</ele><time>2026-09-02T21:15:51Z</time></trkpt><trkpt lat="59.5590266772" lon="31.2651192583"><ele>233.26</ele><time>2026-09-02T21:15:52Z</time></trkpt><trkpt lat="59.5590289403" lon="31.2651243713"><ele>233.26</ele><time>2026-09-02T21:15:53Z</time></trkpt><trkpt lat="59.5590372384" lon="31.2651306577"><ele>233.26</ele><time>2026-09-02T21:15:54Z</time></trkpt><trkpt lat="59.5590428542" lon="31.2651350163"><ele>233.26</ele><time>2026-09-02T21:15:55Z</time></trkpt><trkpt lat="59.5590493921" lon="31.2651417218"><ele>233.26</ele><time>2026-09-02T21:15:56Z</time></trkpt><trkpt lat="59.5590557624" lon="31.2651514448"><ele>233.26</ele><time>2026-09-02T21:15:57Z</time></trkpt><trkpt lat="59.5590637252" lon="31.2651570607"><ele>233.26</ele><time>2026-09-02T21:15:58Z</time></trkpt><trkpt lat="59.5590716880" lon="31.2651606649"><ele>233.26</ele><time>2026-09-02T21:15:59Z</time></trkpt><trkpt lat="59.5590802375" lon="31.2651660293"><ele>233.26</ele><time>2026-09-02T21:16:00Z</time></trkpt><trkpt lat="59.5590889547" lon="31.2651701365"><ele>233.26</ele><time>2026-09-02T21:16:01Z</time></trkpt><trkpt lat="59.5590965822" lon="31.2651727349"><ele>233.26</ele><time>2026-09-02T21:16:02Z</time></trkpt><trkpt lat="59.5591063891" lon="31.2651785184"><ele>233.26</ele><time>2026-09-02T21:16:03Z</time></trkpt><trkpt lat="59.5591149386" lon="31.2651828770"><ele>233.26</ele><time>2026-09-02T21:16:04Z</time></trkpt><trkpt lat="59.5591210574" lon="31.2651824579"><ele>233.26</ele><time>2026-09-02T21:16:05Z</time></trkpt><trkpt lat="59.5591317862" lon="31.2651816197"><ele>233.26</ele><time>2026-09-02T21:16:06Z</time></trkpt><trkpt lat="59.5591434371" lon="31.2651768420"><ele>233.26</ele><time>2026-09-02T21:16:07Z</time></trkpt><trkpt lat="59.5591501426" lon="31.2651674543"><ele>233.26</ele><time>2026-09-02T21:16:08Z</time></trkpt><trkpt lat="59.5591545850" lon="31.2651561387"><ele>233.26</ele><time>2026-09-02T21:16:09Z</time></trkpt><trkpt lat="59.5591580216" lon="31.2651472539"><ele>233.26</ele><time>2026-09-02T21:16:10Z</time></trkpt><trkpt lat="59.5591629669" lon="31.2651379500"><ele>233.26</ele><time>2026-09-02T21:16:11Z</time></trkpt><trkpt lat="59.5591692533" lon="31.2651265506"><ele>233.26</ele><time>2026-09-02T21:16:12Z</time></trkpt><trkpt lat="59.5591767970" lon="31.2651157379"><ele>233.26</ele><time>2026-09-02T21:16:13Z</time></trkpt><trkpt lat="59.5591789763" lon="31.2651118822"><ele>233.26</ele><time>2026-09-02T21:16:14Z</time></trkpt><trkpt lat="59.5591797307" lon="31.2651082780"><ele>233.26</ele><time>2026-09-02T21:16:15Z</time></trkpt><trkpt lat="59.5591823291" lon="31.2651043385"><ele>233.26</ele><time>2026-09-02T21:16:16Z</time></trkpt><trkpt lat="59.5591834188" lon="31.2651041709"><ele>233.26</ele><time>2026-09-02T21:16:17Z</time></trkpt><trkpt lat="59.5591858495" lon="31.2651062664"><ele>233.26</ele><time>2026-09-02T21:16:18Z</time></trkpt><trkpt lat="59.5591847599" lon="31.2651036680"><ele>233.26</ele><time>2026-09-02T21:16:19Z</time></trkpt><trkpt lat="59.5591861848" lon="31.2651059311"><ele>233.26</ele><time>2026-09-02T21:16:20Z</time></trkpt><trkpt lat="59.5591866877" lon="31.2651063502"><ele>233.26</ele><time>2026-09-02T21:16:21Z</time></trkpt><trkpt lat="59.5591872744" lon="31.2651071884"><ele>233.26</ele><time>2026-09-02T21:16:22Z</time></trkpt><trkpt lat="59.5591878612" lon="31.2651076913"><ele>233.26</ele><time>2026-09-02T21:16:23Z</time></trkpt><trkpt lat="59.5591880288" lon="31.2651088648"><ele>233.26</ele><time>2026-09-02T21:16:24Z</time></trkpt><trkpt lat="59.5591881964" lon="31.2651085295"><ele>233.26</ele><time>2026-09-02T21:16:25Z</time></trkpt><trkpt lat="59.5591881964" lon="31.2651086971"><ele>233.26</ele><time>2026-09-02T21:16:26Z</time></trkpt><trkpt lat="59.5591885317" lon="31.2651093677"><ele>233.26</ele><time>2026-09-02T21:16:27Z</time></trkpt><trkpt lat="59.5591881964" lon="31.2651086971"><ele>233.26</ele><time>2026-09-02T21:16:28Z</time></trkpt><trkpt lat="59.5591896214" lon="31.2651038356"><ele>233.26</ele><time>2026-09-02T21:16:29Z</time></trkpt><trkpt lat="59.5591929741" lon="31.2650976330"><ele>233.26</ele><time>2026-09-02T21:16:30Z</time></trkpt><trkpt lat="59.5591954887" lon="31.2650938611"><ele>233.74</ele><time>2026-09-02T21:16:31Z</time></trkpt><trkpt lat="59.5591984224" lon="31.2650904246"><ele>233.26</ele><time>2026-09-02T21:16:32Z</time></trkpt><trkpt lat="59.5592019428" lon="31.2650821265"><ele>233.74</ele><time>2026-09-02T21:16:33Z</time></trkpt><trkpt lat="59.5592062175" lon="31.2650713976"><ele>233.74</ele><time>2026-09-02T21:16:34Z</time></trkpt><trkpt lat="59.5592100732" lon="31.2650589924"><ele>233.74</ele><time>2026-09-02T21:16:35Z</time></trkpt><trkpt lat="59.5592164434" lon="31.2650465872"><ele>233.74</ele><time>2026-09-02T21:16:36Z</time></trkpt><trkpt lat="59.5592191257" lon="31.2650323380"><ele>233.74</ele><time>2026-09-02T21:16:37Z</time></trkpt><trkpt lat="59.5592248254" lon="31.2650248781"><ele>233.74</ele><time>2026-09-02T21:16:38Z</time></trkpt><trkpt lat="59.5592291839" lon="31.2650105450"><ele>233.74</ele><time>2026-09-02T21:16:39Z</time></trkpt><trkpt lat="59.5592316985" lon="31.2649990618"><ele>233.74</ele><time>2026-09-02T21:16:40Z</time></trkpt><trkpt lat="59.5592357218" lon="31.2649874948"><ele>233.74</ele><time>2026-09-02T21:16:41Z</time></trkpt><trkpt lat="59.5592393260" lon="31.2649721559"><ele>233.74</ele><time>2026-09-02T21:16:42Z</time></trkpt><trkpt lat="59.5592449419" lon="31.2649609242"><ele>233.74</ele><time>2026-09-02T21:16:43Z</time></trkpt><trkpt lat="59.5592515636" lon="31.2649466749"><ele>233.74</ele><time>2026-09-02T21:16:44Z</time></trkpt><trkpt lat="59.5592587721" lon="31.2649310846"><ele>233.74</ele><time>2026-09-02T21:16:45Z</time></trkpt><trkpt lat="59.5592658967" lon="31.2649150752"><ele>233.74</ele><time>2026-09-02T21:16:46Z</time></trkpt><trkpt lat="59.5592723507" lon="31.2648986466"><ele>233.74</ele><time>2026-09-02T21:16:47Z</time></trkpt><trkpt lat="59.5592783857" lon="31.2648807932"><ele>233.26</ele><time>2026-09-02T21:16:48Z</time></trkpt><trkpt lat="59.5592847560" lon="31.2648635264"><ele>233.26</ele><time>2026-09-02T21:16:49Z</time></trkpt><trkpt lat="59.5592901204" lon="31.2648453377"><ele>233.26</ele><time>2026-09-02T21:16:50Z</time></trkpt><trkpt lat="59.5592942275" lon="31.2648253888"><ele>233.26</ele><time>2026-09-02T21:16:51Z</time></trkpt><trkpt lat="59.5593014359" lon="31.2648130674"><ele>233.26</ele><time>2026-09-02T21:16:52Z</time></trkpt><trkpt lat="59.5593081415" lon="31.2647995725"><ele>233.26</ele><time>2026-09-02T21:16:53Z</time></trkpt><trkpt lat="59.5593121648" lon="31.2647857424"><ele>232.78</ele><time>2026-09-02T21:16:54Z</time></trkpt><trkpt lat="59.5593174454" lon="31.2647721637"><ele>232.78</ele><time>2026-09-02T21:16:55Z</time></trkpt><trkpt lat="59.5593185350" lon="31.2647521310"><ele>232.78</ele><time>2026-09-02T21:16:56Z</time></trkpt><trkpt lat="59.5593231451" lon="31.2647366244"><ele>232.78</ele><time>2026-09-02T21:16:57Z</time></trkpt><trkpt lat="59.5593257435" lon="31.2647167593"><ele>232.78</ele><time>2026-09-02T21:16:58Z</time></trkpt><trkpt lat="59.5593254920" lon="31.2646978162"><ele>232.78</ele><time>2026-09-02T21:16:59Z</time></trkpt><trkpt lat="59.5593266655" lon="31.2646762747"><ele>232.78</ele><time>2026-09-02T21:17:00Z</time></trkpt><trkpt lat="59.5593281742" lon="31.2646568287"><ele>232.30</ele><time>2026-09-02T21:17:01Z</time></trkpt><trkpt lat="59.5593273360" lon="31.2646407355"><ele>232.30</ele><time>2026-09-02T21:17:02Z</time></trkpt><trkpt lat="59.5593332872" lon="31.2646257319"><ele>232.30</ele><time>2026-09-02T21:17:03Z</time></trkpt><trkpt lat="59.5593363885" lon="31.2646049447"><ele>232.30</ele><time>2026-09-02T21:17:04Z</time></trkpt><trkpt lat="59.5593412500" lon="31.2645859178"><ele>231.81</ele><time>2026-09-02T21:17:05Z</time></trkpt><trkpt lat="59.5593425911" lon="31.2645705789"><ele>231.81</ele><time>2026-09-02T21:17:06Z</time></trkpt><trkpt lat="59.5593455248" lon="31.2645638734"><ele>231.81</ele><time>2026-09-02T21:17:07Z</time></trkpt><trkpt lat="59.5593485422" lon="31.2645485345"><ele>231.81</ele><time>2026-09-02T21:17:08Z</time></trkpt><trkpt lat="59.5593522303" lon="31.2645377219"><ele>231.81</ele><time>2026-09-02T21:17:09Z</time></trkpt><trkpt lat="59.5593531523" lon="31.2645264901"><ele>231.33</ele><time>2026-09-02T21:17:10Z</time></trkpt><trkpt lat="59.5593550801" lon="31.2645206228"><ele>231.33</ele><time>2026-09-02T21:17:11Z</time></trkpt><trkpt lat="59.5593557507" lon="31.2645136658"><ele>231.33</ele><time>2026-09-02T21:17:12Z</time></trkpt><trkpt lat="59.5593547449" lon="31.2645086367"><ele>231.33</ele><time>2026-09-02T21:17:13Z</time></trkpt><trkpt lat="59.5593564212" lon="31.2645086367"><ele>231.33</ele><time>2026-09-02T21:17:14Z</time></trkpt><trkpt lat="59.5593548287" lon="31.2645053677"><ele>231.33</ele><time>2026-09-02T21:17:15Z</time></trkpt><trkpt lat="59.5593544934" lon="31.2644990813"><ele>230.85</ele><time>2026-09-02T21:17:16Z</time></trkpt><trkpt lat="59.5593549963" lon="31.2644964829"><ele>230.85</ele><time>2026-09-02T21:17:17Z</time></trkpt><trkpt lat="59.5593553316" lon="31.2644926272"><ele>230.85</ele><time>2026-09-02T21:17:18Z</time></trkpt><trkpt lat="59.5593547449" lon="31.2644880172"><ele>230.85</ele><time>2026-09-02T21:17:19Z</time></trkpt><trkpt lat="59.5593554992" lon="31.2644856703"><ele>230.85</ele><time>2026-09-02T21:17:20Z</time></trkpt><trkpt lat="59.5593542419" lon="31.2644824851"><ele>230.85</ele><time>2026-09-02T21:17:21Z</time></trkpt><trkpt lat="59.5593533199" lon="31.2644805573"><ele>231.33</ele><time>2026-09-02T21:17:22Z</time></trkpt><trkpt lat="59.5593536552" lon="31.2644814793"><ele>231.33</ele><time>2026-09-02T21:17:23Z</time></trkpt><trkpt lat="59.5593527332" lon="31.2644800544"><ele>231.33</ele><time>2026-09-02T21:17:24Z</time></trkpt><trkpt lat="59.5593522303" lon="31.2644811440"><ele>231.33</ele><time>2026-09-02T21:17:25Z</time></trkpt><trkpt lat="59.5593520626" lon="31.2644823175"><ele>231.33</ele><time>2026-09-02T21:17:26Z</time></trkpt><trkpt lat="59.5593519788" lon="31.2644819822"><ele>231.33</ele><time>2026-09-02T21:17:27Z</time></trkpt><trkpt lat="59.5593515597" lon="31.2644804735"><ele>231.33</ele><time>2026-09-02T21:17:28Z</time></trkpt><trkpt lat="59.5593510568" lon="31.2644782942"><ele>231.33</ele><time>2026-09-02T21:17:29Z</time></trkpt><trkpt lat="59.5593503863" lon="31.2644763663"><ele>231.33</ele><time>2026-09-02T21:17:30Z</time></trkpt><trkpt lat="59.5593502186" lon="31.2644764502"><ele>231.33</ele><time>2026-09-02T21:17:31Z</time></trkpt><trkpt lat="59.5593506377" lon="31.2644785456"><ele>231.33</ele><time>2026-09-02T21:17:32Z</time></trkpt><trkpt lat="59.5593490452" lon="31.2644761987"><ele>231.33</ele><time>2026-09-02T21:17:33Z</time></trkpt><trkpt lat="59.5593504701" lon="31.2644783780"><ele>231.33</ele><time>2026-09-02T21:17:34Z</time></trkpt><trkpt lat="59.5593492966" lon="31.2644758634"><ele>231.33</ele><time>2026-09-02T21:17:35Z</time></trkpt><trkpt lat="59.5593497995" lon="31.2644759472"><ele>231.33</ele><time>2026-09-02T21:17:36Z</time></trkpt><trkpt lat="59.5593498833" lon="31.2644760311"><ele>231.33</ele><time>2026-09-02T21:17:37Z</time></trkpt><trkpt lat="59.5593502186" lon="31.2644746900"><ele>231.33</ele><time>2026-09-02T21:17:38Z</time></trkpt><trkpt lat="59.5593503863" lon="31.2644735165"><ele>231.33</ele><time>2026-09-02T21:17:39Z</time></trkpt><trkpt lat="59.5593509730" lon="31.2644722592"><ele>231.33</ele><time>2026-09-02T21:17:40Z</time></trkpt><trkpt lat="59.5593507215" lon="31.2644710857"><ele>231.33</ele><time>2026-09-02T21:17:41Z</time></trkpt><trkpt lat="59.5593511406" lon="31.2644703314"><ele>231.33</ele><time>2026-09-02T21:17:42Z</time></trkpt><trkpt lat="59.5593519788" lon="31.2644686550"><ele>231.33</ele><time>2026-09-02T21:17:43Z</time></trkpt><trkpt lat="59.5593514759" lon="31.2644700799"><ele>231.33</ele><time>2026-09-02T21:17:44Z</time></trkpt><trkpt lat="59.5593522303" lon="31.2644685712"><ele>231.33</ele><time>2026-09-02T21:17:45Z</time></trkpt><trkpt lat="59.5593511406" lon="31.2644679844"><ele>231.33</ele><time>2026-09-02T21:17:46Z</time></trkpt><trkpt lat="59.5593502186" lon="31.2644667272"><ele>231.33</ele><time>2026-09-02T21:17:47Z</time></trkpt><trkpt lat="59.5593499672" lon="31.2644677330"><ele>231.33</ele><time>2026-09-02T21:17:48Z</time></trkpt><trkpt lat="59.5593499672" lon="31.2644669786"><ele>231.33</ele><time>2026-09-02T21:17:49Z</time></trkpt><trkpt lat="59.5593498833" lon="31.2644669786"><ele>231.33</ele><time>2026-09-02T21:17:50Z</time></trkpt><trkpt lat="59.5593487937" lon="31.2644674815"><ele>231.33</ele><time>2026-09-02T21:17:51Z</time></trkpt><trkpt lat="59.5593488775" lon="31.2644688226"><ele>231.33</ele><time>2026-09-02T21:17:52Z</time></trkpt><trkpt lat="59.5593474526" lon="31.2644680683"><ele>231.33</ele><time>2026-09-02T21:17:53Z</time></trkpt><trkpt lat="59.5593484584" lon="31.2644695770"><ele>231.33</ele><time>2026-09-02T21:17:54Z</time></trkpt><trkpt lat="59.5593473688" lon="31.2644683197"><ele>231.33</ele><time>2026-09-02T21:17:55Z</time></trkpt><trkpt lat="59.5593472850" lon="31.2644648831"><ele>231.33</ele><time>2026-09-02T21:17:56Z</time></trkpt><trkpt lat="59.5593487937" lon="31.2644600216"><ele>231.33</ele><time>2026-09-02T21:17:57Z</time></trkpt><trkpt lat="59.5593515597" lon="31.2644537352"><ele>231.33</ele><time>2026-09-02T21:17:58Z</time></trkpt><trkpt lat="59.5593485422" lon="31.2644461915"><ele>231.33</ele><time>2026-09-02T21:17:59Z</time></trkpt><trkpt lat="59.5593468659" lon="31.2644409947"><ele>230.85</ele><time>2026-09-02T21:18:00Z</time></trkpt><trkpt lat="59.5593462791" lon="31.2644353788"><ele>230.85</ele><time>2026-09-02T21:18:01Z</time></trkpt><trkpt lat="59.5593456924" lon="31.2644284219"><ele>230.85</ele><time>2026-09-02T21:18:02Z</time></trkpt><trkpt lat="59.5593458600" lon="31.2644180283"><ele>230.85</ele><time>2026-09-02T21:18:03Z</time></trkpt><trkpt lat="59.5593457762" lon="31.2644202914"><ele>230.85</ele><time>2026-09-02T21:18:04Z</time></trkpt><trkpt lat="59.5593457762" lon="31.2644137535"><ele>230.85</ele><time>2026-09-02T21:18:05Z</time></trkpt><trkpt lat="59.5593457762" lon="31.2644043658"><ele>230.85</ele><time>2026-09-02T21:18:06Z</time></trkpt><trkpt lat="59.5593452733" lon="31.2643926311"><ele>230.85</ele><time>2026-09-02T21:18:07Z</time></trkpt><trkpt lat="59.5593489613" lon="31.2643914577"><ele>230.85</ele><time>2026-09-02T21:18:08Z</time></trkpt><trkpt lat="59.5593507215" lon="31.2643944751"><ele>230.85</ele><time>2026-09-02T21:18:09Z</time></trkpt><trkpt lat="59.5593541581" lon="31.2643941399"><ele>230.85</ele><time>2026-09-02T21:18:10Z</time></trkpt><trkpt lat="59.5593579300" lon="31.2643941399"><ele>230.85</ele><time>2026-09-02T21:18:11Z</time></trkpt><trkpt lat="59.5593632944" lon="31.2643987499"><ele>230.85</ele><time>2026-09-02T21:18:12Z</time></trkpt><trkpt lat="59.5593685750" lon="31.2644039467"><ele>230.85</ele><time>2026-09-02T21:18:13Z</time></trkpt><trkpt lat="59.5593727659" lon="31.2644049525"><ele>230.85</ele><time>2026-09-02T21:18:14Z</time></trkpt><trkpt lat="59.5593865961" lon="31.2644045334"><ele>230.85</ele><time>2026-09-02T21:18:15Z</time></trkpt><trkpt lat="59.5593954809" lon="31.2644057907"><ele>230.85</ele><time>2026-09-02T21:18:16Z</time></trkpt><trkpt lat="59.5594041981" lon="31.2643984985"><ele>230.85</ele><time>2026-09-02T21:18:17Z</time></trkpt><trkpt lat="59.5594101492" lon="31.2643954810"><ele>230.85</ele><time>2026-09-02T21:18:18Z</time></trkpt><trkpt lat="59.5594156813" lon="31.2643875182"><ele>230.85</ele><time>2026-09-02T21:18:19Z</time></trkpt><trkpt lat="59.5594238956" lon="31.2643907871"><ele>230.85</ele><time>2026-09-02T21:18:20Z</time></trkpt><trkpt lat="59.5594298467" lon="31.2643902842"><ele>230.85</ele><time>2026-09-02T21:18:21Z</time></trkpt><trkpt lat="59.5594355464" lon="31.2643846683"><ele>230.85</ele><time>2026-09-02T21:18:22Z</time></trkpt><trkpt lat="59.5594382286" lon="31.2643817347"><ele>231.33</ele><time>2026-09-02T21:18:23Z</time></trkpt><trkpt lat="59.5594430901" lon="31.2643790524"><ele>231.33</ele><time>2026-09-02T21:18:24Z</time></trkpt><trkpt lat="59.5594522264" lon="31.2643789686"><ele>230.85</ele><time>2026-09-02T21:18:25Z</time></trkpt><trkpt lat="59.5594576746" lon="31.2643837463"><ele>230.85</ele><time>2026-09-02T21:18:26Z</time></trkpt><trkpt lat="59.5594641287" lon="31.2643861771"><ele>230.85</ele><time>2026-09-02T21:18:27Z</time></trkpt><trkpt lat="59.5594735164" lon="31.2643909547"><ele>230.85</ele><time>2026-09-02T21:18:28Z</time></trkpt><trkpt lat="59.5594825689" lon="31.2643958163"><ele>230.85</ele><time>2026-09-02T21:18:29Z</time></trkpt><trkpt lat="59.5594886877" lon="31.2643982470"><ele>230.85</ele><time>2026-09-02T21:18:30Z</time></trkpt><trkpt lat="59.5594949741" lon="31.2643921282"><ele>230.85</ele><time>2026-09-02T21:18:31Z</time></trkpt><trkpt lat="59.5595001709" lon="31.2643890269"><ele>231.33</ele><time>2026-09-02T21:18:32Z</time></trkpt><trkpt lat="59.5595031884" lon="31.2643836625"><ele>231.33</ele><time>2026-09-02T21:18:33Z</time></trkpt><trkpt lat="59.5595059544" lon="31.2643775437"><ele>230.85</ele><time>2026-09-02T21:18:34Z</time></trkpt><trkpt lat="59.5595082175" lon="31.2643678207"><ele>230.85</ele><time>2026-09-02T21:18:35Z</time></trkpt><trkpt lat="59.5595107321" lon="31.2643615343"><ele>231.33</ele><time>2026-09-02T21:18:36Z</time></trkpt><trkpt lat="59.5595129952" lon="31.2643571757"><ele>231.33</ele><time>2026-09-02T21:18:37Z</time></trkpt><trkpt lat="59.5595152583" lon="31.2643567566"><ele>231.33</ele><time>2026-09-02T21:18:38Z</time></trkpt><trkpt lat="59.5595175214" lon="31.2643532362"><ele>231.33</ele><time>2026-09-02T21:18:39Z</time></trkpt><trkpt lat="59.5595175214" lon="31.2643537391"><ele>231.33</ele><time>2026-09-02T21:18:40Z</time></trkpt><trkpt lat="59.5595191978" lon="31.2643515598"><ele>231.33</ele><time>2026-09-02T21:18:41Z</time></trkpt><trkpt lat="59.5595192816" lon="31.2643522304"><ele>231.33</ele><time>2026-09-02T21:18:42Z</time></trkpt><trkpt lat="59.5595191978" lon="31.2643501349"><ele>231.33</ele><time>2026-09-02T21:18:43Z</time></trkpt><trkpt lat="59.5595191978" lon="31.2643467821"><ele>231.33</ele><time>2026-09-02T21:18:44Z</time></trkpt><trkpt lat="59.5595185272" lon="31.2643498834"><ele>230.85</ele><time>2026-09-02T21:18:45Z</time></trkpt><trkpt lat="59.5595183596" lon="31.2643523980"><ele>230.85</ele><time>2026-09-02T21:18:46Z</time></trkpt><trkpt lat="59.5595182758" lon="31.2643484585"><ele>230.85</ele><time>2026-09-02T21:18:47Z</time></trkpt><trkpt lat="59.5595203713" lon="31.2643462792"><ele>230.85</ele><time>2026-09-02T21:18:48Z</time></trkpt><trkpt lat="59.5595207904" lon="31.2643446866"><ele>230.85</ele><time>2026-09-02T21:18:49Z</time></trkpt><trkpt lat="59.5595212933" lon="31.2643432617"><ele>230.85</ele><time>2026-09-02T21:18:50Z</time></trkpt><trkpt lat="59.5595220476" lon="31.2643413339"><ele>230.85</ele><time>2026-09-02T21:18:51Z</time></trkpt><trkpt lat="59.5595230535" lon="31.2643421721"><ele>230.85</ele><time>2026-09-02T21:18:52Z</time></trkpt><trkpt lat="59.5595226344" lon="31.2643402442"><ele>230.85</ele><time>2026-09-02T21:18:53Z</time></trkpt><trkpt lat="59.5595228858" lon="31.2643396575"><ele>230.85</ele><time>2026-09-02T21:18:54Z</time></trkpt><trkpt lat="59.5595215447" lon="31.2643361371"><ele>230.85</ele><time>2026-09-02T21:18:55Z</time></trkpt><trkpt lat="59.5595219638" lon="31.2643372267"><ele>230.85</ele><time>2026-09-02T21:18:56Z</time></trkpt><trkpt lat="59.5595209580" lon="31.2643393222"><ele>230.85</ele><time>2026-09-02T21:18:57Z</time></trkpt><trkpt lat="59.5595210418" lon="31.2643405795"><ele>230.37</ele><time>2026-09-02T21:18:58Z</time></trkpt><trkpt lat="59.5595208742" lon="31.2643411662"><ele>230.37</ele><time>2026-09-02T21:18:59Z</time></trkpt><trkpt lat="59.5595216285" lon="31.2643413339"><ele>230.37</ele><time>2026-09-02T21:19:00Z</time></trkpt><trkpt lat="59.5595231373" lon="31.2643391546"><ele>230.37</ele><time>2026-09-02T21:19:01Z</time></trkpt><trkpt lat="59.5595251489" lon="31.2643392384"><ele>230.85</ele><time>2026-09-02T21:19:02Z</time></trkpt><trkpt lat="59.5595247298" lon="31.2643395737"><ele>230.85</ele><time>2026-09-02T21:19:03Z</time></trkpt><trkpt lat="59.5595246460" lon="31.2643346284"><ele>230.85</ele><time>2026-09-02T21:19:04Z</time></trkpt><trkpt lat="59.5595269930" lon="31.2643345445"><ele>230.85</ele><time>2026-09-02T21:19:05Z</time></trkpt><trkpt lat="59.5595303457" lon="31.2643308565"><ele>230.85</ele><time>2026-09-02T21:19:06Z</time></trkpt><trkpt lat="59.5595287532" lon="31.2643311918"><ele>230.85</ele><time>2026-09-02T21:19:07Z</time></trkpt><trkpt lat="59.5595313516" lon="31.2643298507"><ele>230.85</ele><time>2026-09-02T21:19:08Z</time></trkpt><trkpt lat="59.5595311839" lon="31.2643314432"><ele>230.85</ele><time>2026-09-02T21:19:09Z</time></trkpt><trkpt lat="59.5595328603" lon="31.2643332873"><ele>230.85</ele><time>2026-09-02T21:19:10Z</time></trkpt><trkpt lat="59.5595347881" lon="31.2643336225"><ele>230.85</ele><time>2026-09-02T21:19:11Z</time></trkpt><trkpt lat="59.5595368836" lon="31.2643326167"><ele>230.85</ele><time>2026-09-02T21:19:12Z</time></trkpt><trkpt lat="59.5595418289" lon="31.2643355504"><ele>230.85</ele><time>2026-09-02T21:19:13Z</time></trkpt><trkpt lat="59.5595397335" lon="31.2643331196"><ele>230.85</ele><time>2026-09-02T21:19:14Z</time></trkpt><trkpt lat="59.5595460199" lon="31.2643321976"><ele>230.85</ele><time>2026-09-02T21:19:15Z</time></trkpt><trkpt lat="59.5595520549" lon="31.2643308565"><ele>230.85</ele><time>2026-09-02T21:19:16Z</time></trkpt><trkpt lat="59.5595584251" lon="31.2643270846"><ele>230.85</ele><time>2026-09-02T21:19:17Z</time></trkpt><trkpt lat="59.5595632866" lon="31.2643217202"><ele>230.85</ele><time>2026-09-02T21:19:18Z</time></trkpt><trkpt lat="59.5595695730" lon="31.2643156853"><ele>230.85</ele><time>2026-09-02T21:19:19Z</time></trkpt><trkpt lat="59.5595747698" lon="31.2643129192"><ele>230.85</ele><time>2026-09-02T21:19:20Z</time></trkpt><trkpt lat="59.5595799666" lon="31.2643116619"><ele>230.85</ele><time>2026-09-02T21:19:21Z</time></trkpt><trkpt lat="59.5595886000" lon="31.2643105723"><ele>230.85</ele><time>2026-09-02T21:19:22Z</time></trkpt><trkpt lat="59.5595958922" lon="31.2643074710"><ele>230.85</ele><time>2026-09-02T21:19:23Z</time></trkpt><trkpt lat="59.5595991611" lon="31.2643042859"><ele>230.85</ele><time>2026-09-02T21:19:24Z</time></trkpt><trkpt lat="59.5596006699" lon="31.2643045373"><ele>230.85</ele><time>2026-09-02T21:19:25Z</time></trkpt><trkpt lat="59.5596038550" lon="31.2643016875"><ele>230.85</ele><time>2026-09-02T21:19:26Z</time></trkpt><trkpt lat="59.5596063696" lon="31.2642918807"><ele>230.85</ele><time>2026-09-02T21:19:27Z</time></trkpt><trkpt lat="59.5596095547" lon="31.2642797269"><ele>230.85</ele><time>2026-09-02T21:19:28Z</time></trkpt><trkpt lat="59.5596132427" lon="31.2642747816"><ele>230.85</ele><time>2026-09-02T21:19:29Z</time></trkpt><trkpt lat="59.5596175175" lon="31.2642720994"><ele>230.85</ele><time>2026-09-02T21:19:30Z</time></trkpt><trkpt lat="59.5596201997" lon="31.2642712612"><ele>230.85</ele><time>2026-09-02T21:19:31Z</time></trkpt><trkpt lat="59.5596228819" lon="31.2642727699"><ele>230.85</ele><time>2026-09-02T21:19:32Z</time></trkpt><trkpt lat="59.5596213732" lon="31.2642700877"><ele>230.85</ele><time>2026-09-02T21:19:33Z</time></trkpt><trkpt lat="59.5596234687" lon="31.2642720994"><ele>230.85</ele><time>2026-09-02T21:19:34Z</time></trkpt><trkpt lat="59.5596236363" lon="31.2642710935"><ele>230.85</ele><time>2026-09-02T21:19:35Z</time></trkpt><trkpt lat="59.5596245583" lon="31.2642721832"><ele>230.85</ele><time>2026-09-02T21:19:36Z</time></trkpt><trkpt lat="59.5596268214" lon="31.2642710935"><ele>230.85</ele><time>2026-09-02T21:19:37Z</time></trkpt><trkpt lat="59.5596277434" lon="31.2642681599"><ele>230.85</ele><time>2026-09-02T21:19:38Z</time></trkpt><trkpt lat="59.5596287493" lon="31.2642675731"><ele>230.85</ele><time>2026-09-02T21:19:39Z</time></trkpt><trkpt lat="59.5596312638" lon="31.2642678246"><ele>230.85</ele><time>2026-09-02T21:19:40Z</time></trkpt><trkpt lat="59.5596350357" lon="31.2642686628"><ele>230.85</ele><time>2026-09-02T21:19:41Z</time></trkpt><trkpt lat="59.5596378855" lon="31.2642678246"><ele>230.85</ele><time>2026-09-02T21:19:42Z</time></trkpt><trkpt lat="59.5596422441" lon="31.2642707583"><ele>230.85</ele><time>2026-09-02T21:19:43Z</time></trkpt><trkpt lat="59.5596465189" lon="31.2642773800"><ele>230.85</ele><time>2026-09-02T21:19:44Z</time></trkpt><trkpt lat="59.5596519671" lon="31.2642810680"><ele>230.85</ele><time>2026-09-02T21:19:45Z</time></trkpt><trkpt lat="59.5596569963" lon="31.2642807327"><ele>230.37</ele><time>2026-09-02T21:19:46Z</time></trkpt><trkpt lat="59.5596611872" lon="31.2642789725"><ele>230.37</ele><time>2026-09-02T21:19:47Z</time></trkpt><trkpt lat="59.5596660487" lon="31.2642765418"><ele>230.37</ele><time>2026-09-02T21:19:48Z</time></trkpt><trkpt lat="59.5596649591" lon="31.2642778829"><ele>230.37</ele><time>2026-09-02T21:19:49Z</time></trkpt><trkpt lat="59.5596691500" lon="31.2642765418"><ele>230.37</ele><time>2026-09-02T21:19:50Z</time></trkpt><trkpt lat="59.5596727543" lon="31.2642756198"><ele>230.37</ele><time>2026-09-02T21:19:51Z</time></trkpt><trkpt lat="59.5596743468" lon="31.2642761227"><ele>230.37</ele><time>2026-09-02T21:19:52Z</time></trkpt><trkpt lat="59.5596766938" lon="31.2642773800"><ele>230.85</ele><time>2026-09-02T21:19:53Z</time></trkpt><trkpt lat="59.5596782863" lon="31.2642767932"><ele>230.85</ele><time>2026-09-02T21:19:54Z</time></trkpt><trkpt lat="59.5596802980" lon="31.2642733566"><ele>230.85</ele><time>2026-09-02T21:19:55Z</time></trkpt><trkpt lat="59.5596804656" lon="31.2642720994"><ele>230.85</ele><time>2026-09-02T21:19:56Z</time></trkpt><trkpt lat="59.5596804656" lon="31.2642695848"><ele>230.85</ele><time>2026-09-02T21:19:57Z</time></trkpt><trkpt lat="59.5596814714" lon="31.2642665673"><ele>230.85</ele><time>2026-09-02T21:19:58Z</time></trkpt><trkpt lat="59.5596807171" lon="31.2642695848"><ele>230.85</ele><time>2026-09-02T21:19:59Z</time></trkpt><trkpt lat="59.5596814714" lon="31.2642671540"><ele>230.85</ele><time>2026-09-02T21:20:00Z</time></trkpt><trkpt lat="59.5596809685" lon="31.2642668188"><ele>230.85</ele><time>2026-09-02T21:20:01Z</time></trkpt><trkpt lat="59.5596834831" lon="31.2642629631"><ele>230.85</ele><time>2026-09-02T21:20:02Z</time></trkpt><trkpt lat="59.5596857462" lon="31.2642592750"><ele>230.85</ele><time>2026-09-02T21:20:03Z</time></trkpt><trkpt lat="59.5596856624" lon="31.2642489653"><ele>230.85</ele><time>2026-09-02T21:20:04Z</time></trkpt><trkpt lat="59.5596865844" lon="31.2642437685"><ele>230.85</ele><time>2026-09-02T21:20:05Z</time></trkpt><trkpt lat="59.5596852433" lon="31.2642341293"><ele>230.85</ele><time>2026-09-02T21:20:06Z</time></trkpt><trkpt lat="59.5596866682" lon="31.2642298546"><ele>230.85</ele><time>2026-09-02T21:20:07Z</time></trkpt><trkpt lat="59.5596865844" lon="31.2642247416"><ele>230.85</ele><time>2026-09-02T21:20:08Z</time></trkpt><trkpt lat="59.5596830640" lon="31.2642165273"><ele>230.85</ele><time>2026-09-02T21:20:09Z</time></trkpt><trkpt lat="59.5596857462" lon="31.2642192934"><ele>230.85</ele><time>2026-09-02T21:20:10Z</time></trkpt><trkpt lat="59.5596834831" lon="31.2642142642"><ele>230.85</ele><time>2026-09-02T21:20:11Z</time></trkpt><trkpt lat="59.5596832316" lon="31.2642095704"><ele>230.85</ele><time>2026-09-02T21:20:12Z</time></trkpt><trkpt lat="59.5596827287" lon="31.2642063852"><ele>230.85</ele><time>2026-09-02T21:20:13Z</time></trkpt><trkpt lat="59.5596832316" lon="31.2642039545"><ele>230.85</ele><time>2026-09-02T21:20:14Z</time></trkpt><trkpt lat="59.5596831478" lon="31.2642012723"><ele>230.85</ele><time>2026-09-02T21:20:15Z</time></trkpt><trkpt lat="59.5596830640" lon="31.2641980872"><ele>230.85</ele><time>2026-09-02T21:20:16Z</time></trkpt><trkpt lat="59.5596806332" lon="31.2641973328"><ele>230.85</ele><time>2026-09-02T21:20:17Z</time></trkpt><trkpt lat="59.5596772805" lon="31.2641835865"><ele>230.85</ele><time>2026-09-02T21:20:18Z</time></trkpt><trkpt lat="59.5596746821" lon="31.2641749531"><ele>230.85</ele><time>2026-09-02T21:20:19Z</time></trkpt><trkpt lat="59.5596739277" lon="31.2641683314"><ele>230.85</ele><time>2026-09-02T21:20:20Z</time></trkpt><trkpt lat="59.5596711617" lon="31.2641603686"><ele>230.85</ele><time>2026-09-02T21:20:21Z</time></trkpt><trkpt lat="59.5596685633" lon="31.2641536631"><ele>230.85</ele><time>2026-09-02T21:20:22Z</time></trkpt><trkpt lat="59.5596670546" lon="31.2641441915"><ele>230.85</ele><time>2026-09-02T21:20:23Z</time></trkpt><trkpt lat="59.5596623607" lon="31.2641357258"><ele>230.85</ele><time>2026-09-02T21:20:24Z</time></trkpt><trkpt lat="59.5596602652" lon="31.2641301937"><ele>230.85</ele><time>2026-09-02T21:20:25Z</time></trkpt><trkpt lat="59.5596576668" lon="31.2641245779"><ele>230.85</ele><time>2026-09-02T21:20:26Z</time></trkpt><trkpt lat="59.5596581697" lon="31.2641157769"><ele>230.85</ele><time>2026-09-02T21:20:27Z</time></trkpt><trkpt lat="59.5596552361" lon="31.2641092390"><ele>230.85</ele><time>2026-09-02T21:20:28Z</time></trkpt><trkpt lat="59.5596575830" lon="31.2641096581"><ele>230.85</ele><time>2026-09-02T21:20:29Z</time></trkpt><trkpt lat="59.5596549846" lon="31.2641076464"><ele>230.85</ele><time>2026-09-02T21:20:30Z</time></trkpt><trkpt lat="59.5596545655" lon="31.2641073950"><ele>230.85</ele><time>2026-09-02T21:20:31Z</time></trkpt><trkpt lat="59.5596546493" lon="31.2641090713"><ele>230.85</ele><time>2026-09-02T21:20:32Z</time></trkpt><trkpt lat="59.5596542303" lon="31.2641087361"><ele>230.85</ele><time>2026-09-02T21:20:33Z</time></trkpt><trkpt lat="59.5596545655" lon="31.2641118374"><ele>230.85</ele><time>2026-09-02T21:20:34Z</time></trkpt><trkpt lat="59.5596540626" lon="31.2641127594"><ele>230.85</ele><time>2026-09-02T21:20:35Z</time></trkpt><trkpt lat="59.5596539788" lon="31.2641120888"><ele>230.85</ele><time>2026-09-02T21:20:36Z</time></trkpt><trkpt lat="59.5596540626" lon="31.2641110830"><ele>230.85</ele><time>2026-09-02T21:20:37Z</time></trkpt><trkpt lat="59.5596541464" lon="31.2641098257"><ele>230.85</ele><time>2026-09-02T21:20:38Z</time></trkpt><trkpt lat="59.5596545655" lon="31.2641081493"><ele>230.85</ele><time>2026-09-02T21:20:39Z</time></trkpt><trkpt lat="59.5596552361" lon="31.2641068920"><ele>230.85</ele><time>2026-09-02T21:20:40Z</time></trkpt><trkpt lat="59.5596555714" lon="31.2641057186"><ele>230.85</ele><time>2026-09-02T21:20:41Z</time></trkpt><trkpt lat="59.5596560743" lon="31.2641049642"><ele>230.85</ele><time>2026-09-02T21:20:42Z</time></trkpt><trkpt lat="59.5596557390" lon="31.2641038746"><ele>230.85</ele><time>2026-09-02T21:20:43Z</time></trkpt><trkpt lat="59.5596558228" lon="31.2641025335"><ele>230.85</ele><time>2026-09-02T21:20:44Z</time></trkpt><trkpt lat="59.5596562419" lon="31.2641015276"><ele>230.85</ele><time>2026-09-02T21:20:45Z</time></trkpt><trkpt lat="59.5596541464" lon="31.2640976720"><ele>230.85</ele><time>2026-09-02T21:20:46Z</time></trkpt><trkpt lat="59.5596542303" lon="31.2640959956"><ele>230.85</ele><time>2026-09-02T21:20:47Z</time></trkpt><trkpt lat="59.5596550684" lon="31.2640936486"><ele>230.85</ele><time>2026-09-02T21:20:48Z</time></trkpt><trkpt lat="59.5596547332" lon="31.2640895415"><ele>230.85</ele><time>2026-09-02T21:20:49Z</time></trkpt><trkpt lat="59.5596545655" lon="31.2640862726"><ele>230.85</ele><time>2026-09-02T21:20:50Z</time></trkpt><trkpt lat="59.5596552361" lon="31.2640831713"><ele>230.85</ele><time>2026-09-02T21:20:51Z</time></trkpt><trkpt lat="59.5596548170" lon="31.2640841771"><ele>230.85</ele><time>2026-09-02T21:20:52Z</time></trkpt><trkpt lat="59.5596555714" lon="31.2640810758"><ele>230.85</ele><time>2026-09-02T21:20:53Z</time></trkpt><trkpt lat="59.5596556552" lon="31.2640724424"><ele>230.85</ele><time>2026-09-02T21:20:54Z</time></trkpt><trkpt lat="59.5596569963" lon="31.2640664913"><ele>230.85</ele><time>2026-09-02T21:20:55Z</time></trkpt><trkpt lat="59.5596587565" lon="31.2640595343"><ele>230.85</ele><time>2026-09-02T21:20:56Z</time></trkpt><trkpt lat="59.5596611872" lon="31.2640523259"><ele>230.85</ele><time>2026-09-02T21:20:57Z</time></trkpt><trkpt lat="59.5596638694" lon="31.2640499789"><ele>230.85</ele><time>2026-09-02T21:20:58Z</time></trkpt><trkpt lat="59.5596663840" lon="31.2640453689"><ele>230.85</ele><time>2026-09-02T21:20:59Z</time></trkpt><trkpt lat="59.5596693177" lon="31.2640388310"><ele>230.85</ele><time>2026-09-02T21:21:00Z</time></trkpt><trkpt lat="59.5596687309" lon="31.2640373223"><ele>230.85</ele><time>2026-09-02T21:21:01Z</time></trkpt><trkpt lat="59.5596704911" lon="31.2640326284"><ele>231.33</ele><time>2026-09-02T21:21:02Z</time></trkpt><trkpt lat="59.5596755203" lon="31.2640256714"><ele>230.85</ele><time>2026-09-02T21:21:03Z</time></trkpt><trkpt lat="59.5596790407" lon="31.2640223186"><ele>230.85</ele><time>2026-09-02T21:21:04Z</time></trkpt><trkpt lat="59.5596823934" lon="31.2640167866"><ele>230.85</ele><time>2026-09-02T21:21:05Z</time></trkpt><trkpt lat="59.5596877579" lon="31.2640079856"><ele>230.85</ele><time>2026-09-02T21:21:06Z</time></trkpt><trkpt lat="59.5596934576" lon="31.2640024535"><ele>230.85</ele><time>2026-09-02T21:21:07Z</time></trkpt><trkpt lat="59.5596968941" lon="31.2639973406"><ele>230.85</ele><time>2026-09-02T21:21:08Z</time></trkpt><trkpt lat="59.5596990734" lon="31.2639928982"><ele>230.85</ele><time>2026-09-02T21:21:09Z</time></trkpt><trkpt lat="59.5597017556" lon="31.2639896292"><ele>230.85</ele><time>2026-09-02T21:21:10Z</time></trkpt><trkpt lat="59.5597053599" lon="31.2639843486"><ele>230.85</ele><time>2026-09-02T21:21:11Z</time></trkpt><trkpt lat="59.5597092994" lon="31.2639833428"><ele>230.85</ele><time>2026-09-02T21:21:12Z</time></trkpt><trkpt lat="59.5597129874" lon="31.2639838457"><ele>230.85</ele><time>2026-09-02T21:21:13Z</time></trkpt><trkpt lat="59.5597152505" lon="31.2639852706"><ele>230.85</ele><time>2026-09-02T21:21:14Z</time></trkpt><trkpt lat="59.5597195253" lon="31.2639836781"><ele>230.85</ele><time>2026-09-02T21:21:15Z</time></trkpt><trkpt lat="59.5597211178" lon="31.2639865279"><ele>230.85</ele><time>2026-09-02T21:21:16Z</time></trkpt><trkpt lat="59.5597223751" lon="31.2639860250"><ele>230.85</ele><time>2026-09-02T21:21:17Z</time></trkpt><trkpt lat="59.5597235486" lon="31.2639878690"><ele>230.85</ele><time>2026-09-02T21:21:18Z</time></trkpt><trkpt lat="59.5597257279" lon="31.2639894616"><ele>230.85</ele><time>2026-09-02T21:21:19Z</time></trkpt><trkpt lat="59.5597275719" lon="31.2639898807"><ele>230.85</ele><time>2026-09-02T21:21:20Z</time></trkpt><trkpt lat="59.5597299188" lon="31.2639910541"><ele>230.85</ele><time>2026-09-02T21:21:21Z</time></trkpt><trkpt lat="59.5597309247" lon="31.2639937364"><ele>230.85</ele><time>2026-09-02T21:21:22Z</time></trkpt><trkpt lat="59.5597319305" lon="31.2639930658"><ele>230.85</ele><time>2026-09-02T21:21:23Z</time></trkpt><trkpt lat="59.5597326849" lon="31.2639954966"><ele>230.85</ele><time>2026-09-02T21:21:24Z</time></trkpt><trkpt lat="59.5597325172" lon="31.2639927305"><ele>230.85</ele><time>2026-09-02T21:21:25Z</time></trkpt><trkpt lat="59.5597351994" lon="31.2639909703"><ele>230.85</ele><time>2026-09-02T21:21:26Z</time></trkpt><trkpt lat="59.5597384684" lon="31.2639933173"><ele>230.85</ele><time>2026-09-02T21:21:27Z</time></trkpt><trkpt lat="59.5597397257" lon="31.2639982626"><ele>230.85</ele><time>2026-09-02T21:21:28Z</time></trkpt><trkpt lat="59.5597442519" lon="31.2640036270"><ele>230.85</ele><time>2026-09-02T21:21:29Z</time></trkpt><trkpt lat="59.5597469341" lon="31.2640055548"><ele>230.85</ele><time>2026-09-02T21:21:30Z</time></trkpt><trkpt lat="59.5597531367" lon="31.2640037946"><ele>230.85</ele><time>2026-09-02T21:21:31Z</time></trkpt><trkpt lat="59.5597586688" lon="31.2640038785"><ele>230.85</ele><time>2026-09-02T21:21:32Z</time></trkpt><trkpt lat="59.5597640332" lon="31.2640017830"><ele>230.85</ele><time>2026-09-02T21:21:33Z</time></trkpt><trkpt lat="59.5597665478" lon="31.2639998551"><ele>230.85</ele><time>2026-09-02T21:21:34Z</time></trkpt><trkpt lat="59.5597687270" lon="31.2639926467"><ele>230.85</ele><time>2026-09-02T21:21:35Z</time></trkpt><trkpt lat="59.5597704872" lon="31.2639895454"><ele>230.85</ele><time>2026-09-02T21:21:36Z</time></trkpt><trkpt lat="59.5597733371" lon="31.2639835943"><ele>230.85</ele><time>2026-09-02T21:21:37Z</time></trkpt><trkpt lat="59.5597762708" lon="31.2639749609"><ele>230.85</ele><time>2026-09-02T21:21:38Z</time></trkpt><trkpt lat="59.5597832277" lon="31.2639744580"><ele>230.85</ele><time>2026-09-02T21:21:39Z</time></trkpt><trkpt lat="59.5597852394" lon="31.2639717758"><ele>230.85</ele><time>2026-09-02T21:21:40Z</time></trkpt><trkpt lat="59.5597867481" lon="31.2639699318"><ele>230.85</ele><time>2026-09-02T21:21:41Z</time></trkpt><trkpt lat="59.5597869996" lon="31.2639703508"><ele>230.85</ele><time>2026-09-02T21:21:42Z</time></trkpt><trkpt lat="59.5597899333" lon="31.2639698479"><ele>230.85</ele><time>2026-09-02T21:21:43Z</time></trkpt><trkpt lat="59.5597883407" lon="31.2639701832"><ele>230.85</ele><time>2026-09-02T21:21:44Z</time></trkpt><trkpt lat="59.5597920287" lon="31.2639669981"><ele>230.85</ele><time>2026-09-02T21:21:45Z</time></trkpt><trkpt lat="59.5597962197" lon="31.2639624719"><ele>230.85</ele><time>2026-09-02T21:21:46Z</time></trkpt><trkpt lat="59.5597980637" lon="31.2639600411"><ele>230.85</ele><time>2026-09-02T21:21:47Z</time></trkpt><trkpt lat="59.5597998239" lon="31.2639564369"><ele>230.85</ele><time>2026-09-02T21:21:48Z</time></trkpt><trkpt lat="59.5598008297" lon="31.2639500666"><ele>230.85</ele><time>2026-09-02T21:21:49Z</time></trkpt><trkpt lat="59.5598067809" lon="31.2639461271"><ele>230.85</ele><time>2026-09-02T21:21:50Z</time></trkpt><trkpt lat="59.5598101337" lon="31.2639400922"><ele>230.85</ele><time>2026-09-02T21:21:51Z</time></trkpt><trkpt lat="59.5598131511" lon="31.2639368232"><ele>230.85</ele><time>2026-09-02T21:21:52Z</time></trkpt><trkpt lat="59.5598161686" lon="31.2639296986"><ele>230.85</ele><time>2026-09-02T21:21:53Z</time></trkpt><trkpt lat="59.5598187670" lon="31.2639240827"><ele>230.85</ele><time>2026-09-02T21:21:54Z</time></trkpt><trkpt lat="59.5598214492" lon="31.2639192212"><ele>230.85</ele><time>2026-09-02T21:21:55Z</time></trkpt><trkpt lat="59.5598227903" lon="31.2639154494"><ele>230.85</ele><time>2026-09-02T21:21:56Z</time></trkpt><trkpt lat="59.5598240476" lon="31.2639125995"><ele>230.85</ele><time>2026-09-02T21:21:57Z</time></trkpt><trkpt lat="59.5598246343" lon="31.2639094982"><ele>230.85</ele><time>2026-09-02T21:21:58Z</time></trkpt><trkpt lat="59.5598253887" lon="31.2639074866"><ele>230.85</ele><time>2026-09-02T21:21:59Z</time></trkpt><trkpt lat="59.5598252211" lon="31.2639057264"><ele>230.85</ele><time>2026-09-02T21:22:00Z</time></trkpt><trkpt lat="59.5598264784" lon="31.2639049720"><ele>230.85</ele><time>2026-09-02T21:22:01Z</time></trkpt><trkpt lat="59.5598299988" lon="31.2639058940"><ele>230.85</ele><time>2026-09-02T21:22:02Z</time></trkpt><trkpt lat="59.5598310884" lon="31.2639036309"><ele>230.85</ele><time>2026-09-02T21:22:03Z</time></trkpt><trkpt lat="59.5598320942" lon="31.2639014516"><ele>230.85</ele><time>2026-09-02T21:22:04Z</time></trkpt><trkpt lat="59.5598360337" lon="31.2638956681"><ele>230.85</ele><time>2026-09-02T21:22:05Z</time></trkpt><trkpt lat="59.5598361176" lon="31.2638895493"><ele>230.85</ele><time>2026-09-02T21:22:06Z</time></trkpt><trkpt lat="59.5598384645" lon="31.2638906389"><ele>230.85</ele><time>2026-09-02T21:22:07Z</time></trkpt><trkpt lat="59.5598388836" lon="31.2638855260"><ele>230.85</ele><time>2026-09-02T21:22:08Z</time></trkpt><trkpt lat="59.5598363690" lon="31.2638859451"><ele>230.85</ele><time>2026-09-02T21:22:09Z</time></trkpt><trkpt lat="59.5598350279" lon="31.2638864480"><ele>230.85</ele><time>2026-09-02T21:22:10Z</time></trkpt><trkpt lat="59.5598352794" lon="31.2638855260"><ele>230.85</ele><time>2026-09-02T21:22:11Z</time></trkpt><trkpt lat="59.5598350279" lon="31.2638843525"><ele>230.85</ele><time>2026-09-02T21:22:12Z</time></trkpt><trkpt lat="59.5598344412" lon="31.2638839334"><ele>230.85</ele><time>2026-09-02T21:22:13Z</time></trkpt><trkpt lat="59.5598342735" lon="31.2638822570"><ele>230.85</ele><time>2026-09-02T21:22:14Z</time></trkpt><trkpt lat="59.5598346926" lon="31.2638807483"><ele>230.85</ele><time>2026-09-02T21:22:15Z</time></trkpt><trkpt lat="59.5598346926" lon="31.2638798263"><ele>230.85</ele><time>2026-09-02T21:22:16Z</time></trkpt><trkpt lat="59.5598333515" lon="31.2638789881"><ele>230.85</ele><time>2026-09-02T21:22:17Z</time></trkpt><trkpt lat="59.5598330162" lon="31.2638783175"><ele>230.85</ele><time>2026-09-02T21:22:18Z</time></trkpt><trkpt lat="59.5598323457" lon="31.2638759706"><ele>230.85</ele><time>2026-09-02T21:22:19Z</time></trkpt><trkpt lat="59.5598312560" lon="31.2638788205"><ele>230.85</ele><time>2026-09-02T21:22:20Z</time></trkpt><trkpt lat="59.5598306693" lon="31.2638784852"><ele>230.85</ele><time>2026-09-02T21:22:21Z</time></trkpt><trkpt lat="59.5598307531" lon="31.2638771441"><ele>230.85</ele><time>2026-09-02T21:22:22Z</time></trkpt><trkpt lat="59.5598308370" lon="31.2638754677"><ele>230.85</ele><time>2026-09-02T21:22:23Z</time></trkpt><trkpt lat="59.5598307531" lon="31.2638770603"><ele>230.85</ele><time>2026-09-02T21:22:24Z</time></trkpt><trkpt lat="59.5598334353" lon="31.2638737913"><ele>230.85</ele><time>2026-09-02T21:22:25Z</time></trkpt><trkpt lat="59.5598346926" lon="31.2638745457"><ele>230.85</ele><time>2026-09-02T21:22:26Z</time></trkpt><trkpt lat="59.5598354470" lon="31.2638752162"><ele>230.85</ele><time>2026-09-02T21:22:27Z</time></trkpt><trkpt lat="59.5598355308" lon="31.2638749648"><ele>230.85</ele><time>2026-09-02T21:22:28Z</time></trkpt><trkpt lat="59.5598378778" lon="31.2638755515"><ele>230.85</ele><time>2026-09-02T21:22:29Z</time></trkpt><trkpt lat="59.5598378778" lon="31.2638745457"><ele>230.85</ele><time>2026-09-02T21:22:30Z</time></trkpt><trkpt lat="59.5598382968" lon="31.2638720311"><ele>230.85</ele><time>2026-09-02T21:22:31Z</time></trkpt><trkpt lat="59.5598388836" lon="31.2638710253"><ele>230.85</ele><time>2026-09-02T21:22:32Z</time></trkpt><trkpt lat="59.5598394703" lon="31.2638701871"><ele>230.85</ele><time>2026-09-02T21:22:33Z</time></trkpt><trkpt lat="59.5598399732" lon="31.2638694327"><ele>230.85</ele><time>2026-09-02T21:22:34Z</time></trkpt><trkpt lat="59.5598403923" lon="31.2638672534"><ele>230.85</ele><time>2026-09-02T21:22:35Z</time></trkpt><trkpt lat="59.5598407276" lon="31.2638662476"><ele>230.85</ele><time>2026-09-02T21:22:36Z</time></trkpt><trkpt lat="59.5598410629" lon="31.2638667505"><ele>230.85</ele><time>2026-09-02T21:22:37Z</time></trkpt><trkpt lat="59.5598444995" lon="31.2638640683"><ele>230.85</ele><time>2026-09-02T21:22:38Z</time></trkpt><trkpt lat="59.5598478522" lon="31.2638650741"><ele>230.85</ele><time>2026-09-02T21:22:39Z</time></trkpt><trkpt lat="59.5598469302" lon="31.2638643198"><ele>230.85</ele><time>2026-09-02T21:22:40Z</time></trkpt><trkpt lat="59.5598494448" lon="31.2638645712"><ele>230.85</ele><time>2026-09-02T21:22:41Z</time></trkpt><trkpt lat="59.5598528814" lon="31.2638628948"><ele>230.37</ele><time>2026-09-02T21:22:42Z</time></trkpt><trkpt lat="59.5598575752" lon="31.2638627272"><ele>230.85</ele><time>2026-09-02T21:22:43Z</time></trkpt><trkpt lat="59.5598633587" lon="31.2638659962"><ele>230.85</ele><time>2026-09-02T21:22:44Z</time></trkpt><trkpt lat="59.5598697290" lon="31.2638684269"><ele>230.85</ele><time>2026-09-02T21:22:45Z</time></trkpt><trkpt lat="59.5598768536" lon="31.2638723664"><ele>230.85</ele><time>2026-09-02T21:22:46Z</time></trkpt><trkpt lat="59.5598807931" lon="31.2638751324"><ele>230.85</ele><time>2026-09-02T21:22:47Z</time></trkpt><trkpt lat="59.5598867442" lon="31.2638819218"><ele>230.85</ele><time>2026-09-02T21:22:48Z</time></trkpt><trkpt lat="59.5598964673" lon="31.2638787366"><ele>230.85</ele><time>2026-09-02T21:22:49Z</time></trkpt><trkpt lat="59.5599006582" lon="31.2638760544"><ele>230.85</ele><time>2026-09-02T21:22:50Z</time></trkpt><trkpt lat="59.5599024184" lon="31.2638733722"><ele>230.37</ele><time>2026-09-02T21:22:51Z</time></trkpt><trkpt lat="59.5599039271" lon="31.2638719473"><ele>230.37</ele><time>2026-09-02T21:22:52Z</time></trkpt><trkpt lat="59.5599047653" lon="31.2638713606"><ele>230.37</ele><time>2026-09-02T21:22:53Z</time></trkpt><trkpt lat="59.5599039271" lon="31.2638712768"><ele>230.37</ele><time>2026-09-02T21:22:54Z</time></trkpt><trkpt lat="59.5599064417" lon="31.2638667505"><ele>230.37</ele><time>2026-09-02T21:22:55Z</time></trkpt><trkpt lat="59.5599081181" lon="31.2638659962"><ele>230.37</ele><time>2026-09-02T21:22:56Z</time></trkpt><trkpt lat="59.5599142369" lon="31.2638661638"><ele>230.85</ele><time>2026-09-02T21:22:57Z</time></trkpt><trkpt lat="59.5599168353" lon="31.2638632301"><ele>230.85</ele><time>2026-09-02T21:22:58Z</time></trkpt><trkpt lat="59.5599183440" lon="31.2638601288"><ele>230.85</ele><time>2026-09-02T21:22:59Z</time></trkpt><trkpt lat="59.5599224512" lon="31.2638571952"><ele>230.85</ele><time>2026-09-02T21:23:00Z</time></trkpt><trkpt lat="59.5599271450" lon="31.2638547644"><ele>230.85</ele><time>2026-09-02T21:23:01Z</time></trkpt><trkpt lat="59.5599308331" lon="31.2638562731"><ele>230.85</ele><time>2026-09-02T21:23:02Z</time></trkpt><trkpt lat="59.5599342696" lon="31.2638488971"><ele>230.85</ele><time>2026-09-02T21:23:03Z</time></trkpt><trkpt lat="59.5599380415" lon="31.2638416886"><ele>230.85</ele><time>2026-09-02T21:23:04Z</time></trkpt><trkpt lat="59.5599409752" lon="31.2638366595"><ele>230.85</ele><time>2026-09-02T21:23:05Z</time></trkpt><trkpt lat="59.5599436574" lon="31.2638355698"><ele>230.85</ele><time>2026-09-02T21:23:06Z</time></trkpt><trkpt lat="59.5599461719" lon="31.2638301216"><ele>230.85</ele><time>2026-09-02T21:23:07Z</time></trkpt><trkpt lat="59.5599456690" lon="31.2638235837"><ele>230.85</ele><time>2026-09-02T21:23:08Z</time></trkpt><trkpt lat="59.5599479321" lon="31.2638180517"><ele>230.85</ele><time>2026-09-02T21:23:09Z</time></trkpt><trkpt lat="59.5599489380" lon="31.2638161238"><ele>230.37</ele><time>2026-09-02T21:23:10Z</time></trkpt><trkpt lat="59.5599532966" lon="31.2638175488"><ele>230.37</ele><time>2026-09-02T21:23:11Z</time></trkpt><trkpt lat="59.5599534642" lon="31.2638130225"><ele>230.85</ele><time>2026-09-02T21:23:12Z</time></trkpt><trkpt lat="59.5599588286" lon="31.2638202310"><ele>230.85</ele><time>2026-09-02T21:23:13Z</time></trkpt><trkpt lat="59.5599669591" lon="31.2638236675"><ele>230.85</ele><time>2026-09-02T21:23:14Z</time></trkpt><trkpt lat="59.5599745866" lon="31.2638261821"><ele>230.85</ele><time>2026-09-02T21:23:15Z</time></trkpt><trkpt lat="59.5599808730" lon="31.2638250925"><ele>230.85</ele><time>2026-09-02T21:23:16Z</time></trkpt><trkpt lat="59.5599861536" lon="31.2638236675"><ele>230.85</ele><time>2026-09-02T21:23:17Z</time></trkpt><trkpt lat="59.5599915180" lon="31.2638207339"><ele>230.85</ele><time>2026-09-02T21:23:18Z</time></trkpt><trkpt lat="59.5600006543" lon="31.2638156209"><ele>230.85</ele><time>2026-09-02T21:23:19Z</time></trkpt><trkpt lat="59.5600069407" lon="31.2638176326"><ele>230.85</ele><time>2026-09-02T21:23:20Z</time></trkpt><trkpt lat="59.5600111317" lon="31.2638150342"><ele>230.85</ele><time>2026-09-02T21:23:21Z</time></trkpt><trkpt lat="59.5600125566" lon="31.2638092507"><ele>230.85</ele><time>2026-09-02T21:23:22Z</time></trkpt><trkpt lat="59.5600183401" lon="31.2637987733"><ele>230.85</ele><time>2026-09-02T21:23:23Z</time></trkpt><trkpt lat="59.5600217767" lon="31.2637944985"><ele>230.85</ele><time>2026-09-02T21:23:24Z</time></trkpt><trkpt lat="59.5600271411" lon="31.2637906428"><ele>230.85</ele><time>2026-09-02T21:23:25Z</time></trkpt><trkpt lat="59.5600316674" lon="31.2637855299"><ele>230.85</ele><time>2026-09-02T21:23:26Z</time></trkpt><trkpt lat="59.5600357745" lon="31.2637773994"><ele>230.85</ele><time>2026-09-02T21:23:27Z</time></trkpt><trkpt lat="59.5600417256" lon="31.2637677602"><ele>230.85</ele><time>2026-09-02T21:23:28Z</time></trkpt><trkpt lat="59.5600443240" lon="31.2637604680"><ele>230.85</ele><time>2026-09-02T21:23:29Z</time></trkpt><trkpt lat="59.5600436535" lon="31.2637488171"><ele>230.85</ele><time>2026-09-02T21:23:30Z</time></trkpt><trkpt lat="59.5600422285" lon="31.2637405191"><ele>230.85</ele><time>2026-09-02T21:23:31Z</time></trkpt><trkpt lat="59.5600411389" lon="31.2637269404"><ele>230.85</ele><time>2026-09-02T21:23:32Z</time></trkpt><trkpt lat="59.5600366965" lon="31.2637124397"><ele>230.85</ele><time>2026-09-02T21:23:33Z</time></trkpt><trkpt lat="59.5600333437" lon="31.2637032196"><ele>230.85</ele><time>2026-09-02T21:23:34Z</time></trkpt><trkpt lat="59.5600310806" lon="31.2637003697"><ele>230.85</ele><time>2026-09-02T21:23:35Z</time></trkpt><trkpt lat="59.5600252971" lon="31.2636878807"><ele>230.85</ele><time>2026-09-02T21:23:36Z</time></trkpt><trkpt lat="59.5600202680" lon="31.2636828516"><ele>230.85</ele><time>2026-09-02T21:23:37Z</time></trkpt><trkpt lat="59.5600170828" lon="31.2636782415"><ele>230.85</ele><time>2026-09-02T21:23:38Z</time></trkpt><trkpt lat="59.5600140654" lon="31.2636739668"><ele>230.85</ele><time>2026-09-02T21:23:39Z</time></trkpt><trkpt lat="59.5600093715" lon="31.2636700273"><ele>230.37</ele><time>2026-09-02T21:23:40Z</time></trkpt><trkpt lat="59.5600077789" lon="31.2636678480"><ele>230.85</ele><time>2026-09-02T21:23:41Z</time></trkpt><trkpt lat="59.5600076951" lon="31.2636648305"><ele>230.85</ele><time>2026-09-02T21:23:42Z</time></trkpt><trkpt lat="59.5600050967" lon="31.2636613939"><ele>230.85</ele><time>2026-09-02T21:23:43Z</time></trkpt><trkpt lat="59.5600032527" lon="31.2636590470"><ele>230.85</ele><time>2026-09-02T21:23:44Z</time></trkpt><trkpt lat="59.5600043423" lon="31.2636607233"><ele>230.85</ele><time>2026-09-02T21:23:45Z</time></trkpt><trkpt lat="59.5600033365" lon="31.2636594661"><ele>230.85</ele><time>2026-09-02T21:23:46Z</time></trkpt><trkpt lat="59.5600038394" lon="31.2636581250"><ele>230.85</ele><time>2026-09-02T21:23:47Z</time></trkpt><trkpt lat="59.5600042585" lon="31.2636547722"><ele>230.85</ele><time>2026-09-02T21:23:48Z</time></trkpt><trkpt lat="59.5600044262" lon="31.2636527605"><ele>230.85</ele><time>2026-09-02T21:23:49Z</time></trkpt><trkpt lat="59.5600044262" lon="31.2636523414"><ele>230.85</ele><time>2026-09-02T21:23:50Z</time></trkpt><trkpt lat="59.5600066893" lon="31.2636554427"><ele>230.85</ele><time>2026-09-02T21:23:51Z</time></trkpt><trkpt lat="59.5600064378" lon="31.2636542693"><ele>230.85</ele><time>2026-09-02T21:23:52Z</time></trkpt><trkpt lat="59.5600060187" lon="31.2636527605"><ele>230.85</ele><time>2026-09-02T21:23:53Z</time></trkpt><trkpt lat="59.5600065216" lon="31.2636511680"><ele>230.85</ele><time>2026-09-02T21:23:54Z</time></trkpt><trkpt lat="59.5600067731" lon="31.2636506651"><ele>230.85</ele><time>2026-09-02T21:23:55Z</time></trkpt><trkpt lat="59.5600062702" lon="31.2636496592"><ele>230.85</ele><time>2026-09-02T21:23:56Z</time></trkpt><trkpt lat="59.5600064378" lon="31.2636491563"><ele>230.85</ele><time>2026-09-02T21:23:57Z</time></trkpt><trkpt lat="59.5600065216" lon="31.2636487372"><ele>230.85</ele><time>2026-09-02T21:23:58Z</time></trkpt><trkpt lat="59.5600062702" lon="31.2636484858"><ele>230.85</ele><time>2026-09-02T21:23:59Z</time></trkpt><trkpt lat="59.5600058511" lon="31.2636477314"><ele>230.85</ele><time>2026-09-02T21:24:00Z</time></trkpt><trkpt lat="59.5600062702" lon="31.2636490725"><ele>230.85</ele><time>2026-09-02T21:24:01Z</time></trkpt><trkpt lat="59.5600066893" lon="31.2636497431"><ele>230.85</ele><time>2026-09-02T21:24:02Z</time></trkpt><trkpt lat="59.5600072760" lon="31.2636497431"><ele>230.85</ele><time>2026-09-02T21:24:03Z</time></trkpt><trkpt lat="59.5600087848" lon="31.2636497431"><ele>230.85</ele><time>2026-09-02T21:24:04Z</time></trkpt><trkpt lat="59.5600103773" lon="31.2636500783"><ele>230.85</ele><time>2026-09-02T21:24:05Z</time></trkpt><trkpt lat="59.5600116346" lon="31.2636499945"><ele>230.85</ele><time>2026-09-02T21:24:06Z</time></trkpt><trkpt lat="59.5600127243" lon="31.2636510842"><ele>230.85</ele><time>2026-09-02T21:24:07Z</time></trkpt><trkpt lat="59.5600145683" lon="31.2636519223"><ele>230.85</ele><time>2026-09-02T21:24:08Z</time></trkpt><trkpt lat="59.5600161608" lon="31.2636521738"><ele>230.85</ele><time>2026-09-02T21:24:09Z</time></trkpt><trkpt lat="59.5600168314" lon="31.2636531796"><ele>230.85</ele><time>2026-09-02T21:24:10Z</time></trkpt><trkpt lat="59.5600170828" lon="31.2636546884"><ele>230.85</ele><time>2026-09-02T21:24:11Z</time></trkpt><trkpt lat="59.5600166637" lon="31.2636550236"><ele>230.85</ele><time>2026-09-02T21:24:12Z</time></trkpt><trkpt lat="59.5600166637" lon="31.2636556942"><ele>230.85</ele><time>2026-09-02T21:24:13Z</time></trkpt><trkpt lat="59.5600187592" lon="31.2636561971"><ele>230.85</ele><time>2026-09-02T21:24:14Z</time></trkpt><trkpt lat="59.5600191783" lon="31.2636581250"><ele>230.85</ele><time>2026-09-02T21:24:15Z</time></trkpt><trkpt lat="59.5600193460" lon="31.2636603881"><ele>230.85</ele><time>2026-09-02T21:24:16Z</time></trkpt><trkpt lat="59.5600195974" lon="31.2636621483"><ele>230.85</ele><time>2026-09-02T21:24:17Z</time></trkpt><trkpt lat="59.5600198489" lon="31.2636634894"><ele>230.85</ele><time>2026-09-02T21:24:18Z</time></trkpt><trkpt lat="59.5600206871" lon="31.2636654172"><ele>230.85</ele><time>2026-09-02T21:24:19Z</time></trkpt><trkpt lat="59.5600211900" lon="31.2636656687"><ele>230.85</ele><time>2026-09-02T21:24:20Z</time></trkpt><trkpt lat="59.5600214414" lon="31.2636653334"><ele>230.85</ele><time>2026-09-02T21:24:21Z</time></trkpt><trkpt lat="59.5600212738" lon="31.2636648305"><ele>230.85</ele><time>2026-09-02T21:24:22Z</time></trkpt><trkpt lat="59.5600215252" lon="31.2636647467"><ele>230.85</ele><time>2026-09-02T21:24:23Z</time></trkpt><trkpt lat="59.5600209385" lon="31.2636652496"><ele>230.85</ele><time>2026-09-02T21:24:24Z</time></trkpt><trkpt lat="59.5600205194" lon="31.2636663392"><ele>230.85</ele><time>2026-09-02T21:24:25Z</time></trkpt><trkpt lat="59.5600200165" lon="31.2636667583"><ele>230.85</ele><time>2026-09-02T21:24:26Z</time></trkpt><trkpt lat="59.5600195974" lon="31.2636667583"><ele>230.85</ele><time>2026-09-02T21:24:27Z</time></trkpt><trkpt lat="59.5600191783" lon="31.2636666745"><ele>230.85</ele><time>2026-09-02T21:24:28Z</time></trkpt><trkpt lat="59.5600185916" lon="31.2636654172"><ele>230.85</ele><time>2026-09-02T21:24:29Z</time></trkpt><trkpt lat="59.5600179210" lon="31.2636647467"><ele>230.85</ele><time>2026-09-02T21:24:30Z</time></trkpt><trkpt lat="59.5600169990" lon="31.2636646628"><ele>230.85</ele><time>2026-09-02T21:24:31Z</time></trkpt><trkpt lat="59.5600174181" lon="31.2636657525"><ele>230.85</ele><time>2026-09-02T21:24:32Z</time></trkpt><trkpt lat="59.5600187592" lon="31.2636669260"><ele>230.85</ele><time>2026-09-02T21:24:33Z</time></trkpt><trkpt lat="59.5600199327" lon="31.2636683509"><ele>230.85</ele><time>2026-09-02T21:24:34Z</time></trkpt><trkpt lat="59.5600211900" lon="31.2636700273"><ele>230.85</ele><time>2026-09-02T21:24:35Z</time></trkpt><trkpt lat="59.5600214414" lon="31.2636715360"><ele>230.37</ele><time>2026-09-02T21:24:36Z</time></trkpt><trkpt lat="59.5600219443" lon="31.2636724580"><ele>230.37</ele><time>2026-09-02T21:24:37Z</time></trkpt><trkpt lat="59.5600234531" lon="31.2636726256"><ele>230.37</ele><time>2026-09-02T21:24:38Z</time></trkpt><trkpt lat="59.5600234531" lon="31.2636737991"><ele>230.37</ele><time>2026-09-02T21:24:39Z</time></trkpt><trkpt lat="59.5600227825" lon="31.2636749726"><ele>230.37</ele><time>2026-09-02T21:24:40Z</time></trkpt><trkpt lat="59.5600225311" lon="31.2636748888"><ele>230.37</ele><time>2026-09-02T21:24:41Z</time></trkpt><trkpt lat="59.5600224473" lon="31.2636739668"><ele>230.37</ele><time>2026-09-02T21:24:42Z</time></trkpt><trkpt lat="59.5600219443" lon="31.2636729609"><ele>230.37</ele><time>2026-09-02T21:24:43Z</time></trkpt><trkpt lat="59.5600215252" lon="31.2636710331"><ele>230.37</ele><time>2026-09-02T21:24:44Z</time></trkpt><trkpt lat="59.5600203518" lon="31.2636676803"><ele>230.37</ele><time>2026-09-02T21:24:45Z</time></trkpt><trkpt lat="59.5600200165" lon="31.2636643276"><ele>230.37</ele><time>2026-09-02T21:24:46Z</time></trkpt><trkpt lat="59.5600186754" lon="31.2636636570"><ele>230.37</ele><time>2026-09-02T21:24:47Z</time></trkpt><trkpt lat="59.5600170828" lon="31.2636632379"><ele>230.37</ele><time>2026-09-02T21:24:48Z</time></trkpt><trkpt lat="59.5600152388" lon="31.2636606395"><ele>230.85</ele><time>2026-09-02T21:24:49Z</time></trkpt><trkpt lat="59.5600143168" lon="31.2636591308"><ele>230.85</ele><time>2026-09-02T21:24:50Z</time></trkpt><trkpt lat="59.5600129757" lon="31.2636581250"><ele>230.85</ele><time>2026-09-02T21:24:51Z</time></trkpt><trkpt lat="59.5600114670" lon="31.2636581250"><ele>230.85</ele><time>2026-09-02T21:24:52Z</time></trkpt><trkpt lat="59.5600103773" lon="31.2636581250"><ele>230.85</ele><time>2026-09-02T21:24:53Z</time></trkpt><trkpt lat="59.5600091200" lon="31.2636580411"><ele>230.85</ele><time>2026-09-02T21:24:54Z</time></trkpt><trkpt lat="59.5600078627" lon="31.2636580411"><ele>230.85</ele><time>2026-09-02T21:24:55Z</time></trkpt><trkpt lat="59.5600065216" lon="31.2636585440"><ele>230.85</ele><time>2026-09-02T21:24:56Z</time></trkpt><trkpt lat="59.5600057673" lon="31.2636587955"><ele>230.85</ele><time>2026-09-02T21:24:57Z</time></trkpt><trkpt lat="59.5600050967" lon="31.2636578735"><ele>230.85</ele><time>2026-09-02T21:24:58Z</time></trkpt><trkpt lat="59.5600061864" lon="31.2636608910"><ele>230.85</ele><time>2026-09-02T21:24:59Z</time></trkpt><trkpt lat="59.5600060187" lon="31.2636589631"><ele>230.85</ele><time>2026-09-02T21:25:00Z</time></trkpt><trkpt lat="59.5600069407" lon="31.2636607233"><ele>230.85</ele><time>2026-09-02T21:25:01Z</time></trkpt><trkpt lat="59.5600071922" lon="31.2636573706"><ele>230.85</ele><time>2026-09-02T21:25:02Z</time></trkpt><trkpt lat="59.5600076951" lon="31.2636562809"><ele>230.85</ele><time>2026-09-02T21:25:03Z</time></trkpt><trkpt lat="59.5600084495" lon="31.2636547722"><ele>230.85</ele><time>2026-09-02T21:25:04Z</time></trkpt><trkpt lat="59.5600092877" lon="31.2636534311"><ele>230.85</ele><time>2026-09-02T21:25:05Z</time></trkpt><trkpt lat="59.5600102935" lon="31.2636519223"><ele>230.85</ele><time>2026-09-02T21:25:06Z</time></trkpt><trkpt lat="59.5600111317" lon="31.2636508327"><ele>230.85</ele><time>2026-09-02T21:25:07Z</time></trkpt><trkpt lat="59.5600117184" lon="31.2636489887"><ele>230.85</ele><time>2026-09-02T21:25:08Z</time></trkpt><trkpt lat="59.5600128919" lon="31.2636471447"><ele>230.85</ele><time>2026-09-02T21:25:09Z</time></trkpt><trkpt lat="59.5600130595" lon="31.2636462227"><ele>230.85</ele><time>2026-09-02T21:25:10Z</time></trkpt><trkpt lat="59.5600136463" lon="31.2636458874"><ele>230.85</ele><time>2026-09-02T21:25:11Z</time></trkpt><trkpt lat="59.5600145683" lon="31.2636465579"><ele>230.85</ele><time>2026-09-02T21:25:12Z</time></trkpt><trkpt lat="59.5600151550" lon="31.2636468932"><ele>230.85</ele><time>2026-09-02T21:25:13Z</time></trkpt><trkpt lat="59.5600167476" lon="31.2636469770"><ele>230.85</ele><time>2026-09-02T21:25:14Z</time></trkpt><trkpt lat="59.5600176696" lon="31.2636469770"><ele>230.85</ele><time>2026-09-02T21:25:15Z</time></trkpt><trkpt lat="59.5600184239" lon="31.2636472285"><ele>230.85</ele><time>2026-09-02T21:25:16Z</time></trkpt><trkpt lat="59.5600186754" lon="31.2636467256"><ele>230.85</ele><time>2026-09-02T21:25:17Z</time></trkpt><trkpt lat="59.5600185916" lon="31.2636454683"><ele>230.85</ele><time>2026-09-02T21:25:18Z</time></trkpt><trkpt lat="59.5600196812" lon="31.2636439595"><ele>230.37</ele><time>2026-09-02T21:25:19Z</time></trkpt><trkpt lat="59.5600213576" lon="31.2636434566"><ele>230.37</ele><time>2026-09-02T21:25:20Z</time></trkpt><trkpt lat="59.5600213576" lon="31.2636443786"><ele>230.85</ele><time>2026-09-02T21:25:21Z</time></trkpt><trkpt lat="59.5600216929" lon="31.2636449654"><ele>230.85</ele><time>2026-09-02T21:25:22Z</time></trkpt><trkpt lat="59.5600216929" lon="31.2636435404"><ele>230.37</ele><time>2026-09-02T21:25:23Z</time></trkpt><trkpt lat="59.5600219443" lon="31.2636417802"><ele>230.37</ele><time>2026-09-02T21:25:24Z</time></trkpt><trkpt lat="59.5600220282" lon="31.2636393495"><ele>230.37</ele><time>2026-09-02T21:25:25Z</time></trkpt><trkpt lat="59.5600225311" lon="31.2636386789"><ele>230.37</ele><time>2026-09-02T21:25:26Z</time></trkpt><trkpt lat="59.5600231178" lon="31.2636386789"><ele>230.37</ele><time>2026-09-02T21:25:27Z</time></trkpt><trkpt lat="59.5600242913" lon="31.2636386789"><ele>230.37</ele><time>2026-09-02T21:25:28Z</time></trkpt><trkpt lat="59.5600253809" lon="31.2636383437"><ele>230.37</ele><time>2026-09-02T21:25:29Z</time></trkpt><trkpt lat="59.5600262191" lon="31.2636386789"><ele>230.37</ele><time>2026-09-02T21:25:30Z</time></trkpt><trkpt lat="59.5600277279" lon="31.2636393495"><ele>230.37</ele><time>2026-09-02T21:25:31Z</time></trkpt><trkpt lat="59.5600289851" lon="31.2636401877"><ele>230.37</ele><time>2026-09-02T21:25:32Z</time></trkpt><trkpt lat="59.5600291528" lon="31.2636406906"><ele>230.37</ele><time>2026-09-02T21:25:33Z</time></trkpt><trkpt lat="59.5600301586" lon="31.2636409421"><ele>230.37</ele><time>2026-09-02T21:25:34Z</time></trkpt><trkpt lat="59.5600307453" lon="31.2636416964"><ele>230.37</ele><time>2026-09-02T21:25:35Z</time></trkpt><trkpt lat="59.5600310806" lon="31.2636423670"><ele>230.37</ele><time>2026-09-02T21:25:36Z</time></trkpt><trkpt lat="59.5600317512" lon="31.2636430375"><ele>230.37</ele><time>2026-09-02T21:25:37Z</time></trkpt><trkpt lat="59.5600320864" lon="31.2636436243"><ele>230.37</ele><time>2026-09-02T21:25:38Z</time></trkpt><trkpt lat="59.5600322541" lon="31.2636441272"><ele>230.37</ele><time>2026-09-02T21:25:39Z</time></trkpt><trkpt lat="59.5600309968" lon="31.2636432890"><ele>230.37</ele><time>2026-09-02T21:25:40Z</time></trkpt><trkpt lat="59.5600296557" lon="31.2636423670"><ele>230.37</ele><time>2026-09-02T21:25:41Z</time></trkpt><trkpt lat="59.5600301586" lon="31.2636406906"><ele>230.37</ele><time>2026-09-02T21:25:42Z</time></trkpt><trkpt lat="59.5600308292" lon="31.2636389304"><ele>230.85</ele><time>2026-09-02T21:25:43Z</time></trkpt><trkpt lat="59.5600310806" lon="31.2636359967"><ele>230.37</ele><time>2026-09-02T21:25:44Z</time></trkpt><trkpt lat="59.5600308292" lon="31.2636339851"><ele>230.37</ele><time>2026-09-02T21:25:45Z</time></trkpt><trkpt lat="59.5600308292" lon="31.2636312190"><ele>230.37</ele><time>2026-09-02T21:25:46Z</time></trkpt><trkpt lat="59.5600319188" lon="31.2636286207"><ele>230.37</ele><time>2026-09-02T21:25:47Z</time></trkpt><trkpt lat="59.5600309968" lon="31.2636310514"><ele>230.37</ele><time>2026-09-02T21:25:48Z</time></trkpt><trkpt lat="59.5600317512" lon="31.2636289559"><ele>230.37</ele><time>2026-09-02T21:25:49Z</time></trkpt><trkpt lat="59.5600324217" lon="31.2636291236"><ele>230.37</ele><time>2026-09-02T21:25:50Z</time></trkpt><trkpt lat="59.5600320864" lon="31.2636287883"><ele>230.37</ele><time>2026-09-02T21:25:51Z</time></trkpt><trkpt lat="59.5600301586" lon="31.2636270281"><ele>230.37</ele><time>2026-09-02T21:25:52Z</time></trkpt><trkpt lat="59.5600316674" lon="31.2636271957"><ele>230.37</ele><time>2026-09-02T21:25:53Z</time></trkpt><trkpt lat="59.5600330923" lon="31.2636299618"><ele>230.37</ele><time>2026-09-02T21:25:54Z</time></trkpt><trkpt lat="59.5600314997" lon="31.2636273634"><ele>230.37</ele><time>2026-09-02T21:25:55Z</time></trkpt><trkpt lat="59.5600256324" lon="31.2636295427"><ele>230.37</ele><time>2026-09-02T21:25:56Z</time></trkpt><trkpt lat="59.5600245427" lon="31.2636301294"><ele>230.37</ele><time>2026-09-02T21:25:57Z</time></trkpt><trkpt lat="59.5600247942" lon="31.2636322249"><ele>230.37</ele><time>2026-09-02T21:25:58Z</time></trkpt><trkpt lat="59.5600237884" lon="31.2636325601"><ele>230.37</ele><time>2026-09-02T21:25:59Z</time></trkpt><trkpt lat="59.5600241236" lon="31.2636318896"><ele>230.85</ele><time>2026-09-02T21:26:00Z</time></trkpt><trkpt lat="59.5600231178" lon="31.2636322249"><ele>230.85</ele><time>2026-09-02T21:26:01Z</time></trkpt><trkpt lat="59.5600223634" lon="31.2636312190"><ele>230.85</ele><time>2026-09-02T21:26:02Z</time></trkpt><trkpt lat="59.5600207709" lon="31.2636306323"><ele>230.85</ele><time>2026-09-02T21:26:03Z</time></trkpt><trkpt lat="59.5600188430" lon="31.2636304647"><ele>230.85</ele><time>2026-09-02T21:26:04Z</time></trkpt><trkpt lat="59.5600165799" lon="31.2636318896"><ele>230.85</ele><time>2026-09-02T21:26:05Z</time></trkpt><trkpt lat="59.5600151550" lon="31.2636314705"><ele>230.85</ele><time>2026-09-02T21:26:06Z</time></trkpt><trkpt lat="59.5600135624" lon="31.2636322249"><ele>230.85</ele><time>2026-09-02T21:26:07Z</time></trkpt><trkpt lat="59.5600120537" lon="31.2636328954"><ele>230.85</ele><time>2026-09-02T21:26:08Z</time></trkpt><trkpt lat="59.5600104611" lon="31.2636327278"><ele>230.85</ele><time>2026-09-02T21:26:09Z</time></trkpt><trkpt lat="59.5600089524" lon="31.2636314705"><ele>230.85</ele><time>2026-09-02T21:26:10Z</time></trkpt><trkpt lat="59.5600069407" lon="31.2636288721"><ele>230.85</ele><time>2026-09-02T21:26:11Z</time></trkpt><trkpt lat="59.5600048453" lon="31.2636251841"><ele>230.85</ele><time>2026-09-02T21:26:12Z</time></trkpt><trkpt lat="59.5600020792" lon="31.2636210769"><ele>230.85</ele><time>2026-09-02T21:26:13Z</time></trkpt><trkpt lat="59.5599986427" lon="31.2636096776"><ele>230.85</ele><time>2026-09-02T21:26:14Z</time></trkpt><trkpt lat="59.5599951223" lon="31.2635970209"><ele>230.85</ele><time>2026-09-02T21:26:15Z</time></trkpt><trkpt lat="59.5599922724" lon="31.2635845318"><ele>230.85</ele><time>2026-09-02T21:26:16Z</time></trkpt><trkpt lat="59.5599910989" lon="31.2635672651"><ele>230.85</ele><time>2026-09-02T21:26:17Z</time></trkpt><trkpt lat="59.5599894226" lon="31.2635548599"><ele>230.85</ele><time>2026-09-02T21:26:18Z</time></trkpt><trkpt lat="59.5599863213" lon="31.2635442987"><ele>230.37</ele><time>2026-09-02T21:26:19Z</time></trkpt><trkpt lat="59.5599807892" lon="31.2635304686"><ele>230.37</ele><time>2026-09-02T21:26:20Z</time></trkpt><trkpt lat="59.5599760953" lon="31.2635197397"><ele>230.37</ele><time>2026-09-02T21:26:21Z</time></trkpt><trkpt lat="59.5599726588" lon="31.2635125313"><ele>230.37</ele><time>2026-09-02T21:26:22Z</time></trkpt><trkpt lat="59.5599661209" lon="31.2634981982"><ele>230.37</ele><time>2026-09-02T21:26:23Z</time></trkpt><trkpt lat="59.5599606726" lon="31.2634855416"><ele>230.37</ele><time>2026-09-02T21:26:24Z</time></trkpt><trkpt lat="59.5599579904" lon="31.2634739745"><ele>230.37</ele><time>2026-09-02T21:26:25Z</time></trkpt><trkpt lat="59.5599541347" lon="31.2634598929"><ele>230.37</ele><time>2026-09-02T21:26:26Z</time></trkpt><trkpt lat="59.5599487703" lon="31.2634432968"><ele>230.37</ele><time>2026-09-02T21:26:27Z</time></trkpt><trkpt lat="59.5599421486" lon="31.2634322327"><ele>230.37</ele><time>2026-09-02T21:26:28Z</time></trkpt><trkpt lat="59.5599353593" lon="31.2634221744"><ele>230.37</ele><time>2026-09-02T21:26:29Z</time></trkpt><trkpt lat="59.5599290729" lon="31.2634147983"><ele>230.37</ele><time>2026-09-02T21:26:30Z</time></trkpt><trkpt lat="59.5599208586" lon="31.2634085957"><ele>230.37</ele><time>2026-09-02T21:26:31Z</time></trkpt><trkpt lat="59.5599124767" lon="31.2634002976"><ele>230.37</ele><time>2026-09-02T21:26:32Z</time></trkpt><trkpt lat="59.5599057712" lon="31.2633900717"><ele>230.37</ele><time>2026-09-02T21:26:33Z</time></trkpt><trkpt lat="59.5599005744" lon="31.2633807678"><ele>230.37</ele><time>2026-09-02T21:26:34Z</time></trkpt><trkpt lat="59.5598976407" lon="31.2633685302"><ele>230.37</ele><time>2026-09-02T21:26:35Z</time></trkpt><trkpt lat="59.5598927792" lon="31.2633528560"><ele>230.37</ele><time>2026-09-02T21:26:36Z</time></trkpt><trkpt lat="59.5598887559" lon="31.2633414567"><ele>230.37</ele><time>2026-09-02T21:26:37Z</time></trkpt><trkpt lat="59.5598852355" lon="31.2633320689"><ele>230.37</ele><time>2026-09-02T21:26:38Z</time></trkpt><trkpt lat="59.5598824695" lon="31.2633240223"><ele>230.37</ele><time>2026-09-02T21:26:39Z</time></trkpt><trkpt lat="59.5598761830" lon="31.2633154728"><ele>230.37</ele><time>2026-09-02T21:26:40Z</time></trkpt><trkpt lat="59.5598720759" lon="31.2633081805"><ele>230.37</ele><time>2026-09-02T21:26:41Z</time></trkpt><trkpt lat="59.5598654542" lon="31.2632965297"><ele>230.37</ele><time>2026-09-02T21:26:42Z</time></trkpt><trkpt lat="59.5598591678" lon="31.2632873934"><ele>230.37</ele><time>2026-09-02T21:26:43Z</time></trkpt><trkpt lat="59.5598512888" lon="31.2632801849"><ele>230.37</ele><time>2026-09-02T21:26:44Z</time></trkpt><trkpt lat="59.5598434936" lon="31.2632716354"><ele>230.37</ele><time>2026-09-02T21:26:45Z</time></trkpt><trkpt lat="59.5598382968" lon="31.2632646784"><ele>230.37</ele><time>2026-09-02T21:26:46Z</time></trkpt><trkpt lat="59.5598324295" lon="31.2632590625"><ele>230.37</ele><time>2026-09-02T21:26:47Z</time></trkpt><trkpt lat="59.5598249696" lon="31.2632545363"><ele>230.37</ele><time>2026-09-02T21:26:48Z</time></trkpt><trkpt lat="59.5598150790" lon="31.2632518541"><ele>230.37</ele><time>2026-09-02T21:26:49Z</time></trkpt><trkpt lat="59.5598079544" lon="31.2632475793"><ele>230.37</ele><time>2026-09-02T21:26:50Z</time></trkpt><trkpt lat="59.5598024223" lon="31.2632406224"><ele>230.37</ele><time>2026-09-02T21:26:51Z</time></trkpt><trkpt lat="59.5597935375" lon="31.2632356770"><ele>230.37</ele><time>2026-09-02T21:26:52Z</time></trkpt><trkpt lat="59.5597866643" lon="31.2632363476"><ele>230.37</ele><time>2026-09-02T21:26:53Z</time></trkpt><trkpt lat="59.5597806294" lon="31.2632313184"><ele>230.37</ele><time>2026-09-02T21:26:54Z</time></trkpt><trkpt lat="59.5597768575" lon="31.2632263731"><ele>230.37</ele><time>2026-09-02T21:26:55Z</time></trkpt><trkpt lat="59.5597707387" lon="31.2632179912"><ele>230.37</ele><time>2026-09-02T21:26:56Z</time></trkpt><trkpt lat="59.5597655419" lon="31.2632068433"><ele>230.37</ele><time>2026-09-02T21:26:57Z</time></trkpt><trkpt lat="59.5597623568" lon="31.2632030714"><ele>230.37</ele><time>2026-09-02T21:26:58Z</time></trkpt><trkpt lat="59.5597617701" lon="31.2632024847"><ele>230.37</ele><time>2026-09-02T21:26:59Z</time></trkpt><trkpt lat="59.5597644523" lon="31.2632002216"><ele>230.37</ele><time>2026-09-02T21:27:00Z</time></trkpt><trkpt lat="59.5597644523" lon="31.2631954439"><ele>230.37</ele><time>2026-09-02T21:27:01Z</time></trkpt><trkpt lat="59.5597645361" lon="31.2631960306"><ele>230.37</ele><time>2026-09-02T21:27:02Z</time></trkpt><trkpt lat="59.5597654581" lon="31.2631900795"><ele>230.37</ele><time>2026-09-02T21:27:03Z</time></trkpt><trkpt lat="59.5597677212" lon="31.2631876487"><ele>230.37</ele><time>2026-09-02T21:27:04Z</time></trkpt><trkpt lat="59.5597717445" lon="31.2631793506"><ele>230.37</ele><time>2026-09-02T21:27:05Z</time></trkpt><trkpt lat="59.5597704872" lon="31.2631711364"><ele>230.37</ele><time>2026-09-02T21:27:06Z</time></trkpt><trkpt lat="59.5597702358" lon="31.2631648500"><ele>230.37</ele><time>2026-09-02T21:27:07Z</time></trkpt><trkpt lat="59.5597660448" lon="31.2631626707"><ele>230.37</ele><time>2026-09-02T21:27:08Z</time></trkpt><trkpt lat="59.5597645361" lon="31.2631542888"><ele>230.37</ele><time>2026-09-02T21:27:09Z</time></trkpt><trkpt lat="59.5597613510" lon="31.2631480861"><ele>230.37</ele><time>2026-09-02T21:27:10Z</time></trkpt><trkpt lat="59.5597591717" lon="31.2631414644"><ele>230.37</ele><time>2026-09-02T21:27:11Z</time></trkpt><trkpt lat="59.5597592555" lon="31.2631438952"><ele>230.37</ele><time>2026-09-02T21:27:12Z</time></trkpt><trkpt lat="59.5597584173" lon="31.2631349266"><ele>230.37</ele><time>2026-09-02T21:27:13Z</time></trkpt><trkpt lat="59.5597553998" lon="31.2631192524"><ele>230.37</ele><time>2026-09-02T21:27:14Z</time></trkpt><trkpt lat="59.5597538911" lon="31.2631070986"><ele>230.37</ele><time>2026-09-02T21:27:15Z</time></trkpt><trkpt lat="59.5597526338" lon="31.2630966213"><ele>230.37</ele><time>2026-09-02T21:27:16Z</time></trkpt><trkpt lat="59.5597504545" lon="31.2630876526"><ele>230.37</ele><time>2026-09-02T21:27:17Z</time></trkpt><trkpt lat="59.5597439166" lon="31.2630810309"><ele>230.37</ele><time>2026-09-02T21:27:18Z</time></trkpt><trkpt lat="59.5597388875" lon="31.2630712241"><ele>230.37</ele><time>2026-09-02T21:27:19Z</time></trkpt><trkpt lat="59.5597343612" lon="31.2630625907"><ele>230.37</ele><time>2026-09-02T21:27:20Z</time></trkpt><trkpt lat="59.5597306732" lon="31.2630532868"><ele>230.37</ele><time>2026-09-02T21:27:21Z</time></trkpt><trkpt lat="59.5597294997" lon="31.2630487606"><ele>230.37</ele><time>2026-09-02T21:27:22Z</time></trkpt><trkpt lat="59.5597260632" lon="31.2630431447"><ele>230.37</ele><time>2026-09-02T21:27:23Z</time></trkpt><trkpt lat="59.5597249735" lon="31.2630398758"><ele>230.37</ele><time>2026-09-02T21:27:24Z</time></trkpt><trkpt lat="59.5597246382" lon="31.2630394567"><ele>230.37</ele><time>2026-09-02T21:27:25Z</time></trkpt><trkpt lat="59.5597244706" lon="31.2630355172"><ele>230.37</ele><time>2026-09-02T21:27:26Z</time></trkpt><trkpt lat="59.5597262308" lon="31.2630370259"><ele>230.37</ele><time>2026-09-02T21:27:27Z</time></trkpt><trkpt lat="59.5597263984" lon="31.2630403787"><ele>230.37</ele><time>2026-09-02T21:27:28Z</time></trkpt><trkpt lat="59.5597249735" lon="31.2630398758"><ele>230.37</ele><time>2026-09-02T21:27:29Z</time></trkpt><trkpt lat="59.5597235486" lon="31.2630371936"><ele>230.37</ele><time>2026-09-02T21:27:30Z</time></trkpt><trkpt lat="59.5597218722" lon="31.2630352657"><ele>230.37</ele><time>2026-09-02T21:27:31Z</time></trkpt><trkpt lat="59.5597215369" lon="31.2630328350"><ele>230.37</ele><time>2026-09-02T21:27:32Z</time></trkpt><trkpt lat="59.5597206987" lon="31.2630303204"><ele>230.37</ele><time>2026-09-02T21:27:33Z</time></trkpt><trkpt lat="59.5597182680" lon="31.2630272191"><ele>230.37</ele><time>2026-09-02T21:27:34Z</time></trkpt><trkpt lat="59.5597170945" lon="31.2630249560"><ele>230.37</ele><time>2026-09-02T21:27:35Z</time></trkpt><trkpt lat="59.5597126521" lon="31.2630162388"><ele>230.37</ele><time>2026-09-02T21:27:36Z</time></trkpt><trkpt lat="59.5597091317" lon="31.2630097847"><ele>230.37</ele><time>2026-09-02T21:27:37Z</time></trkpt><trkpt lat="59.5597046893" lon="31.2630031630"><ele>230.37</ele><time>2026-09-02T21:27:38Z</time></trkpt><trkpt lat="59.5597039349" lon="31.2629984692"><ele>230.37</ele><time>2026-09-02T21:27:39Z</time></trkpt><trkpt lat="59.5597001631" lon="31.2629931886"><ele>230.37</ele><time>2026-09-02T21:27:40Z</time></trkpt><trkpt lat="59.5596953854" lon="31.2629903387"><ele>230.37</ele><time>2026-09-02T21:27:41Z</time></trkpt><trkpt lat="59.5596915297" lon="31.2629868183"><ele>230.37</ele><time>2026-09-02T21:27:42Z</time></trkpt><trkpt lat="59.5596917812" lon="31.2629877403"><ele>230.37</ele><time>2026-09-02T21:27:43Z</time></trkpt><trkpt lat="59.5596863329" lon="31.2629910931"><ele>230.37</ele><time>2026-09-02T21:27:44Z</time></trkpt><trkpt lat="59.5596806332" lon="31.2629926857"><ele>230.37</ele><time>2026-09-02T21:27:45Z</time></trkpt><trkpt lat="59.5596740954" lon="31.2629959546"><ele>230.37</ele><time>2026-09-02T21:27:46Z</time></trkpt><trkpt lat="59.5596666355" lon="31.2629910931"><ele>230.37</ele><time>2026-09-02T21:27:47Z</time></trkpt><trkpt lat="59.5596630313" lon="31.2629926857"><ele>230.37</ele><time>2026-09-02T21:27:48Z</time></trkpt><trkpt lat="59.5596634503" lon="31.2629903387"><ele>230.37</ele><time>2026-09-02T21:27:49Z</time></trkpt><trkpt lat="59.5596629474" lon="31.2629884947"><ele>230.85</ele><time>2026-09-02T21:27:50Z</time></trkpt><trkpt lat="59.5596619416" lon="31.2629856449"><ele>230.85</ele><time>2026-09-02T21:27:51Z</time></trkpt><trkpt lat="59.5596618578" lon="31.2629850581"><ele>230.85</ele><time>2026-09-02T21:27:52Z</time></trkpt><trkpt lat="59.5596612711" lon="31.2629843876"><ele>230.85</ele><time>2026-09-02T21:27:53Z</time></trkpt><trkpt lat="59.5596613549" lon="31.2629847229"><ele>230.85</ele><time>2026-09-02T21:27:54Z</time></trkpt><trkpt lat="59.5596610196" lon="31.2629855610"><ele>230.85</ele><time>2026-09-02T21:27:55Z</time></trkpt><trkpt lat="59.5596609358" lon="31.2629843876"><ele>230.85</ele><time>2026-09-02T21:27:56Z</time></trkpt><trkpt lat="59.5596605167" lon="31.2629833817"><ele>230.85</ele><time>2026-09-02T21:27:57Z</time></trkpt><trkpt lat="59.5596599299" lon="31.2629828788"><ele>230.85</ele><time>2026-09-02T21:27:58Z</time></trkpt><trkpt lat="59.5596594270" lon="31.2629821245"><ele>230.85</ele><time>2026-09-02T21:27:59Z</time></trkpt><trkpt lat="59.5596571639" lon="31.2629786879"><ele>230.85</ele><time>2026-09-02T21:28:00Z</time></trkpt><trkpt lat="59.5596579183" lon="31.2629718985"><ele>230.85</ele><time>2026-09-02T21:28:01Z</time></trkpt><trkpt lat="59.5596548170" lon="31.2629681267"><ele>230.85</ele><time>2026-09-02T21:28:02Z</time></trkpt><trkpt lat="59.5596538950" lon="31.2629655283"><ele>230.85</ele><time>2026-09-02T21:28:03Z</time></trkpt><trkpt lat="59.5596537273" lon="31.2629660312"><ele>230.85</ele><time>2026-09-02T21:28:04Z</time></trkpt><trkpt lat="59.5596532244" lon="31.2629657798"><ele>230.85</ele><time>2026-09-02T21:28:05Z</time></trkpt><trkpt lat="59.5596533921" lon="31.2629670370"><ele>230.85</ele><time>2026-09-02T21:28:06Z</time></trkpt><trkpt lat="59.5596531406" lon="31.2629664503"><ele>231.33</ele><time>2026-09-02T21:28:07Z</time></trkpt><trkpt lat="59.5596529730" lon="31.2629658636"><ele>231.33</ele><time>2026-09-02T21:28:08Z</time></trkpt><trkpt lat="59.5596530568" lon="31.2629650254"><ele>231.33</ele><time>2026-09-02T21:28:09Z</time></trkpt><trkpt lat="59.5596530568" lon="31.2629638519"><ele>231.33</ele><time>2026-09-02T21:28:10Z</time></trkpt><trkpt lat="59.5596536435" lon="31.2629622594"><ele>231.33</ele><time>2026-09-02T21:28:11Z</time></trkpt><trkpt lat="59.5596536435" lon="31.2629607506"><ele>231.33</ele><time>2026-09-02T21:28:12Z</time></trkpt><trkpt lat="59.5596534759" lon="31.2629592419"><ele>231.33</ele><time>2026-09-02T21:28:13Z</time></trkpt><trkpt lat="59.5596534759" lon="31.2629587390"><ele>231.33</ele><time>2026-09-02T21:28:14Z</time></trkpt><trkpt lat="59.5596531406" lon="31.2629579846"><ele>231.33</ele><time>2026-09-02T21:28:15Z</time></trkpt><trkpt lat="59.5596533921" lon="31.2629582360"><ele>231.33</ele><time>2026-09-02T21:28:16Z</time></trkpt><trkpt lat="59.5596530568" lon="31.2629576493"><ele>231.33</ele><time>2026-09-02T21:28:17Z</time></trkpt><trkpt lat="59.5596529730" lon="31.2629577331"><ele>231.33</ele><time>2026-09-02T21:28:18Z</time></trkpt><trkpt lat="59.5596529730" lon="31.2629575655"><ele>231.33</ele><time>2026-09-02T21:28:19Z</time></trkpt><trkpt lat="59.5596536435" lon="31.2629581522"><ele>231.33</ele><time>2026-09-02T21:28:20Z</time></trkpt><trkpt lat="59.5596542303" lon="31.2629582360"><ele>231.33</ele><time>2026-09-02T21:28:21Z</time></trkpt><trkpt lat="59.5596525539" lon="31.2629571464"><ele>231.33</ele><time>2026-09-02T21:28:22Z</time></trkpt><trkpt lat="59.5596534759" lon="31.2629569788"><ele>231.33</ele><time>2026-09-02T21:28:23Z</time></trkpt><trkpt lat="59.5596533921" lon="31.2629557215"><ele>231.33</ele><time>2026-09-02T21:28:24Z</time></trkpt><trkpt lat="59.5596541464" lon="31.2629552186"><ele>231.33</ele><time>2026-09-02T21:28:25Z</time></trkpt><trkpt lat="59.5596536435" lon="31.2629568949"><ele>231.33</ele><time>2026-09-02T21:28:26Z</time></trkpt><trkpt lat="59.5596513804" lon="31.2629568949"><ele>231.33</ele><time>2026-09-02T21:28:27Z</time></trkpt><trkpt lat="59.5596525539" lon="31.2629586551"><ele>231.33</ele><time>2026-09-02T21:28:28Z</time></trkpt><trkpt lat="59.5596512966" lon="31.2629591580"><ele>231.33</ele><time>2026-09-02T21:28:29Z</time></trkpt><trkpt lat="59.5596503746" lon="31.2629596610"><ele>231.33</ele><time>2026-09-02T21:28:30Z</time></trkpt><trkpt lat="59.5596482791" lon="31.2629613373"><ele>231.33</ele><time>2026-09-02T21:28:31Z</time></trkpt><trkpt lat="59.5596421603" lon="31.2629656959"><ele>231.33</ele><time>2026-09-02T21:28:32Z</time></trkpt><trkpt lat="59.5596361253" lon="31.2629656959"><ele>231.33</ele><time>2026-09-02T21:28:33Z</time></trkpt><trkpt lat="59.5596312638" lon="31.2629696354"><ele>231.33</ele><time>2026-09-02T21:28:34Z</time></trkpt><trkpt lat="59.5596259832" lon="31.2629728206"><ele>231.33</ele><time>2026-09-02T21:28:35Z</time></trkpt><trkpt lat="59.5596221276" lon="31.2629761733"><ele>231.33</ele><time>2026-09-02T21:28:36Z</time></trkpt><trkpt lat="59.5596145838" lon="31.2629793584"><ele>231.33</ele><time>2026-09-02T21:28:37Z</time></trkpt><trkpt lat="59.5596098900" lon="31.2629885785"><ele>231.33</ele><time>2026-09-02T21:28:38Z</time></trkpt><trkpt lat="59.5596036874" lon="31.2629945297"><ele>231.81</ele><time>2026-09-02T21:28:39Z</time></trkpt><trkpt lat="59.5595976524" lon="31.2630019896"><ele>231.81</ele><time>2026-09-02T21:28:40Z</time></trkpt><trkpt lat="59.5595946349" lon="31.2630058452"><ele>231.81</ele><time>2026-09-02T21:28:41Z</time></trkpt><trkpt lat="59.5595905278" lon="31.2630072702"><ele>231.81</ele><time>2026-09-02T21:28:42Z</time></trkpt><trkpt lat="59.5595878456" lon="31.2630064320"><ele>231.81</ele><time>2026-09-02T21:28:43Z</time></trkpt><trkpt lat="59.5595860854" lon="31.2630047556"><ele>232.30</ele><time>2026-09-02T21:28:44Z</time></trkpt><trkpt lat="59.5595861692" lon="31.2630050909"><ele>232.30</ele><time>2026-09-02T21:28:45Z</time></trkpt><trkpt lat="59.5595844928" lon="31.2630044203"><ele>232.30</ele><time>2026-09-02T21:28:46Z</time></trkpt><trkpt lat="59.5595804695" lon="31.2630057614"><ele>232.30</ele><time>2026-09-02T21:28:47Z</time></trkpt><trkpt lat="59.5595740993" lon="31.2630011514"><ele>232.30</ele><time>2026-09-02T21:28:48Z</time></trkpt><trkpt lat="59.5595692378" lon="31.2629989721"><ele>232.30</ele><time>2026-09-02T21:28:49Z</time></trkpt><trkpt lat="59.5595671423" lon="31.2629956193"><ele>232.30</ele><time>2026-09-02T21:28:50Z</time></trkpt><trkpt lat="59.5595625322" lon="31.2629901711"><ele>232.30</ele><time>2026-09-02T21:28:51Z</time></trkpt><trkpt lat="59.5595596824" lon="31.2629864831"><ele>232.30</ele><time>2026-09-02T21:28:52Z</time></trkpt><trkpt lat="59.5595545694" lon="31.2629877403"><ele>232.78</ele><time>2026-09-02T21:28:53Z</time></trkpt><trkpt lat="59.5595517196" lon="31.2629880756"><ele>232.78</ele><time>2026-09-02T21:28:54Z</time></trkpt><trkpt lat="59.5595479477" lon="31.2629933562"><ele>232.78</ele><time>2026-09-02T21:28:55Z</time></trkpt><trkpt lat="59.5595461875" lon="31.2629973795"><ele>232.78</ele><time>2026-09-02T21:28:56Z</time></trkpt><trkpt lat="59.5595428348" lon="31.2630012352"><ele>233.26</ele><time>2026-09-02T21:28:57Z</time></trkpt><trkpt lat="59.5595448464" lon="31.2630014867"><ele>233.26</ele><time>2026-09-02T21:28:58Z</time></trkpt><trkpt lat="59.5595424995" lon="31.2630061805"><ele>233.26</ele><time>2026-09-02T21:28:59Z</time></trkpt><trkpt lat="59.5595407393" lon="31.2630095333"><ele>233.26</ele><time>2026-09-02T21:29:00Z</time></trkpt><trkpt lat="59.5595381409" lon="31.2630140595"><ele>233.26</ele><time>2026-09-02T21:29:01Z</time></trkpt><trkpt lat="59.5595355425" lon="31.2630206812"><ele>233.26</ele><time>2026-09-02T21:29:02Z</time></trkpt><trkpt lat="59.5595327765" lon="31.2630251236"><ele>233.26</ele><time>2026-09-02T21:29:03Z</time></trkpt><trkpt lat="59.5595300943" lon="31.2630302366"><ele>233.26</ele><time>2026-09-02T21:29:04Z</time></trkpt><trkpt lat="59.5595265739" lon="31.2630385347"><ele>233.26</ele><time>2026-09-02T21:29:05Z</time></trkpt><trkpt lat="59.5595244784" lon="31.2630496826"><ele>233.26</ele><time>2026-09-02T21:29:06Z</time></trkpt><trkpt lat="59.5595250651" lon="31.2630584836"><ele>233.26</ele><time>2026-09-02T21:29:07Z</time></trkpt><trkpt lat="59.5595249813" lon="31.2630691286"><ele>233.26</ele><time>2026-09-02T21:29:08Z</time></trkpt><trkpt lat="59.5595251489" lon="31.2630819529"><ele>233.26</ele><time>2026-09-02T21:29:09Z</time></trkpt><trkpt lat="59.5595232211" lon="31.2630964536"><ele>233.26</ele><time>2026-09-02T21:29:10Z</time></trkpt><trkpt lat="59.5595191978" lon="31.2631079368"><ele>233.26</ele><time>2026-09-02T21:29:11Z</time></trkpt><trkpt lat="59.5595171861" lon="31.2631101999"><ele>233.26</ele><time>2026-09-02T21:29:12Z</time></trkpt><trkpt lat="59.5595147554" lon="31.2631186657"><ele>233.26</ele><time>2026-09-02T21:29:13Z</time></trkpt><trkpt lat="59.5595116541" lon="31.2631264608"><ele>232.78</ele><time>2026-09-02T21:29:14Z</time></trkpt><trkpt lat="59.5595099777" lon="31.2631316576"><ele>232.78</ele><time>2026-09-02T21:29:15Z</time></trkpt><trkpt lat="59.5595109835" lon="31.2631282210"><ele>232.78</ele><time>2026-09-02T21:29:16Z</time></trkpt><trkpt lat="59.5595115703" lon="31.2631326634"><ele>232.78</ele><time>2026-09-02T21:29:17Z</time></trkpt><trkpt lat="59.5595098939" lon="31.2631355971"><ele>232.78</ele><time>2026-09-02T21:29:18Z</time></trkpt><trkpt lat="59.5595048647" lon="31.2631417997"><ele>232.78</ele><time>2026-09-02T21:29:19Z</time></trkpt><trkpt lat="59.5595019311" lon="31.2631499302"><ele>232.78</ele><time>2026-09-02T21:29:20Z</time></trkpt><trkpt lat="59.5594994165" lon="31.2631569710"><ele>232.78</ele><time>2026-09-02T21:29:21Z</time></trkpt><trkpt lat="59.5594955608" lon="31.2631638441"><ele>232.78</ele><time>2026-09-02T21:29:22Z</time></trkpt><trkpt lat="59.5594899449" lon="31.2631739862"><ele>232.78</ele><time>2026-09-02T21:29:23Z</time></trkpt><trkpt lat="59.5594854187" lon="31.2631837931"><ele>232.78</ele><time>2026-09-02T21:29:24Z</time></trkpt><trkpt lat="59.5594792999" lon="31.2631894927"><ele>232.78</ele><time>2026-09-02T21:29:25Z</time></trkpt><trkpt lat="59.5594763663" lon="31.2631943543"><ele>232.78</ele><time>2026-09-02T21:29:26Z</time></trkpt><trkpt lat="59.5594729297" lon="31.2632003892"><ele>232.78</ele><time>2026-09-02T21:29:27Z</time></trkpt><trkpt lat="59.5594719239" lon="31.2632033229"><ele>232.78</ele><time>2026-09-02T21:29:28Z</time></trkpt><trkpt lat="59.5594717562" lon="31.2632055860"><ele>232.78</ele><time>2026-09-02T21:29:29Z</time></trkpt><trkpt lat="59.5594694931" lon="31.2632075977"><ele>233.26</ele><time>2026-09-02T21:29:30Z</time></trkpt><trkpt lat="59.5594665594" lon="31.2632118724"><ele>233.26</ele><time>2026-09-02T21:29:31Z</time></trkpt><trkpt lat="59.5594596863" lon="31.2632173207"><ele>233.26</ele><time>2026-09-02T21:29:32Z</time></trkpt><trkpt lat="59.5594555791" lon="31.2632229365"><ele>233.26</ele><time>2026-09-02T21:29:33Z</time></trkpt><trkpt lat="59.5594488736" lon="31.2632302288"><ele>233.26</ele><time>2026-09-02T21:29:34Z</time></trkpt><trkpt lat="59.5594487898" lon="31.2632423826"><ele>233.26</ele><time>2026-09-02T21:29:35Z</time></trkpt><trkpt lat="59.5594494604" lon="31.2632582244"><ele>232.78</ele><time>2026-09-02T21:29:36Z</time></trkpt><trkpt lat="59.5594487898" lon="31.2632681988"><ele>232.78</ele><time>2026-09-02T21:29:37Z</time></trkpt><trkpt lat="59.5594447665" lon="31.2632766645"><ele>232.78</ele><time>2026-09-02T21:29:38Z</time></trkpt><trkpt lat="59.5594415814" lon="31.2632849626"><ele>232.78</ele><time>2026-09-02T21:29:39Z</time></trkpt><trkpt lat="59.5594396535" lon="31.2632947695"><ele>232.78</ele><time>2026-09-02T21:29:40Z</time></trkpt><trkpt lat="59.5594385639" lon="31.2633036543"><ele>232.78</ele><time>2026-09-02T21:29:41Z</time></trkpt><trkpt lat="59.5594367199" lon="31.2633102760"><ele>232.78</ele><time>2026-09-02T21:29:42Z</time></trkpt><trkpt lat="59.5594377257" lon="31.2633095216"><ele>232.78</ele><time>2026-09-02T21:29:43Z</time></trkpt><trkpt lat="59.5594356302" lon="31.2633159757"><ele>232.78</ele><time>2026-09-02T21:29:44Z</time></trkpt><trkpt lat="59.5594337862" lon="31.2633179873"><ele>232.78</ele><time>2026-09-02T21:29:45Z</time></trkpt><trkpt lat="59.5594304334" lon="31.2633240223"><ele>232.78</ele><time>2026-09-02T21:29:46Z</time></trkpt><trkpt lat="59.5594264939" lon="31.2633309793"><ele>232.78</ele><time>2026-09-02T21:29:47Z</time></trkpt><trkpt lat="59.5594238956" lon="31.2633392774"><ele>232.78</ele><time>2026-09-02T21:29:48Z</time></trkpt><trkpt lat="59.5594210457" lon="31.2633485813"><ele>232.78</ele><time>2026-09-02T21:29:49Z</time></trkpt><trkpt lat="59.5594215486" lon="31.2633590586"><ele>232.78</ele><time>2026-09-02T21:29:50Z</time></trkpt><trkpt lat="59.5594179444" lon="31.2633762415"><ele>232.78</ele><time>2026-09-02T21:29:51Z</time></trkpt><trkpt lat="59.5594145916" lon="31.2633868866"><ele>232.78</ele><time>2026-09-02T21:29:52Z</time></trkpt><trkpt lat="59.5594153460" lon="31.2634011358"><ele>232.78</ele><time>2026-09-02T21:29:53Z</time></trkpt><trkpt lat="59.5594142564" lon="31.2634200789"><ele>232.78</ele><time>2026-09-02T21:29:54Z</time></trkpt><trkpt lat="59.5594157651" lon="31.2634332385"><ele>232.78</ele><time>2026-09-02T21:29:55Z</time></trkpt><trkpt lat="59.5594154298" lon="31.2634480745"><ele>232.78</ele><time>2026-09-02T21:29:56Z</time></trkpt><trkpt lat="59.5594125800" lon="31.2634589709"><ele>232.78</ele><time>2026-09-02T21:29:57Z</time></trkpt><trkpt lat="59.5594106521" lon="31.2634673528"><ele>232.78</ele><time>2026-09-02T21:29:58Z</time></trkpt><trkpt lat="59.5594079699" lon="31.2634727173"><ele>232.78</ele><time>2026-09-02T21:29:59Z</time></trkpt><trkpt lat="59.5594045334" lon="31.2634794228"><ele>232.78</ele><time>2026-09-02T21:30:00Z</time></trkpt><trkpt lat="59.5593979955" lon="31.2634857930"><ele>232.78</ele><time>2026-09-02T21:30:01Z</time></trkpt><trkpt lat="59.5593923796" lon="31.2634916604"><ele>232.78</ele><time>2026-09-02T21:30:02Z</time></trkpt><trkpt lat="59.5593881886" lon="31.2634926662"><ele>232.30</ele><time>2026-09-02T21:30:03Z</time></trkpt><trkpt lat="59.5593854226" lon="31.2635006290"><ele>232.30</ele><time>2026-09-02T21:30:04Z</time></trkpt><trkpt lat="59.5593790524" lon="31.2635092624"><ele>232.30</ele><time>2026-09-02T21:30:05Z</time></trkpt><trkpt lat="59.5593714248" lon="31.2635173928"><ele>232.30</ele><time>2026-09-02T21:30:06Z</time></trkpt><trkpt lat="59.5593702514" lon="31.2635238469"><ele>232.78</ele><time>2026-09-02T21:30:07Z</time></trkpt><trkpt lat="59.5593694970" lon="31.2635352463"><ele>232.78</ele><time>2026-09-02T21:30:08Z</time></trkpt><trkpt lat="59.5593624562" lon="31.2635399401"><ele>232.78</ele><time>2026-09-02T21:30:09Z</time></trkpt><trkpt lat="59.5593564212" lon="31.2635465618"><ele>232.78</ele><time>2026-09-02T21:30:10Z</time></trkpt><trkpt lat="59.5593556669" lon="31.2635453884"><ele>232.78</ele><time>2026-09-02T21:30:11Z</time></trkpt><trkpt lat="59.5593496319" lon="31.2635482382"><ele>232.78</ele><time>2026-09-02T21:30:12Z</time></trkpt><trkpt lat="59.5593451895" lon="31.2635510881"><ele>232.78</ele><time>2026-09-02T21:30:13Z</time></trkpt><trkpt lat="59.5593382325" lon="31.2635563686"><ele>232.78</ele><time>2026-09-02T21:30:14Z</time></trkpt><trkpt lat="59.5593323652" lon="31.2635628227"><ele>232.78</ele><time>2026-09-02T21:30:15Z</time></trkpt><trkpt lat="59.5593263302" lon="31.2635689415"><ele>232.78</ele><time>2026-09-02T21:30:16Z</time></trkpt><trkpt lat="59.5593215525" lon="31.2635716237"><ele>232.78</ele><time>2026-09-02T21:30:17Z</time></trkpt><trkpt lat="59.5593134221" lon="31.2635711208"><ele>232.78</ele><time>2026-09-02T21:30:18Z</time></trkpt><trkpt lat="59.5593084767" lon="31.2635709532"><ele>232.78</ele><time>2026-09-02T21:30:19Z</time></trkpt><trkpt lat="59.5593018550" lon="31.2635525968"><ele>232.78</ele><time>2026-09-02T21:30:20Z</time></trkpt><trkpt lat="59.5592962392" lon="31.2635519262"><ele>232.78</ele><time>2026-09-02T21:30:21Z</time></trkpt><trkpt lat="59.5592822414" lon="31.2635564525"><ele>232.78</ele><time>2026-09-02T21:30:22Z</time></trkpt><trkpt lat="59.5592791401" lon="31.2635595538"><ele>232.78</ele><time>2026-09-02T21:30:23Z</time></trkpt><trkpt lat="59.5592747815" lon="31.2635601405"><ele>232.78</ele><time>2026-09-02T21:30:24Z</time></trkpt><trkpt lat="59.5592663996" lon="31.2635605596"><ele>232.78</ele><time>2026-09-02T21:30:25Z</time></trkpt><trkpt lat="59.5592590235" lon="31.2635578774"><ele>233.26</ele><time>2026-09-02T21:30:26Z</time></trkpt><trkpt lat="59.5592507254" lon="31.2635602243"><ele>233.26</ele><time>2026-09-02T21:30:27Z</time></trkpt><trkpt lat="59.5592443552" lon="31.2635625713"><ele>233.26</ele><time>2026-09-02T21:30:28Z</time></trkpt><trkpt lat="59.5592398290" lon="31.2635632418"><ele>233.26</ele><time>2026-09-02T21:30:29Z</time></trkpt><trkpt lat="59.5592335425" lon="31.2635680195"><ele>233.26</ele><time>2026-09-02T21:30:30Z</time></trkpt><trkpt lat="59.5592286810" lon="31.2635672651"><ele>233.26</ele><time>2026-09-02T21:30:31Z</time></trkpt><trkpt lat="59.5592229813" lon="31.2635799218"><ele>233.26</ele><time>2026-09-02T21:30:32Z</time></trkpt><trkpt lat="59.5592188742" lon="31.2635892257"><ele>233.26</ele><time>2026-09-02T21:30:33Z</time></trkpt><trkpt lat="59.5592138451" lon="31.2636002898"><ele>233.26</ele><time>2026-09-02T21:30:34Z</time></trkpt><trkpt lat="59.5592092350" lon="31.2636112701"><ele>233.26</ele><time>2026-09-02T21:30:35Z</time></trkpt><trkpt lat="59.5592041221" lon="31.2636245973"><ele>233.26</ele><time>2026-09-02T21:30:36Z</time></trkpt><trkpt lat="59.5591978356" lon="31.2636396848"><ele>233.26</ele><time>2026-09-02T21:30:37Z</time></trkpt><trkpt lat="59.5591910463" lon="31.2636475638"><ele>233.26</ele><time>2026-09-02T21:30:38Z</time></trkpt><trkpt lat="59.5591837540" lon="31.2636556942"><ele>233.26</ele><time>2026-09-02T21:30:39Z</time></trkpt><trkpt lat="59.5591753721" lon="31.2636633217"><ele>233.26</ele><time>2026-09-02T21:30:40Z</time></trkpt><trkpt lat="59.5591685828" lon="31.2636722904"><ele>233.26</ele><time>2026-09-02T21:30:41Z</time></trkpt><trkpt lat="59.5591688342" lon="31.2636852823"><ele>233.74</ele><time>2026-09-02T21:30:42Z</time></trkpt><trkpt lat="59.5591673255" lon="31.2636928260"><ele>233.74</ele><time>2026-09-02T21:30:43Z</time></trkpt><trkpt lat="59.5591670740" lon="31.2637052312"><ele>233.74</ele><time>2026-09-02T21:30:44Z</time></trkpt><trkpt lat="59.5591686666" lon="31.2637196481"><ele>233.74</ele><time>2026-09-02T21:30:45Z</time></trkpt><trkpt lat="59.5591679960" lon="31.2637323886"><ele>233.74</ele><time>2026-09-02T21:30:46Z</time></trkpt><trkpt lat="59.5591674931" lon="31.2637458835"><ele>233.74</ele><time>2026-09-02T21:30:47Z</time></trkpt><trkpt lat="59.5591659844" lon="31.2637582887"><ele>233.74</ele><time>2026-09-02T21:30:48Z</time></trkpt><trkpt lat="59.5591633860" lon="31.2637674250"><ele>233.74</ele><time>2026-09-02T21:30:49Z</time></trkpt><trkpt lat="59.5591603685" lon="31.2637749687"><ele>233.74</ele><time>2026-09-02T21:30:50Z</time></trkpt><trkpt lat="59.5591583569" lon="31.2637812551"><ele>233.74</ele><time>2026-09-02T21:30:51Z</time></trkpt><trkpt lat="59.5591564290" lon="31.2637899723"><ele>233.74</ele><time>2026-09-02T21:30:52Z</time></trkpt><trkpt lat="59.5591561776" lon="31.2637972645"><ele>233.74</ele><time>2026-09-02T21:30:53Z</time></trkpt><trkpt lat="59.5591560937" lon="31.2638024613"><ele>233.74</ele><time>2026-09-02T21:30:54Z</time></trkpt><trkpt lat="59.5591558423" lon="31.2638008688"><ele>233.74</ele><time>2026-09-02T21:30:55Z</time></trkpt><trkpt lat="59.5591565967" lon="31.2638073228"><ele>233.74</ele><time>2026-09-02T21:30:56Z</time></trkpt><trkpt lat="59.5591562614" lon="31.2638142798"><ele>233.74</ele><time>2026-09-02T21:30:57Z</time></trkpt><trkpt lat="59.5591571834" lon="31.2638217397"><ele>233.74</ele><time>2026-09-02T21:30:58Z</time></trkpt><trkpt lat="59.5591575187" lon="31.2638283614"><ele>233.74</ele><time>2026-09-02T21:30:59Z</time></trkpt><trkpt lat="59.5591578539" lon="31.2638346478"><ele>233.74</ele><time>2026-09-02T21:31:00Z</time></trkpt><trkpt lat="59.5591572672" lon="31.2638409343"><ele>233.74</ele><time>2026-09-02T21:31:01Z</time></trkpt><trkpt lat="59.5591575187" lon="31.2638470531"><ele>233.74</ele><time>2026-09-02T21:31:02Z</time></trkpt><trkpt lat="59.5591588598" lon="31.2638529204"><ele>233.74</ele><time>2026-09-02T21:31:03Z</time></trkpt><trkpt lat="59.5591601171" lon="31.2638655771"><ele>233.26</ele><time>2026-09-02T21:31:04Z</time></trkpt><trkpt lat="59.5591603685" lon="31.2638837658"><ele>233.26</ele><time>2026-09-02T21:31:05Z</time></trkpt><trkpt lat="59.5591604523" lon="31.2638925668"><ele>233.26</ele><time>2026-09-02T21:31:06Z</time></trkpt><trkpt lat="59.5591588598" lon="31.2638971768"><ele>233.26</ele><time>2026-09-02T21:31:07Z</time></trkpt><trkpt lat="59.5591576863" lon="31.2639018707"><ele>233.26</ele><time>2026-09-02T21:31:08Z</time></trkpt><trkpt lat="59.5591554232" lon="31.2639090791"><ele>233.26</ele><time>2026-09-02T21:31:09Z</time></trkpt><trkpt lat="59.5591543335" lon="31.2639239989"><ele>233.26</ele><time>2026-09-02T21:31:10Z</time></trkpt><trkpt lat="59.5591553394" lon="31.2639169581"><ele>233.26</ele><time>2026-09-02T21:31:11Z</time></trkpt><trkpt lat="59.5591560937" lon="31.2639235798"><ele>233.26</ele><time>2026-09-02T21:31:12Z</time></trkpt><trkpt lat="59.5591548365" lon="31.2639285251"><ele>232.78</ele><time>2026-09-02T21:31:13Z</time></trkpt><trkpt lat="59.5591491368" lon="31.2639301177"><ele>232.78</ele><time>2026-09-02T21:31:14Z</time></trkpt><trkpt lat="59.5591398329" lon="31.2639350630"><ele>232.78</ele><time>2026-09-02T21:31:15Z</time></trkpt><trkpt lat="59.5591338817" lon="31.2639435288"><ele>232.78</ele><time>2026-09-02T21:31:16Z</time></trkpt><trkpt lat="59.5591276791" lon="31.2639495637"><ele>232.78</ele><time>2026-09-02T21:31:17Z</time></trkpt><trkpt lat="59.5591191296" lon="31.2639566883"><ele>232.78</ele><time>2026-09-02T21:31:18Z</time></trkpt><trkpt lat="59.5591119211" lon="31.2639608793"><ele>232.78</ele><time>2026-09-02T21:31:19Z</time></trkpt><trkpt lat="59.5591050480" lon="31.2639638968"><ele>232.78</ele><time>2026-09-02T21:31:20Z</time></trkpt><trkpt lat="59.5590973366" lon="31.2639698479"><ele>232.78</ele><time>2026-09-02T21:31:21Z</time></trkpt><trkpt lat="59.5590885356" lon="31.2639749609"><ele>232.78</ele><time>2026-09-02T21:31:22Z</time></trkpt><trkpt lat="59.5590793993" lon="31.2639853545"><ele>232.78</ele><time>2026-09-02T21:31:23Z</time></trkpt><trkpt lat="59.5590739511" lon="31.2639965862"><ele>232.78</ele><time>2026-09-02T21:31:24Z</time></trkpt><trkpt lat="59.5590663236" lon="31.2640100811"><ele>232.78</ele><time>2026-09-02T21:31:25Z</time></trkpt><trkpt lat="59.5590605401" lon="31.2640238274"><ele>232.78</ele><time>2026-09-02T21:31:26Z</time></trkpt><trkpt lat="59.5590542536" lon="31.2640379928"><ele>232.78</ele><time>2026-09-02T21:31:27Z</time></trkpt><trkpt lat="59.5590476319" lon="31.2640460394"><ele>232.78</ele><time>2026-09-02T21:31:28Z</time></trkpt><trkpt lat="59.5590426866" lon="31.2640536670"><ele>232.78</ele><time>2026-09-02T21:31:29Z</time></trkpt><trkpt lat="59.5590369869" lon="31.2640551757"><ele>232.78</ele><time>2026-09-02T21:31:30Z</time></trkpt><trkpt lat="59.5590306167" lon="31.2640603725"><ele>232.78</ele><time>2026-09-02T21:31:31Z</time></trkpt><trkpt lat="59.5590231568" lon="31.2640661560"><ele>232.78</ele><time>2026-09-02T21:31:32Z</time></trkpt><trkpt lat="59.5590171218" lon="31.2640761305"><ele>232.78</ele><time>2026-09-02T21:31:33Z</time></trkpt><trkpt lat="59.5590115897" lon="31.2640810758"><ele>232.78</ele><time>2026-09-02T21:31:34Z</time></trkpt><trkpt lat="59.5590047166" lon="31.2640872784"><ele>232.78</ele><time>2026-09-02T21:31:35Z</time></trkpt><trkpt lat="59.5589988492" lon="31.2640959956"><ele>232.78</ele><time>2026-09-02T21:31:36Z</time></trkpt><trkpt lat="59.5589930657" lon="31.2641048804"><ele>232.78</ele><time>2026-09-02T21:31:37Z</time></trkpt><trkpt lat="59.5589862764" lon="31.2641092390"><ele>232.78</ele><time>2026-09-02T21:31:38Z</time></trkpt><trkpt lat="59.5589800738" lon="31.2641051318"><ele>232.78</ele><time>2026-09-02T21:31:39Z</time></trkpt><trkpt lat="59.5589738712" lon="31.2641086522"><ele>232.78</ele><time>2026-09-02T21:31:40Z</time></trkpt><trkpt lat="59.5589682553" lon="31.2641160283"><ele>233.26</ele><time>2026-09-02T21:31:41Z</time></trkpt><trkpt lat="59.5589607954" lon="31.2641153578"><ele>233.26</ele><time>2026-09-02T21:31:42Z</time></trkpt><trkpt lat="59.5589574426" lon="31.2641112506"><ele>233.26</ele><time>2026-09-02T21:31:43Z</time></trkpt><trkpt lat="59.5589554310" lon="31.2641066406"><ele>233.74</ele><time>2026-09-02T21:31:44Z</time></trkpt><trkpt lat="59.5589520782" lon="31.2641014438"><ele>233.74</ele><time>2026-09-02T21:31:45Z</time></trkpt><trkpt lat="59.5589463785" lon="31.2640997674"><ele>233.74</ele><time>2026-09-02T21:31:46Z</time></trkpt><trkpt lat="59.5589414332" lon="31.2640987616"><ele>234.22</ele><time>2026-09-02T21:31:47Z</time></trkpt><trkpt lat="59.5589373261" lon="31.2640972529"><ele>234.22</ele><time>2026-09-02T21:31:48Z</time></trkpt><trkpt lat="59.5589310396" lon="31.2640956603"><ele>234.22</ele><time>2026-09-02T21:31:49Z</time></trkpt><trkpt lat="59.5589260943" lon="31.2641023658"><ele>234.22</ele><time>2026-09-02T21:31:50Z</time></trkpt><trkpt lat="59.5589197241" lon="31.2641039584"><ele>234.70</ele><time>2026-09-02T21:31:51Z</time></trkpt><trkpt lat="59.5589127671" lon="31.2641099934"><ele>234.70</ele><time>2026-09-02T21:31:52Z</time></trkpt><trkpt lat="59.5589079894" lon="31.2641155254"><ele>234.70</ele><time>2026-09-02T21:31:53Z</time></trkpt><trkpt lat="59.5589029603" lon="31.2641155254"><ele>235.18</ele><time>2026-09-02T21:31:54Z</time></trkpt><trkpt lat="59.5588996913" lon="31.2641256675"><ele>235.18</ele><time>2026-09-02T21:31:55Z</time></trkpt><trkpt lat="59.5588968415" lon="31.2641369831"><ele>235.18</ele><time>2026-09-02T21:31:56Z</time></trkpt><trkpt lat="59.5588957518" lon="31.2641487177"><ele>235.18</ele><time>2026-09-02T21:31:57Z</time></trkpt><trkpt lat="59.5588944945" lon="31.2641609553"><ele>235.18</ele><time>2026-09-02T21:31:58Z</time></trkpt><trkpt lat="59.5588936564" lon="31.2641723547"><ele>235.18</ele><time>2026-09-02T21:31:59Z</time></trkpt><trkpt lat="59.5588937402" lon="31.2641777191"><ele>235.18</ele><time>2026-09-02T21:32:00Z</time></trkpt><trkpt lat="59.5588928182" lon="31.2641794793"><ele>235.18</ele><time>2026-09-02T21:32:01Z</time></trkpt><trkpt lat="59.5588915609" lon="31.2641801499"><ele>235.18</ele><time>2026-09-02T21:32:02Z</time></trkpt><trkpt lat="59.5588913932" lon="31.2641797308"><ele>235.66</ele><time>2026-09-02T21:32:03Z</time></trkpt><trkpt lat="59.5588908903" lon="31.2641794793"><ele>235.66</ele><time>2026-09-02T21:32:04Z</time></trkpt><trkpt lat="59.5588908903" lon="31.2641795631"><ele>235.66</ele><time>2026-09-02T21:32:05Z</time></trkpt><trkpt lat="59.5588913932" lon="31.2641795631"><ele>235.66</ele><time>2026-09-02T21:32:06Z</time></trkpt><trkpt lat="59.5588927343" lon="31.2641831674"><ele>235.66</ele><time>2026-09-02T21:32:07Z</time></trkpt><trkpt lat="59.5588907227" lon="31.2641805690"><ele>235.66</ele><time>2026-09-02T21:32:08Z</time></trkpt><trkpt lat="59.5588909741" lon="31.2641798984"><ele>235.66</ele><time>2026-09-02T21:32:09Z</time></trkpt><trkpt lat="59.5588904712" lon="31.2641799822"><ele>235.66</ele><time>2026-09-02T21:32:10Z</time></trkpt><trkpt lat="59.5588909741" lon="31.2641816586"><ele>235.66</ele><time>2026-09-02T21:32:11Z</time></trkpt><trkpt lat="59.5588910580" lon="31.2641836703"><ele>235.66</ele><time>2026-09-02T21:32:12Z</time></trkpt><trkpt lat="59.5588907227" lon="31.2641844247"><ele>235.66</ele><time>2026-09-02T21:32:13Z</time></trkpt><trkpt lat="59.5588907227" lon="31.2641840894"><ele>235.66</ele><time>2026-09-02T21:32:14Z</time></trkpt><trkpt lat="59.5588900521" lon="31.2641842570"><ele>235.66</ele><time>2026-09-02T21:32:15Z</time></trkpt><trkpt lat="59.5588886272" lon="31.2641842570"><ele>235.66</ele><time>2026-09-02T21:32:16Z</time></trkpt><trkpt lat="59.5588868670" lon="31.2641818263"><ele>235.66</ele><time>2026-09-02T21:32:17Z</time></trkpt><trkpt lat="59.5588858612" lon="31.2641814910"><ele>235.66</ele><time>2026-09-02T21:32:18Z</time></trkpt><trkpt lat="59.5588846877" lon="31.2641820777"><ele>235.66</ele><time>2026-09-02T21:32:19Z</time></trkpt><trkpt lat="59.5588854421" lon="31.2641810719"><ele>235.66</ele><time>2026-09-02T21:32:20Z</time></trkpt><trkpt lat="59.5588844363" lon="31.2641820777"><ele>235.66</ele><time>2026-09-02T21:32:21Z</time></trkpt><trkpt lat="59.5588842686" lon="31.2641823292"><ele>235.66</ele><time>2026-09-02T21:32:22Z</time></trkpt><trkpt lat="59.5588834304" lon="31.2641860172"><ele>235.66</ele><time>2026-09-02T21:32:23Z</time></trkpt><trkpt lat="59.5588832628" lon="31.2641904596"><ele>235.66</ele><time>2026-09-02T21:32:24Z</time></trkpt><trkpt lat="59.5588807482" lon="31.2641922198"><ele>235.66</ele><time>2026-09-02T21:32:25Z</time></trkpt><trkpt lat="59.5588779822" lon="31.2641966622"><ele>235.66</ele><time>2026-09-02T21:32:26Z</time></trkpt><trkpt lat="59.5588745456" lon="31.2642012723"><ele>235.66</ele><time>2026-09-02T21:32:27Z</time></trkpt><trkpt lat="59.5588750485" lon="31.2642144319"><ele>235.66</ele><time>2026-09-02T21:32:28Z</time></trkpt><trkpt lat="59.5588753838" lon="31.2642281782"><ele>235.66</ele><time>2026-09-02T21:32:29Z</time></trkpt><trkpt lat="59.5588738751" lon="31.2642450258"><ele>235.66</ele><time>2026-09-02T21:32:30Z</time></trkpt><trkpt lat="59.5588735398" lon="31.2642565928"><ele>236.14</ele><time>2026-09-02T21:32:31Z</time></trkpt><trkpt lat="59.5588734560" lon="31.2642672379"><ele>236.14</ele><time>2026-09-02T21:32:32Z</time></trkpt><trkpt lat="59.5588723663" lon="31.2642802298"><ele>236.14</ele><time>2026-09-02T21:32:33Z</time></trkpt><trkpt lat="59.5588718634" lon="31.2642964907"><ele>236.14</ele><time>2026-09-02T21:32:34Z</time></trkpt><trkpt lat="59.5588743780" lon="31.2643135898"><ele>236.62</ele><time>2026-09-02T21:32:35Z</time></trkpt><trkpt lat="59.5588725340" lon="31.2643322814"><ele>236.62</ele><time>2026-09-02T21:32:36Z</time></trkpt><trkpt lat="59.5588736236" lon="31.2643486261"><ele>236.62</ele><time>2026-09-02T21:32:37Z</time></trkpt><trkpt lat="59.5588748809" lon="31.2643652223"><ele>236.62</ele><time>2026-09-02T21:32:38Z</time></trkpt><trkpt lat="59.5588739589" lon="31.2643830758"><ele>236.62</ele><time>2026-09-02T21:32:39Z</time></trkpt><trkpt lat="59.5588725340" lon="31.2643957324"><ele>236.62</ele><time>2026-09-02T21:32:40Z</time></trkpt><trkpt lat="59.5588711929" lon="31.2644136697"><ele>236.62</ele><time>2026-09-02T21:32:41Z</time></trkpt><trkpt lat="59.5588698518" lon="31.2644289248"><ele>236.62</ele><time>2026-09-02T21:32:42Z</time></trkpt><trkpt lat="59.5588713605" lon="31.2644419167"><ele>236.62</ele><time>2026-09-02T21:32:43Z</time></trkpt><trkpt lat="59.5588708576" lon="31.2644544896"><ele>236.62</ele><time>2026-09-02T21:32:44Z</time></trkpt><trkpt lat="59.5588698518" lon="31.2644638773"><ele>236.62</ele><time>2026-09-02T21:32:45Z</time></trkpt><trkpt lat="59.5588692650" lon="31.2644676492"><ele>236.62</ele><time>2026-09-02T21:32:46Z</time></trkpt><trkpt lat="59.5588658284" lon="31.2644733489"><ele>236.14</ele><time>2026-09-02T21:32:47Z</time></trkpt><trkpt lat="59.5588625595" lon="31.2644743547"><ele>236.14</ele><time>2026-09-02T21:32:48Z</time></trkpt><trkpt lat="59.5588602964" lon="31.2644789647"><ele>236.14</ele><time>2026-09-02T21:32:49Z</time></trkpt><trkpt lat="59.5588557702" lon="31.2644843291"><ele>236.14</ele><time>2026-09-02T21:32:50Z</time></trkpt><trkpt lat="59.5588487294" lon="31.2644848321"><ele>236.14</ele><time>2026-09-02T21:32:51Z</time></trkpt><trkpt lat="59.5588421915" lon="31.2644854188"><ele>236.14</ele><time>2026-09-02T21:32:52Z</time></trkpt><trkpt lat="59.5588356536" lon="31.2644871790"><ele>236.62</ele><time>2026-09-02T21:32:53Z</time></trkpt><trkpt lat="59.5588301215" lon="31.2644893583"><ele>236.62</ele><time>2026-09-02T21:32:54Z</time></trkpt><trkpt lat="59.5588238351" lon="31.2644881848"><ele>236.62</ele><time>2026-09-02T21:32:55Z</time></trkpt><trkpt lat="59.5588164590" lon="31.2644901965"><ele>236.62</ele><time>2026-09-02T21:32:56Z</time></trkpt><trkpt lat="59.5588100888" lon="31.2644943874"><ele>236.62</ele><time>2026-09-02T21:32:57Z</time></trkpt><trkpt lat="59.5588026289" lon="31.2645019311"><ele>237.10</ele><time>2026-09-02T21:32:58Z</time></trkpt><trkpt lat="59.5587942470" lon="31.2645068765"><ele>237.10</ele><time>2026-09-02T21:32:59Z</time></trkpt><trkpt lat="59.5587862842" lon="31.2645123247"><ele>237.58</ele><time>2026-09-02T21:33:00Z</time></trkpt><trkpt lat="59.5587794948" lon="31.2645207904"><ele>237.58</ele><time>2026-09-02T21:33:01Z</time></trkpt><trkpt lat="59.5587729570" lon="31.2645267416"><ele>237.58</ele><time>2026-09-02T21:33:02Z</time></trkpt><trkpt lat="59.5587691851" lon="31.2645325251"><ele>237.58</ele><time>2026-09-02T21:33:03Z</time></trkpt><trkpt lat="59.5587629825" lon="31.2645405717"><ele>238.06</ele><time>2026-09-02T21:33:04Z</time></trkpt><trkpt lat="59.5587560255" lon="31.2645457685"><ele>238.06</ele><time>2026-09-02T21:33:05Z</time></trkpt><trkpt lat="59.5587514993" lon="31.2645556591"><ele>238.06</ele><time>2026-09-02T21:33:06Z</time></trkpt><trkpt lat="59.5587474760" lon="31.2645675614"><ele>238.06</ele><time>2026-09-02T21:33:07Z</time></trkpt><trkpt lat="59.5587404352" lon="31.2645770330"><ele>238.54</ele><time>2026-09-02T21:33:08Z</time></trkpt><trkpt lat="59.5587344840" lon="31.2645913661"><ele>238.54</ele><time>2026-09-02T21:33:09Z</time></trkpt><trkpt lat="59.5587326400" lon="31.2646008376"><ele>238.54</ele><time>2026-09-02T21:33:10Z</time></trkpt><trkpt lat="59.5587273594" lon="31.2646131590"><ele>238.54</ele><time>2026-09-02T21:33:11Z</time></trkpt><trkpt lat="59.5587229170" lon="31.2646261510"><ele>238.54</ele><time>2026-09-02T21:33:12Z</time></trkpt><trkpt lat="59.5587195642" lon="31.2646403164"><ele>238.54</ele><time>2026-09-02T21:33:13Z</time></trkpt><trkpt lat="59.5587166306" lon="31.2646520510"><ele>238.54</ele><time>2026-09-02T21:33:14Z</time></trkpt><trkpt lat="59.5587133616" lon="31.2646626960"><ele>238.54</ele><time>2026-09-02T21:33:15Z</time></trkpt><trkpt lat="59.5587087516" lon="31.2646753527"><ele>238.54</ele><time>2026-09-02T21:33:16Z</time></trkpt><trkpt lat="59.5587042253" lon="31.2646860816"><ele>238.54</ele><time>2026-09-02T21:33:17Z</time></trkpt><trkpt lat="59.5586998668" lon="31.2646968942"><ele>238.54</ele><time>2026-09-02T21:33:18Z</time></trkpt><trkpt lat="59.5586976875" lon="31.2647059467"><ele>238.54</ele><time>2026-09-02T21:33:19Z</time></trkpt><trkpt lat="59.5586965978" lon="31.2647177652"><ele>238.54</ele><time>2026-09-02T21:33:20Z</time></trkpt><trkpt lat="59.5586946700" lon="31.2647293322"><ele>238.54</ele><time>2026-09-02T21:33:21Z</time></trkpt><trkpt lat="59.5586902276" lon="31.2647389714"><ele>238.54</ele><time>2026-09-02T21:33:22Z</time></trkpt><trkpt lat="59.5586860366" lon="31.2647473533"><ele>238.54</ele><time>2026-09-02T21:33:23Z</time></trkpt><trkpt lat="59.5586830191" lon="31.2647581659"><ele>238.54</ele><time>2026-09-02T21:33:24Z</time></trkpt><trkpt lat="59.5586787444" lon="31.2647689786"><ele>238.54</ele><time>2026-09-02T21:33:25Z</time></trkpt><trkpt lat="59.5586748887" lon="31.2647775281"><ele>238.54</ele><time>2026-09-02T21:33:26Z</time></trkpt><trkpt lat="59.5586721227" lon="31.2647855747"><ele>238.54</ele><time>2026-09-02T21:33:27Z</time></trkpt><trkpt lat="59.5586703625" lon="31.2647962198"><ele>238.54</ele><time>2026-09-02T21:33:28Z</time></trkpt><trkpt lat="59.5586681832" lon="31.2648084573"><ele>238.54</ele><time>2026-09-02T21:33:29Z</time></trkpt><trkpt lat="59.5586620644" lon="31.2648167554"><ele>238.54</ele><time>2026-09-02T21:33:30Z</time></trkpt><trkpt lat="59.5586581249" lon="31.2648233771"><ele>238.54</ele><time>2026-09-02T21:33:31Z</time></trkpt><trkpt lat="59.5586556941" lon="31.2648348603"><ele>238.54</ele><time>2026-09-02T21:33:32Z</time></trkpt><trkpt lat="59.5586488210" lon="31.2648466788"><ele>238.54</ele><time>2026-09-02T21:33:33Z</time></trkpt><trkpt lat="59.5586412773" lon="31.2648595870"><ele>238.54</ele><time>2026-09-02T21:33:34Z</time></trkpt><trkpt lat="59.5586341526" lon="31.2648702320"><ele>238.54</ele><time>2026-09-02T21:33:35Z</time></trkpt><trkpt lat="59.5586271957" lon="31.2648835592"><ele>238.54</ele><time>2026-09-02T21:33:36Z</time></trkpt><trkpt lat="59.5586226694" lon="31.2649041787"><ele>238.06</ele><time>2026-09-02T21:33:37Z</time></trkpt><trkpt lat="59.5586179756" lon="31.2649153266"><ele>238.06</ele><time>2026-09-02T21:33:38Z</time></trkpt><trkpt lat="59.5586122759" lon="31.2649306655"><ele>238.06</ele><time>2026-09-02T21:33:39Z</time></trkpt><trkpt lat="59.5586069953" lon="31.2649405561"><ele>238.06</ele><time>2026-09-02T21:33:40Z</time></trkpt><trkpt lat="59.5586022176" lon="31.2649494410"><ele>238.06</ele><time>2026-09-02T21:33:41Z</time></trkpt><trkpt lat="59.5585940871" lon="31.2649570685"><ele>238.06</ele><time>2026-09-02T21:33:42Z</time></trkpt><trkpt lat="59.5585869625" lon="31.2649639416"><ele>238.06</ele><time>2026-09-02T21:33:43Z</time></trkpt><trkpt lat="59.5585782453" lon="31.2649708986"><ele>238.54</ele><time>2026-09-02T21:33:44Z</time></trkpt><trkpt lat="59.5585685223" lon="31.2649819627"><ele>238.54</ele><time>2026-09-02T21:33:45Z</time></trkpt><trkpt lat="59.5585620683" lon="31.2649919372"><ele>238.54</ele><time>2026-09-02T21:33:46Z</time></trkpt><trkpt lat="59.5585537702" lon="31.2649976369"><ele>238.54</ele><time>2026-09-02T21:33:47Z</time></trkpt><trkpt lat="59.5585429575" lon="31.2650064379"><ele>238.54</ele><time>2026-09-02T21:33:48Z</time></trkpt><trkpt lat="59.5585342404" lon="31.2650121376"><ele>238.54</ele><time>2026-09-02T21:33:49Z</time></trkpt><trkpt lat="59.5585258584" lon="31.2650201842"><ele>238.54</ele><time>2026-09-02T21:33:50Z</time></trkpt><trkpt lat="59.5585183986" lon="31.2650228664"><ele>239.02</ele><time>2026-09-02T21:33:51Z</time></trkpt><trkpt lat="59.5585122798" lon="31.2650254648"><ele>239.02</ele><time>2026-09-02T21:33:52Z</time></trkpt><trkpt lat="59.5585057419" lon="31.2650316674"><ele>239.02</ele><time>2026-09-02T21:33:53Z</time></trkpt><trkpt lat="59.5584986173" lon="31.2650350202"><ele>239.02</ele><time>2026-09-02T21:33:54Z</time></trkpt><trkpt lat="59.5584919956" lon="31.2650411390"><ele>239.02</ele><time>2026-09-02T21:33:55Z</time></trkpt><trkpt lat="59.5584844518" lon="31.2650510296"><ele>239.02</ele><time>2026-09-02T21:33:56Z</time></trkpt><trkpt lat="59.5584746450" lon="31.2650572322"><ele>239.02</ele><time>2026-09-02T21:33:57Z</time></trkpt><trkpt lat="59.5584675204" lon="31.2650650274"><ele>239.02</ele><time>2026-09-02T21:33:58Z</time></trkpt><trkpt lat="59.5584664308" lon="31.2650712300"><ele>239.02</ele><time>2026-09-02T21:33:59Z</time></trkpt><trkpt lat="59.5584626589" lon="31.2650782708"><ele>239.02</ele><time>2026-09-02T21:34:00Z</time></trkpt><trkpt lat="59.5584564563" lon="31.2650891673"><ele>239.51</ele><time>2026-09-02T21:34:01Z</time></trkpt><trkpt lat="59.5584486611" lon="31.2650976330"><ele>239.51</ele><time>2026-09-02T21:34:02Z</time></trkpt><trkpt lat="59.5584434643" lon="31.2651033327"><ele>239.51</ele><time>2026-09-02T21:34:03Z</time></trkpt><trkpt lat="59.5584359206" lon="31.2651165761"><ele>239.51</ele><time>2026-09-02T21:34:04Z</time></trkpt><trkpt lat="59.5584287960" lon="31.2651316635"><ele>239.51</ele><time>2026-09-02T21:34:05Z</time></trkpt><trkpt lat="59.5584252756" lon="31.2651463319"><ele>239.51</ele><time>2026-09-02T21:34:06Z</time></trkpt><trkpt lat="59.5584213361" lon="31.2651599944"><ele>239.99</ele><time>2026-09-02T21:34:07Z</time></trkpt><trkpt lat="59.5584166422" lon="31.2651703879"><ele>239.99</ele><time>2026-09-02T21:34:08Z</time></trkpt><trkpt lat="59.5584099367" lon="31.2651835475"><ele>239.99</ele><time>2026-09-02T21:34:09Z</time></trkpt><trkpt lat="59.5584046561" lon="31.2651939411"><ele>239.99</ele><time>2026-09-02T21:34:10Z</time></trkpt><trkpt lat="59.5583996270" lon="31.2652044185"><ele>239.99</ele><time>2026-09-02T21:34:11Z</time></trkpt><trkpt lat="59.5583961904" lon="31.2652159855"><ele>239.99</ele><time>2026-09-02T21:34:12Z</time></trkpt><trkpt lat="59.5583920833" lon="31.2652267981"><ele>239.99</ele><time>2026-09-02T21:34:13Z</time></trkpt><trkpt lat="59.5583869703" lon="31.2652390357"><ele>239.99</ele><time>2026-09-02T21:34:14Z</time></trkpt><trkpt lat="59.5583833661" lon="31.2652477529"><ele>239.99</ele><time>2026-09-02T21:34:15Z</time></trkpt><trkpt lat="59.5583805162" lon="31.2652562186"><ele>239.99</ele><time>2026-09-02T21:34:16Z</time></trkpt><trkpt lat="59.5583758224" lon="31.2652708869"><ele>239.99</ele><time>2026-09-02T21:34:17Z</time></trkpt><trkpt lat="59.5583706256" lon="31.2652752455"><ele>239.99</ele><time>2026-09-02T21:34:18Z</time></trkpt><trkpt lat="59.5583634172" lon="31.2652844656"><ele>239.99</ele><time>2026-09-02T21:34:19Z</time></trkpt><trkpt lat="59.5583535265" lon="31.2652940210"><ele>239.99</ele><time>2026-09-02T21:34:20Z</time></trkpt><trkpt lat="59.5583515987" lon="31.2653124612"><ele>239.99</ele><time>2026-09-02T21:34:21Z</time></trkpt><trkpt lat="59.5583497547" lon="31.2653205916"><ele>239.99</ele><time>2026-09-02T21:34:22Z</time></trkpt><trkpt lat="59.5583456475" lon="31.2653279677"><ele>239.99</ele><time>2026-09-02T21:34:23Z</time></trkpt><trkpt lat="59.5583376847" lon="31.2653381936"><ele>239.99</ele><time>2026-09-02T21:34:24Z</time></trkpt><trkpt lat="59.5583314821" lon="31.2653506827"><ele>239.99</ele><time>2026-09-02T21:34:25Z</time></trkpt><trkpt lat="59.5583210886" lon="31.2653625850"><ele>239.99</ele><time>2026-09-02T21:34:26Z</time></trkpt><trkpt lat="59.5583167300" lon="31.2653749902"><ele>239.99</ele><time>2026-09-02T21:34:27Z</time></trkpt><trkpt lat="59.5583117846" lon="31.2653853837"><ele>239.99</ele><time>2026-09-02T21:34:28Z</time></trkpt><trkpt lat="59.5583065879" lon="31.2653956935"><ele>239.99</ele><time>2026-09-02T21:34:29Z</time></trkpt><trkpt lat="59.5583003853" lon="31.2654105294"><ele>239.99</ele><time>2026-09-02T21:34:30Z</time></trkpt><trkpt lat="59.5582961943" lon="31.2654228508"><ele>239.99</ele><time>2026-09-02T21:34:31Z</time></trkpt><trkpt lat="59.5582909975" lon="31.2654313166"><ele>239.99</ele><time>2026-09-02T21:34:32Z</time></trkpt><trkpt lat="59.5582866389" lon="31.2654396985"><ele>239.99</ele><time>2026-09-02T21:34:33Z</time></trkpt><trkpt lat="59.5582793467" lon="31.2654500920"><ele>239.99</ele><time>2026-09-02T21:34:34Z</time></trkpt><trkpt lat="59.5582737308" lon="31.2654584739"><ele>239.99</ele><time>2026-09-02T21:34:35Z</time></trkpt><trkpt lat="59.5582720544" lon="31.2654635869"><ele>239.99</ele><time>2026-09-02T21:34:36Z</time></trkpt><trkpt lat="59.5582685340" lon="31.2654745672"><ele>239.99</ele><time>2026-09-02T21:34:37Z</time></trkpt><trkpt lat="59.5582670253" lon="31.2654809374"><ele>239.99</ele><time>2026-09-02T21:34:38Z</time></trkpt><trkpt lat="59.5582652651" lon="31.2654841226"><ele>239.99</ele><time>2026-09-02T21:34:39Z</time></trkpt><trkpt lat="59.5582657680" lon="31.2654842902"><ele>239.99</ele><time>2026-09-02T21:34:40Z</time></trkpt><trkpt lat="59.5582651813" lon="31.2654851284"><ele>239.99</ele><time>2026-09-02T21:34:41Z</time></trkpt><trkpt lat="59.5582659356" lon="31.2654821947"><ele>239.99</ele><time>2026-09-02T21:34:42Z</time></trkpt><trkpt lat="59.5582664385" lon="31.2654810213"><ele>239.99</ele><time>2026-09-02T21:34:43Z</time></trkpt><trkpt lat="59.5582672767" lon="31.2654819433"><ele>239.99</ele><time>2026-09-02T21:34:44Z</time></trkpt><trkpt lat="59.5582676958" lon="31.2654845417"><ele>239.99</ele><time>2026-09-02T21:34:45Z</time></trkpt><trkpt lat="59.5582651813" lon="31.2654826976"><ele>239.99</ele><time>2026-09-02T21:34:46Z</time></trkpt><trkpt lat="59.5582662709" lon="31.2654791772"><ele>239.99</ele><time>2026-09-02T21:34:47Z</time></trkpt><trkpt lat="59.5582673606" lon="31.2654757407"><ele>239.99</ele><time>2026-09-02T21:34:48Z</time></trkpt><trkpt lat="59.5582675282" lon="31.2654721364"><ele>239.99</ele><time>2026-09-02T21:34:49Z</time></trkpt><trkpt lat="59.5582663547" lon="31.2654734775"><ele>239.99</ele><time>2026-09-02T21:34:50Z</time></trkpt><trkpt lat="59.5582636725" lon="31.2654732261"><ele>239.99</ele><time>2026-09-02T21:34:51Z</time></trkpt><trkpt lat="59.5582608227" lon="31.2654727232"><ele>239.99</ele><time>2026-09-02T21:34:52Z</time></trkpt><trkpt lat="59.5582619961" lon="31.2654742319"><ele>239.99</ele><time>2026-09-02T21:34:53Z</time></trkpt><trkpt lat="59.5582608227" lon="31.2654714659"><ele>239.99</ele><time>2026-09-02T21:34:54Z</time></trkpt><trkpt lat="59.5582606550" lon="31.2654716335"><ele>239.99</ele><time>2026-09-02T21:34:55Z</time></trkpt><trkpt lat="59.5582608227" lon="31.2654729746"><ele>239.99</ele><time>2026-09-02T21:34:56Z</time></trkpt><trkpt lat="59.5582602359" lon="31.2654703762"><ele>239.99</ele><time>2026-09-02T21:34:57Z</time></trkpt><trkpt lat="59.5582587272" lon="31.2654715497"><ele>239.99</ele><time>2026-09-02T21:34:58Z</time></trkpt><trkpt lat="59.5582574699" lon="31.2654729746"><ele>239.99</ele><time>2026-09-02T21:34:59Z</time></trkpt><trkpt lat="59.5582554583" lon="31.2654734775"><ele>239.99</ele><time>2026-09-02T21:35:00Z</time></trkpt><trkpt lat="59.5582529437" lon="31.2654732261"><ele>239.99</ele><time>2026-09-02T21:35:01Z</time></trkpt><trkpt lat="59.5582512673" lon="31.2654729746"><ele>239.99</ele><time>2026-09-02T21:35:02Z</time></trkpt><trkpt lat="59.5582494233" lon="31.2654721364"><ele>239.99</ele><time>2026-09-02T21:35:03Z</time></trkpt><trkpt lat="59.5582487527" lon="31.2654710468"><ele>239.99</ele><time>2026-09-02T21:35:04Z</time></trkpt><trkpt lat="59.5582491718" lon="31.2654710468"><ele>239.99</ele><time>2026-09-02T21:35:05Z</time></trkpt><trkpt lat="59.5582491718" lon="31.2654694542"><ele>239.99</ele><time>2026-09-02T21:35:06Z</time></trkpt><trkpt lat="59.5582495909" lon="31.2654687837"><ele>239.99</ele><time>2026-09-02T21:35:07Z</time></trkpt><trkpt lat="59.5582492556" lon="31.2654677778"><ele>239.99</ele><time>2026-09-02T21:35:08Z</time></trkpt><trkpt lat="59.5582485851" lon="31.2654669397"><ele>239.99</ele><time>2026-09-02T21:35:09Z</time></trkpt><trkpt lat="59.5582475793" lon="31.2654657662"><ele>239.99</ele><time>2026-09-02T21:35:10Z</time></trkpt><trkpt lat="59.5582467411" lon="31.2654628325"><ele>239.99</ele><time>2026-09-02T21:35:11Z</time></trkpt><trkpt lat="59.5582450647" lon="31.2654607370"><ele>239.99</ele><time>2026-09-02T21:35:12Z</time></trkpt><trkpt lat="59.5582435559" lon="31.2654574681"><ele>239.99</ele><time>2026-09-02T21:35:13Z</time></trkpt><trkpt lat="59.5582444780" lon="31.2654596474"><ele>239.99</ele><time>2026-09-02T21:35:14Z</time></trkpt><trkpt lat="59.5582444780" lon="31.2654577196"><ele>239.99</ele><time>2026-09-02T21:35:15Z</time></trkpt><trkpt lat="59.5582454838" lon="31.2654584739"><ele>239.99</ele><time>2026-09-02T21:35:16Z</time></trkpt><trkpt lat="59.5582458191" lon="31.2654594798"><ele>239.99</ele><time>2026-09-02T21:35:17Z</time></trkpt><trkpt lat="59.5582450647" lon="31.2654587254"><ele>239.99</ele><time>2026-09-02T21:35:18Z</time></trkpt><trkpt lat="59.5582437236" lon="31.2654565461"><ele>239.99</ele><time>2026-09-02T21:35:19Z</time></trkpt><trkpt lat="59.5582427178" lon="31.2654539477"><ele>239.99</ele><time>2026-09-02T21:35:20Z</time></trkpt><trkpt lat="59.5582410414" lon="31.2654504273"><ele>239.99</ele><time>2026-09-02T21:35:21Z</time></trkpt><trkpt lat="59.5582393650" lon="31.2654477451"><ele>239.99</ele><time>2026-09-02T21:35:22Z</time></trkpt><trkpt lat="59.5582407899" lon="31.2654495891"><ele>239.99</ele><time>2026-09-02T21:35:23Z</time></trkpt><trkpt lat="59.5582392812" lon="31.2654478289"><ele>239.99</ele><time>2026-09-02T21:35:24Z</time></trkpt><trkpt lat="59.5582400355" lon="31.2654469907"><ele>239.99</ele><time>2026-09-02T21:35:25Z</time></trkpt><trkpt lat="59.5582400355" lon="31.2654464878"><ele>239.99</ele><time>2026-09-02T21:35:26Z</time></trkpt><trkpt lat="59.5582401194" lon="31.2654471584"><ele>239.99</ele><time>2026-09-02T21:35:27Z</time></trkpt><trkpt lat="59.5582400355" lon="31.2654485833"><ele>239.99</ele><time>2026-09-02T21:35:28Z</time></trkpt><trkpt lat="59.5582370181" lon="31.2654450629"><ele>239.99</ele><time>2026-09-02T21:35:29Z</time></trkpt><trkpt lat="59.5582398679" lon="31.2654492538"><ele>239.99</ele><time>2026-09-02T21:35:30Z</time></trkpt><trkpt lat="59.5582369342" lon="31.2654457334"><ele>239.99</ele><time>2026-09-02T21:35:31Z</time></trkpt><trkpt lat="59.5582361799" lon="31.2654440571"><ele>239.99</ele><time>2026-09-02T21:35:32Z</time></trkpt><trkpt lat="59.5582358446" lon="31.2654452305"><ele>239.99</ele><time>2026-09-02T21:35:33Z</time></trkpt><trkpt lat="59.5582349226" lon="31.2654454820"><ele>239.99</ele><time>2026-09-02T21:35:34Z</time></trkpt><trkpt lat="59.5582343359" lon="31.2654454820"><ele>239.99</ele><time>2026-09-02T21:35:35Z</time></trkpt><trkpt lat="59.5582337491" lon="31.2654450629"><ele>239.99</ele><time>2026-09-02T21:35:36Z</time></trkpt><trkpt lat="59.5582331624" lon="31.2654428836"><ele>239.99</ele><time>2026-09-02T21:35:37Z</time></trkpt><trkpt lat="59.5582308993" lon="31.2654408719"><ele>239.99</ele><time>2026-09-02T21:35:38Z</time></trkpt><trkpt lat="59.5582298934" lon="31.2654397823"><ele>239.99</ele><time>2026-09-02T21:35:39Z</time></trkpt><trkpt lat="59.5582304802" lon="31.2654401176"><ele>239.99</ele><time>2026-09-02T21:35:40Z</time></trkpt><trkpt lat="59.5582297258" lon="31.2654396985"><ele>239.99</ele><time>2026-09-02T21:35:41Z</time></trkpt><trkpt lat="59.5582294744" lon="31.2654394470"><ele>239.99</ele><time>2026-09-02T21:35:42Z</time></trkpt><trkpt lat="59.5582292229" lon="31.2654391956"><ele>239.99</ele><time>2026-09-02T21:35:43Z</time></trkpt><trkpt lat="59.5582296420" lon="31.2654395308"><ele>239.99</ele><time>2026-09-02T21:35:44Z</time></trkpt><trkpt lat="59.5582299773" lon="31.2654393632"><ele>239.99</ele><time>2026-09-02T21:35:45Z</time></trkpt><trkpt lat="59.5582290553" lon="31.2654377706"><ele>239.99</ele><time>2026-09-02T21:35:46Z</time></trkpt><trkpt lat="59.5582289714" lon="31.2654372677"><ele>239.99</ele><time>2026-09-02T21:35:47Z</time></trkpt><trkpt lat="59.5582283847" lon="31.2654368486"><ele>239.99</ele><time>2026-09-02T21:35:48Z</time></trkpt><trkpt lat="59.5582272951" lon="31.2654379383"><ele>239.99</ele><time>2026-09-02T21:35:49Z</time></trkpt><trkpt lat="59.5582266245" lon="31.2654368486"><ele>239.99</ele><time>2026-09-02T21:35:50Z</time></trkpt><trkpt lat="59.5582250319" lon="31.2654337473"><ele>239.99</ele><time>2026-09-02T21:35:51Z</time></trkpt><trkpt lat="59.5582237747" lon="31.2654303946"><ele>239.99</ele><time>2026-09-02T21:35:52Z</time></trkpt><trkpt lat="59.5582244452" lon="31.2654330768"><ele>239.99</ele><time>2026-09-02T21:35:53Z</time></trkpt><trkpt lat="59.5582235232" lon="31.2654301431"><ele>239.99</ele><time>2026-09-02T21:35:54Z</time></trkpt><trkpt lat="59.5582235232" lon="31.2654291373"><ele>239.99</ele><time>2026-09-02T21:35:55Z</time></trkpt><trkpt lat="59.5582224336" lon="31.2654270418"><ele>239.99</ele><time>2026-09-02T21:35:56Z</time></trkpt><trkpt lat="59.5582219306" lon="31.2654262874"><ele>239.99</ele><time>2026-09-02T21:35:57Z</time></trkpt><trkpt lat="59.5582212601" lon="31.2654250301"><ele>239.99</ele><time>2026-09-02T21:35:58Z</time></trkpt><trkpt lat="59.5582208410" lon="31.2654240243"><ele>239.99</ele><time>2026-09-02T21:35:59Z</time></trkpt><trkpt lat="59.5582208410" lon="31.2654232699"><ele>239.99</ele><time>2026-09-02T21:36:00Z</time></trkpt><trkpt lat="59.5582188293" lon="31.2654215936"><ele>239.99</ele><time>2026-09-02T21:36:01Z</time></trkpt><trkpt lat="59.5582199190" lon="31.2654231861"><ele>239.99</ele><time>2026-09-02T21:36:02Z</time></trkpt><trkpt lat="59.5582180750" lon="31.2654247787"><ele>239.99</ele><time>2026-09-02T21:36:03Z</time></trkpt><trkpt lat="59.5582159795" lon="31.2654251978"><ele>239.99</ele><time>2026-09-02T21:36:04Z</time></trkpt><trkpt lat="59.5582105312" lon="31.2654246949"><ele>239.99</ele><time>2026-09-02T21:36:05Z</time></trkpt><trkpt lat="59.5582077652" lon="31.2654307298"><ele>239.99</ele><time>2026-09-02T21:36:06Z</time></trkpt><trkpt lat="59.5582032390" lon="31.2654414587"><ele>239.99</ele><time>2026-09-02T21:36:07Z</time></trkpt><trkpt lat="59.5582004730" lon="31.2654479966"><ele>239.99</ele><time>2026-09-02T21:36:08Z</time></trkpt><trkpt lat="59.5581976231" lon="31.2654555403"><ele>239.99</ele><time>2026-09-02T21:36:09Z</time></trkpt><trkpt lat="59.5581906661" lon="31.2654711306"><ele>239.99</ele><time>2026-09-02T21:36:10Z</time></trkpt><trkpt lat="59.5581877325" lon="31.2654802669"><ele>239.99</ele><time>2026-09-02T21:36:11Z</time></trkpt><trkpt lat="59.5581831224" lon="31.2654852960"><ele>239.99</ele><time>2026-09-02T21:36:12Z</time></trkpt><trkpt lat="59.5581852179" lon="31.2654933427"><ele>239.99</ele><time>2026-09-02T21:36:13Z</time></trkpt><trkpt lat="59.5581839606" lon="31.2655017246"><ele>239.99</ele><time>2026-09-02T21:36:14Z</time></trkpt><trkpt lat="59.5581822842" lon="31.2655090168"><ele>239.99</ele><time>2026-09-02T21:36:15Z</time></trkpt><trkpt lat="59.5581783447" lon="31.2655196618"><ele>239.99</ele><time>2026-09-02T21:36:16Z</time></trkpt><trkpt lat="59.5581774227" lon="31.2655324861"><ele>239.99</ele><time>2026-09-02T21:36:17Z</time></trkpt><trkpt lat="59.5581749920" lon="31.2655504234"><ele>239.99</ele><time>2026-09-02T21:36:18Z</time></trkpt><trkpt lat="59.5581768360" lon="31.2655630801"><ele>239.99</ele><time>2026-09-02T21:36:19Z</time></trkpt><trkpt lat="59.5581785962" lon="31.2655784190"><ele>239.99</ele><time>2026-09-02T21:36:20Z</time></trkpt><trkpt lat="59.5581821166" lon="31.2655888963"><ele>239.99</ele><time>2026-09-02T21:36:21Z</time></trkpt><trkpt lat="59.5581865590" lon="31.2655997928"><ele>239.99</ele><time>2026-09-02T21:36:22Z</time></trkpt><trkpt lat="59.5581902470" lon="31.2656144612"><ele>239.99</ele><time>2026-09-02T21:36:23Z</time></trkpt><trkpt lat="59.5581964497" lon="31.2656270340"><ele>239.99</ele><time>2026-09-02T21:36:24Z</time></trkpt><trkpt lat="59.5582014788" lon="31.2656417862"><ele>239.99</ele><time>2026-09-02T21:36:25Z</time></trkpt><trkpt lat="59.5582056697" lon="31.2656549457"><ele>239.99</ele><time>2026-09-02T21:36:26Z</time></trkpt><trkpt lat="59.5582068432" lon="31.2656688597"><ele>239.99</ele><time>2026-09-02T21:36:27Z</time></trkpt><trkpt lat="59.5582088549" lon="31.2656843662"><ele>239.99</ele><time>2026-09-02T21:36:28Z</time></trkpt><trkpt lat="59.5582107827" lon="31.2656969391"><ele>239.99</ele><time>2026-09-02T21:36:29Z</time></trkpt><trkpt lat="59.5582124591" lon="31.2657145411"><ele>239.99</ele><time>2026-09-02T21:36:30Z</time></trkpt><trkpt lat="59.5582125429" lon="31.2657298800"><ele>239.99</ele><time>2026-09-02T21:36:31Z</time></trkpt><trkpt lat="59.5582123753" lon="31.2657466438"><ele>239.99</ele><time>2026-09-02T21:36:32Z</time></trkpt><trkpt lat="59.5582131296" lon="31.2657653354"><ele>239.99</ele><time>2026-09-02T21:36:33Z</time></trkpt><trkpt lat="59.5582145546" lon="31.2657859549"><ele>239.99</ele><time>2026-09-02T21:36:34Z</time></trkpt><trkpt lat="59.5582168177" lon="31.2658056524"><ele>239.99</ele><time>2026-09-02T21:36:35Z</time></trkpt><trkpt lat="59.5582182426" lon="31.2658225838"><ele>239.99</ele><time>2026-09-02T21:36:36Z</time></trkpt><trkpt lat="59.5582216792" lon="31.2658411916"><ele>239.51</ele><time>2026-09-02T21:36:37Z</time></trkpt><trkpt lat="59.5582205895" lon="31.2658586260"><ele>239.51</ele><time>2026-09-02T21:36:38Z</time></trkpt><trkpt lat="59.5582181588" lon="31.2658782396"><ele>239.51</ele><time>2026-09-02T21:36:39Z</time></trkpt><trkpt lat="59.5582187455" lon="31.2658967637"><ele>239.51</ele><time>2026-09-02T21:36:40Z</time></trkpt><trkpt lat="59.5582187455" lon="31.2659141980"><ele>239.51</ele><time>2026-09-02T21:36:41Z</time></trkpt><trkpt lat="59.5582211763" lon="31.2659340631"><ele>239.51</ele><time>2026-09-02T21:36:42Z</time></trkpt><trkpt lat="59.5582243614" lon="31.2659559399"><ele>239.02</ele><time>2026-09-02T21:36:43Z</time></trkpt><trkpt lat="59.5582242776" lon="31.2659711950"><ele>239.02</ele><time>2026-09-02T21:36:44Z</time></trkpt><trkpt lat="59.5582207572" lon="31.2659982685"><ele>239.02</ele><time>2026-09-02T21:36:45Z</time></trkpt><trkpt lat="59.5582154766" lon="31.2660257611"><ele>239.02</ele><time>2026-09-02T21:36:46Z</time></trkpt><trkpt lat="59.5582140516" lon="31.2660478894"><ele>239.02</ele><time>2026-09-02T21:36:47Z</time></trkpt><trkpt lat="59.5582121238" lon="31.2660633959"><ele>239.02</ele><time>2026-09-02T21:36:48Z</time></trkpt><trkpt lat="59.5582098607" lon="31.2660842668"><ele>239.02</ele><time>2026-09-02T21:36:49Z</time></trkpt><trkpt lat="59.5582074299" lon="31.2661001924"><ele>238.54</ele><time>2026-09-02T21:36:50Z</time></trkpt><trkpt lat="59.5582077652" lon="31.2661062274"><ele>238.54</ele><time>2026-09-02T21:36:51Z</time></trkpt><trkpt lat="59.5582055859" lon="31.2661103345"><ele>238.54</ele><time>2026-09-02T21:36:52Z</time></trkpt><trkpt lat="59.5582025684" lon="31.2661161181"><ele>238.54</ele><time>2026-09-02T21:36:53Z</time></trkpt><trkpt lat="59.5582019817" lon="31.2661148608"><ele>238.54</ele><time>2026-09-02T21:36:54Z</time></trkpt><trkpt lat="59.5582032390" lon="31.2661092449"><ele>238.54</ele><time>2026-09-02T21:36:55Z</time></trkpt><trkpt lat="59.5582043286" lon="31.2660989352"><ele>238.54</ele><time>2026-09-02T21:36:56Z</time></trkpt><trkpt lat="59.5582036581" lon="31.2660877872"><ele>238.54</ele><time>2026-09-02T21:36:57Z</time></trkpt><trkpt lat="59.5582004730" lon="31.2660764717"><ele>238.54</ele><time>2026-09-02T21:36:58Z</time></trkpt><trkpt lat="59.5581997186" lon="31.2660645694"><ele>238.54</ele><time>2026-09-02T21:36:59Z</time></trkpt><trkpt lat="59.5581973717" lon="31.2660554331"><ele>238.54</ele><time>2026-09-02T21:37:00Z</time></trkpt><trkpt lat="59.5581945218" lon="31.2660466321"><ele>238.54</ele><time>2026-09-02T21:37:01Z</time></trkpt><trkpt lat="59.5581920911" lon="31.2660382502"><ele>239.02</ele><time>2026-09-02T21:37:02Z</time></trkpt><trkpt lat="59.5581910852" lon="31.2660284434"><ele>239.02</ele><time>2026-09-02T21:37:03Z</time></trkpt><trkpt lat="59.5581888221" lon="31.2660184689"><ele>239.02</ele><time>2026-09-02T21:37:04Z</time></trkpt><trkpt lat="59.5581850503" lon="31.2660042197"><ele>239.02</ele><time>2026-09-02T21:37:05Z</time></trkpt><trkpt lat="59.5581834577" lon="31.2659897190"><ele>239.02</ele><time>2026-09-02T21:37:06Z</time></trkpt><trkpt lat="59.5581821166" lon="31.2659764756"><ele>239.02</ele><time>2026-09-02T21:37:07Z</time></trkpt><trkpt lat="59.5581818651" lon="31.2659609690"><ele>239.02</ele><time>2026-09-02T21:37:08Z</time></trkpt><trkpt lat="59.5581828710" lon="31.2659484800"><ele>239.02</ele><time>2026-09-02T21:37:09Z</time></trkpt><trkpt lat="59.5581858885" lon="31.2659374997"><ele>239.51</ele><time>2026-09-02T21:37:10Z</time></trkpt><trkpt lat="59.5581894927" lon="31.2659266870"><ele>239.51</ele><time>2026-09-02T21:37:11Z</time></trkpt><trkpt lat="59.5581903309" lon="31.2659073249"><ele>239.51</ele><time>2026-09-02T21:37:12Z</time></trkpt><trkpt lat="59.5581919234" lon="31.2658930756"><ele>239.51</ele><time>2026-09-02T21:37:13Z</time></trkpt><trkpt lat="59.5581950247" lon="31.2658784911"><ele>239.51</ele><time>2026-09-02T21:37:14Z</time></trkpt><trkpt lat="59.5581966173" lon="31.2658593804"><ele>239.51</ele><time>2026-09-02T21:37:15Z</time></trkpt><trkpt lat="59.5581980422" lon="31.2658420298"><ele>239.51</ele><time>2026-09-02T21:37:16Z</time></trkpt><trkpt lat="59.5581986289" lon="31.2658215780"><ele>239.51</ele><time>2026-09-02T21:37:17Z</time></trkpt><trkpt lat="59.5581984613" lon="31.2658064906"><ele>239.51</ele><time>2026-09-02T21:37:18Z</time></trkpt><trkpt lat="59.5581950247" lon="31.2657902297"><ele>239.51</ele><time>2026-09-02T21:37:19Z</time></trkpt><trkpt lat="59.5581952762" lon="31.2657803390"><ele>239.51</ele><time>2026-09-02T21:37:20Z</time></trkpt><trkpt lat="59.5581959467" lon="31.2657688558"><ele>239.99</ele><time>2026-09-02T21:37:21Z</time></trkpt><trkpt lat="59.5581972878" lon="31.2657627370"><ele>239.99</ele><time>2026-09-02T21:37:22Z</time></trkpt><trkpt lat="59.5581959467" lon="31.2657491583"><ele>239.99</ele><time>2026-09-02T21:37:23Z</time></trkpt><trkpt lat="59.5581977908" lon="31.2657383457"><ele>239.99</ele><time>2026-09-02T21:37:24Z</time></trkpt><trkpt lat="59.5581958629" lon="31.2657238450"><ele>239.99</ele><time>2026-09-02T21:37:25Z</time></trkpt><trkpt lat="59.5581934322" lon="31.2657113560"><ele>239.99</ele><time>2026-09-02T21:37:26Z</time></trkpt><trkpt lat="59.5581925940" lon="31.2656979449"><ele>239.99</ele><time>2026-09-02T21:37:27Z</time></trkpt><trkpt lat="59.5581927616" lon="31.2656870484"><ele>239.99</ele><time>2026-09-02T21:37:28Z</time></trkpt><trkpt lat="59.5581912529" lon="31.2656759843"><ele>239.99</ele><time>2026-09-02T21:37:29Z</time></trkpt><trkpt lat="59.5581877325" lon="31.2656708714"><ele>239.99</ele><time>2026-09-02T21:37:30Z</time></trkpt><trkpt lat="59.5581818651" lon="31.2656645849"><ele>239.99</ele><time>2026-09-02T21:37:31Z</time></trkpt><trkpt lat="59.5581731480" lon="31.2656560354"><ele>239.99</ele><time>2026-09-02T21:37:32Z</time></trkpt><trkpt lat="59.5581660233" lon="31.2656489946"><ele>239.99</ele><time>2026-09-02T21:37:33Z</time></trkpt><trkpt lat="59.5581598207" lon="31.2656408641"><ele>239.99</ele><time>2026-09-02T21:37:34Z</time></trkpt><trkpt lat="59.5581535343" lon="31.2656318955"><ele>239.99</ele><time>2026-09-02T21:37:35Z</time></trkpt><trkpt lat="59.5581452362" lon="31.2656215858"><ele>239.99</ele><time>2026-09-02T21:37:36Z</time></trkpt><trkpt lat="59.5581347588" lon="31.2656147964"><ele>239.99</ele><time>2026-09-02T21:37:37Z</time></trkpt><trkpt lat="59.5581227727" lon="31.2656103540"><ele>239.99</ele><time>2026-09-02T21:37:38Z</time></trkpt><trkpt lat="59.5581151452" lon="31.2656067498"><ele>239.99</ele><time>2026-09-02T21:37:39Z</time></trkpt><trkpt lat="59.5581096970" lon="31.2656058278"><ele>239.99</ele><time>2026-09-02T21:37:40Z</time></trkpt><trkpt lat="59.5581041649" lon="31.2656062469"><ele>239.99</ele><time>2026-09-02T21:37:41Z</time></trkpt><trkpt lat="59.5580977947" lon="31.2656083424"><ele>239.99</ele><time>2026-09-02T21:37:42Z</time></trkpt><trkpt lat="59.5580928493" lon="31.2656072527"><ele>240.47</ele><time>2026-09-02T21:37:43Z</time></trkpt><trkpt lat="59.5580943581" lon="31.2656090967"><ele>240.47</ele><time>2026-09-02T21:37:44Z</time></trkpt><trkpt lat="59.5580914244" lon="31.2656081747"><ele>240.47</ele><time>2026-09-02T21:37:45Z</time></trkpt><trkpt lat="59.5580911729" lon="31.2656061631"><ele>240.47</ele><time>2026-09-02T21:37:46Z</time></trkpt><trkpt lat="59.5580892451" lon="31.2656030618"><ele>240.47</ele><time>2026-09-02T21:37:47Z</time></trkpt><trkpt lat="59.5580885746" lon="31.2656018883"><ele>240.47</ele><time>2026-09-02T21:37:48Z</time></trkpt><trkpt lat="59.5580881555" lon="31.2656099349"><ele>240.47</ele><time>2026-09-02T21:37:49Z</time></trkpt><trkpt lat="59.5580869820" lon="31.2656192388"><ele>240.47</ele><time>2026-09-02T21:37:50Z</time></trkpt><trkpt lat="59.5580830425" lon="31.2656300515"><ele>240.47</ele><time>2026-09-02T21:37:51Z</time></trkpt><trkpt lat="59.5580784325" lon="31.2656452227"><ele>240.47</ele><time>2026-09-02T21:37:52Z</time></trkpt><trkpt lat="59.5580750797" lon="31.2656618189"><ele>240.47</ele><time>2026-09-02T21:37:53Z</time></trkpt><trkpt lat="59.5580709726" lon="31.2656759843"><ele>240.47</ele><time>2026-09-02T21:37:54Z</time></trkpt><trkpt lat="59.5580686256" lon="31.2656861264"><ele>239.99</ele><time>2026-09-02T21:37:55Z</time></trkpt><trkpt lat="59.5580646861" lon="31.2656975258"><ele>239.99</ele><time>2026-09-02T21:37:56Z</time></trkpt><trkpt lat="59.5580581482" lon="31.2657091767"><ele>239.99</ele><time>2026-09-02T21:37:57Z</time></trkpt><trkpt lat="59.5580547955" lon="31.2657206599"><ele>239.99</ele><time>2026-09-02T21:37:58Z</time></trkpt><trkpt lat="59.5580535382" lon="31.2657265272"><ele>239.99</ele><time>2026-09-02T21:37:59Z</time></trkpt><trkpt lat="59.5580480900" lon="31.2657372560"><ele>240.47</ele><time>2026-09-02T21:38:00Z</time></trkpt><trkpt lat="59.5580440667" lon="31.2657477334"><ele>240.47</ele><time>2026-09-02T21:38:01Z</time></trkpt><trkpt lat="59.5580396242" lon="31.2657612283"><ele>240.47</ele><time>2026-09-02T21:38:02Z</time></trkpt><trkpt lat="59.5580348466" lon="31.2657725438"><ele>240.47</ele><time>2026-09-02T21:38:03Z</time></trkpt><trkpt lat="59.5580317453" lon="31.2657846976"><ele>240.47</ele><time>2026-09-02T21:38:04Z</time></trkpt><trkpt lat="59.5580287278" lon="31.2658056524"><ele>239.99</ele><time>2026-09-02T21:38:05Z</time></trkpt><trkpt lat="59.5580260456" lon="31.2658184767"><ele>239.99</ele><time>2026-09-02T21:38:06Z</time></trkpt><trkpt lat="59.5580221899" lon="31.2658330612"><ele>239.99</ele><time>2026-09-02T21:38:07Z</time></trkpt><trkpt lat="59.5580191724" lon="31.2658451311"><ele>239.99</ele><time>2026-09-02T21:38:08Z</time></trkpt><trkpt lat="59.5580170769" lon="31.2658587936"><ele>239.99</ele><time>2026-09-02T21:38:09Z</time></trkpt><trkpt lat="59.5580145624" lon="31.2658731267"><ele>239.99</ele><time>2026-09-02T21:38:10Z</time></trkpt><trkpt lat="59.5580134727" lon="31.2658854481"><ele>239.99</ele><time>2026-09-02T21:38:11Z</time></trkpt><trkpt lat="59.5580127183" lon="31.2659011222"><ele>239.99</ele><time>2026-09-02T21:38:12Z</time></trkpt><trkpt lat="59.5580114610" lon="31.2659162935"><ele>239.99</ele><time>2026-09-02T21:38:13Z</time></trkpt><trkpt lat="59.5580064319" lon="31.2659321353"><ele>239.99</ele><time>2026-09-02T21:38:14Z</time></trkpt><trkpt lat="59.5579998940" lon="31.2659244239"><ele>239.99</ele><time>2026-09-02T21:38:15Z</time></trkpt><trkpt lat="59.5579958707" lon="31.2659281958"><ele>239.99</ele><time>2026-09-02T21:38:16Z</time></trkpt><trkpt lat="59.5579903387" lon="31.2659265194"><ele>239.99</ele><time>2026-09-02T21:38:17Z</time></trkpt><trkpt lat="59.5579868183" lon="31.2659266870"><ele>239.99</ele><time>2026-09-02T21:38:18Z</time></trkpt><trkpt lat="59.5579845551" lon="31.2659336440"><ele>239.99</ele><time>2026-09-02T21:38:19Z</time></trkpt><trkpt lat="59.5579801966" lon="31.2659416907"><ele>239.99</ele><time>2026-09-02T21:38:20Z</time></trkpt><trkpt lat="59.5579752512" lon="31.2659495696"><ele>239.99</ele><time>2026-09-02T21:38:21Z</time></trkpt><trkpt lat="59.5579716470" lon="31.2659573648"><ele>239.99</ele><time>2026-09-02T21:38:22Z</time></trkpt><trkpt lat="59.5579660311" lon="31.2659622263"><ele>239.99</ele><time>2026-09-02T21:38:23Z</time></trkpt><trkpt lat="59.5579602476" lon="31.2659642380"><ele>239.99</ele><time>2026-09-02T21:38:24Z</time></trkpt><trkpt lat="59.5579535421" lon="31.2659740448"><ele>239.99</ele><time>2026-09-02T21:38:25Z</time></trkpt><trkpt lat="59.5579524525" lon="31.2659868691"><ele>239.99</ele><time>2026-09-02T21:38:26Z</time></trkpt><trkpt lat="59.5579464175" lon="31.2659970950"><ele>239.99</ele><time>2026-09-02T21:38:27Z</time></trkpt><trkpt lat="59.5579404663" lon="31.2660028785"><ele>239.99</ele><time>2026-09-02T21:38:28Z</time></trkpt><trkpt lat="59.5579368621" lon="31.2660128530"><ele>239.99</ele><time>2026-09-02T21:38:29Z</time></trkpt><trkpt lat="59.5579327550" lon="31.2660182174"><ele>239.99</ele><time>2026-09-02T21:38:30Z</time></trkpt><trkpt lat="59.5579297375" lon="31.2660246715"><ele>239.99</ele><time>2026-09-02T21:38:31Z</time></trkpt><trkpt lat="59.5579257980" lon="31.2660327181"><ele>239.99</ele><time>2026-09-02T21:38:32Z</time></trkpt><trkpt lat="59.5579215232" lon="31.2660409324"><ele>239.99</ele><time>2026-09-02T21:38:33Z</time></trkpt><trkpt lat="59.5579230320" lon="31.2660386693"><ele>239.99</ele><time>2026-09-02T21:38:34Z</time></trkpt><trkpt lat="59.5579202659" lon="31.2660441175"><ele>239.51</ele><time>2026-09-02T21:38:35Z</time></trkpt><trkpt lat="59.5579178352" lon="31.2660470512"><ele>239.51</ele><time>2026-09-02T21:38:36Z</time></trkpt><trkpt lat="59.5579160750" lon="31.2660538405"><ele>239.51</ele><time>2026-09-02T21:38:37Z</time></trkpt><trkpt lat="59.5579134766" lon="31.2660580315"><ele>239.51</ele><time>2026-09-02T21:38:38Z</time></trkpt><trkpt lat="59.5579118840" lon="31.2660696823"><ele>239.51</ele><time>2026-09-02T21:38:39Z</time></trkpt><trkpt lat="59.5579087827" lon="31.2660858594"><ele>239.51</ele><time>2026-09-02T21:38:40Z</time></trkpt><trkpt lat="59.5579063520" lon="31.2660963368"><ele>239.51</ele><time>2026-09-02T21:38:41Z</time></trkpt><trkpt lat="59.5579011552" lon="31.2661061436"><ele>239.02</ele><time>2026-09-02T21:38:42Z</time></trkpt><trkpt lat="59.5578964613" lon="31.2661180459"><ele>239.02</ele><time>2026-09-02T21:38:43Z</time></trkpt><trkpt lat="59.5578924380" lon="31.2661303673"><ele>239.02</ele><time>2026-09-02T21:38:44Z</time></trkpt><trkpt lat="59.5578848943" lon="31.2661494780"><ele>239.02</ele><time>2026-09-02T21:38:45Z</time></trkpt><trkpt lat="59.5578798652" lon="31.2661647331"><ele>239.02</ele><time>2026-09-02T21:38:46Z</time></trkpt><trkpt lat="59.5578694716" lon="31.2661791500"><ele>239.02</ele><time>2026-09-02T21:38:47Z</time></trkpt><trkpt lat="59.5578629337" lon="31.2661893759"><ele>238.54</ele><time>2026-09-02T21:38:48Z</time></trkpt><trkpt lat="59.5578540489" lon="31.2662020326"><ele>238.54</ele><time>2026-09-02T21:38:49Z</time></trkpt><trkpt lat="59.5578462537" lon="31.2662147731"><ele>238.54</ele><time>2026-09-02T21:38:50Z</time></trkpt><trkpt lat="59.5578388777" lon="31.2662304472"><ele>238.06</ele><time>2026-09-02T21:38:51Z</time></trkpt><trkpt lat="59.5578311663" lon="31.2662465405"><ele>238.06</ele><time>2026-09-02T21:38:52Z</time></trkpt><trkpt lat="59.5578244608" lon="31.2662640586"><ele>238.06</ele><time>2026-09-02T21:38:53Z</time></trkpt><trkpt lat="59.5578159951" lon="31.2662805710"><ele>238.06</ele><time>2026-09-02T21:38:54Z</time></trkpt><trkpt lat="59.5578086190" lon="31.2662951555"><ele>237.58</ele><time>2026-09-02T21:38:55Z</time></trkpt><trkpt lat="59.5578033384" lon="31.2663028669"><ele>237.58</ele><time>2026-09-02T21:38:56Z</time></trkpt><trkpt lat="59.5577923581" lon="31.2663071416"><ele>237.58</ele><time>2026-09-02T21:38:57Z</time></trkpt><trkpt lat="59.5577836409" lon="31.2663141824"><ele>237.58</ele><time>2026-09-02T21:38:58Z</time></trkpt><trkpt lat="59.5577766839" lon="31.2663193792"><ele>237.10</ele><time>2026-09-02T21:38:59Z</time></trkpt><trkpt lat="59.5577733312" lon="31.2663375679"><ele>237.10</ele><time>2026-09-02T21:39:00Z</time></trkpt><trkpt lat="59.5577703975" lon="31.2663550861"><ele>237.10</ele><time>2026-09-02T21:39:01Z</time></trkpt><trkpt lat="59.5577624347" lon="31.2663811538"><ele>237.10</ele><time>2026-09-02T21:39:02Z</time></trkpt><trkpt lat="59.5577587467" lon="31.2663934752"><ele>237.10</ele><time>2026-09-02T21:39:03Z</time></trkpt><trkpt lat="59.5577527955" lon="31.2663952354"><ele>236.62</ele><time>2026-09-02T21:39:04Z</time></trkpt><trkpt lat="59.5577477664" lon="31.2664046232"><ele>236.62</ele><time>2026-09-02T21:39:05Z</time></trkpt><trkpt lat="59.5577439945" lon="31.2664092332"><ele>236.62</ele><time>2026-09-02T21:39:06Z</time></trkpt><trkpt lat="59.5577379595" lon="31.2664139271"><ele>236.14</ele><time>2026-09-02T21:39:07Z</time></trkpt><trkpt lat="59.5577321760" lon="31.2664178666"><ele>236.14</ele><time>2026-09-02T21:39:08Z</time></trkpt><trkpt lat="59.5577342715" lon="31.2664172798"><ele>236.14</ele><time>2026-09-02T21:39:09Z</time></trkpt><trkpt lat="59.5577299967" lon="31.2664215546"><ele>236.14</ele><time>2026-09-02T21:39:10Z</time></trkpt><trkpt lat="59.5577251352" lon="31.2664245721"><ele>236.14</ele><time>2026-09-02T21:39:11Z</time></trkpt><trkpt lat="59.5577196870" lon="31.2664281763"><ele>236.14</ele><time>2026-09-02T21:39:12Z</time></trkpt><trkpt lat="59.5577132329" lon="31.2664388213"><ele>236.14</ele><time>2026-09-02T21:39:13Z</time></trkpt><trkpt lat="59.5577068627" lon="31.2664483767"><ele>236.14</ele><time>2026-09-02T21:39:14Z</time></trkpt><trkpt lat="59.5577015821" lon="31.2664597761"><ele>235.66</ele><time>2026-09-02T21:39:15Z</time></trkpt><trkpt lat="59.5576925296" lon="31.2664651405"><ele>235.66</ele><time>2026-09-02T21:39:16Z</time></trkpt><trkpt lat="59.5576846506" lon="31.2664723489"><ele>235.66</ele><time>2026-09-02T21:39:17Z</time></trkpt><trkpt lat="59.5576790348" lon="31.2664810661"><ele>235.66</ele><time>2026-09-02T21:39:18Z</time></trkpt><trkpt lat="59.5576756820" lon="31.2664935552"><ele>235.66</ele><time>2026-09-02T21:39:19Z</time></trkpt><trkpt lat="59.5576676354" lon="31.2665075529"><ele>235.66</ele><time>2026-09-02T21:39:20Z</time></trkpt><trkpt lat="59.5576594211" lon="31.2665185332"><ele>235.66</ele><time>2026-09-02T21:39:21Z</time></trkpt><trkpt lat="59.5576521289" lon="31.2665292621"><ele>235.66</ele><time>2026-09-02T21:39:22Z</time></trkpt><trkpt lat="59.5576421544" lon="31.2665398233"><ele>235.66</ele><time>2026-09-02T21:39:23Z</time></trkpt><trkpt lat="59.5576320961" lon="31.2665507197"><ele>235.66</ele><time>2026-09-02T21:39:24Z</time></trkpt><trkpt lat="59.5576259773" lon="31.2665629573"><ele>235.66</ele><time>2026-09-02T21:39:25Z</time></trkpt><trkpt lat="59.5576195233" lon="31.2665773742"><ele>235.66</ele><time>2026-09-02T21:39:26Z</time></trkpt><trkpt lat="59.5576124825" lon="31.2665875163"><ele>235.66</ele><time>2026-09-02T21:39:27Z</time></trkpt><trkpt lat="59.5576034300" lon="31.2665963173"><ele>235.66</ele><time>2026-09-02T21:39:28Z</time></trkpt><trkpt lat="59.5575953834" lon="31.2666060403"><ele>235.66</ele><time>2026-09-02T21:39:29Z</time></trkpt><trkpt lat="59.5575906895" lon="31.2666138355"><ele>235.66</ele><time>2026-09-02T21:39:30Z</time></trkpt><trkpt lat="59.5575845707" lon="31.2666278332"><ele>235.66</ele><time>2026-09-02T21:39:31Z</time></trkpt><trkpt lat="59.5575785358" lon="31.2666401546"><ele>235.66</ele><time>2026-09-02T21:39:32Z</time></trkpt><trkpt lat="59.5575706568" lon="31.2666607741"><ele>235.66</ele><time>2026-09-02T21:39:33Z</time></trkpt><trkpt lat="59.5575665496" lon="31.2666770350"><ele>235.66</ele><time>2026-09-02T21:39:34Z</time></trkpt><trkpt lat="59.5575614367" lon="31.2666940503"><ele>235.66</ele><time>2026-09-02T21:39:35Z</time></trkpt><trkpt lat="59.5575558208" lon="31.2667117361"><ele>235.66</ele><time>2026-09-02T21:39:36Z</time></trkpt><trkpt lat="59.5575524680" lon="31.2667257339"><ele>235.18</ele><time>2026-09-02T21:39:37Z</time></trkpt><trkpt lat="59.5575453434" lon="31.2667418271"><ele>235.66</ele><time>2026-09-02T21:39:38Z</time></trkpt><trkpt lat="59.5575400628" lon="31.2667586748"><ele>235.66</ele><time>2026-09-02T21:39:39Z</time></trkpt><trkpt lat="59.5575355366" lon="31.2667788751"><ele>235.66</ele><time>2026-09-02T21:39:40Z</time></trkpt><trkpt lat="59.5575299207" lon="31.2667924538"><ele>235.66</ele><time>2026-09-02T21:39:41Z</time></trkpt><trkpt lat="59.5575221255" lon="31.2667994946"><ele>235.66</ele><time>2026-09-02T21:39:42Z</time></trkpt><trkpt lat="59.5575140789" lon="31.2668059487"><ele>235.66</ele><time>2026-09-02T21:39:43Z</time></trkpt><trkpt lat="59.5575026795" lon="31.2668164261"><ele>235.66</ele><time>2026-09-02T21:39:44Z</time></trkpt><trkpt lat="59.5574948844" lon="31.2668239698"><ele>235.66</ele><time>2026-09-02T21:39:45Z</time></trkpt><trkpt lat="59.5574878436" lon="31.2668342795"><ele>235.66</ele><time>2026-09-02T21:39:46Z</time></trkpt><trkpt lat="59.5574812219" lon="31.2668450922"><ele>235.66</ele><time>2026-09-02T21:39:47Z</time></trkpt><trkpt lat="59.5574736781" lon="31.2668553181"><ele>235.66</ele><time>2026-09-02T21:39:48Z</time></trkpt><trkpt lat="59.5574621949" lon="31.2668622751"><ele>235.66</ele><time>2026-09-02T21:39:49Z</time></trkpt><trkpt lat="59.5574572496" lon="31.2668700702"><ele>235.66</ele><time>2026-09-02T21:39:50Z</time></trkpt><trkpt lat="59.5574525557" lon="31.2668750994"><ele>235.66</ele><time>2026-09-02T21:39:51Z</time></trkpt><trkpt lat="59.5574479457" lon="31.2668777816"><ele>235.66</ele><time>2026-09-02T21:39:52Z</time></trkpt><trkpt lat="59.5574435871" lon="31.2668845709"><ele>235.66</ele><time>2026-09-02T21:39:53Z</time></trkpt><trkpt lat="59.5574443415" lon="31.2668807991"><ele>235.66</ele><time>2026-09-02T21:39:54Z</time></trkpt><trkpt lat="59.5574402343" lon="31.2668826431"><ele>235.66</ele><time>2026-09-02T21:39:55Z</time></trkpt><trkpt lat="59.5574352890" lon="31.2668871693"><ele>235.66</ele><time>2026-09-02T21:39:56Z</time></trkpt><trkpt lat="59.5574307628" lon="31.2668916956"><ele>235.66</ele><time>2026-09-02T21:39:57Z</time></trkpt><trkpt lat="59.5574260689" lon="31.2668970600"><ele>235.66</ele><time>2026-09-02T21:39:58Z</time></trkpt><trkpt lat="59.5574218780" lon="31.2668998260"><ele>235.66</ele><time>2026-09-02T21:39:59Z</time></trkpt><trkpt lat="59.5574176870" lon="31.2669071183"><ele>235.66</ele><time>2026-09-02T21:40:00Z</time></trkpt><trkpt lat="59.5574125741" lon="31.2669126503"><ele>235.66</ele><time>2026-09-02T21:40:01Z</time></trkpt><trkpt lat="59.5574079640" lon="31.2669185176"><ele>235.66</ele><time>2026-09-02T21:40:02Z</time></trkpt><trkpt lat="59.5574023481" lon="31.2669272348"><ele>235.66</ele><time>2026-09-02T21:40:03Z</time></trkpt><trkpt lat="59.5573959779" lon="31.2669336889"><ele>235.66</ele><time>2026-09-02T21:40:04Z</time></trkpt><trkpt lat="59.5573917869" lon="31.2669467647"><ele>235.66</ele><time>2026-09-02T21:40:05Z</time></trkpt><trkpt lat="59.5573860873" lon="31.2669569906"><ele>235.66</ele><time>2026-09-02T21:40:06Z</time></trkpt><trkpt lat="59.5573796332" lon="31.2669670489"><ele>235.66</ele><time>2026-09-02T21:40:07Z</time></trkpt><trkpt lat="59.5573689882" lon="31.2669887580"><ele>235.66</ele><time>2026-09-02T21:40:08Z</time></trkpt><trkpt lat="59.5573650487" lon="31.2670074496"><ele>235.66</ele><time>2026-09-02T21:40:09Z</time></trkpt><trkpt lat="59.5573589299" lon="31.2670266442"><ele>235.66</ele><time>2026-09-02T21:40:10Z</time></trkpt><trkpt lat="59.5573553257" lon="31.2670440786"><ele>235.66</ele><time>2026-09-02T21:40:11Z</time></trkpt><trkpt lat="59.5573554933" lon="31.2670607585"><ele>235.66</ele><time>2026-09-02T21:40:12Z</time></trkpt><trkpt lat="59.5573541522" lon="31.2670793664"><ele>235.66</ele><time>2026-09-02T21:40:13Z</time></trkpt><trkpt lat="59.5573485363" lon="31.2671000697"><ele>235.66</ele><time>2026-09-02T21:40:14Z</time></trkpt><trkpt lat="59.5573465247" lon="31.2671183422"><ele>235.66</ele><time>2026-09-02T21:40:15Z</time></trkpt><trkpt lat="59.5573442616" lon="31.2671382912"><ele>235.66</ele><time>2026-09-02T21:40:16Z</time></trkpt><trkpt lat="59.5573476981" lon="31.2671529595"><ele>235.66</ele><time>2026-09-02T21:40:17Z</time></trkpt><trkpt lat="59.5573516376" lon="31.2671668734"><ele>235.66</ele><time>2026-09-02T21:40:18Z</time></trkpt><trkpt lat="59.5573531464" lon="31.2671773508"><ele>235.66</ele><time>2026-09-02T21:40:19Z</time></trkpt><trkpt lat="59.5573508833" lon="31.2671927735"><ele>235.66</ele><time>2026-09-02T21:40:20Z</time></trkpt><trkpt lat="59.5573469438" lon="31.2672118843"><ele>235.66</ele><time>2026-09-02T21:40:21Z</time></trkpt><trkpt lat="59.5573421661" lon="31.2672327552"><ele>235.66</ele><time>2026-09-02T21:40:22Z</time></trkpt><trkpt lat="59.5573379751" lon="31.2672454957"><ele>235.66</ele><time>2026-09-02T21:40:23Z</time></trkpt><trkpt lat="59.5573330298" lon="31.2672565598"><ele>235.66</ele><time>2026-09-02T21:40:24Z</time></trkpt><trkpt lat="59.5573284198" lon="31.2672709767"><ele>235.66</ele><time>2026-09-02T21:40:25Z</time></trkpt><trkpt lat="59.5573216304" lon="31.2672805320"><ele>235.66</ele><time>2026-09-02T21:40:26Z</time></trkpt><trkpt lat="59.5573151764" lon="31.2672918476"><ele>235.66</ele><time>2026-09-02T21:40:27Z</time></trkpt><trkpt lat="59.5573191997" lon="31.2672886625"><ele>235.66</ele><time>2026-09-02T21:40:28Z</time></trkpt><trkpt lat="59.5573147573" lon="31.2672952842"><ele>236.14</ele><time>2026-09-02T21:40:29Z</time></trkpt><trkpt lat="59.5573132485" lon="31.2672999781"><ele>236.14</ele><time>2026-09-02T21:40:30Z</time></trkpt><trkpt lat="59.5573112369" lon="31.2673065998"><ele>236.14</ele><time>2026-09-02T21:40:31Z</time></trkpt><trkpt lat="59.5573079679" lon="31.2673162390"><ele>236.14</ele><time>2026-09-02T21:40:32Z</time></trkpt><trkpt lat="59.5573029388" lon="31.2673231959"><ele>236.14</ele><time>2026-09-02T21:40:33Z</time></trkpt><trkpt lat="59.5572946407" lon="31.2673299853"><ele>236.62</ele><time>2026-09-02T21:40:34Z</time></trkpt><trkpt lat="59.5572871808" lon="31.2673361879"><ele>236.62</ele><time>2026-09-02T21:40:35Z</time></trkpt><trkpt lat="59.5572761167" lon="31.2673500180"><ele>236.62</ele><time>2026-09-02T21:40:36Z</time></trkpt><trkpt lat="59.5572693273" lon="31.2673600763"><ele>236.62</ele><time>2026-09-02T21:40:37Z</time></trkpt><trkpt lat="59.5572648849" lon="31.2673663627"><ele>236.62</ele><time>2026-09-02T21:40:38Z</time></trkpt><trkpt lat="59.5572583470" lon="31.2673759181"><ele>236.62</ele><time>2026-09-02T21:40:39Z</time></trkpt><trkpt lat="59.5572448522" lon="31.2673908379"><ele>237.10</ele><time>2026-09-02T21:40:40Z</time></trkpt><trkpt lat="59.5572376437" lon="31.2674013991"><ele>237.10</ele><time>2026-09-02T21:40:41Z</time></trkpt><trkpt lat="59.5572311897" lon="31.2674121279"><ele>237.10</ele><time>2026-09-02T21:40:42Z</time></trkpt><trkpt lat="59.5572211314" lon="31.2674192525"><ele>237.10</ele><time>2026-09-02T21:40:43Z</time></trkpt><trkpt lat="59.5572155993" lon="31.2674263772"><ele>237.58</ele><time>2026-09-02T21:40:44Z</time></trkpt><trkpt lat="59.5572097320" lon="31.2674332503"><ele>237.58</ele><time>2026-09-02T21:40:45Z</time></trkpt><trkpt lat="59.5572062954" lon="31.2674370222"><ele>237.58</ele><time>2026-09-02T21:40:46Z</time></trkpt><trkpt lat="59.5572034456" lon="31.2674413808"><ele>237.58</ele><time>2026-09-02T21:40:47Z</time></trkpt><trkpt lat="59.5571971592" lon="31.2674454879"><ele>237.58</ele><time>2026-09-02T21:40:48Z</time></trkpt><trkpt lat="59.5571907889" lon="31.2674484216"><ele>237.58</ele><time>2026-09-02T21:40:49Z</time></trkpt><trkpt lat="59.5571842510" lon="31.2674507685"><ele>237.58</ele><time>2026-09-02T21:40:50Z</time></trkpt><trkpt lat="59.5571765397" lon="31.2674523611"><ele>237.58</ele><time>2026-09-02T21:40:51Z</time></trkpt><trkpt lat="59.5571684930" lon="31.2674587313"><ele>237.58</ele><time>2026-09-02T21:40:52Z</time></trkpt><trkpt lat="59.5571589377" lon="31.2674659397"><ele>237.58</ele><time>2026-09-02T21:40:53Z</time></trkpt><trkpt lat="59.5571494661" lon="31.2674720585"><ele>237.58</ele><time>2026-09-02T21:40:54Z</time></trkpt><trkpt lat="59.5571386535" lon="31.2674794346"><ele>237.58</ele><time>2026-09-02T21:40:55Z</time></trkpt><trkpt lat="59.5571271703" lon="31.2674858887"><ele>237.58</ele><time>2026-09-02T21:40:56Z</time></trkpt><trkpt lat="59.5571186207" lon="31.2674933486"><ele>237.58</ele><time>2026-09-02T21:40:57Z</time></trkpt><trkpt lat="59.5571097359" lon="31.2674965337"><ele>237.58</ele><time>2026-09-02T21:40:58Z</time></trkpt><trkpt lat="59.5571059640" lon="31.2675035745"><ele>237.58</ele><time>2026-09-02T21:40:59Z</time></trkpt><trkpt lat="59.5571022760" lon="31.2675045803"><ele>237.58</ele><time>2026-09-02T21:41:00Z</time></trkpt><trkpt lat="59.5570918825" lon="31.2675147224"><ele>237.58</ele><time>2026-09-02T21:41:01Z</time></trkpt><trkpt lat="59.5570866857" lon="31.2675171532"><ele>237.58</ele><time>2026-09-02T21:41:02Z</time></trkpt><trkpt lat="59.5570885297" lon="31.2675152253"><ele>237.58</ele><time>2026-09-02T21:41:03Z</time></trkpt><trkpt lat="59.5570851769" lon="31.2675157283"><ele>237.58</ele><time>2026-09-02T21:41:04Z</time></trkpt><trkpt lat="59.5570847578" lon="31.2675168179"><ele>237.58</ele><time>2026-09-02T21:41:05Z</time></trkpt><trkpt lat="59.5570841711" lon="31.2675171532"><ele>237.58</ele><time>2026-09-02T21:41:06Z</time></trkpt><trkpt lat="59.5570872724" lon="31.2675142195"><ele>237.58</ele><time>2026-09-02T21:41:07Z</time></trkpt><trkpt lat="59.5570862666" lon="31.2675066758"><ele>237.58</ele><time>2026-09-02T21:41:08Z</time></trkpt><trkpt lat="59.5570849255" lon="31.2674991321"><ele>237.58</ele><time>2026-09-02T21:41:09Z</time></trkpt><trkpt lat="59.5570866857" lon="31.2674934324"><ele>237.58</ele><time>2026-09-02T21:41:10Z</time></trkpt><trkpt lat="59.5570864342" lon="31.2674928457"><ele>237.58</ele><time>2026-09-02T21:41:11Z</time></trkpt><trkpt lat="59.5570862666" lon="31.2674917560"><ele>237.58</ele><time>2026-09-02T21:41:12Z</time></trkpt><trkpt lat="59.5570858475" lon="31.2674906664"><ele>237.58</ele><time>2026-09-02T21:41:13Z</time></trkpt><trkpt lat="59.5570862666" lon="31.2674877327"><ele>237.58</ele><time>2026-09-02T21:41:14Z</time></trkpt><trkpt lat="59.5570862666" lon="31.2674906664"><ele>237.58</ele><time>2026-09-02T21:41:15Z</time></trkpt><trkpt lat="59.5570866857" lon="31.2674879842"><ele>237.58</ele><time>2026-09-02T21:41:16Z</time></trkpt><trkpt lat="59.5570861828" lon="31.2674866430"><ele>237.58</ele><time>2026-09-02T21:41:17Z</time></trkpt><trkpt lat="59.5570860989" lon="31.2674856372"><ele>237.58</ele><time>2026-09-02T21:41:18Z</time></trkpt><trkpt lat="59.5570859313" lon="31.2674851343"><ele>237.58</ele><time>2026-09-02T21:41:19Z</time></trkpt><trkpt lat="59.5570860989" lon="31.2674836256"><ele>237.58</ele><time>2026-09-02T21:41:20Z</time></trkpt><trkpt lat="59.5570868533" lon="31.2674823683"><ele>237.58</ele><time>2026-09-02T21:41:21Z</time></trkpt><trkpt lat="59.5570872724" lon="31.2674800213"><ele>237.58</ele><time>2026-09-02T21:41:22Z</time></trkpt><trkpt lat="59.5570883621" lon="31.2674775906"><ele>237.58</ele><time>2026-09-02T21:41:23Z</time></trkpt><trkpt lat="59.5570886973" lon="31.2674752437"><ele>237.58</ele><time>2026-09-02T21:41:24Z</time></trkpt><trkpt lat="59.5570890326" lon="31.2674732320"><ele>237.58</ele><time>2026-09-02T21:41:25Z</time></trkpt><trkpt lat="59.5570896193" lon="31.2674722262"><ele>237.58</ele><time>2026-09-02T21:41:26Z</time></trkpt><trkpt lat="59.5570893679" lon="31.2674724776"><ele>237.58</ele><time>2026-09-02T21:41:27Z</time></trkpt><trkpt lat="59.5570899546" lon="31.2674721424"><ele>237.58</ele><time>2026-09-02T21:41:28Z</time></trkpt><trkpt lat="59.5570902899" lon="31.2674721424"><ele>237.58</ele><time>2026-09-02T21:41:29Z</time></trkpt><trkpt lat="59.5570912957" lon="31.2674720585"><ele>237.58</ele><time>2026-09-02T21:41:30Z</time></trkpt><trkpt lat="59.5570927206" lon="31.2674723938"><ele>237.58</ele><time>2026-09-02T21:41:31Z</time></trkpt><trkpt lat="59.5570927206" lon="31.2674724776"><ele>237.58</ele><time>2026-09-02T21:41:32Z</time></trkpt><trkpt lat="59.5570892841" lon="31.2674766686"><ele>237.58</ele><time>2026-09-02T21:41:33Z</time></trkpt><trkpt lat="59.5570893679" lon="31.2674775906"><ele>237.58</ele><time>2026-09-02T21:41:34Z</time></trkpt><trkpt lat="59.5570885297" lon="31.2674794346"><ele>237.58</ele><time>2026-09-02T21:41:35Z</time></trkpt><trkpt lat="59.5570891164" lon="31.2674792670"><ele>237.58</ele><time>2026-09-02T21:41:36Z</time></trkpt><trkpt lat="59.5570892841" lon="31.2674790993"><ele>237.58</ele><time>2026-09-02T21:41:37Z</time></trkpt><trkpt lat="59.5570890326" lon="31.2674783450"><ele>237.58</ele><time>2026-09-02T21:41:38Z</time></trkpt><trkpt lat="59.5570884459" lon="31.2674777582"><ele>237.58</ele><time>2026-09-02T21:41:39Z</time></trkpt><trkpt lat="59.5570880268" lon="31.2674767524"><ele>237.58</ele><time>2026-09-02T21:41:40Z</time></trkpt><trkpt lat="59.5570874400" lon="31.2674756628"><ele>237.58</ele><time>2026-09-02T21:41:41Z</time></trkpt><trkpt lat="59.5570869371" lon="31.2674744893"><ele>237.58</ele><time>2026-09-02T21:41:42Z</time></trkpt><trkpt lat="59.5570854284" lon="31.2674743216"><ele>237.58</ele><time>2026-09-02T21:41:43Z</time></trkpt><trkpt lat="59.5570848417" lon="31.2674739864"><ele>237.58</ele><time>2026-09-02T21:41:44Z</time></trkpt><trkpt lat="59.5570836682" lon="31.2674726453"><ele>237.58</ele><time>2026-09-02T21:41:45Z</time></trkpt><trkpt lat="59.5570813213" lon="31.2674780935"><ele>237.58</ele><time>2026-09-02T21:41:46Z</time></trkpt><trkpt lat="59.5570784714" lon="31.2674802728"><ele>237.58</ele><time>2026-09-02T21:41:47Z</time></trkpt><trkpt lat="59.5570778847" lon="31.2674841285"><ele>237.58</ele><time>2026-09-02T21:41:48Z</time></trkpt><trkpt lat="59.5570770465" lon="31.2674894929"><ele>237.58</ele><time>2026-09-02T21:41:49Z</time></trkpt><trkpt lat="59.5570763759" lon="31.2674944382"><ele>237.58</ele><time>2026-09-02T21:41:50Z</time></trkpt><trkpt lat="59.5570766274" lon="31.2674909178"><ele>237.58</ele><time>2026-09-02T21:41:51Z</time></trkpt><trkpt lat="59.5570759568" lon="31.2674901634"><ele>237.58</ele><time>2026-09-02T21:41:52Z</time></trkpt><trkpt lat="59.5570721850" lon="31.2675055861"><ele>237.58</ele><time>2026-09-02T21:41:53Z</time></trkpt><trkpt lat="59.5570684969" lon="31.2675189972"><ele>237.58</ele><time>2026-09-02T21:41:54Z</time></trkpt><trkpt lat="59.5570673235" lon="31.2675329950"><ele>237.58</ele><time>2026-09-02T21:41:55Z</time></trkpt><trkpt lat="59.5570686646" lon="31.2675480824"><ele>237.58</ele><time>2026-09-02T21:41:56Z</time></trkpt><trkpt lat="59.5570667367" lon="31.2675590627"><ele>237.58</ele><time>2026-09-02T21:41:57Z</time></trkpt><trkpt lat="59.5570638869" lon="31.2675698753"><ele>237.58</ele><time>2026-09-02T21:41:58Z</time></trkpt><trkpt lat="59.5570622943" lon="31.2675822806"><ele>237.58</ele><time>2026-09-02T21:41:59Z</time></trkpt><trkpt lat="59.5570588578" lon="31.2675962783"><ele>237.58</ele><time>2026-09-02T21:42:00Z</time></trkpt><trkpt lat="59.5570561755" lon="31.2676079292"><ele>237.58</ele><time>2026-09-02T21:42:01Z</time></trkpt><trkpt lat="59.5570508949" lon="31.2676186580"><ele>238.06</ele><time>2026-09-02T21:42:02Z</time></trkpt><trkpt lat="59.5570455305" lon="31.2676356733"><ele>238.06</ele><time>2026-09-02T21:42:03Z</time></trkpt><trkpt lat="59.5570396632" lon="31.2676454801"><ele>238.06</ele><time>2026-09-02T21:42:04Z</time></trkpt><trkpt lat="59.5570371486" lon="31.2676501740"><ele>238.54</ele><time>2026-09-02T21:42:05Z</time></trkpt><trkpt lat="59.5570308622" lon="31.2676625792"><ele>238.54</ele><time>2026-09-02T21:42:06Z</time></trkpt><trkpt lat="59.5570226479" lon="31.2676755711"><ele>239.02</ele><time>2026-09-02T21:42:07Z</time></trkpt><trkpt lat="59.5570155233" lon="31.2676912453"><ele>239.02</ele><time>2026-09-02T21:42:08Z</time></trkpt><trkpt lat="59.5570089854" lon="31.2677000463"><ele>239.02</ele><time>2026-09-02T21:42:09Z</time></trkpt><trkpt lat="59.5570049621" lon="31.2677095179"><ele>239.02</ele><time>2026-09-02T21:42:10Z</time></trkpt><trkpt lat="59.5569998492" lon="31.2677121162"><ele>239.02</ele><time>2026-09-02T21:42:11Z</time></trkpt><trkpt lat="59.5569972508" lon="31.2677202467"><ele>239.02</ele><time>2026-09-02T21:42:12Z</time></trkpt><trkpt lat="59.5569964964" lon="31.2677291315"><ele>239.02</ele><time>2026-09-02T21:42:13Z</time></trkpt><trkpt lat="59.5569929760" lon="31.2677369267"><ele>239.02</ele><time>2026-09-02T21:42:14Z</time></trkpt><trkpt lat="59.5569893718" lon="31.2677446380"><ele>239.51</ele><time>2026-09-02T21:42:15Z</time></trkpt><trkpt lat="59.5569877792" lon="31.2677534390"><ele>239.51</ele><time>2026-09-02T21:42:16Z</time></trkpt><trkpt lat="59.5569853485" lon="31.2677560374"><ele>239.51</ele><time>2026-09-02T21:42:17Z</time></trkpt><trkpt lat="59.5569827501" lon="31.2677580491"><ele>239.51</ele><time>2026-09-02T21:42:18Z</time></trkpt><trkpt lat="59.5569820795" lon="31.2677626591"><ele>239.51</ele><time>2026-09-02T21:42:19Z</time></trkpt><trkpt lat="59.5569807384" lon="31.2677711248"><ele>239.99</ele><time>2026-09-02T21:42:20Z</time></trkpt><trkpt lat="59.5569788944" lon="31.2677788362"><ele>239.51</ele><time>2026-09-02T21:42:21Z</time></trkpt><trkpt lat="59.5569805708" lon="31.2677759863"><ele>239.51</ele><time>2026-09-02T21:42:22Z</time></trkpt><trkpt lat="59.5569809899" lon="31.2677820213"><ele>239.51</ele><time>2026-09-02T21:42:23Z</time></trkpt><trkpt lat="59.5569801517" lon="31.2677856255"><ele>239.51</ele><time>2026-09-02T21:42:24Z</time></trkpt><trkpt lat="59.5569796488" lon="31.2677859608"><ele>239.51</ele><time>2026-09-02T21:42:25Z</time></trkpt><trkpt lat="59.5569833368" lon="31.2677941751"><ele>239.99</ele><time>2026-09-02T21:42:26Z</time></trkpt><trkpt lat="59.5569856837" lon="31.2677974440"><ele>239.99</ele><time>2026-09-02T21:42:27Z</time></trkpt><trkpt lat="59.5569848455" lon="31.2678023893"><ele>239.99</ele><time>2026-09-02T21:42:28Z</time></trkpt><trkpt lat="59.5569847617" lon="31.2678060774"><ele>239.99</ele><time>2026-09-02T21:42:29Z</time></trkpt><trkpt lat="59.5569841750" lon="31.2678119447"><ele>239.99</ele><time>2026-09-02T21:42:30Z</time></trkpt><trkpt lat="59.5569821633" lon="31.2678165548"><ele>239.99</ele><time>2026-09-02T21:42:31Z</time></trkpt><trkpt lat="59.5569815766" lon="31.2678228412"><ele>239.99</ele><time>2026-09-02T21:42:32Z</time></trkpt><trkpt lat="59.5569816604" lon="31.2678221706"><ele>239.51</ele><time>2026-09-02T21:42:33Z</time></trkpt><trkpt lat="59.5569816604" lon="31.2678251881"><ele>239.51</ele><time>2026-09-02T21:42:34Z</time></trkpt><trkpt lat="59.5569810737" lon="31.2678289600"><ele>239.51</ele><time>2026-09-02T21:42:35Z</time></trkpt><trkpt lat="59.5569789782" lon="31.2678309716"><ele>239.51</ele><time>2026-09-02T21:42:36Z</time></trkpt><trkpt lat="59.5569741167" lon="31.2678276189"><ele>239.51</ele><time>2026-09-02T21:42:37Z</time></trkpt><trkpt lat="59.5569721889" lon="31.2678356655"><ele>239.99</ele><time>2026-09-02T21:42:38Z</time></trkpt><trkpt lat="59.5569652319" lon="31.2678496633"><ele>239.99</ele><time>2026-09-02T21:42:39Z</time></trkpt><trkpt lat="59.5569602866" lon="31.2678617332"><ele>239.99</ele><time>2026-09-02T21:42:40Z</time></trkpt><trkpt lat="59.5569568500" lon="31.2678753957"><ele>239.99</ele><time>2026-09-02T21:42:41Z</time></trkpt><trkpt lat="59.5569531620" lon="31.2678842805"><ele>239.99</ele><time>2026-09-02T21:42:42Z</time></trkpt><trkpt lat="59.5569460373" lon="31.2678928301"><ele>239.99</ele><time>2026-09-02T21:42:43Z</time></trkpt><trkpt lat="59.5569389965" lon="31.2679026369"><ele>239.99</ele><time>2026-09-02T21:42:44Z</time></trkpt><trkpt lat="59.5569297764" lon="31.2679136172"><ele>239.99</ele><time>2026-09-02T21:42:45Z</time></trkpt><trkpt lat="59.5569240768" lon="31.2679254357"><ele>239.99</ele><time>2026-09-02T21:42:46Z</time></trkpt><trkpt lat="59.5569172874" lon="31.2679378409"><ele>239.99</ele><time>2026-09-02T21:42:47Z</time></trkpt><trkpt lat="59.5569111686" lon="31.2679496594"><ele>239.99</ele><time>2026-09-02T21:42:48Z</time></trkpt><trkpt lat="59.5569017809" lon="31.2679610588"><ele>239.99</ele><time>2026-09-02T21:42:49Z</time></trkpt><trkpt lat="59.5568913873" lon="31.2679764815"><ele>239.99</ele><time>2026-09-02T21:42:50Z</time></trkpt><trkpt lat="59.5568838436" lon="31.2679883838"><ele>239.99</ele><time>2026-09-02T21:42:51Z</time></trkpt><trkpt lat="59.5568755455" lon="31.2680015434"><ele>239.99</ele><time>2026-09-02T21:42:52Z</time></trkpt><trkpt lat="59.5568665769" lon="31.2680192292"><ele>239.99</ele><time>2026-09-02T21:42:53Z</time></trkpt><trkpt lat="59.5568593685" lon="31.2680335622"><ele>239.99</ele><time>2026-09-02T21:42:54Z</time></trkpt><trkpt lat="59.5568492264" lon="31.2680479791"><ele>239.99</ele><time>2026-09-02T21:42:55Z</time></trkpt><trkpt lat="59.5568346418" lon="31.2680696882"><ele>239.99</ele><time>2026-09-02T21:42:56Z</time></trkpt><trkpt lat="59.5568250865" lon="31.2680816744"><ele>239.99</ele><time>2026-09-02T21:42:57Z</time></trkpt><trkpt lat="59.5568130165" lon="31.2680896372"><ele>239.99</ele><time>2026-09-02T21:42:58Z</time></trkpt><trkpt lat="59.5568015333" lon="31.2680912297"><ele>239.99</ele><time>2026-09-02T21:42:59Z</time></trkpt><trkpt lat="59.5567907207" lon="31.2680948339"><ele>239.99</ele><time>2026-09-02T21:43:00Z</time></trkpt><trkpt lat="59.5567811653" lon="31.2680990249"><ele>239.99</ele><time>2026-09-02T21:43:01Z</time></trkpt><trkpt lat="59.5567697659" lon="31.2681048922"><ele>239.99</ele><time>2026-09-02T21:43:02Z</time></trkpt><trkpt lat="59.5567569416" lon="31.2681115977"><ele>239.99</ele><time>2026-09-02T21:43:03Z</time></trkpt><trkpt lat="59.5567453746" lon="31.2681171298"><ele>239.99</ele><time>2026-09-02T21:43:04Z</time></trkpt><trkpt lat="59.5567324664" lon="31.2681173813"><ele>239.51</ele><time>2026-09-02T21:43:05Z</time></trkpt><trkpt lat="59.5567220729" lon="31.2681177165"><ele>239.51</ele><time>2026-09-02T21:43:06Z</time></trkpt><trkpt lat="59.5567157865" lon="31.2681203987"><ele>239.51</ele><time>2026-09-02T21:43:07Z</time></trkpt><trkpt lat="59.5567071531" lon="31.2681269366"><ele>239.51</ele><time>2026-09-02T21:43:08Z</time></trkpt><trkpt lat="59.5566987712" lon="31.2681323849"><ele>239.51</ele><time>2026-09-02T21:43:09Z</time></trkpt><trkpt lat="59.5566945802" lon="31.2681477237"><ele>239.51</ele><time>2026-09-02T21:43:10Z</time></trkpt><trkpt lat="59.5566913951" lon="31.2681589555"><ele>239.51</ele><time>2026-09-02T21:43:11Z</time></trkpt><trkpt lat="59.5566850249" lon="31.2681732886"><ele>239.51</ele><time>2026-09-02T21:43:12Z</time></trkpt><trkpt lat="59.5566785708" lon="31.2681885436"><ele>239.51</ele><time>2026-09-02T21:43:13Z</time></trkpt><trkpt lat="59.5566760562" lon="31.2682019547"><ele>239.51</ele><time>2026-09-02T21:43:14Z</time></trkpt><trkpt lat="59.5566695184" lon="31.2682174612"><ele>239.02</ele><time>2026-09-02T21:43:15Z</time></trkpt><trkpt lat="59.5566664170" lon="31.2682311237"><ele>239.02</ele><time>2026-09-02T21:43:16Z</time></trkpt><trkpt lat="59.5566578675" lon="31.2682464626"><ele>239.02</ele><time>2026-09-02T21:43:17Z</time></trkpt><trkpt lat="59.5566536766" lon="31.2682611309"><ele>239.02</ele><time>2026-09-02T21:43:18Z</time></trkpt><trkpt lat="59.5566458814" lon="31.2682720274"><ele>239.02</ele><time>2026-09-02T21:43:19Z</time></trkpt><trkpt lat="59.5566383377" lon="31.2682820857"><ele>239.02</ele><time>2026-09-02T21:43:20Z</time></trkpt><trkpt lat="59.5566348173" lon="31.2682868633"><ele>239.02</ele><time>2026-09-02T21:43:21Z</time></trkpt><trkpt lat="59.5566272736" lon="31.2682989333"><ele>239.02</ele><time>2026-09-02T21:43:22Z</time></trkpt><trkpt lat="59.5566231664" lon="31.2683078181"><ele>239.02</ele><time>2026-09-02T21:43:23Z</time></trkpt><trkpt lat="59.5566201489" lon="31.2683147751"><ele>238.54</ele><time>2026-09-02T21:43:24Z</time></trkpt><trkpt lat="59.5566217415" lon="31.2683090754"><ele>238.54</ele><time>2026-09-02T21:43:25Z</time></trkpt><trkpt lat="59.5566193946" lon="31.2683140207"><ele>238.54</ele><time>2026-09-02T21:43:26Z</time></trkpt><trkpt lat="59.5566216577" lon="31.2683116738"><ele>238.54</ele><time>2026-09-02T21:43:27Z</time></trkpt><trkpt lat="59.5566184726" lon="31.2683115900"><ele>238.54</ele><time>2026-09-02T21:43:28Z</time></trkpt><trkpt lat="59.5566164609" lon="31.2683122605"><ele>238.54</ele><time>2026-09-02T21:43:29Z</time></trkpt><trkpt lat="59.5566112641" lon="31.2683130987"><ele>238.54</ele><time>2026-09-02T21:43:30Z</time></trkpt><trkpt lat="59.5566066541" lon="31.2683202233"><ele>238.54</ele><time>2026-09-02T21:43:31Z</time></trkpt><trkpt lat="59.5565989427" lon="31.2683320418"><ele>238.54</ele><time>2026-09-02T21:43:32Z</time></trkpt><trkpt lat="59.5565845259" lon="31.2683401722"><ele>238.54</ele><time>2026-09-02T21:43:33Z</time></trkpt><trkpt lat="59.5565746352" lon="31.2683527451"><ele>238.06</ele><time>2026-09-02T21:43:34Z</time></trkpt><trkpt lat="59.5565666724" lon="31.2683667429"><ele>238.06</ele><time>2026-09-02T21:43:35Z</time></trkpt><trkpt lat="59.5565596316" lon="31.2683820818"><ele>238.06</ele><time>2026-09-02T21:43:36Z</time></trkpt><trkpt lat="59.5565540995" lon="31.2683992647"><ele>238.06</ele><time>2026-09-02T21:43:37Z</time></trkpt><trkpt lat="59.5565482322" lon="31.2684172858"><ele>237.58</ele><time>2026-09-02T21:43:38Z</time></trkpt><trkpt lat="59.5565423649" lon="31.2684325408"><ele>237.58</ele><time>2026-09-02T21:43:39Z</time></trkpt><trkpt lat="59.5565346535" lon="31.2684466224"><ele>237.58</ele><time>2026-09-02T21:43:40Z</time></trkpt><trkpt lat="59.5565261878" lon="31.2684653979"><ele>237.58</ele><time>2026-09-02T21:43:41Z</time></trkpt><trkpt lat="59.5565156266" lon="31.2684834190"><ele>237.58</ele><time>2026-09-02T21:43:42Z</time></trkpt><trkpt lat="59.5565083344" lon="31.2685005181"><ele>237.58</ele><time>2026-09-02T21:43:43Z</time></trkpt><trkpt lat="59.5565002877" lon="31.2685194612"><ele>237.10</ele><time>2026-09-02T21:43:44Z</time></trkpt><trkpt lat="59.5564914867" lon="31.2685329560"><ele>237.10</ele><time>2026-09-02T21:43:45Z</time></trkpt><trkpt lat="59.5564855356" lon="31.2685454451"><ele>236.62</ele><time>2026-09-02T21:43:46Z</time></trkpt><trkpt lat="59.5564829372" lon="31.2685632985"><ele>236.62</ele><time>2026-09-02T21:43:47Z</time></trkpt><trkpt lat="59.5564808417" lon="31.2685825769"><ele>236.62</ele><time>2026-09-02T21:43:48Z</time></trkpt><trkpt lat="59.5564759802" lon="31.2686008494"><ele>236.62</ele><time>2026-09-02T21:43:49Z</time></trkpt><trkpt lat="59.5564699452" lon="31.2686175294"><ele>236.62</ele><time>2026-09-02T21:43:50Z</time></trkpt><trkpt lat="59.5564640779" lon="31.2686256599"><ele>236.14</ele><time>2026-09-02T21:43:51Z</time></trkpt><trkpt lat="59.5564507507" lon="31.2686401606"><ele>236.14</ele><time>2026-09-02T21:43:52Z</time></trkpt><trkpt lat="59.5564422850" lon="31.2686494645"><ele>236.14</ele><time>2026-09-02T21:43:53Z</time></trkpt><trkpt lat="59.5564371720" lon="31.2686587684"><ele>236.14</ele><time>2026-09-02T21:43:54Z</time></trkpt><trkpt lat="59.5564342383" lon="31.2686692458"><ele>236.14</ele><time>2026-09-02T21:43:55Z</time></trkpt><trkpt lat="59.5564335678" lon="31.2686806452"><ele>235.66</ele><time>2026-09-02T21:43:56Z</time></trkpt><trkpt lat="59.5564300474" lon="31.2686912902"><ele>235.66</ele><time>2026-09-02T21:43:57Z</time></trkpt><trkpt lat="59.5564262755" lon="31.2686995883"><ele>235.66</ele><time>2026-09-02T21:43:58Z</time></trkpt><trkpt lat="59.5564229228" lon="31.2687080540"><ele>235.66</ele><time>2026-09-02T21:43:59Z</time></trkpt><trkpt lat="59.5564187318" lon="31.2687218841"><ele>235.66</ele><time>2026-09-02T21:44:00Z</time></trkpt><trkpt lat="59.5564208273" lon="31.2687137537"><ele>235.66</ele><time>2026-09-02T21:44:01Z</time></trkpt><trkpt lat="59.5564183965" lon="31.2687217165"><ele>235.66</ele><time>2026-09-02T21:44:02Z</time></trkpt><trkpt lat="59.5564182289" lon="31.2687219679"><ele>235.18</ele><time>2026-09-02T21:44:03Z</time></trkpt><trkpt lat="59.5564186480" lon="31.2687229738"><ele>235.18</ele><time>2026-09-02T21:44:04Z</time></trkpt><trkpt lat="59.5564183965" lon="31.2687244825"><ele>235.18</ele><time>2026-09-02T21:44:05Z</time></trkpt><trkpt lat="59.5564179774" lon="31.2687255722"><ele>235.18</ele><time>2026-09-02T21:44:06Z</time></trkpt><trkpt lat="59.5564176422" lon="31.2687269971"><ele>235.18</ele><time>2026-09-02T21:44:07Z</time></trkpt><trkpt lat="59.5564183965" lon="31.2687302660"><ele>235.18</ele><time>2026-09-02T21:44:08Z</time></trkpt><trkpt lat="59.5564180613" lon="31.2687324453"><ele>235.18</ele><time>2026-09-02T21:44:09Z</time></trkpt><trkpt lat="59.5564177260" lon="31.2687354628"><ele>235.18</ele><time>2026-09-02T21:44:10Z</time></trkpt><trkpt lat="59.5564173907" lon="31.2687386479"><ele>235.18</ele><time>2026-09-02T21:44:11Z</time></trkpt><trkpt lat="59.5564172231" lon="31.2687416654"><ele>235.18</ele><time>2026-09-02T21:44:12Z</time></trkpt><trkpt lat="59.5564166363" lon="31.2687442638"><ele>235.18</ele><time>2026-09-02T21:44:13Z</time></trkpt><trkpt lat="59.5564157981" lon="31.2687465269"><ele>235.18</ele><time>2026-09-02T21:44:14Z</time></trkpt><trkpt lat="59.5564168878" lon="31.2687448505"><ele>235.18</ele><time>2026-09-02T21:44:15Z</time></trkpt><trkpt lat="59.5564169716" lon="31.2687441800"><ele>235.18</ele><time>2026-09-02T21:44:16Z</time></trkpt><trkpt lat="59.5564177260" lon="31.2687403243"><ele>235.18</ele><time>2026-09-02T21:44:17Z</time></trkpt><trkpt lat="59.5564176422" lon="31.2687375583"><ele>235.18</ele><time>2026-09-02T21:44:18Z</time></trkpt><trkpt lat="59.5564193185" lon="31.2687382288"><ele>235.18</ele><time>2026-09-02T21:44:19Z</time></trkpt><trkpt lat="59.5564197376" lon="31.2687374745"><ele>235.18</ele><time>2026-09-02T21:44:20Z</time></trkpt><trkpt lat="59.5564204920" lon="31.2687364686"><ele>235.18</ele><time>2026-09-02T21:44:21Z</time></trkpt><trkpt lat="59.5564211626" lon="31.2687342893"><ele>235.18</ele><time>2026-09-02T21:44:22Z</time></trkpt><trkpt lat="59.5564197376" lon="31.2687306851"><ele>235.18</ele><time>2026-09-02T21:44:23Z</time></trkpt><trkpt lat="59.5564187318" lon="31.2687287573"><ele>235.18</ele><time>2026-09-02T21:44:24Z</time></trkpt><trkpt lat="59.5564197376" lon="31.2687297631"><ele>235.18</ele><time>2026-09-02T21:44:25Z</time></trkpt><trkpt lat="59.5564187318" lon="31.2687289249"><ele>235.18</ele><time>2026-09-02T21:44:26Z</time></trkpt><trkpt lat="59.5564174745" lon="31.2687275000"><ele>235.18</ele><time>2026-09-02T21:44:27Z</time></trkpt><trkpt lat="59.5564174745" lon="31.2687230576"><ele>235.66</ele><time>2026-09-02T21:44:28Z</time></trkpt><trkpt lat="59.5564160496" lon="31.2687188666"><ele>235.66</ele><time>2026-09-02T21:44:29Z</time></trkpt><trkpt lat="59.5564152952" lon="31.2687173579"><ele>235.66</ele><time>2026-09-02T21:44:30Z</time></trkpt><trkpt lat="59.5564157981" lon="31.2687153462"><ele>235.66</ele><time>2026-09-02T21:44:31Z</time></trkpt><trkpt lat="59.5564146247" lon="31.2687153462"><ele>235.66</ele><time>2026-09-02T21:44:32Z</time></trkpt><trkpt lat="59.5564155467" lon="31.2687142566"><ele>235.66</ele><time>2026-09-02T21:44:33Z</time></trkpt><trkpt lat="59.5564158820" lon="31.2687100656"><ele>235.66</ele><time>2026-09-02T21:44:34Z</time></trkpt><trkpt lat="59.5564157981" lon="31.2687041983"><ele>235.66</ele><time>2026-09-02T21:44:35Z</time></trkpt><trkpt lat="59.5564156305" lon="31.2687006779"><ele>235.66</ele><time>2026-09-02T21:44:36Z</time></trkpt><trkpt lat="59.5564148761" lon="31.2686978281"><ele>235.66</ele><time>2026-09-02T21:44:37Z</time></trkpt><trkpt lat="59.5564145409" lon="31.2686940562"><ele>235.18</ele><time>2026-09-02T21:44:38Z</time></trkpt><trkpt lat="59.5564128645" lon="31.2686873507"><ele>235.18</ele><time>2026-09-02T21:44:39Z</time></trkpt><trkpt lat="59.5564103499" lon="31.2686799746"><ele>235.18</ele><time>2026-09-02T21:44:40Z</time></trkpt><trkpt lat="59.5564119425" lon="31.2686812319"><ele>235.18</ele><time>2026-09-02T21:44:41Z</time></trkpt><trkpt lat="59.5564096794" lon="31.2686794717"><ele>235.18</ele><time>2026-09-02T21:44:42Z</time></trkpt><trkpt lat="59.5564099308" lon="31.2686836626"><ele>235.18</ele><time>2026-09-02T21:44:43Z</time></trkpt><trkpt lat="59.5564102661" lon="31.2686863448"><ele>235.66</ele><time>2026-09-02T21:44:44Z</time></trkpt><trkpt lat="59.5564112719" lon="31.2686870992"><ele>235.66</ele><time>2026-09-02T21:44:45Z</time></trkpt><trkpt lat="59.5564116910" lon="31.2686870992"><ele>235.66</ele><time>2026-09-02T21:44:46Z</time></trkpt><trkpt lat="59.5564127807" lon="31.2686874345"><ele>235.66</ele><time>2026-09-02T21:44:47Z</time></trkpt><trkpt lat="59.5564131998" lon="31.2686882727"><ele>235.66</ele><time>2026-09-02T21:44:48Z</time></trkpt><trkpt lat="59.5564126968" lon="31.2686883565"><ele>235.66</ele><time>2026-09-02T21:44:49Z</time></trkpt><trkpt lat="59.5564129483" lon="31.2686900329"><ele>235.66</ele><time>2026-09-02T21:44:50Z</time></trkpt><trkpt lat="59.5564129483" lon="31.2686892785"><ele>235.66</ele><time>2026-09-02T21:44:51Z</time></trkpt><trkpt lat="59.5564132836" lon="31.2686904520"><ele>235.66</ele><time>2026-09-02T21:44:52Z</time></trkpt><trkpt lat="59.5564135350" lon="31.2686894462"><ele>235.66</ele><time>2026-09-02T21:44:53Z</time></trkpt><trkpt lat="59.5564143732" lon="31.2686908711"><ele>235.66</ele><time>2026-09-02T21:44:54Z</time></trkpt><trkpt lat="59.5564148761" lon="31.2686906196"><ele>235.18</ele><time>2026-09-02T21:44:55Z</time></trkpt><trkpt lat="59.5564157981" lon="31.2686917931"><ele>235.18</ele><time>2026-09-02T21:44:56Z</time></trkpt><trkpt lat="59.5564158820" lon="31.2686912902"><ele>235.18</ele><time>2026-09-02T21:44:57Z</time></trkpt><trkpt lat="59.5564161334" lon="31.2686914578"><ele>235.18</ele><time>2026-09-02T21:44:58Z</time></trkpt><trkpt lat="59.5564163849" lon="31.2686909549"><ele>235.18</ele><time>2026-09-02T21:44:59Z</time></trkpt><trkpt lat="59.5564165525" lon="31.2686907873"><ele>235.18</ele><time>2026-09-02T21:45:00Z</time></trkpt><trkpt lat="59.5564167202" lon="31.2686906196"><ele>235.18</ele><time>2026-09-02T21:45:01Z</time></trkpt><trkpt lat="59.5564171392" lon="31.2686912902"><ele>235.18</ele><time>2026-09-02T21:45:02Z</time></trkpt><trkpt lat="59.5564173907" lon="31.2686918769"><ele>235.18</ele><time>2026-09-02T21:45:03Z</time></trkpt><trkpt lat="59.5564176422" lon="31.2686923798"><ele>235.18</ele><time>2026-09-02T21:45:04Z</time></trkpt><trkpt lat="59.5564178936" lon="31.2686931342"><ele>235.18</ele><time>2026-09-02T21:45:05Z</time></trkpt><trkpt lat="59.5564183965" lon="31.2686934695"><ele>235.18</ele><time>2026-09-02T21:45:06Z</time></trkpt><trkpt lat="59.5564182289" lon="31.2686941400"><ele>235.18</ele><time>2026-09-02T21:45:07Z</time></trkpt><trkpt lat="59.5564178936" lon="31.2686934695"><ele>235.18</ele><time>2026-09-02T21:45:08Z</time></trkpt><trkpt lat="59.5564162172" lon="31.2686927989"><ele>235.18</ele><time>2026-09-02T21:45:09Z</time></trkpt><trkpt lat="59.5564154629" lon="31.2686943915"><ele>235.18</ele><time>2026-09-02T21:45:10Z</time></trkpt><trkpt lat="59.5564146247" lon="31.2686958164"><ele>235.18</ele><time>2026-09-02T21:45:11Z</time></trkpt><trkpt lat="59.5564146247" lon="31.2686956488"><ele>235.18</ele><time>2026-09-02T21:45:12Z</time></trkpt><trkpt lat="59.5564150438" lon="31.2686956488"><ele>235.66</ele><time>2026-09-02T21:45:13Z</time></trkpt><trkpt lat="59.5564156305" lon="31.2686957326"><ele>235.66</ele><time>2026-09-02T21:45:14Z</time></trkpt><trkpt lat="59.5564158820" lon="31.2686962355"><ele>235.66</ele><time>2026-09-02T21:45:15Z</time></trkpt><trkpt lat="59.5564161334" lon="31.2686977442"><ele>235.66</ele><time>2026-09-02T21:45:16Z</time></trkpt><trkpt lat="59.5564165525" lon="31.2687003426"><ele>235.66</ele><time>2026-09-02T21:45:17Z</time></trkpt><trkpt lat="59.5564157981" lon="31.2687014323"><ele>235.66</ele><time>2026-09-02T21:45:18Z</time></trkpt><trkpt lat="59.5564155467" lon="31.2687010970"><ele>235.66</ele><time>2026-09-02T21:45:19Z</time></trkpt><trkpt lat="59.5564154629" lon="31.2687006779"><ele>235.66</ele><time>2026-09-02T21:45:20Z</time></trkpt><trkpt lat="59.5564148761" lon="31.2686990853"><ele>235.66</ele><time>2026-09-02T21:45:21Z</time></trkpt><trkpt lat="59.5564141218" lon="31.2686975766"><ele>235.66</ele><time>2026-09-02T21:45:22Z</time></trkpt><trkpt lat="59.5564146247" lon="31.2686982471"><ele>235.66</ele><time>2026-09-02T21:45:23Z</time></trkpt><trkpt lat="59.5564141218" lon="31.2686973251"><ele>235.66</ele><time>2026-09-02T21:45:24Z</time></trkpt><trkpt lat="59.5564157981" lon="31.2686912902"><ele>235.66</ele><time>2026-09-02T21:45:25Z</time></trkpt><trkpt lat="59.5564170554" lon="31.2686864287"><ele>235.66</ele><time>2026-09-02T21:45:26Z</time></trkpt><trkpt lat="59.5564151276" lon="31.2686841656"><ele>235.66</ele><time>2026-09-02T21:45:27Z</time></trkpt><trkpt lat="59.5564157981" lon="31.2686832435"><ele>235.66</ele><time>2026-09-02T21:45:28Z</time></trkpt><trkpt lat="59.5564160496" lon="31.2686801422"><ele>235.66</ele><time>2026-09-02T21:45:29Z</time></trkpt><trkpt lat="59.5564167202" lon="31.2686731853"><ele>235.66</ele><time>2026-09-02T21:45:30Z</time></trkpt><trkpt lat="59.5564165525" lon="31.2686635461"><ele>235.66</ele><time>2026-09-02T21:45:31Z</time></trkpt><trkpt lat="59.5564181451" lon="31.2686567567"><ele>235.66</ele><time>2026-09-02T21:45:32Z</time></trkpt><trkpt lat="59.5564206596" lon="31.2686400767"><ele>235.66</ele><time>2026-09-02T21:45:33Z</time></trkpt><trkpt lat="59.5564241800" lon="31.2686260790"><ele>235.66</ele><time>2026-09-02T21:45:34Z</time></trkpt><trkpt lat="59.5564249344" lon="31.2686133385"><ele>235.66</ele><time>2026-09-02T21:45:35Z</time></trkpt><trkpt lat="59.5564280357" lon="31.2685962394"><ele>235.66</ele><time>2026-09-02T21:45:36Z</time></trkpt><trkpt lat="59.5564322267" lon="31.2685829960"><ele>236.14</ele><time>2026-09-02T21:45:37Z</time></trkpt><trkpt lat="59.5564334840" lon="31.2685632985"><ele>236.14</ele><time>2026-09-02T21:45:38Z</time></trkpt><trkpt lat="59.5564364176" lon="31.2685479596"><ele>236.14</ele><time>2026-09-02T21:45:39Z</time></trkpt><trkpt lat="59.5564397704" lon="31.2685296871"><ele>236.14</ele><time>2026-09-02T21:45:40Z</time></trkpt><trkpt lat="59.5564438775" lon="31.2685136776"><ele>236.62</ele><time>2026-09-02T21:45:41Z</time></trkpt><trkpt lat="59.5564467274" lon="31.2684988417"><ele>236.62</ele><time>2026-09-02T21:45:42Z</time></trkpt><trkpt lat="59.5564511698" lon="31.2684829999"><ele>236.62</ele><time>2026-09-02T21:45:43Z</time></trkpt><trkpt lat="59.5564550254" lon="31.2684622966"><ele>236.62</ele><time>2026-09-02T21:45:44Z</time></trkpt><trkpt lat="59.5564578753" lon="31.2684373185"><ele>236.62</ele><time>2026-09-02T21:45:45Z</time></trkpt><trkpt lat="59.5564607251" lon="31.2684173696"><ele>236.62</ele><time>2026-09-02T21:45:46Z</time></trkpt><trkpt lat="59.5564617310" lon="31.2683931459"><ele>237.10</ele><time>2026-09-02T21:45:47Z</time></trkpt><trkpt lat="59.5564620662" lon="31.2683702633"><ele>237.10</ele><time>2026-09-02T21:45:48Z</time></trkpt><trkpt lat="59.5564643294" lon="31.2683432736"><ele>237.10</ele><time>2026-09-02T21:45:49Z</time></trkpt><trkpt lat="59.5564650837" lon="31.2683210615"><ele>237.10</ele><time>2026-09-02T21:45:50Z</time></trkpt><trkpt lat="59.5564680174" lon="31.2682970893"><ele>237.10</ele><time>2026-09-02T21:45:51Z</time></trkpt><trkpt lat="59.5564661734" lon="31.2682697643"><ele>237.58</ele><time>2026-09-02T21:45:52Z</time></trkpt><trkpt lat="59.5564609766" lon="31.2682478875"><ele>237.58</ele><time>2026-09-02T21:45:53Z</time></trkpt><trkpt lat="59.5564554445" lon="31.2682205625"><ele>237.58</ele><time>2026-09-02T21:45:54Z</time></trkpt><trkpt lat="59.5564504992" lon="31.2682019547"><ele>237.58</ele><time>2026-09-02T21:45:55Z</time></trkpt><trkpt lat="59.5564468950" lon="31.2681833468"><ele>237.58</ele><time>2026-09-02T21:45:56Z</time></trkpt><trkpt lat="59.5564425364" lon="31.2681655772"><ele>237.58</ele><time>2026-09-02T21:45:57Z</time></trkpt><trkpt lat="59.5564399380" lon="31.2681461312"><ele>237.58</ele><time>2026-09-02T21:45:58Z</time></trkpt><trkpt lat="59.5564331487" lon="31.2681228295"><ele>237.58</ele><time>2026-09-02T21:45:59Z</time></trkpt><trkpt lat="59.5564304665" lon="31.2681036349"><ele>237.58</ele><time>2026-09-02T21:46:00Z</time></trkpt><trkpt lat="59.5564271975" lon="31.2680829316"><ele>237.58</ele><time>2026-09-02T21:46:01Z</time></trkpt><trkpt lat="59.5564264432" lon="31.2680632342"><ele>237.58</ele><time>2026-09-02T21:46:02Z</time></trkpt><trkpt lat="59.5564279519" lon="31.2680436205"><ele>238.06</ele><time>2026-09-02T21:46:03Z</time></trkpt><trkpt lat="59.5564293768" lon="31.2680271920"><ele>238.06</ele><time>2026-09-02T21:46:04Z</time></trkpt><trkpt lat="59.5564341545" lon="31.2680131942"><ele>238.06</ele><time>2026-09-02T21:46:05Z</time></trkpt><trkpt lat="59.5564392675" lon="31.2680005375"><ele>238.06</ele><time>2026-09-02T21:46:06Z</time></trkpt><trkpt lat="59.5564462245" lon="31.2679858692"><ele>238.06</ele><time>2026-09-02T21:46:07Z</time></trkpt><trkpt lat="59.5564503316" lon="31.2679707818"><ele>238.54</ele><time>2026-09-02T21:46:08Z</time></trkpt><trkpt lat="59.5564536843" lon="31.2679557782"><ele>238.54</ele><time>2026-09-02T21:46:09Z</time></trkpt><trkpt lat="59.5564543549" lon="31.2679388467"><ele>238.54</ele><time>2026-09-02T21:46:10Z</time></trkpt><trkpt lat="59.5564527623" lon="31.2679173891"><ele>239.02</ele><time>2026-09-02T21:46:11Z</time></trkpt><trkpt lat="59.5564519241" lon="31.2679004576"><ele>239.02</ele><time>2026-09-02T21:46:12Z</time></trkpt><trkpt lat="59.5564533491" lon="31.2678857893"><ele>239.02</ele><time>2026-09-02T21:46:13Z</time></trkpt><trkpt lat="59.5564544387" lon="31.2678690255"><ele>239.02</ele><time>2026-09-02T21:46:14Z</time></trkpt><trkpt lat="59.5564556960" lon="31.2678429577"><ele>239.02</ele><time>2026-09-02T21:46:15Z</time></trkpt><trkpt lat="59.5564582944" lon="31.2678261939"><ele>239.02</ele><time>2026-09-02T21:46:16Z</time></trkpt><trkpt lat="59.5564609766" lon="31.2678005453"><ele>239.51</ele><time>2026-09-02T21:46:17Z</time></trkpt><trkpt lat="59.5564620662" lon="31.2677733880"><ele>239.51</ele><time>2026-09-02T21:46:18Z</time></trkpt><trkpt lat="59.5564651676" lon="31.2677487452"><ele>239.51</ele><time>2026-09-02T21:46:19Z</time></trkpt><trkpt lat="59.5564661734" lon="31.2677250244"><ele>239.51</ele><time>2026-09-02T21:46:20Z</time></trkpt><trkpt lat="59.5564651676" lon="31.2677016389"><ele>239.51</ele><time>2026-09-02T21:46:21Z</time></trkpt><trkpt lat="59.5564680174" lon="31.2676817738"><ele>239.51</ele><time>2026-09-02T21:46:22Z</time></trkpt><trkpt lat="59.5564698614" lon="31.2676642556"><ele>239.51</ele><time>2026-09-02T21:46:23Z</time></trkpt><trkpt lat="59.5564712863" lon="31.2676486652"><ele>239.51</ele><time>2026-09-02T21:46:24Z</time></trkpt><trkpt lat="59.5564764831" lon="31.2676305603"><ele>239.51</ele><time>2026-09-02T21:46:25Z</time></trkpt><trkpt lat="59.5564802550" lon="31.2676133774"><ele>239.51</ele><time>2026-09-02T21:46:26Z</time></trkpt><trkpt lat="59.5564824343" lon="31.2675962783"><ele>239.51</ele><time>2026-09-02T21:46:27Z</time></trkpt><trkpt lat="59.5564857870" lon="31.2675784249"><ele>239.51</ele><time>2026-09-02T21:46:28Z</time></trkpt><trkpt lat="59.5564846974" lon="31.2675593980"><ele>239.51</ele><time>2026-09-02T21:46:29Z</time></trkpt><trkpt lat="59.5564869605" lon="31.2675436400"><ele>239.51</ele><time>2026-09-02T21:46:30Z</time></trkpt><trkpt lat="59.5564860385" lon="31.2675321568"><ele>239.51</ele><time>2026-09-02T21:46:31Z</time></trkpt><trkpt lat="59.5564872958" lon="31.2675224338"><ele>239.51</ele><time>2026-09-02T21:46:32Z</time></trkpt><trkpt lat="59.5564846974" lon="31.2675178237"><ele>239.51</ele><time>2026-09-02T21:46:33Z</time></trkpt><trkpt lat="59.5564865414" lon="31.2675187457"><ele>239.51</ele><time>2026-09-02T21:46:34Z</time></trkpt><trkpt lat="59.5564844459" lon="31.2675181590"><ele>239.51</ele><time>2026-09-02T21:46:35Z</time></trkpt><trkpt lat="59.5564844459" lon="31.2675172370"><ele>239.51</ele><time>2026-09-02T21:46:36Z</time></trkpt><trkpt lat="59.5564853679" lon="31.2675163988"><ele>239.51</ele><time>2026-09-02T21:46:37Z</time></trkpt><trkpt lat="59.5564863738" lon="31.2675155606"><ele>239.51</ele><time>2026-09-02T21:46:38Z</time></trkpt><trkpt lat="59.5564864576" lon="31.2675140519"><ele>239.51</ele><time>2026-09-02T21:46:39Z</time></trkpt><trkpt lat="59.5564866252" lon="31.2675133813"><ele>239.51</ele><time>2026-09-02T21:46:40Z</time></trkpt><trkpt lat="59.5564875472" lon="31.2675108667"><ele>239.51</ele><time>2026-09-02T21:46:41Z</time></trkpt><trkpt lat="59.5564877987" lon="31.2675092742"><ele>239.51</ele><time>2026-09-02T21:46:42Z</time></trkpt><trkpt lat="59.5564871281" lon="31.2675067596"><ele>239.51</ele><time>2026-09-02T21:46:43Z</time></trkpt><trkpt lat="59.5564873796" lon="31.2675046641"><ele>239.51</ele><time>2026-09-02T21:46:44Z</time></trkpt><trkpt lat="59.5564863738" lon="31.2675016467"><ele>239.51</ele><time>2026-09-02T21:46:45Z</time></trkpt><trkpt lat="59.5564862899" lon="31.2675002217"><ele>239.51</ele><time>2026-09-02T21:46:46Z</time></trkpt><trkpt lat="59.5564859547" lon="31.2675014790"><ele>239.51</ele><time>2026-09-02T21:46:47Z</time></trkpt><trkpt lat="59.5564858709" lon="31.2675002217"><ele>239.51</ele><time>2026-09-02T21:46:48Z</time></trkpt><trkpt lat="59.5564866252" lon="31.2675009761"><ele>239.51</ele><time>2026-09-02T21:46:49Z</time></trkpt><trkpt lat="59.5564866252" lon="31.2675015628"><ele>239.51</ele><time>2026-09-02T21:46:50Z</time></trkpt><trkpt lat="59.5564864576" lon="31.2675020657"><ele>239.51</ele><time>2026-09-02T21:46:51Z</time></trkpt><trkpt lat="59.5564870443" lon="31.2675029878"><ele>239.51</ele><time>2026-09-02T21:46:52Z</time></trkpt><trkpt lat="59.5564876311" lon="31.2675034907"><ele>239.51</ele><time>2026-09-02T21:46:53Z</time></trkpt><trkpt lat="59.5564881340" lon="31.2675043289"><ele>239.51</ele><time>2026-09-02T21:46:54Z</time></trkpt><trkpt lat="59.5564887207" lon="31.2675046641"><ele>239.51</ele><time>2026-09-02T21:46:55Z</time></trkpt><trkpt lat="59.5564898942" lon="31.2675050832"><ele>239.51</ele><time>2026-09-02T21:46:56Z</time></trkpt><trkpt lat="59.5564909000" lon="31.2675049994"><ele>239.51</ele><time>2026-09-02T21:46:57Z</time></trkpt><trkpt lat="59.5564912353" lon="31.2675045803"><ele>239.51</ele><time>2026-09-02T21:46:58Z</time></trkpt><trkpt lat="59.5564924926" lon="31.2675038259"><ele>239.51</ele><time>2026-09-02T21:46:59Z</time></trkpt><trkpt lat="59.5564925764" lon="31.2675029878"><ele>239.51</ele><time>2026-09-02T21:47:00Z</time></trkpt><trkpt lat="59.5564927440" lon="31.2675033230"><ele>239.51</ele><time>2026-09-02T21:47:01Z</time></trkpt><trkpt lat="59.5564927440" lon="31.2675032392"><ele>239.51</ele><time>2026-09-02T21:47:02Z</time></trkpt><trkpt lat="59.5564931631" lon="31.2675032392"><ele>239.51</ele><time>2026-09-02T21:47:03Z</time></trkpt><trkpt lat="59.5564928278" lon="31.2675032392"><ele>239.51</ele><time>2026-09-02T21:47:04Z</time></trkpt><trkpt lat="59.5564933307" lon="31.2675031554"><ele>239.51</ele><time>2026-09-02T21:47:05Z</time></trkpt><trkpt lat="59.5564933307" lon="31.2675028201"><ele>239.51</ele><time>2026-09-02T21:47:06Z</time></trkpt><trkpt lat="59.5564934984" lon="31.2675034907"><ele>239.51</ele><time>2026-09-02T21:47:07Z</time></trkpt><trkpt lat="59.5564926602" lon="31.2675032392"><ele>239.51</ele><time>2026-09-02T21:47:08Z</time></trkpt><trkpt lat="59.5564934984" lon="31.2675028201"><ele>239.51</ele><time>2026-09-02T21:47:09Z</time></trkpt><trkpt lat="59.5564939175" lon="31.2675021496"><ele>239.51</ele><time>2026-09-02T21:47:10Z</time></trkpt><trkpt lat="59.5564946719" lon="31.2675030716"><ele>239.51</ele><time>2026-09-02T21:47:11Z</time></trkpt><trkpt lat="59.5564945880" lon="31.2675028201"><ele>239.51</ele><time>2026-09-02T21:47:12Z</time></trkpt><trkpt lat="59.5564941689" lon="31.2675030716"><ele>239.51</ele><time>2026-09-02T21:47:13Z</time></trkpt><trkpt lat="59.5564934984" lon="31.2675024848"><ele>239.51</ele><time>2026-09-02T21:47:14Z</time></trkpt><trkpt lat="59.5564921573" lon="31.2675018981"><ele>239.51</ele><time>2026-09-02T21:47:15Z</time></trkpt><trkpt lat="59.5564898942" lon="31.2675001379"><ele>239.51</ele><time>2026-09-02T21:47:16Z</time></trkpt><trkpt lat="59.5564905647" lon="31.2674974557"><ele>239.51</ele><time>2026-09-02T21:47:17Z</time></trkpt><trkpt lat="59.5564907324" lon="31.2674954440"><ele>239.51</ele><time>2026-09-02T21:47:18Z</time></trkpt><trkpt lat="59.5564902294" lon="31.2674918398"><ele>239.51</ele><time>2026-09-02T21:47:19Z</time></trkpt><trkpt lat="59.5564909000" lon="31.2674941868"><ele>239.51</ele><time>2026-09-02T21:47:20Z</time></trkpt><trkpt lat="59.5564900618" lon="31.2674911693"><ele>239.51</ele><time>2026-09-02T21:47:21Z</time></trkpt><trkpt lat="59.5564906485" lon="31.2674930971"><ele>239.51</ele><time>2026-09-02T21:47:22Z</time></trkpt><trkpt lat="59.5564912353" lon="31.2674945220"><ele>239.51</ele><time>2026-09-02T21:47:23Z</time></trkpt><trkpt lat="59.5564913191" lon="31.2674947735"><ele>239.51</ele><time>2026-09-02T21:47:24Z</time></trkpt><trkpt lat="59.5564909000" lon="31.2674972881"><ele>239.51</ele><time>2026-09-02T21:47:25Z</time></trkpt><trkpt lat="59.5564895589" lon="31.2674939353"><ele>239.51</ele><time>2026-09-02T21:47:26Z</time></trkpt><trkpt lat="59.5564907324" lon="31.2674989644"><ele>239.51</ele><time>2026-09-02T21:47:27Z</time></trkpt><trkpt lat="59.5564910676" lon="31.2674920913"><ele>239.51</ele><time>2026-09-02T21:47:28Z</time></trkpt><trkpt lat="59.5564930793" lon="31.2674798537"><ele>239.51</ele><time>2026-09-02T21:47:29Z</time></trkpt><trkpt lat="59.5564947557" lon="31.2674640957"><ele>239.51</ele><time>2026-09-02T21:47:30Z</time></trkpt><trkpt lat="59.5564984437" lon="31.2674467452"><ele>239.51</ele><time>2026-09-02T21:47:31Z</time></trkpt><trkpt lat="59.5565014612" lon="31.2674344238"><ele>239.02</ele><time>2026-09-02T21:47:32Z</time></trkpt><trkpt lat="59.5565039758" lon="31.2674271315"><ele>239.02</ele><time>2026-09-02T21:47:33Z</time></trkpt><trkpt lat="59.5565081667" lon="31.2674143910"><ele>239.02</ele><time>2026-09-02T21:47:34Z</time></trkpt><trkpt lat="59.5565122738" lon="31.2674060930"><ele>239.02</ele><time>2026-09-02T21:47:35Z</time></trkpt><trkpt lat="59.5565170515" lon="31.2673992198"><ele>239.02</ele><time>2026-09-02T21:47:36Z</time></trkpt><trkpt lat="59.5565210748" lon="31.2673933525"><ele>239.02</ele><time>2026-09-02T21:47:37Z</time></trkpt><trkpt lat="59.5565212425" lon="31.2673867308"><ele>239.51</ele><time>2026-09-02T21:47:38Z</time></trkpt><trkpt lat="59.5565216616" lon="31.2673799414"><ele>239.51</ele><time>2026-09-02T21:47:39Z</time></trkpt><trkpt lat="59.5565225836" lon="31.2673736550"><ele>239.51</ele><time>2026-09-02T21:47:40Z</time></trkpt><trkpt lat="59.5565226674" lon="31.2673725653"><ele>239.51</ele><time>2026-09-02T21:47:41Z</time></trkpt><trkpt lat="59.5565236732" lon="31.2673706375"><ele>239.51</ele><time>2026-09-02T21:47:42Z</time></trkpt><trkpt lat="59.5565256849" lon="31.2673690449"><ele>239.02</ele><time>2026-09-02T21:47:43Z</time></trkpt><trkpt lat="59.5565241762" lon="31.2673708890"><ele>239.02</ele><time>2026-09-02T21:47:44Z</time></trkpt><trkpt lat="59.5565261878" lon="31.2673687935"><ele>239.02</ele><time>2026-09-02T21:47:45Z</time></trkpt><trkpt lat="59.5565262716" lon="31.2673698831"><ele>239.02</ele><time>2026-09-02T21:47:46Z</time></trkpt><trkpt lat="59.5565272775" lon="31.2673691288"><ele>239.02</ele><time>2026-09-02T21:47:47Z</time></trkpt><trkpt lat="59.5565276965" lon="31.2673687935"><ele>239.02</ele><time>2026-09-02T21:47:48Z</time></trkpt><trkpt lat="59.5565275289" lon="31.2673673686"><ele>239.02</ele><time>2026-09-02T21:47:49Z</time></trkpt><trkpt lat="59.5565277804" lon="31.2673682906"><ele>239.02</ele><time>2026-09-02T21:47:50Z</time></trkpt><trkpt lat="59.5565277804" lon="31.2673663627"><ele>239.02</ele><time>2026-09-02T21:47:51Z</time></trkpt><trkpt lat="59.5565272775" lon="31.2673649378"><ele>239.02</ele><time>2026-09-02T21:47:52Z</time></trkpt><trkpt lat="59.5565269422" lon="31.2673636805"><ele>239.02</ele><time>2026-09-02T21:47:53Z</time></trkpt><trkpt lat="59.5565256849" lon="31.2673609983"><ele>239.02</ele><time>2026-09-02T21:47:54Z</time></trkpt><trkpt lat="59.5565254334" lon="31.2673616689"><ele>238.54</ele><time>2026-09-02T21:47:55Z</time></trkpt><trkpt lat="59.5565241762" lon="31.2673592381"><ele>238.54</ele><time>2026-09-02T21:47:56Z</time></trkpt><trkpt lat="59.5565244276" lon="31.2673599925"><ele>238.54</ele><time>2026-09-02T21:47:57Z</time></trkpt><trkpt lat="59.5565242600" lon="31.2673573941"><ele>238.54</ele><time>2026-09-02T21:47:58Z</time></trkpt><trkpt lat="59.5565249305" lon="31.2673576456"><ele>238.54</ele><time>2026-09-02T21:47:59Z</time></trkpt><trkpt lat="59.5565247629" lon="31.2673535384"><ele>238.54</ele><time>2026-09-02T21:48:00Z</time></trkpt><trkpt lat="59.5565253496" lon="31.2673534546"><ele>238.54</ele><time>2026-09-02T21:48:01Z</time></trkpt><trkpt lat="59.5565246791" lon="31.2673504371"><ele>238.54</ele><time>2026-09-02T21:48:02Z</time></trkpt><trkpt lat="59.5565249305" lon="31.2673499342"><ele>238.54</ele><time>2026-09-02T21:48:03Z</time></trkpt><trkpt lat="59.5565242600" lon="31.2673485931"><ele>238.54</ele><time>2026-09-02T21:48:04Z</time></trkpt><trkpt lat="59.5565244276" lon="31.2673487607"><ele>238.54</ele><time>2026-09-02T21:48:05Z</time></trkpt><trkpt lat="59.5565241762" lon="31.2673491798"><ele>238.54</ele><time>2026-09-02T21:48:06Z</time></trkpt><trkpt lat="59.5565241762" lon="31.2673499342"><ele>238.54</ele><time>2026-09-02T21:48:07Z</time></trkpt><trkpt lat="59.5565247629" lon="31.2673521973"><ele>238.54</ele><time>2026-09-02T21:48:08Z</time></trkpt><trkpt lat="59.5565248467" lon="31.2673550472"><ele>238.54</ele><time>2026-09-02T21:48:09Z</time></trkpt><trkpt lat="59.5565253496" lon="31.2673538737"><ele>238.54</ele><time>2026-09-02T21:48:10Z</time></trkpt><trkpt lat="59.5565249305" lon="31.2673555501"><ele>238.54</ele><time>2026-09-02T21:48:11Z</time></trkpt><trkpt lat="59.5565257687" lon="31.2673539575"><ele>238.54</ele><time>2026-09-02T21:48:12Z</time></trkpt><trkpt lat="59.5565255173" lon="31.2673536222"><ele>238.54</ele><time>2026-09-02T21:48:13Z</time></trkpt><trkpt lat="59.5565265231" lon="31.2673520297"><ele>238.54</ele><time>2026-09-02T21:48:14Z</time></trkpt><trkpt lat="59.5565258525" lon="31.2673509400"><ele>238.54</ele><time>2026-09-02T21:48:15Z</time></trkpt><trkpt lat="59.5565259364" lon="31.2673499342"><ele>238.54</ele><time>2026-09-02T21:48:16Z</time></trkpt><trkpt lat="59.5565250982" lon="31.2673504371"><ele>238.54</ele><time>2026-09-02T21:48:17Z</time></trkpt><trkpt lat="59.5565260202" lon="31.2673499342"><ele>238.54</ele><time>2026-09-02T21:48:18Z</time></trkpt><trkpt lat="59.5565249305" lon="31.2673493475"><ele>238.54</ele><time>2026-09-02T21:48:19Z</time></trkpt><trkpt lat="59.5565252658" lon="31.2673491798"><ele>238.54</ele><time>2026-09-02T21:48:20Z</time></trkpt><trkpt lat="59.5565254334" lon="31.2673483416"><ele>238.54</ele><time>2026-09-02T21:48:21Z</time></trkpt><trkpt lat="59.5565259364" lon="31.2673483416"><ele>238.54</ele><time>2026-09-02T21:48:22Z</time></trkpt><trkpt lat="59.5565269422" lon="31.2673487607"><ele>238.54</ele><time>2026-09-02T21:48:23Z</time></trkpt><trkpt lat="59.5565280318" lon="31.2673487607"><ele>238.54</ele><time>2026-09-02T21:48:24Z</time></trkpt><trkpt lat="59.5565265231" lon="31.2673477549"><ele>238.54</ele><time>2026-09-02T21:48:25Z</time></trkpt><trkpt lat="59.5565274451" lon="31.2673475873"><ele>239.02</ele><time>2026-09-02T21:48:26Z</time></trkpt><trkpt lat="59.5565267745" lon="31.2673468329"><ele>239.02</ele><time>2026-09-02T21:48:27Z</time></trkpt><trkpt lat="59.5565289538" lon="31.2673466653"><ele>239.02</ele><time>2026-09-02T21:48:28Z</time></trkpt><trkpt lat="59.5565282833" lon="31.2673461623"><ele>239.02</ele><time>2026-09-02T21:48:29Z</time></trkpt><trkpt lat="59.5565299597" lon="31.2673466653"><ele>239.02</ele><time>2026-09-02T21:48:30Z</time></trkpt><trkpt lat="59.5565282833" lon="31.2673455756"><ele>239.02</ele><time>2026-09-02T21:48:31Z</time></trkpt><trkpt lat="59.5565292891" lon="31.2673458271"><ele>239.02</ele><time>2026-09-02T21:48:32Z</time></trkpt><trkpt lat="59.5565278642" lon="31.2673452403"><ele>239.02</ele><time>2026-09-02T21:48:33Z</time></trkpt><trkpt lat="59.5565297920" lon="31.2673454918"><ele>239.02</ele><time>2026-09-02T21:48:34Z</time></trkpt><trkpt lat="59.5565278642" lon="31.2673455756"><ele>239.02</ele><time>2026-09-02T21:48:35Z</time></trkpt><trkpt lat="59.5565280318" lon="31.2673441507"><ele>239.02</ele><time>2026-09-02T21:48:36Z</time></trkpt><trkpt lat="59.5565263554" lon="31.2673438992"><ele>239.02</ele><time>2026-09-02T21:48:37Z</time></trkpt><trkpt lat="59.5565279480" lon="31.2673434801"><ele>239.02</ele><time>2026-09-02T21:48:38Z</time></trkpt><trkpt lat="59.5565272775" lon="31.2673439831"><ele>239.02</ele><time>2026-09-02T21:48:39Z</time></trkpt><trkpt lat="59.5565281995" lon="31.2673429772"><ele>239.02</ele><time>2026-09-02T21:48:40Z</time></trkpt><trkpt lat="59.5565261878" lon="31.2673420552"><ele>239.02</ele><time>2026-09-02T21:48:41Z</time></trkpt><trkpt lat="59.5565279480" lon="31.2673422229"><ele>239.02</ele><time>2026-09-02T21:48:42Z</time></trkpt><trkpt lat="59.5565264393" lon="31.2673418876"><ele>239.02</ele><time>2026-09-02T21:48:43Z</time></trkpt><trkpt lat="59.5565279480" lon="31.2673421390"><ele>239.02</ele><time>2026-09-02T21:48:44Z</time></trkpt><trkpt lat="59.5565262716" lon="31.2673412170"><ele>239.02</ele><time>2026-09-02T21:48:45Z</time></trkpt><trkpt lat="59.5565278642" lon="31.2673409656"><ele>239.02</ele><time>2026-09-02T21:48:46Z</time></trkpt><trkpt lat="59.5565267745" lon="31.2673399597"><ele>239.02</ele><time>2026-09-02T21:48:47Z</time></trkpt><trkpt lat="59.5565272775" lon="31.2673407979"><ele>239.02</ele><time>2026-09-02T21:48:48Z</time></trkpt><trkpt lat="59.5565272775" lon="31.2673403788"><ele>239.02</ele><time>2026-09-02T21:48:49Z</time></trkpt><trkpt lat="59.5565279480" lon="31.2673413847"><ele>239.02</ele><time>2026-09-02T21:48:50Z</time></trkpt><trkpt lat="59.5565279480" lon="31.2673411332"><ele>239.02</ele><time>2026-09-02T21:48:51Z</time></trkpt><trkpt lat="59.5565277804" lon="31.2673413847"><ele>239.02</ele><time>2026-09-02T21:48:52Z</time></trkpt><trkpt lat="59.5565275289" lon="31.2673402950"><ele>239.02</ele><time>2026-09-02T21:48:53Z</time></trkpt><trkpt lat="59.5565274451" lon="31.2673402950"><ele>239.02</ele><time>2026-09-02T21:48:54Z</time></trkpt><trkpt lat="59.5565276965" lon="31.2673399597"><ele>239.02</ele><time>2026-09-02T21:48:55Z</time></trkpt><trkpt lat="59.5565281995" lon="31.2673398759"><ele>239.02</ele><time>2026-09-02T21:48:56Z</time></trkpt><trkpt lat="59.5565280318" lon="31.2673396245"><ele>239.02</ele><time>2026-09-02T21:48:57Z</time></trkpt><trkpt lat="59.5565285347" lon="31.2673404627"><ele>239.02</ele><time>2026-09-02T21:48:58Z</time></trkpt><trkpt lat="59.5565288700" lon="31.2673409656"><ele>239.02</ele><time>2026-09-02T21:48:59Z</time></trkpt><trkpt lat="59.5565286186" lon="31.2673411332"><ele>239.02</ele><time>2026-09-02T21:49:00Z</time></trkpt><trkpt lat="59.5565289538" lon="31.2673418876"><ele>239.02</ele><time>2026-09-02T21:49:01Z</time></trkpt><trkpt lat="59.5565281995" lon="31.2673412170"><ele>239.02</ele><time>2026-09-02T21:49:02Z</time></trkpt><trkpt lat="59.5565291215" lon="31.2673417199"><ele>239.02</ele><time>2026-09-02T21:49:03Z</time></trkpt><trkpt lat="59.5565283671" lon="31.2673409656"><ele>239.02</ele><time>2026-09-02T21:49:04Z</time></trkpt><trkpt lat="59.5565293729" lon="31.2673423905"><ele>239.02</ele><time>2026-09-02T21:49:05Z</time></trkpt><trkpt lat="59.5565301273" lon="31.2673434801"><ele>239.02</ele><time>2026-09-02T21:49:06Z</time></trkpt><trkpt lat="59.5565303788" lon="31.2673436478"><ele>239.02</ele><time>2026-09-02T21:49:07Z</time></trkpt><trkpt lat="59.5565305464" lon="31.2673421390"><ele>239.02</ele><time>2026-09-02T21:49:08Z</time></trkpt><trkpt lat="59.5565305464" lon="31.2673431449"><ele>239.02</ele><time>2026-09-02T21:49:09Z</time></trkpt><trkpt lat="59.5565298758" lon="31.2673431449"><ele>239.02</ele><time>2026-09-02T21:49:10Z</time></trkpt><trkpt lat="59.5565296244" lon="31.2673438992"><ele>239.02</ele><time>2026-09-02T21:49:11Z</time></trkpt><trkpt lat="59.5565297920" lon="31.2673432287"><ele>239.02</ele><time>2026-09-02T21:49:12Z</time></trkpt><trkpt lat="59.5565291215" lon="31.2673431449"><ele>239.02</ele><time>2026-09-02T21:49:13Z</time></trkpt><trkpt lat="59.5565286186" lon="31.2673407979"><ele>239.02</ele><time>2026-09-02T21:49:14Z</time></trkpt><trkpt lat="59.5565289538" lon="31.2673384510"><ele>239.02</ele><time>2026-09-02T21:49:15Z</time></trkpt><trkpt lat="59.5565294567" lon="31.2673382834"><ele>239.02</ele><time>2026-09-02T21:49:16Z</time></trkpt><trkpt lat="59.5565286186" lon="31.2673376966"><ele>239.02</ele><time>2026-09-02T21:49:17Z</time></trkpt><trkpt lat="59.5565292891" lon="31.2673369423"><ele>238.54</ele><time>2026-09-02T21:49:18Z</time></trkpt><trkpt lat="59.5565286186" lon="31.2673368584"><ele>238.54</ele><time>2026-09-02T21:49:19Z</time></trkpt><trkpt lat="59.5565287862" lon="31.2673378643"><ele>238.54</ele><time>2026-09-02T21:49:20Z</time></trkpt><trkpt lat="59.5565286186" lon="31.2673372775"><ele>238.54</ele><time>2026-09-02T21:49:21Z</time></trkpt><trkpt lat="59.5565282833" lon="31.2673367746"><ele>238.54</ele><time>2026-09-02T21:49:22Z</time></trkpt><trkpt lat="59.5565276965" lon="31.2673356850"><ele>238.54</ele><time>2026-09-02T21:49:23Z</time></trkpt><trkpt lat="59.5565274451" lon="31.2673347630"><ele>238.54</ele><time>2026-09-02T21:49:24Z</time></trkpt><trkpt lat="59.5565285347" lon="31.2673345953"><ele>238.54</ele><time>2026-09-02T21:49:25Z</time></trkpt><trkpt lat="59.5565297920" lon="31.2673338410"><ele>238.54</ele><time>2026-09-02T21:49:26Z</time></trkpt><trkpt lat="59.5565305464" lon="31.2673328351"><ele>238.54</ele><time>2026-09-02T21:49:27Z</time></trkpt><trkpt lat="59.5565312169" lon="31.2673329189"><ele>238.54</ele><time>2026-09-02T21:49:28Z</time></trkpt><trkpt lat="59.5565316360" lon="31.2673334219"><ele>238.54</ele><time>2026-09-02T21:49:29Z</time></trkpt><trkpt lat="59.5565307979" lon="31.2673350982"><ele>238.54</ele><time>2026-09-02T21:49:30Z</time></trkpt><trkpt lat="59.5565309655" lon="31.2673359364"><ele>238.54</ele><time>2026-09-02T21:49:31Z</time></trkpt><trkpt lat="59.5565310493" lon="31.2673371937"><ele>238.54</ele><time>2026-09-02T21:49:32Z</time></trkpt><trkpt lat="59.5565314684" lon="31.2673380319"><ele>238.54</ele><time>2026-09-02T21:49:33Z</time></trkpt><trkpt lat="59.5565312169" lon="31.2673380319"><ele>239.02</ele><time>2026-09-02T21:49:34Z</time></trkpt><trkpt lat="59.5565307979" lon="31.2673391216"><ele>239.02</ele><time>2026-09-02T21:49:35Z</time></trkpt><trkpt lat="59.5565299597" lon="31.2673400436"><ele>239.02</ele><time>2026-09-02T21:49:36Z</time></trkpt><trkpt lat="59.5565297920" lon="31.2673384510"><ele>239.02</ele><time>2026-09-02T21:49:37Z</time></trkpt><trkpt lat="59.5565298758" lon="31.2673363555"><ele>239.02</ele><time>2026-09-02T21:49:38Z</time></trkpt><trkpt lat="59.5565302949" lon="31.2673353497"><ele>239.02</ele><time>2026-09-02T21:49:39Z</time></trkpt><trkpt lat="59.5565298758" lon="31.2673351821"><ele>239.02</ele><time>2026-09-02T21:49:40Z</time></trkpt><trkpt lat="59.5565303788" lon="31.2673348468"><ele>239.02</ele><time>2026-09-02T21:49:41Z</time></trkpt><trkpt lat="59.5565304626" lon="31.2673328351"><ele>239.02</ele><time>2026-09-02T21:49:42Z</time></trkpt><trkpt lat="59.5565305464" lon="31.2673320808"><ele>239.02</ele><time>2026-09-02T21:49:43Z</time></trkpt><trkpt lat="59.5565305464" lon="31.2673311587"><ele>239.02</ele><time>2026-09-02T21:49:44Z</time></trkpt><trkpt lat="59.5565302949" lon="31.2673307396"><ele>239.02</ele><time>2026-09-02T21:49:45Z</time></trkpt><trkpt lat="59.5565300435" lon="31.2673304882"><ele>239.02</ele><time>2026-09-02T21:49:46Z</time></trkpt><trkpt lat="59.5565306302" lon="31.2673309911"><ele>239.02</ele><time>2026-09-02T21:49:47Z</time></trkpt><trkpt lat="59.5565299597" lon="31.2673297338"><ele>239.02</ele><time>2026-09-02T21:49:48Z</time></trkpt><trkpt lat="59.5565307979" lon="31.2673307396"><ele>239.02</ele><time>2026-09-02T21:49:49Z</time></trkpt><trkpt lat="59.5565322228" lon="31.2673296500"><ele>239.02</ele><time>2026-09-02T21:49:50Z</time></trkpt><trkpt lat="59.5565332286" lon="31.2673286442"><ele>239.02</ele><time>2026-09-02T21:49:51Z</time></trkpt><trkpt lat="59.5565346535" lon="31.2673250400"><ele>239.02</ele><time>2026-09-02T21:49:52Z</time></trkpt><trkpt lat="59.5565340668" lon="31.2673222739"><ele>239.02</ele><time>2026-09-02T21:49:53Z</time></trkpt><trkpt lat="59.5565341506" lon="31.2673210166"><ele>239.02</ele><time>2026-09-02T21:49:54Z</time></trkpt><trkpt lat="59.5565334801" lon="31.2673192564"><ele>239.51</ele><time>2026-09-02T21:49:55Z</time></trkpt><trkpt lat="59.5565310493" lon="31.2673142273"><ele>239.51</ele><time>2026-09-02T21:49:56Z</time></trkpt><trkpt lat="59.5565275289" lon="31.2673038337"><ele>239.51</ele><time>2026-09-02T21:49:57Z</time></trkpt><trkpt lat="59.5565246791" lon="31.2672891654"><ele>239.51</ele><time>2026-09-02T21:49:58Z</time></trkpt><trkpt lat="59.5565242600" lon="31.2672704738"><ele>239.51</ele><time>2026-09-02T21:49:59Z</time></trkpt><trkpt lat="59.5565231703" lon="31.2672531232"><ele>239.02</ele><time>2026-09-02T21:50:00Z</time></trkpt><trkpt lat="59.5565214939" lon="31.2672357727"><ele>239.02</ele><time>2026-09-02T21:50:01Z</time></trkpt><trkpt lat="59.5565190632" lon="31.2672184221"><ele>239.02</ele><time>2026-09-02T21:50:02Z</time></trkpt><trkpt lat="59.5565215778" lon="31.2672089506"><ele>239.02</ele><time>2026-09-02T21:50:03Z</time></trkpt><trkpt lat="59.5565215778" lon="31.2671998981"><ele>239.02</ele><time>2026-09-02T21:50:04Z</time></trkpt><trkpt lat="59.5565204881" lon="31.2671954557"><ele>239.02</ele><time>2026-09-02T21:50:05Z</time></trkpt><trkpt lat="59.5565219969" lon="31.2671899237"><ele>239.02</ele><time>2026-09-02T21:50:06Z</time></trkpt><trkpt lat="59.5565231703" lon="31.2671842240"><ele>239.02</ele><time>2026-09-02T21:50:07Z</time></trkpt><trkpt lat="59.5565247629" lon="31.2671742495"><ele>239.02</ele><time>2026-09-02T21:50:08Z</time></trkpt><trkpt lat="59.5565268584" lon="31.2671668734"><ele>239.02</ele><time>2026-09-02T21:50:09Z</time></trkpt><trkpt lat="59.5565292891" lon="31.2671642751"><ele>239.02</ele><time>2026-09-02T21:50:10Z</time></trkpt><trkpt lat="59.5565315522" lon="31.2671612576"><ele>239.02</ele><time>2026-09-02T21:50:11Z</time></trkpt><trkpt lat="59.5565364975" lon="31.2671516184"><ele>239.02</ele><time>2026-09-02T21:50:12Z</time></trkpt><trkpt lat="59.5565436222" lon="31.2671416439"><ele>238.54</ele><time>2026-09-02T21:50:13Z</time></trkpt><trkpt lat="59.5565520879" lon="31.2671367824"><ele>238.54</ele><time>2026-09-02T21:50:14Z</time></trkpt><trkpt lat="59.5565581229" lon="31.2671372853"><ele>238.54</ele><time>2026-09-02T21:50:15Z</time></trkpt><trkpt lat="59.5565622300" lon="31.2671404704"><ele>238.54</ele><time>2026-09-02T21:50:16Z</time></trkpt><trkpt lat="59.5565670915" lon="31.2671489362"><ele>238.54</ele><time>2026-09-02T21:50:17Z</time></trkpt><trkpt lat="59.5565713663" lon="31.2671606708"><ele>238.54</ele><time>2026-09-02T21:50:18Z</time></trkpt><trkpt lat="59.5565794967" lon="31.2671696395"><ele>238.54</ele><time>2026-09-02T21:50:19Z</time></trkpt><trkpt lat="59.5565853640" lon="31.2671769317"><ele>238.54</ele><time>2026-09-02T21:50:20Z</time></trkpt><trkpt lat="59.5565910637" lon="31.2671777699"><ele>238.54</ele><time>2026-09-02T21:50:21Z</time></trkpt><trkpt lat="59.5565959252" lon="31.2671837211"><ele>238.54</ele><time>2026-09-02T21:50:22Z</time></trkpt><trkpt lat="59.5566007867" lon="31.2671818770"><ele>238.54</ele><time>2026-09-02T21:50:23Z</time></trkpt><trkpt lat="59.5566198975" lon="31.2671722379"><ele>238.54</ele><time>2026-09-02T21:50:24Z</time></trkpt><trkpt lat="59.5566276927" lon="31.2671681307"><ele>238.54</ele><time>2026-09-02T21:50:25Z</time></trkpt><trkpt lat="59.5566325542" lon="31.2671663705"><ele>238.54</ele><time>2026-09-02T21:50:26Z</time></trkpt><trkpt lat="59.5566387568" lon="31.2671641912"><ele>238.54</ele><time>2026-09-02T21:50:27Z</time></trkpt><trkpt lat="59.5566427801" lon="31.2671637721"><ele>238.54</ele><time>2026-09-02T21:50:28Z</time></trkpt><trkpt lat="59.5566480607" lon="31.2671627663"><ele>238.06</ele><time>2026-09-02T21:50:29Z</time></trkpt><trkpt lat="59.5566523355" lon="31.2671623472"><ele>238.06</ele><time>2026-09-02T21:50:30Z</time></trkpt><trkpt lat="59.5566599630" lon="31.2671617605"><ele>238.06</ele><time>2026-09-02T21:50:31Z</time></trkpt><trkpt lat="59.5566705242" lon="31.2671556417"><ele>238.06</ele><time>2026-09-02T21:50:32Z</time></trkpt><trkpt lat="59.5566762239" lon="31.2671518698"><ele>237.58</ele><time>2026-09-02T21:50:33Z</time></trkpt><trkpt lat="59.5566830970" lon="31.2671423983"><ele>237.58</ele><time>2026-09-02T21:50:34Z</time></trkpt><trkpt lat="59.5566856954" lon="31.2671202701"><ele>237.58</ele><time>2026-09-02T21:50:35Z</time></trkpt><trkpt lat="59.5566903893" lon="31.2671060208"><ele>237.58</ele><time>2026-09-02T21:50:36Z</time></trkpt><trkpt lat="59.5566960890" lon="31.2670936994"><ele>237.58</ele><time>2026-09-02T21:50:37Z</time></trkpt><trkpt lat="59.5567021240" lon="31.2670840602"><ele>237.58</ele><time>2026-09-02T21:50:38Z</time></trkpt><trkpt lat="59.5567113440" lon="31.2670744210"><ele>237.58</ele><time>2026-09-02T21:50:39Z</time></trkpt><trkpt lat="59.5567187201" lon="31.2670667935"><ele>237.58</ele><time>2026-09-02T21:50:40Z</time></trkpt><trkpt lat="59.5567275211" lon="31.2670657877"><ele>237.10</ele><time>2026-09-02T21:50:41Z</time></trkpt><trkpt lat="59.5567354839" lon="31.2670630217"><ele>237.10</ele><time>2026-09-02T21:50:42Z</time></trkpt><trkpt lat="59.5567467995" lon="31.2670595851"><ele>236.62</ele><time>2026-09-02T21:50:43Z</time></trkpt><trkpt lat="59.5567591209" lon="31.2670543883"><ele>236.62</ele><time>2026-09-02T21:50:44Z</time></trkpt><trkpt lat="59.5567681734" lon="31.2670477666"><ele>236.62</ele><time>2026-09-02T21:50:45Z</time></trkpt><trkpt lat="59.5567726996" lon="31.2670445815"><ele>236.14</ele><time>2026-09-02T21:50:46Z</time></trkpt><trkpt lat="59.5567779802" lon="31.2670396362"><ele>236.14</ele><time>2026-09-02T21:50:47Z</time></trkpt><trkpt lat="59.5567842666" lon="31.2670377921"><ele>235.66</ele><time>2026-09-02T21:50:48Z</time></trkpt><trkpt lat="59.5567907207" lon="31.2670351937"><ele>235.66</ele><time>2026-09-02T21:50:49Z</time></trkpt><trkpt lat="59.5567960851" lon="31.2670345232"><ele>235.18</ele><time>2026-09-02T21:50:50Z</time></trkpt><trkpt lat="59.5567980967" lon="31.2670252193"><ele>235.18</ele><time>2026-09-02T21:50:51Z</time></trkpt><trkpt lat="59.5568055566" lon="31.2670172565"><ele>235.18</ele><time>2026-09-02T21:50:52Z</time></trkpt><trkpt lat="59.5568160340" lon="31.2670071982"><ele>235.18</ele><time>2026-09-02T21:50:53Z</time></trkpt><trkpt lat="59.5568215661" lon="31.2669965532"><ele>235.18</ele><time>2026-09-02T21:50:54Z</time></trkpt><trkpt lat="59.5568249188" lon="31.2669890933"><ele>235.18</ele><time>2026-09-02T21:50:55Z</time></trkpt><trkpt lat="59.5568280201" lon="31.2669823878"><ele>235.18</ele><time>2026-09-02T21:50:56Z</time></trkpt><trkpt lat="59.5568303671" lon="31.2669757660"><ele>235.18</ele><time>2026-09-02T21:50:57Z</time></trkpt><trkpt lat="59.5568302833" lon="31.2669682223"><ele>235.18</ele><time>2026-09-02T21:50:58Z</time></trkpt><trkpt lat="59.5568265952" lon="31.2669482734"><ele>235.18</ele><time>2026-09-02T21:50:59Z</time></trkpt><trkpt lat="59.5568256732" lon="31.2669340242"><ele>235.18</ele><time>2026-09-02T21:51:00Z</time></trkpt><trkpt lat="59.5568256732" lon="31.2669235468"><ele>235.18</ele><time>2026-09-02T21:51:01Z</time></trkpt><trkpt lat="59.5568223204" lon="31.2669136561"><ele>235.18</ele><time>2026-09-02T21:51:02Z</time></trkpt><trkpt lat="59.5568200573" lon="31.2669066992"><ele>235.18</ele><time>2026-09-02T21:51:03Z</time></trkpt><trkpt lat="59.5568159502" lon="31.2669025920"><ele>235.18</ele><time>2026-09-02T21:51:04Z</time></trkpt><trkpt lat="59.5568133518" lon="31.2668991555"><ele>235.18</ele><time>2026-09-02T21:51:05Z</time></trkpt><trkpt lat="59.5568135194" lon="31.2668996584"><ele>235.18</ele><time>2026-09-02T21:51:06Z</time></trkpt><trkpt lat="59.5568112563" lon="31.2668968923"><ele>235.18</ele><time>2026-09-02T21:51:07Z</time></trkpt><trkpt lat="59.5568086579" lon="31.2668918632"><ele>235.18</ele><time>2026-09-02T21:51:08Z</time></trkpt><trkpt lat="59.5568058919" lon="31.2668876722"><ele>235.18</ele><time>2026-09-02T21:51:09Z</time></trkpt><trkpt lat="59.5568023715" lon="31.2668799609"><ele>235.18</ele><time>2026-09-02T21:51:10Z</time></trkpt><trkpt lat="59.5568012819" lon="31.2668707408"><ele>235.18</ele><time>2026-09-02T21:51:11Z</time></trkpt><trkpt lat="59.5567988511" lon="31.2668575812"><ele>235.18</ele><time>2026-09-02T21:51:12Z</time></trkpt><trkpt lat="59.5567939896" lon="31.2668477744"><ele>235.18</ele><time>2026-09-02T21:51:13Z</time></trkpt><trkpt lat="59.5567901339" lon="31.2668371294"><ele>235.18</ele><time>2026-09-02T21:51:14Z</time></trkpt><trkpt lat="59.5567885414" lon="31.2668284960"><ele>235.18</ele><time>2026-09-02T21:51:15Z</time></trkpt><trkpt lat="59.5567831770" lon="31.2668206170"><ele>235.18</ele><time>2026-09-02T21:51:16Z</time></trkpt><trkpt lat="59.5567795727" lon="31.2668138277"><ele>235.18</ele><time>2026-09-02T21:51:17Z</time></trkpt><trkpt lat="59.5567727834" lon="31.2668026797"><ele>235.18</ele><time>2026-09-02T21:51:18Z</time></trkpt><trkpt lat="59.5567669999" lon="31.2667983212"><ele>235.18</ele><time>2026-09-02T21:51:19Z</time></trkpt><trkpt lat="59.5567623898" lon="31.2667992432"><ele>235.18</ele><time>2026-09-02T21:51:20Z</time></trkpt><trkpt lat="59.5567596238" lon="31.2667909451"><ele>235.18</ele><time>2026-09-02T21:51:21Z</time></trkpt><trkpt lat="59.5567539241" lon="31.2667860836"><ele>235.18</ele><time>2026-09-02T21:51:22Z</time></trkpt><trkpt lat="59.5567521639" lon="31.2667761929"><ele>235.18</ele><time>2026-09-02T21:51:23Z</time></trkpt><trkpt lat="59.5567462966" lon="31.2667586748"><ele>235.66</ele><time>2026-09-02T21:51:24Z</time></trkpt><trkpt lat="59.5567402616" lon="31.2667464372"><ele>235.66</ele><time>2026-09-02T21:51:25Z</time></trkpt><trkpt lat="59.5567387529" lon="31.2667374685"><ele>235.66</ele><time>2026-09-02T21:51:26Z</time></trkpt><trkpt lat="59.5567357354" lon="31.2667252310"><ele>235.66</ele><time>2026-09-02T21:51:27Z</time></trkpt><trkpt lat="59.5567345619" lon="31.2667068746"><ele>235.66</ele><time>2026-09-02T21:51:28Z</time></trkpt><trkpt lat="59.5567329694" lon="31.2666926254"><ele>235.66</ele><time>2026-09-02T21:51:29Z</time></trkpt><trkpt lat="59.5567273535" lon="31.2666795496"><ele>235.66</ele><time>2026-09-02T21:51:30Z</time></trkpt><trkpt lat="59.5567256771" lon="31.2666676473"><ele>235.18</ele><time>2026-09-02T21:51:31Z</time></trkpt><trkpt lat="59.5567252580" lon="31.2666595168"><ele>235.18</ele><time>2026-09-02T21:51:32Z</time></trkpt><trkpt lat="59.5567244198" lon="31.2666521408"><ele>235.18</ele><time>2026-09-02T21:51:33Z</time></trkpt><trkpt lat="59.5567239169" lon="31.2666459382"><ele>235.18</ele><time>2026-09-02T21:51:34Z</time></trkpt><trkpt lat="59.5567242522" lon="31.2666294258"><ele>235.18</ele><time>2026-09-02T21:51:35Z</time></trkpt><trkpt lat="59.5567248389" lon="31.2666369695"><ele>235.18</ele><time>2026-09-02T21:51:36Z</time></trkpt><trkpt lat="59.5567240845" lon="31.2666290905"><ele>235.18</ele><time>2026-09-02T21:51:37Z</time></trkpt><trkpt lat="59.5567210671" lon="31.2666219659"><ele>235.18</ele><time>2026-09-02T21:51:38Z</time></trkpt><trkpt lat="59.5567177981" lon="31.2666133326"><ele>235.18</ele><time>2026-09-02T21:51:39Z</time></trkpt><trkpt lat="59.5567147806" lon="31.2666072976"><ele>235.18</ele><time>2026-09-02T21:51:40Z</time></trkpt><trkpt lat="59.5567145292" lon="31.2665985804"><ele>235.18</ele><time>2026-09-02T21:51:41Z</time></trkpt><trkpt lat="59.5567114279" lon="31.2665909529"><ele>235.18</ele><time>2026-09-02T21:51:42Z</time></trkpt><trkpt lat="59.5567123499" lon="31.2665907852"><ele>235.18</ele><time>2026-09-02T21:51:43Z</time></trkpt><trkpt lat="59.5567100868" lon="31.2665878516"><ele>235.18</ele><time>2026-09-02T21:51:44Z</time></trkpt><trkpt lat="59.5567127690" lon="31.2665785477"><ele>235.18</ele><time>2026-09-02T21:51:45Z</time></trkpt><trkpt lat="59.5567186363" lon="31.2665698305"><ele>235.18</ele><time>2026-09-02T21:51:46Z</time></trkpt><trkpt lat="59.5567230787" lon="31.2665623706"><ele>235.18</ele><time>2026-09-02T21:51:47Z</time></trkpt><trkpt lat="59.5567301195" lon="31.2665562518"><ele>235.18</ele><time>2026-09-02T21:51:48Z</time></trkpt><trkpt lat="59.5567339752" lon="31.2665505521"><ele>235.18</ele><time>2026-09-02T21:51:49Z</time></trkpt><trkpt lat="59.5567324664" lon="31.2665462773"><ele>235.18</ele><time>2026-09-02T21:51:50Z</time></trkpt><trkpt lat="59.5567307901" lon="31.2665406615"><ele>235.18</ele><time>2026-09-02T21:51:51Z</time></trkpt><trkpt lat="59.5567318797" lon="31.2665337883"><ele>235.18</ele><time>2026-09-02T21:51:52Z</time></trkpt><trkpt lat="59.5567349810" lon="31.2665258255"><ele>235.18</ele><time>2026-09-02T21:51:53Z</time></trkpt><trkpt lat="59.5567397587" lon="31.2665190361"><ele>235.18</ele><time>2026-09-02T21:51:54Z</time></trkpt><trkpt lat="59.5567435306" lon="31.2665144261"><ele>235.18</ele><time>2026-09-02T21:51:55Z</time></trkpt><trkpt lat="59.5567446202" lon="31.2665053736"><ele>235.18</ele><time>2026-09-02T21:51:56Z</time></trkpt><trkpt lat="59.5567477215" lon="31.2664996739"><ele>235.18</ele><time>2026-09-02T21:51:57Z</time></trkpt><trkpt lat="59.5567486435" lon="31.2664932199"><ele>235.18</ele><time>2026-09-02T21:51:58Z</time></trkpt><trkpt lat="59.5567468833" lon="31.2664922979"><ele>235.18</ele><time>2026-09-02T21:51:59Z</time></trkpt><trkpt lat="59.5567462966" lon="31.2664964888"><ele>235.18</ele><time>2026-09-02T21:52:00Z</time></trkpt><trkpt lat="59.5567409322" lon="31.2665016856"><ele>235.18</ele><time>2026-09-02T21:52:01Z</time></trkpt><trkpt lat="59.5567380823" lon="31.2664999254"><ele>235.18</ele><time>2026-09-02T21:52:02Z</time></trkpt><trkpt lat="59.5567363221" lon="31.2664965726"><ele>235.18</ele><time>2026-09-02T21:52:03Z</time></trkpt><trkpt lat="59.5567342266" lon="31.2664953992"><ele>235.18</ele><time>2026-09-02T21:52:04Z</time></trkpt><trkpt lat="59.5567339752" lon="31.2664931361"><ele>235.18</ele><time>2026-09-02T21:52:05Z</time></trkpt><trkpt lat="59.5567333885" lon="31.2664944772"><ele>235.18</ele><time>2026-09-02T21:52:06Z</time></trkpt><trkpt lat="59.5567337237" lon="31.2664933875"><ele>235.18</ele><time>2026-09-02T21:52:07Z</time></trkpt><trkpt lat="59.5567339752" lon="31.2664938904"><ele>235.18</ele><time>2026-09-02T21:52:08Z</time></trkpt><trkpt lat="59.5567327179" lon="31.2664971594"><ele>235.18</ele><time>2026-09-02T21:52:09Z</time></trkpt><trkpt lat="59.5567314606" lon="31.2664989196"><ele>235.18</ele><time>2026-09-02T21:52:10Z</time></trkpt><trkpt lat="59.5567265991" lon="31.2665001769"><ele>235.18</ele><time>2026-09-02T21:52:11Z</time></trkpt><trkpt lat="59.5567237493" lon="31.2665027753"><ele>235.18</ele><time>2026-09-02T21:52:12Z</time></trkpt><trkpt lat="59.5567209832" lon="31.2665086426"><ele>235.18</ele><time>2026-09-02T21:52:13Z</time></trkpt><trkpt lat="59.5567200612" lon="31.2665168568"><ele>235.18</ele><time>2026-09-02T21:52:14Z</time></trkpt><trkpt lat="59.5567203965" lon="31.2665227242"><ele>235.18</ele><time>2026-09-02T21:52:15Z</time></trkpt><trkpt lat="59.5567211509" lon="31.2665322796"><ele>235.18</ele><time>2026-09-02T21:52:16Z</time></trkpt><trkpt lat="59.5567212347" lon="31.2665423378"><ele>235.18</ele><time>2026-09-02T21:52:17Z</time></trkpt><trkpt lat="59.5567173790" lon="31.2665669806"><ele>235.18</ele><time>2026-09-02T21:52:18Z</time></trkpt><trkpt lat="59.5567219891" lon="31.2665857561"><ele>235.18</ele><time>2026-09-02T21:52:19Z</time></trkpt><trkpt lat="59.5567238331" lon="31.2665958982"><ele>235.18</ele><time>2026-09-02T21:52:20Z</time></trkpt><trkpt lat="59.5567240845" lon="31.2666118238"><ele>235.18</ele><time>2026-09-02T21:52:21Z</time></trkpt><trkpt lat="59.5567248389" lon="31.2666245643"><ele>235.18</ele><time>2026-09-02T21:52:22Z</time></trkpt><trkpt lat="59.5567259286" lon="31.2666356284"><ele>235.18</ele><time>2026-09-02T21:52:23Z</time></trkpt><trkpt lat="59.5567292813" lon="31.2666455191"><ele>235.18</ele><time>2026-09-02T21:52:24Z</time></trkpt><trkpt lat="59.5567297842" lon="31.2666598521"><ele>235.18</ele><time>2026-09-02T21:52:25Z</time></trkpt><trkpt lat="59.5567295328" lon="31.2666789629"><ele>235.18</ele><time>2026-09-02T21:52:26Z</time></trkpt><trkpt lat="59.5567309577" lon="31.2666996662"><ele>235.18</ele><time>2026-09-02T21:52:27Z</time></trkpt><trkpt lat="59.5567332208" lon="31.2667174358"><ele>235.18</ele><time>2026-09-02T21:52:28Z</time></trkpt><trkpt lat="59.5567371603" lon="31.2667401507"><ele>235.18</ele><time>2026-09-02T21:52:29Z</time></trkpt><trkpt lat="59.5567419380" lon="31.2667624466"><ele>235.18</ele><time>2026-09-02T21:52:30Z</time></trkpt><trkpt lat="59.5567444526" lon="31.2667802162"><ele>235.18</ele><time>2026-09-02T21:52:31Z</time></trkpt><trkpt lat="59.5567472186" lon="31.2667964771"><ele>235.18</ele><time>2026-09-02T21:52:32Z</time></trkpt><trkpt lat="59.5567521639" lon="31.2668145820"><ele>235.18</ele><time>2026-09-02T21:52:33Z</time></trkpt><trkpt lat="59.5567570254" lon="31.2668302562"><ele>235.18</ele><time>2026-09-02T21:52:34Z</time></trkpt><trkpt lat="59.5567596238" lon="31.2668469362"><ele>235.18</ele><time>2026-09-02T21:52:35Z</time></trkpt><trkpt lat="59.5567633957" lon="31.2668596767"><ele>235.66</ele><time>2026-09-02T21:52:36Z</time></trkpt><trkpt lat="59.5567681734" lon="31.2668737583"><ele>235.66</ele><time>2026-09-02T21:52:37Z</time></trkpt><trkpt lat="59.5567756332" lon="31.2668800447"><ele>235.66</ele><time>2026-09-02T21:52:38Z</time></trkpt><trkpt lat="59.5567818359" lon="31.2668803800"><ele>235.66</ele><time>2026-09-02T21:52:39Z</time></trkpt><trkpt lat="59.5567879546" lon="31.2668860797"><ele>235.66</ele><time>2026-09-02T21:52:40Z</time></trkpt><trkpt lat="59.5567926485" lon="31.2668918632"><ele>235.66</ele><time>2026-09-02T21:52:41Z</time></trkpt><trkpt lat="59.5567970909" lon="31.2668958865"><ele>235.66</ele><time>2026-09-02T21:52:42Z</time></trkpt><trkpt lat="59.5568016171" lon="31.2669035979"><ele>235.18</ele><time>2026-09-02T21:52:43Z</time></trkpt><trkpt lat="59.5568081550" lon="31.2669150811"><ele>235.18</ele><time>2026-09-02T21:52:44Z</time></trkpt><trkpt lat="59.5568153635" lon="31.2669307552"><ele>235.18</ele><time>2026-09-02T21:52:45Z</time></trkpt><trkpt lat="59.5568244997" lon="31.2669426575"><ele>235.18</ele><time>2026-09-02T21:52:46Z</time></trkpt><trkpt lat="59.5568278525" lon="31.2669528835"><ele>235.18</ele><time>2026-09-02T21:52:47Z</time></trkpt><trkpt lat="59.5568309538" lon="31.2669592537"><ele>235.18</ele><time>2026-09-02T21:52:48Z</time></trkpt><trkpt lat="59.5568324625" lon="31.2669648696"><ele>235.18</ele><time>2026-09-02T21:52:49Z</time></trkpt><trkpt lat="59.5568338875" lon="31.2669699825"><ele>235.18</ele><time>2026-09-02T21:52:50Z</time></trkpt><trkpt lat="59.5568341389" lon="31.2669693958"><ele>235.18</ele><time>2026-09-02T21:52:51Z</time></trkpt><trkpt lat="59.5568349771" lon="31.2669721618"><ele>235.18</ele><time>2026-09-02T21:52:52Z</time></trkpt><trkpt lat="59.5568375755" lon="31.2669726647"><ele>235.18</ele><time>2026-09-02T21:52:53Z</time></trkpt><trkpt lat="59.5568406768" lon="31.2669723295"><ele>235.18</ele><time>2026-09-02T21:52:54Z</time></trkpt><trkpt lat="59.5568442810" lon="31.2669748440"><ele>235.18</ele><time>2026-09-02T21:52:55Z</time></trkpt><trkpt lat="59.5568467956" lon="31.2669797894"><ele>235.18</ele><time>2026-09-02T21:52:56Z</time></trkpt><trkpt lat="59.5568484720" lon="31.2669802923"><ele>235.18</ele><time>2026-09-02T21:52:57Z</time></trkpt><trkpt lat="59.5568529982" lon="31.2669824716"><ele>235.18</ele><time>2026-09-02T21:52:58Z</time></trkpt><trkpt lat="59.5568585303" lon="31.2669827230"><ele>235.18</ele><time>2026-09-02T21:52:59Z</time></trkpt><trkpt lat="59.5568570215" lon="31.2669843994"><ele>235.18</ele><time>2026-09-02T21:53:00Z</time></trkpt><trkpt lat="59.5568611287" lon="31.2669861596"><ele>235.18</ele><time>2026-09-02T21:53:01Z</time></trkpt><trkpt lat="59.5568628889" lon="31.2669899315"><ele>235.18</ele><time>2026-09-02T21:53:02Z</time></trkpt><trkpt lat="59.5568644814" lon="31.2669943739"><ele>235.18</ele><time>2026-09-02T21:53:03Z</time></trkpt><trkpt lat="59.5568660740" lon="31.2669976428"><ele>235.18</ele><time>2026-09-02T21:53:04Z</time></trkpt><trkpt lat="59.5568686724" lon="31.2669987325"><ele>235.18</ele><time>2026-09-02T21:53:05Z</time></trkpt><trkpt lat="59.5568720251" lon="31.2670025881"><ele>235.18</ele><time>2026-09-02T21:53:06Z</time></trkpt><trkpt lat="59.5568752941" lon="31.2670046836"><ele>235.18</ele><time>2026-09-02T21:53:07Z</time></trkpt><trkpt lat="59.5568744559" lon="31.2670058571"><ele>235.18</ele><time>2026-09-02T21:53:08Z</time></trkpt><trkpt lat="59.5568768866" lon="31.2670070305"><ele>235.18</ele><time>2026-09-02T21:53:09Z</time></trkpt><trkpt lat="59.5568785630" lon="31.2670075335"><ele>235.18</ele><time>2026-09-02T21:53:10Z</time></trkpt><trkpt lat="59.5568815805" lon="31.2670096289"><ele>235.18</ele><time>2026-09-02T21:53:11Z</time></trkpt><trkpt lat="59.5568845980" lon="31.2670098804"><ele>235.18</ele><time>2026-09-02T21:53:12Z</time></trkpt><trkpt lat="59.5568883698" lon="31.2670101319"><ele>235.18</ele><time>2026-09-02T21:53:13Z</time></trkpt><trkpt lat="59.5568897948" lon="31.2670121435"><ele>235.18</ele><time>2026-09-02T21:53:14Z</time></trkpt><trkpt lat="59.5568912197" lon="31.2670103833"><ele>235.18</ele><time>2026-09-02T21:53:15Z</time></trkpt><trkpt lat="59.5568944886" lon="31.2670058571"><ele>235.18</ele><time>2026-09-02T21:53:16Z</time></trkpt><trkpt lat="59.5568952430" lon="31.2669996545"><ele>235.18</ele><time>2026-09-02T21:53:17Z</time></trkpt><trkpt lat="59.5569015294" lon="31.2670038454"><ele>235.18</ele><time>2026-09-02T21:53:18Z</time></trkpt><trkpt lat="59.5569051336" lon="31.2670029234"><ele>235.18</ele><time>2026-09-02T21:53:19Z</time></trkpt><trkpt lat="59.5569049660" lon="31.2670049351"><ele>235.18</ele><time>2026-09-02T21:53:20Z</time></trkpt><trkpt lat="59.5569108333" lon="31.2670000736"><ele>235.18</ele><time>2026-09-02T21:53:21Z</time></trkpt><trkpt lat="59.5569157787" lon="31.2669964693"><ele>235.18</ele><time>2026-09-02T21:53:22Z</time></trkpt><trkpt lat="59.5569199696" lon="31.2669921946"><ele>235.18</ele><time>2026-09-02T21:53:23Z</time></trkpt><trkpt lat="59.5569287706" lon="31.2669925299"><ele>235.18</ele><time>2026-09-02T21:53:24Z</time></trkpt><trkpt lat="59.5569374878" lon="31.2669883389"><ele>235.18</ele><time>2026-09-02T21:53:25Z</time></trkpt><trkpt lat="59.5569385774" lon="31.2669778615"><ele>235.18</ele><time>2026-09-02T21:53:26Z</time></trkpt><trkpt lat="59.5569432713" lon="31.2669656239"><ele>235.18</ele><time>2026-09-02T21:53:27Z</time></trkpt><trkpt lat="59.5569531620" lon="31.2669604272"><ele>235.18</ele><time>2026-09-02T21:53:28Z</time></trkpt><trkpt lat="59.5569599513" lon="31.2669560686"><ele>235.18</ele><time>2026-09-02T21:53:29Z</time></trkpt><trkpt lat="59.5569621306" lon="31.2669511233"><ele>235.18</ele><time>2026-09-02T21:53:30Z</time></trkpt><trkpt lat="59.5569625497" lon="31.2669436634"><ele>235.18</ele><time>2026-09-02T21:53:31Z</time></trkpt><trkpt lat="59.5569745358" lon="31.2669529673"><ele>235.18</ele><time>2026-09-02T21:53:32Z</time></trkpt><trkpt lat="59.5569657348" lon="31.2669426575"><ele>235.18</ele><time>2026-09-02T21:53:33Z</time></trkpt><trkpt lat="59.5569692552" lon="31.2669406459"><ele>235.18</ele><time>2026-09-02T21:53:34Z</time></trkpt><trkpt lat="59.5569715183" lon="31.2669374608"><ele>235.18</ele><time>2026-09-02T21:53:35Z</time></trkpt><trkpt lat="59.5569715183" lon="31.2669352815"><ele>235.18</ele><time>2026-09-02T21:53:36Z</time></trkpt><trkpt lat="59.5569721889" lon="31.2669315934"><ele>235.18</ele><time>2026-09-02T21:53:37Z</time></trkpt><trkpt lat="59.5569760446" lon="31.2669195235"><ele>235.18</ele><time>2026-09-02T21:53:38Z</time></trkpt><trkpt lat="59.5569751225" lon="31.2669162545"><ele>235.18</ele><time>2026-09-02T21:53:39Z</time></trkpt><trkpt lat="59.5569755416" lon="31.2669104710"><ele>235.18</ele><time>2026-09-02T21:53:40Z</time></trkpt><trkpt lat="59.5569750387" lon="31.2669055257"><ele>235.18</ele><time>2026-09-02T21:53:41Z</time></trkpt><trkpt lat="59.5569757931" lon="31.2669056933"><ele>235.18</ele><time>2026-09-02T21:53:42Z</time></trkpt><trkpt lat="59.5569747873" lon="31.2669035979"><ele>235.18</ele><time>2026-09-02T21:53:43Z</time></trkpt><trkpt lat="59.5569746196" lon="31.2669036817"><ele>235.18</ele><time>2026-09-02T21:53:44Z</time></trkpt><trkpt lat="59.5569771342" lon="31.2669043522"><ele>235.18</ele><time>2026-09-02T21:53:45Z</time></trkpt><trkpt lat="59.5569761284" lon="31.2669027597"><ele>235.18</ele><time>2026-09-02T21:53:46Z</time></trkpt><trkpt lat="59.5569757931" lon="31.2669012509"><ele>235.18</ele><time>2026-09-02T21:53:47Z</time></trkpt><trkpt lat="59.5569760446" lon="31.2668997422"><ele>235.18</ele><time>2026-09-02T21:53:48Z</time></trkpt><trkpt lat="59.5569760446" lon="31.2668966409"><ele>235.18</ele><time>2026-09-02T21:53:49Z</time></trkpt><trkpt lat="59.5569763798" lon="31.2668933719"><ele>235.18</ele><time>2026-09-02T21:53:50Z</time></trkpt><trkpt lat="59.5569766313" lon="31.2668903545"><ele>235.18</ele><time>2026-09-02T21:53:51Z</time></trkpt><trkpt lat="59.5569774695" lon="31.2668872532"><ele>235.18</ele><time>2026-09-02T21:53:52Z</time></trkpt><trkpt lat="59.5569773857" lon="31.2668844871"><ele>235.18</ele><time>2026-09-02T21:53:53Z</time></trkpt><trkpt lat="59.5569776371" lon="31.2668863311"><ele>235.18</ele><time>2026-09-02T21:53:54Z</time></trkpt><trkpt lat="59.5569774695" lon="31.2668842357"><ele>235.18</ele><time>2026-09-02T21:53:55Z</time></trkpt><trkpt lat="59.5569790620" lon="31.2668878399"><ele>235.18</ele><time>2026-09-02T21:53:56Z</time></trkpt><trkpt lat="59.5569812413" lon="31.2668880913"><ele>235.18</ele><time>2026-09-02T21:53:57Z</time></trkpt><trkpt lat="59.5569836721" lon="31.2668847386"><ele>235.18</ele><time>2026-09-02T21:53:58Z</time></trkpt><trkpt lat="59.5569851808" lon="31.2668835651"><ele>235.18</ele><time>2026-09-02T21:53:59Z</time></trkpt><trkpt lat="59.5569874439" lon="31.2668791227"><ele>235.18</ele><time>2026-09-02T21:54:00Z</time></trkpt><trkpt lat="59.5569884498" lon="31.2668723334"><ele>235.18</ele><time>2026-09-02T21:54:01Z</time></trkpt><trkpt lat="59.5569918863" lon="31.2668693997"><ele>235.18</ele><time>2026-09-02T21:54:02Z</time></trkpt><trkpt lat="59.5569909643" lon="31.2668682262"><ele>235.18</ele><time>2026-09-02T21:54:03Z</time></trkpt><trkpt lat="59.5569936465" lon="31.2668673880"><ele>235.18</ele><time>2026-09-02T21:54:04Z</time></trkpt><trkpt lat="59.5569944847" lon="31.2668663822"><ele>235.18</ele><time>2026-09-02T21:54:05Z</time></trkpt><trkpt lat="59.5569953229" lon="31.2668645382"><ele>235.18</ele><time>2026-09-02T21:54:06Z</time></trkpt><trkpt lat="59.5569968317" lon="31.2668655440"><ele>235.18</ele><time>2026-09-02T21:54:07Z</time></trkpt><trkpt lat="59.5570012741" lon="31.2668642867"><ele>235.18</ele><time>2026-09-02T21:54:08Z</time></trkpt><trkpt lat="59.5570045430" lon="31.2668596767"><ele>235.18</ele><time>2026-09-02T21:54:09Z</time></trkpt><trkpt lat="59.5570078958" lon="31.2668548990"><ele>235.18</ele><time>2026-09-02T21:54:10Z</time></trkpt><trkpt lat="59.5570127573" lon="31.2668503728"><ele>235.18</ele><time>2026-09-02T21:54:11Z</time></trkpt><trkpt lat="59.5570152719" lon="31.2668436673"><ele>235.18</ele><time>2026-09-02T21:54:12Z</time></trkpt><trkpt lat="59.5570216421" lon="31.2668397278"><ele>235.18</ele><time>2026-09-02T21:54:13Z</time></trkpt><trkpt lat="59.5570238214" lon="31.2668376323"><ele>235.18</ele><time>2026-09-02T21:54:14Z</time></trkpt><trkpt lat="59.5570297725" lon="31.2668337766"><ele>235.18</ele><time>2026-09-02T21:54:15Z</time></trkpt><trkpt lat="59.5570324548" lon="31.2668288313"><ele>235.18</ele><time>2026-09-02T21:54:16Z</time></trkpt><trkpt lat="59.5570363943" lon="31.2668236345"><ele>235.18</ele><time>2026-09-02T21:54:17Z</time></trkpt><trkpt lat="59.5570387412" lon="31.2668164261"><ele>235.18</ele><time>2026-09-02T21:54:18Z</time></trkpt><trkpt lat="59.5570436865" lon="31.2668131571"><ele>235.18</ele><time>2026-09-02T21:54:19Z</time></trkpt><trkpt lat="59.5570455305" lon="31.2668019254"><ele>235.18</ele><time>2026-09-02T21:54:20Z</time></trkpt><trkpt lat="59.5570504759" lon="31.2667891849"><ele>235.18</ele><time>2026-09-02T21:54:21Z</time></trkpt><trkpt lat="59.5570486318" lon="31.2667954713"><ele>235.18</ele><time>2026-09-02T21:54:22Z</time></trkpt><trkpt lat="59.5570523199" lon="31.2667884305"><ele>235.18</ele><time>2026-09-02T21:54:23Z</time></trkpt><trkpt lat="59.5570560917" lon="31.2667873409"><ele>235.18</ele><time>2026-09-02T21:54:24Z</time></trkpt><trkpt lat="59.5570590254" lon="31.2667845748"><ele>235.18</ele><time>2026-09-02T21:54:25Z</time></trkpt><trkpt lat="59.5570632163" lon="31.2667819764"><ele>235.18</ele><time>2026-09-02T21:54:26Z</time></trkpt><trkpt lat="59.5570622943" lon="31.2667801324"><ele>235.18</ele><time>2026-09-02T21:54:27Z</time></trkpt><trkpt lat="59.5570640545" lon="31.2667755224"><ele>235.18</ele><time>2026-09-02T21:54:28Z</time></trkpt><trkpt lat="59.5570660662" lon="31.2667728402"><ele>235.18</ele><time>2026-09-02T21:54:29Z</time></trkpt><trkpt lat="59.5570674911" lon="31.2667663861"><ele>235.18</ele><time>2026-09-02T21:54:30Z</time></trkpt><trkpt lat="59.5570677426" lon="31.2667695712"><ele>235.18</ele><time>2026-09-02T21:54:31Z</time></trkpt><trkpt lat="59.5570687484" lon="31.2667638715"><ele>235.18</ele><time>2026-09-02T21:54:32Z</time></trkpt><trkpt lat="59.5570696704" lon="31.2667624466"><ele>235.18</ele><time>2026-09-02T21:54:33Z</time></trkpt><trkpt lat="59.5570723526" lon="31.2667602673"><ele>235.18</ele><time>2026-09-02T21:54:34Z</time></trkpt><trkpt lat="59.5570739452" lon="31.2667581718"><ele>235.18</ele><time>2026-09-02T21:54:35Z</time></trkpt><trkpt lat="59.5570805669" lon="31.2667500414"><ele>235.18</ele><time>2026-09-02T21:54:36Z</time></trkpt><trkpt lat="59.5570846740" lon="31.2667441741"><ele>235.18</ele><time>2026-09-02T21:54:37Z</time></trkpt><trkpt lat="59.5570882782" lon="31.2667340320"><ele>235.18</ele><time>2026-09-02T21:54:38Z</time></trkpt><trkpt lat="59.5570912957" lon="31.2667237222"><ele>235.18</ele><time>2026-09-02T21:54:39Z</time></trkpt><trkpt lat="59.5570950676" lon="31.2667102274"><ele>235.18</ele><time>2026-09-02T21:54:40Z</time></trkpt><trkpt lat="59.5570962410" lon="31.2667007558"><ele>235.18</ele><time>2026-09-02T21:54:41Z</time></trkpt><trkpt lat="59.5570968278" lon="31.2666928768"><ele>235.18</ele><time>2026-09-02T21:54:42Z</time></trkpt><trkpt lat="59.5570989233" lon="31.2666876800"><ele>235.18</ele><time>2026-09-02T21:54:43Z</time></trkpt><trkpt lat="59.5571009349" lon="31.2666796334"><ele>235.18</ele><time>2026-09-02T21:54:44Z</time></trkpt><trkpt lat="59.5571000967" lon="31.2666825671"><ele>235.18</ele><time>2026-09-02T21:54:45Z</time></trkpt><trkpt lat="59.5571017731" lon="31.2666755263"><ele>235.18</ele><time>2026-09-02T21:54:46Z</time></trkpt><trkpt lat="59.5571039524" lon="31.2666732632"><ele>235.18</ele><time>2026-09-02T21:54:47Z</time></trkpt><trkpt lat="59.5571031980" lon="31.2666766997"><ele>235.18</ele><time>2026-09-02T21:54:48Z</time></trkpt><trkpt lat="59.5571029466" lon="31.2666792981"><ele>235.18</ele><time>2026-09-02T21:54:49Z</time></trkpt><trkpt lat="59.5571064670" lon="31.2666759454"><ele>235.18</ele><time>2026-09-02T21:54:50Z</time></trkpt><trkpt lat="59.5571122505" lon="31.2666706648"><ele>235.18</ele><time>2026-09-02T21:54:51Z</time></trkpt><trkpt lat="59.5571195427" lon="31.2666608579"><ele>235.18</ele><time>2026-09-02T21:54:52Z</time></trkpt><trkpt lat="59.5571241528" lon="31.2666521408"><ele>235.18</ele><time>2026-09-02T21:54:53Z</time></trkpt><trkpt lat="59.5571252424" lon="31.2666394841"><ele>235.18</ele><time>2026-09-02T21:54:54Z</time></trkpt><trkpt lat="59.5571274217" lon="31.2666342873"><ele>235.18</ele><time>2026-09-02T21:54:55Z</time></trkpt><trkpt lat="59.5571312774" lon="31.2666247319"><ele>235.18</ele><time>2026-09-02T21:54:56Z</time></trkpt><trkpt lat="59.5571348816" lon="31.2666161824"><ele>235.18</ele><time>2026-09-02T21:54:57Z</time></trkpt><trkpt lat="59.5571374800" lon="31.2665986642"><ele>235.18</ele><time>2026-09-02T21:54:58Z</time></trkpt><trkpt lat="59.5571420901" lon="31.2665844988"><ele>235.18</ele><time>2026-09-02T21:54:59Z</time></trkpt><trkpt lat="59.5571485441" lon="31.2665700819"><ele>235.18</ele><time>2026-09-02T21:55:00Z</time></trkpt><trkpt lat="59.5571516454" lon="31.2665590178"><ele>235.18</ele><time>2026-09-02T21:55:01Z</time></trkpt><trkpt lat="59.5571568422" lon="31.2665460259"><ele>235.18</ele><time>2026-09-02T21:55:02Z</time></trkpt><trkpt lat="59.5571618713" lon="31.2665278371"><ele>235.18</ele><time>2026-09-02T21:55:03Z</time></trkpt><trkpt lat="59.5571637992" lon="31.2665117439"><ele>235.18</ele><time>2026-09-02T21:55:04Z</time></trkpt><trkpt lat="59.5571649726" lon="31.2664969917"><ele>235.18</ele><time>2026-09-02T21:55:05Z</time></trkpt><trkpt lat="59.5571654756" lon="31.2664786354"><ele>235.18</ele><time>2026-09-02T21:55:06Z</time></trkpt><trkpt lat="59.5571622904" lon="31.2664636318"><ele>235.18</ele><time>2026-09-02T21:55:07Z</time></trkpt><trkpt lat="59.5571599435" lon="31.2664508913"><ele>235.18</ele><time>2026-09-02T21:55:08Z</time></trkpt><trkpt lat="59.5571544953" lon="31.2664391566"><ele>235.18</ele><time>2026-09-02T21:55:09Z</time></trkpt><trkpt lat="59.5571502205" lon="31.2664288469"><ele>235.18</ele><time>2026-09-02T21:55:10Z</time></trkpt><trkpt lat="59.5571455266" lon="31.2664195430"><ele>235.18</ele><time>2026-09-02T21:55:11Z</time></trkpt><trkpt lat="59.5571379829" lon="31.2664123345"><ele>235.18</ele><time>2026-09-02T21:55:12Z</time></trkpt><trkpt lat="59.5571326185" lon="31.2664066348"><ele>235.18</ele><time>2026-09-02T21:55:13Z</time></trkpt><trkpt lat="59.5571252424" lon="31.2664036173"><ele>235.18</ele><time>2026-09-02T21:55:14Z</time></trkpt><trkpt lat="59.5571137592" lon="31.2663990911"><ele>235.18</ele><time>2026-09-02T21:55:15Z</time></trkpt><trkpt lat="59.5571051259" lon="31.2663900387"><ele>235.18</ele><time>2026-09-02T21:55:16Z</time></trkpt><trkpt lat="59.5571007673" lon="31.2663878594"><ele>235.18</ele><time>2026-09-02T21:55:17Z</time></trkpt><trkpt lat="59.5570994262" lon="31.2663810700"><ele>235.18</ele><time>2026-09-02T21:55:18Z</time></trkpt><trkpt lat="59.5570956543" lon="31.2663739454"><ele>235.66</ele><time>2026-09-02T21:55:19Z</time></trkpt><trkpt lat="59.5570937265" lon="31.2663727719"><ele>235.66</ele><time>2026-09-02T21:55:20Z</time></trkpt><trkpt lat="59.5570908766" lon="31.2663638871"><ele>235.66</ele><time>2026-09-02T21:55:21Z</time></trkpt><trkpt lat="59.5570912957" lon="31.2663556729"><ele>235.66</ele><time>2026-09-02T21:55:22Z</time></trkpt><trkpt lat="59.5570900384" lon="31.2663482968"><ele>235.66</ele><time>2026-09-02T21:55:23Z</time></trkpt><trkpt lat="59.5570910443" lon="31.2663400825"><ele>235.66</ele><time>2026-09-02T21:55:24Z</time></trkpt><trkpt lat="59.5570898708" lon="31.2663301919"><ele>235.66</ele><time>2026-09-02T21:55:25Z</time></trkpt><trkpt lat="59.5570895355" lon="31.2663192954"><ele>236.14</ele><time>2026-09-02T21:55:26Z</time></trkpt><trkpt lat="59.5570896193" lon="31.2663015258"><ele>236.14</ele><time>2026-09-02T21:55:27Z</time></trkpt><trkpt lat="59.5570903737" lon="31.2662880309"><ele>236.14</ele><time>2026-09-02T21:55:28Z</time></trkpt><trkpt lat="59.5570930559" lon="31.2662772182"><ele>236.14</ele><time>2026-09-02T21:55:29Z</time></trkpt><trkpt lat="59.5570946485" lon="31.2662614603"><ele>236.14</ele><time>2026-09-02T21:55:30Z</time></trkpt><trkpt lat="59.5570967440" lon="31.2662482169"><ele>236.14</ele><time>2026-09-02T21:55:31Z</time></trkpt><trkpt lat="59.5571044553" lon="31.2662374880"><ele>236.14</ele><time>2026-09-02T21:55:32Z</time></trkpt><trkpt lat="59.5571157709" lon="31.2662251666"><ele>236.62</ele><time>2026-09-02T21:55:33Z</time></trkpt><trkpt lat="59.5571226440" lon="31.2662087381"><ele>236.62</ele><time>2026-09-02T21:55:34Z</time></trkpt><trkpt lat="59.5571288466" lon="31.2661983445"><ele>236.62</ele><time>2026-09-02T21:55:35Z</time></trkpt><trkpt lat="59.5571342949" lon="31.2661903817"><ele>236.62</ele><time>2026-09-02T21:55:36Z</time></trkpt><trkpt lat="59.5571384858" lon="31.2661798205"><ele>236.62</ele><time>2026-09-02T21:55:37Z</time></trkpt><trkpt lat="59.5571423415" lon="31.2661699299"><ele>236.62</ele><time>2026-09-02T21:55:38Z</time></trkpt><trkpt lat="59.5571486279" lon="31.2661579438"><ele>236.62</ele><time>2026-09-02T21:55:39Z</time></trkpt><trkpt lat="59.5571523998" lon="31.2661450356"><ele>236.62</ele><time>2026-09-02T21:55:40Z</time></trkpt><trkpt lat="59.5571581833" lon="31.2661357317"><ele>237.10</ele><time>2026-09-02T21:55:41Z</time></trkpt><trkpt lat="59.5571656432" lon="31.2661238294"><ele>237.10</ele><time>2026-09-02T21:55:42Z</time></trkpt><trkpt lat="59.5571687445" lon="31.2661156990"><ele>237.58</ele><time>2026-09-02T21:55:43Z</time></trkpt><trkpt lat="59.5571737736" lon="31.2660977617"><ele>237.58</ele><time>2026-09-02T21:55:44Z</time></trkpt><trkpt lat="59.5571785513" lon="31.2660947442"><ele>237.58</ele><time>2026-09-02T21:55:45Z</time></trkpt><trkpt lat="59.5571824908" lon="31.2660895474"><ele>237.58</ele><time>2026-09-02T21:55:46Z</time></trkpt><trkpt lat="59.5571853407" lon="31.2660845183"><ele>238.06</ele><time>2026-09-02T21:55:47Z</time></trkpt><trkpt lat="59.5571872685" lon="31.2660816684"><ele>238.06</ele><time>2026-09-02T21:55:48Z</time></trkpt><trkpt lat="59.5571877714" lon="31.2660790700"><ele>238.54</ele><time>2026-09-02T21:55:49Z</time></trkpt><trkpt lat="59.5571887773" lon="31.2660782319"><ele>238.54</ele><time>2026-09-02T21:55:50Z</time></trkpt><trkpt lat="59.5571903698" lon="31.2660731189"><ele>238.54</ele><time>2026-09-02T21:55:51Z</time></trkpt><trkpt lat="59.5571883582" lon="31.2660666648"><ele>238.54</ele><time>2026-09-02T21:55:52Z</time></trkpt><trkpt lat="59.5571870171" lon="31.2660455424"><ele>238.54</ele><time>2026-09-02T21:55:53Z</time></trkpt><trkpt lat="59.5571873523" lon="31.2660347298"><ele>238.54</ele><time>2026-09-02T21:55:54Z</time></trkpt><trkpt lat="59.5571869332" lon="31.2660232466"><ele>238.06</ele><time>2026-09-02T21:55:55Z</time></trkpt><trkpt lat="59.5571883582" lon="31.2660109252"><ele>238.06</ele><time>2026-09-02T21:55:56Z</time></trkpt><trkpt lat="59.5571912918" lon="31.2660007831"><ele>238.06</ele><time>2026-09-02T21:55:57Z</time></trkpt><trkpt lat="59.5571937226" lon="31.2659899704"><ele>238.54</ele><time>2026-09-02T21:55:58Z</time></trkpt><trkpt lat="59.5571991708" lon="31.2659816723"><ele>238.54</ele><time>2026-09-02T21:55:59Z</time></trkpt><trkpt lat="59.5572058763" lon="31.2659747992"><ele>238.54</ele><time>2026-09-02T21:56:00Z</time></trkpt><trkpt lat="59.5572108217" lon="31.2659747992"><ele>239.02</ele><time>2026-09-02T21:56:01Z</time></trkpt><trkpt lat="59.5572160184" lon="31.2659748830"><ele>239.02</ele><time>2026-09-02T21:56:02Z</time></trkpt><trkpt lat="59.5572222210" lon="31.2659688480"><ele>239.02</ele><time>2026-09-02T21:56:03Z</time></trkpt><trkpt lat="59.5572267473" lon="31.2659700215"><ele>239.02</ele><time>2026-09-02T21:56:04Z</time></trkpt><trkpt lat="59.5572306868" lon="31.2659686804"><ele>239.02</ele><time>2026-09-02T21:56:05Z</time></trkpt><trkpt lat="59.5572363865" lon="31.2659732904"><ele>239.02</ele><time>2026-09-02T21:56:06Z</time></trkpt><trkpt lat="59.5572439302" lon="31.2659820914"><ele>239.02</ele><time>2026-09-02T21:56:07Z</time></trkpt><trkpt lat="59.5572506357" lon="31.2659896351"><ele>239.51</ele><time>2026-09-02T21:56:08Z</time></trkpt><trkpt lat="59.5572567545" lon="31.2659930717"><ele>239.51</ele><time>2026-09-02T21:56:09Z</time></trkpt><trkpt lat="59.5572606940" lon="31.2660012860"><ele>239.51</ele><time>2026-09-02T21:56:10Z</time></trkpt><trkpt lat="59.5572635438" lon="31.2660003640"><ele>239.51</ele><time>2026-09-02T21:56:11Z</time></trkpt><trkpt lat="59.5572689921" lon="31.2660026271"><ele>239.51</ele><time>2026-09-02T21:56:12Z</time></trkpt><trkpt lat="59.5572739374" lon="31.2660029624"><ele>239.51</ele><time>2026-09-02T21:56:13Z</time></trkpt><trkpt lat="59.5572810620" lon="31.2660080753"><ele>239.51</ele><time>2026-09-02T21:56:14Z</time></trkpt><trkpt lat="59.5572893601" lon="31.2660134397"><ele>239.99</ele><time>2026-09-02T21:56:15Z</time></trkpt><trkpt lat="59.5572954789" lon="31.2660185527"><ele>239.99</ele><time>2026-09-02T21:56:16Z</time></trkpt><trkpt lat="59.5572990831" lon="31.2660248391"><ele>239.99</ele><time>2026-09-02T21:56:17Z</time></trkpt><trkpt lat="59.5573039446" lon="31.2660304550"><ele>239.99</ele><time>2026-09-02T21:56:18Z</time></trkpt><trkpt lat="59.5573079679" lon="31.2660341430"><ele>239.99</ele><time>2026-09-02T21:56:19Z</time></trkpt><trkpt lat="59.5573145896" lon="31.2660354842"><ele>239.99</ele><time>2026-09-02T21:56:20Z</time></trkpt><trkpt lat="59.5573274978" lon="31.2660312932"><ele>239.99</ele><time>2026-09-02T21:56:21Z</time></trkpt><trkpt lat="59.5573339518" lon="31.2660252582"><ele>239.99</ele><time>2026-09-02T21:56:22Z</time></trkpt><trkpt lat="59.5573448483" lon="31.2660241686"><ele>239.99</ele><time>2026-09-02T21:56:23Z</time></trkpt><trkpt lat="59.5573497936" lon="31.2660184689"><ele>239.99</ele><time>2026-09-02T21:56:24Z</time></trkpt><trkpt lat="59.5573520567" lon="31.2660133559"><ele>239.99</ele><time>2026-09-02T21:56:25Z</time></trkpt><trkpt lat="59.5573557448" lon="31.2660052255"><ele>239.99</ele><time>2026-09-02T21:56:26Z</time></trkpt><trkpt lat="59.5573570859" lon="31.2659935746"><ele>239.99</ele><time>2026-09-02T21:56:27Z</time></trkpt><trkpt lat="59.5573604386" lon="31.2659815885"><ele>240.47</ele><time>2026-09-02T21:56:28Z</time></trkpt><trkpt lat="59.5573654678" lon="31.2659707759"><ele>240.47</ele><time>2026-09-02T21:56:29Z</time></trkpt><trkpt lat="59.5573687367" lon="31.2659575325"><ele>240.47</ele><time>2026-09-02T21:56:30Z</time></trkpt><trkpt lat="59.5573747717" lon="31.2659502402"><ele>240.47</ele><time>2026-09-02T21:56:31Z</time></trkpt><trkpt lat="59.5573775377" lon="31.2659445405"><ele>240.47</ele><time>2026-09-02T21:56:32Z</time></trkpt><trkpt lat="59.5573703293" lon="31.2659386732"><ele>240.47</ele><time>2026-09-02T21:56:33Z</time></trkpt><trkpt lat="59.5573668927" lon="31.2659291178"><ele>240.47</ele><time>2026-09-02T21:56:34Z</time></trkpt><trkpt lat="59.5573687367" lon="31.2659191433"><ele>240.47</ele><time>2026-09-02T21:56:35Z</time></trkpt><trkpt lat="59.5573710836" lon="31.2659099232"><ele>240.47</ele><time>2026-09-02T21:56:36Z</time></trkpt><trkpt lat="59.5573707484" lon="31.2659009546"><ele>240.47</ele><time>2026-09-02T21:56:37Z</time></trkpt><trkpt lat="59.5573694911" lon="31.2659042235"><ele>240.47</ele><time>2026-09-02T21:56:38Z</time></trkpt><trkpt lat="59.5573672280" lon="31.2659043912"><ele>240.47</ele><time>2026-09-02T21:56:39Z</time></trkpt><trkpt lat="59.5573651325" lon="31.2659010384"><ele>240.47</ele><time>2026-09-02T21:56:40Z</time></trkpt><trkpt lat="59.5573634561" lon="31.2658992782"><ele>240.47</ele><time>2026-09-02T21:56:41Z</time></trkpt><trkpt lat="59.5573629532" lon="31.2658946682"><ele>240.47</ele><time>2026-09-02T21:56:42Z</time></trkpt><trkpt lat="59.5573613606" lon="31.2658834364"><ele>240.47</ele><time>2026-09-02T21:56:43Z</time></trkpt><trkpt lat="59.5573614445" lon="31.2658754736"><ele>240.47</ele><time>2026-09-02T21:56:44Z</time></trkpt><trkpt lat="59.5573612768" lon="31.2658645771"><ele>240.47</ele><time>2026-09-02T21:56:45Z</time></trkpt><trkpt lat="59.5573587622" lon="31.2658528425"><ele>239.99</ele><time>2026-09-02T21:56:46Z</time></trkpt><trkpt lat="59.5573609415" lon="31.2658421975"><ele>239.99</ele><time>2026-09-02T21:56:47Z</time></trkpt><trkpt lat="59.5573597681" lon="31.2658313848"><ele>239.99</ele><time>2026-09-02T21:56:48Z</time></trkpt><trkpt lat="59.5573595166" lon="31.2658114359"><ele>239.99</ele><time>2026-09-02T21:56:49Z</time></trkpt><trkpt lat="59.5573600195" lon="31.2657969352"><ele>239.99</ele><time>2026-09-02T21:56:50Z</time></trkpt><trkpt lat="59.5573550742" lon="31.2657819316"><ele>239.99</ele><time>2026-09-02T21:56:51Z</time></trkpt><trkpt lat="59.5573575888" lon="31.2657660898"><ele>239.99</ele><time>2026-09-02T21:56:52Z</time></trkpt><trkpt lat="59.5573591813" lon="31.2657509185"><ele>239.99</ele><time>2026-09-02T21:56:53Z</time></trkpt><trkpt lat="59.5573603548" lon="31.2657310534"><ele>239.99</ele><time>2026-09-02T21:56:54Z</time></trkpt><trkpt lat="59.5573582593" lon="31.2657130323"><ele>239.99</ele><time>2026-09-02T21:56:55Z</time></trkpt><trkpt lat="59.5573553257" lon="31.2656984478"><ele>239.99</ele><time>2026-09-02T21:56:56Z</time></trkpt><trkpt lat="59.5573515538" lon="31.2656798400"><ele>239.99</ele><time>2026-09-02T21:56:57Z</time></trkpt><trkpt lat="59.5573527273" lon="31.2656593882"><ele>239.99</ele><time>2026-09-02T21:56:58Z</time></trkpt><trkpt lat="59.5573535655" lon="31.2656374276"><ele>239.99</ele><time>2026-09-02T21:56:59Z</time></trkpt><trkpt lat="59.5573483687" lon="31.2656153832"><ele>239.99</ele><time>2026-09-02T21:57:00Z</time></trkpt><trkpt lat="59.5573465247" lon="31.2655996252"><ele>239.99</ele><time>2026-09-02T21:57:01Z</time></trkpt><trkpt lat="59.5573423337" lon="31.2655746471"><ele>239.99</ele><time>2026-09-02T21:57:02Z</time></trkpt><trkpt lat="59.5573410764" lon="31.2655612361"><ele>239.99</ele><time>2026-09-02T21:57:03Z</time></trkpt><trkpt lat="59.5573398191" lon="31.2655517645"><ele>239.99</ele><time>2026-09-02T21:57:04Z</time></trkpt><trkpt lat="59.5573447645" lon="31.2655359227"><ele>239.99</ele><time>2026-09-02T21:57:05Z</time></trkpt><trkpt lat="59.5573395677" lon="31.2655255292"><ele>239.99</ele><time>2026-09-02T21:57:06Z</time></trkpt><trkpt lat="59.5573332813" lon="31.2655165605"><ele>239.99</ele><time>2026-09-02T21:57:07Z</time></trkpt><trkpt lat="59.5573285874" lon="31.2655033171"><ele>239.99</ele><time>2026-09-02T21:57:08Z</time></trkpt><trkpt lat="59.5573261566" lon="31.2654924206"><ele>239.99</ele><time>2026-09-02T21:57:09Z</time></trkpt><trkpt lat="59.5573239774" lon="31.2654961925"><ele>239.99</ele><time>2026-09-02T21:57:10Z</time></trkpt><trkpt lat="59.5573256537" lon="31.2655017246"><ele>239.99</ele><time>2026-09-02T21:57:11Z</time></trkpt><trkpt lat="59.5573370531" lon="31.2655121181"><ele>239.99</ele><time>2026-09-02T21:57:12Z</time></trkpt><trkpt lat="59.5573419984" lon="31.2655304745"><ele>239.99</ele><time>2026-09-02T21:57:13Z</time></trkpt><trkpt lat="59.5573482849" lon="31.2655453943"><ele>239.99</ele><time>2026-09-02T21:57:14Z</time></trkpt><trkpt lat="59.5573547389" lon="31.2655559555"><ele>239.51</ele><time>2026-09-02T21:57:15Z</time></trkpt><trkpt lat="59.5573595166" lon="31.2655644212"><ele>239.51</ele><time>2026-09-02T21:57:16Z</time></trkpt><trkpt lat="59.5573647972" lon="31.2655655947"><ele>239.51</ele><time>2026-09-02T21:57:17Z</time></trkpt><trkpt lat="59.5573667251" lon="31.2655678578"><ele>239.51</ele><time>2026-09-02T21:57:18Z</time></trkpt><trkpt lat="59.5573713351" lon="31.2655690312"><ele>239.51</ele><time>2026-09-02T21:57:19Z</time></trkpt><trkpt lat="59.5573747717" lon="31.2655672710"><ele>239.51</ele><time>2026-09-02T21:57:20Z</time></trkpt><trkpt lat="59.5573747717" lon="31.2655680254"><ele>239.51</ele><time>2026-09-02T21:57:21Z</time></trkpt><trkpt lat="59.5573756937" lon="31.2655654270"><ele>239.51</ele><time>2026-09-02T21:57:22Z</time></trkpt><trkpt lat="59.5573759452" lon="31.2655593920"><ele>239.51</ele><time>2026-09-02T21:57:23Z</time></trkpt><trkpt lat="59.5573760290" lon="31.2655549496"><ele>239.51</ele><time>2026-09-02T21:57:24Z</time></trkpt><trkpt lat="59.5573775377" lon="31.2655510940"><ele>239.51</ele><time>2026-09-02T21:57:25Z</time></trkpt><trkpt lat="59.5573804714" lon="31.2655498367"><ele>239.51</ele><time>2026-09-02T21:57:26Z</time></trkpt><trkpt lat="59.5573876798" lon="31.2655487470"><ele>239.51</ele><time>2026-09-02T21:57:27Z</time></trkpt><trkpt lat="59.5573927928" lon="31.2655480765"><ele>239.51</ele><time>2026-09-02T21:57:28Z</time></trkpt><trkpt lat="59.5573960617" lon="31.2655477412"><ele>239.51</ele><time>2026-09-02T21:57:29Z</time></trkpt><trkpt lat="59.5574044436" lon="31.2655447237"><ele>239.51</ele><time>2026-09-02T21:57:30Z</time></trkpt><trkpt lat="59.5574087184" lon="31.2655398622"><ele>239.99</ele><time>2026-09-02T21:57:31Z</time></trkpt><trkpt lat="59.5574117359" lon="31.2655389402"><ele>239.99</ele><time>2026-09-02T21:57:32Z</time></trkpt><trkpt lat="59.5574126579" lon="31.2655356713"><ele>239.99</ele><time>2026-09-02T21:57:33Z</time></trkpt><trkpt lat="59.5574145857" lon="31.2655345816"><ele>239.99</ele><time>2026-09-02T21:57:34Z</time></trkpt><trkpt lat="59.5574152563" lon="31.2655313965"><ele>239.99</ele><time>2026-09-02T21:57:35Z</time></trkpt><trkpt lat="59.5574168488" lon="31.2655328214"><ele>239.99</ele><time>2026-09-02T21:57:36Z</time></trkpt><trkpt lat="59.5574175194" lon="31.2655328214"><ele>239.99</ele><time>2026-09-02T21:57:37Z</time></trkpt><trkpt lat="59.5574200340" lon="31.2655352522"><ele>239.99</ele><time>2026-09-02T21:57:38Z</time></trkpt><trkpt lat="59.5574240573" lon="31.2655353360"><ele>239.99</ele><time>2026-09-02T21:57:39Z</time></trkpt><trkpt lat="59.5574265718" lon="31.2655319832"><ele>239.51</ele><time>2026-09-02T21:57:40Z</time></trkpt><trkpt lat="59.5574314333" lon="31.2655302230"><ele>239.51</ele><time>2026-09-02T21:57:41Z</time></trkpt><trkpt lat="59.5574353728" lon="31.2655292172"><ele>239.51</ele><time>2026-09-02T21:57:42Z</time></trkpt><trkpt lat="59.5574387256" lon="31.2655277923"><ele>239.51</ele><time>2026-09-02T21:57:43Z</time></trkpt><trkpt lat="59.5574442577" lon="31.2655238528"><ele>239.51</ele><time>2026-09-02T21:57:44Z</time></trkpt><trkpt lat="59.5574453473" lon="31.2655249424"><ele>239.51</ele><time>2026-09-02T21:57:45Z</time></trkpt><trkpt lat="59.5574482810" lon="31.2655256968"><ele>239.51</ele><time>2026-09-02T21:57:46Z</time></trkpt><trkpt lat="59.5574524719" lon="31.2655297201"><ele>239.51</ele><time>2026-09-02T21:57:47Z</time></trkpt><trkpt lat="59.5574562438" lon="31.2655328214"><ele>239.51</ele><time>2026-09-02T21:57:48Z</time></trkpt><trkpt lat="59.5574594289" lon="31.2655357551"><ele>239.51</ele><time>2026-09-02T21:57:49Z</time></trkpt><trkpt lat="59.5574615244" lon="31.2655441370"><ele>239.51</ele><time>2026-09-02T21:57:50Z</time></trkpt><trkpt lat="59.5574670564" lon="31.2655519322"><ele>239.51</ele><time>2026-09-02T21:57:51Z</time></trkpt><trkpt lat="59.5574707445" lon="31.2655561231"><ele>239.99</ele><time>2026-09-02T21:57:52Z</time></trkpt><trkpt lat="59.5574751869" lon="31.2655623257"><ele>239.99</ele><time>2026-09-02T21:57:53Z</time></trkpt><trkpt lat="59.5574822277" lon="31.2655669358"><ele>239.99</ele><time>2026-09-02T21:57:54Z</time></trkpt><trkpt lat="59.5574898552" lon="31.2655714620"><ele>239.99</ele><time>2026-09-02T21:57:55Z</time></trkpt><trkpt lat="59.5574971475" lon="31.2655770779"><ele>239.99</ele><time>2026-09-02T21:57:56Z</time></trkpt><trkpt lat="59.5575042721" lon="31.2655828614"><ele>239.99</ele><time>2026-09-02T21:57:57Z</time></trkpt><trkpt lat="59.5575124864" lon="31.2655899860"><ele>240.47</ele><time>2026-09-02T21:57:58Z</time></trkpt><trkpt lat="59.5575195272" lon="31.2655949313"><ele>240.47</ele><time>2026-09-02T21:57:59Z</time></trkpt><trkpt lat="59.5575267356" lon="31.2655992899"><ele>240.47</ele><time>2026-09-02T21:58:00Z</time></trkpt><trkpt lat="59.5575336926" lon="31.2656025589"><ele>240.47</ele><time>2026-09-02T21:58:01Z</time></trkpt><trkpt lat="59.5575412363" lon="31.2656077556"><ele>240.47</ele><time>2026-09-02T21:58:02Z</time></trkpt><trkpt lat="59.5575459301" lon="31.2656133715"><ele>240.47</ele><time>2026-09-02T21:58:03Z</time></trkpt><trkpt lat="59.5575546473" lon="31.2656155508"><ele>240.47</ele><time>2026-09-02T21:58:04Z</time></trkpt><trkpt lat="59.5575612690" lon="31.2656177301"><ele>240.47</ele><time>2026-09-02T21:58:05Z</time></trkpt><trkpt lat="59.5575691480" lon="31.2656210829"><ele>240.47</ele><time>2026-09-02T21:58:06Z</time></trkpt><trkpt lat="59.5575772785" lon="31.2656211667"><ele>240.47</ele><time>2026-09-02T21:58:07Z</time></trkpt><trkpt lat="59.5575835649" lon="31.2656193227"><ele>240.47</ele><time>2026-09-02T21:58:08Z</time></trkpt><trkpt lat="59.5575904381" lon="31.2656147964"><ele>240.47</ele><time>2026-09-02T21:58:09Z</time></trkpt><trkpt lat="59.5575977303" lon="31.2656092644"><ele>240.47</ele><time>2026-09-02T21:58:10Z</time></trkpt><trkpt lat="59.5576051902" lon="31.2656000443"><ele>240.47</ele><time>2026-09-02T21:58:11Z</time></trkpt><trkpt lat="59.5576145779" lon="31.2655878905"><ele>240.47</ele><time>2026-09-02T21:58:12Z</time></trkpt><trkpt lat="59.5576243848" lon="31.2655732222"><ele>240.47</ele><time>2026-09-02T21:58:13Z</time></trkpt><trkpt lat="59.5576293301" lon="31.2655596435"><ele>240.47</ele><time>2026-09-02T21:58:14Z</time></trkpt><trkpt lat="59.5576317608" lon="31.2655487470"><ele>240.47</ele><time>2026-09-02T21:58:15Z</time></trkpt><trkpt lat="59.5576328505" lon="31.2655394431"><ele>240.47</ele><time>2026-09-02T21:58:16Z</time></trkpt><trkpt lat="59.5576367900" lon="31.2655284628"><ele>240.47</ele><time>2026-09-02T21:58:17Z</time></trkpt><trkpt lat="59.5576407295" lon="31.2655185722"><ele>240.47</ele><time>2026-09-02T21:58:18Z</time></trkpt><trkpt lat="59.5576407295" lon="31.2655026466"><ele>240.47</ele><time>2026-09-02T21:58:19Z</time></trkpt><trkpt lat="59.5576403942" lon="31.2654860504"><ele>240.47</ele><time>2026-09-02T21:58:20Z</time></trkpt><trkpt lat="59.5576412324" lon="31.2654676940"><ele>240.47</ele><time>2026-09-02T21:58:21Z</time></trkpt><trkpt lat="59.5576406457" lon="31.2654431351"><ele>240.47</ele><time>2026-09-02T21:58:22Z</time></trkpt><trkpt lat="59.5576433279" lon="31.2654161453"><ele>240.47</ele><time>2026-09-02T21:58:23Z</time></trkpt><trkpt lat="59.5576454233" lon="31.2653952744"><ele>240.47</ele><time>2026-09-02T21:58:24Z</time></trkpt><trkpt lat="59.5576460939" lon="31.2653771695"><ele>240.47</ele><time>2026-09-02T21:58:25Z</time></trkpt><trkpt lat="59.5576482732" lon="31.2653573882"><ele>240.47</ele><time>2026-09-02T21:58:26Z</time></trkpt><trkpt lat="59.5576518774" lon="31.2653377745"><ele>240.47</ele><time>2026-09-02T21:58:27Z</time></trkpt><trkpt lat="59.5576593373" lon="31.2653173227"><ele>240.47</ele><time>2026-09-02T21:58:28Z</time></trkpt><trkpt lat="59.5576623548" lon="31.2653010618"><ele>240.47</ele><time>2026-09-02T21:58:29Z</time></trkpt><trkpt lat="59.5576657914" lon="31.2652871478"><ele>240.47</ele><time>2026-09-02T21:58:30Z</time></trkpt><trkpt lat="59.5576691441" lon="31.2652739882"><ele>240.47</ele><time>2026-09-02T21:58:31Z</time></trkpt><trkpt lat="59.5576717425" lon="31.2652597390"><ele>240.47</ele><time>2026-09-02T21:58:32Z</time></trkpt><trkpt lat="59.5576740894" lon="31.2652398739"><ele>240.47</ele><time>2026-09-02T21:58:33Z</time></trkpt><trkpt lat="59.5576769393" lon="31.2652194221"><ele>240.47</ele><time>2026-09-02T21:58:34Z</time></trkpt><trkpt lat="59.5576849859" lon="31.2652039994"><ele>240.95</ele><time>2026-09-02T21:58:35Z</time></trkpt><trkpt lat="59.5576921944" lon="31.2651924323"><ele>240.95</ele><time>2026-09-02T21:58:36Z</time></trkpt><trkpt lat="59.5577026717" lon="31.2651703879"><ele>240.95</ele><time>2026-09-02T21:58:37Z</time></trkpt><trkpt lat="59.5577082876" lon="31.2651515286"><ele>240.95</ele><time>2026-09-02T21:58:38Z</time></trkpt><trkpt lat="59.5577129815" lon="31.2651354354"><ele>240.95</ele><time>2026-09-02T21:58:39Z</time></trkpt><trkpt lat="59.5577191841" lon="31.2651234493"><ele>240.95</ele><time>2026-09-02T21:58:40Z</time></trkpt><trkpt lat="59.5577272307" lon="31.2651155703"><ele>240.95</ele><time>2026-09-02T21:58:41Z</time></trkpt><trkpt lat="59.5577311702" lon="31.2651022431"><ele>240.95</ele><time>2026-09-02T21:58:42Z</time></trkpt><trkpt lat="59.5577354450" lon="31.2650916819"><ele>240.95</ele><time>2026-09-02T21:58:43Z</time></trkpt><trkpt lat="59.5577427372" lon="31.2650847249"><ele>240.47</ele><time>2026-09-02T21:58:44Z</time></trkpt><trkpt lat="59.5577478502" lon="31.2650732417"><ele>240.47</ele><time>2026-09-02T21:58:45Z</time></trkpt><trkpt lat="59.5577566512" lon="31.2650640216"><ele>240.47</ele><time>2026-09-02T21:58:46Z</time></trkpt><trkpt lat="59.5577646978" lon="31.2650576513"><ele>240.47</ele><time>2026-09-02T21:58:47Z</time></trkpt><trkpt lat="59.5577709842" lon="31.2650509458"><ele>240.47</ele><time>2026-09-02T21:58:48Z</time></trkpt><trkpt lat="59.5577774383" lon="31.2650394626"><ele>240.47</ele><time>2026-09-02T21:58:49Z</time></trkpt><trkpt lat="59.5577827189" lon="31.2650291529"><ele>240.47</ele><time>2026-09-02T21:58:50Z</time></trkpt><trkpt lat="59.5577856526" lon="31.2650158256"><ele>240.47</ele><time>2026-09-02T21:58:51Z</time></trkpt><trkpt lat="59.5577911846" lon="31.2650024984"><ele>240.47</ele><time>2026-09-02T21:58:52Z</time></trkpt><trkpt lat="59.5577955432" lon="31.2649917696"><ele>240.47</ele><time>2026-09-02T21:58:53Z</time></trkpt><trkpt lat="59.5578043442" lon="31.2649833877"><ele>240.47</ele><time>2026-09-02T21:58:54Z</time></trkpt><trkpt lat="59.5578112174" lon="31.2649759278"><ele>240.47</ele><time>2026-09-02T21:58:55Z</time></trkpt><trkpt lat="59.5578167494" lon="31.2649662886"><ele>240.95</ele><time>2026-09-02T21:58:56Z</time></trkpt><trkpt lat="59.5578212757" lon="31.2649595831"><ele>240.95</ele><time>2026-09-02T21:58:57Z</time></trkpt><trkpt lat="59.5578241255" lon="31.2649564818"><ele>240.95</ele><time>2026-09-02T21:58:58Z</time></trkpt><trkpt lat="59.5578327589" lon="31.2649509497"><ele>240.95</ele><time>2026-09-02T21:58:59Z</time></trkpt><trkpt lat="59.5578451641" lon="31.2649418972"><ele>240.95</ele><time>2026-09-02T21:59:00Z</time></trkpt><trkpt lat="59.5578530431" lon="31.2649425678"><ele>240.95</ele><time>2026-09-02T21:59:01Z</time></trkpt><trkpt lat="59.5578609221" lon="31.2649422325"><ele>240.47</ele><time>2026-09-02T21:59:02Z</time></trkpt><trkpt lat="59.5578683820" lon="31.2649404723"><ele>240.47</ele><time>2026-09-02T21:59:03Z</time></trkpt><trkpt lat="59.5578779373" lon="31.2649389636"><ele>240.47</ele><time>2026-09-02T21:59:04Z</time></trkpt><trkpt lat="59.5578887500" lon="31.2649442442"><ele>240.47</ele><time>2026-09-02T21:59:05Z</time></trkpt><trkpt lat="59.5579003170" lon="31.2649442442"><ele>240.47</ele><time>2026-09-02T21:59:06Z</time></trkpt><trkpt lat="59.5579100400" lon="31.2649434898"><ele>240.47</ele><time>2026-09-02T21:59:07Z</time></trkpt><trkpt lat="59.5579204336" lon="31.2649439927"><ele>240.47</ele><time>2026-09-02T21:59:08Z</time></trkpt><trkpt lat="59.5579261333" lon="31.2649413943"><ele>240.47</ele><time>2026-09-02T21:59:09Z</time></trkpt><trkpt lat="59.5579376165" lon="31.2649361975"><ele>240.47</ele><time>2026-09-02T21:59:10Z</time></trkpt><trkpt lat="59.5579464175" lon="31.2649281509"><ele>240.47</ele><time>2026-09-02T21:59:11Z</time></trkpt><trkpt lat="59.5579544641" lon="31.2649243791"><ele>240.47</ele><time>2026-09-02T21:59:12Z</time></trkpt><trkpt lat="59.5579623431" lon="31.2649232894"><ele>240.47</ele><time>2026-09-02T21:59:13Z</time></trkpt><trkpt lat="59.5579784364" lon="31.2649277318"><ele>240.47</ele><time>2026-09-02T21:59:14Z</time></trkpt><trkpt lat="59.5579897519" lon="31.2649311684"><ele>240.47</ele><time>2026-09-02T21:59:15Z</time></trkpt><trkpt lat="59.5579976309" lon="31.2649300788"><ele>240.47</ele><time>2026-09-02T21:59:16Z</time></trkpt><trkpt lat="59.5580035821" lon="31.2649386283"><ele>240.47</ele><time>2026-09-02T21:59:17Z</time></trkpt><trkpt lat="59.5580095332" lon="31.2649415620"><ele>240.47</ele><time>2026-09-02T21:59:18Z</time></trkpt><trkpt lat="59.5580156520" lon="31.2649441604"><ele>240.47</ele><time>2026-09-02T21:59:19Z</time></trkpt><trkpt lat="59.5580242854" lon="31.2649459206"><ele>240.47</ele><time>2026-09-02T21:59:20Z</time></trkpt><trkpt lat="59.5580309909" lon="31.2649403885"><ele>240.47</ele><time>2026-09-02T21:59:21Z</time></trkpt><trkpt lat="59.5580364391" lon="31.2649359461"><ele>240.47</ele><time>2026-09-02T21:59:22Z</time></trkpt><trkpt lat="59.5580404624" lon="31.2649311684"><ele>240.47</ele><time>2026-09-02T21:59:23Z</time></trkpt><trkpt lat="59.5580458269" lon="31.2649294920"><ele>240.47</ele><time>2026-09-02T21:59:24Z</time></trkpt><trkpt lat="59.5580492634" lon="31.2649293244"><ele>240.47</ele><time>2026-09-02T21:59:25Z</time></trkpt><trkpt lat="59.5580529515" lon="31.2649267260"><ele>240.47</ele><time>2026-09-02T21:59:26Z</time></trkpt><trkpt lat="59.5580582321" lon="31.2649224512"><ele>240.47</ele><time>2026-09-02T21:59:27Z</time></trkpt><trkpt lat="59.5580635965" lon="31.2649187632"><ele>240.47</ele><time>2026-09-02T21:59:28Z</time></trkpt><trkpt lat="59.5580657758" lon="31.2649164163"><ele>240.47</ele><time>2026-09-02T21:59:29Z</time></trkpt><trkpt lat="59.5580688771" lon="31.2649091240"><ele>240.47</ele><time>2026-09-02T21:59:30Z</time></trkpt><trkpt lat="59.5580728166" lon="31.2648957968"><ele>240.47</ele><time>2026-09-02T21:59:31Z</time></trkpt><trkpt lat="59.5580767561" lon="31.2648869958"><ele>240.47</ele><time>2026-09-02T21:59:32Z</time></trkpt><trkpt lat="59.5580774266" lon="31.2648758478"><ele>240.47</ele><time>2026-09-02T21:59:33Z</time></trkpt><trkpt lat="59.5580797736" lon="31.2648603413"><ele>240.47</ele><time>2026-09-02T21:59:34Z</time></trkpt><trkpt lat="59.5580825396" lon="31.2648490258"><ele>240.47</ele><time>2026-09-02T21:59:35Z</time></trkpt><trkpt lat="59.5580836292" lon="31.2648395542"><ele>240.47</ele><time>2026-09-02T21:59:36Z</time></trkpt><trkpt lat="59.5580848865" lon="31.2648226228"><ele>240.47</ele><time>2026-09-02T21:59:37Z</time></trkpt><trkpt lat="59.5580866467" lon="31.2648048531"><ele>240.47</ele><time>2026-09-02T21:59:38Z</time></trkpt><trkpt lat="59.5580863953" lon="31.2647859938"><ele>240.47</ele><time>2026-09-02T21:59:39Z</time></trkpt><trkpt lat="59.5580857247" lon="31.2647703197"><ele>240.47</ele><time>2026-09-02T21:59:40Z</time></trkpt><trkpt lat="59.5580832940" lon="31.2647507899"><ele>240.47</ele><time>2026-09-02T21:59:41Z</time></trkpt><trkpt lat="59.5580839645" lon="31.2647310924"><ele>240.47</ele><time>2026-09-02T21:59:42Z</time></trkpt><trkpt lat="59.5580847189" lon="31.2647173461"><ele>240.47</ele><time>2026-09-02T21:59:43Z</time></trkpt><trkpt lat="59.5580832940" lon="31.2647058628"><ele>240.47</ele><time>2026-09-02T21:59:44Z</time></trkpt><trkpt lat="59.5580823720" lon="31.2646910269"><ele>240.47</ele><time>2026-09-02T21:59:45Z</time></trkpt><trkpt lat="59.5580825396" lon="31.2646734249"><ele>240.47</ele><time>2026-09-02T21:59:46Z</time></trkpt><trkpt lat="59.5580805279" lon="31.2646580860"><ele>240.47</ele><time>2026-09-02T21:59:47Z</time></trkpt><trkpt lat="59.5580803603" lon="31.2646403164"><ele>240.47</ele><time>2026-09-02T21:59:48Z</time></trkpt><trkpt lat="59.5580772590" lon="31.2646261510"><ele>240.47</ele><time>2026-09-02T21:59:49Z</time></trkpt><trkpt lat="59.5580748282" lon="31.2646121532"><ele>240.47</ele><time>2026-09-02T21:59:50Z</time></trkpt><trkpt lat="59.5580734871" lon="31.2645948865"><ele>240.47</ele><time>2026-09-02T21:59:51Z</time></trkpt><trkpt lat="59.5580747444" lon="31.2645802181"><ele>240.47</ele><time>2026-09-02T21:59:52Z</time></trkpt><trkpt lat="59.5580743253" lon="31.2645613588"><ele>240.47</ele><time>2026-09-02T21:59:53Z</time></trkpt><trkpt lat="59.5580803603" lon="31.2645470258"><ele>240.47</ele><time>2026-09-02T21:59:54Z</time></trkpt><trkpt lat="59.5580785163" lon="31.2645372190"><ele>240.47</ele><time>2026-09-02T21:59:55Z</time></trkpt><trkpt lat="59.5580786839" lon="31.2645256519"><ele>240.47</ele><time>2026-09-02T21:59:56Z</time></trkpt><trkpt lat="59.5580752473" lon="31.2645105645"><ele>240.47</ele><time>2026-09-02T21:59:57Z</time></trkpt><trkpt lat="59.5580732357" lon="31.2644939683"><ele>240.47</ele><time>2026-09-02T21:59:58Z</time></trkpt><trkpt lat="59.5580705535" lon="31.2644795515"><ele>240.47</ele><time>2026-09-02T21:59:59Z</time></trkpt><trkpt lat="59.5580688771" lon="31.2644622847"><ele>240.47</ele><time>2026-09-02T22:00:00Z</time></trkpt><trkpt lat="59.5580694638" lon="31.2644451857"><ele>240.95</ele><time>2026-09-02T22:00:01Z</time></trkpt><trkpt lat="59.5580695476" lon="31.2644317746"><ele>240.95</ele><time>2026-09-02T22:00:02Z</time></trkpt><trkpt lat="59.5580716431" lon="31.2644201238"><ele>240.95</ele><time>2026-09-02T22:00:03Z</time></trkpt><trkpt lat="59.5580731519" lon="31.2644019350"><ele>240.95</ele><time>2026-09-02T22:00:04Z</time></trkpt><trkpt lat="59.5580764208" lon="31.2643883564"><ele>240.95</ele><time>2026-09-02T22:00:05Z</time></trkpt><trkpt lat="59.5580755826" lon="31.2643696647"><ele>240.95</ele><time>2026-09-02T22:00:06Z</time></trkpt><trkpt lat="59.5580793545" lon="31.2643451896"><ele>240.95</ele><time>2026-09-02T22:00:07Z</time></trkpt><trkpt lat="59.5580823720" lon="31.2643339578"><ele>240.95</ele><time>2026-09-02T22:00:08Z</time></trkpt><trkpt lat="59.5580886584" lon="31.2643286772"><ele>240.95</ele><time>2026-09-02T22:00:09Z</time></trkpt><trkpt lat="59.5580936875" lon="31.2643266656"><ele>240.95</ele><time>2026-09-02T22:00:10Z</time></trkpt><trkpt lat="59.5580971241" lon="31.2643189542"><ele>240.95</ele><time>2026-09-02T22:00:11Z</time></trkpt><trkpt lat="59.5581003930" lon="31.2643146794"><ele>240.95</ele><time>2026-09-02T22:00:12Z</time></trkpt><trkpt lat="59.5581010636" lon="31.2643091474"><ele>240.95</ele><time>2026-09-02T22:00:13Z</time></trkpt><trkpt lat="59.5581069309" lon="31.2643047888"><ele>240.95</ele><time>2026-09-02T22:00:14Z</time></trkpt><trkpt lat="59.5581142232" lon="31.2642981671"><ele>240.95</ele><time>2026-09-02T22:00:15Z</time></trkpt><trkpt lat="59.5581193361" lon="31.2642948981"><ele>240.95</ele><time>2026-09-02T22:00:16Z</time></trkpt><trkpt lat="59.5581305679" lon="31.2642913777"><ele>240.95</ele><time>2026-09-02T22:00:17Z</time></trkpt><trkpt lat="59.5581392851" lon="31.2642820738"><ele>240.95</ele><time>2026-09-02T22:00:18Z</time></trkpt><trkpt lat="59.5581461582" lon="31.2642717641"><ele>240.95</ele><time>2026-09-02T22:00:19Z</time></trkpt><trkpt lat="59.5581524447" lon="31.2642586883"><ele>240.95</ele><time>2026-09-02T22:00:20Z</time></trkpt><trkpt lat="59.5581597369" lon="31.2642467860"><ele>240.95</ele><time>2026-09-02T22:00:21Z</time></trkpt><trkpt lat="59.5581665263" lon="31.2642388232"><ele>240.95</ele><time>2026-09-02T22:00:22Z</time></trkpt><trkpt lat="59.5581746567" lon="31.2642346323"><ele>240.95</ele><time>2026-09-02T22:00:23Z</time></trkpt><trkpt lat="59.5581833739" lon="31.2642310280"><ele>240.95</ele><time>2026-09-02T22:00:24Z</time></trkpt><trkpt lat="59.5581947733" lon="31.2642262504"><ele>240.95</ele><time>2026-09-02T22:00:25Z</time></trkpt><trkpt lat="59.5582073461" lon="31.2642237358"><ele>240.95</ele><time>2026-09-02T22:00:26Z</time></trkpt><trkpt lat="59.5582186617" lon="31.2642235681"><ele>240.95</ele><time>2026-09-02T22:00:27Z</time></trkpt><trkpt lat="59.5582292229" lon="31.2642210536"><ele>240.95</ele><time>2026-09-02T22:00:28Z</time></trkpt><trkpt lat="59.5582367666" lon="31.2642191257"><ele>240.95</ele><time>2026-09-02T22:00:29Z</time></trkpt><trkpt lat="59.5582434721" lon="31.2642187905"><ele>240.95</ele><time>2026-09-02T22:00:30Z</time></trkpt><trkpt lat="59.5582483336" lon="31.2642178684"><ele>240.95</ele><time>2026-09-02T22:00:31Z</time></trkpt><trkpt lat="59.5582550392" lon="31.2642128393"><ele>240.95</ele><time>2026-09-02T22:00:32Z</time></trkpt><trkpt lat="59.5582597330" lon="31.2642103247"><ele>240.95</ele><time>2026-09-02T22:00:33Z</time></trkpt><trkpt lat="59.5582641754" lon="31.2642089836"><ele>240.95</ele><time>2026-09-02T22:00:34Z</time></trkpt><trkpt lat="59.5582716353" lon="31.2642092351"><ele>240.95</ele><time>2026-09-02T22:00:35Z</time></trkpt><trkpt lat="59.5582767483" lon="31.2642091513"><ele>240.95</ele><time>2026-09-02T22:00:36Z</time></trkpt><trkpt lat="59.5582837891" lon="31.2642066367"><ele>240.95</ele><time>2026-09-02T22:00:37Z</time></trkpt><trkpt lat="59.5582859684" lon="31.2642025296"><ele>240.95</ele><time>2026-09-02T22:00:38Z</time></trkpt><trkpt lat="59.5582874771" lon="31.2641969975"><ele>240.95</ele><time>2026-09-02T22:00:39Z</time></trkpt><trkpt lat="59.5582911652" lon="31.2641935609"><ele>240.95</ele><time>2026-09-02T22:00:40Z</time></trkpt><trkpt lat="59.5582941826" lon="31.2641944829"><ele>240.95</ele><time>2026-09-02T22:00:41Z</time></trkpt><trkpt lat="59.5582961943" lon="31.2641921360"><ele>240.47</ele><time>2026-09-02T22:00:42Z</time></trkpt><trkpt lat="59.5582959428" lon="31.2641922198"><ele>240.47</ele><time>2026-09-02T22:00:43Z</time></trkpt><trkpt lat="59.5582973678" lon="31.2641914655"><ele>240.47</ele><time>2026-09-02T22:00:44Z</time></trkpt><trkpt lat="59.5582973678" lon="31.2641914655"><ele>240.47</ele><time>2026-09-02T22:00:45Z</time></trkpt><trkpt lat="59.5582972839" lon="31.2641914655"><ele>240.47</ele><time>2026-09-02T22:00:46Z</time></trkpt><trkpt lat="59.5582972839" lon="31.2641914655"><ele>240.47</ele><time>2026-09-02T22:00:47Z</time></trkpt><trkpt lat="59.5582967810" lon="31.2641914655"><ele>240.47</ele><time>2026-09-02T22:00:48Z</time></trkpt><trkpt lat="59.5582953561" lon="31.2641894538"><ele>240.47</ele><time>2026-09-02T22:00:49Z</time></trkpt><trkpt lat="59.5582943503" lon="31.2641886994"><ele>240.47</ele><time>2026-09-02T22:00:50Z</time></trkpt><trkpt lat="59.5582948532" lon="31.2641885318"><ele>240.47</ele><time>2026-09-02T22:00:51Z</time></trkpt><trkpt lat="59.5582940988" lon="31.2641881965"><ele>240.47</ele><time>2026-09-02T22:00:52Z</time></trkpt><trkpt lat="59.5582952723" lon="31.2641894538"><ele>240.47</ele><time>2026-09-02T22:00:53Z</time></trkpt><trkpt lat="59.5582936797" lon="31.2641880289"><ele>240.47</ele><time>2026-09-02T22:00:54Z</time></trkpt><trkpt lat="59.5582926739" lon="31.2641892862"><ele>240.47</ele><time>2026-09-02T22:00:55Z</time></trkpt><trkpt lat="59.5582930930" lon="31.2641893700"><ele>240.47</ele><time>2026-09-02T22:00:56Z</time></trkpt><trkpt lat="59.5582934283" lon="31.2641891185"><ele>240.95</ele><time>2026-09-02T22:00:57Z</time></trkpt><trkpt lat="59.5582950208" lon="31.2641882803"><ele>240.95</ele><time>2026-09-02T22:00:58Z</time></trkpt><trkpt lat="59.5582959428" lon="31.2641872745"><ele>240.95</ele><time>2026-09-02T22:00:59Z</time></trkpt><trkpt lat="59.5582965296" lon="31.2641867716"><ele>240.95</ele><time>2026-09-02T22:01:00Z</time></trkpt><trkpt lat="59.5582947694" lon="31.2641868554"><ele>240.95</ele><time>2026-09-02T22:01:01Z</time></trkpt><trkpt lat="59.5582944341" lon="31.2641859334"><ele>240.95</ele><time>2026-09-02T22:01:02Z</time></trkpt><trkpt lat="59.5582948532" lon="31.2641861849"><ele>240.95</ele><time>2026-09-02T22:01:03Z</time></trkpt><trkpt lat="59.5582949370" lon="31.2641851790"><ele>240.95</ele><time>2026-09-02T22:01:04Z</time></trkpt><trkpt lat="59.5582959428" lon="31.2641854305"><ele>240.95</ele><time>2026-09-02T22:01:05Z</time></trkpt><trkpt lat="59.5582952723" lon="31.2641842570"><ele>240.47</ele><time>2026-09-02T22:01:06Z</time></trkpt><trkpt lat="59.5582961943" lon="31.2641850952"><ele>240.47</ele><time>2026-09-02T22:01:07Z</time></trkpt><trkpt lat="59.5582950208" lon="31.2641850952"><ele>240.47</ele><time>2026-09-02T22:01:08Z</time></trkpt><trkpt lat="59.5582952723" lon="31.2641862687"><ele>240.47</ele><time>2026-09-02T22:01:09Z</time></trkpt><trkpt lat="59.5582955237" lon="31.2641865201"><ele>240.47</ele><time>2026-09-02T22:01:10Z</time></trkpt><trkpt lat="59.5582963619" lon="31.2641862687"><ele>240.47</ele><time>2026-09-02T22:01:11Z</time></trkpt><trkpt lat="59.5582966972" lon="31.2641861849"><ele>240.47</ele><time>2026-09-02T22:01:12Z</time></trkpt><trkpt lat="59.5582963619" lon="31.2641871907"><ele>240.47</ele><time>2026-09-02T22:01:13Z</time></trkpt><trkpt lat="59.5582963619" lon="31.2641856819"><ele>240.47</ele><time>2026-09-02T22:01:14Z</time></trkpt><trkpt lat="59.5582958590" lon="31.2641837541"><ele>240.47</ele><time>2026-09-02T22:01:15Z</time></trkpt><trkpt lat="59.5582963619" lon="31.2641832512"><ele>240.47</ele><time>2026-09-02T22:01:16Z</time></trkpt><trkpt lat="59.5582974516" lon="31.2641838379"><ele>240.47</ele><time>2026-09-02T22:01:17Z</time></trkpt><trkpt lat="59.5582974516" lon="31.2641817424"><ele>240.47</ele><time>2026-09-02T22:01:18Z</time></trkpt><trkpt lat="59.5582978707" lon="31.2641830835"><ele>240.47</ele><time>2026-09-02T22:01:19Z</time></trkpt><trkpt lat="59.5582976192" lon="31.2641813233"><ele>240.47</ele><time>2026-09-02T22:01:20Z</time></trkpt><trkpt lat="59.5582973678" lon="31.2641824968"><ele>240.47</ele><time>2026-09-02T22:01:21Z</time></trkpt><trkpt lat="59.5582970325" lon="31.2641814910"><ele>240.47</ele><time>2026-09-02T22:01:22Z</time></trkpt><trkpt lat="59.5582976192" lon="31.2641827483"><ele>240.95</ele><time>2026-09-02T22:01:23Z</time></trkpt><trkpt lat="59.5582985412" lon="31.2641836703"><ele>240.95</ele><time>2026-09-02T22:01:24Z</time></trkpt><trkpt lat="59.5582994632" lon="31.2641852628"><ele>240.95</ele><time>2026-09-02T22:01:25Z</time></trkpt><trkpt lat="59.5583004691" lon="31.2641864363"><ele>240.95</ele><time>2026-09-02T22:01:26Z</time></trkpt><trkpt lat="59.5583013911" lon="31.2641871907"><ele>240.95</ele><time>2026-09-02T22:01:27Z</time></trkpt><trkpt lat="59.5583022293" lon="31.2641874421"><ele>240.95</ele><time>2026-09-02T22:01:28Z</time></trkpt><trkpt lat="59.5583034866" lon="31.2641858496"><ele>240.95</ele><time>2026-09-02T22:01:29Z</time></trkpt><trkpt lat="59.5583034866" lon="31.2641869392"><ele>240.95</ele><time>2026-09-02T22:01:30Z</time></trkpt><trkpt lat="59.5583043247" lon="31.2641860172"><ele>240.95</ele><time>2026-09-02T22:01:31Z</time></trkpt><trkpt lat="59.5583043247" lon="31.2641866878"><ele>240.95</ele><time>2026-09-02T22:01:32Z</time></trkpt><trkpt lat="59.5583046600" lon="31.2641859334"><ele>240.95</ele><time>2026-09-02T22:01:33Z</time></trkpt><trkpt lat="59.5583045762" lon="31.2641868554"><ele>240.95</ele><time>2026-09-02T22:01:34Z</time></trkpt><trkpt lat="59.5583048277" lon="31.2641856819"><ele>240.95</ele><time>2026-09-02T22:01:35Z</time></trkpt><trkpt lat="59.5583042409" lon="31.2641857658"><ele>240.95</ele><time>2026-09-02T22:01:36Z</time></trkpt><trkpt lat="59.5583049953" lon="31.2641848437"><ele>240.95</ele><time>2026-09-02T22:01:37Z</time></trkpt><trkpt lat="59.5583039895" lon="31.2641853467"><ele>240.95</ele><time>2026-09-02T22:01:38Z</time></trkpt><trkpt lat="59.5583048277" lon="31.2641855981"><ele>240.95</ele><time>2026-09-02T22:01:39Z</time></trkpt><trkpt lat="59.5583062526" lon="31.2641805690"><ele>240.95</ele><time>2026-09-02T22:01:40Z</time></trkpt><trkpt lat="59.5583067555" lon="31.2641775515"><ele>240.95</ele><time>2026-09-02T22:01:41Z</time></trkpt><trkpt lat="59.5583073422" lon="31.2641739473"><ele>240.95</ele><time>2026-09-02T22:01:42Z</time></trkpt><trkpt lat="59.5583085995" lon="31.2641712651"><ele>240.95</ele><time>2026-09-02T22:01:43Z</time></trkpt><trkpt lat="59.5583096892" lon="31.2641696725"><ele>240.95</ele><time>2026-09-02T22:01:44Z</time></trkpt><trkpt lat="59.5583104435" lon="31.2641688343"><ele>240.95</ele><time>2026-09-02T22:01:45Z</time></trkpt><trkpt lat="59.5583102759" lon="31.2641686667"><ele>240.95</ele><time>2026-09-02T22:01:46Z</time></trkpt><trkpt lat="59.5583102759" lon="31.2641670741"><ele>240.95</ele><time>2026-09-02T22:01:47Z</time></trkpt><trkpt lat="59.5583115332" lon="31.2641658168"><ele>240.95</ele><time>2026-09-02T22:01:48Z</time></trkpt><trkpt lat="59.5583106950" lon="31.2641658168"><ele>240.47</ele><time>2026-09-02T22:01:49Z</time></trkpt><trkpt lat="59.5583113655" lon="31.2641642243"><ele>240.47</ele><time>2026-09-02T22:01:50Z</time></trkpt><trkpt lat="59.5583101921" lon="31.2641626317"><ele>240.47</ele><time>2026-09-02T22:01:51Z</time></trkpt><trkpt lat="59.5583112817" lon="31.2641622964"><ele>240.47</ele><time>2026-09-02T22:01:52Z</time></trkpt><trkpt lat="59.5583106950" lon="31.2641610391"><ele>240.47</ele><time>2026-09-02T22:01:53Z</time></trkpt><trkpt lat="59.5583113655" lon="31.2641601171"><ele>240.47</ele><time>2026-09-02T22:01:54Z</time></trkpt><trkpt lat="59.5583109464" lon="31.2641586922"><ele>240.47</ele><time>2026-09-02T22:01:55Z</time></trkpt><trkpt lat="59.5583110303" lon="31.2641586922"><ele>240.47</ele><time>2026-09-02T22:01:56Z</time></trkpt><trkpt lat="59.5583107788" lon="31.2641575187"><ele>240.47</ele><time>2026-09-02T22:01:57Z</time></trkpt><trkpt lat="59.5583106950" lon="31.2641574349"><ele>240.47</ele><time>2026-09-02T22:01:58Z</time></trkpt><trkpt lat="59.5583103597" lon="31.2641568482"><ele>240.47</ele><time>2026-09-02T22:01:59Z</time></trkpt><trkpt lat="59.5583097730" lon="31.2641557585"><ele>240.47</ele><time>2026-09-02T22:02:00Z</time></trkpt><trkpt lat="59.5583101921" lon="31.2641555909"><ele>240.47</ele><time>2026-09-02T22:02:01Z</time></trkpt><trkpt lat="59.5583103597" lon="31.2641552556"><ele>240.47</ele><time>2026-09-02T22:02:02Z</time></trkpt><trkpt lat="59.5583107788" lon="31.2641552556"><ele>240.47</ele><time>2026-09-02T22:02:03Z</time></trkpt><trkpt lat="59.5583108626" lon="31.2641554233"><ele>240.47</ele><time>2026-09-02T22:02:04Z</time></trkpt><trkpt lat="59.5583114494" lon="31.2641530763"><ele>240.47</ele><time>2026-09-02T22:02:05Z</time></trkpt><trkpt lat="59.5583123714" lon="31.2641522381"><ele>240.47</ele><time>2026-09-02T22:02:06Z</time></trkpt><trkpt lat="59.5583126228" lon="31.2641506456"><ele>240.47</ele><time>2026-09-02T22:02:07Z</time></trkpt><trkpt lat="59.5583127905" lon="31.2641501427"><ele>240.47</ele><time>2026-09-02T22:02:08Z</time></trkpt><trkpt lat="59.5583124552" lon="31.2641499750"><ele>240.47</ele><time>2026-09-02T22:02:09Z</time></trkpt><trkpt lat="59.5583120361" lon="31.2641494721"><ele>240.47</ele><time>2026-09-02T22:02:10Z</time></trkpt><trkpt lat="59.5583117846" lon="31.2641488854"><ele>240.47</ele><time>2026-09-02T22:02:11Z</time></trkpt><trkpt lat="59.5583113655" lon="31.2641477957"><ele>240.47</ele><time>2026-09-02T22:02:12Z</time></trkpt><trkpt lat="59.5583112817" lon="31.2641475443"><ele>240.47</ele><time>2026-09-02T22:02:13Z</time></trkpt><trkpt lat="59.5583112817" lon="31.2641475443"><ele>240.47</ele><time>2026-09-02T22:02:14Z</time></trkpt><trkpt lat="59.5583113655" lon="31.2641474605"><ele>240.47</ele><time>2026-09-02T22:02:15Z</time></trkpt><trkpt lat="59.5583121199" lon="31.2641467899"><ele>240.47</ele><time>2026-09-02T22:02:16Z</time></trkpt><trkpt lat="59.5583129581" lon="31.2641448621"><ele>240.47</ele><time>2026-09-02T22:02:17Z</time></trkpt><trkpt lat="59.5583137963" lon="31.2641437724"><ele>240.47</ele><time>2026-09-02T22:02:18Z</time></trkpt><trkpt lat="59.5583144668" lon="31.2641435210"><ele>240.47</ele><time>2026-09-02T22:02:19Z</time></trkpt><trkpt lat="59.5583152212" lon="31.2641435210"><ele>240.47</ele><time>2026-09-02T22:02:20Z</time></trkpt><trkpt lat="59.5583147183" lon="31.2641435210"><ele>240.95</ele><time>2026-09-02T22:02:21Z</time></trkpt><trkpt lat="59.5583139639" lon="31.2641433533"><ele>240.95</ele><time>2026-09-02T22:02:22Z</time></trkpt><trkpt lat="59.5583131257" lon="31.2641439401"><ele>240.95</ele><time>2026-09-02T22:02:23Z</time></trkpt><trkpt lat="59.5583127905" lon="31.2641451973"><ele>240.95</ele><time>2026-09-02T22:02:24Z</time></trkpt><trkpt lat="59.5583125390" lon="31.2641442753"><ele>240.95</ele><time>2026-09-02T22:02:25Z</time></trkpt><trkpt lat="59.5583127905" lon="31.2641458679"><ele>240.95</ele><time>2026-09-02T22:02:26Z</time></trkpt><trkpt lat="59.5583123714" lon="31.2641458679"><ele>240.95</ele><time>2026-09-02T22:02:27Z</time></trkpt><trkpt lat="59.5583125390" lon="31.2641458679"><ele>240.95</ele><time>2026-09-02T22:02:28Z</time></trkpt><trkpt lat="59.5583135448" lon="31.2641467899"><ele>240.95</ele><time>2026-09-02T22:02:29Z</time></trkpt><trkpt lat="59.5583142992" lon="31.2641479634"><ele>240.95</ele><time>2026-09-02T22:02:30Z</time></trkpt><trkpt lat="59.5583143830" lon="31.2641482987"><ele>240.95</ele><time>2026-09-02T22:02:31Z</time></trkpt><trkpt lat="59.5583149698" lon="31.2641469575"><ele>240.95</ele><time>2026-09-02T22:02:32Z</time></trkpt><trkpt lat="59.5583146345" lon="31.2641486339"><ele>240.95</ele><time>2026-09-02T22:02:33Z</time></trkpt><trkpt lat="59.5583167300" lon="31.2641499750"><ele>240.95</ele><time>2026-09-02T22:02:34Z</time></trkpt><trkpt lat="59.5583213400" lon="31.2641497236"><ele>240.95</ele><time>2026-09-02T22:02:35Z</time></trkpt><trkpt lat="59.5583327394" lon="31.2641467899"><ele>240.95</ele><time>2026-09-02T22:02:36Z</time></trkpt><trkpt lat="59.5583410375" lon="31.2641394977"><ele>240.95</ele><time>2026-09-02T22:02:37Z</time></trkpt><trkpt lat="59.5583479945" lon="31.2641306967"><ele>240.95</ele><time>2026-09-02T22:02:38Z</time></trkpt><trkpt lat="59.5583574660" lon="31.2641277630"><ele>240.95</ele><time>2026-09-02T22:02:39Z</time></trkpt><trkpt lat="59.5583663508" lon="31.2641302776"><ele>240.95</ele><time>2026-09-02T22:02:40Z</time></trkpt><trkpt lat="59.5583735593" lon="31.2641287688"><ele>240.95</ele><time>2026-09-02T22:02:41Z</time></trkpt><trkpt lat="59.5583824441" lon="31.2641260866"><ele>240.95</ele><time>2026-09-02T22:02:42Z</time></trkpt><trkpt lat="59.5583921671" lon="31.2641211413"><ele>240.95</ele><time>2026-09-02T22:02:43Z</time></trkpt><trkpt lat="59.5584021416" lon="31.2641170342"><ele>240.95</ele><time>2026-09-02T22:02:44Z</time></trkpt><trkpt lat="59.5584110264" lon="31.2641081493"><ele>240.47</ele><time>2026-09-02T22:02:45Z</time></trkpt><trkpt lat="59.5584190730" lon="31.2640988454"><ele>240.47</ele><time>2026-09-02T22:02:46Z</time></trkpt><trkpt lat="59.5584273711" lon="31.2640924752"><ele>240.47</ele><time>2026-09-02T22:02:47Z</time></trkpt><trkpt lat="59.5584348310" lon="31.2640901282"><ele>240.47</ele><time>2026-09-02T22:02:48Z</time></trkpt><trkpt lat="59.5584416203" lon="31.2640823331"><ele>240.47</ele><time>2026-09-02T22:02:49Z</time></trkpt><trkpt lat="59.5584480744" lon="31.2640766334"><ele>240.47</ele><time>2026-09-02T22:02:50Z</time></trkpt><trkpt lat="59.5584518462" lon="31.2640653178"><ele>240.47</ele><time>2026-09-02T22:02:51Z</time></trkpt><trkpt lat="59.5584567916" lon="31.2640610430"><ele>240.47</ele><time>2026-09-02T22:02:52Z</time></trkpt><trkpt lat="59.5584587194" lon="31.2640530802"><ele>240.47</ele><time>2026-09-02T22:02:53Z</time></trkpt><trkpt lat="59.5584619883" lon="31.2640383281"><ele>240.47</ele><time>2026-09-02T22:02:54Z</time></trkpt><trkpt lat="59.5584647544" lon="31.2640256714"><ele>240.47</ele><time>2026-09-02T22:02:55Z</time></trkpt><trkpt lat="59.5584683586" lon="31.2640133500"><ele>240.47</ele><time>2026-09-02T22:02:56Z</time></trkpt><trkpt lat="59.5584705379" lon="31.2640016992"><ele>240.47</ele><time>2026-09-02T22:02:57Z</time></trkpt><trkpt lat="59.5584728848" lon="31.2639947422"><ele>240.47</ele><time>2026-09-02T22:02:58Z</time></trkpt><trkpt lat="59.5584742259" lon="31.2639782298"><ele>240.47</ele><time>2026-09-02T22:02:59Z</time></trkpt><trkpt lat="59.5584756508" lon="31.2639619689"><ele>240.47</ele><time>2026-09-02T22:03:00Z</time></trkpt><trkpt lat="59.5584762376" lon="31.2639456242"><ele>240.47</ele><time>2026-09-02T22:03:01Z</time></trkpt><trkpt lat="59.5584786683" lon="31.2639299501"><ele>240.95</ele><time>2026-09-02T22:03:02Z</time></trkpt><trkpt lat="59.5584828593" lon="31.2639154494"><ele>240.95</ele><time>2026-09-02T22:03:03Z</time></trkpt><trkpt lat="59.5584860444" lon="31.2639005296"><ele>240.95</ele><time>2026-09-02T22:03:04Z</time></trkpt><trkpt lat="59.5584888943" lon="31.2638887949"><ele>240.95</ele><time>2026-09-02T22:03:05Z</time></trkpt><trkpt lat="59.5584891457" lon="31.2638745457"><ele>240.95</ele><time>2026-09-02T22:03:06Z</time></trkpt><trkpt lat="59.5584903192" lon="31.2638608832"><ele>240.95</ele><time>2026-09-02T22:03:07Z</time></trkpt><trkpt lat="59.5584911574" lon="31.2638465501"><ele>240.95</ele><time>2026-09-02T22:03:08Z</time></trkpt><trkpt lat="59.5584911574" lon="31.2638301216"><ele>240.95</ele><time>2026-09-02T22:03:09Z</time></trkpt><trkpt lat="59.5584900677" lon="31.2638231646"><ele>240.95</ele><time>2026-09-02T22:03:10Z</time></trkpt><trkpt lat="59.5584910735" lon="31.2638154533"><ele>240.95</ele><time>2026-09-02T22:03:11Z</time></trkpt><trkpt lat="59.5584906545" lon="31.2638139445"><ele>240.95</ele><time>2026-09-02T22:03:12Z</time></trkpt><trkpt lat="59.5584897324" lon="31.2638060655"><ele>240.95</ele><time>2026-09-02T22:03:13Z</time></trkpt><trkpt lat="59.5584900677" lon="31.2637999468"><ele>240.95</ele><time>2026-09-02T22:03:14Z</time></trkpt><trkpt lat="59.5584895648" lon="31.2638024613"><ele>240.95</ele><time>2026-09-02T22:03:15Z</time></trkpt><trkpt lat="59.5584894810" lon="31.2637964264"><ele>240.95</ele><time>2026-09-02T22:03:16Z</time></trkpt><trkpt lat="59.5584883913" lon="31.2637961749"><ele>240.95</ele><time>2026-09-02T22:03:17Z</time></trkpt><trkpt lat="59.5584877208" lon="31.2637943309"><ele>240.95</ele><time>2026-09-02T22:03:18Z</time></trkpt><trkpt lat="59.5584872179" lon="31.2637862843"><ele>240.95</ele><time>2026-09-02T22:03:19Z</time></trkpt><trkpt lat="59.5584860444" lon="31.2637766451"><ele>240.95</ele><time>2026-09-02T22:03:20Z</time></trkpt><trkpt lat="59.5584863797" lon="31.2637788244"><ele>240.95</ele><time>2026-09-02T22:03:21Z</time></trkpt><trkpt lat="59.5584880561" lon="31.2637700234"><ele>240.95</ele><time>2026-09-02T22:03:22Z</time></trkpt><trkpt lat="59.5584910735" lon="31.2637596298"><ele>240.95</ele><time>2026-09-02T22:03:23Z</time></trkpt><trkpt lat="59.5584933367" lon="31.2637518346"><ele>240.95</ele><time>2026-09-02T22:03:24Z</time></trkpt><trkpt lat="59.5584952645" lon="31.2637456320"><ele>240.95</ele><time>2026-09-02T22:03:25Z</time></trkpt><trkpt lat="59.5584960189" lon="31.2637399323"><ele>240.95</ele><time>2026-09-02T22:03:26Z</time></trkpt><trkpt lat="59.5584976953" lon="31.2637323886"><ele>240.95</ele><time>2026-09-02T22:03:27Z</time></trkpt><trkpt lat="59.5584990364" lon="31.2637266889"><ele>240.95</ele><time>2026-09-02T22:03:28Z</time></trkpt><trkpt lat="59.5584996231" lon="31.2637213245"><ele>240.95</ele><time>2026-09-02T22:03:29Z</time></trkpt><trkpt lat="59.5585001260" lon="31.2637148704"><ele>240.95</ele><time>2026-09-02T22:03:30Z</time></trkpt><trkpt lat="59.5585004613" lon="31.2637096737"><ele>240.95</ele><time>2026-09-02T22:03:31Z</time></trkpt><trkpt lat="59.5585017186" lon="31.2637037225"><ele>240.95</ele><time>2026-09-02T22:03:32Z</time></trkpt><trkpt lat="59.5585044846" lon="31.2637004536"><ele>240.95</ele><time>2026-09-02T22:03:33Z</time></trkpt><trkpt lat="59.5585063286" lon="31.2636958435"><ele>240.95</ele><time>2026-09-02T22:03:34Z</time></trkpt><trkpt lat="59.5585064963" lon="31.2636950891"><ele>240.95</ele><time>2026-09-02T22:03:35Z</time></trkpt><trkpt lat="59.5585073344" lon="31.2636923231"><ele>240.95</ele><time>2026-09-02T22:03:36Z</time></trkpt><trkpt lat="59.5585075859" lon="31.2636915687"><ele>240.95</ele><time>2026-09-02T22:03:37Z</time></trkpt><trkpt lat="59.5585083403" lon="31.2636904791"><ele>240.95</ele><time>2026-09-02T22:03:38Z</time></trkpt><trkpt lat="59.5585091785" lon="31.2636895571"><ele>240.95</ele><time>2026-09-02T22:03:39Z</time></trkpt><trkpt lat="59.5585097652" lon="31.2636890542"><ele>240.95</ele><time>2026-09-02T22:03:40Z</time></trkpt><trkpt lat="59.5585095976" lon="31.2636883836"><ele>240.95</ele><time>2026-09-02T22:03:41Z</time></trkpt><trkpt lat="59.5585096814" lon="31.2636896409"><ele>240.95</ele><time>2026-09-02T22:03:42Z</time></trkpt><trkpt lat="59.5585104357" lon="31.2636882998"><ele>240.47</ele><time>2026-09-02T22:03:43Z</time></trkpt><trkpt lat="59.5585100166" lon="31.2636907306"><ele>240.47</ele><time>2026-09-02T22:03:44Z</time></trkpt><trkpt lat="59.5585108548" lon="31.2636898924"><ele>240.47</ele><time>2026-09-02T22:03:45Z</time></trkpt><trkpt lat="59.5585115254" lon="31.2636914849"><ele>239.99</ele><time>2026-09-02T22:03:46Z</time></trkpt><trkpt lat="59.5585127827" lon="31.2636899762"><ele>239.99</ele><time>2026-09-02T22:03:47Z</time></trkpt><trkpt lat="59.5585140400" lon="31.2636916526"><ele>239.99</ele><time>2026-09-02T22:03:48Z</time></trkpt><trkpt lat="59.5585156325" lon="31.2636886351"><ele>239.99</ele><time>2026-09-02T22:03:49Z</time></trkpt><trkpt lat="59.5585168898" lon="31.2636896409"><ele>239.99</ele><time>2026-09-02T22:03:50Z</time></trkpt><trkpt lat="59.5585200749" lon="31.2636896409"><ele>239.99</ele><time>2026-09-02T22:03:51Z</time></trkpt><trkpt lat="59.5585225895" lon="31.2636875454"><ele>239.99</ele><time>2026-09-02T22:03:52Z</time></trkpt><trkpt lat="59.5585252717" lon="31.2636887189"><ele>239.99</ele><time>2026-09-02T22:03:53Z</time></trkpt><trkpt lat="59.5585279539" lon="31.2636870425"><ele>239.99</ele><time>2026-09-02T22:03:54Z</time></trkpt><trkpt lat="59.5585281216" lon="31.2636883836"><ele>239.99</ele><time>2026-09-02T22:03:55Z</time></trkpt><trkpt lat="59.5585304685" lon="31.2636873778"><ele>239.99</ele><time>2026-09-02T22:03:56Z</time></trkpt><trkpt lat="59.5585311390" lon="31.2636891380"><ele>239.99</ele><time>2026-09-02T22:03:57Z</time></trkpt><trkpt lat="59.5585321449" lon="31.2636891380"><ele>239.99</ele><time>2026-09-02T22:03:58Z</time></trkpt><trkpt lat="59.5585325640" lon="31.2636900600"><ele>239.99</ele><time>2026-09-02T22:03:59Z</time></trkpt><trkpt lat="59.5585330669" lon="31.2636909820"><ele>239.99</ele><time>2026-09-02T22:04:00Z</time></trkpt><trkpt lat="59.5585332345" lon="31.2636918202"><ele>239.99</ele><time>2026-09-02T22:04:01Z</time></trkpt><trkpt lat="59.5585336536" lon="31.2636914849"><ele>239.99</ele><time>2026-09-02T22:04:02Z</time></trkpt><trkpt lat="59.5585342404" lon="31.2636913173"><ele>239.99</ele><time>2026-09-02T22:04:03Z</time></trkpt><trkpt lat="59.5585345756" lon="31.2636899762"><ele>239.99</ele><time>2026-09-02T22:04:04Z</time></trkpt><trkpt lat="59.5585342404" lon="31.2636897247"><ele>239.99</ele><time>2026-09-02T22:04:05Z</time></trkpt><trkpt lat="59.5585340727" lon="31.2636886351"><ele>239.99</ele><time>2026-09-02T22:04:06Z</time></trkpt><trkpt lat="59.5585334860" lon="31.2636884674"><ele>239.99</ele><time>2026-09-02T22:04:07Z</time></trkpt><trkpt lat="59.5585331507" lon="31.2636857852"><ele>239.99</ele><time>2026-09-02T22:04:08Z</time></trkpt><trkpt lat="59.5585320611" lon="31.2636846956"><ele>239.99</ele><time>2026-09-02T22:04:09Z</time></trkpt><trkpt lat="59.5585320611" lon="31.2636837736"><ele>239.99</ele><time>2026-09-02T22:04:10Z</time></trkpt><trkpt lat="59.5585309714" lon="31.2636841927"><ele>239.99</ele><time>2026-09-02T22:04:11Z</time></trkpt><trkpt lat="59.5585305523" lon="31.2636857852"><ele>239.99</ele><time>2026-09-02T22:04:12Z</time></trkpt><trkpt lat="59.5585288759" lon="31.2636846956"><ele>239.99</ele><time>2026-09-02T22:04:13Z</time></trkpt><trkpt lat="59.5585284568" lon="31.2636848632"><ele>239.99</ele><time>2026-09-02T22:04:14Z</time></trkpt><trkpt lat="59.5585271996" lon="31.2636833545"><ele>239.99</ele><time>2026-09-02T22:04:15Z</time></trkpt><trkpt lat="59.5585264452" lon="31.2636827677"><ele>239.99</ele><time>2026-09-02T22:04:16Z</time></trkpt><trkpt lat="59.5585250203" lon="31.2636816781"><ele>239.99</ele><time>2026-09-02T22:04:17Z</time></trkpt><trkpt lat="59.5585247688" lon="31.2636808399"><ele>239.99</ele><time>2026-09-02T22:04:18Z</time></trkpt><trkpt lat="59.5585233439" lon="31.2636795826"><ele>239.99</ele><time>2026-09-02T22:04:19Z</time></trkpt><trkpt lat="59.5585238468" lon="31.2636783253"><ele>239.99</ele><time>2026-09-02T22:04:20Z</time></trkpt><trkpt lat="59.5585234277" lon="31.2636777386"><ele>239.99</ele><time>2026-09-02T22:04:21Z</time></trkpt><trkpt lat="59.5585243497" lon="31.2636761460"><ele>239.99</ele><time>2026-09-02T22:04:22Z</time></trkpt><trkpt lat="59.5585245173" lon="31.2636761460"><ele>239.99</ele><time>2026-09-02T22:04:23Z</time></trkpt><trkpt lat="59.5585256908" lon="31.2636749726"><ele>239.99</ele><time>2026-09-02T22:04:24Z</time></trkpt><trkpt lat="59.5585258584" lon="31.2636760622"><ele>239.99</ele><time>2026-09-02T22:04:25Z</time></trkpt><trkpt lat="59.5585259423" lon="31.2636758946"><ele>239.99</ele><time>2026-09-02T22:04:26Z</time></trkpt><trkpt lat="59.5585260261" lon="31.2636781577"><ele>239.99</ele><time>2026-09-02T22:04:27Z</time></trkpt><trkpt lat="59.5585270319" lon="31.2636783253"><ele>239.99</ele><time>2026-09-02T22:04:28Z</time></trkpt><trkpt lat="59.5585275348" lon="31.2636795826"><ele>239.99</ele><time>2026-09-02T22:04:29Z</time></trkpt><trkpt lat="59.5585278701" lon="31.2636798341"><ele>239.99</ele><time>2026-09-02T22:04:30Z</time></trkpt><trkpt lat="59.5585271996" lon="31.2636802532"><ele>239.99</ele><time>2026-09-02T22:04:31Z</time></trkpt><trkpt lat="59.5585261937" lon="31.2636789959"><ele>239.99</ele><time>2026-09-02T22:04:32Z</time></trkpt><trkpt lat="59.5585252717" lon="31.2636785768"><ele>239.99</ele><time>2026-09-02T22:04:33Z</time></trkpt><trkpt lat="59.5585269481" lon="31.2636766490"><ele>239.99</ele><time>2026-09-02T22:04:34Z</time></trkpt><trkpt lat="59.5585248526" lon="31.2636778224"><ele>239.99</ele><time>2026-09-02T22:04:35Z</time></trkpt><trkpt lat="59.5585265290" lon="31.2636764813"><ele>239.99</ele><time>2026-09-02T22:04:36Z</time></trkpt><trkpt lat="59.5585265290" lon="31.2636765651"><ele>239.99</ele><time>2026-09-02T22:04:37Z</time></trkpt><trkpt lat="59.5585275348" lon="31.2636759784"><ele>239.99</ele><time>2026-09-02T22:04:38Z</time></trkpt><trkpt lat="59.5585267805" lon="31.2636754755"><ele>239.99</ele><time>2026-09-02T22:04:39Z</time></trkpt><trkpt lat="59.5585269481" lon="31.2636761460"><ele>239.99</ele><time>2026-09-02T22:04:40Z</time></trkpt><trkpt lat="59.5585255232" lon="31.2636753917"><ele>239.99</ele><time>2026-09-02T22:04:41Z</time></trkpt><trkpt lat="59.5585256908" lon="31.2636747211"><ele>239.99</ele><time>2026-09-02T22:04:42Z</time></trkpt><trkpt lat="59.5585259423" lon="31.2636742182"><ele>239.99</ele><time>2026-09-02T22:04:43Z</time></trkpt><trkpt lat="59.5585273672" lon="31.2636753917"><ele>239.99</ele><time>2026-09-02T22:04:44Z</time></trkpt><trkpt lat="59.5585282892" lon="31.2636751402"><ele>239.99</ele><time>2026-09-02T22:04:45Z</time></trkpt><trkpt lat="59.5585284568" lon="31.2636742182"><ele>240.47</ele><time>2026-09-02T22:04:46Z</time></trkpt><trkpt lat="59.5585294627" lon="31.2636739668"><ele>240.47</ele><time>2026-09-02T22:04:47Z</time></trkpt><trkpt lat="59.5585305523" lon="31.2636752240"><ele>240.47</ele><time>2026-09-02T22:04:48Z</time></trkpt><trkpt lat="59.5585301332" lon="31.2636750564"><ele>240.47</ele><time>2026-09-02T22:04:49Z</time></trkpt><trkpt lat="59.5585315581" lon="31.2636755593"><ele>240.47</ele><time>2026-09-02T22:04:50Z</time></trkpt><trkpt lat="59.5585316420" lon="31.2636763975"><ele>240.95</ele><time>2026-09-02T22:04:51Z</time></trkpt><trkpt lat="59.5585326478" lon="31.2636766490"><ele>240.95</ele><time>2026-09-02T22:04:52Z</time></trkpt><trkpt lat="59.5585328992" lon="31.2636765651"><ele>240.95</ele><time>2026-09-02T22:04:53Z</time></trkpt><trkpt lat="59.5585337374" lon="31.2636786606"><ele>240.95</ele><time>2026-09-02T22:04:54Z</time></trkpt><trkpt lat="59.5585329831" lon="31.2636804208"><ele>240.95</ele><time>2026-09-02T22:04:55Z</time></trkpt><trkpt lat="59.5585335698" lon="31.2636789959"><ele>240.95</ele><time>2026-09-02T22:04:56Z</time></trkpt><trkpt lat="59.5585341565" lon="31.2636780739"><ele>240.95</ele><time>2026-09-02T22:04:57Z</time></trkpt><trkpt lat="59.5585355815" lon="31.2636766490"><ele>240.95</ele><time>2026-09-02T22:04:58Z</time></trkpt><trkpt lat="59.5585377607" lon="31.2636711169"><ele>240.95</ele><time>2026-09-02T22:04:59Z</time></trkpt><trkpt lat="59.5585404430" lon="31.2636651658"><ele>240.95</ele><time>2026-09-02T22:05:00Z</time></trkpt><trkpt lat="59.5585437957" lon="31.2636553589"><ele>240.95</ele><time>2026-09-02T22:05:01Z</time></trkpt><trkpt lat="59.5585477352" lon="31.2636453845"><ele>240.95</ele><time>2026-09-02T22:05:02Z</time></trkpt><trkpt lat="59.5585513394" lon="31.2636339851"><ele>240.95</ele><time>2026-09-02T22:05:03Z</time></trkpt><trkpt lat="59.5585544407" lon="31.2636226695"><ele>240.95</ele><time>2026-09-02T22:05:04Z</time></trkpt><trkpt lat="59.5585598890" lon="31.2636151258"><ele>240.95</ele><time>2026-09-02T22:05:05Z</time></trkpt><trkpt lat="59.5585651696" lon="31.2636090908"><ele>240.95</ele><time>2026-09-02T22:05:06Z</time></trkpt><trkpt lat="59.5585709531" lon="31.2636046484"><ele>240.95</ele><time>2026-09-02T22:05:07Z</time></trkpt><trkpt lat="59.5585750602" lon="31.2635995355"><ele>240.95</ele><time>2026-09-02T22:05:08Z</time></trkpt><trkpt lat="59.5585789997" lon="31.2635952607"><ele>240.95</ele><time>2026-09-02T22:05:09Z</time></trkpt><trkpt lat="59.5585849509" lon="31.2635942549"><ele>240.95</ele><time>2026-09-02T22:05:10Z</time></trkpt><trkpt lat="59.5585910697" lon="31.2635925785"><ele>240.95</ele><time>2026-09-02T22:05:11Z</time></trkpt><trkpt lat="59.5585967693" lon="31.2635874655"><ele>240.95</ele><time>2026-09-02T22:05:12Z</time></trkpt><trkpt lat="59.5586036425" lon="31.2635806762"><ele>240.95</ele><time>2026-09-02T22:05:13Z</time></trkpt><trkpt lat="59.5586121920" lon="31.2635772396"><ele>240.95</ele><time>2026-09-02T22:05:14Z</time></trkpt><trkpt lat="59.5586182270" lon="31.2635711208"><ele>240.95</ele><time>2026-09-02T22:05:15Z</time></trkpt><trkpt lat="59.5586241782" lon="31.2635598890"><ele>240.95</ele><time>2026-09-02T22:05:16Z</time></trkpt><trkpt lat="59.5586298779" lon="31.2635538541"><ele>240.95</ele><time>2026-09-02T22:05:17Z</time></trkpt><trkpt lat="59.5586346556" lon="31.2635514233"><ele>240.95</ele><time>2026-09-02T22:05:18Z</time></trkpt><trkpt lat="59.5586429536" lon="31.2635414489"><ele>240.95</ele><time>2026-09-02T22:05:19Z</time></trkpt><trkpt lat="59.5586533472" lon="31.2635255232"><ele>240.95</ele><time>2026-09-02T22:05:20Z</time></trkpt><trkpt lat="59.5586609747" lon="31.2635164708"><ele>240.47</ele><time>2026-09-02T22:05:21Z</time></trkpt><trkpt lat="59.5586712845" lon="31.2635146268"><ele>240.47</ele><time>2026-09-02T22:05:22Z</time></trkpt><trkpt lat="59.5586781576" lon="31.2635148782"><ele>240.47</ele><time>2026-09-02T22:05:23Z</time></trkpt><trkpt lat="59.5586817618" lon="31.2635141239"><ele>240.47</ele><time>2026-09-02T22:05:24Z</time></trkpt><trkpt lat="59.5586881321" lon="31.2635093462"><ele>240.47</ele><time>2026-09-02T22:05:25Z</time></trkpt><trkpt lat="59.5586949214" lon="31.2635049876"><ele>240.47</ele><time>2026-09-02T22:05:26Z</time></trkpt><trkpt lat="59.5587003697" lon="31.2635044847"><ele>240.47</ele><time>2026-09-02T22:05:27Z</time></trkpt><trkpt lat="59.5587039739" lon="31.2635023892"><ele>240.47</ele><time>2026-09-02T22:05:28Z</time></trkpt><trkpt lat="59.5587065723" lon="31.2635033950"><ele>240.47</ele><time>2026-09-02T22:05:29Z</time></trkpt><trkpt lat="59.5587101765" lon="31.2635077536"><ele>240.47</ele><time>2026-09-02T22:05:30Z</time></trkpt><trkpt lat="59.5587177202" lon="31.2635104358"><ele>240.47</ele><time>2026-09-02T22:05:31Z</time></trkpt><trkpt lat="59.5587245934" lon="31.2635168899"><ele>240.47</ele><time>2026-09-02T22:05:32Z</time></trkpt><trkpt lat="59.5587280300" lon="31.2635226734"><ele>239.99</ele><time>2026-09-02T22:05:33Z</time></trkpt><trkpt lat="59.5587320533" lon="31.2635294627"><ele>239.99</ele><time>2026-09-02T22:05:34Z</time></trkpt><trkpt lat="59.5587373339" lon="31.2635310553"><ele>239.99</ele><time>2026-09-02T22:05:35Z</time></trkpt><trkpt lat="59.5587408543" lon="31.2635325640"><ele>239.99</ele><time>2026-09-02T22:05:36Z</time></trkpt><trkpt lat="59.5587452967" lon="31.2635267805"><ele>239.99</ele><time>2026-09-02T22:05:37Z</time></trkpt><trkpt lat="59.5587502420" lon="31.2635236792"><ele>239.99</ele><time>2026-09-02T22:05:38Z</time></trkpt><trkpt lat="59.5587548520" lon="31.2635182310"><ele>239.99</ele><time>2026-09-02T22:05:39Z</time></trkpt><trkpt lat="59.5587603841" lon="31.2635127828"><ele>239.99</ele><time>2026-09-02T22:05:40Z</time></trkpt><trkpt lat="59.5587672573" lon="31.2635097653"><ele>239.99</ele><time>2026-09-02T22:05:41Z</time></trkpt><trkpt lat="59.5587767288" lon="31.2635055743"><ele>239.99</ele><time>2026-09-02T22:05:42Z</time></trkpt><trkpt lat="59.5587850269" lon="31.2635037303"><ele>239.99</ele><time>2026-09-02T22:05:43Z</time></trkpt><trkpt lat="59.5587914810" lon="31.2634983659"><ele>239.51</ele><time>2026-09-02T22:05:44Z</time></trkpt><trkpt lat="59.5587972645" lon="31.2634933367"><ele>239.51</ele><time>2026-09-02T22:05:45Z</time></trkpt><trkpt lat="59.5588034671" lon="31.2634881400"><ele>239.51</ele><time>2026-09-02T22:05:46Z</time></trkpt><trkpt lat="59.5588080771" lon="31.2634787522"><ele>239.51</ele><time>2026-09-02T22:05:47Z</time></trkpt><trkpt lat="59.5588135254" lon="31.2634691969"><ele>239.02</ele><time>2026-09-02T22:05:48Z</time></trkpt><trkpt lat="59.5588215720" lon="31.2634568755"><ele>239.02</ele><time>2026-09-02T22:05:49Z</time></trkpt><trkpt lat="59.5588285290" lon="31.2634421233"><ele>239.02</ele><time>2026-09-02T22:05:50Z</time></trkpt><trkpt lat="59.5588334743" lon="31.2634303886"><ele>239.02</ele><time>2026-09-02T22:05:51Z</time></trkpt><trkpt lat="59.5588382520" lon="31.2634157203"><ele>239.02</ele><time>2026-09-02T22:05:52Z</time></trkpt><trkpt lat="59.5588419400" lon="31.2633952685"><ele>239.02</ele><time>2026-09-02T22:05:53Z</time></trkpt><trkpt lat="59.5588465501" lon="31.2633810192"><ele>238.54</ele><time>2026-09-02T22:05:54Z</time></trkpt><trkpt lat="59.5588473883" lon="31.2633709610"><ele>238.54</ele><time>2026-09-02T22:05:55Z</time></trkpt><trkpt lat="59.5588485617" lon="31.2633576337"><ele>238.54</ele><time>2026-09-02T22:05:56Z</time></trkpt><trkpt lat="59.5588509925" lon="31.2633429654"><ele>238.54</ele><time>2026-09-02T22:05:57Z</time></trkpt><trkpt lat="59.5588527527" lon="31.2633248605"><ele>238.54</ele><time>2026-09-02T22:05:58Z</time></trkpt><trkpt lat="59.5588532556" lon="31.2633086834"><ele>238.54</ele><time>2026-09-02T22:05:59Z</time></trkpt><trkpt lat="59.5588533394" lon="31.2632923387"><ele>238.54</ele><time>2026-09-02T22:06:00Z</time></trkpt><trkpt lat="59.5588555187" lon="31.2632752396"><ele>238.54</ele><time>2026-09-02T22:06:01Z</time></trkpt><trkpt lat="59.5588559378" lon="31.2632582244"><ele>239.02</ele><time>2026-09-02T22:06:02Z</time></trkpt><trkpt lat="59.5588541776" lon="31.2632423826"><ele>239.02</ele><time>2026-09-02T22:06:03Z</time></trkpt><trkpt lat="59.5588542614" lon="31.2632269599"><ele>239.02</ele><time>2026-09-02T22:06:04Z</time></trkpt><trkpt lat="59.5588537585" lon="31.2632116210"><ele>239.02</ele><time>2026-09-02T22:06:05Z</time></trkpt><trkpt lat="59.5588556863" lon="31.2631979585"><ele>239.02</ele><time>2026-09-02T22:06:06Z</time></trkpt><trkpt lat="59.5588558540" lon="31.2631793506"><ele>239.02</ele><time>2026-09-02T22:06:07Z</time></trkpt><trkpt lat="59.5588520821" lon="31.2631688733"><ele>239.51</ele><time>2026-09-02T22:06:08Z</time></trkpt><trkpt lat="59.5588497352" lon="31.2631550431"><ele>239.51</ele><time>2026-09-02T22:06:09Z</time></trkpt><trkpt lat="59.5588538423" lon="31.2631479185"><ele>239.51</ele><time>2026-09-02T22:06:10Z</time></trkpt><trkpt lat="59.5588573627" lon="31.2631403748"><ele>239.51</ele><time>2026-09-02T22:06:11Z</time></trkpt><trkpt lat="59.5588611346" lon="31.2631290592"><ele>239.51</ele><time>2026-09-02T22:06:12Z</time></trkpt><trkpt lat="59.5588664990" lon="31.2631145585"><ele>239.99</ele><time>2026-09-02T22:06:13Z</time></trkpt><trkpt lat="59.5588744618" lon="31.2631001417"><ele>239.99</ele><time>2026-09-02T22:06:14Z</time></trkpt><trkpt lat="59.5588805806" lon="31.2630853895"><ele>239.99</ele><time>2026-09-02T22:06:15Z</time></trkpt><trkpt lat="59.5588849392" lon="31.2630727328"><ele>239.99</ele><time>2026-09-02T22:06:16Z</time></trkpt><trkpt lat="59.5588896330" lon="31.2630591542"><ele>239.99</ele><time>2026-09-02T22:06:17Z</time></trkpt><trkpt lat="59.5588948298" lon="31.2630397920"><ele>239.99</ele><time>2026-09-02T22:06:18Z</time></trkpt><trkpt lat="59.5589005295" lon="31.2630258780"><ele>239.99</ele><time>2026-09-02T22:06:19Z</time></trkpt><trkpt lat="59.5589085761" lon="31.2630117964"><ele>239.99</ele><time>2026-09-02T22:06:20Z</time></trkpt><trkpt lat="59.5589168742" lon="31.2629965413"><ele>239.99</ele><time>2026-09-02T22:06:21Z</time></trkpt><trkpt lat="59.5589257590" lon="31.2629795261"><ele>239.99</ele><time>2026-09-02T22:06:22Z</time></trkpt><trkpt lat="59.5589351468" lon="31.2629709765"><ele>239.99</ele><time>2026-09-02T22:06:23Z</time></trkpt><trkpt lat="59.5589417685" lon="31.2629743293"><ele>239.99</ele><time>2026-09-02T22:06:24Z</time></trkpt><trkpt lat="59.5589467976" lon="31.2629758380"><ele>239.99</ele><time>2026-09-02T22:06:25Z</time></trkpt><trkpt lat="59.5589496475" lon="31.2629742455"><ele>239.51</ele><time>2026-09-02T22:06:26Z</time></trkpt><trkpt lat="59.5589577779" lon="31.2629728206"><ele>239.51</ele><time>2026-09-02T22:06:27Z</time></trkpt><trkpt lat="59.5589637291" lon="31.2629689649"><ele>239.51</ele><time>2026-09-02T22:06:28Z</time></trkpt><trkpt lat="59.5589695964" lon="31.2629643548"><ele>239.51</ele><time>2026-09-02T22:06:29Z</time></trkpt><trkpt lat="59.5589749608" lon="31.2629644386"><ele>239.51</ele><time>2026-09-02T22:06:30Z</time></trkpt><trkpt lat="59.5589802414" lon="31.2629606668"><ele>239.51</ele><time>2026-09-02T22:06:31Z</time></trkpt><trkpt lat="59.5589883719" lon="31.2629606668"><ele>239.51</ele><time>2026-09-02T22:06:32Z</time></trkpt><trkpt lat="59.5589910541" lon="31.2629602477"><ele>239.51</ele><time>2026-09-02T22:06:33Z</time></trkpt><trkpt lat="59.5589976758" lon="31.2629596610"><ele>239.51</ele><time>2026-09-02T22:06:34Z</time></trkpt><trkpt lat="59.5589988492" lon="31.2629577331"><ele>239.02</ele><time>2026-09-02T22:06:35Z</time></trkpt><trkpt lat="59.5590023696" lon="31.2629537936"><ele>239.02</ele><time>2026-09-02T22:06:36Z</time></trkpt><trkpt lat="59.5590056386" lon="31.2629425619"><ele>239.02</ele><time>2026-09-02T22:06:37Z</time></trkpt><trkpt lat="59.5590086561" lon="31.2629310787"><ele>239.02</ele><time>2026-09-02T22:06:38Z</time></trkpt><trkpt lat="59.5590104163" lon="31.2629212718"><ele>239.02</ele><time>2026-09-02T22:06:39Z</time></trkpt><trkpt lat="59.5590135176" lon="31.2629163265"><ele>239.02</ele><time>2026-09-02T22:06:40Z</time></trkpt><trkpt lat="59.5590203907" lon="31.2629173324"><ele>239.02</ele><time>2026-09-02T22:06:41Z</time></trkpt><trkpt lat="59.5590254199" lon="31.2629126385"><ele>239.02</ele><time>2026-09-02T22:06:42Z</time></trkpt><trkpt lat="59.5590306167" lon="31.2628984731"><ele>239.02</ele><time>2026-09-02T22:06:43Z</time></trkpt><trkpt lat="59.5590355620" lon="31.2628854811"><ele>239.02</ele><time>2026-09-02T22:06:44Z</time></trkpt><trkpt lat="59.5590428542" lon="31.2628740817"><ele>239.02</ele><time>2026-09-02T22:06:45Z</time></trkpt><trkpt lat="59.5590485539" lon="31.2628649455"><ele>239.02</ele><time>2026-09-02T22:06:46Z</time></trkpt><trkpt lat="59.5590536669" lon="31.2628600840"><ele>239.02</ele><time>2026-09-02T22:06:47Z</time></trkpt><trkpt lat="59.5590585284" lon="31.2628593296"><ele>239.02</ele><time>2026-09-02T22:06:48Z</time></trkpt><trkpt lat="59.5590606239" lon="31.2628540490"><ele>239.02</ele><time>2026-09-02T22:06:49Z</time></trkpt><trkpt lat="59.5590639766" lon="31.2628499418"><ele>239.02</ele><time>2026-09-02T22:06:50Z</time></trkpt><trkpt lat="59.5590695925" lon="31.2628458347"><ele>239.51</ele><time>2026-09-02T22:06:51Z</time></trkpt><trkpt lat="59.5590752922" lon="31.2628427334"><ele>239.51</ele><time>2026-09-02T22:06:52Z</time></trkpt><trkpt lat="59.5590820815" lon="31.2628447451"><ele>239.51</ele><time>2026-09-02T22:06:53Z</time></trkpt><trkpt lat="59.5590890385" lon="31.2628446613"><ele>239.51</ele><time>2026-09-02T22:06:54Z</time></trkpt><trkpt lat="59.5590962470" lon="31.2628408894"><ele>239.51</ele><time>2026-09-02T22:06:55Z</time></trkpt><trkpt lat="59.5590987615" lon="31.2628342677"><ele>239.51</ele><time>2026-09-02T22:06:56Z</time></trkpt><trkpt lat="59.5591043774" lon="31.2628248800"><ele>239.51</ele><time>2026-09-02T22:06:57Z</time></trkpt><trkpt lat="59.5591088198" lon="31.2628216948"><ele>239.02</ele><time>2026-09-02T22:06:58Z</time></trkpt><trkpt lat="59.5591133460" lon="31.2628180906"><ele>239.02</ele><time>2026-09-02T22:06:59Z</time></trkpt><trkpt lat="59.5591162797" lon="31.2628086191"><ele>239.02</ele><time>2026-09-02T22:07:00Z</time></trkpt><trkpt lat="59.5591170341" lon="31.2627987284"><ele>239.02</ele><time>2026-09-02T22:07:01Z</time></trkpt><trkpt lat="59.5591180399" lon="31.2627888378"><ele>239.02</ele><time>2026-09-02T22:07:02Z</time></trkpt><trkpt lat="59.5591214765" lon="31.2627794500"><ele>239.02</ele><time>2026-09-02T22:07:03Z</time></trkpt><trkpt lat="59.5591244940" lon="31.2627686374"><ele>239.02</ele><time>2026-09-02T22:07:04Z</time></trkpt><trkpt lat="59.5591282658" lon="31.2627594173"><ele>239.02</ele><time>2026-09-02T22:07:05Z</time></trkpt><trkpt lat="59.5591305289" lon="31.2627507839"><ele>239.02</ele><time>2026-09-02T22:07:06Z</time></trkpt><trkpt lat="59.5591333788" lon="31.2627457548"><ele>239.02</ele><time>2026-09-02T22:07:07Z</time></trkpt><trkpt lat="59.5591338817" lon="31.2627399713"><ele>239.51</ele><time>2026-09-02T22:07:08Z</time></trkpt><trkpt lat="59.5591352228" lon="31.2627337687"><ele>239.51</ele><time>2026-09-02T22:07:09Z</time></trkpt><trkpt lat="59.5591345523" lon="31.2627239618"><ele>239.51</ele><time>2026-09-02T22:07:10Z</time></trkpt><trkpt lat="59.5591340493" lon="31.2627160829"><ele>239.51</ele><time>2026-09-02T22:07:11Z</time></trkpt><trkpt lat="59.5591350552" lon="31.2627079524"><ele>239.51</ele><time>2026-09-02T22:07:12Z</time></trkpt><trkpt lat="59.5591346361" lon="31.2627002411"><ele>239.51</ele><time>2026-09-02T22:07:13Z</time></trkpt><trkpt lat="59.5591350552" lon="31.2626935355"><ele>239.51</ele><time>2026-09-02T22:07:14Z</time></trkpt><trkpt lat="59.5591356419" lon="31.2626830582"><ele>239.51</ele><time>2026-09-02T22:07:15Z</time></trkpt><trkpt lat="59.5591358934" lon="31.2626763526"><ele>239.99</ele><time>2026-09-02T22:07:16Z</time></trkpt><trkpt lat="59.5591366477" lon="31.2626709882"><ele>239.99</ele><time>2026-09-02T22:07:17Z</time></trkpt><trkpt lat="59.5591366477" lon="31.2626638636"><ele>239.99</ele><time>2026-09-02T22:07:18Z</time></trkpt><trkpt lat="59.5591389947" lon="31.2626597565"><ele>239.99</ele><time>2026-09-02T22:07:19Z</time></trkpt><trkpt lat="59.5591418445" lon="31.2626549788"><ele>239.99</ele><time>2026-09-02T22:07:20Z</time></trkpt><trkpt lat="59.5591408387" lon="31.2626469322"><ele>239.99</ele><time>2026-09-02T22:07:21Z</time></trkpt><trkpt lat="59.5591429342" lon="31.2626348622"><ele>239.99</ele><time>2026-09-02T22:07:22Z</time></trkpt><trkpt lat="59.5591456164" lon="31.2626255583"><ele>239.99</ele><time>2026-09-02T22:07:23Z</time></trkpt><trkpt lat="59.5591457840" lon="31.2626166735"><ele>239.99</ele><time>2026-09-02T22:07:24Z</time></trkpt><trkpt lat="59.5591470413" lon="31.2626029272"><ele>239.99</ele><time>2026-09-02T22:07:25Z</time></trkpt><trkpt lat="59.5591487177" lon="31.2625917792"><ele>239.99</ele><time>2026-09-02T22:07:26Z</time></trkpt><trkpt lat="59.5591475442" lon="31.2625824753"><ele>239.99</ele><time>2026-09-02T22:07:27Z</time></trkpt><trkpt lat="59.5591484662" lon="31.2625707407"><ele>239.99</ele><time>2026-09-02T22:07:28Z</time></trkpt><trkpt lat="59.5591515675" lon="31.2625527196"><ele>239.99</ele><time>2026-09-02T22:07:29Z</time></trkpt><trkpt lat="59.5591520704" lon="31.2625366263"><ele>239.99</ele><time>2026-09-02T22:07:30Z</time></trkpt><trkpt lat="59.5591540821" lon="31.2625220418"><ele>240.47</ele><time>2026-09-02T22:07:31Z</time></trkpt><trkpt lat="59.5591544174" lon="31.2625093851"><ele>240.47</ele><time>2026-09-02T22:07:32Z</time></trkpt><trkpt lat="59.5591582730" lon="31.2625001650"><ele>240.47</ele><time>2026-09-02T22:07:33Z</time></trkpt><trkpt lat="59.5591608714" lon="31.2624921184"><ele>240.47</ele><time>2026-09-02T22:07:34Z</time></trkpt><trkpt lat="59.5591646433" lon="31.2624857482"><ele>240.47</ele><time>2026-09-02T22:07:35Z</time></trkpt><trkpt lat="59.5591679960" lon="31.2624761928"><ele>240.47</ele><time>2026-09-02T22:07:36Z</time></trkpt><trkpt lat="59.5591745339" lon="31.2624736782"><ele>240.47</ele><time>2026-09-02T22:07:37Z</time></trkpt><trkpt lat="59.5591808204" lon="31.2624666374"><ele>240.47</ele><time>2026-09-02T22:07:38Z</time></trkpt><trkpt lat="59.5591868553" lon="31.2624612730"><ele>240.47</ele><time>2026-09-02T22:07:39Z</time></trkpt><trkpt lat="59.5591944829" lon="31.2624547351"><ele>240.47</ele><time>2026-09-02T22:07:40Z</time></trkpt><trkpt lat="59.5592021942" lon="31.2624525558"><ele>240.47</ele><time>2026-09-02T22:07:41Z</time></trkpt><trkpt lat="59.5592081454" lon="31.2624463532"><ele>240.47</ele><time>2026-09-02T22:07:42Z</time></trkpt><trkpt lat="59.5592146832" lon="31.2624450959"><ele>240.47</ele><time>2026-09-02T22:07:43Z</time></trkpt><trkpt lat="59.5592204668" lon="31.2624401506"><ele>240.47</ele><time>2026-09-02T22:07:44Z</time></trkpt><trkpt lat="59.5592266694" lon="31.2624347862"><ele>240.47</ele><time>2026-09-02T22:07:45Z</time></trkpt><trkpt lat="59.5592328720" lon="31.2624242250"><ele>240.47</ele><time>2026-09-02T22:07:46Z</time></trkpt><trkpt lat="59.5592387393" lon="31.2624147534"><ele>240.47</ele><time>2026-09-02T22:07:47Z</time></trkpt><trkpt lat="59.5592436846" lon="31.2624036893"><ele>240.47</ele><time>2026-09-02T22:07:48Z</time></trkpt><trkpt lat="59.5592484623" lon="31.2623925414"><ele>240.47</ele><time>2026-09-02T22:07:49Z</time></trkpt><trkpt lat="59.5592573471" lon="31.2623818964"><ele>240.47</ele><time>2026-09-02T22:07:50Z</time></trkpt><trkpt lat="59.5592660643" lon="31.2623690721"><ele>240.47</ele><time>2026-09-02T22:07:51Z</time></trkpt><trkpt lat="59.5592726860" lon="31.2623533979"><ele>240.95</ele><time>2026-09-02T22:07:52Z</time></trkpt><trkpt lat="59.5592761226" lon="31.2623406574"><ele>240.95</ele><time>2026-09-02T22:07:53Z</time></trkpt><trkpt lat="59.5592821576" lon="31.2623341195"><ele>240.95</ele><time>2026-09-02T22:07:54Z</time></trkpt><trkpt lat="59.5592872705" lon="31.2623314373"><ele>240.95</ele><time>2026-09-02T22:07:55Z</time></trkpt><trkpt lat="59.5592896175" lon="31.2623298448"><ele>240.95</ele><time>2026-09-02T22:07:56Z</time></trkpt><trkpt lat="59.5592932217" lon="31.2623286713"><ele>240.95</ele><time>2026-09-02T22:07:57Z</time></trkpt><trkpt lat="59.5592949819" lon="31.2623255700"><ele>241.43</ele><time>2026-09-02T22:07:58Z</time></trkpt><trkpt lat="59.5592967421" lon="31.2623243965"><ele>241.43</ele><time>2026-09-02T22:07:59Z</time></trkpt><trkpt lat="59.5592969935" lon="31.2623244803"><ele>241.43</ele><time>2026-09-02T22:08:00Z</time></trkpt><trkpt lat="59.5592981670" lon="31.2623241451"><ele>241.43</ele><time>2026-09-02T22:08:01Z</time></trkpt><trkpt lat="59.5592977479" lon="31.2623227201"><ele>241.43</ele><time>2026-09-02T22:08:02Z</time></trkpt><trkpt lat="59.5592973288" lon="31.2623219658"><ele>241.43</ele><time>2026-09-02T22:08:03Z</time></trkpt><trkpt lat="59.5592973288" lon="31.2623216305"><ele>241.43</ele><time>2026-09-02T22:08:04Z</time></trkpt><trkpt lat="59.5592969935" lon="31.2623200379"><ele>241.43</ele><time>2026-09-02T22:08:05Z</time></trkpt><trkpt lat="59.5592964906" lon="31.2623187806"><ele>241.43</ele><time>2026-09-02T22:08:06Z</time></trkpt><trkpt lat="59.5592965744" lon="31.2623161823"><ele>241.43</ele><time>2026-09-02T22:08:07Z</time></trkpt><trkpt lat="59.5592988376" lon="31.2623299286"><ele>241.43</ele><time>2026-09-02T22:08:08Z</time></trkpt><trkpt lat="59.5593024418" lon="31.2623332813"><ele>240.95</ele><time>2026-09-02T22:08:09Z</time></trkpt><trkpt lat="59.5593062975" lon="31.2623405736"><ele>241.43</ele><time>2026-09-02T22:08:10Z</time></trkpt><trkpt lat="59.5593098179" lon="31.2623402383"><ele>241.43</ele><time>2026-09-02T22:08:11Z</time></trkpt><trkpt lat="59.5593151823" lon="31.2623417471"><ele>241.43</ele><time>2026-09-02T22:08:12Z</time></trkpt><trkpt lat="59.5593228936" lon="31.2623400707"><ele>240.95</ele><time>2026-09-02T22:08:13Z</time></trkpt><trkpt lat="59.5593304373" lon="31.2623419985"><ele>240.95</ele><time>2026-09-02T22:08:14Z</time></trkpt><trkpt lat="59.5593372267" lon="31.2623436749"><ele>240.95</ele><time>2026-09-02T22:08:15Z</time></trkpt><trkpt lat="59.5593424235" lon="31.2623428367"><ele>240.95</ele><time>2026-09-02T22:08:16Z</time></trkpt><trkpt lat="59.5593465306" lon="31.2623460218"><ele>240.95</ele><time>2026-09-02T22:08:17Z</time></trkpt><trkpt lat="59.5593570918" lon="31.2623491231"><ele>240.95</ele><time>2026-09-02T22:08:18Z</time></trkpt><trkpt lat="59.5593645517" lon="31.2623482849"><ele>240.95</ele><time>2026-09-02T22:08:19Z</time></trkpt><trkpt lat="59.5593719278" lon="31.2623518892"><ele>240.95</ele><time>2026-09-02T22:08:20Z</time></trkpt><trkpt lat="59.5593817346" lon="31.2623603549"><ele>240.95</ele><time>2026-09-02T22:08:21Z</time></trkpt><trkpt lat="59.5593893621" lon="31.2623674795"><ele>240.95</ele><time>2026-09-02T22:08:22Z</time></trkpt><trkpt lat="59.5593974926" lon="31.2623721734"><ele>240.95</ele><time>2026-09-02T22:08:23Z</time></trkpt><trkpt lat="59.5594074670" lon="31.2623747718"><ele>240.47</ele><time>2026-09-02T22:08:24Z</time></trkpt><trkpt lat="59.5594196208" lon="31.2623713352"><ele>240.47</ele><time>2026-09-02T22:08:25Z</time></trkpt><trkpt lat="59.5594262425" lon="31.2623689882"><ele>240.47</ele><time>2026-09-02T22:08:26Z</time></trkpt><trkpt lat="59.5594318584" lon="31.2623693235"><ele>240.47</ele><time>2026-09-02T22:08:27Z</time></trkpt><trkpt lat="59.5594337862" lon="31.2623700779"><ele>240.47</ele><time>2026-09-02T22:08:28Z</time></trkpt><trkpt lat="59.5594353788" lon="31.2623696588"><ele>240.47</ele><time>2026-09-02T22:08:29Z</time></trkpt><trkpt lat="59.5594368875" lon="31.2623695750"><ele>240.47</ele><time>2026-09-02T22:08:30Z</time></trkpt><trkpt lat="59.5594369713" lon="31.2623687368"><ele>239.99</ele><time>2026-09-02T22:08:31Z</time></trkpt><trkpt lat="59.5594370551" lon="31.2623689882"><ele>239.99</ele><time>2026-09-02T22:08:32Z</time></trkpt><trkpt lat="59.5594373904" lon="31.2623687368"><ele>239.99</ele><time>2026-09-02T22:08:33Z</time></trkpt><trkpt lat="59.5594380610" lon="31.2623685692"><ele>239.99</ele><time>2026-09-02T22:08:34Z</time></trkpt><trkpt lat="59.5594400726" lon="31.2623670604"><ele>239.99</ele><time>2026-09-02T22:08:35Z</time></trkpt><trkpt lat="59.5594417490" lon="31.2623670604"><ele>239.99</ele><time>2026-09-02T22:08:36Z</time></trkpt><trkpt lat="59.5594425872" lon="31.2623691559"><ele>239.99</ele><time>2026-09-02T22:08:37Z</time></trkpt><trkpt lat="59.5594427548" lon="31.2623712514"><ele>239.99</ele><time>2026-09-02T22:08:38Z</time></trkpt><trkpt lat="59.5594439283" lon="31.2623698264"><ele>239.99</ele><time>2026-09-02T22:08:39Z</time></trkpt><trkpt lat="59.5594460238" lon="31.2623681501"><ele>239.99</ele><time>2026-09-02T22:08:40Z</time></trkpt><trkpt lat="59.5594477840" lon="31.2623679824"><ele>239.99</ele><time>2026-09-02T22:08:41Z</time></trkpt><trkpt lat="59.5594475325" lon="31.2623685692"><ele>239.99</ele><time>2026-09-02T22:08:42Z</time></trkpt><trkpt lat="59.5594463591" lon="31.2623695750"><ele>239.99</ele><time>2026-09-02T22:08:43Z</time></trkpt><trkpt lat="59.5594477840" lon="31.2623689882"><ele>239.99</ele><time>2026-09-02T22:08:44Z</time></trkpt><trkpt lat="59.5594463591" lon="31.2623699941"><ele>239.99</ele><time>2026-09-02T22:08:45Z</time></trkpt><trkpt lat="59.5594450179" lon="31.2623702455"><ele>239.99</ele><time>2026-09-02T22:08:46Z</time></trkpt><trkpt lat="59.5594441798" lon="31.2623706646"><ele>239.99</ele><time>2026-09-02T22:08:47Z</time></trkpt><trkpt lat="59.5594428387" lon="31.2623708323"><ele>239.99</ele><time>2026-09-02T22:08:48Z</time></trkpt><trkpt lat="59.5594415814" lon="31.2623704970"><ele>239.99</ele><time>2026-09-02T22:08:49Z</time></trkpt><trkpt lat="59.5594410785" lon="31.2623699941"><ele>239.99</ele><time>2026-09-02T22:08:50Z</time></trkpt><trkpt lat="59.5594403241" lon="31.2623702455"><ele>239.99</ele><time>2026-09-02T22:08:51Z</time></trkpt><trkpt lat="59.5594402403" lon="31.2623696588"><ele>239.99</ele><time>2026-09-02T22:08:52Z</time></trkpt><trkpt lat="59.5594395697" lon="31.2623699941"><ele>239.99</ele><time>2026-09-02T22:08:53Z</time></trkpt><trkpt lat="59.5594397373" lon="31.2623692397"><ele>239.99</ele><time>2026-09-02T22:08:54Z</time></trkpt><trkpt lat="59.5594389830" lon="31.2623697426"><ele>239.99</ele><time>2026-09-02T22:08:55Z</time></trkpt><trkpt lat="59.5594392344" lon="31.2623692397"><ele>239.99</ele><time>2026-09-02T22:08:56Z</time></trkpt><trkpt lat="59.5594401564" lon="31.2623708323"><ele>239.99</ele><time>2026-09-02T22:08:57Z</time></trkpt><trkpt lat="59.5594402403" lon="31.2623718381"><ele>239.99</ele><time>2026-09-02T22:08:58Z</time></trkpt><trkpt lat="59.5594408270" lon="31.2623722572"><ele>239.99</ele><time>2026-09-02T22:08:59Z</time></trkpt><trkpt lat="59.5594417490" lon="31.2623728439"><ele>239.99</ele><time>2026-09-02T22:09:00Z</time></trkpt><trkpt lat="59.5594426710" lon="31.2623724248"><ele>239.99</ele><time>2026-09-02T22:09:01Z</time></trkpt><trkpt lat="59.5594446827" lon="31.2623712514"><ele>239.99</ele><time>2026-09-02T22:09:02Z</time></trkpt><trkpt lat="59.5594456885" lon="31.2623708323"><ele>239.99</ele><time>2026-09-02T22:09:03Z</time></trkpt><trkpt lat="59.5594462752" lon="31.2623704970"><ele>239.99</ele><time>2026-09-02T22:09:04Z</time></trkpt><trkpt lat="59.5594466943" lon="31.2623707484"><ele>239.99</ele><time>2026-09-02T22:09:05Z</time></trkpt><trkpt lat="59.5594462752" lon="31.2623703294"><ele>239.99</ele><time>2026-09-02T22:09:06Z</time></trkpt><trkpt lat="59.5594465267" lon="31.2623730954"><ele>239.99</ele><time>2026-09-02T22:09:07Z</time></trkpt><trkpt lat="59.5594454370" lon="31.2623705808"><ele>239.99</ele><time>2026-09-02T22:09:08Z</time></trkpt><trkpt lat="59.5594462752" lon="31.2623732630"><ele>239.99</ele><time>2026-09-02T22:09:09Z</time></trkpt><trkpt lat="59.5594454370" lon="31.2623720895"><ele>239.99</ele><time>2026-09-02T22:09:10Z</time></trkpt><trkpt lat="59.5594457723" lon="31.2623719219"><ele>239.99</ele><time>2026-09-02T22:09:11Z</time></trkpt><trkpt lat="59.5594459400" lon="31.2623710837"><ele>239.99</ele><time>2026-09-02T22:09:12Z</time></trkpt><trkpt lat="59.5594472811" lon="31.2623702455"><ele>239.99</ele><time>2026-09-02T22:09:13Z</time></trkpt><trkpt lat="59.5594481193" lon="31.2623704970"><ele>239.99</ele><time>2026-09-02T22:09:14Z</time></trkpt><trkpt lat="59.5594492927" lon="31.2623696588"><ele>239.99</ele><time>2026-09-02T22:09:15Z</time></trkpt><trkpt lat="59.5594489574" lon="31.2623696588"><ele>239.99</ele><time>2026-09-02T22:09:16Z</time></trkpt><trkpt lat="59.5594495442" lon="31.2623691559"><ele>239.99</ele><time>2026-09-02T22:09:17Z</time></trkpt><trkpt lat="59.5594491251" lon="31.2623692397"><ele>239.99</ele><time>2026-09-02T22:09:18Z</time></trkpt><trkpt lat="59.5594497956" lon="31.2623685692"><ele>239.99</ele><time>2026-09-02T22:09:19Z</time></trkpt><trkpt lat="59.5594498795" lon="31.2623691559"><ele>239.99</ele><time>2026-09-02T22:09:20Z</time></trkpt><trkpt lat="59.5594505500" lon="31.2623684853"><ele>239.99</ele><time>2026-09-02T22:09:21Z</time></trkpt><trkpt lat="59.5594506338" lon="31.2623691559"><ele>239.99</ele><time>2026-09-02T22:09:22Z</time></trkpt><trkpt lat="59.5594506338" lon="31.2623686530"><ele>239.99</ele><time>2026-09-02T22:09:23Z</time></trkpt><trkpt lat="59.5594507176" lon="31.2623690721"><ele>239.99</ele><time>2026-09-02T22:09:24Z</time></trkpt><trkpt lat="59.5594509691" lon="31.2623690721"><ele>239.99</ele><time>2026-09-02T22:09:25Z</time></trkpt><trkpt lat="59.5594504662" lon="31.2623687368"><ele>239.99</ele><time>2026-09-02T22:09:26Z</time></trkpt><trkpt lat="59.5594505500" lon="31.2623692397"><ele>239.99</ele><time>2026-09-02T22:09:27Z</time></trkpt><trkpt lat="59.5594504662" lon="31.2623689882"><ele>239.99</ele><time>2026-09-02T22:09:28Z</time></trkpt><trkpt lat="59.5594506338" lon="31.2623680662"><ele>239.99</ele><time>2026-09-02T22:09:29Z</time></trkpt><trkpt lat="59.5594503824" lon="31.2623691559"><ele>239.99</ele><time>2026-09-02T22:09:30Z</time></trkpt><trkpt lat="59.5594501309" lon="31.2623675633"><ele>239.99</ele><time>2026-09-02T22:09:31Z</time></trkpt><trkpt lat="59.5594502985" lon="31.2623677310"><ele>239.99</ele><time>2026-09-02T22:09:32Z</time></trkpt><trkpt lat="59.5594501309" lon="31.2623675633"><ele>239.99</ele><time>2026-09-02T22:09:33Z</time></trkpt><trkpt lat="59.5594498795" lon="31.2623671442"><ele>239.99</ele><time>2026-09-02T22:09:34Z</time></trkpt><trkpt lat="59.5594495442" lon="31.2623666413"><ele>239.99</ele><time>2026-09-02T22:09:35Z</time></trkpt><trkpt lat="59.5594496280" lon="31.2623622827"><ele>239.99</ele><time>2026-09-02T22:09:36Z</time></trkpt><trkpt lat="59.5594505500" lon="31.2623600196"><ele>239.99</ele><time>2026-09-02T22:09:37Z</time></trkpt><trkpt lat="59.5594495442" lon="31.2623584270"><ele>239.99</ele><time>2026-09-02T22:09:38Z</time></trkpt><trkpt lat="59.5594488736" lon="31.2623578403"><ele>239.99</ele><time>2026-09-02T22:09:39Z</time></trkpt><trkpt lat="59.5594479516" lon="31.2623579241"><ele>239.99</ele><time>2026-09-02T22:09:40Z</time></trkpt><trkpt lat="59.5594470296" lon="31.2623580918"><ele>239.99</ele><time>2026-09-02T22:09:41Z</time></trkpt><trkpt lat="59.5594463591" lon="31.2623561639"><ele>239.99</ele><time>2026-09-02T22:09:42Z</time></trkpt><trkpt lat="59.5594459400" lon="31.2623543199"><ele>239.99</ele><time>2026-09-02T22:09:43Z</time></trkpt><trkpt lat="59.5594452694" lon="31.2623535655"><ele>239.99</ele><time>2026-09-02T22:09:44Z</time></trkpt><trkpt lat="59.5594453532" lon="31.2623488717"><ele>239.99</ele><time>2026-09-02T22:09:45Z</time></trkpt><trkpt lat="59.5594448503" lon="31.2623398192"><ele>239.99</ele><time>2026-09-02T22:09:46Z</time></trkpt><trkpt lat="59.5594461914" lon="31.2623404898"><ele>239.99</ele><time>2026-09-02T22:09:47Z</time></trkpt><trkpt lat="59.5594456885" lon="31.2623330299"><ele>239.99</ele><time>2026-09-02T22:09:48Z</time></trkpt><trkpt lat="59.5594435930" lon="31.2623258214"><ele>239.99</ele><time>2026-09-02T22:09:49Z</time></trkpt><trkpt lat="59.5594393183" lon="31.2623162661"><ele>239.99</ele><time>2026-09-02T22:09:50Z</time></trkpt><trkpt lat="59.5594356302" lon="31.2623052858"><ele>239.99</ele><time>2026-09-02T22:09:51Z</time></trkpt><trkpt lat="59.5594319422" lon="31.2622968201"><ele>239.99</ele><time>2026-09-02T22:09:52Z</time></trkpt><trkpt lat="59.5594282541" lon="31.2622844987"><ele>239.99</ele><time>2026-09-02T22:09:53Z</time></trkpt><trkpt lat="59.5594231412" lon="31.2622771226"><ele>239.99</ele><time>2026-09-02T22:09:54Z</time></trkpt><trkpt lat="59.5594182797" lon="31.2622642983"><ele>239.99</ele><time>2026-09-02T22:09:55Z</time></trkpt><trkpt lat="59.5594162680" lon="31.2622478697"><ele>239.99</ele><time>2026-09-02T22:09:56Z</time></trkpt><trkpt lat="59.5594140887" lon="31.2622288428"><ele>240.47</ele><time>2026-09-02T22:09:57Z</time></trkpt><trkpt lat="59.5594119933" lon="31.2622111570"><ele>240.47</ele><time>2026-09-02T22:09:58Z</time></trkpt><trkpt lat="59.5594094787" lon="31.2621887773"><ele>240.47</ele><time>2026-09-02T22:09:59Z</time></trkpt><trkpt lat="59.5594060421" lon="31.2621711753"><ele>240.47</ele><time>2026-09-02T22:10:00Z</time></trkpt><trkpt lat="59.5594012644" lon="31.2621524837"><ele>240.47</ele><time>2026-09-02T22:10:01Z</time></trkpt><trkpt lat="59.5593959000" lon="31.2621353846"><ele>240.47</ele><time>2026-09-02T22:10:02Z</time></trkpt><trkpt lat="59.5593900327" lon="31.2621160224"><ele>240.47</ele><time>2026-09-02T22:10:03Z</time></trkpt><trkpt lat="59.5593869314" lon="31.2621042877"><ele>240.47</ele><time>2026-09-02T22:10:04Z</time></trkpt><trkpt lat="59.5593775436" lon="31.2620866857"><ele>240.47</ele><time>2026-09-02T22:10:05Z</time></trkpt><trkpt lat="59.5593707543" lon="31.2620766275"><ele>240.47</ele><time>2026-09-02T22:10:06Z</time></trkpt><trkpt lat="59.5593651384" lon="31.2620745320"><ele>240.47</ele><time>2026-09-02T22:10:07Z</time></trkpt><trkpt lat="59.5593551639" lon="31.2620699219"><ele>240.95</ele><time>2026-09-02T22:10:08Z</time></trkpt><trkpt lat="59.5593437646" lon="31.2620641384"><ele>240.95</ele><time>2026-09-02T22:10:09Z</time></trkpt><trkpt lat="59.5593348797" lon="31.2620606180"><ele>240.95</ele><time>2026-09-02T22:10:10Z</time></trkpt><trkpt lat="59.5593252406" lon="31.2620572653"><ele>240.95</ele><time>2026-09-02T22:10:11Z</time></trkpt><trkpt lat="59.5593139250" lon="31.2620534934"><ele>240.95</ele><time>2026-09-02T22:10:12Z</time></trkpt><trkpt lat="59.5593023580" lon="31.2620534934"><ele>240.95</ele><time>2026-09-02T22:10:13Z</time></trkpt><trkpt lat="59.5592929702" lon="31.2620533258"><ele>240.95</ele><time>2026-09-02T22:10:14Z</time></trkpt><trkpt lat="59.5592854265" lon="31.2620535772"><ele>240.95</ele><time>2026-09-02T22:10:15Z</time></trkpt><trkpt lat="59.5592772961" lon="31.2620529905"><ele>240.95</ele><time>2026-09-02T22:10:16Z</time></trkpt><trkpt lat="59.5592702553" lon="31.2620517332"><ele>240.95</ele><time>2026-09-02T22:10:17Z</time></trkpt><trkpt lat="59.5592632983" lon="31.2620482966"><ele>241.43</ele><time>2026-09-02T22:10:18Z</time></trkpt><trkpt lat="59.5592582691" lon="31.2620412558"><ele>241.43</ele><time>2026-09-02T22:10:19Z</time></trkpt><trkpt lat="59.5592556708" lon="31.2620321196"><ele>241.43</ele><time>2026-09-02T22:10:20Z</time></trkpt><trkpt lat="59.5592525695" lon="31.2620215584"><ele>241.43</ele><time>2026-09-02T22:10:21Z</time></trkpt><trkpt lat="59.5592504740" lon="31.2620143499"><ele>241.43</ele><time>2026-09-02T22:10:22Z</time></trkpt><trkpt lat="59.5592465345" lon="31.2620049622"><ele>241.43</ele><time>2026-09-02T22:10:23Z</time></trkpt><trkpt lat="59.5592411701" lon="31.2619913835"><ele>241.43</ele><time>2026-09-02T22:10:24Z</time></trkpt><trkpt lat="59.5592359733" lon="31.2619785592"><ele>241.43</ele><time>2026-09-02T22:10:25Z</time></trkpt><trkpt lat="59.5592323691" lon="31.2619675789"><ele>241.43</ele><time>2026-09-02T22:10:26Z</time></trkpt><trkpt lat="59.5592264179" lon="31.2619557604"><ele>241.43</ele><time>2026-09-02T22:10:27Z</time></trkpt><trkpt lat="59.5592206344" lon="31.2619508989"><ele>241.43</ele><time>2026-09-02T22:10:28Z</time></trkpt><trkpt lat="59.5592131745" lon="31.2619442772"><ele>241.43</ele><time>2026-09-02T22:10:29Z</time></trkpt><trkpt lat="59.5592080615" lon="31.2619369850"><ele>241.43</ele><time>2026-09-02T22:10:30Z</time></trkpt><trkpt lat="59.5592047926" lon="31.2619256694"><ele>241.91</ele><time>2026-09-02T22:10:31Z</time></trkpt><trkpt lat="59.5592003502" lon="31.2619100790"><ele>241.91</ele><time>2026-09-02T22:10:32Z</time></trkpt><trkpt lat="59.5591978356" lon="31.2618968356"><ele>241.91</ele><time>2026-09-02T22:10:33Z</time></trkpt><trkpt lat="59.5591982547" lon="31.2618892919"><ele>241.91</ele><time>2026-09-02T22:10:34Z</time></trkpt><trkpt lat="59.5591942314" lon="31.2618776411"><ele>241.91</ele><time>2026-09-02T22:10:35Z</time></trkpt><trkpt lat="59.5591927227" lon="31.2618703488"><ele>241.91</ele><time>2026-09-02T22:10:36Z</time></trkpt><trkpt lat="59.5591890346" lon="31.2618610449"><ele>241.91</ele><time>2026-09-02T22:10:37Z</time></trkpt><trkpt lat="59.5591861848" lon="31.2618501484"><ele>241.91</ele><time>2026-09-02T22:10:38Z</time></trkpt><trkpt lat="59.5591816586" lon="31.2618395872"><ele>242.39</ele><time>2026-09-02T22:10:39Z</time></trkpt><trkpt lat="59.5591805689" lon="31.2618341390"><ele>242.39</ele><time>2026-09-02T22:10:40Z</time></trkpt><trkpt lat="59.5591779705" lon="31.2618313730"><ele>242.39</ele><time>2026-09-02T22:10:41Z</time></trkpt><trkpt lat="59.5591760427" lon="31.2618267629"><ele>242.39</ele><time>2026-09-02T22:10:42Z</time></trkpt><trkpt lat="59.5591718517" lon="31.2618201412"><ele>242.39</ele><time>2026-09-02T22:10:43Z</time></trkpt><trkpt lat="59.5591686666" lon="31.2618150283"><ele>242.39</ele><time>2026-09-02T22:10:44Z</time></trkpt><trkpt lat="59.5591695886" lon="31.2618169561"><ele>242.39</ele><time>2026-09-02T22:10:45Z</time></trkpt><trkpt lat="59.5591675770" lon="31.2618160341"><ele>242.39</ele><time>2026-09-02T22:10:46Z</time></trkpt><trkpt lat="59.5591656491" lon="31.2618122622"><ele>242.39</ele><time>2026-09-02T22:10:47Z</time></trkpt><trkpt lat="59.5591633860" lon="31.2618066464"><ele>242.39</ele><time>2026-09-02T22:10:48Z</time></trkpt><trkpt lat="59.5591622964" lon="31.2618039642"><ele>242.39</ele><time>2026-09-02T22:10:49Z</time></trkpt><trkpt lat="59.5591612905" lon="31.2617996894"><ele>242.39</ele><time>2026-09-02T22:10:50Z</time></trkpt><trkpt lat="59.5591613743" lon="31.2617947441"><ele>242.39</ele><time>2026-09-02T22:10:51Z</time></trkpt><trkpt lat="59.5591599494" lon="31.2617911398"><ele>242.39</ele><time>2026-09-02T22:10:52Z</time></trkpt><trkpt lat="59.5591587760" lon="31.2617845181"><ele>242.39</ele><time>2026-09-02T22:10:53Z</time></trkpt><trkpt lat="59.5591555908" lon="31.2617758848"><ele>242.39</ele><time>2026-09-02T22:10:54Z</time></trkpt><trkpt lat="59.5591576863" lon="31.2617774773"><ele>242.39</ele><time>2026-09-02T22:10:55Z</time></trkpt><trkpt lat="59.5591544174" lon="31.2617741246"><ele>242.39</ele><time>2026-09-02T22:10:56Z</time></trkpt><trkpt lat="59.5591525733" lon="31.2617697660"><ele>242.39</ele><time>2026-09-02T22:10:57Z</time></trkpt><trkpt lat="59.5591495559" lon="31.2617677543"><ele>242.39</ele><time>2026-09-02T22:10:58Z</time></trkpt><trkpt lat="59.5591487177" lon="31.2617577799"><ele>242.39</ele><time>2026-09-02T22:10:59Z</time></trkpt><trkpt lat="59.5591420960" lon="31.2617445365"><ele>242.39</ele><time>2026-09-02T22:11:00Z</time></trkpt><trkpt lat="59.5591343846" lon="31.2617290299"><ele>242.39</ele><time>2026-09-02T22:11:01Z</time></trkpt><trkpt lat="59.5591280982" lon="31.2617177982"><ele>242.39</ele><time>2026-09-02T22:11:02Z</time></trkpt><trkpt lat="59.5591248292" lon="31.2617079914"><ele>242.39</ele><time>2026-09-02T22:11:03Z</time></trkpt><trkpt lat="59.5591220632" lon="31.2616977654"><ele>242.39</ele><time>2026-09-02T22:11:04Z</time></trkpt><trkpt lat="59.5591195486" lon="31.2616921496"><ele>242.39</ele><time>2026-09-02T22:11:05Z</time></trkpt><trkpt lat="59.5591149386" lon="31.2616844382"><ele>242.39</ele><time>2026-09-02T22:11:06Z</time></trkpt><trkpt lat="59.5591095742" lon="31.2616749667"><ele>242.39</ele><time>2026-09-02T22:11:07Z</time></trkpt><trkpt lat="59.5591054671" lon="31.2616670877"><ele>242.39</ele><time>2026-09-02T22:11:08Z</time></trkpt><trkpt lat="59.5591060538" lon="31.2616681773"><ele>242.87</ele><time>2026-09-02T22:11:09Z</time></trkpt><trkpt lat="59.5591047965" lon="31.2616638187"><ele>242.87</ele><time>2026-09-02T22:11:10Z</time></trkpt><trkpt lat="59.5591051318" lon="31.2616620585"><ele>242.87</ele><time>2026-09-02T22:11:11Z</time></trkpt><trkpt lat="59.5591062214" lon="31.2616605498"><ele>242.87</ele><time>2026-09-02T22:11:12Z</time></trkpt><trkpt lat="59.5591052994" lon="31.2616608851"><ele>242.87</ele><time>2026-09-02T22:11:13Z</time></trkpt><trkpt lat="59.5591040421" lon="31.2616608851"><ele>242.87</ele><time>2026-09-02T22:11:14Z</time></trkpt><trkpt lat="59.5591015276" lon="31.2616601307"><ele>243.35</ele><time>2026-09-02T22:11:15Z</time></trkpt><trkpt lat="59.5591038745" lon="31.2616610527"><ele>243.35</ele><time>2026-09-02T22:11:16Z</time></trkpt><trkpt lat="59.5591015276" lon="31.2616602983"><ele>243.35</ele><time>2026-09-02T22:11:17Z</time></trkpt><trkpt lat="59.5591020305" lon="31.2616627291"><ele>243.35</ele><time>2026-09-02T22:11:18Z</time></trkpt><trkpt lat="59.5591027848" lon="31.2616635673"><ele>243.35</ele><time>2026-09-02T22:11:19Z</time></trkpt><trkpt lat="59.5591027848" lon="31.2616623938"><ele>243.35</ele><time>2026-09-02T22:11:20Z</time></trkpt><trkpt lat="59.5591026172" lon="31.2616617233"><ele>242.87</ele><time>2026-09-02T22:11:21Z</time></trkpt><trkpt lat="59.5591013599" lon="31.2616586220"><ele>242.87</ele><time>2026-09-02T22:11:22Z</time></trkpt><trkpt lat="59.5591027848" lon="31.2616610527"><ele>242.87</ele><time>2026-09-02T22:11:23Z</time></trkpt><trkpt lat="59.5591018628" lon="31.2616593763"><ele>242.87</ele><time>2026-09-02T22:11:24Z</time></trkpt><trkpt lat="59.5591028687" lon="31.2616599631"><ele>242.87</ele><time>2026-09-02T22:11:25Z</time></trkpt><trkpt lat="59.5591029525" lon="31.2616586220"><ele>242.87</ele><time>2026-09-02T22:11:26Z</time></trkpt><trkpt lat="59.5591035392" lon="31.2616582867"><ele>242.87</ele><time>2026-09-02T22:11:27Z</time></trkpt><trkpt lat="59.5591033716" lon="31.2616587896"><ele>242.87</ele><time>2026-09-02T22:11:28Z</time></trkpt><trkpt lat="59.5591038745" lon="31.2616602983"><ele>242.87</ele><time>2026-09-02T22:11:29Z</time></trkpt><trkpt lat="59.5591034554" lon="31.2616610527"><ele>242.87</ele><time>2026-09-02T22:11:30Z</time></trkpt><trkpt lat="59.5591029525" lon="31.2616625614"><ele>242.87</ele><time>2026-09-02T22:11:31Z</time></trkpt><trkpt lat="59.5591026172" lon="31.2616643216"><ele>242.87</ele><time>2026-09-02T22:11:32Z</time></trkpt><trkpt lat="59.5591027848" lon="31.2616665848"><ele>242.87</ele><time>2026-09-02T22:11:33Z</time></trkpt><trkpt lat="59.5591027848" lon="31.2616674230"><ele>242.87</ele><time>2026-09-02T22:11:34Z</time></trkpt><trkpt lat="59.5591032878" lon="31.2616688479"><ele>242.87</ele><time>2026-09-02T22:11:35Z</time></trkpt><trkpt lat="59.5591033716" lon="31.2616692670"><ele>242.87</ele><time>2026-09-02T22:11:36Z</time></trkpt><trkpt lat="59.5591034554" lon="31.2616700213"><ele>242.87</ele><time>2026-09-02T22:11:37Z</time></trkpt><trkpt lat="59.5591031201" lon="31.2616697699"><ele>242.87</ele><time>2026-09-02T22:11:38Z</time></trkpt><trkpt lat="59.5591032878" lon="31.2616700213"><ele>242.87</ele><time>2026-09-02T22:11:39Z</time></trkpt><trkpt lat="59.5591030363" lon="31.2616698537"><ele>242.87</ele><time>2026-09-02T22:11:40Z</time></trkpt><trkpt lat="59.5591027848" lon="31.2616681773"><ele>242.87</ele><time>2026-09-02T22:11:41Z</time></trkpt><trkpt lat="59.5591022819" lon="31.2616675906"><ele>242.87</ele><time>2026-09-02T22:11:42Z</time></trkpt><trkpt lat="59.5591017790" lon="31.2616662495"><ele>242.87</ele><time>2026-09-02T22:11:43Z</time></trkpt><trkpt lat="59.5591009408" lon="31.2616667524"><ele>242.87</ele><time>2026-09-02T22:11:44Z</time></trkpt><trkpt lat="59.5591012761" lon="31.2616672553"><ele>242.87</ele><time>2026-09-02T22:11:45Z</time></trkpt><trkpt lat="59.5591013599" lon="31.2616668362"><ele>242.87</ele><time>2026-09-02T22:11:46Z</time></trkpt><trkpt lat="59.5591015276" lon="31.2616661657"><ele>242.87</ele><time>2026-09-02T22:11:47Z</time></trkpt><trkpt lat="59.5591016952" lon="31.2616657466"><ele>242.87</ele><time>2026-09-02T22:11:48Z</time></trkpt><trkpt lat="59.5591021981" lon="31.2616662495"><ele>242.87</ele><time>2026-09-02T22:11:49Z</time></trkpt><trkpt lat="59.5591021981" lon="31.2616665848"><ele>242.87</ele><time>2026-09-02T22:11:50Z</time></trkpt><trkpt lat="59.5591028687" lon="31.2616668362"><ele>242.87</ele><time>2026-09-02T22:11:51Z</time></trkpt><trkpt lat="59.5591030363" lon="31.2616676744"><ele>242.87</ele><time>2026-09-02T22:11:52Z</time></trkpt><trkpt lat="59.5591033716" lon="31.2616685964"><ele>242.87</ele><time>2026-09-02T22:11:53Z</time></trkpt><trkpt lat="59.5591030363" lon="31.2616689317"><ele>242.87</ele><time>2026-09-02T22:11:54Z</time></trkpt><trkpt lat="59.5591028687" lon="31.2616690993"><ele>242.87</ele><time>2026-09-02T22:11:55Z</time></trkpt><trkpt lat="59.5591028687" lon="31.2616686802"><ele>242.87</ele><time>2026-09-02T22:11:56Z</time></trkpt><trkpt lat="59.5591025334" lon="31.2616687641"><ele>242.87</ele><time>2026-09-02T22:11:57Z</time></trkpt><trkpt lat="59.5591018628" lon="31.2616701890"><ele>242.87</ele><time>2026-09-02T22:11:58Z</time></trkpt><trkpt lat="59.5591014437" lon="31.2616711948"><ele>242.87</ele><time>2026-09-02T22:11:59Z</time></trkpt><trkpt lat="59.5591008570" lon="31.2616715301"><ele>242.87</ele><time>2026-09-02T22:12:00Z</time></trkpt><trkpt lat="59.5591005217" lon="31.2616722845"><ele>242.87</ele><time>2026-09-02T22:12:01Z</time></trkpt><trkpt lat="59.5591008570" lon="31.2616725359"><ele>242.87</ele><time>2026-09-02T22:12:02Z</time></trkpt><trkpt lat="59.5591006894" lon="31.2616726197"><ele>242.87</ele><time>2026-09-02T22:12:03Z</time></trkpt><trkpt lat="59.5591006894" lon="31.2616734579"><ele>242.87</ele><time>2026-09-02T22:12:04Z</time></trkpt><trkpt lat="59.5591002703" lon="31.2616725359"><ele>242.87</ele><time>2026-09-02T22:12:05Z</time></trkpt><trkpt lat="59.5591003541" lon="31.2616739608"><ele>242.87</ele><time>2026-09-02T22:12:06Z</time></trkpt><trkpt lat="59.5590996835" lon="31.2616736256"><ele>242.87</ele><time>2026-09-02T22:12:07Z</time></trkpt><trkpt lat="59.5591001865" lon="31.2616754696"><ele>242.87</ele><time>2026-09-02T22:12:08Z</time></trkpt><trkpt lat="59.5590993483" lon="31.2616747990"><ele>242.87</ele><time>2026-09-02T22:12:09Z</time></trkpt><trkpt lat="59.5590989292" lon="31.2616748828"><ele>242.87</ele><time>2026-09-02T22:12:10Z</time></trkpt><trkpt lat="59.5590982586" lon="31.2616740447"><ele>242.87</ele><time>2026-09-02T22:12:11Z</time></trkpt><trkpt lat="59.5590982586" lon="31.2616725359"><ele>242.87</ele><time>2026-09-02T22:12:12Z</time></trkpt><trkpt lat="59.5590982586" lon="31.2616714463"><ele>242.87</ele><time>2026-09-02T22:12:13Z</time></trkpt><trkpt lat="59.5590983424" lon="31.2616704404"><ele>242.87</ele><time>2026-09-02T22:12:14Z</time></trkpt><trkpt lat="59.5590993483" lon="31.2616709433"><ele>242.87</ele><time>2026-09-02T22:12:15Z</time></trkpt><trkpt lat="59.5590995997" lon="31.2616713624"><ele>242.87</ele><time>2026-09-02T22:12:16Z</time></trkpt><trkpt lat="59.5590993483" lon="31.2616713624"><ele>242.87</ele><time>2026-09-02T22:12:17Z</time></trkpt><trkpt lat="59.5590996835" lon="31.2616725359"><ele>242.87</ele><time>2026-09-02T22:12:18Z</time></trkpt><trkpt lat="59.5590997674" lon="31.2616707757"><ele>242.87</ele><time>2026-09-02T22:12:19Z</time></trkpt><trkpt lat="59.5590999350" lon="31.2616694346"><ele>242.87</ele><time>2026-09-02T22:12:20Z</time></trkpt><trkpt lat="59.5591006894" lon="31.2616689317"><ele>242.87</ele><time>2026-09-02T22:12:21Z</time></trkpt><trkpt lat="59.5590999350" lon="31.2616696861"><ele>242.87</ele><time>2026-09-02T22:12:22Z</time></trkpt><trkpt lat="59.5591004379" lon="31.2616681773"><ele>242.87</ele><time>2026-09-02T22:12:23Z</time></trkpt><trkpt lat="59.5590997674" lon="31.2616697699"><ele>242.87</ele><time>2026-09-02T22:12:24Z</time></trkpt><trkpt lat="59.5591003541" lon="31.2616673391"><ele>242.87</ele><time>2026-09-02T22:12:25Z</time></trkpt><trkpt lat="59.5590998512" lon="31.2616691831"><ele>242.87</ele><time>2026-09-02T22:12:26Z</time></trkpt><trkpt lat="59.5591004379" lon="31.2616676744"><ele>242.87</ele><time>2026-09-02T22:12:27Z</time></trkpt><trkpt lat="59.5590998512" lon="31.2616690993"><ele>242.87</ele><time>2026-09-02T22:12:28Z</time></trkpt><trkpt lat="59.5591001865" lon="31.2616663333"><ele>242.87</ele><time>2026-09-02T22:12:29Z</time></trkpt><trkpt lat="59.5591000188" lon="31.2616695184"><ele>242.87</ele><time>2026-09-02T22:12:30Z</time></trkpt><trkpt lat="59.5591003541" lon="31.2616675906"><ele>242.87</ele><time>2026-09-02T22:12:31Z</time></trkpt><trkpt lat="59.5591002703" lon="31.2616690993"><ele>242.87</ele><time>2026-09-02T22:12:32Z</time></trkpt><trkpt lat="59.5591003541" lon="31.2616672553"><ele>242.87</ele><time>2026-09-02T22:12:33Z</time></trkpt><trkpt lat="59.5590999350" lon="31.2616679259"><ele>242.87</ele><time>2026-09-02T22:12:34Z</time></trkpt><trkpt lat="59.5591005217" lon="31.2616675906"><ele>242.87</ele><time>2026-09-02T22:12:35Z</time></trkpt><trkpt lat="59.5590999350" lon="31.2616668362"><ele>242.87</ele><time>2026-09-02T22:12:36Z</time></trkpt><trkpt lat="59.5591005217" lon="31.2616662495"><ele>242.87</ele><time>2026-09-02T22:12:37Z</time></trkpt><trkpt lat="59.5591009408" lon="31.2616667524"><ele>242.87</ele><time>2026-09-02T22:12:38Z</time></trkpt><trkpt lat="59.5591020305" lon="31.2616670877"><ele>242.87</ele><time>2026-09-02T22:12:39Z</time></trkpt><trkpt lat="59.5591017790" lon="31.2616661657"><ele>242.87</ele><time>2026-09-02T22:12:40Z</time></trkpt><trkpt lat="59.5591016952" lon="31.2616680935"><ele>242.87</ele><time>2026-09-02T22:12:41Z</time></trkpt><trkpt lat="59.5591010246" lon="31.2616677582"><ele>242.87</ele><time>2026-09-02T22:12:42Z</time></trkpt><trkpt lat="59.5591009408" lon="31.2616663333"><ele>242.87</ele><time>2026-09-02T22:12:43Z</time></trkpt><trkpt lat="59.5590991806" lon="31.2616690993"><ele>242.87</ele><time>2026-09-02T22:12:44Z</time></trkpt><trkpt lat="59.5590983424" lon="31.2616720330"><ele>242.87</ele><time>2026-09-02T22:12:45Z</time></trkpt><trkpt lat="59.5590976719" lon="31.2616737932"><ele>242.87</ele><time>2026-09-02T22:12:46Z</time></trkpt><trkpt lat="59.5590970851" lon="31.2616755534"><ele>242.87</ele><time>2026-09-02T22:12:47Z</time></trkpt><trkpt lat="59.5590969175" lon="31.2616776489"><ele>242.87</ele><time>2026-09-02T22:12:48Z</time></trkpt><trkpt lat="59.5590964984" lon="31.2616793253"><ele>242.87</ele><time>2026-09-02T22:12:49Z</time></trkpt><trkpt lat="59.5590966661" lon="31.2616793253"><ele>242.87</ele><time>2026-09-02T22:12:50Z</time></trkpt><trkpt lat="59.5590982586" lon="31.2616780680"><ele>242.87</ele><time>2026-09-02T22:12:51Z</time></trkpt><trkpt lat="59.5590986777" lon="31.2616806664"><ele>242.87</ele><time>2026-09-02T22:12:52Z</time></trkpt><trkpt lat="59.5591002703" lon="31.2616803311"><ele>242.87</ele><time>2026-09-02T22:12:53Z</time></trkpt><trkpt lat="59.5591006894" lon="31.2616810855"><ele>242.87</ele><time>2026-09-02T22:12:54Z</time></trkpt><trkpt lat="59.5590999350" lon="31.2616831809"><ele>242.87</ele><time>2026-09-02T22:12:55Z</time></trkpt><trkpt lat="59.5591010246" lon="31.2616809178"><ele>242.87</ele><time>2026-09-02T22:12:56Z</time></trkpt><trkpt lat="59.5591002703" lon="31.2616804987"><ele>242.87</ele><time>2026-09-02T22:12:57Z</time></trkpt><trkpt lat="59.5591002703" lon="31.2616802473"><ele>242.87</ele><time>2026-09-02T22:12:58Z</time></trkpt><trkpt lat="59.5591000188" lon="31.2616797443"><ele>242.87</ele><time>2026-09-02T22:12:59Z</time></trkpt><trkpt lat="59.5590996835" lon="31.2616791576"><ele>242.87</ele><time>2026-09-02T22:13:00Z</time></trkpt><trkpt lat="59.5590992644" lon="31.2616784871"><ele>242.87</ele><time>2026-09-02T22:13:01Z</time></trkpt><trkpt lat="59.5590988453" lon="31.2616789900"><ele>242.87</ele><time>2026-09-02T22:13:02Z</time></trkpt><trkpt lat="59.5590980910" lon="31.2616789900"><ele>242.87</ele><time>2026-09-02T22:13:03Z</time></trkpt><trkpt lat="59.5590975881" lon="31.2616779841"><ele>242.87</ele><time>2026-09-02T22:13:04Z</time></trkpt><trkpt lat="59.5590971690" lon="31.2616773974"><ele>242.87</ele><time>2026-09-02T22:13:05Z</time></trkpt><trkpt lat="59.5590965822" lon="31.2616769783"><ele>242.87</ele><time>2026-09-02T22:13:06Z</time></trkpt><trkpt lat="59.5590961631" lon="31.2616770621"><ele>242.87</ele><time>2026-09-02T22:13:07Z</time></trkpt><trkpt lat="59.5590955764" lon="31.2616769783"><ele>242.87</ele><time>2026-09-02T22:13:08Z</time></trkpt><trkpt lat="59.5590948220" lon="31.2616782356"><ele>242.87</ele><time>2026-09-02T22:13:09Z</time></trkpt><trkpt lat="59.5590944868" lon="31.2616802473"><ele>242.87</ele><time>2026-09-02T22:13:10Z</time></trkpt><trkpt lat="59.5590933971" lon="31.2616821751"><ele>242.87</ele><time>2026-09-02T22:13:11Z</time></trkpt><trkpt lat="59.5590925589" lon="31.2616833486"><ele>242.87</ele><time>2026-09-02T22:13:12Z</time></trkpt><trkpt lat="59.5590919722" lon="31.2616840191"><ele>242.87</ele><time>2026-09-02T22:13:13Z</time></trkpt><trkpt lat="59.5590910502" lon="31.2616868690"><ele>242.87</ele><time>2026-09-02T22:13:14Z</time></trkpt><trkpt lat="59.5590898767" lon="31.2616911437"><ele>242.87</ele><time>2026-09-02T22:13:15Z</time></trkpt><trkpt lat="59.5590890385" lon="31.2616954185"><ele>242.87</ele><time>2026-09-02T22:13:16Z</time></trkpt><trkpt lat="59.5590872783" lon="31.2616993580"><ele>242.87</ele><time>2026-09-02T22:13:17Z</time></trkpt><trkpt lat="59.5590888709" lon="31.2616958376"><ele>242.87</ele><time>2026-09-02T22:13:18Z</time></trkpt><trkpt lat="59.5590874460" lon="31.2616988551"><ele>242.87</ele><time>2026-09-02T22:13:19Z</time></trkpt><trkpt lat="59.5590870269" lon="31.2616985198"><ele>242.87</ele><time>2026-09-02T22:13:20Z</time></trkpt><trkpt lat="59.5590867754" lon="31.2616981845"><ele>242.87</ele><time>2026-09-02T22:13:21Z</time></trkpt><trkpt lat="59.5590869430" lon="31.2616994418"><ele>242.87</ele><time>2026-09-02T22:13:22Z</time></trkpt><trkpt lat="59.5590855181" lon="31.2616981845"><ele>242.87</ele><time>2026-09-02T22:13:23Z</time></trkpt><trkpt lat="59.5590844285" lon="31.2616949994"><ele>242.87</ele><time>2026-09-02T22:13:24Z</time></trkpt><trkpt lat="59.5590846799" lon="31.2616916467"><ele>242.87</ele><time>2026-09-02T22:13:25Z</time></trkpt><trkpt lat="59.5590855181" lon="31.2616867851"><ele>242.87</ele><time>2026-09-02T22:13:26Z</time></trkpt><trkpt lat="59.5590850990" lon="31.2616817560"><ele>242.87</ele><time>2026-09-02T22:13:27Z</time></trkpt><trkpt lat="59.5590831712" lon="31.2616754696"><ele>242.87</ele><time>2026-09-02T22:13:28Z</time></trkpt><trkpt lat="59.5590827521" lon="31.2616741285"><ele>242.87</ele><time>2026-09-02T22:13:29Z</time></trkpt><trkpt lat="59.5590815786" lon="31.2616673391"><ele>242.87</ele><time>2026-09-02T22:13:30Z</time></trkpt><trkpt lat="59.5590798184" lon="31.2616617233"><ele>242.87</ele><time>2026-09-02T22:13:31Z</time></trkpt><trkpt lat="59.5590793993" lon="31.2616575323"><ele>242.87</ele><time>2026-09-02T22:13:32Z</time></trkpt><trkpt lat="59.5590797346" lon="31.2616517488"><ele>242.87</ele><time>2026-09-02T22:13:33Z</time></trkpt><trkpt lat="59.5590790641" lon="31.2616443727"><ele>242.87</ele><time>2026-09-02T22:13:34Z</time></trkpt><trkpt lat="59.5590787288" lon="31.2616452947"><ele>242.87</ele><time>2026-09-02T22:13:35Z</time></trkpt><trkpt lat="59.5590785611" lon="31.2616416905"><ele>242.87</ele><time>2026-09-02T22:13:36Z</time></trkpt><trkpt lat="59.5590786450" lon="31.2616411876"><ele>242.87</ele><time>2026-09-02T22:13:37Z</time></trkpt><trkpt lat="59.5590794832" lon="31.2616404332"><ele>242.87</ele><time>2026-09-02T22:13:38Z</time></trkpt><trkpt lat="59.5590842608" lon="31.2616387568"><ele>242.87</ele><time>2026-09-02T22:13:39Z</time></trkpt><trkpt lat="59.5590858534" lon="31.2616345659"><ele>242.87</ele><time>2026-09-02T22:13:40Z</time></trkpt><trkpt lat="59.5590869430" lon="31.2616273575"><ele>242.87</ele><time>2026-09-02T22:13:41Z</time></trkpt><trkpt lat="59.5590884518" lon="31.2616233341"><ele>242.87</ele><time>2026-09-02T22:13:42Z</time></trkpt><trkpt lat="59.5590909664" lon="31.2616195623"><ele>242.87</ele><time>2026-09-02T22:13:43Z</time></trkpt><trkpt lat="59.5590920560" lon="31.2616152875"><ele>242.87</ele><time>2026-09-02T22:13:44Z</time></trkpt><trkpt lat="59.5590919722" lon="31.2616107613"><ele>242.87</ele><time>2026-09-02T22:13:45Z</time></trkpt><trkpt lat="59.5590917207" lon="31.2616065703"><ele>242.87</ele><time>2026-09-02T22:13:46Z</time></trkpt><trkpt lat="59.5590931457" lon="31.2616059836"><ele>242.87</ele><time>2026-09-02T22:13:47Z</time></trkpt><trkpt lat="59.5590930618" lon="31.2616038881"><ele>242.87</ele><time>2026-09-02T22:13:48Z</time></trkpt><trkpt lat="59.5590924751" lon="31.2616051454"><ele>242.87</ele><time>2026-09-02T22:13:49Z</time></trkpt><trkpt lat="59.5590905473" lon="31.2616040558"><ele>242.87</ele><time>2026-09-02T22:13:50Z</time></trkpt><trkpt lat="59.5590895414" lon="31.2616040558"><ele>242.87</ele><time>2026-09-02T22:13:51Z</time></trkpt><trkpt lat="59.5590885356" lon="31.2616042234"><ele>242.87</ele><time>2026-09-02T22:13:52Z</time></trkpt><trkpt lat="59.5590868592" lon="31.2616034690"><ele>242.87</ele><time>2026-09-02T22:13:53Z</time></trkpt><trkpt lat="59.5590862725" lon="31.2616034690"><ele>242.87</ele><time>2026-09-02T22:13:54Z</time></trkpt><trkpt lat="59.5590851828" lon="31.2616036367"><ele>242.87</ele><time>2026-09-02T22:13:55Z</time></trkpt><trkpt lat="59.5590843447" lon="31.2616024632"><ele>242.87</ele><time>2026-09-02T22:13:56Z</time></trkpt><trkpt lat="59.5590833388" lon="31.2616021279"><ele>242.87</ele><time>2026-09-02T22:13:57Z</time></trkpt><trkpt lat="59.5590819977" lon="31.2616021279"><ele>242.87</ele><time>2026-09-02T22:13:58Z</time></trkpt><trkpt lat="59.5590808243" lon="31.2616029661"><ele>242.87</ele><time>2026-09-02T22:13:59Z</time></trkpt><trkpt lat="59.5590807404" lon="31.2616022956"><ele>242.87</ele><time>2026-09-02T22:14:00Z</time></trkpt><trkpt lat="59.5590800699" lon="31.2616029661"><ele>242.87</ele><time>2026-09-02T22:14:01Z</time></trkpt><trkpt lat="59.5590792317" lon="31.2616030499"><ele>242.87</ele><time>2026-09-02T22:14:02Z</time></trkpt><trkpt lat="59.5590784773" lon="31.2616032176"><ele>242.87</ele><time>2026-09-02T22:14:03Z</time></trkpt><trkpt lat="59.5590776391" lon="31.2616034690"><ele>242.87</ele><time>2026-09-02T22:14:04Z</time></trkpt><trkpt lat="59.5590769686" lon="31.2616038881"><ele>242.87</ele><time>2026-09-02T22:14:05Z</time></trkpt><trkpt lat="59.5590764657" lon="31.2616064865"><ele>242.87</ele><time>2026-09-02T22:14:06Z</time></trkpt><trkpt lat="59.5590755437" lon="31.2616072409"><ele>242.87</ele><time>2026-09-02T22:14:07Z</time></trkpt><trkpt lat="59.5590747893" lon="31.2616077438"><ele>242.87</ele><time>2026-09-02T22:14:08Z</time></trkpt><trkpt lat="59.5590738673" lon="31.2616080791"><ele>242.87</ele><time>2026-09-02T22:14:09Z</time></trkpt><trkpt lat="59.5590730291" lon="31.2616089173"><ele>242.87</ele><time>2026-09-02T22:14:10Z</time></trkpt><trkpt lat="59.5590723585" lon="31.2616109289"><ele>242.87</ele><time>2026-09-02T22:14:11Z</time></trkpt><trkpt lat="59.5590714365" lon="31.2616121862"><ele>242.87</ele><time>2026-09-02T22:14:12Z</time></trkpt><trkpt lat="59.5590711851" lon="31.2616128568"><ele>242.87</ele><time>2026-09-02T22:14:13Z</time></trkpt><trkpt lat="59.5590711851" lon="31.2616131920"><ele>242.87</ele><time>2026-09-02T22:14:14Z</time></trkpt><trkpt lat="59.5590703469" lon="31.2616137788"><ele>242.87</ele><time>2026-09-02T22:14:15Z</time></trkpt><trkpt lat="59.5590705983" lon="31.2616141979"><ele>242.87</ele><time>2026-09-02T22:14:16Z</time></trkpt><trkpt lat="59.5590694249" lon="31.2616152875"><ele>242.87</ele><time>2026-09-02T22:14:17Z</time></trkpt><trkpt lat="59.5590689220" lon="31.2616148684"><ele>242.87</ele><time>2026-09-02T22:14:18Z</time></trkpt><trkpt lat="59.5590688381" lon="31.2616163772"><ele>242.87</ele><time>2026-09-02T22:14:19Z</time></trkpt><trkpt lat="59.5590688381" lon="31.2616155390"><ele>242.87</ele><time>2026-09-02T22:14:20Z</time></trkpt><trkpt lat="59.5590684190" lon="31.2616166286"><ele>242.87</ele><time>2026-09-02T22:14:21Z</time></trkpt><trkpt lat="59.5590684190" lon="31.2616159581"><ele>242.87</ele><time>2026-09-02T22:14:22Z</time></trkpt><trkpt lat="59.5590685867" lon="31.2616161257"><ele>242.87</ele><time>2026-09-02T22:14:23Z</time></trkpt><trkpt lat="59.5590683352" lon="31.2616155390"><ele>242.87</ele><time>2026-09-02T22:14:24Z</time></trkpt><trkpt lat="59.5590679999" lon="31.2616159581"><ele>242.87</ele><time>2026-09-02T22:14:25Z</time></trkpt><trkpt lat="59.5590676647" lon="31.2616157904"><ele>242.87</ele><time>2026-09-02T22:14:26Z</time></trkpt><trkpt lat="59.5590677485" lon="31.2616171315"><ele>242.87</ele><time>2026-09-02T22:14:27Z</time></trkpt><trkpt lat="59.5590672456" lon="31.2616164610"><ele>242.87</ele><time>2026-09-02T22:14:28Z</time></trkpt><trkpt lat="59.5590670779" lon="31.2616187241"><ele>242.87</ele><time>2026-09-02T22:14:29Z</time></trkpt><trkpt lat="59.5590682514" lon="31.2616209872"><ele>242.87</ele><time>2026-09-02T22:14:30Z</time></trkpt><trkpt lat="59.5590672456" lon="31.2616206519"><ele>242.87</ele><time>2026-09-02T22:14:31Z</time></trkpt><trkpt lat="59.5590685867" lon="31.2616233341"><ele>242.87</ele><time>2026-09-02T22:14:32Z</time></trkpt><trkpt lat="59.5590714365" lon="31.2616315484"><ele>242.87</ele><time>2026-09-02T22:14:33Z</time></trkpt><trkpt lat="59.5590749569" lon="31.2616424449"><ele>242.87</ele><time>2026-09-02T22:14:34Z</time></trkpt><trkpt lat="59.5590754598" lon="31.2616480608"><ele>242.87</ele><time>2026-09-02T22:14:35Z</time></trkpt><trkpt lat="59.5590742864" lon="31.2616559397"><ele>242.87</ele><time>2026-09-02T22:14:36Z</time></trkpt><trkpt lat="59.5590737835" lon="31.2616633996"><ele>242.87</ele><time>2026-09-02T22:14:37Z</time></trkpt><trkpt lat="59.5590722747" lon="31.2616717815"><ele>242.87</ele><time>2026-09-02T22:14:38Z</time></trkpt><trkpt lat="59.5590722747" lon="31.2616809178"><ele>242.87</ele><time>2026-09-02T22:14:39Z</time></trkpt><trkpt lat="59.5590722747" lon="31.2616880424"><ele>242.87</ele><time>2026-09-02T22:14:40Z</time></trkpt><trkpt lat="59.5590712689" lon="31.2616956700"><ele>242.39</ele><time>2026-09-02T22:14:41Z</time></trkpt><trkpt lat="59.5590704307" lon="31.2617038842"><ele>242.39</ele><time>2026-09-02T22:14:42Z</time></trkpt><trkpt lat="59.5590702631" lon="31.2617126852"><ele>242.39</ele><time>2026-09-02T22:14:43Z</time></trkpt><trkpt lat="59.5590695925" lon="31.2617245875"><ele>242.39</ele><time>2026-09-02T22:14:44Z</time></trkpt><trkpt lat="59.5590683352" lon="31.2617316283"><ele>242.39</ele><time>2026-09-02T22:14:45Z</time></trkpt><trkpt lat="59.5590672456" lon="31.2617422733"><ele>242.39</ele><time>2026-09-02T22:14:46Z</time></trkpt><trkpt lat="59.5590658206" lon="31.2617496494"><ele>242.39</ele><time>2026-09-02T22:14:47Z</time></trkpt><trkpt lat="59.5590641443" lon="31.2617605459"><ele>242.39</ele><time>2026-09-02T22:14:48Z</time></trkpt><trkpt lat="59.5590618812" lon="31.2617766391"><ele>242.39</ele><time>2026-09-02T22:14:49Z</time></trkpt><trkpt lat="59.5590562653" lon="31.2617854401"><ele>241.91</ele><time>2026-09-02T22:14:50Z</time></trkpt><trkpt lat="59.5590492245" lon="31.2617970910"><ele>241.91</ele><time>2026-09-02T22:14:51Z</time></trkpt><trkpt lat="59.5590418484" lon="31.2617994379"><ele>241.91</ele><time>2026-09-02T22:14:52Z</time></trkpt><trkpt lat="59.5590339694" lon="31.2618116755"><ele>241.91</ele><time>2026-09-02T22:14:53Z</time></trkpt><trkpt lat="59.5590257552" lon="31.2618205603"><ele>242.39</ele><time>2026-09-02T22:14:54Z</time></trkpt><trkpt lat="59.5590138528" lon="31.2618349772"><ele>242.39</ele><time>2026-09-02T22:14:55Z</time></trkpt><trkpt lat="59.5590054709" lon="31.2618500646"><ele>242.39</ele><time>2026-09-02T22:14:56Z</time></trkpt><trkpt lat="59.5589968376" lon="31.2618619669"><ele>242.39</ele><time>2026-09-02T22:14:57Z</time></trkpt><trkpt lat="59.5589905512" lon="31.2618713547"><ele>242.39</ele><time>2026-09-02T22:14:58Z</time></trkpt><trkpt lat="59.5589826722" lon="31.2618773896"><ele>242.39</ele><time>2026-09-02T22:14:59Z</time></trkpt><trkpt lat="59.5589741226" lon="31.2618877832"><ele>242.39</ele><time>2026-09-02T22:15:00Z</time></trkpt><trkpt lat="59.5589683391" lon="31.2619005237"><ele>242.39</ele><time>2026-09-02T22:15:01Z</time></trkpt><trkpt lat="59.5589630585" lon="31.2619138509"><ele>242.39</ele><time>2026-09-02T22:15:02Z</time></trkpt><trkpt lat="59.5589562692" lon="31.2619238254"><ele>242.39</ele><time>2026-09-02T22:15:03Z</time></trkpt><trkpt lat="59.5589463785" lon="31.2619269267"><ele>242.39</ele><time>2026-09-02T22:15:04Z</time></trkpt><trkpt lat="59.5589395892" lon="31.2619307823"><ele>242.39</ele><time>2026-09-02T22:15:05Z</time></trkpt><trkpt lat="59.5589340571" lon="31.2619388290"><ele>242.39</ele><time>2026-09-02T22:15:06Z</time></trkpt><trkpt lat="59.5589262620" lon="31.2619488873"><ele>242.39</ele><time>2026-09-02T22:15:07Z</time></trkpt><trkpt lat="59.5589187182" lon="31.2619618792"><ele>242.39</ele><time>2026-09-02T22:15:08Z</time></trkpt><trkpt lat="59.5589134376" lon="31.2619741168"><ele>242.39</ele><time>2026-09-02T22:15:09Z</time></trkpt><trkpt lat="59.5589096658" lon="31.2619845942"><ele>241.91</ele><time>2026-09-02T22:15:10Z</time></trkpt><trkpt lat="59.5589060616" lon="31.2619914673"><ele>241.91</ele><time>2026-09-02T22:15:11Z</time></trkpt><trkpt lat="59.5589022897" lon="31.2619969994"><ele>241.91</ele><time>2026-09-02T22:15:12Z</time></trkpt><trkpt lat="59.5588955842" lon="31.2620013580"><ele>241.91</ele><time>2026-09-02T22:15:13Z</time></trkpt><trkpt lat="59.5588890463" lon="31.2620043755"><ele>241.91</ele><time>2026-09-02T22:15:14Z</time></trkpt><trkpt lat="59.5588828437" lon="31.2620064709"><ele>241.91</ele><time>2026-09-02T22:15:15Z</time></trkpt><trkpt lat="59.5588748809" lon="31.2620110810"><ele>241.91</ele><time>2026-09-02T22:15:16Z</time></trkpt><trkpt lat="59.5588659961" lon="31.2620146852"><ele>242.39</ele><time>2026-09-02T22:15:17Z</time></trkpt><trkpt lat="59.5588581171" lon="31.2620178703"><ele>242.39</ele><time>2026-09-02T22:15:18Z</time></trkpt><trkpt lat="59.5588525850" lon="31.2620245758"><ele>242.39</ele><time>2026-09-02T22:15:19Z</time></trkpt><trkpt lat="59.5588487294" lon="31.2620314490"><ele>242.39</ele><time>2026-09-02T22:15:20Z</time></trkpt><trkpt lat="59.5588440355" lon="31.2620396633"><ele>242.39</ele><time>2026-09-02T22:15:21Z</time></trkpt><trkpt lat="59.5588356536" lon="31.2620534934"><ele>242.39</ele><time>2026-09-02T22:15:22Z</time></trkpt><trkpt lat="59.5588332228" lon="31.2620600313"><ele>242.39</ele><time>2026-09-02T22:15:23Z</time></trkpt><trkpt lat="59.5588311274" lon="31.2620684970"><ele>242.39</ele><time>2026-09-02T22:15:24Z</time></trkpt><trkpt lat="59.5588290319" lon="31.2620758731"><ele>242.39</ele><time>2026-09-02T22:15:25Z</time></trkpt><trkpt lat="59.5588274393" lon="31.2620803993"><ele>242.39</ele><time>2026-09-02T22:15:26Z</time></trkpt><trkpt lat="59.5588265173" lon="31.2620828301"><ele>242.39</ele><time>2026-09-02T22:15:27Z</time></trkpt><trkpt lat="59.5588247571" lon="31.2620879430"><ele>242.39</ele><time>2026-09-02T22:15:28Z</time></trkpt><trkpt lat="59.5588237513" lon="31.2620957382"><ele>242.39</ele><time>2026-09-02T22:15:29Z</time></trkpt><trkpt lat="59.5588197280" lon="31.2621015217"><ele>242.39</ele><time>2026-09-02T22:15:30Z</time></trkpt><trkpt lat="59.5588223264" lon="31.2621007673"><ele>242.39</ele><time>2026-09-02T22:15:31Z</time></trkpt><trkpt lat="59.5588194765" lon="31.2621057965"><ele>242.39</ele><time>2026-09-02T22:15:32Z</time></trkpt><trkpt lat="59.5588164590" lon="31.2621118315"><ele>242.39</ele><time>2026-09-02T22:15:33Z</time></trkpt><trkpt lat="59.5588135254" lon="31.2621147651"><ele>242.39</ele><time>2026-09-02T22:15:34Z</time></trkpt><trkpt lat="59.5588121843" lon="31.2621096522"><ele>242.39</ele><time>2026-09-02T22:15:35Z</time></trkpt><trkpt lat="59.5588067360" lon="31.2621108256"><ele>242.39</ele><time>2026-09-02T22:15:36Z</time></trkpt><trkpt lat="59.5588005334" lon="31.2621148489"><ele>242.39</ele><time>2026-09-02T22:15:37Z</time></trkpt><trkpt lat="59.5587941632" lon="31.2621159386"><ele>242.39</ele><time>2026-09-02T22:15:38Z</time></trkpt><trkpt lat="59.5587891340" lon="31.2621214706"><ele>242.39</ele><time>2026-09-02T22:15:39Z</time></trkpt><trkpt lat="59.5587818418" lon="31.2621297687"><ele>242.39</ele><time>2026-09-02T22:15:40Z</time></trkpt><trkpt lat="59.5587742981" lon="31.2621346302"><ele>242.39</ele><time>2026-09-02T22:15:41Z</time></trkpt><trkpt lat="59.5587674249" lon="31.2621405814"><ele>242.39</ele><time>2026-09-02T22:15:42Z</time></trkpt><trkpt lat="59.5587617252" lon="31.2621472869"><ele>242.39</ele><time>2026-09-02T22:15:43Z</time></trkpt><trkpt lat="59.5587590430" lon="31.2621538248"><ele>242.39</ele><time>2026-09-02T22:15:44Z</time></trkpt><trkpt lat="59.5587556902" lon="31.2621604465"><ele>242.39</ele><time>2026-09-02T22:15:45Z</time></trkpt><trkpt lat="59.5587520860" lon="31.2621678226"><ele>242.39</ele><time>2026-09-02T22:15:46Z</time></trkpt><trkpt lat="59.5587490685" lon="31.2621767912"><ele>242.39</ele><time>2026-09-02T22:15:47Z</time></trkpt><trkpt lat="59.5587455481" lon="31.2621861789"><ele>242.39</ele><time>2026-09-02T22:15:48Z</time></trkpt><trkpt lat="59.5587411895" lon="31.2621944770"><ele>242.39</ele><time>2026-09-02T22:15:49Z</time></trkpt><trkpt lat="59.5587368309" lon="31.2622012664"><ele>242.39</ele><time>2026-09-02T22:15:50Z</time></trkpt><trkpt lat="59.5587319694" lon="31.2622149289"><ele>242.39</ele><time>2026-09-02T22:15:51Z</time></trkpt><trkpt lat="59.5587273594" lon="31.2622227240"><ele>242.39</ele><time>2026-09-02T22:15:52Z</time></trkpt><trkpt lat="59.5587228332" lon="31.2622386497"><ele>241.91</ele><time>2026-09-02T22:15:53Z</time></trkpt><trkpt lat="59.5587187260" lon="31.2622490432"><ele>242.39</ele><time>2026-09-02T22:15:54Z</time></trkpt><trkpt lat="59.5587157924" lon="31.2622597720"><ele>242.39</ele><time>2026-09-02T22:15:55Z</time></trkpt><trkpt lat="59.5587126911" lon="31.2622816488"><ele>242.39</ele><time>2026-09-02T22:15:56Z</time></trkpt><trkpt lat="59.5587091707" lon="31.2622985803"><ele>242.39</ele><time>2026-09-02T22:15:57Z</time></trkpt><trkpt lat="59.5587099250" lon="31.2623179425"><ele>242.39</ele><time>2026-09-02T22:15:58Z</time></trkpt><trkpt lat="59.5587113500" lon="31.2623363826"><ele>242.39</ele><time>2026-09-02T22:15:59Z</time></trkpt><trkpt lat="59.5587110985" lon="31.2623520568"><ele>242.39</ele><time>2026-09-02T22:16:00Z</time></trkpt><trkpt lat="59.5587116852" lon="31.2623684853"><ele>242.39</ele><time>2026-09-02T22:16:01Z</time></trkpt><trkpt lat="59.5587112661" lon="31.2623841595"><ele>241.91</ele><time>2026-09-02T22:16:02Z</time></trkpt><trkpt lat="59.5587111823" lon="31.2623967323"><ele>241.91</ele><time>2026-09-02T22:16:03Z</time></trkpt><trkpt lat="59.5587096736" lon="31.2624112330"><ele>241.91</ele><time>2026-09-02T22:16:04Z</time></trkpt><trkpt lat="59.5587085839" lon="31.2624280807"><ele>241.91</ele><time>2026-09-02T22:16:05Z</time></trkpt><trkpt lat="59.5587074943" lon="31.2624420784"><ele>241.91</ele><time>2026-09-02T22:16:06Z</time></trkpt><trkpt lat="59.5587062370" lon="31.2624630332"><ele>241.91</ele><time>2026-09-02T22:16:07Z</time></trkpt><trkpt lat="59.5587006211" lon="31.2624759413"><ele>241.91</ele><time>2026-09-02T22:16:08Z</time></trkpt><trkpt lat="59.5586905628" lon="31.2624861673"><ele>241.91</ele><time>2026-09-02T22:16:09Z</time></trkpt><trkpt lat="59.5586850308" lon="31.2624981534"><ele>241.91</ele><time>2026-09-02T22:16:10Z</time></trkpt><trkpt lat="59.5586760622" lon="31.2625072896"><ele>241.91</ele><time>2026-09-02T22:16:11Z</time></trkpt><trkpt lat="59.5586677641" lon="31.2625127379"><ele>241.91</ele><time>2026-09-02T22:16:12Z</time></trkpt><trkpt lat="59.5586598851" lon="31.2625189405"><ele>241.91</ele><time>2026-09-02T22:16:13Z</time></trkpt><trkpt lat="59.5586521737" lon="31.2625245564"><ele>241.91</ele><time>2026-09-02T22:16:14Z</time></trkpt><trkpt lat="59.5586472284" lon="31.2625298370"><ele>241.91</ele><time>2026-09-02T22:16:15Z</time></trkpt><trkpt lat="59.5586443786" lon="31.2625388894"><ele>241.91</ele><time>2026-09-02T22:16:16Z</time></trkpt><trkpt lat="59.5586400200" lon="31.2625463493"><ele>241.91</ele><time>2026-09-02T22:16:17Z</time></trkpt><trkpt lat="59.5586354937" lon="31.2625593413"><ele>241.91</ele><time>2026-09-02T22:16:18Z</time></trkpt><trkpt lat="59.5586290397" lon="31.2625687290"><ele>241.91</ele><time>2026-09-02T22:16:19Z</time></trkpt><trkpt lat="59.5586226694" lon="31.2625760213"><ele>241.91</ele><time>2026-09-02T22:16:20Z</time></trkpt><trkpt lat="59.5586148743" lon="31.2625850737"><ele>241.91</ele><time>2026-09-02T22:16:21Z</time></trkpt><trkpt lat="59.5586073305" lon="31.2625934556"><ele>241.91</ele><time>2026-09-02T22:16:22Z</time></trkpt><trkpt lat="59.5585986972" lon="31.2625993229"><ele>241.91</ele><time>2026-09-02T22:16:23Z</time></trkpt><trkpt lat="59.5585907344" lon="31.2626048550"><ele>241.91</ele><time>2026-09-02T22:16:24Z</time></trkpt><trkpt lat="59.5585806761" lon="31.2626085430"><ele>241.91</ele><time>2026-09-02T22:16:25Z</time></trkpt><trkpt lat="59.5585714560" lon="31.2626137398"><ele>241.91</ele><time>2026-09-02T22:16:26Z</time></trkpt><trkpt lat="59.5585642476" lon="31.2626198586"><ele>241.91</ele><time>2026-09-02T22:16:27Z</time></trkpt><trkpt lat="59.5585606433" lon="31.2626288272"><ele>241.91</ele><time>2026-09-02T22:16:28Z</time></trkpt><trkpt lat="59.5585582964" lon="31.2626464292"><ele>241.91</ele><time>2026-09-02T22:16:29Z</time></trkpt><trkpt lat="59.5585530996" lon="31.2626608461"><ele>241.91</ele><time>2026-09-02T22:16:30Z</time></trkpt><trkpt lat="59.5585480705" lon="31.2626717426"><ele>241.91</ele><time>2026-09-02T22:16:31Z</time></trkpt><trkpt lat="59.5585429575" lon="31.2626813818"><ele>241.91</ele><time>2026-09-02T22:16:32Z</time></trkpt><trkpt lat="59.5585360844" lon="31.2626747601"><ele>241.91</ele><time>2026-09-02T22:16:33Z</time></trkpt><trkpt lat="59.5585292950" lon="31.2626772746"><ele>241.91</ele><time>2026-09-02T22:16:34Z</time></trkpt><trkpt lat="59.5585260261" lon="31.2626785319"><ele>241.91</ele><time>2026-09-02T22:16:35Z</time></trkpt><trkpt lat="59.5585213322" lon="31.2626804598"><ele>241.91</ele><time>2026-09-02T22:16:36Z</time></trkpt><trkpt lat="59.5585159678" lon="31.2626811303"><ele>241.91</ele><time>2026-09-02T22:16:37Z</time></trkpt><trkpt lat="59.5585094299" lon="31.2626818847"><ele>241.91</ele><time>2026-09-02T22:16:38Z</time></trkpt><trkpt lat="59.5585033949" lon="31.2626845669"><ele>241.91</ele><time>2026-09-02T22:16:39Z</time></trkpt><trkpt lat="59.5584970247" lon="31.2626914401"><ele>241.91</ele><time>2026-09-02T22:16:40Z</time></trkpt><trkpt lat="59.5584929176" lon="31.2626962177"><ele>241.91</ele><time>2026-09-02T22:16:41Z</time></trkpt><trkpt lat="59.5584912412" lon="31.2627005763"><ele>241.91</ele><time>2026-09-02T22:16:42Z</time></trkpt><trkpt lat="59.5584905706" lon="31.2627014983"><ele>241.91</ele><time>2026-09-02T22:16:43Z</time></trkpt><trkpt lat="59.5584858768" lon="31.2627040967"><ele>241.91</ele><time>2026-09-02T22:16:44Z</time></trkpt><trkpt lat="59.5584804285" lon="31.2627016660"><ele>241.91</ele><time>2026-09-02T22:16:45Z</time></trkpt><trkpt lat="59.5584766567" lon="31.2627028394"><ele>241.91</ele><time>2026-09-02T22:16:46Z</time></trkpt><trkpt lat="59.5584784169" lon="31.2627030909"><ele>241.91</ele><time>2026-09-02T22:16:47Z</time></trkpt><trkpt lat="59.5584768243" lon="31.2627059408"><ele>241.91</ele><time>2026-09-02T22:16:48Z</time></trkpt><trkpt lat="59.5584755670" lon="31.2627071980"><ele>241.91</ele><time>2026-09-02T22:16:49Z</time></trkpt><trkpt lat="59.5584749803" lon="31.2627075333"><ele>241.91</ele><time>2026-09-02T22:16:50Z</time></trkpt><trkpt lat="59.5584774949" lon="31.2627062760"><ele>241.91</ele><time>2026-09-02T22:16:51Z</time></trkpt><trkpt lat="59.5584796742" lon="31.2627055217"><ele>241.91</ele><time>2026-09-02T22:16:52Z</time></trkpt><trkpt lat="59.5584832784" lon="31.2627052702"><ele>241.91</ele><time>2026-09-02T22:16:53Z</time></trkpt><trkpt lat="59.5584831946" lon="31.2627101317"><ele>241.91</ele><time>2026-09-02T22:16:54Z</time></trkpt><trkpt lat="59.5584878884" lon="31.2627227884"><ele>241.91</ele><time>2026-09-02T22:16:55Z</time></trkpt><trkpt lat="59.5584877208" lon="31.2627264764"><ele>241.91</ele><time>2026-09-02T22:16:56Z</time></trkpt><trkpt lat="59.5584869664" lon="31.2627340201"><ele>241.91</ele><time>2026-09-02T22:16:57Z</time></trkpt><trkpt lat="59.5584854577" lon="31.2627376243"><ele>241.91</ele><time>2026-09-02T22:16:58Z</time></trkpt><trkpt lat="59.5584863797" lon="31.2627481855"><ele>242.39</ele><time>2026-09-02T22:16:59Z</time></trkpt><trkpt lat="59.5584897324" lon="31.2627611775"><ele>242.39</ele><time>2026-09-02T22:17:00Z</time></trkpt><trkpt lat="59.5584916603" lon="31.2627736665"><ele>242.39</ele><time>2026-09-02T22:17:01Z</time></trkpt><trkpt lat="59.5584944263" lon="31.2627809588"><ele>242.39</ele><time>2026-09-02T22:17:02Z</time></trkpt><trkpt lat="59.5584950969" lon="31.2627843954"><ele>241.91</ele><time>2026-09-02T22:17:03Z</time></trkpt><trkpt lat="59.5584960189" lon="31.2627854850"><ele>241.91</ele><time>2026-09-02T22:17:04Z</time></trkpt><trkpt lat="59.5584971923" lon="31.2627847306"><ele>241.91</ele><time>2026-09-02T22:17:05Z</time></trkpt><trkpt lat="59.5584975276" lon="31.2627898436"><ele>241.91</ele><time>2026-09-02T22:17:06Z</time></trkpt><trkpt lat="59.5584991202" lon="31.2627851497"><ele>241.91</ele><time>2026-09-02T22:17:07Z</time></trkpt><trkpt lat="59.5585001260" lon="31.2627868261"><ele>241.91</ele><time>2026-09-02T22:17:08Z</time></trkpt><trkpt lat="59.5585021377" lon="31.2627905980"><ele>241.91</ele><time>2026-09-02T22:17:09Z</time></trkpt><trkpt lat="59.5585028920" lon="31.2627922744"><ele>241.91</ele><time>2026-09-02T22:17:10Z</time></trkpt><trkpt lat="59.5585034788" lon="31.2627971359"><ele>241.91</ele><time>2026-09-02T22:17:11Z</time></trkpt><trkpt lat="59.5585033949" lon="31.2628030870"><ele>241.91</ele><time>2026-09-02T22:17:12Z</time></trkpt><trkpt lat="59.5585037302" lon="31.2628154922"><ele>241.91</ele><time>2026-09-02T22:17:13Z</time></trkpt><trkpt lat="59.5585031435" lon="31.2628234550"><ele>241.91</ele><time>2026-09-02T22:17:14Z</time></trkpt><trkpt lat="59.5585041493" lon="31.2628316693"><ele>241.91</ele><time>2026-09-02T22:17:15Z</time></trkpt><trkpt lat="59.5585039817" lon="31.2628370337"><ele>241.91</ele><time>2026-09-02T22:17:16Z</time></trkpt><trkpt lat="59.5585013833" lon="31.2628329266"><ele>241.91</ele><time>2026-09-02T22:17:17Z</time></trkpt><trkpt lat="59.5584987849" lon="31.2628362793"><ele>241.91</ele><time>2026-09-02T22:17:18Z</time></trkpt><trkpt lat="59.5584960189" lon="31.2628445774"><ele>241.91</ele><time>2026-09-02T22:17:19Z</time></trkpt><trkpt lat="59.5584969409" lon="31.2628395483"><ele>241.91</ele><time>2026-09-02T22:17:20Z</time></trkpt><trkpt lat="59.5584956836" lon="31.2628485169"><ele>241.91</ele><time>2026-09-02T22:17:21Z</time></trkpt><trkpt lat="59.5584924985" lon="31.2628574856"><ele>241.91</ele><time>2026-09-02T22:17:22Z</time></trkpt><trkpt lat="59.5584884752" lon="31.2628652807"><ele>241.91</ele><time>2026-09-02T22:17:23Z</time></trkpt><trkpt lat="59.5584817696" lon="31.2628726568"><ele>241.91</ele><time>2026-09-02T22:17:24Z</time></trkpt><trkpt lat="59.5584767405" lon="31.2628791947"><ele>241.91</ele><time>2026-09-02T22:17:25Z</time></trkpt><trkpt lat="59.5584700350" lon="31.2628842238"><ele>241.91</ele><time>2026-09-02T22:17:26Z</time></trkpt><trkpt lat="59.5584612340" lon="31.2628898397"><ele>241.43</ele><time>2026-09-02T22:17:27Z</time></trkpt><trkpt lat="59.5584563725" lon="31.2629027478"><ele>241.43</ele><time>2026-09-02T22:17:28Z</time></trkpt><trkpt lat="59.5584512595" lon="31.2629096210"><ele>241.43</ele><time>2026-09-02T22:17:29Z</time></trkpt><trkpt lat="59.5584449731" lon="31.2629190926"><ele>241.43</ele><time>2026-09-02T22:17:30Z</time></trkpt><trkpt lat="59.5584374294" lon="31.2629306596"><ele>241.43</ele><time>2026-09-02T22:17:31Z</time></trkpt><trkpt lat="59.5584321488" lon="31.2629373651"><ele>241.43</ele><time>2026-09-02T22:17:32Z</time></trkpt><trkpt lat="59.5584222581" lon="31.2629402988"><ele>241.43</ele><time>2026-09-02T22:17:33Z</time></trkpt><trkpt lat="59.5584144630" lon="31.2629446574"><ele>241.43</ele><time>2026-09-02T22:17:34Z</time></trkpt><trkpt lat="59.5584089309" lon="31.2629519496"><ele>241.43</ele><time>2026-09-02T22:17:35Z</time></trkpt><trkpt lat="59.5584030636" lon="31.2629572302"><ele>241.43</ele><time>2026-09-02T22:17:36Z</time></trkpt><trkpt lat="59.5584006328" lon="31.2629652768"><ele>241.43</ele><time>2026-09-02T22:17:37Z</time></trkpt><trkpt lat="59.5583951846" lon="31.2629745807"><ele>241.43</ele><time>2026-09-02T22:17:38Z</time></trkpt><trkpt lat="59.5583896525" lon="31.2629873212"><ele>241.43</ele><time>2026-09-02T22:17:39Z</time></trkpt><trkpt lat="59.5583868865" lon="31.2629996426"><ele>241.91</ele><time>2026-09-02T22:17:40Z</time></trkpt><trkpt lat="59.5583839528" lon="31.2630125508"><ele>241.91</ele><time>2026-09-02T22:17:41Z</time></trkpt><trkpt lat="59.5583808515" lon="31.2630244531"><ele>241.91</ele><time>2026-09-02T22:17:42Z</time></trkpt><trkpt lat="59.5583763253" lon="31.2630315777"><ele>241.91</ele><time>2026-09-02T22:17:43Z</time></trkpt><trkpt lat="59.5583767444" lon="31.2630446535"><ele>241.91</ele><time>2026-09-02T22:17:44Z</time></trkpt><trkpt lat="59.5583812706" lon="31.2630557176"><ele>241.43</ele><time>2026-09-02T22:17:45Z</time></trkpt><trkpt lat="59.5583809353" lon="31.2630750798"><ele>241.43</ele><time>2026-09-02T22:17:46Z</time></trkpt><trkpt lat="59.5583871379" lon="31.2630966213"><ele>241.43</ele><time>2026-09-02T22:17:47Z</time></trkpt><trkpt lat="59.5583857968" lon="31.2631122954"><ele>241.43</ele><time>2026-09-02T22:17:48Z</time></trkpt><trkpt lat="59.5583844557" lon="31.2631254550"><ele>241.43</ele><time>2026-09-02T22:17:49Z</time></trkpt><trkpt lat="59.5583822764" lon="31.2631357647"><ele>241.43</ele><time>2026-09-02T22:17:50Z</time></trkpt><trkpt lat="59.5583774988" lon="31.2631427217"><ele>241.43</ele><time>2026-09-02T22:17:51Z</time></trkpt><trkpt lat="59.5583723858" lon="31.2631457392"><ele>241.43</ele><time>2026-09-02T22:17:52Z</time></trkpt><trkpt lat="59.5583639201" lon="31.2631486729"><ele>241.43</ele><time>2026-09-02T22:17:53Z</time></trkpt><trkpt lat="59.5583571307" lon="31.2631514389"><ele>241.43</ele><time>2026-09-02T22:17:54Z</time></trkpt><trkpt lat="59.5583527721" lon="31.2631655205"><ele>241.43</ele><time>2026-09-02T22:17:55Z</time></trkpt><trkpt lat="59.5583472401" lon="31.2631774228"><ele>241.43</ele><time>2026-09-02T22:17:56Z</time></trkpt><trkpt lat="59.5583419595" lon="31.2631793506"><ele>241.43</ele><time>2026-09-02T22:17:57Z</time></trkpt><trkpt lat="59.5583293866" lon="31.2631807756"><ele>241.43</ele><time>2026-09-02T22:17:58Z</time></trkpt><trkpt lat="59.5583211724" lon="31.2631860562"><ele>241.43</ele><time>2026-09-02T22:17:59Z</time></trkpt><trkpt lat="59.5583133772" lon="31.2631924264"><ele>241.43</ele><time>2026-09-02T22:18:00Z</time></trkpt><trkpt lat="59.5583054982" lon="31.2632014789"><ele>241.43</ele><time>2026-09-02T22:18:01Z</time></trkpt><trkpt lat="59.5582944341" lon="31.2632050831"><ele>241.43</ele><time>2026-09-02T22:18:02Z</time></trkpt><trkpt lat="59.5582850464" lon="31.2632085197"><ele>241.43</ele><time>2026-09-02T22:18:03Z</time></trkpt><trkpt lat="59.5582757425" lon="31.2632151414"><ele>241.43</ele><time>2026-09-02T22:18:04Z</time></trkpt><trkpt lat="59.5582673606" lon="31.2632217631"><ele>241.43</ele><time>2026-09-02T22:18:05Z</time></trkpt><trkpt lat="59.5582608227" lon="31.2632307317"><ele>241.43</ele><time>2026-09-02T22:18:06Z</time></trkpt><trkpt lat="59.5582555421" lon="31.2632386945"><ele>241.43</ele><time>2026-09-02T22:18:07Z</time></trkpt><trkpt lat="59.5582509320" lon="31.2632386945"><ele>241.43</ele><time>2026-09-02T22:18:08Z</time></trkpt><trkpt lat="59.5582471602" lon="31.2632400356"><ele>241.43</ele><time>2026-09-02T22:18:09Z</time></trkpt><trkpt lat="59.5582411252" lon="31.2632483337"><ele>241.43</ele><time>2026-09-02T22:18:10Z</time></trkpt><trkpt lat="59.5582364313" lon="31.2632532790"><ele>241.43</ele><time>2026-09-02T22:18:11Z</time></trkpt><trkpt lat="59.5582326595" lon="31.2632605713"><ele>241.43</ele><time>2026-09-02T22:18:12Z</time></trkpt><trkpt lat="59.5582267921" lon="31.2632739823"><ele>241.43</ele><time>2026-09-02T22:18:13Z</time></trkpt><trkpt lat="59.5582235232" lon="31.2632845435"><ele>241.43</ele><time>2026-09-02T22:18:14Z</time></trkpt><trkpt lat="59.5582199190" lon="31.2632965297"><ele>241.43</ele><time>2026-09-02T22:18:15Z</time></trkpt><trkpt lat="59.5582114533" lon="31.2633129582"><ele>241.43</ele><time>2026-09-02T22:18:16Z</time></trkpt><trkpt lat="59.5582044963" lon="31.2633232679"><ele>241.43</ele><time>2026-09-02T22:18:17Z</time></trkpt><trkpt lat="59.5581985451" lon="31.2633346673"><ele>241.43</ele><time>2026-09-02T22:18:18Z</time></trkpt><trkpt lat="59.5581922587" lon="31.2633425463"><ele>241.43</ele><time>2026-09-02T22:18:19Z</time></trkpt><trkpt lat="59.5581843797" lon="31.2633536942"><ele>241.43</ele><time>2026-09-02T22:18:20Z</time></trkpt><trkpt lat="59.5581781771" lon="31.2633703742"><ele>241.43</ele><time>2026-09-02T22:18:21Z</time></trkpt><trkpt lat="59.5581714716" lon="31.2633864675"><ele>241.43</ele><time>2026-09-02T22:18:22Z</time></trkpt><trkpt lat="59.5581628382" lon="31.2634058297"><ele>241.43</ele><time>2026-09-02T22:18:23Z</time></trkpt><trkpt lat="59.5581558812" lon="31.2634194922"><ele>241.43</ele><time>2026-09-02T22:18:24Z</time></trkpt><trkpt lat="59.5581459906" lon="31.2634360883"><ele>241.43</ele><time>2026-09-02T22:18:25Z</time></trkpt><trkpt lat="59.5581391174" lon="31.2634516787"><ele>241.43</ele><time>2026-09-02T22:18:26Z</time></trkpt><trkpt lat="59.5581333339" lon="31.2634648383"><ele>241.43</ele><time>2026-09-02T22:18:27Z</time></trkpt><trkpt lat="59.5581284724" lon="31.2634757347"><ele>241.43</ele><time>2026-09-02T22:18:28Z</time></trkpt><trkpt lat="59.5581270475" lon="31.2634837814"><ele>241.43</ele><time>2026-09-02T22:18:29Z</time></trkpt><trkpt lat="59.5581231918" lon="31.2634897325"><ele>241.43</ele><time>2026-09-02T22:18:30Z</time></trkpt><trkpt lat="59.5581144746" lon="31.2634961866"><ele>241.43</ele><time>2026-09-02T22:18:31Z</time></trkpt><trkpt lat="59.5581074338" lon="31.2635019701"><ele>241.43</ele><time>2026-09-02T22:18:32Z</time></trkpt><trkpt lat="59.5581003930" lon="31.2635101844"><ele>241.43</ele><time>2026-09-02T22:18:33Z</time></trkpt><trkpt lat="59.5580918435" lon="31.2635205779"><ele>241.43</ele><time>2026-09-02T22:18:34Z</time></trkpt><trkpt lat="59.5580835454" lon="31.2635298818"><ele>241.43</ele><time>2026-09-02T22:18:35Z</time></trkpt><trkpt lat="59.5580734871" lon="31.2635381799"><ele>241.43</ele><time>2026-09-02T22:18:36Z</time></trkpt><trkpt lat="59.5580637641" lon="31.2635451369"><ele>241.43</ele><time>2026-09-02T22:18:37Z</time></trkpt><trkpt lat="59.5580531191" lon="31.2635540217"><ele>241.43</ele><time>2026-09-02T22:18:38Z</time></trkpt><trkpt lat="59.5580431446" lon="31.2635659240"><ele>241.43</ele><time>2026-09-02T22:18:39Z</time></trkpt><trkpt lat="59.5580311585" lon="31.2635798380"><ele>241.43</ele><time>2026-09-02T22:18:40Z</time></trkpt><trkpt lat="59.5580218546" lon="31.2635870464"><ele>241.43</ele><time>2026-09-02T22:18:41Z</time></trkpt><trkpt lat="59.5580124669" lon="31.2635944225"><ele>241.43</ele><time>2026-09-02T22:18:42Z</time></trkpt><trkpt lat="59.5580031630" lon="31.2635996193"><ele>241.43</ele><time>2026-09-02T22:18:43Z</time></trkpt><trkpt lat="59.5579945296" lon="31.2636050675"><ele>241.43</ele><time>2026-09-02T22:18:44Z</time></trkpt><trkpt lat="59.5579847228" lon="31.2636100966"><ele>241.43</ele><time>2026-09-02T22:18:45Z</time></trkpt><trkpt lat="59.5579772629" lon="31.2636196520"><ele>241.43</ele><time>2026-09-02T22:18:46Z</time></trkpt><trkpt lat="59.5579719823" lon="31.2636290397"><ele>241.43</ele><time>2026-09-02T22:18:47Z</time></trkpt><trkpt lat="59.5579653606" lon="31.2636387628"><ele>241.43</ele><time>2026-09-02T22:18:48Z</time></trkpt><trkpt lat="59.5579584874" lon="31.2636507489"><ele>241.43</ele><time>2026-09-02T22:18:49Z</time></trkpt><trkpt lat="59.5579523686" lon="31.2636582926"><ele>241.43</ele><time>2026-09-02T22:18:50Z</time></trkpt><trkpt lat="59.5579463337" lon="31.2636655848"><ele>241.43</ele><time>2026-09-02T22:18:51Z</time></trkpt><trkpt lat="59.5579426456" lon="31.2636670936"><ele>241.43</ele><time>2026-09-02T22:18:52Z</time></trkpt><trkpt lat="59.5579386223" lon="31.2636664230"><ele>241.43</ele><time>2026-09-02T22:18:53Z</time></trkpt><trkpt lat="59.5579285640" lon="31.2636716198"><ele>241.43</ele><time>2026-09-02T22:18:54Z</time></trkpt><trkpt lat="59.5579207689" lon="31.2636734638"><ele>241.43</ele><time>2026-09-02T22:18:55Z</time></trkpt><trkpt lat="59.5579141472" lon="31.2636753917"><ele>241.43</ele><time>2026-09-02T22:18:56Z</time></trkpt><trkpt lat="59.5579074416" lon="31.2636747211"><ele>241.43</ele><time>2026-09-02T22:18:57Z</time></trkpt><trkpt lat="59.5578993950" lon="31.2636766490"><ele>241.43</ele><time>2026-09-02T22:18:58Z</time></trkpt><trkpt lat="59.5578936953" lon="31.2636795826"><ele>241.43</ele><time>2026-09-02T22:18:59Z</time></trkpt><trkpt lat="59.5578852296" lon="31.2636860367"><ele>241.43</ele><time>2026-09-02T22:19:00Z</time></trkpt><trkpt lat="59.5578789432" lon="31.2636955921"><ele>241.43</ele><time>2026-09-02T22:19:01Z</time></trkpt><trkpt lat="59.5578760933" lon="31.2637035549"><ele>241.43</ele><time>2026-09-02T22:19:02Z</time></trkpt><trkpt lat="59.5578705613" lon="31.2637136970"><ele>241.43</ele><time>2026-09-02T22:19:03Z</time></trkpt><trkpt lat="59.5578648616" lon="31.2637269404"><ele>241.43</ele><time>2026-09-02T22:19:04Z</time></trkpt><trkpt lat="59.5578617603" lon="31.2637405191"><ele>241.43</ele><time>2026-09-02T22:19:05Z</time></trkpt><trkpt lat="59.5578626823" lon="31.2637508288"><ele>241.43</ele><time>2026-09-02T22:19:06Z</time></trkpt><trkpt lat="59.5578617603" lon="31.2637607194"><ele>241.43</ele><time>2026-09-02T22:19:07Z</time></trkpt><trkpt lat="59.5578610897" lon="31.2637694366"><ele>241.43</ele><time>2026-09-02T22:19:08Z</time></trkpt><trkpt lat="59.5578604192" lon="31.2637790758"><ele>241.43</ele><time>2026-09-02T22:19:09Z</time></trkpt><trkpt lat="59.5578600839" lon="31.2637913972"><ele>241.43</ele><time>2026-09-02T22:19:10Z</time></trkpt><trkpt lat="59.5578566473" lon="31.2638035510"><ele>241.43</ele><time>2026-09-02T22:19:11Z</time></trkpt><trkpt lat="59.5578526240" lon="31.2638163753"><ele>241.43</ele><time>2026-09-02T22:19:12Z</time></trkpt><trkpt lat="59.5578467567" lon="31.2638303731"><ele>241.43</ele><time>2026-09-02T22:19:13Z</time></trkpt><trkpt lat="59.5578402188" lon="31.2638495676"><ele>241.43</ele><time>2026-09-02T22:19:14Z</time></trkpt><trkpt lat="59.5578332618" lon="31.2638624758"><ele>241.43</ele><time>2026-09-02T22:19:15Z</time></trkpt><trkpt lat="59.5578336809" lon="31.2638763897"><ele>241.43</ele><time>2026-09-02T22:19:16Z</time></trkpt><trkpt lat="59.5578294899" lon="31.2638853583"><ele>241.43</ele><time>2026-09-02T22:19:17Z</time></trkpt><trkpt lat="59.5578273945" lon="31.2639026251"><ele>241.43</ele><time>2026-09-02T22:19:18Z</time></trkpt><trkpt lat="59.5578253828" lon="31.2639160361"><ele>241.43</ele><time>2026-09-02T22:19:19Z</time></trkpt><trkpt lat="59.5578238741" lon="31.2639277708"><ele>241.43</ele><time>2026-09-02T22:19:20Z</time></trkpt><trkpt lat="59.5578218624" lon="31.2639384996"><ele>241.43</ele><time>2026-09-02T22:19:21Z</time></trkpt><trkpt lat="59.5578190964" lon="31.2639519945"><ele>241.43</ele><time>2026-09-02T22:19:22Z</time></trkpt><trkpt lat="59.5578175876" lon="31.2639667466"><ele>241.43</ele><time>2026-09-02T22:19:23Z</time></trkpt><trkpt lat="59.5578207728" lon="31.2639839295"><ele>241.43</ele><time>2026-09-02T22:19:24Z</time></trkpt><trkpt lat="59.5578222815" lon="31.2639997713"><ele>241.43</ele><time>2026-09-02T22:19:25Z</time></trkpt><trkpt lat="59.5578236226" lon="31.2640170380"><ele>241.43</ele><time>2026-09-02T22:19:26Z</time></trkpt><trkpt lat="59.5578224491" lon="31.2640314549"><ele>241.43</ele><time>2026-09-02T22:19:27Z</time></trkpt><trkpt lat="59.5578216948" lon="31.2640454527"><ele>241.43</ele><time>2026-09-02T22:19:28Z</time></trkpt><trkpt lat="59.5578255504" lon="31.2640584446"><ele>241.43</ele><time>2026-09-02T22:19:29Z</time></trkpt><trkpt lat="59.5578240417" lon="31.2640788965"><ele>241.43</ele><time>2026-09-02T22:19:30Z</time></trkpt><trkpt lat="59.5578213595" lon="31.2640930619"><ele>241.43</ele><time>2026-09-02T22:19:31Z</time></trkpt><trkpt lat="59.5578185935" lon="31.2641153578"><ele>241.43</ele><time>2026-09-02T22:19:32Z</time></trkpt><trkpt lat="59.5578126423" lon="31.2641336303"><ele>241.43</ele><time>2026-09-02T22:19:33Z</time></trkpt><trkpt lat="59.5578061882" lon="31.2641515676"><ele>241.43</ele><time>2026-09-02T22:19:34Z</time></trkpt><trkpt lat="59.5578018297" lon="31.2641678285"><ele>241.43</ele><time>2026-09-02T22:19:35Z</time></trkpt><trkpt lat="59.5577968843" lon="31.2641847599"><ele>241.43</ele><time>2026-09-02T22:19:36Z</time></trkpt><trkpt lat="59.5577935316" lon="31.2642046250"><ele>241.43</ele><time>2026-09-02T22:19:37Z</time></trkpt><trkpt lat="59.5577900950" lon="31.2642203830"><ele>241.43</ele><time>2026-09-02T22:19:38Z</time></trkpt><trkpt lat="59.5577875804" lon="31.2642297707"><ele>241.43</ele><time>2026-09-02T22:19:39Z</time></trkpt><trkpt lat="59.5577805396" lon="31.2642395776"><ele>241.43</ele><time>2026-09-02T22:19:40Z</time></trkpt><trkpt lat="59.5577744208" lon="31.2642485462"><ele>241.43</ele><time>2026-09-02T22:19:41Z</time></trkpt><trkpt lat="59.5577684697" lon="31.2642600294"><ele>241.43</ele><time>2026-09-02T22:19:42Z</time></trkpt><trkpt lat="59.5577679668" lon="31.2642708421"><ele>241.43</ele><time>2026-09-02T22:19:43Z</time></trkpt><trkpt lat="59.5577652846" lon="31.2642864324"><ele>241.43</ele><time>2026-09-02T22:19:44Z</time></trkpt><trkpt lat="59.5577626862" lon="31.2643021904"><ele>240.95</ele><time>2026-09-02T22:19:45Z</time></trkpt><trkpt lat="59.5577565674" lon="31.2643141765"><ele>240.95</ele><time>2026-09-02T22:19:46Z</time></trkpt><trkpt lat="59.5577515382" lon="31.2643301859"><ele>240.95</ele><time>2026-09-02T22:19:47Z</time></trkpt><trkpt lat="59.5577467605" lon="31.2643441837"><ele>240.95</ele><time>2026-09-02T22:19:48Z</time></trkpt><trkpt lat="59.5577415638" lon="31.2643551640"><ele>240.95</ele><time>2026-09-02T22:19:49Z</time></trkpt><trkpt lat="59.5577360317" lon="31.2643668987"><ele>240.95</ele><time>2026-09-02T22:19:50Z</time></trkpt><trkpt lat="59.5577284880" lon="31.2643768732"><ele>240.95</ele><time>2026-09-02T22:19:51Z</time></trkpt><trkpt lat="59.5577210281" lon="31.2643871829"><ele>240.95</ele><time>2026-09-02T22:19:52Z</time></trkpt><trkpt lat="59.5577132329" lon="31.2643980794"><ele>240.95</ele><time>2026-09-02T22:19:53Z</time></trkpt><trkpt lat="59.5577055216" lon="31.2644067965"><ele>240.95</ele><time>2026-09-02T22:19:54Z</time></trkpt><trkpt lat="59.5576983970" lon="31.2644126639"><ele>240.95</ele><time>2026-09-02T22:19:55Z</time></trkpt><trkpt lat="59.5576898474" lon="31.2644195370"><ele>240.95</ele><time>2026-09-02T22:19:56Z</time></trkpt><trkpt lat="59.5576797891" lon="31.2644240633"><ele>240.95</ele><time>2026-09-02T22:19:57Z</time></trkpt><trkpt lat="59.5576720778" lon="31.2644263264"><ele>240.95</ele><time>2026-09-02T22:19:58Z</time></trkpt><trkpt lat="59.5576629415" lon="31.2644279189"><ele>240.95</ele><time>2026-09-02T22:19:59Z</time></trkpt><trkpt lat="59.5576544758" lon="31.2644266617"><ele>240.95</ele><time>2026-09-02T22:20:00Z</time></trkpt><trkpt lat="59.5576459263" lon="31.2644237280"><ele>240.95</ele><time>2026-09-02T22:20:01Z</time></trkpt><trkpt lat="59.5576394722" lon="31.2644220516"><ele>240.95</ele><time>2026-09-02T22:20:02Z</time></trkpt><trkpt lat="59.5576305874" lon="31.2644192856"><ele>240.95</ele><time>2026-09-02T22:20:03Z</time></trkpt><trkpt lat="59.5576227922" lon="31.2644191179"><ele>241.43</ele><time>2026-09-02T22:20:04Z</time></trkpt><trkpt lat="59.5576161705" lon="31.2644207943"><ele>241.43</ele><time>2026-09-02T22:20:05Z</time></trkpt><trkpt lat="59.5576062799" lon="31.2644228898"><ele>241.43</ele><time>2026-09-02T22:20:06Z</time></trkpt><trkpt lat="59.5576009993" lon="31.2644323613"><ele>241.43</ele><time>2026-09-02T22:20:07Z</time></trkpt><trkpt lat="59.5575938746" lon="31.2644381449"><ele>241.43</ele><time>2026-09-02T22:20:08Z</time></trkpt><trkpt lat="59.5575887617" lon="31.2644444313"><ele>241.43</ele><time>2026-09-02T22:20:09Z</time></trkpt><trkpt lat="59.5575874206" lon="31.2644410785"><ele>241.43</ele><time>2026-09-02T22:20:10Z</time></trkpt><trkpt lat="59.5575840678" lon="31.2644400727"><ele>241.43</ele><time>2026-09-02T22:20:11Z</time></trkpt><trkpt lat="59.5575835649" lon="31.2644375581"><ele>241.43</ele><time>2026-09-02T22:20:12Z</time></trkpt><trkpt lat="59.5575830620" lon="31.2644314393"><ele>241.43</ele><time>2026-09-02T22:20:13Z</time></trkpt><trkpt lat="59.5575821400" lon="31.2644353788"><ele>241.43</ele><time>2026-09-02T22:20:14Z</time></trkpt><trkpt lat="59.5575810503" lon="31.2644316908"><ele>241.43</ele><time>2026-09-02T22:20:15Z</time></trkpt><trkpt lat="59.5575782843" lon="31.2644307688"><ele>241.43</ele><time>2026-09-02T22:20:16Z</time></trkpt><trkpt lat="59.5575761888" lon="31.2644356303"><ele>241.43</ele><time>2026-09-02T22:20:17Z</time></trkpt><trkpt lat="59.5575736742" lon="31.2644342892"><ele>241.43</ele><time>2026-09-02T22:20:18Z</time></trkpt><trkpt lat="59.5575718302" lon="31.2644324452"><ele>241.43</ele><time>2026-09-02T22:20:19Z</time></trkpt><trkpt lat="59.5575714950" lon="31.2644313555"><ele>241.43</ele><time>2026-09-02T22:20:20Z</time></trkpt><trkpt lat="59.5575696509" lon="31.2644285895"><ele>241.43</ele><time>2026-09-02T22:20:21Z</time></trkpt><trkpt lat="59.5575687289" lon="31.2644260749"><ele>241.43</ele><time>2026-09-02T22:20:22Z</time></trkpt><trkpt lat="59.5575678907" lon="31.2644260749"><ele>241.43</ele><time>2026-09-02T22:20:23Z</time></trkpt><trkpt lat="59.5575675555" lon="31.2644262426"><ele>241.43</ele><time>2026-09-02T22:20:24Z</time></trkpt><trkpt lat="59.5575671364" lon="31.2644259911"><ele>241.43</ele><time>2026-09-02T22:20:25Z</time></trkpt><trkpt lat="59.5575675555" lon="31.2644249853"><ele>241.43</ele><time>2026-09-02T22:20:26Z</time></trkpt><trkpt lat="59.5575678907" lon="31.2644275837"><ele>241.43</ele><time>2026-09-02T22:20:27Z</time></trkpt><trkpt lat="59.5575677231" lon="31.2644289248"><ele>241.43</ele><time>2026-09-02T22:20:28Z</time></trkpt><trkpt lat="59.5575677231" lon="31.2644287571"><ele>241.43</ele><time>2026-09-02T22:20:29Z</time></trkpt><trkpt lat="59.5575675555" lon="31.2644293439"><ele>241.43</ele><time>2026-09-02T22:20:30Z</time></trkpt><trkpt lat="59.5575673878" lon="31.2644295953"><ele>241.43</ele><time>2026-09-02T22:20:31Z</time></trkpt><trkpt lat="59.5575667173" lon="31.2644290924"><ele>241.43</ele><time>2026-09-02T22:20:32Z</time></trkpt><trkpt lat="59.5575659629" lon="31.2644272484"><ele>241.43</ele><time>2026-09-02T22:20:33Z</time></trkpt><trkpt lat="59.5575649571" lon="31.2644269969"><ele>241.43</ele><time>2026-09-02T22:20:34Z</time></trkpt><trkpt lat="59.5575636998" lon="31.2644258235"><ele>241.43</ele><time>2026-09-02T22:20:35Z</time></trkpt><trkpt lat="59.5575626940" lon="31.2644237280"><ele>241.43</ele><time>2026-09-02T22:20:36Z</time></trkpt><trkpt lat="59.5575632807" lon="31.2644257396"><ele>241.43</ele><time>2026-09-02T22:20:37Z</time></trkpt><trkpt lat="59.5575625263" lon="31.2644244824"><ele>241.43</ele><time>2026-09-02T22:20:38Z</time></trkpt><trkpt lat="59.5575618558" lon="31.2644221354"><ele>241.43</ele><time>2026-09-02T22:20:39Z</time></trkpt><trkpt lat="59.5575618558" lon="31.2644211296"><ele>241.43</ele><time>2026-09-02T22:20:40Z</time></trkpt><trkpt lat="59.5575621910" lon="31.2644201238"><ele>241.43</ele><time>2026-09-02T22:20:41Z</time></trkpt><trkpt lat="59.5575623587" lon="31.2644201238"><ele>241.43</ele><time>2026-09-02T22:20:42Z</time></trkpt><trkpt lat="59.5575626940" lon="31.2644192856"><ele>241.43</ele><time>2026-09-02T22:20:43Z</time></trkpt><trkpt lat="59.5575628616" lon="31.2644184474"><ele>241.43</ele><time>2026-09-02T22:20:44Z</time></trkpt><trkpt lat="59.5575632807" lon="31.2644182798"><ele>241.43</ele><time>2026-09-02T22:20:45Z</time></trkpt><trkpt lat="59.5575630292" lon="31.2644171901"><ele>241.43</ele><time>2026-09-02T22:20:46Z</time></trkpt><trkpt lat="59.5575629454" lon="31.2644169386"><ele>241.43</ele><time>2026-09-02T22:20:47Z</time></trkpt><trkpt lat="59.5575636998" lon="31.2644159328"><ele>241.43</ele><time>2026-09-02T22:20:48Z</time></trkpt><trkpt lat="59.5575632807" lon="31.2644169386"><ele>241.43</ele><time>2026-09-02T22:20:49Z</time></trkpt><trkpt lat="59.5575638674" lon="31.2644156814"><ele>241.43</ele><time>2026-09-02T22:20:50Z</time></trkpt><trkpt lat="59.5575640351" lon="31.2644161843"><ele>241.43</ele><time>2026-09-02T22:20:51Z</time></trkpt><trkpt lat="59.5575646218" lon="31.2644180283"><ele>241.43</ele><time>2026-09-02T22:20:52Z</time></trkpt><trkpt lat="59.5575660467" lon="31.2644168548"><ele>241.43</ele><time>2026-09-02T22:20:53Z</time></trkpt><trkpt lat="59.5575674716" lon="31.2644160166"><ele>241.43</ele><time>2026-09-02T22:20:54Z</time></trkpt><trkpt lat="59.5575678907" lon="31.2644145917"><ele>241.43</ele><time>2026-09-02T22:20:55Z</time></trkpt><trkpt lat="59.5575673878" lon="31.2644125801"><ele>241.43</ele><time>2026-09-02T22:20:56Z</time></trkpt><trkpt lat="59.5575670525" lon="31.2644109875"><ele>241.43</ele><time>2026-09-02T22:20:57Z</time></trkpt><trkpt lat="59.5575663820" lon="31.2644089758"><ele>241.43</ele><time>2026-09-02T22:20:58Z</time></trkpt><trkpt lat="59.5575660467" lon="31.2644064613"><ele>241.43</ele><time>2026-09-02T22:20:59Z</time></trkpt><trkpt lat="59.5575651247" lon="31.2644028571"><ele>241.43</ele><time>2026-09-02T22:21:00Z</time></trkpt><trkpt lat="59.5575651247" lon="31.2644003425"><ele>241.43</ele><time>2026-09-02T22:21:01Z</time></trkpt><trkpt lat="59.5575641189" lon="31.2643956486"><ele>241.43</ele><time>2026-09-02T22:21:02Z</time></trkpt><trkpt lat="59.5575654600" lon="31.2643995881"><ele>241.43</ele><time>2026-09-02T22:21:03Z</time></trkpt><trkpt lat="59.5575645380" lon="31.2643956486"><ele>241.43</ele><time>2026-09-02T22:21:04Z</time></trkpt><trkpt lat="59.5575638674" lon="31.2643956486"><ele>241.43</ele><time>2026-09-02T22:21:05Z</time></trkpt><trkpt lat="59.5575635321" lon="31.2643966544"><ele>241.43</ele><time>2026-09-02T22:21:06Z</time></trkpt><trkpt lat="59.5575631969" lon="31.2643965706"><ele>241.43</ele><time>2026-09-02T22:21:07Z</time></trkpt><trkpt lat="59.5575631969" lon="31.2643957324"><ele>241.43</ele><time>2026-09-02T22:21:08Z</time></trkpt><trkpt lat="59.5575634483" lon="31.2643946428"><ele>241.43</ele><time>2026-09-02T22:21:09Z</time></trkpt><trkpt lat="59.5575634483" lon="31.2643934693"><ele>241.43</ele><time>2026-09-02T22:21:10Z</time></trkpt><trkpt lat="59.5575633645" lon="31.2643924635"><ele>241.43</ele><time>2026-09-02T22:21:11Z</time></trkpt><trkpt lat="59.5575633645" lon="31.2643904518"><ele>241.43</ele><time>2026-09-02T22:21:12Z</time></trkpt><trkpt lat="59.5575635321" lon="31.2643895298"><ele>241.43</ele><time>2026-09-02T22:21:13Z</time></trkpt><trkpt lat="59.5575632807" lon="31.2643897813"><ele>241.43</ele><time>2026-09-02T22:21:14Z</time></trkpt><trkpt lat="59.5575634483" lon="31.2643896975"><ele>241.43</ele><time>2026-09-02T22:21:15Z</time></trkpt><trkpt lat="59.5575641189" lon="31.2643896975"><ele>241.43</ele><time>2026-09-02T22:21:16Z</time></trkpt><trkpt lat="59.5575642865" lon="31.2643896975"><ele>241.43</ele><time>2026-09-02T22:21:17Z</time></trkpt><trkpt lat="59.5575644542" lon="31.2643890269"><ele>241.43</ele><time>2026-09-02T22:21:18Z</time></trkpt><trkpt lat="59.5575655438" lon="31.2643876858"><ele>241.43</ele><time>2026-09-02T22:21:19Z</time></trkpt><trkpt lat="59.5575654600" lon="31.2643878534"><ele>241.43</ele><time>2026-09-02T22:21:20Z</time></trkpt><trkpt lat="59.5575632807" lon="31.2643869314"><ele>241.43</ele><time>2026-09-02T22:21:21Z</time></trkpt><trkpt lat="59.5575627778" lon="31.2643903680"><ele>241.43</ele><time>2026-09-02T22:21:22Z</time></trkpt><trkpt lat="59.5575620234" lon="31.2643918768"><ele>241.43</ele><time>2026-09-02T22:21:23Z</time></trkpt><trkpt lat="59.5575621910" lon="31.2643941399"><ele>241.43</ele><time>2026-09-02T22:21:24Z</time></trkpt><trkpt lat="59.5575615205" lon="31.2643932179"><ele>241.43</ele><time>2026-09-02T22:21:25Z</time></trkpt><trkpt lat="59.5575623587" lon="31.2643965706"><ele>241.43</ele><time>2026-09-02T22:21:26Z</time></trkpt><trkpt lat="59.5575615205" lon="31.2644030247"><ele>241.43</ele><time>2026-09-02T22:21:27Z</time></trkpt><trkpt lat="59.5575584192" lon="31.2644143403"><ele>241.43</ele><time>2026-09-02T22:21:28Z</time></trkpt><trkpt lat="59.5575541444" lon="31.2644181959"><ele>241.43</ele><time>2026-09-02T22:21:29Z</time></trkpt><trkpt lat="59.5575495344" lon="31.2644247338"><ele>241.43</ele><time>2026-09-02T22:21:30Z</time></trkpt><trkpt lat="59.5575463492" lon="31.2644340377"><ele>241.43</ele><time>2026-09-02T22:21:31Z</time></trkpt><trkpt lat="59.5575418230" lon="31.2644493766"><ele>241.43</ele><time>2026-09-02T22:21:32Z</time></trkpt><trkpt lat="59.5575349499" lon="31.2644653860"><ele>241.43</ele><time>2026-09-02T22:21:33Z</time></trkpt><trkpt lat="59.5575276576" lon="31.2644741870"><ele>241.43</ele><time>2026-09-02T22:21:34Z</time></trkpt><trkpt lat="59.5575208683" lon="31.2644835748"><ele>241.43</ele><time>2026-09-02T22:21:35Z</time></trkpt><trkpt lat="59.5575147495" lon="31.2644910347"><ele>241.43</ele><time>2026-09-02T22:21:36Z</time></trkpt><trkpt lat="59.5575119834" lon="31.2644996680"><ele>241.43</ele><time>2026-09-02T22:21:37Z</time></trkpt><trkpt lat="59.5575071219" lon="31.2645120732"><ele>241.43</ele><time>2026-09-02T22:21:38Z</time></trkpt><trkpt lat="59.5575044397" lon="31.2645275798"><ele>241.43</ele><time>2026-09-02T22:21:39Z</time></trkpt><trkpt lat="59.5575021766" lon="31.2645416614"><ele>241.43</ele><time>2026-09-02T22:21:40Z</time></trkpt><trkpt lat="59.5575004164" lon="31.2645565812"><ele>241.43</ele><time>2026-09-02T22:21:41Z</time></trkpt><trkpt lat="59.5574973989" lon="31.2645708304"><ele>241.43</ele><time>2026-09-02T22:21:42Z</time></trkpt><trkpt lat="59.5574966446" lon="31.2645846605"><ele>241.43</ele><time>2026-09-02T22:21:43Z</time></trkpt><trkpt lat="59.5574976504" lon="31.2646010891"><ele>241.43</ele><time>2026-09-02T22:21:44Z</time></trkpt><trkpt lat="59.5574978180" lon="31.2646173500"><ele>241.43</ele><time>2026-09-02T22:21:45Z</time></trkpt><trkpt lat="59.5574968960" lon="31.2646298390"><ele>241.43</ele><time>2026-09-02T22:21:46Z</time></trkpt><trkpt lat="59.5574942976" lon="31.2646426633"><ele>241.43</ele><time>2026-09-02T22:21:47Z</time></trkpt><trkpt lat="59.5574902743" lon="31.2646527216"><ele>241.43</ele><time>2026-09-02T22:21:48Z</time></trkpt><trkpt lat="59.5574846584" lon="31.2646614388"><ele>241.43</ele><time>2026-09-02T22:21:49Z</time></trkpt><trkpt lat="59.5574803837" lon="31.2646694854"><ele>241.43</ele><time>2026-09-02T22:21:50Z</time></trkpt><trkpt lat="59.5574756898" lon="31.2646737602"><ele>241.43</ele><time>2026-09-02T22:21:51Z</time></trkpt><trkpt lat="59.5574705768" lon="31.2646768615"><ele>241.43</ele><time>2026-09-02T22:21:52Z</time></trkpt><trkpt lat="59.5574676432" lon="31.2646818906"><ele>241.43</ele><time>2026-09-02T22:21:53Z</time></trkpt><trkpt lat="59.5574656315" lon="31.2646887638"><ele>241.43</ele><time>2026-09-02T22:21:54Z</time></trkpt><trkpt lat="59.5574642904" lon="31.2646946311"><ele>241.43</ele><time>2026-09-02T22:21:55Z</time></trkpt><trkpt lat="59.5574637875" lon="31.2647019234"><ele>241.43</ele><time>2026-09-02T22:21:56Z</time></trkpt><trkpt lat="59.5574617758" lon="31.2647141609"><ele>241.43</ele><time>2026-09-02T22:21:57Z</time></trkpt><trkpt lat="59.5574579202" lon="31.2647284940"><ele>241.43</ele><time>2026-09-02T22:21:58Z</time></trkpt><trkpt lat="59.5574524719" lon="31.2647380494"><ele>241.43</ele><time>2026-09-02T22:21:59Z</time></trkpt><trkpt lat="59.5574475266" lon="31.2647493649"><ele>241.43</ele><time>2026-09-02T22:22:00Z</time></trkpt><trkpt lat="59.5574415755" lon="31.2647521310"><ele>241.43</ele><time>2026-09-02T22:22:01Z</time></trkpt><trkpt lat="59.5574325230" lon="31.2647606805"><ele>241.43</ele><time>2026-09-02T22:22:02Z</time></trkpt><trkpt lat="59.5574257337" lon="31.2647625245"><ele>241.43</ele><time>2026-09-02T22:22:03Z</time></trkpt><trkpt lat="59.5574144181" lon="31.2647652905"><ele>241.43</ele><time>2026-09-02T22:22:04Z</time></trkpt><trkpt lat="59.5574073773" lon="31.2647766899"><ele>240.95</ele><time>2026-09-02T22:22:05Z</time></trkpt><trkpt lat="59.5574038569" lon="31.2647885922"><ele>240.95</ele><time>2026-09-02T22:22:06Z</time></trkpt><trkpt lat="59.5574013423" lon="31.2647991534"><ele>240.95</ele><time>2026-09-02T22:22:07Z</time></trkpt><trkpt lat="59.5573945530" lon="31.2648184318"><ele>240.95</ele><time>2026-09-02T22:22:08Z</time></trkpt><trkpt lat="59.5573907811" lon="31.2648318429"><ele>240.95</ele><time>2026-09-02T22:22:09Z</time></trkpt><trkpt lat="59.5573857520" lon="31.2648431584"><ele>240.95</ele><time>2026-09-02T22:22:10Z</time></trkpt><trkpt lat="59.5573812257" lon="31.2648507860"><ele>240.95</ele><time>2026-09-02T22:22:11Z</time></trkpt><trkpt lat="59.5573726762" lon="31.2648570724"><ele>240.95</ele><time>2026-09-02T22:22:12Z</time></trkpt><trkpt lat="59.5573677309" lon="31.2648593355"><ele>240.95</ele><time>2026-09-02T22:22:13Z</time></trkpt><trkpt lat="59.5573619474" lon="31.2648632750"><ele>240.95</ele><time>2026-09-02T22:22:14Z</time></trkpt><trkpt lat="59.5573539846" lon="31.2648689747"><ele>240.95</ele><time>2026-09-02T22:22:15Z</time></trkpt><trkpt lat="59.5573423337" lon="31.2648742553"><ele>240.95</ele><time>2026-09-02T22:22:16Z</time></trkpt><trkpt lat="59.5573379751" lon="31.2648828886"><ele>240.95</ele><time>2026-09-02T22:22:17Z</time></trkpt><trkpt lat="59.5573313534" lon="31.2648885883"><ele>240.47</ele><time>2026-09-02T22:22:18Z</time></trkpt><trkpt lat="59.5573260728" lon="31.2648971379"><ele>240.47</ele><time>2026-09-02T22:22:19Z</time></trkpt><trkpt lat="59.5573207922" lon="31.2649086211"><ele>240.47</ele><time>2026-09-02T22:22:20Z</time></trkpt><trkpt lat="59.5573174395" lon="31.2649205234"><ele>240.47</ele><time>2026-09-02T22:22:21Z</time></trkpt><trkpt lat="59.5573129971" lon="31.2649352755"><ele>240.47</ele><time>2026-09-02T22:22:22Z</time></trkpt><trkpt lat="59.5573103987" lon="31.2649454176"><ele>240.47</ele><time>2026-09-02T22:22:23Z</time></trkpt><trkpt lat="59.5573070459" lon="31.2649613433"><ele>240.47</ele><time>2026-09-02T22:22:24Z</time></trkpt><trkpt lat="59.5573078841" lon="31.2649691384"><ele>240.47</ele><time>2026-09-02T22:22:25Z</time></trkpt><trkpt lat="59.5573070459" lon="31.2649782747"><ele>240.47</ele><time>2026-09-02T22:22:26Z</time></trkpt><trkpt lat="59.5573041961" lon="31.2649881653"><ele>239.99</ele><time>2026-09-02T22:22:27Z</time></trkpt><trkpt lat="59.5573014300" lon="31.2649953738"><ele>239.99</ele><time>2026-09-02T22:22:28Z</time></trkpt><trkpt lat="59.5573001727" lon="31.2650041748"><ele>239.99</ele><time>2026-09-02T22:22:29Z</time></trkpt><trkpt lat="59.5573001727" lon="31.2650116347"><ele>239.99</ele><time>2026-09-02T22:22:30Z</time></trkpt><trkpt lat="59.5572939701" lon="31.2650281470"><ele>239.99</ele><time>2026-09-02T22:22:31Z</time></trkpt><trkpt lat="59.5572986640" lon="31.2650190946"><ele>239.99</ele><time>2026-09-02T22:22:32Z</time></trkpt><trkpt lat="59.5572934672" lon="31.2650194298"><ele>239.99</ele><time>2026-09-02T22:22:33Z</time></trkpt><trkpt lat="59.5572868455" lon="31.2650248781"><ele>239.99</ele><time>2026-09-02T22:22:34Z</time></trkpt><trkpt lat="59.5572791342" lon="31.2650318351"><ele>239.99</ele><time>2026-09-02T22:22:35Z</time></trkpt><trkpt lat="59.5572714228" lon="31.2650362775"><ele>239.99</ele><time>2026-09-02T22:22:36Z</time></trkpt><trkpt lat="59.5572674833" lon="31.2650375348"><ele>239.99</ele><time>2026-09-02T22:22:37Z</time></trkpt><trkpt lat="59.5572628733" lon="31.2650538795"><ele>239.99</ele><time>2026-09-02T22:22:38Z</time></trkpt><trkpt lat="59.5572589338" lon="31.2650634348"><ele>239.99</ele><time>2026-09-02T22:22:39Z</time></trkpt><trkpt lat="59.5572514739" lon="31.2650684640"><ele>239.51</ele><time>2026-09-02T22:22:40Z</time></trkpt><trkpt lat="59.5572465286" lon="31.2650747504"><ele>239.51</ele><time>2026-09-02T22:22:41Z</time></trkpt><trkpt lat="59.5572407451" lon="31.2650788575"><ele>239.51</ele><time>2026-09-02T22:22:42Z</time></trkpt><trkpt lat="59.5572342910" lon="31.2650862336"><ele>239.51</ele><time>2026-09-02T22:22:43Z</time></trkpt><trkpt lat="59.5572277531" lon="31.2650950346"><ele>239.51</ele><time>2026-09-02T22:22:44Z</time></trkpt><trkpt lat="59.5572202932" lon="31.2651077751"><ele>239.51</ele><time>2026-09-02T22:22:45Z</time></trkpt><trkpt lat="59.5572136715" lon="31.2651252933"><ele>239.51</ele><time>2026-09-02T22:22:46Z</time></trkpt><trkpt lat="59.5572071336" lon="31.2651370279"><ele>239.51</ele><time>2026-09-02T22:22:47Z</time></trkpt><trkpt lat="59.5572024398" lon="31.2651463319"><ele>239.02</ele><time>2026-09-02T22:22:48Z</time></trkpt><trkpt lat="59.5571970753" lon="31.2651554681"><ele>239.02</ele><time>2026-09-02T22:22:49Z</time></trkpt><trkpt lat="59.5571914595" lon="31.2651639339"><ele>239.02</ele><time>2026-09-02T22:22:50Z</time></trkpt><trkpt lat="59.5571858436" lon="31.2651690468"><ele>239.02</ele><time>2026-09-02T22:22:51Z</time></trkpt><trkpt lat="59.5571797248" lon="31.2651761714"><ele>239.02</ele><time>2026-09-02T22:22:52Z</time></trkpt><trkpt lat="59.5571810659" lon="31.2651746627"><ele>239.02</ele><time>2026-09-02T22:22:53Z</time></trkpt><trkpt lat="59.5571766235" lon="31.2651784346"><ele>239.02</ele><time>2026-09-02T22:22:54Z</time></trkpt><trkpt lat="59.5571765397" lon="31.2651786860"><ele>239.02</ele><time>2026-09-02T22:22:55Z</time></trkpt><trkpt lat="59.5571784675" lon="31.2651814520"><ele>239.02</ele><time>2026-09-02T22:22:56Z</time></trkpt><trkpt lat="59.5571774617" lon="31.2651893310"><ele>239.02</ele><time>2026-09-02T22:22:57Z</time></trkpt><trkpt lat="59.5571792219" lon="31.2651973777"><ele>238.54</ele><time>2026-09-02T22:22:58Z</time></trkpt><trkpt lat="59.5571743604" lon="31.2652085256"><ele>238.54</ele><time>2026-09-02T22:22:59Z</time></trkpt><trkpt lat="59.5571712591" lon="31.2652138900"><ele>238.54</ele><time>2026-09-02T22:23:00Z</time></trkpt><trkpt lat="59.5571675710" lon="31.2652195897"><ele>238.54</ele><time>2026-09-02T22:23:01Z</time></trkpt><trkpt lat="59.5571630448" lon="31.2652286422"><ele>238.54</ele><time>2026-09-02T22:23:02Z</time></trkpt><trkpt lat="59.5571565907" lon="31.2652387843"><ele>238.54</ele><time>2026-09-02T22:23:03Z</time></trkpt><trkpt lat="59.5571487956" lon="31.2652437296"><ele>238.54</ele><time>2026-09-02T22:23:04Z</time></trkpt><trkpt lat="59.5571417548" lon="31.2652484234"><ele>238.54</ele><time>2026-09-02T22:23:05Z</time></trkpt><trkpt lat="59.5571366418" lon="31.2652532849"><ele>238.06</ele><time>2026-09-02T22:23:06Z</time></trkpt><trkpt lat="59.5571323670" lon="31.2652553804"><ele>238.06</ele><time>2026-09-02T22:23:07Z</time></trkpt><trkpt lat="59.5571236499" lon="31.2652611639"><ele>238.06</ele><time>2026-09-02T22:23:08Z</time></trkpt><trkpt lat="59.5571179502" lon="31.2652630918"><ele>238.06</ele><time>2026-09-02T22:23:09Z</time></trkpt><trkpt lat="59.5571190398" lon="31.2652650196"><ele>238.06</ele><time>2026-09-02T22:23:10Z</time></trkpt><trkpt lat="59.5571151841" lon="31.2652666960"><ele>238.06</ele><time>2026-09-02T22:23:11Z</time></trkpt><trkpt lat="59.5571077242" lon="31.2652749941"><ele>238.06</ele><time>2026-09-02T22:23:12Z</time></trkpt><trkpt lat="59.5571001805" lon="31.2652825378"><ele>237.58</ele><time>2026-09-02T22:23:13Z</time></trkpt><trkpt lat="59.5570936427" lon="31.2652856391"><ele>237.58</ele><time>2026-09-02T22:23:14Z</time></trkpt><trkpt lat="59.5570865180" lon="31.2652843818"><ele>237.58</ele><time>2026-09-02T22:23:15Z</time></trkpt><trkpt lat="59.5570820756" lon="31.2652804423"><ele>237.58</ele><time>2026-09-02T22:23:16Z</time></trkpt><trkpt lat="59.5570741966" lon="31.2652748264"><ele>237.58</ele><time>2026-09-02T22:23:17Z</time></trkpt><trkpt lat="59.5570660662" lon="31.2652681209"><ele>237.58</ele><time>2026-09-02T22:23:18Z</time></trkpt><trkpt lat="59.5570582710" lon="31.2652732339"><ele>237.58</ele><time>2026-09-02T22:23:19Z</time></trkpt><trkpt lat="59.5570488833" lon="31.2652776763"><ele>237.10</ele><time>2026-09-02T22:23:20Z</time></trkpt><trkpt lat="59.5570410881" lon="31.2652754970"><ele>237.10</ele><time>2026-09-02T22:23:21Z</time></trkpt><trkpt lat="59.5570326224" lon="31.2652730662"><ele>237.10</ele><time>2026-09-02T22:23:22Z</time></trkpt><trkpt lat="59.5570229832" lon="31.2652740721"><ele>237.10</ele><time>2026-09-02T22:23:23Z</time></trkpt><trkpt lat="59.5570150204" lon="31.2652740721"><ele>236.62</ele><time>2026-09-02T22:23:24Z</time></trkpt><trkpt lat="59.5570059679" lon="31.2652733177"><ele>236.62</ele><time>2026-09-02T22:23:25Z</time></trkpt><trkpt lat="59.5569967479" lon="31.2652734853"><ele>236.62</ele><time>2026-09-02T22:23:26Z</time></trkpt><trkpt lat="59.5569895394" lon="31.2652753294"><ele>236.62</ele><time>2026-09-02T22:23:27Z</time></trkpt><trkpt lat="59.5569799840" lon="31.2652743235"><ele>236.62</ele><time>2026-09-02T22:23:28Z</time></trkpt><trkpt lat="59.5569735300" lon="31.2652772572"><ele>236.62</ele><time>2026-09-02T22:23:29Z</time></trkpt><trkpt lat="59.5569646452" lon="31.2652796879"><ele>236.62</ele><time>2026-09-02T22:23:30Z</time></trkpt><trkpt lat="59.5569673274" lon="31.2652782630"><ele>236.62</ele><time>2026-09-02T22:23:31Z</time></trkpt><trkpt lat="59.5569665730" lon="31.2652860582"><ele>236.62</ele><time>2026-09-02T22:23:32Z</time></trkpt><trkpt lat="59.5569645613" lon="31.2652931828"><ele>236.62</ele><time>2026-09-02T22:23:33Z</time></trkpt><trkpt lat="59.5569623820" lon="31.2653011456"><ele>236.62</ele><time>2026-09-02T22:23:34Z</time></trkpt><trkpt lat="59.5569583587" lon="31.2653053366"><ele>236.14</ele><time>2026-09-02T22:23:35Z</time></trkpt><trkpt lat="59.5569529943" lon="31.2653082702"><ele>236.14</ele><time>2026-09-02T22:23:36Z</time></trkpt><trkpt lat="59.5569474623" lon="31.2653121259"><ele>236.14</ele><time>2026-09-02T22:23:37Z</time></trkpt><trkpt lat="59.5569399185" lon="31.2653289735"><ele>236.14</ele><time>2026-09-02T22:23:38Z</time></trkpt><trkpt lat="59.5569339674" lon="31.2653398700"><ele>236.14</ele><time>2026-09-02T22:23:39Z</time></trkpt><trkpt lat="59.5569229871" lon="31.2653455697"><ele>236.14</ele><time>2026-09-02T22:23:40Z</time></trkpt><trkpt lat="59.5569165330" lon="31.2653549574"><ele>236.14</ele><time>2026-09-02T22:23:41Z</time></trkpt><trkpt lat="59.5569090731" lon="31.2653586455"><ele>236.14</ele><time>2026-09-02T22:23:42Z</time></trkpt><trkpt lat="59.5568963327" lon="31.2653674465"><ele>236.14</ele><time>2026-09-02T22:23:43Z</time></trkpt><trkpt lat="59.5568888728" lon="31.2653757446"><ele>236.14</ele><time>2026-09-02T22:23:44Z</time></trkpt><trkpt lat="59.5568796527" lon="31.2653902452"><ele>235.66</ele><time>2026-09-02T22:23:45Z</time></trkpt><trkpt lat="59.5568720251" lon="31.2654023990"><ele>235.66</ele><time>2026-09-02T22:23:46Z</time></trkpt><trkpt lat="59.5568667445" lon="31.2654135469"><ele>235.66</ele><time>2026-09-02T22:23:47Z</time></trkpt><trkpt lat="59.5568638947" lon="31.2654300593"><ele>235.66</ele><time>2026-09-02T22:23:48Z</time></trkpt><trkpt lat="59.5568632241" lon="31.2654439732"><ele>235.66</ele><time>2026-09-02T22:23:49Z</time></trkpt><trkpt lat="59.5568644814" lon="31.2654637545"><ele>235.66</ele><time>2026-09-02T22:23:50Z</time></trkpt><trkpt lat="59.5568637270" lon="31.2654792611"><ele>235.66</ele><time>2026-09-02T22:23:51Z</time></trkpt><trkpt lat="59.5568619668" lon="31.2654957734"><ele>235.66</ele><time>2026-09-02T22:23:52Z</time></trkpt><trkpt lat="59.5568593685" lon="31.2655084301"><ele>235.66</ele><time>2026-09-02T22:23:53Z</time></trkpt><trkpt lat="59.5568567701" lon="31.2655200809"><ele>235.66</ele><time>2026-09-02T22:23:54Z</time></trkpt><trkpt lat="59.5568593685" lon="31.2655303907"><ele>235.18</ele><time>2026-09-02T22:23:55Z</time></trkpt><trkpt lat="59.5568604581" lon="31.2655397784"><ele>235.18</ele><time>2026-09-02T22:23:56Z</time></trkpt><trkpt lat="59.5568609610" lon="31.2655486632"><ele>235.18</ele><time>2026-09-02T22:23:57Z</time></trkpt><trkpt lat="59.5568609610" lon="31.2655600626"><ele>235.18</ele><time>2026-09-02T22:23:58Z</time></trkpt><trkpt lat="59.5568619668" lon="31.2655726355"><ele>235.18</ele><time>2026-09-02T22:23:59Z</time></trkpt><trkpt lat="59.5568578597" lon="31.2655899860"><ele>235.18</ele><time>2026-09-02T22:24:00Z</time></trkpt><trkpt lat="59.5568532497" lon="31.2656074204"><ele>235.18</ele><time>2026-09-02T22:24:01Z</time></trkpt><trkpt lat="59.5568490587" lon="31.2656252738"><ele>235.18</ele><time>2026-09-02T22:24:02Z</time></trkpt><trkpt lat="59.5568443649" lon="31.2656364217"><ele>235.18</ele><time>2026-09-02T22:24:03Z</time></trkpt><trkpt lat="59.5568389166" lon="31.2656510901"><ele>235.18</ele><time>2026-09-02T22:24:04Z</time></trkpt><trkpt lat="59.5568304509" lon="31.2656645849"><ele>235.18</ele><time>2026-09-02T22:24:05Z</time></trkpt><trkpt lat="59.5568255894" lon="31.2656766549"><ele>235.18</ele><time>2026-09-02T22:24:06Z</time></trkpt><trkpt lat="59.5568211470" lon="31.2656864617"><ele>235.18</ele><time>2026-09-02T22:24:07Z</time></trkpt><trkpt lat="59.5568182971" lon="31.2656958494"><ele>235.18</ele><time>2026-09-02T22:24:08Z</time></trkpt><trkpt lat="59.5568111725" lon="31.2657037284"><ele>235.18</ele><time>2026-09-02T22:24:09Z</time></trkpt><trkpt lat="59.5568042994" lon="31.2657132838"><ele>235.18</ele><time>2026-09-02T22:24:10Z</time></trkpt><trkpt lat="59.5567991864" lon="31.2657241803"><ele>235.18</ele><time>2026-09-02T22:24:11Z</time></trkpt><trkpt lat="59.5567946602" lon="31.2657242641"><ele>235.18</ele><time>2026-09-02T22:24:12Z</time></trkpt><trkpt lat="59.5567920618" lon="31.2657240964"><ele>235.18</ele><time>2026-09-02T22:24:13Z</time></trkpt><trkpt lat="59.5567899663" lon="31.2657168880"><ele>235.18</ele><time>2026-09-02T22:24:14Z</time></trkpt><trkpt lat="59.5567848533" lon="31.2657125294"><ele>235.18</ele><time>2026-09-02T22:24:15Z</time></trkpt><trkpt lat="59.5567780640" lon="31.2657079194"><ele>235.18</ele><time>2026-09-02T22:24:16Z</time></trkpt><trkpt lat="59.5567720290" lon="31.2657055724"><ele>235.18</ele><time>2026-09-02T22:24:17Z</time></trkpt><trkpt lat="59.5567734540" lon="31.2657095958"><ele>234.70</ele><time>2026-09-02T22:24:18Z</time></trkpt><trkpt lat="59.5567728672" lon="31.2657095958"><ele>234.70</ele><time>2026-09-02T22:24:19Z</time></trkpt><trkpt lat="59.5567730349" lon="31.2657132838"><ele>234.70</ele><time>2026-09-02T22:24:20Z</time></trkpt><trkpt lat="59.5567729510" lon="31.2657180615"><ele>234.70</ele><time>2026-09-02T22:24:21Z</time></trkpt><trkpt lat="59.5567742921" lon="31.2657195702"><ele>234.70</ele><time>2026-09-02T22:24:22Z</time></trkpt><trkpt lat="59.5567730349" lon="31.2657194864"><ele>234.70</ele><time>2026-09-02T22:24:23Z</time></trkpt><trkpt lat="59.5567741245" lon="31.2657187320"><ele>234.70</ele><time>2026-09-02T22:24:24Z</time></trkpt><trkpt lat="59.5567733701" lon="31.2657181453"><ele>234.70</ele><time>2026-09-02T22:24:25Z</time></trkpt><trkpt lat="59.5567741245" lon="31.2657145411"><ele>234.70</ele><time>2026-09-02T22:24:26Z</time></trkpt><trkpt lat="59.5567744598" lon="31.2657111883"><ele>234.70</ele><time>2026-09-02T22:24:27Z</time></trkpt><trkpt lat="59.5567753818" lon="31.2657075841"><ele>234.70</ele><time>2026-09-02T22:24:28Z</time></trkpt><trkpt lat="59.5567764714" lon="31.2657034770"><ele>234.70</ele><time>2026-09-02T22:24:29Z</time></trkpt><trkpt lat="59.5567769744" lon="31.2656996213"><ele>234.70</ele><time>2026-09-02T22:24:30Z</time></trkpt><trkpt lat="59.5567761362" lon="31.2656918261"><ele>234.70</ele><time>2026-09-02T22:24:31Z</time></trkpt><trkpt lat="59.5567744598" lon="31.2656825222"><ele>234.70</ele><time>2026-09-02T22:24:32Z</time></trkpt><trkpt lat="59.5567709394" lon="31.2656686921"><ele>235.18</ele><time>2026-09-02T22:24:33Z</time></trkpt><trkpt lat="59.5567678381" lon="31.2656587176"><ele>235.18</ele><time>2026-09-02T22:24:34Z</time></trkpt><trkpt lat="59.5567636471" lon="31.2656486593"><ele>235.18</ele><time>2026-09-02T22:24:35Z</time></trkpt><trkpt lat="59.5567571931" lon="31.2656412832"><ele>235.18</ele><time>2026-09-02T22:24:36Z</time></trkpt><trkpt lat="59.5567517448" lon="31.2656330690"><ele>235.18</ele><time>2026-09-02T22:24:37Z</time></trkpt><trkpt lat="59.5567445364" lon="31.2656315602"><ele>235.18</ele><time>2026-09-02T22:24:38Z</time></trkpt><trkpt lat="59.5567334723" lon="31.2656260282"><ele>235.18</ele><time>2026-09-02T22:24:39Z</time></trkpt><trkpt lat="59.5567273535" lon="31.2656215858"><ele>235.66</ele><time>2026-09-02T22:24:40Z</time></trkpt><trkpt lat="59.5567201450" lon="31.2656186521"><ele>235.66</ele><time>2026-09-02T22:24:41Z</time></trkpt><trkpt lat="59.5567142777" lon="31.2656180654"><ele>236.14</ele><time>2026-09-02T22:24:42Z</time></trkpt><trkpt lat="59.5567127690" lon="31.2656260282"><ele>236.14</ele><time>2026-09-02T22:24:43Z</time></trkpt><trkpt lat="59.5567103382" lon="31.2656385172"><ele>236.14</ele><time>2026-09-02T22:24:44Z</time></trkpt><trkpt lat="59.5567081589" lon="31.2656498328"><ele>236.14</ele><time>2026-09-02T22:24:45Z</time></trkpt><trkpt lat="59.5567065664" lon="31.2656604778"><ele>236.14</ele><time>2026-09-02T22:24:46Z</time></trkpt><trkpt lat="59.5567052253" lon="31.2656721286"><ele>236.14</ele><time>2026-09-02T22:24:47Z</time></trkpt><trkpt lat="59.5567055605" lon="31.2656845339"><ele>236.14</ele><time>2026-09-02T22:24:48Z</time></trkpt><trkpt lat="59.5567016210" lon="31.2656982802"><ele>236.14</ele><time>2026-09-02T22:24:49Z</time></trkpt><trkpt lat="59.5566967595" lon="31.2657169718"><ele>236.14</ele><time>2026-09-02T22:24:50Z</time></trkpt><trkpt lat="59.5566932391" lon="31.2657364178"><ele>236.14</ele><time>2026-09-02T22:24:51Z</time></trkpt><trkpt lat="59.5566899702" lon="31.2657512538"><ele>236.14</ele><time>2026-09-02T22:24:52Z</time></trkpt><trkpt lat="59.5566857792" lon="31.2657649163"><ele>236.14</ele><time>2026-09-02T22:24:53Z</time></trkpt><trkpt lat="59.5566811692" lon="31.2657794170"><ele>236.14</ele><time>2026-09-02T22:24:54Z</time></trkpt><trkpt lat="59.5566780679" lon="31.2657875475"><ele>236.14</ele><time>2026-09-02T22:24:55Z</time></trkpt><trkpt lat="59.5566730388" lon="31.2657982763"><ele>236.14</ele><time>2026-09-02T22:24:56Z</time></trkpt><trkpt lat="59.5566698536" lon="31.2658090889"><ele>236.14</ele><time>2026-09-02T22:24:57Z</time></trkpt><trkpt lat="59.5566663332" lon="31.2658194825"><ele>236.14</ele><time>2026-09-02T22:24:58Z</time></trkpt><trkpt lat="59.5566641539" lon="31.2658304628"><ele>236.14</ele><time>2026-09-02T22:24:59Z</time></trkpt><trkpt lat="59.5566610526" lon="31.2658399343"><ele>236.14</ele><time>2026-09-02T22:25:00Z</time></trkpt><trkpt lat="59.5566589572" lon="31.2658517528"><ele>236.14</ele><time>2026-09-02T22:25:01Z</time></trkpt><trkpt lat="59.5566575322" lon="31.2658612244"><ele>236.14</ele><time>2026-09-02T22:25:02Z</time></trkpt><trkpt lat="59.5566566940" lon="31.2658611406"><ele>236.14</ele><time>2026-09-02T22:25:03Z</time></trkpt><trkpt lat="59.5566550177" lon="31.2658663373"><ele>236.14</ele><time>2026-09-02T22:25:04Z</time></trkpt><trkpt lat="59.5566524193" lon="31.2658710312"><ele>236.14</ele><time>2026-09-02T22:25:05Z</time></trkpt><trkpt lat="59.5566496532" lon="31.2658737972"><ele>236.14</ele><time>2026-09-02T22:25:06Z</time></trkpt><trkpt lat="59.5566463843" lon="31.2658774853"><ele>236.14</ele><time>2026-09-02T22:25:07Z</time></trkpt><trkpt lat="59.5566440374" lon="31.2658812571"><ele>236.14</ele><time>2026-09-02T22:25:08Z</time></trkpt><trkpt lat="59.5566449594" lon="31.2658899743"><ele>236.14</ele><time>2026-09-02T22:25:09Z</time></trkpt><trkpt lat="59.5566486474" lon="31.2659008708"><ele>236.14</ele><time>2026-09-02T22:25:10Z</time></trkpt><trkpt lat="59.5566457976" lon="31.2659114320"><ele>236.62</ele><time>2026-09-02T22:25:11Z</time></trkpt><trkpt lat="59.5566440374" lon="31.2659211550"><ele>236.62</ele><time>2026-09-02T22:25:12Z</time></trkpt><trkpt lat="59.5566403493" lon="31.2659295369"><ele>236.62</ele><time>2026-09-02T22:25:13Z</time></trkpt><trkpt lat="59.5566360746" lon="31.2659365777"><ele>236.62</ele><time>2026-09-02T22:25:14Z</time></trkpt><trkpt lat="59.5566315483" lon="31.2659496535"><ele>236.62</ele><time>2026-09-02T22:25:15Z</time></trkpt><trkpt lat="59.5566329733" lon="31.2659442890"><ele>236.62</ele><time>2026-09-02T22:25:16Z</time></trkpt><trkpt lat="59.5566293690" lon="31.2659528386"><ele>236.62</ele><time>2026-09-02T22:25:17Z</time></trkpt><trkpt lat="59.5566262677" lon="31.2659597956"><ele>236.62</ele><time>2026-09-02T22:25:18Z</time></trkpt><trkpt lat="59.5566228312" lon="31.2659662496"><ele>236.62</ele><time>2026-09-02T22:25:19Z</time></trkpt><trkpt lat="59.5566184726" lon="31.2659729552"><ele>236.62</ele><time>2026-09-02T22:25:20Z</time></trkpt><trkpt lat="59.5566160418" lon="31.2659752183"><ele>236.62</ele><time>2026-09-02T22:25:21Z</time></trkpt><trkpt lat="59.5566097554" lon="31.2659831811"><ele>236.62</ele><time>2026-09-02T22:25:22Z</time></trkpt><trkpt lat="59.5566068217" lon="31.2659926526"><ele>236.62</ele><time>2026-09-02T22:25:23Z</time></trkpt><trkpt lat="59.5565975178" lon="31.2659999449"><ele>236.62</ele><time>2026-09-02T22:25:24Z</time></trkpt><trkpt lat="59.5565901417" lon="31.2660060637"><ele>236.62</ele><time>2026-09-02T22:25:25Z</time></trkpt><trkpt lat="59.5565826818" lon="31.2660101708"><ele>237.10</ele><time>2026-09-02T22:25:26Z</time></trkpt><trkpt lat="59.5565753896" lon="31.2660120986"><ele>237.10</ele><time>2026-09-02T22:25:27Z</time></trkpt><trkpt lat="59.5565647446" lon="31.2660173792"><ele>237.10</ele><time>2026-09-02T22:25:28Z</time></trkpt><trkpt lat="59.5565566979" lon="31.2660155352"><ele>237.10</ele><time>2026-09-02T22:25:29Z</time></trkpt><trkpt lat="59.5565504953" lon="31.2660083268"><ele>237.10</ele><time>2026-09-02T22:25:30Z</time></trkpt><trkpt lat="59.5565422811" lon="31.2660082430"><ele>237.10</ele><time>2026-09-02T22:25:31Z</time></trkpt><trkpt lat="59.5565351564" lon="31.2660064828"><ele>237.10</ele><time>2026-09-02T22:25:32Z</time></trkpt><trkpt lat="59.5565280318" lon="31.2660088297"><ele>237.58</ele><time>2026-09-02T22:25:33Z</time></trkpt><trkpt lat="59.5565226674" lon="31.2660118472"><ele>237.58</ele><time>2026-09-02T22:25:34Z</time></trkpt><trkpt lat="59.5565172192" lon="31.2660170440"><ele>237.58</ele><time>2026-09-02T22:25:35Z</time></trkpt><trkpt lat="59.5565176383" lon="31.2660132721"><ele>237.58</ele><time>2026-09-02T22:25:36Z</time></trkpt><trkpt lat="59.5565141179" lon="31.2660166249"><ele>237.58</ele><time>2026-09-02T22:25:37Z</time></trkpt><trkpt lat="59.5565132797" lon="31.2660269346"><ele>237.58</ele><time>2026-09-02T22:25:38Z</time></trkpt><trkpt lat="59.5565128606" lon="31.2660395913"><ele>237.58</ele><time>2026-09-02T22:25:39Z</time></trkpt><trkpt lat="59.5565098431" lon="31.2660491467"><ele>237.58</ele><time>2026-09-02T22:25:40Z</time></trkpt><trkpt lat="59.5565075800" lon="31.2660558522"><ele>237.58</ele><time>2026-09-02T22:25:41Z</time></trkpt><trkpt lat="59.5565059874" lon="31.2660685927"><ele>237.58</ele><time>2026-09-02T22:25:42Z</time></trkpt><trkpt lat="59.5565012936" lon="31.2660791539"><ele>237.58</ele><time>2026-09-02T22:25:43Z</time></trkpt><trkpt lat="59.5564946719" lon="31.2660882901"><ele>237.58</ele><time>2026-09-02T22:25:44Z</time></trkpt><trkpt lat="59.5564921573" lon="31.2660972588"><ele>237.58</ele><time>2026-09-02T22:25:45Z</time></trkpt><trkpt lat="59.5564902294" lon="31.2661067303"><ele>237.58</ele><time>2026-09-02T22:25:46Z</time></trkpt><trkpt lat="59.5564871281" lon="31.2661161181"><ele>237.58</ele><time>2026-09-02T22:25:47Z</time></trkpt><trkpt lat="59.5564834401" lon="31.2661295291"><ele>237.58</ele><time>2026-09-02T22:25:48Z</time></trkpt><trkpt lat="59.5564782433" lon="31.2661384977"><ele>237.58</ele><time>2026-09-02T22:25:49Z</time></trkpt><trkpt lat="59.5564740524" lon="31.2661438622"><ele>237.58</ele><time>2026-09-02T22:25:50Z</time></trkpt><trkpt lat="59.5564694423" lon="31.2661490589"><ele>238.06</ele><time>2026-09-02T22:25:51Z</time></trkpt><trkpt lat="59.5564607251" lon="31.2661540881"><ele>238.06</ele><time>2026-09-02T22:25:52Z</time></trkpt><trkpt lat="59.5564548578" lon="31.2661635596"><ele>238.06</ele><time>2026-09-02T22:25:53Z</time></trkpt><trkpt lat="59.5564497449" lon="31.2661706842"><ele>238.06</ele><time>2026-09-02T22:25:54Z</time></trkpt><trkpt lat="59.5564427879" lon="31.2661788985"><ele>238.06</ele><time>2026-09-02T22:25:55Z</time></trkpt><trkpt lat="59.5564373396" lon="31.2661843468"><ele>238.06</ele><time>2026-09-02T22:25:56Z</time></trkpt><trkpt lat="59.5564388484" lon="31.2661817484"><ele>238.06</ele><time>2026-09-02T22:25:57Z</time></trkpt><trkpt lat="59.5564361662" lon="31.2661854364"><ele>238.06</ele><time>2026-09-02T22:25:58Z</time></trkpt><trkpt lat="59.5564362500" lon="31.2661877833"><ele>238.54</ele><time>2026-09-02T22:25:59Z</time></trkpt><trkpt lat="59.5564367529" lon="31.2661913875"><ele>238.54</ele><time>2026-09-02T22:26:00Z</time></trkpt><trkpt lat="59.5564373396" lon="31.2661950756"><ele>238.54</ele><time>2026-09-02T22:26:01Z</time></trkpt><trkpt lat="59.5564368367" lon="31.2661990989"><ele>238.54</ele><time>2026-09-02T22:26:02Z</time></trkpt><trkpt lat="59.5564365853" lon="31.2662016973"><ele>238.54</ele><time>2026-09-02T22:26:03Z</time></trkpt><trkpt lat="59.5564366691" lon="31.2662037928"><ele>238.54</ele><time>2026-09-02T22:26:04Z</time></trkpt><trkpt lat="59.5564365853" lon="31.2662049662"><ele>238.06</ele><time>2026-09-02T22:26:05Z</time></trkpt><trkpt lat="59.5564366691" lon="31.2662062235"><ele>238.06</ele><time>2026-09-02T22:26:06Z</time></trkpt><trkpt lat="59.5564366691" lon="31.2662076484"><ele>238.06</ele><time>2026-09-02T22:26:07Z</time></trkpt><trkpt lat="59.5564363338" lon="31.2662095763"><ele>237.58</ele><time>2026-09-02T22:26:08Z</time></trkpt><trkpt lat="59.5564358309" lon="31.2662088219"><ele>237.58</ele><time>2026-09-02T22:26:09Z</time></trkpt><trkpt lat="59.5564349927" lon="31.2662080675"><ele>237.58</ele><time>2026-09-02T22:26:10Z</time></trkpt><trkpt lat="59.5564338192" lon="31.2662052177"><ele>237.58</ele><time>2026-09-02T22:26:11Z</time></trkpt><trkpt lat="59.5564343221" lon="31.2662043795"><ele>237.58</ele><time>2026-09-02T22:26:12Z</time></trkpt><trkpt lat="59.5564348251" lon="31.2662015297"><ele>237.58</ele><time>2026-09-02T22:26:13Z</time></trkpt><trkpt lat="59.5564353280" lon="31.2661997695"><ele>237.58</ele><time>2026-09-02T22:26:14Z</time></trkpt><trkpt lat="59.5564364176" lon="31.2661980931"><ele>237.58</ele><time>2026-09-02T22:26:15Z</time></trkpt><trkpt lat="59.5564368367" lon="31.2661963329"><ele>237.58</ele><time>2026-09-02T22:26:16Z</time></trkpt><trkpt lat="59.5564362500" lon="31.2661953270"><ele>237.58</ele><time>2026-09-02T22:26:17Z</time></trkpt><trkpt lat="59.5564364176" lon="31.2661940698"><ele>237.58</ele><time>2026-09-02T22:26:18Z</time></trkpt><trkpt lat="59.5564357471" lon="31.2661948241"><ele>237.58</ele><time>2026-09-02T22:26:19Z</time></trkpt><trkpt lat="59.5564356633" lon="31.2661959976"><ele>237.58</ele><time>2026-09-02T22:26:20Z</time></trkpt><trkpt lat="59.5564346574" lon="31.2661951594"><ele>237.58</ele><time>2026-09-02T22:26:21Z</time></trkpt><trkpt lat="59.5564349927" lon="31.2661968358"><ele>237.58</ele><time>2026-09-02T22:26:22Z</time></trkpt><trkpt lat="59.5564342383" lon="31.2661943212"><ele>237.58</ele><time>2026-09-02T22:26:23Z</time></trkpt><trkpt lat="59.5564348251" lon="31.2661980931"><ele>237.58</ele><time>2026-09-02T22:26:24Z</time></trkpt><trkpt lat="59.5564351603" lon="31.2661973387"><ele>237.58</ele><time>2026-09-02T22:26:25Z</time></trkpt><trkpt lat="59.5564356633" lon="31.2661997695"><ele>237.58</ele><time>2026-09-02T22:26:26Z</time></trkpt><trkpt lat="59.5564359985" lon="31.2661994342"><ele>237.58</ele><time>2026-09-02T22:26:27Z</time></trkpt><trkpt lat="59.5564368367" lon="31.2662011944"><ele>237.58</ele><time>2026-09-02T22:26:28Z</time></trkpt><trkpt lat="59.5564370882" lon="31.2662015297"><ele>237.58</ele><time>2026-09-02T22:26:29Z</time></trkpt><trkpt lat="59.5564373396" lon="31.2662031222"><ele>237.58</ele><time>2026-09-02T22:26:30Z</time></trkpt><trkpt lat="59.5564372558" lon="31.2662044633"><ele>237.58</ele><time>2026-09-02T22:26:31Z</time></trkpt><trkpt lat="59.5564371720" lon="31.2662056368"><ele>237.58</ele><time>2026-09-02T22:26:32Z</time></trkpt><trkpt lat="59.5564368367" lon="31.2662040442"><ele>237.10</ele><time>2026-09-02T22:26:33Z</time></trkpt><trkpt lat="59.5564368367" lon="31.2662043795"><ele>237.10</ele><time>2026-09-02T22:26:34Z</time></trkpt><trkpt lat="59.5564363338" lon="31.2662021164"><ele>237.58</ele><time>2026-09-02T22:26:35Z</time></trkpt><trkpt lat="59.5564367529" lon="31.2662014458"><ele>237.58</ele><time>2026-09-02T22:26:36Z</time></trkpt><trkpt lat="59.5564361662" lon="31.2661990989"><ele>237.58</ele><time>2026-09-02T22:26:37Z</time></trkpt><trkpt lat="59.5564360823" lon="31.2661992665"><ele>237.58</ele><time>2026-09-02T22:26:38Z</time></trkpt><trkpt lat="59.5564354956" lon="31.2661978416"><ele>237.58</ele><time>2026-09-02T22:26:39Z</time></trkpt><trkpt lat="59.5564318914" lon="31.2661944889"><ele>237.58</ele><time>2026-09-02T22:26:40Z</time></trkpt><trkpt lat="59.5564276166" lon="31.2661913875"><ele>237.58</ele><time>2026-09-02T22:26:41Z</time></trkpt><trkpt lat="59.5564232580" lon="31.2661901303"><ele>237.58</ele><time>2026-09-02T22:26:42Z</time></trkpt><trkpt lat="59.5564190671" lon="31.2661876995"><ele>237.58</ele><time>2026-09-02T22:26:43Z</time></trkpt><trkpt lat="59.5564146247" lon="31.2661890406"><ele>238.06</ele><time>2026-09-02T22:26:44Z</time></trkpt><trkpt lat="59.5564105175" lon="31.2661955785"><ele>238.06</ele><time>2026-09-02T22:26:45Z</time></trkpt><trkpt lat="59.5564032253" lon="31.2661995180"><ele>238.06</ele><time>2026-09-02T22:26:46Z</time></trkpt><trkpt lat="59.5563983638" lon="31.2662012782"><ele>238.06</ele><time>2026-09-02T22:26:47Z</time></trkpt><trkpt lat="59.5563987829" lon="31.2662020326"><ele>238.06</ele><time>2026-09-02T22:26:48Z</time></trkpt><trkpt lat="59.5563958492" lon="31.2662019487"><ele>238.54</ele><time>2026-09-02T22:26:49Z</time></trkpt><trkpt lat="59.5563928317" lon="31.2662045471"><ele>238.54</ele><time>2026-09-02T22:26:50Z</time></trkpt><trkpt lat="59.5563898981" lon="31.2662074808"><ele>238.54</ele><time>2026-09-02T22:26:51Z</time></trkpt><trkpt lat="59.5563874673" lon="31.2662122585"><ele>238.54</ele><time>2026-09-02T22:26:52Z</time></trkpt><trkpt lat="59.5563856233" lon="31.2662191316"><ele>238.54</ele><time>2026-09-02T22:26:53Z</time></trkpt><trkpt lat="59.5563799236" lon="31.2662324589"><ele>238.54</ele><time>2026-09-02T22:26:54Z</time></trkpt><trkpt lat="59.5563769899" lon="31.2662424333"><ele>238.54</ele><time>2026-09-02T22:26:55Z</time></trkpt><trkpt lat="59.5563736372" lon="31.2662528269"><ele>239.02</ele><time>2026-09-02T22:26:56Z</time></trkpt><trkpt lat="59.5563687757" lon="31.2662626337"><ele>239.02</ele><time>2026-09-02T22:26:57Z</time></trkpt><trkpt lat="59.5563664287" lon="31.2662729435"><ele>239.02</ele><time>2026-09-02T22:26:58Z</time></trkpt><trkpt lat="59.5563656744" lon="31.2662717700"><ele>239.02</ele><time>2026-09-02T22:26:59Z</time></trkpt><trkpt lat="59.5563634951" lon="31.2662777212"><ele>239.02</ele><time>2026-09-02T22:27:00Z</time></trkpt><trkpt lat="59.5563600585" lon="31.2662827503"><ele>239.02</ele><time>2026-09-02T22:27:01Z</time></trkpt><trkpt lat="59.5563576277" lon="31.2662877794"><ele>239.02</ele><time>2026-09-02T22:27:02Z</time></trkpt><trkpt lat="59.5563557837" lon="31.2662906293"><ele>239.02</ele><time>2026-09-02T22:27:03Z</time></trkpt><trkpt lat="59.5563532691" lon="31.2662979215"><ele>239.02</ele><time>2026-09-02T22:27:04Z</time></trkpt><trkpt lat="59.5563511737" lon="31.2663029507"><ele>239.02</ele><time>2026-09-02T22:27:05Z</time></trkpt><trkpt lat="59.5563489944" lon="31.2663048785"><ele>239.02</ele><time>2026-09-02T22:27:06Z</time></trkpt><trkpt lat="59.5563485753" lon="31.2663090695"><ele>239.02</ele><time>2026-09-02T22:27:07Z</time></trkpt><trkpt lat="59.5563458931" lon="31.2663135957"><ele>239.02</ele><time>2026-09-02T22:27:08Z</time></trkpt><trkpt lat="59.5563431270" lon="31.2663160264"><ele>239.02</ele><time>2026-09-02T22:27:09Z</time></trkpt><trkpt lat="59.5563406963" lon="31.2663182896"><ele>239.02</ele><time>2026-09-02T22:27:10Z</time></trkpt><trkpt lat="59.5563414507" lon="31.2663163617"><ele>239.02</ele><time>2026-09-02T22:27:11Z</time></trkpt><trkpt lat="59.5563398581" lon="31.2663175352"><ele>239.02</ele><time>2026-09-02T22:27:12Z</time></trkpt><trkpt lat="59.5563393552" lon="31.2663175352"><ele>239.02</ele><time>2026-09-02T22:27:13Z</time></trkpt><trkpt lat="59.5563392714" lon="31.2663168646"><ele>239.02</ele><time>2026-09-02T22:27:14Z</time></trkpt><trkpt lat="59.5563388523" lon="31.2663162779"><ele>239.02</ele><time>2026-09-02T22:27:15Z</time></trkpt><trkpt lat="59.5563383494" lon="31.2663164455"><ele>239.02</ele><time>2026-09-02T22:27:16Z</time></trkpt><trkpt lat="59.5563364215" lon="31.2663168646"><ele>239.02</ele><time>2026-09-02T22:27:17Z</time></trkpt><trkpt lat="59.5563347451" lon="31.2663168646"><ele>239.02</ele><time>2026-09-02T22:27:18Z</time></trkpt><trkpt lat="59.5563328173" lon="31.2663170323"><ele>239.02</ele><time>2026-09-02T22:27:19Z</time></trkpt><trkpt lat="59.5563300513" lon="31.2663181219"><ele>239.02</ele><time>2026-09-02T22:27:20Z</time></trkpt><trkpt lat="59.5563320629" lon="31.2663172837"><ele>239.02</ele><time>2026-09-02T22:27:21Z</time></trkpt><trkpt lat="59.5563307218" lon="31.2663176190"><ele>239.02</ele><time>2026-09-02T22:27:22Z</time></trkpt><trkpt lat="59.5563284587" lon="31.2663164455"><ele>239.02</ele><time>2026-09-02T22:27:23Z</time></trkpt><trkpt lat="59.5563274529" lon="31.2663169485"><ele>239.02</ele><time>2026-09-02T22:27:24Z</time></trkpt><trkpt lat="59.5563267823" lon="31.2663155235"><ele>239.02</ele><time>2026-09-02T22:27:25Z</time></trkpt><trkpt lat="59.5563257765" lon="31.2663078960"><ele>239.02</ele><time>2026-09-02T22:27:26Z</time></trkpt><trkpt lat="59.5563259441" lon="31.2663039565"><ele>239.02</ele><time>2026-09-02T22:27:27Z</time></trkpt><trkpt lat="59.5563260280" lon="31.2662935629"><ele>239.02</ele><time>2026-09-02T22:27:28Z</time></trkpt><trkpt lat="59.5563258603" lon="31.2662951555"><ele>239.02</ele><time>2026-09-02T22:27:29Z</time></trkpt><trkpt lat="59.5563266985" lon="31.2662871927"><ele>239.02</ele><time>2026-09-02T22:27:30Z</time></trkpt><trkpt lat="59.5563261956" lon="31.2662746198"><ele>239.02</ele><time>2026-09-02T22:27:31Z</time></trkpt><trkpt lat="59.5563261956" lon="31.2662638910"><ele>239.02</ele><time>2026-09-02T22:27:32Z</time></trkpt><trkpt lat="59.5563251898" lon="31.2662497256"><ele>239.02</ele><time>2026-09-02T22:27:33Z</time></trkpt><trkpt lat="59.5563242678" lon="31.2662336323"><ele>239.02</ele><time>2026-09-02T22:27:34Z</time></trkpt><trkpt lat="59.5563212503" lon="31.2662154436"><ele>239.02</ele><time>2026-09-02T22:27:35Z</time></trkpt><trkpt lat="59.5563178975" lon="31.2661961652"><ele>239.02</ele><time>2026-09-02T22:27:36Z</time></trkpt><trkpt lat="59.5563163888" lon="31.2661748752"><ele>239.02</ele><time>2026-09-02T22:27:37Z</time></trkpt><trkpt lat="59.5563143771" lon="31.2661555968"><ele>239.02</ele><time>2026-09-02T22:27:38Z</time></trkpt><trkpt lat="59.5563103538" lon="31.2661341392"><ele>239.02</ele><time>2026-09-02T22:27:39Z</time></trkpt><trkpt lat="59.5563059952" lon="31.2661131844"><ele>239.02</ele><time>2026-09-02T22:27:40Z</time></trkpt><trkpt lat="59.5563028939" lon="31.2660893798"><ele>239.02</ele><time>2026-09-02T22:27:41Z</time></trkpt><trkpt lat="59.5563010499" lon="31.2660654914"><ele>239.02</ele><time>2026-09-02T22:27:42Z</time></trkpt><trkpt lat="59.5562994573" lon="31.2660422735"><ele>239.02</ele><time>2026-09-02T22:27:43Z</time></trkpt><trkpt lat="59.5562983677" lon="31.2660230789"><ele>239.02</ele><time>2026-09-02T22:27:44Z</time></trkpt><trkpt lat="59.5562979486" lon="31.2659987714"><ele>239.02</ele><time>2026-09-02T22:27:45Z</time></trkpt><trkpt lat="59.5562997926" lon="31.2659726199"><ele>239.02</ele><time>2026-09-02T22:27:46Z</time></trkpt><trkpt lat="59.5563021395" lon="31.2659491505"><ele>239.02</ele><time>2026-09-02T22:27:47Z</time></trkpt><trkpt lat="59.5563039836" lon="31.2659244239"><ele>239.02</ele><time>2026-09-02T22:27:48Z</time></trkpt><trkpt lat="59.5563052408" lon="31.2659047265"><ele>239.02</ele><time>2026-09-02T22:27:49Z</time></trkpt><trkpt lat="59.5563054923" lon="31.2658859510"><ele>239.02</ele><time>2026-09-02T22:27:50Z</time></trkpt><trkpt lat="59.5563047379" lon="31.2658670917"><ele>239.02</ele><time>2026-09-02T22:27:51Z</time></trkpt><trkpt lat="59.5563059952" lon="31.2658506632"><ele>239.02</ele><time>2026-09-02T22:27:52Z</time></trkpt><trkpt lat="59.5563064981" lon="31.2658340670"><ele>239.02</ele><time>2026-09-02T22:27:53Z</time></trkpt><trkpt lat="59.5563079230" lon="31.2658142857"><ele>239.02</ele><time>2026-09-02T22:27:54Z</time></trkpt><trkpt lat="59.5563106891" lon="31.2657952588"><ele>239.02</ele><time>2026-09-02T22:27:55Z</time></trkpt><trkpt lat="59.5563131198" lon="31.2657764833"><ele>239.02</ele><time>2026-09-02T22:27:56Z</time></trkpt><trkpt lat="59.5563192386" lon="31.2657605577"><ele>239.02</ele><time>2026-09-02T22:27:57Z</time></trkpt><trkpt lat="59.5563216694" lon="31.2657455541"><ele>239.02</ele><time>2026-09-02T22:27:58Z</time></trkpt><trkpt lat="59.5563240163" lon="31.2657270301"><ele>239.02</ele><time>2026-09-02T22:27:59Z</time></trkpt><trkpt lat="59.5563298836" lon="31.2657096796"><ele>239.02</ele><time>2026-09-02T22:28:00Z</time></trkpt><trkpt lat="59.5563342422" lon="31.2656887248"><ele>239.02</ele><time>2026-09-02T22:28:01Z</time></trkpt><trkpt lat="59.5563407801" lon="31.2656729668"><ele>239.02</ele><time>2026-09-02T22:28:02Z</time></trkpt><trkpt lat="59.5563481562" lon="31.2656511739"><ele>239.02</ele><time>2026-09-02T22:28:03Z</time></trkpt><trkpt lat="59.5563526824" lon="31.2656247709"><ele>239.02</ele><time>2026-09-02T22:28:04Z</time></trkpt><trkpt lat="59.5563573763" lon="31.2655985355"><ele>239.02</ele><time>2026-09-02T22:28:05Z</time></trkpt><trkpt lat="59.5563598908" lon="31.2655742280"><ele>239.02</ele><time>2026-09-02T22:28:06Z</time></trkpt><trkpt lat="59.5563616510" lon="31.2655539438"><ele>239.51</ele><time>2026-09-02T22:28:07Z</time></trkpt><trkpt lat="59.5563659258" lon="31.2655310612"><ele>239.51</ele><time>2026-09-02T22:28:08Z</time></trkpt><trkpt lat="59.5563705359" lon="31.2655087654"><ele>239.51</ele><time>2026-09-02T22:28:09Z</time></trkpt><trkpt lat="59.5563707873" lon="31.2654846255"><ele>239.51</ele><time>2026-09-02T22:28:10Z</time></trkpt><trkpt lat="59.5563686918" lon="31.2654614914"><ele>239.51</ele><time>2026-09-02T22:28:11Z</time></trkpt><trkpt lat="59.5563644171" lon="31.2654383574"><ele>239.51</ele><time>2026-09-02T22:28:12Z</time></trkpt><trkpt lat="59.5563603938" lon="31.2654195819"><ele>239.99</ele><time>2026-09-02T22:28:13Z</time></trkpt><trkpt lat="59.5563521795" lon="31.2653836235"><ele>239.99</ele><time>2026-09-02T22:28:14Z</time></trkpt><trkpt lat="59.5563462283" lon="31.2653596513"><ele>239.99</ele><time>2026-09-02T22:28:15Z</time></trkpt><trkpt lat="59.5563437976" lon="31.2653338350"><ele>239.99</ele><time>2026-09-02T22:28:16Z</time></trkpt><trkpt lat="59.5563445520" lon="31.2653088570"><ele>239.99</ele><time>2026-09-02T22:28:17Z</time></trkpt><trkpt lat="59.5563442167" lon="31.2652865611"><ele>239.99</ele><time>2026-09-02T22:28:18Z</time></trkpt><trkpt lat="59.5563499164" lon="31.2652605772"><ele>239.99</ele><time>2026-09-02T22:28:19Z</time></trkpt><trkpt lat="59.5563535206" lon="31.2652346771"><ele>239.99</ele><time>2026-09-02T22:28:20Z</time></trkpt><trkpt lat="59.5563542750" lon="31.2652138900"><ele>240.47</ele><time>2026-09-02T22:28:21Z</time></trkpt><trkpt lat="59.5563503355" lon="31.2651900854"><ele>240.47</ele><time>2026-09-02T22:28:22Z</time></trkpt><trkpt lat="59.5563521795" lon="31.2651649397"><ele>240.47</ele><time>2026-09-02T22:28:23Z</time></trkpt><trkpt lat="59.5563538559" lon="31.2651430629"><ele>240.47</ele><time>2026-09-02T22:28:24Z</time></trkpt><trkpt lat="59.5563590527" lon="31.2651202641"><ele>240.47</ele><time>2026-09-02T22:28:25Z</time></trkpt><trkpt lat="59.5563598908" lon="31.2650973815"><ele>240.47</ele><time>2026-09-02T22:28:26Z</time></trkpt><trkpt lat="59.5563623216" lon="31.2650769297"><ele>240.47</ele><time>2026-09-02T22:28:27Z</time></trkpt><trkpt lat="59.5563631598" lon="31.2650606688"><ele>240.95</ele><time>2026-09-02T22:28:28Z</time></trkpt><trkpt lat="59.5563618187" lon="31.2650437374"><ele>240.95</ele><time>2026-09-02T22:28:29Z</time></trkpt><trkpt lat="59.5563506708" lon="31.2650199328"><ele>240.95</ele><time>2026-09-02T22:28:30Z</time></trkpt><trkpt lat="59.5563384332" lon="31.2649959605"><ele>240.95</ele><time>2026-09-02T22:28:31Z</time></trkpt><trkpt lat="59.5563371759" lon="31.2649863213"><ele>240.95</ele><time>2026-09-02T22:28:32Z</time></trkpt><trkpt lat="59.5563328173" lon="31.2649799511"><ele>240.95</ele><time>2026-09-02T22:28:33Z</time></trkpt><trkpt lat="59.5563368406" lon="31.2649827171"><ele>240.95</ele><time>2026-09-02T22:28:34Z</time></trkpt><trkpt lat="59.5563332364" lon="31.2649801187"><ele>240.95</ele><time>2026-09-02T22:28:35Z</time></trkpt><trkpt lat="59.5563332364" lon="31.2649804540"><ele>240.95</ele><time>2026-09-02T22:28:36Z</time></trkpt><trkpt lat="59.5563337393" lon="31.2649811246"><ele>241.43</ele><time>2026-09-02T22:28:37Z</time></trkpt><trkpt lat="59.5563340746" lon="31.2649811246"><ele>241.43</ele><time>2026-09-02T22:28:38Z</time></trkpt><trkpt lat="59.5563356671" lon="31.2649807893"><ele>241.43</ele><time>2026-09-02T22:28:39Z</time></trkpt><trkpt lat="59.5563363377" lon="31.2649789453"><ele>241.43</ele><time>2026-09-02T22:28:40Z</time></trkpt><trkpt lat="59.5563392714" lon="31.2649770174"><ele>241.43</ele><time>2026-09-02T22:28:41Z</time></trkpt><trkpt lat="59.5563370921" lon="31.2649778556"><ele>241.43</ele><time>2026-09-02T22:28:42Z</time></trkpt><trkpt lat="59.5563396905" lon="31.2649764307"><ele>241.43</ele><time>2026-09-02T22:28:43Z</time></trkpt><trkpt lat="59.5563404448" lon="31.2649765983"><ele>241.43</ele><time>2026-09-02T22:28:44Z</time></trkpt><trkpt lat="59.5563404448" lon="31.2649759278"><ele>241.43</ele><time>2026-09-02T22:28:45Z</time></trkpt><trkpt lat="59.5563402772" lon="31.2649758440"><ele>241.43</ele><time>2026-09-02T22:28:46Z</time></trkpt><trkpt lat="59.5563394390" lon="31.2649749219"><ele>241.43</ele><time>2026-09-02T22:28:47Z</time></trkpt><trkpt lat="59.5563394390" lon="31.2649740838"><ele>241.43</ele><time>2026-09-02T22:28:48Z</time></trkpt><trkpt lat="59.5563396905" lon="31.2649717368"><ele>241.43</ele><time>2026-09-02T22:28:49Z</time></trkpt><trkpt lat="59.5563390199" lon="31.2649701443"><ele>241.43</ele><time>2026-09-02T22:28:50Z</time></trkpt><trkpt lat="59.5563395228" lon="31.2649699766"><ele>240.95</ele><time>2026-09-02T22:28:51Z</time></trkpt><trkpt lat="59.5563391875" lon="31.2649695575"><ele>240.95</ele><time>2026-09-02T22:28:52Z</time></trkpt><trkpt lat="59.5563399419" lon="31.2649696413"><ele>240.95</ele><time>2026-09-02T22:28:53Z</time></trkpt><trkpt lat="59.5563392714" lon="31.2649685517"><ele>240.95</ele><time>2026-09-02T22:28:54Z</time></trkpt><trkpt lat="59.5563396905" lon="31.2649697252"><ele>240.95</ele><time>2026-09-02T22:28:55Z</time></trkpt><trkpt lat="59.5563390199" lon="31.2649681326"><ele>240.95</ele><time>2026-09-02T22:28:56Z</time></trkpt><trkpt lat="59.5563398581" lon="31.2649697252"><ele>240.95</ele><time>2026-09-02T22:28:57Z</time></trkpt><trkpt lat="59.5563390199" lon="31.2649691384"><ele>240.95</ele><time>2026-09-02T22:28:58Z</time></trkpt><trkpt lat="59.5563397743" lon="31.2649695575"><ele>240.95</ele><time>2026-09-02T22:28:59Z</time></trkpt><trkpt lat="59.5563388523" lon="31.2649701443"><ele>240.95</ele><time>2026-09-02T22:29:00Z</time></trkpt><trkpt lat="59.5563387685" lon="31.2649700604"><ele>240.95</ele><time>2026-09-02T22:29:01Z</time></trkpt><trkpt lat="59.5563387685" lon="31.2649689708"><ele>240.95</ele><time>2026-09-02T22:29:02Z</time></trkpt><trkpt lat="59.5563398581" lon="31.2649683841"><ele>240.95</ele><time>2026-09-02T22:29:03Z</time></trkpt><trkpt lat="59.5563396905" lon="31.2649679650"><ele>240.95</ele><time>2026-09-02T22:29:04Z</time></trkpt><trkpt lat="59.5563406963" lon="31.2649681326"><ele>240.95</ele><time>2026-09-02T22:29:05Z</time></trkpt><trkpt lat="59.5563394390" lon="31.2649674620"><ele>240.95</ele><time>2026-09-02T22:29:06Z</time></trkpt><trkpt lat="59.5563410316" lon="31.2649681326"><ele>240.95</ele><time>2026-09-02T22:29:07Z</time></trkpt><trkpt lat="59.5563394390" lon="31.2649667915"><ele>240.95</ele><time>2026-09-02T22:29:08Z</time></trkpt><trkpt lat="59.5563407801" lon="31.2649679650"><ele>240.95</ele><time>2026-09-02T22:29:09Z</time></trkpt><trkpt lat="59.5563395228" lon="31.2649677973"><ele>241.43</ele><time>2026-09-02T22:29:10Z</time></trkpt><trkpt lat="59.5563397743" lon="31.2649675459"><ele>241.43</ele><time>2026-09-02T22:29:11Z</time></trkpt><trkpt lat="59.5563408639" lon="31.2649651989"><ele>241.43</ele><time>2026-09-02T22:29:12Z</time></trkpt><trkpt lat="59.5563413668" lon="31.2649640255"><ele>241.43</ele><time>2026-09-02T22:29:13Z</time></trkpt><trkpt lat="59.5563425403" lon="31.2649624329"><ele>241.43</ele><time>2026-09-02T22:29:14Z</time></trkpt><trkpt lat="59.5563422889" lon="31.2649623491"><ele>241.43</ele><time>2026-09-02T22:29:15Z</time></trkpt><trkpt lat="59.5563432947" lon="31.2649612594"><ele>240.95</ele><time>2026-09-02T22:29:16Z</time></trkpt><trkpt lat="59.5563427918" lon="31.2649617624"><ele>240.95</ele><time>2026-09-02T22:29:17Z</time></trkpt><trkpt lat="59.5563428756" lon="31.2649614271"><ele>240.95</ele><time>2026-09-02T22:29:18Z</time></trkpt><trkpt lat="59.5563426241" lon="31.2649622653"><ele>240.95</ele><time>2026-09-02T22:29:19Z</time></trkpt><trkpt lat="59.5563437976" lon="31.2649621814"><ele>240.95</ele><time>2026-09-02T22:29:20Z</time></trkpt><trkpt lat="59.5563442167" lon="31.2649618462"><ele>240.95</ele><time>2026-09-02T22:29:21Z</time></trkpt><trkpt lat="59.5563445520" lon="31.2649618462"><ele>240.95</ele><time>2026-09-02T22:29:22Z</time></trkpt><trkpt lat="59.5563442167" lon="31.2649617624"><ele>240.95</ele><time>2026-09-02T22:29:23Z</time></trkpt><trkpt lat="59.5563441329" lon="31.2649640255"><ele>240.95</ele><time>2026-09-02T22:29:24Z</time></trkpt><trkpt lat="59.5563438814" lon="31.2649647798"><ele>240.95</ele><time>2026-09-02T22:29:25Z</time></trkpt><trkpt lat="59.5563434623" lon="31.2649646960"><ele>240.95</ele><time>2026-09-02T22:29:26Z</time></trkpt><trkpt lat="59.5563429594" lon="31.2649642769"><ele>240.95</ele><time>2026-09-02T22:29:27Z</time></trkpt><trkpt lat="59.5563422889" lon="31.2649637740"><ele>241.43</ele><time>2026-09-02T22:29:28Z</time></trkpt><trkpt lat="59.5563416183" lon="31.2649639416"><ele>241.43</ele><time>2026-09-02T22:29:29Z</time></trkpt><trkpt lat="59.5563401934" lon="31.2649636902"><ele>241.43</ele><time>2026-09-02T22:29:30Z</time></trkpt><trkpt lat="59.5563407801" lon="31.2649638578"><ele>241.43</ele><time>2026-09-02T22:29:31Z</time></trkpt><trkpt lat="59.5563395228" lon="31.2649635226"><ele>241.43</ele><time>2026-09-02T22:29:32Z</time></trkpt><trkpt lat="59.5563406963" lon="31.2649637740"><ele>241.43</ele><time>2026-09-02T22:29:33Z</time></trkpt><trkpt lat="59.5563412830" lon="31.2649640255"><ele>240.95</ele><time>2026-09-02T22:29:34Z</time></trkpt><trkpt lat="59.5563415345" lon="31.2649641931"><ele>240.95</ele><time>2026-09-02T22:29:35Z</time></trkpt><trkpt lat="59.5563415345" lon="31.2649642769"><ele>240.95</ele><time>2026-09-02T22:29:36Z</time></trkpt><trkpt lat="59.5563415345" lon="31.2649617624"><ele>240.95</ele><time>2026-09-02T22:29:37Z</time></trkpt><trkpt lat="59.5563417859" lon="31.2649575714"><ele>240.95</ele><time>2026-09-02T22:29:38Z</time></trkpt><trkpt lat="59.5563422889" lon="31.2649544701"><ele>240.95</ele><time>2026-09-02T22:29:39Z</time></trkpt><trkpt lat="59.5563431270" lon="31.2649540510"><ele>240.95</ele><time>2026-09-02T22:29:40Z</time></trkpt><trkpt lat="59.5563433785" lon="31.2649542186"><ele>241.43</ele><time>2026-09-02T22:29:41Z</time></trkpt><trkpt lat="59.5563437976" lon="31.2649551407"><ele>241.43</ele><time>2026-09-02T22:29:42Z</time></trkpt><trkpt lat="59.5563447196" lon="31.2649538834"><ele>241.43</ele><time>2026-09-02T22:29:43Z</time></trkpt><trkpt lat="59.5563453902" lon="31.2649521232"><ele>241.43</ele><time>2026-09-02T22:29:44Z</time></trkpt><trkpt lat="59.5563463960" lon="31.2649524584"><ele>241.43</ele><time>2026-09-02T22:29:45Z</time></trkpt><trkpt lat="59.5563464798" lon="31.2649534643"><ele>241.43</ele><time>2026-09-02T22:29:46Z</time></trkpt><trkpt lat="59.5563466474" lon="31.2649526261"><ele>241.43</ele><time>2026-09-02T22:29:47Z</time></trkpt><trkpt lat="59.5563466474" lon="31.2649538834"><ele>241.43</ele><time>2026-09-02T22:29:48Z</time></trkpt><trkpt lat="59.5563467313" lon="31.2649537995"><ele>241.43</ele><time>2026-09-02T22:29:49Z</time></trkpt><trkpt lat="59.5563463960" lon="31.2649539672"><ele>241.43</ele><time>2026-09-02T22:29:50Z</time></trkpt><trkpt lat="59.5563461445" lon="31.2649529614"><ele>241.43</ele><time>2026-09-02T22:29:51Z</time></trkpt><trkpt lat="59.5563463960" lon="31.2649535481"><ele>241.43</ele><time>2026-09-02T22:29:52Z</time></trkpt><trkpt lat="59.5563461445" lon="31.2649491895"><ele>241.43</ele><time>2026-09-02T22:29:53Z</time></trkpt><trkpt lat="59.5563461445" lon="31.2649482675"><ele>241.43</ele><time>2026-09-02T22:29:54Z</time></trkpt><trkpt lat="59.5563463960" lon="31.2649496924"><ele>241.43</ele><time>2026-09-02T22:29:55Z</time></trkpt><trkpt lat="59.5563476533" lon="31.2649464235"><ele>241.43</ele><time>2026-09-02T22:29:56Z</time></trkpt><trkpt lat="59.5563520957" lon="31.2649457529"><ele>241.43</ele><time>2026-09-02T22:29:57Z</time></trkpt><trkpt lat="59.5563549455" lon="31.2649480999"><ele>241.43</ele><time>2026-09-02T22:29:58Z</time></trkpt><trkpt lat="59.5563571248" lon="31.2649477646"><ele>241.43</ele><time>2026-09-02T22:29:59Z</time></trkpt><trkpt lat="59.5563609805" lon="31.2649448309"><ele>241.43</ele><time>2026-09-02T22:30:00Z</time></trkpt><trkpt lat="59.5563636627" lon="31.2649410591"><ele>241.43</ele><time>2026-09-02T22:30:01Z</time></trkpt><trkpt lat="59.5563676860" lon="31.2649380416"><ele>241.43</ele><time>2026-09-02T22:30:02Z</time></trkpt><trkpt lat="59.5563725475" lon="31.2649326771"><ele>240.95</ele><time>2026-09-02T22:30:03Z</time></trkpt><trkpt lat="59.5563777443" lon="31.2649219483"><ele>240.95</ele><time>2026-09-02T22:30:04Z</time></trkpt><trkpt lat="59.5563813485" lon="31.2649072800"><ele>240.95</ele><time>2026-09-02T22:30:05Z</time></trkpt><trkpt lat="59.5563858747" lon="31.2648963835"><ele>240.95</ele><time>2026-09-02T22:30:06Z</time></trkpt><trkpt lat="59.5563885570" lon="31.2648880854"><ele>240.95</ele><time>2026-09-02T22:30:07Z</time></trkpt><trkpt lat="59.5563918259" lon="31.2648826372"><ele>240.95</ele><time>2026-09-02T22:30:08Z</time></trkpt><trkpt lat="59.5563948434" lon="31.2648806255"><ele>240.47</ele><time>2026-09-02T22:30:09Z</time></trkpt><trkpt lat="59.5563987829" lon="31.2648830563"><ele>240.47</ele><time>2026-09-02T22:30:10Z</time></trkpt><trkpt lat="59.5564037282" lon="31.2648835592"><ele>240.47</ele><time>2026-09-02T22:30:11Z</time></trkpt><trkpt lat="59.5564116910" lon="31.2648820505"><ele>240.95</ele><time>2026-09-02T22:30:12Z</time></trkpt><trkpt lat="59.5564187318" lon="31.2648843974"><ele>240.95</ele><time>2026-09-02T22:30:13Z</time></trkpt><trkpt lat="59.5564252697" lon="31.2648878340"><ele>240.95</ele><time>2026-09-02T22:30:14Z</time></trkpt><trkpt lat="59.5564301312" lon="31.2648908515"><ele>240.95</ele><time>2026-09-02T22:30:15Z</time></trkpt><trkpt lat="59.5564394351" lon="31.2648841459"><ele>241.43</ele><time>2026-09-02T22:30:16Z</time></trkpt><trkpt lat="59.5564454701" lon="31.2648793682"><ele>240.95</ele><time>2026-09-02T22:30:17Z</time></trkpt><trkpt lat="59.5564511698" lon="31.2648751773"><ele>240.95</ele><time>2026-09-02T22:30:18Z</time></trkpt><trkpt lat="59.5564553607" lon="31.2648696452"><ele>240.95</ele><time>2026-09-02T22:30:19Z</time></trkpt><trkpt lat="59.5564611442" lon="31.2648672983"><ele>240.95</ele><time>2026-09-02T22:30:20Z</time></trkpt><trkpt lat="59.5564661734" lon="31.2648645323"><ele>240.95</ele><time>2026-09-02T22:30:21Z</time></trkpt><trkpt lat="59.5564725436" lon="31.2648583297"><ele>240.95</ele><time>2026-09-02T22:30:22Z</time></trkpt><trkpt lat="59.5564764831" lon="31.2648535520"><ele>240.95</ele><time>2026-09-02T22:30:23Z</time></trkpt><trkpt lat="59.5564803388" lon="31.2648460921"><ele>240.95</ele><time>2026-09-02T22:30:24Z</time></trkpt><trkpt lat="59.5564844459" lon="31.2648375425"><ele>240.95</ele><time>2026-09-02T22:30:25Z</time></trkpt><trkpt lat="59.5564925764" lon="31.2648266461"><ele>240.95</ele><time>2026-09-02T22:30:26Z</time></trkpt><trkpt lat="59.5564956777" lon="31.2648143247"><ele>240.95</ele><time>2026-09-02T22:30:27Z</time></trkpt><trkpt lat="59.5565042272" lon="31.2648012489"><ele>240.95</ele><time>2026-09-02T22:30:28Z</time></trkpt><trkpt lat="59.5565082505" lon="31.2647901848"><ele>240.95</ele><time>2026-09-02T22:30:29Z</time></trkpt><trkpt lat="59.5565120224" lon="31.2647743430"><ele>240.95</ele><time>2026-09-02T22:30:30Z</time></trkpt><trkpt lat="59.5565196499" lon="31.2647557352"><ele>240.95</ele><time>2026-09-02T22:30:31Z</time></trkpt><trkpt lat="59.5565219969" lon="31.2647437491"><ele>240.95</ele><time>2026-09-02T22:30:32Z</time></trkpt><trkpt lat="59.5565292891" lon="31.2647284940"><ele>240.95</ele><time>2026-09-02T22:30:33Z</time></trkpt><trkpt lat="59.5565360785" lon="31.2647097185"><ele>240.95</ele><time>2026-09-02T22:30:34Z</time></trkpt><trkpt lat="59.5565492380" lon="31.2646948826"><ele>241.43</ele><time>2026-09-02T22:30:35Z</time></trkpt><trkpt lat="59.5565564465" lon="31.2646776997"><ele>241.43</ele><time>2026-09-02T22:30:36Z</time></trkpt><trkpt lat="59.5565634873" lon="31.2646597624"><ele>241.43</ele><time>2026-09-02T22:30:37Z</time></trkpt><trkpt lat="59.5565696899" lon="31.2646449264"><ele>241.43</ele><time>2026-09-02T22:30:38Z</time></trkpt><trkpt lat="59.5565731265" lon="31.2646302581"><ele>241.43</ele><time>2026-09-02T22:30:39Z</time></trkpt><trkpt lat="59.5565759763" lon="31.2646158412"><ele>241.43</ele><time>2026-09-02T22:30:40Z</time></trkpt><trkpt lat="59.5565763954" lon="31.2646016758"><ele>241.43</ele><time>2026-09-02T22:30:41Z</time></trkpt><trkpt lat="59.5565739647" lon="31.2645849958"><ele>241.43</ele><time>2026-09-02T22:30:42Z</time></trkpt><trkpt lat="59.5565774851" lon="31.2645741832"><ele>241.43</ele><time>2026-09-02T22:30:43Z</time></trkpt><trkpt lat="59.5565839391" lon="31.2645620294"><ele>241.43</ele><time>2026-09-02T22:30:44Z</time></trkpt><trkpt lat="59.5565926563" lon="31.2645469420"><ele>241.43</ele><time>2026-09-02T22:30:45Z</time></trkpt><trkpt lat="59.5566009544" lon="31.2645307649"><ele>241.43</ele><time>2026-09-02T22:30:46Z</time></trkpt><trkpt lat="59.5566077437" lon="31.2645138334"><ele>241.43</ele><time>2026-09-02T22:30:47Z</time></trkpt><trkpt lat="59.5566126890" lon="31.2644988298"><ele>241.91</ele><time>2026-09-02T22:30:48Z</time></trkpt><trkpt lat="59.5566187240" lon="31.2644801382"><ele>241.91</ele><time>2026-09-02T22:30:49Z</time></trkpt><trkpt lat="59.5566242561" lon="31.2644639611"><ele>241.91</ele><time>2026-09-02T22:30:50Z</time></trkpt><trkpt lat="59.5566291176" lon="31.2644498795"><ele>241.91</ele><time>2026-09-02T22:30:51Z</time></trkpt><trkpt lat="59.5566329733" lon="31.2644348759"><ele>241.91</ele><time>2026-09-02T22:30:52Z</time></trkpt><trkpt lat="59.5566362422" lon="31.2644218840"><ele>241.91</ele><time>2026-09-02T22:30:53Z</time></trkpt><trkpt lat="59.5566383377" lon="31.2644082215"><ele>241.91</ele><time>2026-09-02T22:30:54Z</time></trkpt><trkpt lat="59.5566411875" lon="31.2643882725"><ele>241.91</ele><time>2026-09-02T22:30:55Z</time></trkpt><trkpt lat="59.5566484798" lon="31.2643700838"><ele>241.91</ele><time>2026-09-02T22:30:56Z</time></trkpt><trkpt lat="59.5566519164" lon="31.2643493805"><ele>241.91</ele><time>2026-09-02T22:30:57Z</time></trkpt><trkpt lat="59.5566587895" lon="31.2643339578"><ele>241.91</ele><time>2026-09-02T22:30:58Z</time></trkpt><trkpt lat="59.5566612203" lon="31.2643114943"><ele>241.91</ele><time>2026-09-02T22:30:59Z</time></trkpt><trkpt lat="59.5566656627" lon="31.2642984185"><ele>242.39</ele><time>2026-09-02T22:31:00Z</time></trkpt><trkpt lat="59.5566651598" lon="31.2642866839"><ele>242.39</ele><time>2026-09-02T22:31:01Z</time></trkpt><trkpt lat="59.5566685963" lon="31.2642747816"><ele>242.39</ele><time>2026-09-02T22:31:02Z</time></trkpt><trkpt lat="59.5566693507" lon="31.2642590236"><ele>242.39</ele><time>2026-09-02T22:31:03Z</time></trkpt><trkpt lat="59.5566719491" lon="31.2642416731"><ele>242.39</ele><time>2026-09-02T22:31:04Z</time></trkpt><trkpt lat="59.5566766430" lon="31.2642312795"><ele>242.39</ele><time>2026-09-02T22:31:05Z</time></trkpt><trkpt lat="59.5566805825" lon="31.2642191257"><ele>242.39</ele><time>2026-09-02T22:31:06Z</time></trkpt><trkpt lat="59.5566845220" lon="31.2642058823"><ele>242.39</ele><time>2026-09-02T22:31:07Z</time></trkpt><trkpt lat="59.5566913951" lon="31.2641933933"><ele>242.39</ele><time>2026-09-02T22:31:08Z</time></trkpt><trkpt lat="59.5566975977" lon="31.2641750369"><ele>242.39</ele><time>2026-09-02T22:31:09Z</time></trkpt><trkpt lat="59.5567069855" lon="31.2641603686"><ele>242.39</ele><time>2026-09-02T22:31:10Z</time></trkpt><trkpt lat="59.5567084942" lon="31.2641543336"><ele>242.39</ele><time>2026-09-02T22:31:11Z</time></trkpt><trkpt lat="59.5567120984" lon="31.2641483825"><ele>242.39</ele><time>2026-09-02T22:31:12Z</time></trkpt><trkpt lat="59.5567208994" lon="31.2641349714"><ele>242.39</ele><time>2026-09-02T22:31:13Z</time></trkpt><trkpt lat="59.5567277726" lon="31.2641238235"><ele>242.39</ele><time>2026-09-02T22:31:14Z</time></trkpt><trkpt lat="59.5567332208" lon="31.2641165312"><ele>242.39</ele><time>2026-09-02T22:31:15Z</time></trkpt><trkpt lat="59.5567412674" lon="31.2641094904"><ele>242.39</ele><time>2026-09-02T22:31:16Z</time></trkpt><trkpt lat="59.5567465480" lon="31.2640999351"><ele>242.39</ele><time>2026-09-02T22:31:17Z</time></trkpt><trkpt lat="59.5567517448" lon="31.2640954927"><ele>242.39</ele><time>2026-09-02T22:31:18Z</time></trkpt><trkpt lat="59.5567587856" lon="31.2640922237"><ele>242.39</ele><time>2026-09-02T22:31:19Z</time></trkpt><trkpt lat="59.5567686763" lon="31.2640893739"><ele>242.39</ele><time>2026-09-02T22:31:20Z</time></trkpt><trkpt lat="59.5567794889" lon="31.2640831713"><ele>242.39</ele><time>2026-09-02T22:31:21Z</time></trkpt><trkpt lat="59.5567871165" lon="31.2640848476"><ele>242.39</ele><time>2026-09-02T22:31:22Z</time></trkpt><trkpt lat="59.5567931514" lon="31.2640876975"><ele>242.39</ele><time>2026-09-02T22:31:23Z</time></trkpt><trkpt lat="59.5568009466" lon="31.2640894577"><ele>242.39</ele><time>2026-09-02T22:31:24Z</time></trkpt><trkpt lat="59.5568063948" lon="31.2640906312"><ele>242.39</ele><time>2026-09-02T22:31:25Z</time></trkpt><trkpt lat="59.5568137709" lon="31.2640910503"><ele>242.39</ele><time>2026-09-02T22:31:26Z</time></trkpt><trkpt lat="59.5568204764" lon="31.2640903797"><ele>242.39</ele><time>2026-09-02T22:31:27Z</time></trkpt><trkpt lat="59.5568261761" lon="31.2640880328"><ele>242.39</ele><time>2026-09-02T22:31:28Z</time></trkpt><trkpt lat="59.5568380784" lon="31.2640788965"><ele>242.39</ele><time>2026-09-02T22:31:29Z</time></trkpt><trkpt lat="59.5568485558" lon="31.2640726939"><ele>242.39</ele><time>2026-09-02T22:31:30Z</time></trkpt><trkpt lat="59.5568624698" lon="31.2640651502"><ele>242.39</ele><time>2026-09-02T22:31:31Z</time></trkpt><trkpt lat="59.5568692591" lon="31.2640555948"><ele>242.39</ele><time>2026-09-02T22:31:32Z</time></trkpt><trkpt lat="59.5568775572" lon="31.2640498951"><ele>242.39</ele><time>2026-09-02T22:31:33Z</time></trkpt><trkpt lat="59.5568846818" lon="31.2640471291"><ele>242.39</ele><time>2026-09-02T22:31:34Z</time></trkpt><trkpt lat="59.5568916388" lon="31.2640408427"><ele>242.39</ele><time>2026-09-02T22:31:35Z</time></trkpt><trkpt lat="59.5568972547" lon="31.2640327960"><ele>242.39</ele><time>2026-09-02T22:31:36Z</time></trkpt><trkpt lat="59.5569064748" lon="31.2640220672"><ele>242.39</ele><time>2026-09-02T22:31:37Z</time></trkpt><trkpt lat="59.5569140185" lon="31.2640131824"><ele>242.39</ele><time>2026-09-02T22:31:38Z</time></trkpt><trkpt lat="59.5569228195" lon="31.2640016992"><ele>242.39</ele><time>2026-09-02T22:31:39Z</time></trkpt><trkpt lat="59.5569294412" lon="31.2639857735"><ele>242.39</ele><time>2026-09-02T22:31:40Z</time></trkpt><trkpt lat="59.5569386613" lon="31.2639724463"><ele>242.39</ele><time>2026-09-02T22:31:41Z</time></trkpt><trkpt lat="59.5569464564" lon="31.2639568560"><ele>242.39</ele><time>2026-09-02T22:31:42Z</time></trkpt><trkpt lat="59.5569506474" lon="31.2639398407"><ele>242.39</ele><time>2026-09-02T22:31:43Z</time></trkpt><trkpt lat="59.5569573529" lon="31.2639269326"><ele>242.39</ele><time>2026-09-02T22:31:44Z</time></trkpt><trkpt lat="59.5569634717" lon="31.2639119290"><ele>242.39</ele><time>2026-09-02T22:31:45Z</time></trkpt><trkpt lat="59.5569685847" lon="31.2638977636"><ele>242.39</ele><time>2026-09-02T22:31:46Z</time></trkpt><trkpt lat="59.5569686685" lon="31.2638834305"><ele>242.39</ele><time>2026-09-02T22:31:47Z</time></trkpt><trkpt lat="59.5569727756" lon="31.2638716958"><ele>242.39</ele><time>2026-09-02T22:31:48Z</time></trkpt><trkpt lat="59.5569744520" lon="31.2638589554"><ele>242.39</ele><time>2026-09-02T22:31:49Z</time></trkpt><trkpt lat="59.5569770504" lon="31.2638495676"><ele>242.39</ele><time>2026-09-02T22:31:50Z</time></trkpt><trkpt lat="59.5569818281" lon="31.2638412695"><ele>242.39</ele><time>2026-09-02T22:31:51Z</time></trkpt><trkpt lat="59.5569849294" lon="31.2638350669"><ele>242.39</ele><time>2026-09-02T22:31:52Z</time></trkpt><trkpt lat="59.5569946524" lon="31.2638283614"><ele>242.39</ele><time>2026-09-02T22:31:53Z</time></trkpt><trkpt lat="59.5570076443" lon="31.2638128549"><ele>242.39</ele><time>2026-09-02T22:31:54Z</time></trkpt><trkpt lat="59.5570161939" lon="31.2637980189"><ele>242.39</ele><time>2026-09-02T22:31:55Z</time></trkpt><trkpt lat="59.5570223965" lon="31.2637826800"><ele>242.39</ele><time>2026-09-02T22:31:56Z</time></trkpt><trkpt lat="59.5570281800" lon="31.2637699395"><ele>242.39</ele><time>2026-09-02T22:31:57Z</time></trkpt><trkpt lat="59.5570360590" lon="31.2637611385"><ele>242.39</ele><time>2026-09-02T22:31:58Z</time></trkpt><trkpt lat="59.5570410881" lon="31.2637509964"><ele>242.39</ele><time>2026-09-02T22:31:59Z</time></trkpt><trkpt lat="59.5570470393" lon="31.2637435365"><ele>242.39</ele><time>2026-09-02T22:32:00Z</time></trkpt><trkpt lat="59.5570545830" lon="31.2637345679"><ele>242.39</ele><time>2026-09-02T22:32:01Z</time></trkpt><trkpt lat="59.5570634678" lon="31.2637213245"><ele>242.39</ele><time>2026-09-02T22:32:02Z</time></trkpt><trkpt lat="59.5570711792" lon="31.2637093384"><ele>242.39</ele><time>2026-09-02T22:32:03Z</time></trkpt><trkpt lat="59.5570762921" lon="31.2636972684"><ele>242.39</ele><time>2026-09-02T22:32:04Z</time></trkpt><trkpt lat="59.5570823271" lon="31.2636878807"><ele>242.39</ele><time>2026-09-02T22:32:05Z</time></trkpt><trkpt lat="59.5570852607" lon="31.2636788283"><ele>242.39</ele><time>2026-09-02T22:32:06Z</time></trkpt><trkpt lat="59.5570926368" lon="31.2636714522"><ele>242.39</ele><time>2026-09-02T22:32:07Z</time></trkpt><trkpt lat="59.5570994262" lon="31.2636575382"><ele>242.39</ele><time>2026-09-02T22:32:08Z</time></trkpt><trkpt lat="59.5571037848" lon="31.2636415288"><ele>241.91</ele><time>2026-09-02T22:32:09Z</time></trkpt><trkpt lat="59.5571075566" lon="31.2636282854"><ele>241.91</ele><time>2026-09-02T22:32:10Z</time></trkpt><trkpt lat="59.5571163576" lon="31.2636202388"><ele>241.91</ele><time>2026-09-02T22:32:11Z</time></trkpt><trkpt lat="59.5571216382" lon="31.2636087555"><ele>241.91</ele><time>2026-09-02T22:32:12Z</time></trkpt><trkpt lat="59.5571287628" lon="31.2635979429"><ele>241.91</ele><time>2026-09-02T22:32:13Z</time></trkpt><trkpt lat="59.5571343787" lon="31.2635878846"><ele>242.39</ele><time>2026-09-02T22:32:14Z</time></trkpt><trkpt lat="59.5571385697" lon="31.2635809276"><ele>242.39</ele><time>2026-09-02T22:32:15Z</time></trkpt><trkpt lat="59.5571428444" lon="31.2635756470"><ele>242.39</ele><time>2026-09-02T22:32:16Z</time></trkpt><trkpt lat="59.5571469516" lon="31.2635708693"><ele>242.39</ele><time>2026-09-02T22:32:17Z</time></trkpt><trkpt lat="59.5571543276" lon="31.2635614816"><ele>242.39</ele><time>2026-09-02T22:32:18Z</time></trkpt><trkpt lat="59.5571606979" lon="31.2635550275"><ele>242.39</ele><time>2026-09-02T22:32:19Z</time></trkpt><trkpt lat="59.5571722649" lon="31.2635365874"><ele>242.39</ele><time>2026-09-02T22:32:20Z</time></trkpt><trkpt lat="59.5571788866" lon="31.2635325640"><ele>242.39</ele><time>2026-09-02T22:32:21Z</time></trkpt><trkpt lat="59.5571835805" lon="31.2635248527"><ele>242.39</ele><time>2026-09-02T22:32:22Z</time></trkpt><trkpt lat="59.5571920462" lon="31.2635155488"><ele>242.39</ele><time>2026-09-02T22:32:23Z</time></trkpt><trkpt lat="59.5571969915" lon="31.2635091785"><ele>242.39</ele><time>2026-09-02T22:32:24Z</time></trkpt><trkpt lat="59.5572067983" lon="31.2635031436"><ele>242.39</ele><time>2026-09-02T22:32:25Z</time></trkpt><trkpt lat="59.5572146773" lon="31.2634918280"><ele>242.39</ele><time>2026-09-02T22:32:26Z</time></trkpt><trkpt lat="59.5572225563" lon="31.2634827755"><ele>241.91</ele><time>2026-09-02T22:32:27Z</time></trkpt><trkpt lat="59.5572255738" lon="31.2634752318"><ele>241.91</ele><time>2026-09-02T22:32:28Z</time></trkpt><trkpt lat="59.5572275855" lon="31.2634682748"><ele>241.91</ele><time>2026-09-02T22:32:29Z</time></trkpt><trkpt lat="59.5572287589" lon="31.2634649221"><ele>241.91</ele><time>2026-09-02T22:32:30Z</time></trkpt><trkpt lat="59.5572315250" lon="31.2634597253"><ele>241.91</ele><time>2026-09-02T22:32:31Z</time></trkpt><trkpt lat="59.5572354645" lon="31.2634523492"><ele>241.91</ele><time>2026-09-02T22:32:32Z</time></trkpt><trkpt lat="59.5572402421" lon="31.2634444702"><ele>242.39</ele><time>2026-09-02T22:32:33Z</time></trkpt><trkpt lat="59.5572424214" lon="31.2634428777"><ele>242.39</ele><time>2026-09-02T22:32:34Z</time></trkpt><trkpt lat="59.5572450198" lon="31.2634384353"><ele>242.39</ele><time>2026-09-02T22:32:35Z</time></trkpt><trkpt lat="59.5572492946" lon="31.2634294666"><ele>242.39</ele><time>2026-09-02T22:32:36Z</time></trkpt><trkpt lat="59.5572558325" lon="31.2634204980"><ele>242.39</ele><time>2026-09-02T22:32:37Z</time></trkpt><trkpt lat="59.5572602749" lon="31.2634121999"><ele>242.39</ele><time>2026-09-02T22:32:38Z</time></trkpt><trkpt lat="59.5572687406" lon="31.2633989565"><ele>242.39</ele><time>2026-09-02T22:32:39Z</time></trkpt><trkpt lat="59.5572770387" lon="31.2633788399"><ele>241.91</ele><time>2026-09-02T22:32:40Z</time></trkpt><trkpt lat="59.5572825707" lon="31.2633609865"><ele>241.91</ele><time>2026-09-02T22:32:41Z</time></trkpt><trkpt lat="59.5572860911" lon="31.2633429654"><ele>241.91</ele><time>2026-09-02T22:32:42Z</time></trkpt><trkpt lat="59.5572880190" lon="31.2633280456"><ele>241.91</ele><time>2026-09-02T22:32:43Z</time></trkpt><trkpt lat="59.5572946407" lon="31.2633128744"><ele>241.91</ele><time>2026-09-02T22:32:44Z</time></trkpt><trkpt lat="59.5572996698" lon="31.2632960267"><ele>241.91</ele><time>2026-09-02T22:32:45Z</time></trkpt><trkpt lat="59.5573072974" lon="31.2632863875"><ele>242.39</ele><time>2026-09-02T22:32:46Z</time></trkpt><trkpt lat="59.5573127456" lon="31.2632748205"><ele>242.39</ele><time>2026-09-02T22:32:47Z</time></trkpt><trkpt lat="59.5573139191" lon="31.2632604875"><ele>242.39</ele><time>2026-09-02T22:32:48Z</time></trkpt><trkpt lat="59.5573182777" lon="31.2632511836"><ele>242.39</ele><time>2026-09-02T22:32:49Z</time></trkpt><trkpt lat="59.5573220495" lon="31.2632438913"><ele>241.91</ele><time>2026-09-02T22:32:50Z</time></trkpt><trkpt lat="59.5573247317" lon="31.2632333301"><ele>241.91</ele><time>2026-09-02T22:32:51Z</time></trkpt><trkpt lat="59.5573255699" lon="31.2632211763"><ele>241.91</ele><time>2026-09-02T22:32:52Z</time></trkpt><trkpt lat="59.5573264919" lon="31.2632066756"><ele>241.91</ele><time>2026-09-02T22:32:53Z</time></trkpt><trkpt lat="59.5573301800" lon="31.2631946895"><ele>241.91</ele><time>2026-09-02T22:32:54Z</time></trkpt><trkpt lat="59.5573348738" lon="31.2631862238"><ele>242.39</ele><time>2026-09-02T22:32:55Z</time></trkpt><trkpt lat="59.5573408250" lon="31.2631772552"><ele>242.39</ele><time>2026-09-02T22:32:56Z</time></trkpt><trkpt lat="59.5573452674" lon="31.2631687894"><ele>242.39</ele><time>2026-09-02T22:32:57Z</time></trkpt><trkpt lat="59.5573496260" lon="31.2631635927"><ele>242.39</ele><time>2026-09-02T22:32:58Z</time></trkpt><trkpt lat="59.5573546551" lon="31.2631562166"><ele>242.39</ele><time>2026-09-02T22:32:59Z</time></trkpt><trkpt lat="59.5573578402" lon="31.2631575577"><ele>242.39</ele><time>2026-09-02T22:33:00Z</time></trkpt><trkpt lat="59.5573624503" lon="31.2631551269"><ele>242.39</ele><time>2026-09-02T22:33:01Z</time></trkpt><trkpt lat="59.5573658869" lon="31.2631557975"><ele>242.39</ele><time>2026-09-02T22:33:02Z</time></trkpt><trkpt lat="59.5573661383" lon="31.2631477509"><ele>242.39</ele><time>2026-09-02T22:33:03Z</time></trkpt><trkpt lat="59.5573683176" lon="31.2631519418"><ele>242.39</ele><time>2026-09-02T22:33:04Z</time></trkpt><trkpt lat="59.5573694911" lon="31.2631475832"><ele>242.39</ele><time>2026-09-02T22:33:05Z</time></trkpt><trkpt lat="59.5573715866" lon="31.2631485891"><ele>242.39</ele><time>2026-09-02T22:33:06Z</time></trkpt><trkpt lat="59.5573755261" lon="31.2631552946"><ele>242.39</ele><time>2026-09-02T22:33:07Z</time></trkpt><trkpt lat="59.5573815610" lon="31.2631641794"><ele>242.39</ele><time>2026-09-02T22:33:08Z</time></trkpt><trkpt lat="59.5573859196" lon="31.2631662749"><ele>242.39</ele><time>2026-09-02T22:33:09Z</time></trkpt><trkpt lat="59.5573916193" lon="31.2631698791"><ele>242.39</ele><time>2026-09-02T22:33:10Z</time></trkpt><trkpt lat="59.5573974866" lon="31.2631740700"><ele>242.39</ele><time>2026-09-02T22:33:11Z</time></trkpt><trkpt lat="59.5574037731" lon="31.2631785963"><ele>242.39</ele><time>2026-09-02T22:33:12Z</time></trkpt><trkpt lat="59.5574098919" lon="31.2631818652"><ele>242.39</ele><time>2026-09-02T22:33:13Z</time></trkpt><trkpt lat="59.5574144181" lon="31.2631848827"><ele>242.39</ele><time>2026-09-02T22:33:14Z</time></trkpt><trkpt lat="59.5574221294" lon="31.2631862238"><ele>242.39</ele><time>2026-09-02T22:33:15Z</time></trkpt><trkpt lat="59.5574283320" lon="31.2631829549"><ele>242.39</ele><time>2026-09-02T22:33:16Z</time></trkpt><trkpt lat="59.5574350376" lon="31.2631801888"><ele>242.39</ele><time>2026-09-02T22:33:17Z</time></trkpt><trkpt lat="59.5574428327" lon="31.2631727289"><ele>242.39</ele><time>2026-09-02T22:33:18Z</time></trkpt><trkpt lat="59.5574513823" lon="31.2631684542"><ele>242.39</ele><time>2026-09-02T22:33:19Z</time></trkpt><trkpt lat="59.5574576687" lon="31.2631662749"><ele>242.39</ele><time>2026-09-02T22:33:20Z</time></trkpt><trkpt lat="59.5574630331" lon="31.2631626707"><ele>242.39</ele><time>2026-09-02T22:33:21Z</time></trkpt><trkpt lat="59.5574686490" lon="31.2631568871"><ele>242.39</ele><time>2026-09-02T22:33:22Z</time></trkpt><trkpt lat="59.5574736781" lon="31.2631529476"><ele>242.39</ele><time>2026-09-02T22:33:23Z</time></trkpt><trkpt lat="59.5574771985" lon="31.2631492596"><ele>242.39</ele><time>2026-09-02T22:33:24Z</time></trkpt><trkpt lat="59.5574813895" lon="31.2631463259"><ele>242.39</ele><time>2026-09-02T22:33:25Z</time></trkpt><trkpt lat="59.5574865863" lon="31.2631451525"><ele>242.39</ele><time>2026-09-02T22:33:26Z</time></trkpt><trkpt lat="59.5574904419" lon="31.2631435599"><ele>242.39</ele><time>2026-09-02T22:33:27Z</time></trkpt><trkpt lat="59.5574964769" lon="31.2631435599"><ele>242.39</ele><time>2026-09-02T22:33:28Z</time></trkpt><trkpt lat="59.5575019252" lon="31.2631434761"><ele>242.39</ele><time>2026-09-02T22:33:29Z</time></trkpt><trkpt lat="59.5575057808" lon="31.2631362677"><ele>242.39</ele><time>2026-09-02T22:33:30Z</time></trkpt><trkpt lat="59.5575133245" lon="31.2631337531"><ele>242.39</ele><time>2026-09-02T22:33:31Z</time></trkpt><trkpt lat="59.5575176831" lon="31.2631261256"><ele>242.39</ele><time>2026-09-02T22:33:32Z</time></trkpt><trkpt lat="59.5575236343" lon="31.2631179951"><ele>242.39</ele><time>2026-09-02T22:33:33Z</time></trkpt><trkpt lat="59.5575352851" lon="31.2631070986"><ele>242.39</ele><time>2026-09-02T22:33:34Z</time></trkpt><trkpt lat="59.5575423259" lon="31.2630898319"><ele>242.39</ele><time>2026-09-02T22:33:35Z</time></trkpt><trkpt lat="59.5575463492" lon="31.2630731519"><ele>242.39</ele><time>2026-09-02T22:33:36Z</time></trkpt><trkpt lat="59.5575539768" lon="31.2630581483"><ele>242.39</ele><time>2026-09-02T22:33:37Z</time></trkpt><trkpt lat="59.5575576648" lon="31.2630426418"><ele>242.39</ele><time>2026-09-02T22:33:38Z</time></trkpt><trkpt lat="59.5575642865" lon="31.2630243693"><ele>242.39</ele><time>2026-09-02T22:33:39Z</time></trkpt><trkpt lat="59.5575692318" lon="31.2630016543"><ele>242.39</ele><time>2026-09-02T22:33:40Z</time></trkpt><trkpt lat="59.5575705729" lon="31.2629888300"><ele>242.39</ele><time>2026-09-02T22:33:41Z</time></trkpt><trkpt lat="59.5575678907" lon="31.2629759219"><ele>242.39</ele><time>2026-09-02T22:33:42Z</time></trkpt><trkpt lat="59.5575663820" lon="31.2629711442"><ele>242.39</ele><time>2026-09-02T22:33:43Z</time></trkpt><trkpt lat="59.5575673878" lon="31.2629577331"><ele>242.39</ele><time>2026-09-02T22:33:44Z</time></trkpt><trkpt lat="59.5575670525" lon="31.2629619241"><ele>242.39</ele><time>2026-09-02T22:33:45Z</time></trkpt><trkpt lat="59.5575684775" lon="31.2629553862"><ele>242.87</ele><time>2026-09-02T22:33:46Z</time></trkpt><trkpt lat="59.5575684775" lon="31.2629545480"><ele>242.87</ele><time>2026-09-02T22:33:47Z</time></trkpt><trkpt lat="59.5575682260" lon="31.2629538774"><ele>242.87</ele><time>2026-09-02T22:33:48Z</time></trkpt><trkpt lat="59.5575674716" lon="31.2629532907"><ele>242.87</ele><time>2026-09-02T22:33:49Z</time></trkpt><trkpt lat="59.5575671364" lon="31.2629518658"><ele>242.87</ele><time>2026-09-02T22:33:50Z</time></trkpt><trkpt lat="59.5575664658" lon="31.2629509438"><ele>242.87</ele><time>2026-09-02T22:33:51Z</time></trkpt><trkpt lat="59.5575649571" lon="31.2629493512"><ele>242.87</ele><time>2026-09-02T22:33:52Z</time></trkpt><trkpt lat="59.5575633645" lon="31.2629464176"><ele>242.87</ele><time>2026-09-02T22:33:53Z</time></trkpt><trkpt lat="59.5575622749" lon="31.2629434839"><ele>242.87</ele><time>2026-09-02T22:33:54Z</time></trkpt><trkpt lat="59.5575611852" lon="31.2629408855"><ele>242.87</ele><time>2026-09-02T22:33:55Z</time></trkpt><trkpt lat="59.5575609338" lon="31.2629387900"><ele>242.87</ele><time>2026-09-02T22:33:56Z</time></trkpt><trkpt lat="59.5575607661" lon="31.2629393768"><ele>242.87</ele><time>2026-09-02T22:33:57Z</time></trkpt><trkpt lat="59.5575622749" lon="31.2629413884"><ele>242.87</ele><time>2026-09-02T22:33:58Z</time></trkpt><trkpt lat="59.5575661305" lon="31.2629445735"><ele>242.87</ele><time>2026-09-02T22:33:59Z</time></trkpt><trkpt lat="59.5575707406" lon="31.2629451603"><ele>242.87</ele><time>2026-09-02T22:34:00Z</time></trkpt><trkpt lat="59.5575751830" lon="31.2629423942"><ele>242.87</ele><time>2026-09-02T22:34:01Z</time></trkpt><trkpt lat="59.5575775299" lon="31.2629372813"><ele>242.87</ele><time>2026-09-02T22:34:02Z</time></trkpt><trkpt lat="59.5575817209" lon="31.2629329227"><ele>242.87</ele><time>2026-09-02T22:34:03Z</time></trkpt><trkpt lat="59.5575857442" lon="31.2629308272"><ele>242.87</ele><time>2026-09-02T22:34:04Z</time></trkpt><trkpt lat="59.5575907733" lon="31.2629299890"><ele>242.87</ele><time>2026-09-02T22:34:05Z</time></trkpt><trkpt lat="59.5575957187" lon="31.2629267201"><ele>242.39</ele><time>2026-09-02T22:34:06Z</time></trkpt><trkpt lat="59.5576013345" lon="31.2629198469"><ele>242.39</ele><time>2026-09-02T22:34:07Z</time></trkpt><trkpt lat="59.5576046873" lon="31.2629116327"><ele>242.39</ele><time>2026-09-02T22:34:08Z</time></trkpt><trkpt lat="59.5576078724" lon="31.2629022449"><ele>242.39</ele><time>2026-09-02T22:34:09Z</time></trkpt><trkpt lat="59.5576134883" lon="31.2628918514"><ele>242.39</ele><time>2026-09-02T22:34:10Z</time></trkpt><trkpt lat="59.5576157514" lon="31.2628810387"><ele>242.39</ele><time>2026-09-02T22:34:11Z</time></trkpt><trkpt lat="59.5576191880" lon="31.2628708966"><ele>242.39</ele><time>2026-09-02T22:34:12Z</time></trkpt><trkpt lat="59.5576220378" lon="31.2628615927"><ele>242.39</ele><time>2026-09-02T22:34:13Z</time></trkpt><trkpt lat="59.5576244686" lon="31.2628562283"><ele>242.39</ele><time>2026-09-02T22:34:14Z</time></trkpt><trkpt lat="59.5576210320" lon="31.2628503609"><ele>242.39</ele><time>2026-09-02T22:34:15Z</time></trkpt><trkpt lat="59.5576141588" lon="31.2628411409"><ele>242.39</ele><time>2026-09-02T22:34:16Z</time></trkpt><trkpt lat="59.5576102193" lon="31.2628349382"><ele>242.39</ele><time>2026-09-02T22:34:17Z</time></trkpt><trkpt lat="59.5576082915" lon="31.2628289871"><ele>242.87</ele><time>2026-09-02T22:34:18Z</time></trkpt><trkpt lat="59.5576072857" lon="31.2628181744"><ele>242.87</ele><time>2026-09-02T22:34:19Z</time></trkpt><trkpt lat="59.5576054417" lon="31.2628071941"><ele>242.87</ele><time>2026-09-02T22:34:20Z</time></trkpt><trkpt lat="59.5576065313" lon="31.2627996504"><ele>242.87</ele><time>2026-09-02T22:34:21Z</time></trkpt><trkpt lat="59.5576070342" lon="31.2627916876"><ele>242.39</ele><time>2026-09-02T22:34:22Z</time></trkpt><trkpt lat="59.5576056931" lon="31.2627812941"><ele>242.39</ele><time>2026-09-02T22:34:23Z</time></trkpt><trkpt lat="59.5576094650" lon="31.2627729960"><ele>242.39</ele><time>2026-09-02T22:34:24Z</time></trkpt><trkpt lat="59.5576138236" lon="31.2627642788"><ele>242.39</ele><time>2026-09-02T22:34:25Z</time></trkpt><trkpt lat="59.5576189365" lon="31.2627594173"><ele>242.39</ele><time>2026-09-02T22:34:26Z</time></trkpt><trkpt lat="59.5576207805" lon="31.2627526280"><ele>242.87</ele><time>2026-09-02T22:34:27Z</time></trkpt><trkpt lat="59.5576265641" lon="31.2627447490"><ele>242.87</ele><time>2026-09-02T22:34:28Z</time></trkpt><trkpt lat="59.5576317608" lon="31.2627331819"><ele>242.87</ele><time>2026-09-02T22:34:29Z</time></trkpt><trkpt lat="59.5576321799" lon="31.2627248839"><ele>242.87</ele><time>2026-09-02T22:34:30Z</time></trkpt><trkpt lat="59.5576325990" lon="31.2627182622"><ele>242.87</ele><time>2026-09-02T22:34:31Z</time></trkpt><trkpt lat="59.5576343592" lon="31.2627085391"><ele>242.87</ele><time>2026-09-02T22:34:32Z</time></trkpt><trkpt lat="59.5576360356" lon="31.2627000734"><ele>242.87</ele><time>2026-09-02T22:34:33Z</time></trkpt><trkpt lat="59.5576372929" lon="31.2626924459"><ele>242.87</ele><time>2026-09-02T22:34:34Z</time></trkpt><trkpt lat="59.5576368738" lon="31.2626787834"><ele>242.87</ele><time>2026-09-02T22:34:35Z</time></trkpt><trkpt lat="59.5576386340" lon="31.2626676355"><ele>242.87</ele><time>2026-09-02T22:34:36Z</time></trkpt><trkpt lat="59.5576413162" lon="31.2626521289"><ele>242.87</ele><time>2026-09-02T22:34:37Z</time></trkpt><trkpt lat="59.5576425735" lon="31.2626416516"><ele>242.87</ele><time>2026-09-02T22:34:38Z</time></trkpt><trkpt lat="59.5576444175" lon="31.2626319285"><ele>242.87</ele><time>2026-09-02T22:34:39Z</time></trkpt><trkpt lat="59.5576447528" lon="31.2626172602"><ele>242.87</ele><time>2026-09-02T22:34:40Z</time></trkpt><trkpt lat="59.5576493628" lon="31.2626078725"><ele>242.87</ele><time>2026-09-02T22:34:41Z</time></trkpt><trkpt lat="59.5576474350" lon="31.2625866663"><ele>242.87</ele><time>2026-09-02T22:34:42Z</time></trkpt><trkpt lat="59.5576494467" lon="31.2625790387"><ele>242.87</ele><time>2026-09-02T22:34:43Z</time></trkpt><trkpt lat="59.5576493628" lon="31.2625740934"><ele>242.87</ele><time>2026-09-02T22:34:44Z</time></trkpt><trkpt lat="59.5576496981" lon="31.2625658792"><ele>242.87</ele><time>2026-09-02T22:34:45Z</time></trkpt><trkpt lat="59.5576532185" lon="31.2625570782"><ele>242.87</ele><time>2026-09-02T22:34:46Z</time></trkpt><trkpt lat="59.5576561522" lon="31.2625483610"><ele>242.87</ele><time>2026-09-02T22:34:47Z</time></trkpt><trkpt lat="59.5576605946" lon="31.2625344470"><ele>242.87</ele><time>2026-09-02T22:34:48Z</time></trkpt><trkpt lat="59.5576634444" lon="31.2625222933"><ele>242.87</ele><time>2026-09-02T22:34:49Z</time></trkpt><trkpt lat="59.5576662943" lon="31.2625130732"><ele>242.87</ele><time>2026-09-02T22:34:50Z</time></trkpt><trkpt lat="59.5576692279" lon="31.2624988239"><ele>242.87</ele><time>2026-09-02T22:34:51Z</time></trkpt><trkpt lat="59.5576736704" lon="31.2624849938"><ele>242.87</ele><time>2026-09-02T22:34:52Z</time></trkpt><trkpt lat="59.5576770231" lon="31.2624706607"><ele>242.87</ele><time>2026-09-02T22:34:53Z</time></trkpt><trkpt lat="59.5576799568" lon="31.2624589261"><ele>242.87</ele><time>2026-09-02T22:34:54Z</time></trkpt><trkpt lat="59.5576880872" lon="31.2624426652"><ele>242.87</ele><time>2026-09-02T22:34:55Z</time></trkpt><trkpt lat="59.5576909371" lon="31.2624289189"><ele>242.87</ele><time>2026-09-02T22:34:56Z</time></trkpt><trkpt lat="59.5576941222" lon="31.2624178547"><ele>242.87</ele><time>2026-09-02T22:34:57Z</time></trkpt><trkpt lat="59.5576985646" lon="31.2624086346"><ele>242.87</ele><time>2026-09-02T22:34:58Z</time></trkpt><trkpt lat="59.5576996543" lon="31.2624071259"><ele>242.87</ele><time>2026-09-02T22:34:59Z</time></trkpt><trkpt lat="59.5577029232" lon="31.2624005880"><ele>242.87</ele><time>2026-09-02T22:35:00Z</time></trkpt><trkpt lat="59.5577099640" lon="31.2623977382"><ele>242.87</ele><time>2026-09-02T22:35:01Z</time></trkpt><trkpt lat="59.5577158313" lon="31.2623944692"><ele>242.87</ele><time>2026-09-02T22:35:02Z</time></trkpt><trkpt lat="59.5577197708" lon="31.2623904459"><ele>242.87</ele><time>2026-09-02T22:35:03Z</time></trkpt><trkpt lat="59.5577236265" lon="31.2623898592"><ele>243.35</ele><time>2026-09-02T22:35:04Z</time></trkpt><trkpt lat="59.5577264763" lon="31.2623895239"><ele>242.87</ele><time>2026-09-02T22:35:05Z</time></trkpt><trkpt lat="59.5577306673" lon="31.2623925414"><ele>242.87</ele><time>2026-09-02T22:35:06Z</time></trkpt><trkpt lat="59.5577321760" lon="31.2623890210"><ele>242.87</ele><time>2026-09-02T22:35:07Z</time></trkpt><trkpt lat="59.5577341877" lon="31.2623914517"><ele>242.87</ele><time>2026-09-02T22:35:08Z</time></trkpt><trkpt lat="59.5577376243" lon="31.2623909488"><ele>242.87</ele><time>2026-09-02T22:35:09Z</time></trkpt><trkpt lat="59.5577408932" lon="31.2623887695"><ele>242.87</ele><time>2026-09-02T22:35:10Z</time></trkpt><trkpt lat="59.5577439945" lon="31.2623883504"><ele>242.87</ele><time>2026-09-02T22:35:11Z</time></trkpt><trkpt lat="59.5577467605" lon="31.2623844948"><ele>242.87</ele><time>2026-09-02T22:35:12Z</time></trkpt><trkpt lat="59.5577494428" lon="31.2623813935"><ele>242.87</ele><time>2026-09-02T22:35:13Z</time></trkpt><trkpt lat="59.5577513706" lon="31.2623798847"><ele>242.87</ele><time>2026-09-02T22:35:14Z</time></trkpt><trkpt lat="59.5577510353" lon="31.2623779569"><ele>242.87</ele><time>2026-09-02T22:35:15Z</time></trkpt><trkpt lat="59.5577536337" lon="31.2623774540"><ele>242.87</ele><time>2026-09-02T22:35:16Z</time></trkpt><trkpt lat="59.5577546395" lon="31.2623770349"><ele>242.87</ele><time>2026-09-02T22:35:17Z</time></trkpt><trkpt lat="59.5577593334" lon="31.2623810582"><ele>242.87</ele><time>2026-09-02T22:35:18Z</time></trkpt><trkpt lat="59.5577643625" lon="31.2623838242"><ele>242.87</ele><time>2026-09-02T22:35:19Z</time></trkpt><trkpt lat="59.5577716548" lon="31.2623892725"><ele>242.87</ele><time>2026-09-02T22:35:20Z</time></trkpt><trkpt lat="59.5577788632" lon="31.2623947207"><ele>242.87</ele><time>2026-09-02T22:35:21Z</time></trkpt><trkpt lat="59.5577861555" lon="31.2623996660"><ele>242.87</ele><time>2026-09-02T22:35:22Z</time></trkpt><trkpt lat="59.5577925257" lon="31.2624050304"><ele>242.87</ele><time>2026-09-02T22:35:23Z</time></trkpt><trkpt lat="59.5577992313" lon="31.2624087185"><ele>242.87</ele><time>2026-09-02T22:35:24Z</time></trkpt><trkpt lat="59.5578051824" lon="31.2624106463"><ele>242.87</ele><time>2026-09-02T22:35:25Z</time></trkpt><trkpt lat="59.5578123908" lon="31.2624096405"><ele>242.87</ele><time>2026-09-02T22:35:26Z</time></trkpt><trkpt lat="59.5578190964" lon="31.2624082994"><ele>242.87</ele><time>2026-09-02T22:35:27Z</time></trkpt><trkpt lat="59.5578186773" lon="31.2624096405"><ele>242.87</ele><time>2026-09-02T22:35:28Z</time></trkpt><trkpt lat="59.5578242932" lon="31.2624102272"><ele>242.87</ele><time>2026-09-02T22:35:29Z</time></trkpt><trkpt lat="59.5578330941" lon="31.2624148373"><ele>242.87</ele><time>2026-09-02T22:35:30Z</time></trkpt><trkpt lat="59.5578399673" lon="31.2624167651"><ele>242.87</ele><time>2026-09-02T22:35:31Z</time></trkpt><trkpt lat="59.5578467567" lon="31.2624177709"><ele>242.87</ele><time>2026-09-02T22:35:32Z</time></trkpt><trkpt lat="59.5578558929" lon="31.2624172680"><ele>242.87</ele><time>2026-09-02T22:35:33Z</time></trkpt><trkpt lat="59.5578631852" lon="31.2624176871"><ele>242.87</ele><time>2026-09-02T22:35:34Z</time></trkpt><trkpt lat="59.5578699745" lon="31.2624168489"><ele>242.87</ele><time>2026-09-02T22:35:35Z</time></trkpt><trkpt lat="59.5578770991" lon="31.2624141667"><ele>242.87</ele><time>2026-09-02T22:35:36Z</time></trkpt><trkpt lat="59.5578842238" lon="31.2624102272"><ele>242.87</ele><time>2026-09-02T22:35:37Z</time></trkpt><trkpt lat="59.5578927733" lon="31.2624039408"><ele>242.87</ele><time>2026-09-02T22:35:38Z</time></trkpt><trkpt lat="59.5579034183" lon="31.2623946369"><ele>242.87</ele><time>2026-09-02T22:35:39Z</time></trkpt><trkpt lat="59.5579144824" lon="31.2623846624"><ele>242.87</ele><time>2026-09-02T22:35:40Z</time></trkpt><trkpt lat="59.5579239540" lon="31.2623754423"><ele>242.87</ele><time>2026-09-02T22:35:41Z</time></trkpt><trkpt lat="59.5579312462" lon="31.2623674795"><ele>242.87</ele><time>2026-09-02T22:35:42Z</time></trkpt><trkpt lat="59.5579315815" lon="31.2623650488"><ele>242.87</ele><time>2026-09-02T22:35:43Z</time></trkpt><trkpt lat="59.5579326712" lon="31.2623551581"><ele>242.87</ele><time>2026-09-02T22:35:44Z</time></trkpt><trkpt lat="59.5579331741" lon="31.2623462733"><ele>242.87</ele><time>2026-09-02T22:35:45Z</time></trkpt><trkpt lat="59.5579324197" lon="31.2623504642"><ele>242.87</ele><time>2026-09-02T22:35:46Z</time></trkpt><trkpt lat="59.5579319168" lon="31.2623416632"><ele>242.87</ele><time>2026-09-02T22:35:47Z</time></trkpt><trkpt lat="59.5579334255" lon="31.2623273302"><ele>242.87</ele><time>2026-09-02T22:35:48Z</time></trkpt><trkpt lat="59.5579370297" lon="31.2623132486"><ele>242.87</ele><time>2026-09-02T22:35:49Z</time></trkpt><trkpt lat="59.5579401311" lon="31.2622997537"><ele>242.87</ele><time>2026-09-02T22:35:50Z</time></trkpt><trkpt lat="59.5579452440" lon="31.2622865941"><ele>242.87</ele><time>2026-09-02T22:35:51Z</time></trkpt><trkpt lat="59.5579496864" lon="31.2622740213"><ele>242.87</ele><time>2026-09-02T22:35:52Z</time></trkpt><trkpt lat="59.5579537936" lon="31.2622619513"><ele>242.87</ele><time>2026-09-02T22:35:53Z</time></trkpt><trkpt lat="59.5579588227" lon="31.2622504681"><ele>242.87</ele><time>2026-09-02T22:35:54Z</time></trkpt><trkpt lat="59.5579641871" lon="31.2622360513"><ele>242.87</ele><time>2026-09-02T22:35:55Z</time></trkpt><trkpt lat="59.5579699706" lon="31.2622226402"><ele>242.87</ele><time>2026-09-02T22:35:56Z</time></trkpt><trkpt lat="59.5579746645" lon="31.2622117437"><ele>242.87</ele><time>2026-09-02T22:35:57Z</time></trkpt><trkpt lat="59.5579803642" lon="31.2622058764"><ele>242.87</ele><time>2026-09-02T22:35:58Z</time></trkpt><trkpt lat="59.5579813700" lon="31.2622065470"><ele>243.35</ele><time>2026-09-02T22:35:59Z</time></trkpt><trkpt lat="59.5579795260" lon="31.2622042838"><ele>243.35</ele><time>2026-09-02T22:36:00Z</time></trkpt><trkpt lat="59.5579828788" lon="31.2622020207"><ele>243.35</ele><time>2026-09-02T22:36:01Z</time></trkpt><trkpt lat="59.5579862315" lon="31.2621995900"><ele>243.35</ele><time>2026-09-02T22:36:02Z</time></trkpt><trkpt lat="59.5579896681" lon="31.2621952314"><ele>243.35</ele><time>2026-09-02T22:36:03Z</time></trkpt><trkpt lat="59.5579938591" lon="31.2621915434"><ele>243.35</ele><time>2026-09-02T22:36:04Z</time></trkpt><trkpt lat="59.5579916798" lon="31.2621940579"><ele>243.35</ele><time>2026-09-02T22:36:05Z</time></trkpt><trkpt lat="59.5579937752" lon="31.2621917948"><ele>243.35</ele><time>2026-09-02T22:36:06Z</time></trkpt><trkpt lat="59.5579932723" lon="31.2621854246"><ele>243.35</ele><time>2026-09-02T22:36:07Z</time></trkpt><trkpt lat="59.5579933561" lon="31.2621852569"><ele>243.35</ele><time>2026-09-02T22:36:08Z</time></trkpt><trkpt lat="59.5579953678" lon="31.2621851731"><ele>243.35</ele><time>2026-09-02T22:36:09Z</time></trkpt><trkpt lat="59.5579947811" lon="31.2621846702"><ele>243.35</ele><time>2026-09-02T22:36:10Z</time></trkpt><trkpt lat="59.5579952840" lon="31.2621849217"><ele>243.35</ele><time>2026-09-02T22:36:11Z</time></trkpt><trkpt lat="59.5579953678" lon="31.2621851731"><ele>243.35</ele><time>2026-09-02T22:36:12Z</time></trkpt><trkpt lat="59.5579955354" lon="31.2621849217"><ele>243.35</ele><time>2026-09-02T22:36:13Z</time></trkpt><trkpt lat="59.5579965413" lon="31.2621860951"><ele>243.35</ele><time>2026-09-02T22:36:14Z</time></trkpt><trkpt lat="59.5579971280" lon="31.2621880230"><ele>243.35</ele><time>2026-09-02T22:36:15Z</time></trkpt><trkpt lat="59.5579987206" lon="31.2621893641"><ele>243.35</ele><time>2026-09-02T22:36:16Z</time></trkpt><trkpt lat="59.5580005646" lon="31.2621908728"><ele>243.35</ele><time>2026-09-02T22:36:17Z</time></trkpt><trkpt lat="59.5579991397" lon="31.2621900346"><ele>243.35</ele><time>2026-09-02T22:36:18Z</time></trkpt><trkpt lat="59.5580006484" lon="31.2621906213"><ele>243.35</ele><time>2026-09-02T22:36:19Z</time></trkpt><trkpt lat="59.5580010675" lon="31.2621906213"><ele>243.35</ele><time>2026-09-02T22:36:20Z</time></trkpt><trkpt lat="59.5580025762" lon="31.2621906213"><ele>243.35</ele><time>2026-09-02T22:36:21Z</time></trkpt><trkpt lat="59.5580028277" lon="31.2621909566"><ele>243.35</ele><time>2026-09-02T22:36:22Z</time></trkpt><trkpt lat="59.5580034982" lon="31.2621920463"><ele>243.35</ele><time>2026-09-02T22:36:23Z</time></trkpt><trkpt lat="59.5580041688" lon="31.2621932197"><ele>243.35</ele><time>2026-09-02T22:36:24Z</time></trkpt><trkpt lat="59.5580048393" lon="31.2621941417"><ele>243.35</ele><time>2026-09-02T22:36:25Z</time></trkpt><trkpt lat="59.5580049232" lon="31.2621957343"><ele>243.35</ele><time>2026-09-02T22:36:26Z</time></trkpt><trkpt lat="59.5580061805" lon="31.2621962372"><ele>243.35</ele><time>2026-09-02T22:36:27Z</time></trkpt><trkpt lat="59.5580072701" lon="31.2621957343"><ele>243.35</ele><time>2026-09-02T22:36:28Z</time></trkpt><trkpt lat="59.5580100361" lon="31.2621925492"><ele>243.35</ele><time>2026-09-02T22:36:29Z</time></trkpt><trkpt lat="59.5580112934" lon="31.2621902861"><ele>243.35</ele><time>2026-09-02T22:36:30Z</time></trkpt><trkpt lat="59.5580115449" lon="31.2621904537"><ele>243.35</ele><time>2026-09-02T22:36:31Z</time></trkpt><trkpt lat="59.5580123831" lon="31.2621886935"><ele>243.35</ele><time>2026-09-02T22:36:32Z</time></trkpt><trkpt lat="59.5580118801" lon="31.2621885259"><ele>243.35</ele><time>2026-09-02T22:36:33Z</time></trkpt><trkpt lat="59.5580121316" lon="31.2621896993"><ele>243.35</ele><time>2026-09-02T22:36:34Z</time></trkpt><trkpt lat="59.5580114610" lon="31.2621885259"><ele>243.35</ele><time>2026-09-02T22:36:35Z</time></trkpt><trkpt lat="59.5580124669" lon="31.2621897832"><ele>243.35</ele><time>2026-09-02T22:36:36Z</time></trkpt><trkpt lat="59.5580114610" lon="31.2621899508"><ele>243.35</ele><time>2026-09-02T22:36:37Z</time></trkpt><trkpt lat="59.5580130536" lon="31.2621897832"><ele>243.35</ele><time>2026-09-02T22:36:38Z</time></trkpt><trkpt lat="59.5580121316" lon="31.2621906213"><ele>243.35</ele><time>2026-09-02T22:36:39Z</time></trkpt><trkpt lat="59.5580128860" lon="31.2621910404"><ele>243.35</ele><time>2026-09-02T22:36:40Z</time></trkpt><trkpt lat="59.5580127183" lon="31.2621921301"><ele>243.35</ele><time>2026-09-02T22:36:41Z</time></trkpt><trkpt lat="59.5580128860" lon="31.2621919625"><ele>243.35</ele><time>2026-09-02T22:36:42Z</time></trkpt><trkpt lat="59.5580132212" lon="31.2621919625"><ele>243.35</ele><time>2026-09-02T22:36:43Z</time></trkpt><trkpt lat="59.5580150653" lon="31.2621899508"><ele>243.35</ele><time>2026-09-02T22:36:44Z</time></trkpt><trkpt lat="59.5580155682" lon="31.2621884421"><ele>243.35</ele><time>2026-09-02T22:36:45Z</time></trkpt><trkpt lat="59.5580179989" lon="31.2621867657"><ele>243.35</ele><time>2026-09-02T22:36:46Z</time></trkpt><trkpt lat="59.5580179989" lon="31.2621851731"><ele>243.35</ele><time>2026-09-02T22:36:47Z</time></trkpt><trkpt lat="59.5580185857" lon="31.2621831615"><ele>243.35</ele><time>2026-09-02T22:36:48Z</time></trkpt><trkpt lat="59.5580184180" lon="31.2621828262"><ele>243.35</ele><time>2026-09-02T22:36:49Z</time></trkpt><trkpt lat="59.5580192562" lon="31.2621812336"><ele>243.35</ele><time>2026-09-02T22:36:50Z</time></trkpt><trkpt lat="59.5580186695" lon="31.2621799763"><ele>243.35</ele><time>2026-09-02T22:36:51Z</time></trkpt><trkpt lat="59.5580196753" lon="31.2621803954"><ele>243.35</ele><time>2026-09-02T22:36:52Z</time></trkpt><trkpt lat="59.5580192562" lon="31.2621803954"><ele>243.35</ele><time>2026-09-02T22:36:53Z</time></trkpt><trkpt lat="59.5580197591" lon="31.2621823233"><ele>243.35</ele><time>2026-09-02T22:36:54Z</time></trkpt><trkpt lat="59.5580196753" lon="31.2621815689"><ele>243.35</ele><time>2026-09-02T22:36:55Z</time></trkpt><trkpt lat="59.5580204297" lon="31.2621816527"><ele>243.35</ele><time>2026-09-02T22:36:56Z</time></trkpt><trkpt lat="59.5580207650" lon="31.2621813174"><ele>243.35</ele><time>2026-09-02T22:36:57Z</time></trkpt><trkpt lat="59.5580213517" lon="31.2621821556"><ele>243.35</ele><time>2026-09-02T22:36:58Z</time></trkpt><trkpt lat="59.5580211841" lon="31.2621812336"><ele>243.35</ele><time>2026-09-02T22:36:59Z</time></trkpt><trkpt lat="59.5580216870" lon="31.2621806469"><ele>243.35</ele><time>2026-09-02T22:37:00Z</time></trkpt><trkpt lat="59.5580218546" lon="31.2621818203"><ele>243.35</ele><time>2026-09-02T22:37:01Z</time></trkpt><trkpt lat="59.5580217708" lon="31.2621822394"><ele>243.35</ele><time>2026-09-02T22:37:02Z</time></trkpt><trkpt lat="59.5580211841" lon="31.2621829938"><ele>243.35</ele><time>2026-09-02T22:37:03Z</time></trkpt><trkpt lat="59.5580213517" lon="31.2621826585"><ele>243.35</ele><time>2026-09-02T22:37:04Z</time></trkpt><trkpt lat="59.5580217708" lon="31.2621812336"><ele>243.35</ele><time>2026-09-02T22:37:05Z</time></trkpt><trkpt lat="59.5580234472" lon="31.2621804792"><ele>243.35</ele><time>2026-09-02T22:37:06Z</time></trkpt><trkpt lat="59.5580236986" lon="31.2621802278"><ele>243.35</ele><time>2026-09-02T22:37:07Z</time></trkpt><trkpt lat="59.5580242854" lon="31.2621800601"><ele>243.35</ele><time>2026-09-02T22:37:08Z</time></trkpt><trkpt lat="59.5580242854" lon="31.2621808983"><ele>243.35</ele><time>2026-09-02T22:37:09Z</time></trkpt><trkpt lat="59.5580240339" lon="31.2621797249"><ele>243.35</ele><time>2026-09-02T22:37:10Z</time></trkpt><trkpt lat="59.5580248721" lon="31.2621798925"><ele>243.35</ele><time>2026-09-02T22:37:11Z</time></trkpt><trkpt lat="59.5580241177" lon="31.2621812336"><ele>243.35</ele><time>2026-09-02T22:37:12Z</time></trkpt><trkpt lat="59.5580238663" lon="31.2621822394"><ele>243.35</ele><time>2026-09-02T22:37:13Z</time></trkpt><trkpt lat="59.5580235310" lon="31.2621787190"><ele>243.35</ele><time>2026-09-02T22:37:14Z</time></trkpt><trkpt lat="59.5580239501" lon="31.2621758692"><ele>243.35</ele><time>2026-09-02T22:37:15Z</time></trkpt><trkpt lat="59.5580241177" lon="31.2621764559"><ele>243.35</ele><time>2026-09-02T22:37:16Z</time></trkpt><trkpt lat="59.5580239501" lon="31.2621770427"><ele>243.35</ele><time>2026-09-02T22:37:17Z</time></trkpt><trkpt lat="59.5580237824" lon="31.2621779647"><ele>243.35</ele><time>2026-09-02T22:37:18Z</time></trkpt><trkpt lat="59.5580234472" lon="31.2621786352"><ele>243.35</ele><time>2026-09-02T22:37:19Z</time></trkpt><trkpt lat="59.5580223575" lon="31.2621769588"><ele>243.35</ele><time>2026-09-02T22:37:20Z</time></trkpt><trkpt lat="59.5580220222" lon="31.2621749472"><ele>243.35</ele><time>2026-09-02T22:37:21Z</time></trkpt><trkpt lat="59.5580222737" lon="31.2621724326"><ele>243.35</ele><time>2026-09-02T22:37:22Z</time></trkpt><trkpt lat="59.5580217708" lon="31.2621690799"><ele>243.35</ele><time>2026-09-02T22:37:23Z</time></trkpt><trkpt lat="59.5580202620" lon="31.2621656433"><ele>243.35</ele><time>2026-09-02T22:37:24Z</time></trkpt><trkpt lat="59.5580214355" lon="31.2621661462"><ele>243.35</ele><time>2026-09-02T22:37:25Z</time></trkpt><trkpt lat="59.5580208488" lon="31.2621640507"><ele>243.35</ele><time>2026-09-02T22:37:26Z</time></trkpt><trkpt lat="59.5580207650" lon="31.2621627934"><ele>243.35</ele><time>2026-09-02T22:37:27Z</time></trkpt><trkpt lat="59.5580202620" lon="31.2621611170"><ele>243.35</ele><time>2026-09-02T22:37:28Z</time></trkpt><trkpt lat="59.5580199268" lon="31.2621606980"><ele>243.35</ele><time>2026-09-02T22:37:29Z</time></trkpt><trkpt lat="59.5580203459" lon="31.2621609494"><ele>243.35</ele><time>2026-09-02T22:37:30Z</time></trkpt><trkpt lat="59.5580200944" lon="31.2621608656"><ele>243.35</ele><time>2026-09-02T22:37:31Z</time></trkpt><trkpt lat="59.5580199268" lon="31.2621604465"><ele>243.35</ele><time>2026-09-02T22:37:32Z</time></trkpt><trkpt lat="59.5580193400" lon="31.2621623743"><ele>243.35</ele><time>2026-09-02T22:37:33Z</time></trkpt><trkpt lat="59.5580193400" lon="31.2621602789"><ele>243.35</ele><time>2026-09-02T22:37:34Z</time></trkpt><trkpt lat="59.5580206811" lon="31.2621571776"><ele>243.35</ele><time>2026-09-02T22:37:35Z</time></trkpt><trkpt lat="59.5580196753" lon="31.2621597759"><ele>243.35</ele><time>2026-09-02T22:37:36Z</time></trkpt><trkpt lat="59.5580210164" lon="31.2621566746"><ele>243.35</ele><time>2026-09-02T22:37:37Z</time></trkpt><trkpt lat="59.5580218546" lon="31.2621551659"><ele>243.35</ele><time>2026-09-02T22:37:38Z</time></trkpt><trkpt lat="59.5580218546" lon="31.2621547468"><ele>243.35</ele><time>2026-09-02T22:37:39Z</time></trkpt><trkpt lat="59.5580218546" lon="31.2621552497"><ele>243.35</ele><time>2026-09-02T22:37:40Z</time></trkpt><trkpt lat="59.5580221899" lon="31.2621552497"><ele>243.35</ele><time>2026-09-02T22:37:41Z</time></trkpt><trkpt lat="59.5580222737" lon="31.2621558364"><ele>243.35</ele><time>2026-09-02T22:37:42Z</time></trkpt><trkpt lat="59.5580243692" lon="31.2621535733"><ele>243.35</ele><time>2026-09-02T22:37:43Z</time></trkpt><trkpt lat="59.5580278896" lon="31.2621448562"><ele>243.35</ele><time>2026-09-02T22:37:44Z</time></trkpt><trkpt lat="59.5580300689" lon="31.2621383183"><ele>243.35</ele><time>2026-09-02T22:37:45Z</time></trkpt><trkpt lat="59.5580329187" lon="31.2621289305"><ele>243.35</ele><time>2026-09-02T22:37:46Z</time></trkpt><trkpt lat="59.5580360200" lon="31.2621163577"><ele>243.35</ele><time>2026-09-02T22:37:47Z</time></trkpt><trkpt lat="59.5580371935" lon="31.2621000968"><ele>243.35</ele><time>2026-09-02T22:37:48Z</time></trkpt><trkpt lat="59.5580387861" lon="31.2620862667"><ele>243.35</ele><time>2026-09-02T22:37:49Z</time></trkpt><trkpt lat="59.5580412168" lon="31.2620718498"><ele>243.35</ele><time>2026-09-02T22:37:50Z</time></trkpt><trkpt lat="59.5580459945" lon="31.2620592769"><ele>243.35</ele><time>2026-09-02T22:37:51Z</time></trkpt><trkpt lat="59.5580513589" lon="31.2620474584"><ele>243.35</ele><time>2026-09-02T22:37:52Z</time></trkpt><trkpt lat="59.5580562204" lon="31.2620372325"><ele>243.35</ele><time>2026-09-02T22:37:53Z</time></trkpt><trkpt lat="59.5580613334" lon="31.2620261684"><ele>243.35</ele><time>2026-09-02T22:37:54Z</time></trkpt><trkpt lat="59.5580693800" lon="31.2620103266"><ele>243.35</ele><time>2026-09-02T22:37:55Z</time></trkpt><trkpt lat="59.5580777619" lon="31.2619980890"><ele>243.35</ele><time>2026-09-02T22:37:56Z</time></trkpt><trkpt lat="59.5580850542" lon="31.2619813252"><ele>243.35</ele><time>2026-09-02T22:37:57Z</time></trkpt><trkpt lat="59.5580896642" lon="31.2619595323"><ele>243.35</ele><time>2026-09-02T22:37:58Z</time></trkpt><trkpt lat="59.5580961183" lon="31.2619420979"><ele>243.35</ele><time>2026-09-02T22:37:59Z</time></trkpt><trkpt lat="59.5581013989" lon="31.2619273458"><ele>243.35</ele><time>2026-09-02T22:38:00Z</time></trkpt><trkpt lat="59.5581089426" lon="31.2619181257"><ele>243.35</ele><time>2026-09-02T22:38:01Z</time></trkpt><trkpt lat="59.5581128821" lon="31.2619119231"><ele>243.35</ele><time>2026-09-02T22:38:02Z</time></trkpt><trkpt lat="59.5581171568" lon="31.2619026192"><ele>243.35</ele><time>2026-09-02T22:38:03Z</time></trkpt><trkpt lat="59.5581180789" lon="31.2618940696"><ele>243.35</ele><time>2026-09-02T22:38:04Z</time></trkpt><trkpt lat="59.5581212640" lon="31.2618883699"><ele>243.35</ele><time>2026-09-02T22:38:05Z</time></trkpt><trkpt lat="59.5581252873" lon="31.2618790660"><ele>243.35</ele><time>2026-09-02T22:38:06Z</time></trkpt><trkpt lat="59.5581303164" lon="31.2618696783"><ele>243.83</ele><time>2026-09-02T22:38:07Z</time></trkpt><trkpt lat="59.5581363514" lon="31.2618551776"><ele>243.83</ele><time>2026-09-02T22:38:08Z</time></trkpt><trkpt lat="59.5581381954" lon="31.2618427724"><ele>243.35</ele><time>2026-09-02T22:38:09Z</time></trkpt><trkpt lat="59.5581426378" lon="31.2618221529"><ele>243.35</ele><time>2026-09-02T22:38:10Z</time></trkpt><trkpt lat="59.5581460744" lon="31.2618067302"><ele>243.35</ele><time>2026-09-02T22:38:11Z</time></trkpt><trkpt lat="59.5581478346" lon="31.2617993541"><ele>243.35</ele><time>2026-09-02T22:38:12Z</time></trkpt><trkpt lat="59.5581485890" lon="31.2617874518"><ele>243.35</ele><time>2026-09-02T22:38:13Z</time></trkpt><trkpt lat="59.5581526961" lon="31.2617750466"><ele>243.35</ele><time>2026-09-02T22:38:14Z</time></trkpt><trkpt lat="59.5581570547" lon="31.2617576960"><ele>243.35</ele><time>2026-09-02T22:38:15Z</time></trkpt><trkpt lat="59.5581606589" lon="31.2617391720"><ele>243.35</ele><time>2026-09-02T22:38:16Z</time></trkpt><trkpt lat="59.5581653528" lon="31.2617239170"><ele>243.35</ele><time>2026-09-02T22:38:17Z</time></trkpt><trkpt lat="59.5581709687" lon="31.2617102545"><ele>243.35</ele><time>2026-09-02T22:38:18Z</time></trkpt><trkpt lat="59.5581774227" lon="31.2617016211"><ele>243.35</ele><time>2026-09-02T22:38:19Z</time></trkpt><trkpt lat="59.5581838768" lon="31.2616915628"><ele>243.35</ele><time>2026-09-02T22:38:20Z</time></trkpt><trkpt lat="59.5581875648" lon="31.2616806664"><ele>243.35</ele><time>2026-09-02T22:38:21Z</time></trkpt><trkpt lat="59.5581890736" lon="31.2616667524"><ele>243.35</ele><time>2026-09-02T22:38:22Z</time></trkpt><trkpt lat="59.5581910852" lon="31.2616539281"><ele>243.35</ele><time>2026-09-02T22:38:23Z</time></trkpt><trkpt lat="59.5581914205" lon="31.2616416905"><ele>243.83</ele><time>2026-09-02T22:38:24Z</time></trkpt><trkpt lat="59.5581939351" lon="31.2616347335"><ele>243.83</ele><time>2026-09-02T22:38:25Z</time></trkpt><trkpt lat="59.5581963658" lon="31.2616259325"><ele>243.83</ele><time>2026-09-02T22:38:26Z</time></trkpt><trkpt lat="59.5581995510" lon="31.2616167963"><ele>243.83</ele><time>2026-09-02T22:38:27Z</time></trkpt><trkpt lat="59.5582021493" lon="31.2616060674"><ele>243.83</ele><time>2026-09-02T22:38:28Z</time></trkpt><trkpt lat="59.5582050830" lon="31.2615888845"><ele>243.83</ele><time>2026-09-02T22:38:29Z</time></trkpt><trkpt lat="59.5582112856" lon="31.2615738809"><ele>243.83</ele><time>2026-09-02T22:38:30Z</time></trkpt><trkpt lat="59.5582193322" lon="31.2615673430"><ele>243.83</ele><time>2026-09-02T22:38:31Z</time></trkpt><trkpt lat="59.5582256187" lon="31.2615584582"><ele>243.83</ele><time>2026-09-02T22:38:32Z</time></trkpt><trkpt lat="59.5582310669" lon="31.2615543511"><ele>243.83</ele><time>2026-09-02T22:38:33Z</time></trkpt><trkpt lat="59.5582368504" lon="31.2615491543"><ele>243.83</ele><time>2026-09-02T22:38:34Z</time></trkpt><trkpt lat="59.5582438912" lon="31.2615454663"><ele>243.83</ele><time>2026-09-02T22:38:35Z</time></trkpt><trkpt lat="59.5582508482" lon="31.2615453824"><ele>243.83</ele><time>2026-09-02T22:38:36Z</time></trkpt><trkpt lat="59.5582572185" lon="31.2615403533"><ele>243.83</ele><time>2026-09-02T22:38:37Z</time></trkpt><trkpt lat="59.5582638402" lon="31.2615344860"><ele>243.83</ele><time>2026-09-02T22:38:38Z</time></trkpt><trkpt lat="59.5582702942" lon="31.2615289539"><ele>243.83</ele><time>2026-09-02T22:38:39Z</time></trkpt><trkpt lat="59.5582771674" lon="31.2615225837"><ele>243.83</ele><time>2026-09-02T22:38:40Z</time></trkpt><trkpt lat="59.5582845435" lon="31.2615180574"><ele>243.83</ele><time>2026-09-02T22:38:41Z</time></trkpt><trkpt lat="59.5582888182" lon="31.2615097594"><ele>243.83</ele><time>2026-09-02T22:38:42Z</time></trkpt><trkpt lat="59.5582944341" lon="31.2614993658"><ele>243.83</ele><time>2026-09-02T22:38:43Z</time></trkpt><trkpt lat="59.5582999662" lon="31.2614907324"><ele>243.83</ele><time>2026-09-02T22:38:44Z</time></trkpt><trkpt lat="59.5583081804" lon="31.2614813447"><ele>243.83</ele><time>2026-09-02T22:38:45Z</time></trkpt><trkpt lat="59.5583134610" lon="31.2614690233"><ele>243.83</ele><time>2026-09-02T22:38:46Z</time></trkpt><trkpt lat="59.5583190769" lon="31.2614564504"><ele>243.83</ele><time>2026-09-02T22:38:47Z</time></trkpt><trkpt lat="59.5583249442" lon="31.2614413630"><ele>243.83</ele><time>2026-09-02T22:38:48Z</time></trkpt><trkpt lat="59.5583301410" lon="31.2614264432"><ele>243.83</ele><time>2026-09-02T22:38:49Z</time></trkpt><trkpt lat="59.5583357569" lon="31.2614125293"><ele>243.83</ele><time>2026-09-02T22:38:50Z</time></trkpt><trkpt lat="59.5583398640" lon="31.2614011299"><ele>243.83</ele><time>2026-09-02T22:38:51Z</time></trkpt><trkpt lat="59.5583461504" lon="31.2613884732"><ele>244.31</ele><time>2026-09-02T22:38:52Z</time></trkpt><trkpt lat="59.5583530236" lon="31.2613744754"><ele>244.31</ele><time>2026-09-02T22:38:53Z</time></trkpt><trkpt lat="59.5583605673" lon="31.2613610644"><ele>244.31</ele><time>2026-09-02T22:38:54Z</time></trkpt><trkpt lat="59.5583648421" lon="31.2613533530"><ele>244.31</ele><time>2026-09-02T22:38:55Z</time></trkpt><trkpt lat="59.5583724696" lon="31.2613394391"><ele>244.31</ele><time>2026-09-02T22:38:56Z</time></trkpt><trkpt lat="59.5583788399" lon="31.2613296323"><ele>244.31</ele><time>2026-09-02T22:38:57Z</time></trkpt><trkpt lat="59.5583839528" lon="31.2613165565"><ele>244.31</ele><time>2026-09-02T22:38:58Z</time></trkpt><trkpt lat="59.5583858807" lon="31.2613048218"><ele>244.31</ele><time>2026-09-02T22:38:59Z</time></trkpt><trkpt lat="59.5583894849" lon="31.2613009661"><ele>244.31</ele><time>2026-09-02T22:39:00Z</time></trkpt><trkpt lat="59.5583943464" lon="31.2612949312"><ele>244.31</ele><time>2026-09-02T22:39:01Z</time></trkpt><trkpt lat="59.5583987888" lon="31.2612916622"><ele>244.31</ele><time>2026-09-02T22:39:02Z</time></trkpt><trkpt lat="59.5584010519" lon="31.2612889800"><ele>244.31</ele><time>2026-09-02T22:39:03Z</time></trkpt><trkpt lat="59.5584011357" lon="31.2612891477"><ele>244.31</ele><time>2026-09-02T22:39:04Z</time></trkpt><trkpt lat="59.5584027283" lon="31.2612874713"><ele>244.31</ele><time>2026-09-02T22:39:05Z</time></trkpt><trkpt lat="59.5584036503" lon="31.2612871360"><ele>244.31</ele><time>2026-09-02T22:39:06Z</time></trkpt><trkpt lat="59.5584049914" lon="31.2612871360"><ele>244.31</ele><time>2026-09-02T22:39:07Z</time></trkpt><trkpt lat="59.5584069192" lon="31.2612871360"><ele>244.31</ele><time>2026-09-02T22:39:08Z</time></trkpt><trkpt lat="59.5584071707" lon="31.2612882257"><ele>244.31</ele><time>2026-09-02T22:39:09Z</time></trkpt><trkpt lat="59.5584093500" lon="31.2612859625"><ele>244.31</ele><time>2026-09-02T22:39:10Z</time></trkpt><trkpt lat="59.5584116969" lon="31.2612838671"><ele>244.31</ele><time>2026-09-02T22:39:11Z</time></trkpt><trkpt lat="59.5584138762" lon="31.2612806819"><ele>244.31</ele><time>2026-09-02T22:39:12Z</time></trkpt><trkpt lat="59.5584189892" lon="31.2612774968"><ele>244.31</ele><time>2026-09-02T22:39:13Z</time></trkpt><trkpt lat="59.5584239345" lon="31.2612646725"><ele>244.31</ele><time>2026-09-02T22:39:14Z</time></trkpt><trkpt lat="59.5584277902" lon="31.2612578832"><ele>244.31</ele><time>2026-09-02T22:39:15Z</time></trkpt><trkpt lat="59.5584326517" lon="31.2612476572"><ele>244.31</ele><time>2026-09-02T22:39:16Z</time></trkpt><trkpt lat="59.5584390219" lon="31.2612375990"><ele>244.31</ele><time>2026-09-02T22:39:17Z</time></trkpt><trkpt lat="59.5584452245" lon="31.2612271216"><ele>244.31</ele><time>2026-09-02T22:39:18Z</time></trkpt><trkpt lat="59.5584496669" lon="31.2612144649"><ele>244.31</ele><time>2026-09-02T22:39:19Z</time></trkpt><trkpt lat="59.5584558696" lon="31.2612021435"><ele>244.31</ele><time>2026-09-02T22:39:20Z</time></trkpt><trkpt lat="59.5584637485" lon="31.2611948512"><ele>244.31</ele><time>2026-09-02T22:39:21Z</time></trkpt><trkpt lat="59.5584730525" lon="31.2611850444"><ele>244.31</ele><time>2026-09-02T22:39:22Z</time></trkpt><trkpt lat="59.5584798418" lon="31.2611748185"><ele>243.83</ele><time>2026-09-02T22:39:23Z</time></trkpt><trkpt lat="59.5584860444" lon="31.2611609884"><ele>243.83</ele><time>2026-09-02T22:39:24Z</time></trkpt><trkpt lat="59.5584898163" lon="31.2611469906"><ele>243.83</ele><time>2026-09-02T22:39:25Z</time></trkpt><trkpt lat="59.5584924985" lon="31.2611391954"><ele>243.83</ele><time>2026-09-02T22:39:26Z</time></trkpt><trkpt lat="59.5584970247" lon="31.2611290533"><ele>243.83</ele><time>2026-09-02T22:39:27Z</time></trkpt><trkpt lat="59.5585038979" lon="31.2611123733"><ele>243.83</ele><time>2026-09-02T22:39:28Z</time></trkpt><trkpt lat="59.5585084241" lon="31.2611005548"><ele>243.83</ele><time>2026-09-02T22:39:29Z</time></trkpt><trkpt lat="59.5585139561" lon="31.2610892393"><ele>243.83</ele><time>2026-09-02T22:39:30Z</time></trkpt><trkpt lat="59.5585175604" lon="31.2610855512"><ele>243.35</ele><time>2026-09-02T22:39:31Z</time></trkpt><trkpt lat="59.5585200749" lon="31.2610792648"><ele>243.35</ele><time>2026-09-02T22:39:32Z</time></trkpt><trkpt lat="59.5585216675" lon="31.2610724755"><ele>243.35</ele><time>2026-09-02T22:39:33Z</time></trkpt><trkpt lat="59.5585222542" lon="31.2610746548"><ele>243.35</ele><time>2026-09-02T22:39:34Z</time></trkpt><trkpt lat="59.5585236792" lon="31.2610697933"><ele>243.35</ele><time>2026-09-02T22:39:35Z</time></trkpt><trkpt lat="59.5585242659" lon="31.2610687874"><ele>243.35</ele><time>2026-09-02T22:39:36Z</time></trkpt><trkpt lat="59.5585248526" lon="31.2610662729"><ele>243.35</ele><time>2026-09-02T22:39:37Z</time></trkpt><trkpt lat="59.5585254394" lon="31.2610653508"><ele>243.35</ele><time>2026-09-02T22:39:38Z</time></trkpt><trkpt lat="59.5585273672" lon="31.2610636745"><ele>243.35</ele><time>2026-09-02T22:39:39Z</time></trkpt><trkpt lat="59.5585276186" lon="31.2610620819"><ele>243.35</ele><time>2026-09-02T22:39:40Z</time></trkpt><trkpt lat="59.5585276186" lon="31.2610602379"><ele>243.35</ele><time>2026-09-02T22:39:41Z</time></trkpt><trkpt lat="59.5585277863" lon="31.2610563822"><ele>243.35</ele><time>2026-09-02T22:39:42Z</time></trkpt><trkpt lat="59.5585282892" lon="31.2610551249"><ele>243.35</ele><time>2026-09-02T22:39:43Z</time></trkpt><trkpt lat="59.5585277863" lon="31.2610550411"><ele>243.35</ele><time>2026-09-02T22:39:44Z</time></trkpt><trkpt lat="59.5585232601" lon="31.2610492576"><ele>243.35</ele><time>2026-09-02T22:39:45Z</time></trkpt><trkpt lat="59.5585194882" lon="31.2610486709"><ele>243.35</ele><time>2026-09-02T22:39:46Z</time></trkpt><trkpt lat="59.5585172251" lon="31.2610468268"><ele>243.35</ele><time>2026-09-02T22:39:47Z</time></trkpt><trkpt lat="59.5585120283" lon="31.2610408757"><ele>243.35</ele><time>2026-09-02T22:39:48Z</time></trkpt><trkpt lat="59.5585092623" lon="31.2610339187"><ele>243.35</ele><time>2026-09-02T22:39:49Z</time></trkpt><trkpt lat="59.5585045684" lon="31.2610192504"><ele>243.35</ele><time>2026-09-02T22:39:50Z</time></trkpt><trkpt lat="59.5585018862" lon="31.2610088568"><ele>243.35</ele><time>2026-09-02T22:39:51Z</time></trkpt><trkpt lat="59.5585014671" lon="31.2609967869"><ele>243.35</ele><time>2026-09-02T22:39:52Z</time></trkpt><trkpt lat="59.5585024729" lon="31.2609824538"><ele>243.35</ele><time>2026-09-02T22:39:53Z</time></trkpt><trkpt lat="59.5585021377" lon="31.2609702162"><ele>243.35</ele><time>2026-09-02T22:39:54Z</time></trkpt><trkpt lat="59.5585061610" lon="31.2609636784"><ele>243.35</ele><time>2026-09-02T22:39:55Z</time></trkpt><trkpt lat="59.5585097652" lon="31.2609569728"><ele>243.83</ele><time>2026-09-02T22:39:56Z</time></trkpt><trkpt lat="59.5585136209" lon="31.2609496806"><ele>243.83</ele><time>2026-09-02T22:39:57Z</time></trkpt><trkpt lat="59.5585180633" lon="31.2609412987"><ele>243.83</ele><time>2026-09-02T22:39:58Z</time></trkpt><trkpt lat="59.5585231762" lon="31.2609343417"><ele>243.83</ele><time>2026-09-02T22:39:59Z</time></trkpt><trkpt lat="59.5585299656" lon="31.2609286420"><ele>243.83</ele><time>2026-09-02T22:40:00Z</time></trkpt><trkpt lat="59.5585345756" lon="31.2609203439"><ele>243.83</ele><time>2026-09-02T22:40:01Z</time></trkpt><trkpt lat="59.5585389342" lon="31.2609121297"><ele>243.83</ele><time>2026-09-02T22:40:02Z</time></trkpt><trkpt lat="59.5585439634" lon="31.2609067652"><ele>243.83</ele><time>2026-09-02T22:40:03Z</time></trkpt><trkpt lat="59.5585508365" lon="31.2608992215"><ele>243.83</ele><time>2026-09-02T22:40:04Z</time></trkpt><trkpt lat="59.5585570391" lon="31.2608936895"><ele>243.83</ele><time>2026-09-02T22:40:05Z</time></trkpt><trkpt lat="59.5585635770" lon="31.2608883251"><ele>243.83</ele><time>2026-09-02T22:40:06Z</time></trkpt><trkpt lat="59.5585687738" lon="31.2608812843"><ele>243.83</ele><time>2026-09-02T22:40:07Z</time></trkpt><trkpt lat="59.5585731324" lon="31.2608734891"><ele>243.83</ele><time>2026-09-02T22:40:08Z</time></trkpt><trkpt lat="59.5585815981" lon="31.2608642690"><ele>243.83</ele><time>2026-09-02T22:40:09Z</time></trkpt><trkpt lat="59.5585887227" lon="31.2608572282"><ele>243.83</ele><time>2026-09-02T22:40:10Z</time></trkpt><trkpt lat="59.5585968532" lon="31.2608456612"><ele>243.83</ele><time>2026-09-02T22:40:11Z</time></trkpt><trkpt lat="59.5586037263" lon="31.2608369440"><ele>243.83</ele><time>2026-09-02T22:40:12Z</time></trkpt><trkpt lat="59.5586104318" lon="31.2608295679"><ele>243.83</ele><time>2026-09-02T22:40:13Z</time></trkpt><trkpt lat="59.5586167183" lon="31.2608257961"><ele>243.83</ele><time>2026-09-02T22:40:14Z</time></trkpt><trkpt lat="59.5586244296" lon="31.2608199287"><ele>243.83</ele><time>2026-09-02T22:40:15Z</time></trkpt><trkpt lat="59.5586327277" lon="31.2608180847"><ele>244.31</ele><time>2026-09-02T22:40:16Z</time></trkpt><trkpt lat="59.5586392656" lon="31.2608167436"><ele>244.31</ele><time>2026-09-02T22:40:17Z</time></trkpt><trkpt lat="59.5586491562" lon="31.2608099543"><ele>244.31</ele><time>2026-09-02T22:40:18Z</time></trkpt><trkpt lat="59.5586587954" lon="31.2608036678"><ele>244.31</ele><time>2026-09-02T22:40:19Z</time></trkpt><trkpt lat="59.5586688537" lon="31.2607957888"><ele>244.31</ele><time>2026-09-02T22:40:20Z</time></trkpt><trkpt lat="59.5586774871" lon="31.2607914302"><ele>244.31</ele><time>2026-09-02T22:40:21Z</time></trkpt><trkpt lat="59.5586856175" lon="31.2607878260"><ele>243.83</ele><time>2026-09-02T22:40:22Z</time></trkpt><trkpt lat="59.5586921554" lon="31.2607811205"><ele>243.83</ele><time>2026-09-02T22:40:23Z</time></trkpt><trkpt lat="59.5586972684" lon="31.2607742473"><ele>243.83</ele><time>2026-09-02T22:40:24Z</time></trkpt><trkpt lat="59.5587015431" lon="31.2607642729"><ele>243.83</ele><time>2026-09-02T22:40:25Z</time></trkpt><trkpt lat="59.5587075781" lon="31.2607567292"><ele>243.83</ele><time>2026-09-02T22:40:26Z</time></trkpt><trkpt lat="59.5587125234" lon="31.2607530411"><ele>243.83</ele><time>2026-09-02T22:40:27Z</time></trkpt><trkpt lat="59.5587161276" lon="31.2607468385"><ele>243.83</ele><time>2026-09-02T22:40:28Z</time></trkpt><trkpt lat="59.5587220788" lon="31.2607389595"><ele>243.83</ele><time>2026-09-02T22:40:29Z</time></trkpt><trkpt lat="59.5587272756" lon="31.2607321702"><ele>243.83</ele><time>2026-09-02T22:40:30Z</time></trkpt><trkpt lat="59.5587312989" lon="31.2607211899"><ele>243.83</ele><time>2026-09-02T22:40:31Z</time></trkpt><trkpt lat="59.5587379206" lon="31.2607120536"><ele>243.83</ele><time>2026-09-02T22:40:32Z</time></trkpt><trkpt lat="59.5587422792" lon="31.2607125565"><ele>243.83</ele><time>2026-09-02T22:40:33Z</time></trkpt><trkpt lat="59.5587475598" lon="31.2607081980"><ele>243.83</ele><time>2026-09-02T22:40:34Z</time></trkpt><trkpt lat="59.5587504935" lon="31.2607040908"><ele>243.83</ele><time>2026-09-02T22:40:35Z</time></trkpt><trkpt lat="59.5587545168" lon="31.2607005704"><ele>243.83</ele><time>2026-09-02T22:40:36Z</time></trkpt><trkpt lat="59.5587592945" lon="31.2606955413"><ele>243.83</ele><time>2026-09-02T22:40:37Z</time></trkpt><trkpt lat="59.5587639883" lon="31.2606878299"><ele>243.83</ele><time>2026-09-02T22:40:38Z</time></trkpt><trkpt lat="59.5587679278" lon="31.2606788613"><ele>243.83</ele><time>2026-09-02T22:40:39Z</time></trkpt><trkpt lat="59.5587694366" lon="31.2606727425"><ele>243.83</ele><time>2026-09-02T22:40:40Z</time></trkpt><trkpt lat="59.5587696880" lon="31.2606662884"><ele>243.83</ele><time>2026-09-02T22:40:41Z</time></trkpt><trkpt lat="59.5587706938" lon="31.2606615946"><ele>243.83</ele><time>2026-09-02T22:40:42Z</time></trkpt><trkpt lat="59.5587707777" lon="31.2606631871"><ele>243.83</ele><time>2026-09-02T22:40:43Z</time></trkpt><trkpt lat="59.5587718673" lon="31.2606641930"><ele>243.83</ele><time>2026-09-02T22:40:44Z</time></trkpt><trkpt lat="59.5587717835" lon="31.2606667913"><ele>243.83</ele><time>2026-09-02T22:40:45Z</time></trkpt><trkpt lat="59.5587717835" lon="31.2606678810"><ele>243.83</ele><time>2026-09-02T22:40:46Z</time></trkpt><trkpt lat="59.5587726217" lon="31.2606675457"><ele>243.83</ele><time>2026-09-02T22:40:47Z</time></trkpt><trkpt lat="59.5587735437" lon="31.2606679648"><ele>243.83</ele><time>2026-09-02T22:40:48Z</time></trkpt><trkpt lat="59.5587743819" lon="31.2606691383"><ele>243.83</ele><time>2026-09-02T22:40:49Z</time></trkpt><trkpt lat="59.5587753877" lon="31.2606707308"><ele>243.83</ele><time>2026-09-02T22:40:50Z</time></trkpt><trkpt lat="59.5587771479" lon="31.2606731616"><ele>243.83</ele><time>2026-09-02T22:40:51Z</time></trkpt><trkpt lat="59.5587789919" lon="31.2606755923"><ele>243.83</ele><time>2026-09-02T22:40:52Z</time></trkpt><trkpt lat="59.5587803330" lon="31.2606759276"><ele>243.83</ele><time>2026-09-02T22:40:53Z</time></trkpt><trkpt lat="59.5587787405" lon="31.2606793642"><ele>243.83</ele><time>2026-09-02T22:40:54Z</time></trkpt><trkpt lat="59.5587787405" lon="31.2606784422"><ele>243.83</ele><time>2026-09-02T22:40:55Z</time></trkpt><trkpt lat="59.5587785728" lon="31.2606755923"><ele>243.83</ele><time>2026-09-02T22:40:56Z</time></trkpt><trkpt lat="59.5587785728" lon="31.2606753409"><ele>243.83</ele><time>2026-09-02T22:40:57Z</time></trkpt><trkpt lat="59.5587782376" lon="31.2606749218"><ele>243.83</ele><time>2026-09-02T22:40:58Z</time></trkpt><trkpt lat="59.5587791596" lon="31.2606734969"><ele>243.83</ele><time>2026-09-02T22:40:59Z</time></trkpt><trkpt lat="59.5587818418" lon="31.2606718205"><ele>243.83</ele><time>2026-09-02T22:41:00Z</time></trkpt><trkpt lat="59.5587836858" lon="31.2606705632"><ele>243.83</ele><time>2026-09-02T22:41:01Z</time></trkpt><trkpt lat="59.5587855298" lon="31.2606689706"><ele>243.83</ele><time>2026-09-02T22:41:02Z</time></trkpt><trkpt lat="59.5587839372" lon="31.2606705632"><ele>243.83</ele><time>2026-09-02T22:41:03Z</time></trkpt><trkpt lat="59.5587857813" lon="31.2606693897"><ele>243.83</ele><time>2026-09-02T22:41:04Z</time></trkpt><trkpt lat="59.5587870385" lon="31.2606689706"><ele>244.31</ele><time>2026-09-02T22:41:05Z</time></trkpt><trkpt lat="59.5587878767" lon="31.2606679648"><ele>244.31</ele><time>2026-09-02T22:41:06Z</time></trkpt><trkpt lat="59.5587878767" lon="31.2606665399"><ele>244.31</ele><time>2026-09-02T22:41:07Z</time></trkpt><trkpt lat="59.5587883797" lon="31.2606662884"><ele>244.31</ele><time>2026-09-02T22:41:08Z</time></trkpt><trkpt lat="59.5587885473" lon="31.2606650311"><ele>244.31</ele><time>2026-09-02T22:41:09Z</time></trkpt><trkpt lat="59.5587884635" lon="31.2606643606"><ele>244.31</ele><time>2026-09-02T22:41:10Z</time></trkpt><trkpt lat="59.5587884635" lon="31.2606630195"><ele>243.83</ele><time>2026-09-02T22:41:11Z</time></trkpt><trkpt lat="59.5587879606" lon="31.2606618460"><ele>243.83</ele><time>2026-09-02T22:41:12Z</time></trkpt><trkpt lat="59.5587881282" lon="31.2606600858"><ele>243.83</ele><time>2026-09-02T22:41:13Z</time></trkpt><trkpt lat="59.5587882958" lon="31.2606575713"><ele>243.83</ele><time>2026-09-02T22:41:14Z</time></trkpt><trkpt lat="59.5587877929" lon="31.2606549729"><ele>243.83</ele><time>2026-09-02T22:41:15Z</time></trkpt><trkpt lat="59.5587873738" lon="31.2606525421"><ele>243.83</ele><time>2026-09-02T22:41:16Z</time></trkpt><trkpt lat="59.5587873738" lon="31.2606492732"><ele>243.83</ele><time>2026-09-02T22:41:17Z</time></trkpt><trkpt lat="59.5587871224" lon="31.2606519554"><ele>243.83</ele><time>2026-09-02T22:41:18Z</time></trkpt><trkpt lat="59.5587872900" lon="31.2606491894"><ele>243.83</ele><time>2026-09-02T22:41:19Z</time></trkpt><trkpt lat="59.5587871224" lon="31.2606487703"><ele>243.83</ele><time>2026-09-02T22:41:20Z</time></trkpt><trkpt lat="59.5587876253" lon="31.2606482673"><ele>243.83</ele><time>2026-09-02T22:41:21Z</time></trkpt><trkpt lat="59.5587880444" lon="31.2606482673"><ele>243.83</ele><time>2026-09-02T22:41:22Z</time></trkpt><trkpt lat="59.5587881282" lon="31.2606469262"><ele>243.83</ele><time>2026-09-02T22:41:23Z</time></trkpt><trkpt lat="59.5587884635" lon="31.2606451660"><ele>243.83</ele><time>2026-09-02T22:41:24Z</time></trkpt><trkpt lat="59.5587889664" lon="31.2606429867"><ele>243.83</ele><time>2026-09-02T22:41:25Z</time></trkpt><trkpt lat="59.5587891340" lon="31.2606405560"><ele>243.83</ele><time>2026-09-02T22:41:26Z</time></trkpt><trkpt lat="59.5587897208" lon="31.2606385443"><ele>243.83</ele><time>2026-09-02T22:41:27Z</time></trkpt><trkpt lat="59.5587898884" lon="31.2606400531"><ele>243.83</ele><time>2026-09-02T22:41:28Z</time></trkpt><trkpt lat="59.5587905589" lon="31.2606390473"><ele>243.83</ele><time>2026-09-02T22:41:29Z</time></trkpt><trkpt lat="59.5587901399" lon="31.2606414780"><ele>243.83</ele><time>2026-09-02T22:41:30Z</time></trkpt><trkpt lat="59.5587901399" lon="31.2606392987"><ele>243.83</ele><time>2026-09-02T22:41:31Z</time></trkpt><trkpt lat="59.5587895531" lon="31.2606388796"><ele>243.83</ele><time>2026-09-02T22:41:32Z</time></trkpt><trkpt lat="59.5587894693" lon="31.2606378738"><ele>243.83</ele><time>2026-09-02T22:41:33Z</time></trkpt><trkpt lat="59.5587900560" lon="31.2606378738"><ele>243.83</ele><time>2026-09-02T22:41:34Z</time></trkpt><trkpt lat="59.5587903913" lon="31.2606372871"><ele>243.83</ele><time>2026-09-02T22:41:35Z</time></trkpt><trkpt lat="59.5587913971" lon="31.2606349401"><ele>243.83</ele><time>2026-09-02T22:41:36Z</time></trkpt><trkpt lat="59.5587916486" lon="31.2606332637"><ele>243.83</ele><time>2026-09-02T22:41:37Z</time></trkpt><trkpt lat="59.5587918162" lon="31.2606320903"><ele>243.83</ele><time>2026-09-02T22:41:38Z</time></trkpt><trkpt lat="59.5587923191" lon="31.2606309168"><ele>243.83</ele><time>2026-09-02T22:41:39Z</time></trkpt><trkpt lat="59.5587926544" lon="31.2606306653"><ele>243.83</ele><time>2026-09-02T22:41:40Z</time></trkpt><trkpt lat="59.5587935764" lon="31.2606275640"><ele>243.83</ele><time>2026-09-02T22:41:41Z</time></trkpt><trkpt lat="59.5587919839" lon="31.2606263906"><ele>243.83</ele><time>2026-09-02T22:41:42Z</time></trkpt><trkpt lat="59.5587917324" lon="31.2606248818"><ele>243.83</ele><time>2026-09-02T22:41:43Z</time></trkpt><trkpt lat="59.5587914810" lon="31.2606257200"><ele>243.83</ele><time>2026-09-02T22:41:44Z</time></trkpt><trkpt lat="59.5587915648" lon="31.2606246304"><ele>243.83</ele><time>2026-09-02T22:41:45Z</time></trkpt><trkpt lat="59.5587915648" lon="31.2606230378"><ele>243.83</ele><time>2026-09-02T22:41:46Z</time></trkpt><trkpt lat="59.5587916486" lon="31.2606231216"><ele>243.83</ele><time>2026-09-02T22:41:47Z</time></trkpt><trkpt lat="59.5587917324" lon="31.2606245466"><ele>243.83</ele><time>2026-09-02T22:41:48Z</time></trkpt><trkpt lat="59.5587915648" lon="31.2606261391"><ele>243.83</ele><time>2026-09-02T22:41:49Z</time></trkpt><trkpt lat="59.5587915648" lon="31.2606264744"><ele>243.83</ele><time>2026-09-02T22:41:50Z</time></trkpt><trkpt lat="59.5587908942" lon="31.2606266420"><ele>243.83</ele><time>2026-09-02T22:41:51Z</time></trkpt><trkpt lat="59.5587899722" lon="31.2606270611"><ele>243.83</ele><time>2026-09-02T22:41:52Z</time></trkpt><trkpt lat="59.5587876253" lon="31.2606288213"><ele>243.83</ele><time>2026-09-02T22:41:53Z</time></trkpt><trkpt lat="59.5587857813" lon="31.2606325932"><ele>243.83</ele><time>2026-09-02T22:41:54Z</time></trkpt><trkpt lat="59.5587845240" lon="31.2606349401"><ele>243.83</ele><time>2026-09-02T22:41:55Z</time></trkpt><trkpt lat="59.5587850269" lon="31.2606334314"><ele>243.83</ele><time>2026-09-02T22:41:56Z</time></trkpt><trkpt lat="59.5587846916" lon="31.2606356945"><ele>243.83</ele><time>2026-09-02T22:41:57Z</time></trkpt><trkpt lat="59.5587843563" lon="31.2606360298"><ele>243.83</ele><time>2026-09-02T22:41:58Z</time></trkpt><trkpt lat="59.5587838534" lon="31.2606342696"><ele>243.83</ele><time>2026-09-02T22:41:59Z</time></trkpt><trkpt lat="59.5587832667" lon="31.2606330961"><ele>244.31</ele><time>2026-09-02T22:42:00Z</time></trkpt><trkpt lat="59.5587832667" lon="31.2606329285"><ele>244.31</ele><time>2026-09-02T22:42:01Z</time></trkpt><trkpt lat="59.5587831829" lon="31.2606339343"><ele>244.31</ele><time>2026-09-02T22:42:02Z</time></trkpt><trkpt lat="59.5587831829" lon="31.2606349401"><ele>244.31</ele><time>2026-09-02T22:42:03Z</time></trkpt><trkpt lat="59.5587829314" lon="31.2606335990"><ele>244.31</ele><time>2026-09-02T22:42:04Z</time></trkpt><trkpt lat="59.5587828476" lon="31.2606338505"><ele>244.31</ele><time>2026-09-02T22:42:05Z</time></trkpt><trkpt lat="59.5587820932" lon="31.2606360298"><ele>244.31</ele><time>2026-09-02T22:42:06Z</time></trkpt><trkpt lat="59.5587824285" lon="31.2606376223"><ele>244.31</ele><time>2026-09-02T22:42:07Z</time></trkpt><trkpt lat="59.5587821770" lon="31.2606366165"><ele>244.31</ele><time>2026-09-02T22:42:08Z</time></trkpt><trkpt lat="59.5587821770" lon="31.2606382929"><ele>244.31</ele><time>2026-09-02T22:42:09Z</time></trkpt><trkpt lat="59.5587825961" lon="31.2606384605"><ele>244.31</ele><time>2026-09-02T22:42:10Z</time></trkpt><trkpt lat="59.5587830991" lon="31.2606379576"><ele>244.31</ele><time>2026-09-02T22:42:11Z</time></trkpt><trkpt lat="59.5587823447" lon="31.2606385443"><ele>244.31</ele><time>2026-09-02T22:42:12Z</time></trkpt><trkpt lat="59.5587824285" lon="31.2606384605"><ele>244.31</ele><time>2026-09-02T22:42:13Z</time></trkpt><trkpt lat="59.5587824285" lon="31.2606377900"><ele>244.31</ele><time>2026-09-02T22:42:14Z</time></trkpt><trkpt lat="59.5587827638" lon="31.2606368680"><ele>243.83</ele><time>2026-09-02T22:42:15Z</time></trkpt><trkpt lat="59.5587831829" lon="31.2606363650"><ele>243.83</ele><time>2026-09-02T22:42:16Z</time></trkpt><trkpt lat="59.5587836858" lon="31.2606359459"><ele>243.83</ele><time>2026-09-02T22:42:17Z</time></trkpt><trkpt lat="59.5587834343" lon="31.2606359459"><ele>243.83</ele><time>2026-09-02T22:42:18Z</time></trkpt><trkpt lat="59.5587839372" lon="31.2606354430"><ele>243.83</ele><time>2026-09-02T22:42:19Z</time></trkpt><trkpt lat="59.5587846916" lon="31.2606348563"><ele>243.83</ele><time>2026-09-02T22:42:20Z</time></trkpt><trkpt lat="59.5587846916" lon="31.2606350239"><ele>243.83</ele><time>2026-09-02T22:42:21Z</time></trkpt><trkpt lat="59.5587851945" lon="31.2606332637"><ele>243.83</ele><time>2026-09-02T22:42:23Z</time></trkpt><trkpt lat="59.5587863680" lon="31.2606332637"><ele>243.83</ele><time>2026-09-02T22:42:24Z</time></trkpt><trkpt lat="59.5587871224" lon="31.2606327608"><ele>243.83</ele><time>2026-09-02T22:42:25Z</time></trkpt><trkpt lat="59.5587877929" lon="31.2606319226"><ele>243.83</ele><time>2026-09-02T22:42:26Z</time></trkpt><trkpt lat="59.5587882958" lon="31.2606309168"><ele>243.83</ele><time>2026-09-02T22:42:27Z</time></trkpt><trkpt lat="59.5587891340" lon="31.2606301624"><ele>243.83</ele><time>2026-09-02T22:42:28Z</time></trkpt><trkpt lat="59.5587887987" lon="31.2606301624"><ele>243.83</ele><time>2026-09-02T22:42:29Z</time></trkpt><trkpt lat="59.5587897208" lon="31.2606295757"><ele>243.83</ele><time>2026-09-02T22:42:30Z</time></trkpt><trkpt lat="59.5587909780" lon="31.2606267259"><ele>243.83</ele><time>2026-09-02T22:42:31Z</time></trkpt><trkpt lat="59.5587910619" lon="31.2606255524"><ele>243.83</ele><time>2026-09-02T22:42:32Z</time></trkpt><trkpt lat="59.5587911457" lon="31.2606251333"><ele>243.83</ele><time>2026-09-02T22:42:33Z</time></trkpt><trkpt lat="59.5587907266" lon="31.2606248818"><ele>243.83</ele><time>2026-09-02T22:42:34Z</time></trkpt><trkpt lat="59.5587895531" lon="31.2606257200"><ele>243.83</ele><time>2026-09-02T22:42:35Z</time></trkpt><trkpt lat="59.5587886311" lon="31.2606252171"><ele>243.83</ele><time>2026-09-02T22:42:36Z</time></trkpt><trkpt lat="59.5587883797" lon="31.2606254686"><ele>243.83</ele><time>2026-09-02T22:42:37Z</time></trkpt><trkpt lat="59.5587875415" lon="31.2606253847"><ele>243.83</ele><time>2026-09-02T22:42:38Z</time></trkpt><trkpt lat="59.5587870385" lon="31.2606265582"><ele>243.83</ele><time>2026-09-02T22:42:39Z</time></trkpt><trkpt lat="59.5587869547" lon="31.2606265582"><ele>243.83</ele><time>2026-09-02T22:42:40Z</time></trkpt><trkpt lat="59.5587848593" lon="31.2606266420"><ele>243.83</ele><time>2026-09-02T22:42:41Z</time></trkpt><trkpt lat="59.5587825961" lon="31.2606266420"><ele>243.83</ele><time>2026-09-02T22:42:42Z</time></trkpt><trkpt lat="59.5587809198" lon="31.2606266420"><ele>243.83</ele><time>2026-09-02T22:42:43Z</time></trkpt><trkpt lat="59.5587823447" lon="31.2606269773"><ele>243.83</ele><time>2026-09-02T22:42:44Z</time></trkpt><trkpt lat="59.5587810874" lon="31.2606269773"><ele>243.83</ele><time>2026-09-02T22:42:45Z</time></trkpt><trkpt lat="59.5587811712" lon="31.2606270611"><ele>243.83</ele><time>2026-09-02T22:42:46Z</time></trkpt><trkpt lat="59.5587814227" lon="31.2606272288"><ele>243.83</ele><time>2026-09-02T22:42:47Z</time></trkpt><trkpt lat="59.5587810874" lon="31.2606260553"><ele>243.83</ele><time>2026-09-02T22:42:48Z</time></trkpt><trkpt lat="59.5587811712" lon="31.2606242951"><ele>243.83</ele><time>2026-09-02T22:42:49Z</time></trkpt><trkpt lat="59.5587808359" lon="31.2606223673"><ele>243.83</ele><time>2026-09-02T22:42:50Z</time></trkpt><trkpt lat="59.5587805845" lon="31.2606202718"><ele>243.83</ele><time>2026-09-02T22:42:51Z</time></trkpt><trkpt lat="59.5587811712" lon="31.2606183439"><ele>243.83</ele><time>2026-09-02T22:42:52Z</time></trkpt><trkpt lat="59.5587811712" lon="31.2606169190"><ele>243.83</ele><time>2026-09-02T22:42:53Z</time></trkpt><trkpt lat="59.5587801654" lon="31.2606157456"><ele>243.83</ele><time>2026-09-02T22:42:54Z</time></trkpt><trkpt lat="59.5587797463" lon="31.2606154941"><ele>243.83</ele><time>2026-09-02T22:42:55Z</time></trkpt><trkpt lat="59.5587792434" lon="31.2606162485"><ele>243.83</ele><time>2026-09-02T22:42:56Z</time></trkpt><trkpt lat="59.5587784890" lon="31.2606147397"><ele>243.83</ele><time>2026-09-02T22:42:57Z</time></trkpt><trkpt lat="59.5587778185" lon="31.2606142368"><ele>243.83</ele><time>2026-09-02T22:42:58Z</time></trkpt><trkpt lat="59.5587776508" lon="31.2606135663"><ele>243.83</ele><time>2026-09-02T22:42:59Z</time></trkpt><trkpt lat="59.5587781537" lon="31.2606147397"><ele>243.83</ele><time>2026-09-02T22:43:00Z</time></trkpt><trkpt lat="59.5587784890" lon="31.2606184278"><ele>243.83</ele><time>2026-09-02T22:43:01Z</time></trkpt><trkpt lat="59.5587780699" lon="31.2606222834"><ele>243.83</ele><time>2026-09-02T22:43:02Z</time></trkpt><trkpt lat="59.5587778185" lon="31.2606252171"><ele>243.83</ele><time>2026-09-02T22:43:03Z</time></trkpt><trkpt lat="59.5587763935" lon="31.2606293242"><ele>243.83</ele><time>2026-09-02T22:43:04Z</time></trkpt><trkpt lat="59.5587778185" lon="31.2606258877"><ele>243.83</ele><time>2026-09-02T22:43:05Z</time></trkpt><trkpt lat="59.5587766450" lon="31.2606292404"><ele>243.83</ele><time>2026-09-02T22:43:06Z</time></trkpt><trkpt lat="59.5587756392" lon="31.2606314197"><ele>243.83</ele><time>2026-09-02T22:43:07Z</time></trkpt><trkpt lat="59.5587748848" lon="31.2606327608"><ele>243.83</ele><time>2026-09-02T22:43:08Z</time></trkpt><trkpt lat="59.5587743819" lon="31.2606328446"><ele>243.83</ele><time>2026-09-02T22:43:09Z</time></trkpt><trkpt lat="59.5587752201" lon="31.2606382929"><ele>243.83</ele><time>2026-09-02T22:43:10Z</time></trkpt><trkpt lat="59.5587755553" lon="31.2606399693"><ele>243.83</ele><time>2026-09-02T22:43:11Z</time></trkpt><trkpt lat="59.5587750524" lon="31.2606411427"><ele>243.83</ele><time>2026-09-02T22:43:12Z</time></trkpt><trkpt lat="59.5587755553" lon="31.2606411427"><ele>243.83</ele><time>2026-09-02T22:43:13Z</time></trkpt><trkpt lat="59.5587758906" lon="31.2606418971"><ele>243.83</ele><time>2026-09-02T22:43:14Z</time></trkpt><trkpt lat="59.5587757230" lon="31.2606415618"><ele>243.83</ele><time>2026-09-02T22:43:15Z</time></trkpt><trkpt lat="59.5587741304" lon="31.2606428191"><ele>243.83</ele><time>2026-09-02T22:43:16Z</time></trkpt><trkpt lat="59.5587729570" lon="31.2606458366"><ele>243.83</ele><time>2026-09-02T22:43:17Z</time></trkpt><trkpt lat="59.5587723702" lon="31.2606476806"><ele>243.83</ele><time>2026-09-02T22:43:18Z</time></trkpt><trkpt lat="59.5587721188" lon="31.2606501952"><ele>243.83</ele><time>2026-09-02T22:43:19Z</time></trkpt><trkpt lat="59.5587720349" lon="31.2606564816"><ele>243.83</ele><time>2026-09-02T22:43:20Z</time></trkpt><trkpt lat="59.5587712806" lon="31.2606664561"><ele>243.83</ele><time>2026-09-02T22:43:21Z</time></trkpt><trkpt lat="59.5587713644" lon="31.2606749218"><ele>243.83</ele><time>2026-09-02T22:43:22Z</time></trkpt><trkpt lat="59.5587712806" lon="31.2606736645"><ele>243.83</ele><time>2026-09-02T22:43:23Z</time></trkpt><trkpt lat="59.5587701909" lon="31.2606777716"><ele>243.83</ele><time>2026-09-02T22:43:24Z</time></trkpt><trkpt lat="59.5587663352" lon="31.2606824655"><ele>243.83</ele><time>2026-09-02T22:43:25Z</time></trkpt><trkpt lat="59.5587621443" lon="31.2606860697"><ele>243.83</ele><time>2026-09-02T22:43:26Z</time></trkpt><trkpt lat="59.5587595459" lon="31.2606888358"><ele>243.83</ele><time>2026-09-02T22:43:27Z</time></trkpt><trkpt lat="59.5587562770" lon="31.2606930267"><ele>243.83</ele><time>2026-09-02T22:43:28Z</time></trkpt><trkpt lat="59.5587534271" lon="31.2606980558"><ele>243.83</ele><time>2026-09-02T22:43:29Z</time></trkpt><trkpt lat="59.5587489847" lon="31.2607023306"><ele>243.83</ele><time>2026-09-02T22:43:30Z</time></trkpt><trkpt lat="59.5587462187" lon="31.2607065216"><ele>243.83</ele><time>2026-09-02T22:43:31Z</time></trkpt><trkpt lat="59.5587424468" lon="31.2607187591"><ele>243.83</ele><time>2026-09-02T22:43:32Z</time></trkpt><trkpt lat="59.5587355737" lon="31.2607284822"><ele>243.83</ele><time>2026-09-02T22:43:33Z</time></trkpt><trkpt lat="59.5587287843" lon="31.2607395463"><ele>243.83</ele><time>2026-09-02T22:43:34Z</time></trkpt><trkpt lat="59.5587216597" lon="31.2607483473"><ele>243.83</ele><time>2026-09-02T22:43:35Z</time></trkpt><trkpt lat="59.5587136969" lon="31.2607557233"><ele>243.83</ele><time>2026-09-02T22:43:36Z</time></trkpt><trkpt lat="59.5587037224" lon="31.2607660331"><ele>243.83</ele><time>2026-09-02T22:43:37Z</time></trkpt><trkpt lat="59.5586937480" lon="31.2607712299"><ele>243.83</ele><time>2026-09-02T22:43:38Z</time></trkpt><trkpt lat="59.5586827677" lon="31.2607796956"><ele>243.83</ele><time>2026-09-02T22:43:39Z</time></trkpt><trkpt lat="59.5586724579" lon="31.2607844733"><ele>243.83</ele><time>2026-09-02T22:43:40Z</time></trkpt><trkpt lat="59.5586640760" lon="31.2607868202"><ele>243.83</ele><time>2026-09-02T22:43:41Z</time></trkpt><trkpt lat="59.5586558618" lon="31.2607886642"><ele>243.83</ele><time>2026-09-02T22:43:42Z</time></trkpt><trkpt lat="59.5586475637" lon="31.2607896701"><ele>243.83</ele><time>2026-09-02T22:43:43Z</time></trkpt><trkpt lat="59.5586407743" lon="31.2607908435"><ele>243.83</ele><time>2026-09-02T22:43:44Z</time></trkpt><trkpt lat="59.5586340688" lon="31.2607937772"><ele>243.83</ele><time>2026-09-02T22:43:45Z</time></trkpt><trkpt lat="59.5586250164" lon="31.2607978843"><ele>243.83</ele><time>2026-09-02T22:43:46Z</time></trkpt><trkpt lat="59.5586169697" lon="31.2608044222"><ele>243.83</ele><time>2026-09-02T22:43:47Z</time></trkpt><trkpt lat="59.5586097613" lon="31.2608063500"><ele>243.83</ele><time>2026-09-02T22:43:48Z</time></trkpt><trkpt lat="59.5586016309" lon="31.2608117983"><ele>244.31</ele><time>2026-09-02T22:43:49Z</time></trkpt><trkpt lat="59.5585967693" lon="31.2608118821"><ele>244.31</ele><time>2026-09-02T22:43:50Z</time></trkpt><trkpt lat="59.5585913211" lon="31.2608160730"><ele>244.31</ele><time>2026-09-02T22:43:51Z</time></trkpt><trkpt lat="59.5585918240" lon="31.2608132232"><ele>244.31</ele><time>2026-09-02T22:43:52Z</time></trkpt><trkpt lat="59.5585871302" lon="31.2608208507"><ele>244.31</ele><time>2026-09-02T22:43:53Z</time></trkpt><trkpt lat="59.5585801732" lon="31.2608302385"><ele>244.31</ele><time>2026-09-02T22:43:54Z</time></trkpt><trkpt lat="59.5585735515" lon="31.2608370278"><ele>244.31</ele><time>2026-09-02T22:43:55Z</time></trkpt><trkpt lat="59.5585673489" lon="31.2608416378"><ele>244.31</ele><time>2026-09-02T22:43:56Z</time></trkpt><trkpt lat="59.5585598890" lon="31.2608497683"><ele>244.31</ele><time>2026-09-02T22:43:57Z</time></trkpt><trkpt lat="59.5585524291" lon="31.2608591560"><ele>244.31</ele><time>2026-09-02T22:43:58Z</time></trkpt><trkpt lat="59.5585458912" lon="31.2608594913"><ele>244.31</ele><time>2026-09-02T22:43:59Z</time></trkpt><trkpt lat="59.5585387666" lon="31.2608594913"><ele>244.31</ele><time>2026-09-02T22:44:00Z</time></trkpt><trkpt lat="59.5585324802" lon="31.2608658615"><ele>244.31</ele><time>2026-09-02T22:44:01Z</time></trkpt><trkpt lat="59.5585248526" lon="31.2608754169"><ele>244.31</ele><time>2026-09-02T22:44:02Z</time></trkpt><trkpt lat="59.5585167222" lon="31.2608832959"><ele>244.31</ele><time>2026-09-02T22:44:03Z</time></trkpt><trkpt lat="59.5585072506" lon="31.2608847208"><ele>244.31</ele><time>2026-09-02T22:44:04Z</time></trkpt><trkpt lat="59.5584995393" lon="31.2608866487"><ele>244.31</ele><time>2026-09-02T22:44:05Z</time></trkpt><trkpt lat="59.5584918279" lon="31.2608793564"><ele>244.31</ele><time>2026-09-02T22:44:06Z</time></trkpt><trkpt lat="59.5584840328" lon="31.2608733214"><ele>244.31</ele><time>2026-09-02T22:44:07Z</time></trkpt><trkpt lat="59.5584769920" lon="31.2608678732"><ele>244.31</ele><time>2026-09-02T22:44:08Z</time></trkpt><trkpt lat="59.5584697835" lon="31.2608630955"><ele>244.31</ele><time>2026-09-02T22:44:09Z</time></trkpt><trkpt lat="59.5584623236" lon="31.2608560547"><ele>244.31</ele><time>2026-09-02T22:44:10Z</time></trkpt><trkpt lat="59.5584530197" lon="31.2608476728"><ele>244.79</ele><time>2026-09-02T22:44:11Z</time></trkpt><trkpt lat="59.5584444702" lon="31.2608397938"><ele>244.79</ele><time>2026-09-02T22:44:12Z</time></trkpt><trkpt lat="59.5584392734" lon="31.2608293165"><ele>244.79</ele><time>2026-09-02T22:44:13Z</time></trkpt><trkpt lat="59.5584334899" lon="31.2608170789"><ele>244.79</ele><time>2026-09-02T22:44:14Z</time></trkpt><trkpt lat="59.5584292989" lon="31.2608110439"><ele>244.79</ele><time>2026-09-02T22:44:15Z</time></trkpt><trkpt lat="59.5584245212" lon="31.2608037516"><ele>244.79</ele><time>2026-09-02T22:44:16Z</time></trkpt><trkpt lat="59.5584209170" lon="31.2607972976"><ele>244.79</ele><time>2026-09-02T22:44:17Z</time></trkpt><trkpt lat="59.5584168937" lon="31.2607937772"><ele>244.79</ele><time>2026-09-02T22:44:18Z</time></trkpt><trkpt lat="59.5584136248" lon="31.2607901730"><ele>244.79</ele><time>2026-09-02T22:44:19Z</time></trkpt><trkpt lat="59.5584099367" lon="31.2607885804"><ele>244.79</ele><time>2026-09-02T22:44:20Z</time></trkpt><trkpt lat="59.5584029797" lon="31.2607864849"><ele>244.79</ele><time>2026-09-02T22:44:21Z</time></trkpt><trkpt lat="59.5583948493" lon="31.2607871555"><ele>244.79</ele><time>2026-09-02T22:44:22Z</time></trkpt><trkpt lat="59.5583870541" lon="31.2607890833"><ele>244.79</ele><time>2026-09-02T22:44:23Z</time></trkpt><trkpt lat="59.5583776664" lon="31.2607946992"><ele>245.27</ele><time>2026-09-02T22:44:24Z</time></trkpt><trkpt lat="59.5583697874" lon="31.2608011533"><ele>245.27</ele><time>2026-09-02T22:44:25Z</time></trkpt><trkpt lat="59.5583614893" lon="31.2608047575"><ele>244.79</ele><time>2026-09-02T22:44:26Z</time></trkpt><trkpt lat="59.5583521854" lon="31.2608136423"><ele>244.79</ele><time>2026-09-02T22:44:27Z</time></trkpt><trkpt lat="59.5583419595" lon="31.2608210184"><ele>244.79</ele><time>2026-09-02T22:44:28Z</time></trkpt><trkpt lat="59.5583299734" lon="31.2608261313"><ele>244.79</ele><time>2026-09-02T22:44:29Z</time></trkpt><trkpt lat="59.5583205856" lon="31.2608281430"><ele>244.79</ele><time>2026-09-02T22:44:30Z</time></trkpt><trkpt lat="59.5583127905" lon="31.2608286459"><ele>244.79</ele><time>2026-09-02T22:44:31Z</time></trkpt><trkpt lat="59.5583045762" lon="31.2608313281"><ele>244.79</ele><time>2026-09-02T22:44:32Z</time></trkpt><trkpt lat="59.5582948532" lon="31.2608313281"><ele>244.79</ele><time>2026-09-02T22:44:33Z</time></trkpt><trkpt lat="59.5582850464" lon="31.2608284783"><ele>244.79</ele><time>2026-09-02T22:44:34Z</time></trkpt><trkpt lat="59.5582749881" lon="31.2608220242"><ele>244.79</ele><time>2026-09-02T22:44:35Z</time></trkpt><trkpt lat="59.5582658518" lon="31.2608184200"><ele>244.79</ele><time>2026-09-02T22:44:36Z</time></trkpt><trkpt lat="59.5582542848" lon="31.2608201802"><ele>244.79</ele><time>2026-09-02T22:44:37Z</time></trkpt><trkpt lat="59.5582407899" lon="31.2608206831"><ele>244.79</ele><time>2026-09-02T22:44:38Z</time></trkpt><trkpt lat="59.5582308993" lon="31.2608244549"><ele>245.27</ele><time>2026-09-02T22:44:39Z</time></trkpt><trkpt lat="59.5582219306" lon="31.2608306576"><ele>245.27</ele><time>2026-09-02T22:44:40Z</time></trkpt><trkpt lat="59.5582126267" lon="31.2608377822"><ele>245.27</ele><time>2026-09-02T22:44:41Z</time></trkpt><trkpt lat="59.5582007244" lon="31.2608434819"><ele>245.27</ele><time>2026-09-02T22:44:42Z</time></trkpt><trkpt lat="59.5581905823" lon="31.2608475890"><ele>245.27</ele><time>2026-09-02T22:44:43Z</time></trkpt><trkpt lat="59.5581797697" lon="31.2608503550"><ele>245.27</ele><time>2026-09-02T22:44:44Z</time></trkpt><trkpt lat="59.5581694599" lon="31.2608552165"><ele>245.27</ele><time>2026-09-02T22:44:45Z</time></trkpt><trkpt lat="59.5581629220" lon="31.2608602457"><ele>245.27</ele><time>2026-09-02T22:44:46Z</time></trkpt><trkpt lat="59.5581529476" lon="31.2608630955"><ele>245.27</ele><time>2026-09-02T22:44:47Z</time></trkpt><trkpt lat="59.5581442304" lon="31.2608617544"><ele>244.79</ele><time>2026-09-02T22:44:48Z</time></trkpt><trkpt lat="59.5581369381" lon="31.2608578987"><ele>244.79</ele><time>2026-09-02T22:44:49Z</time></trkpt><trkpt lat="59.5581296459" lon="31.2608549651"><ele>244.79</ele><time>2026-09-02T22:44:50Z</time></trkpt><trkpt lat="59.5581234433" lon="31.2608573958"><ele>244.79</ele><time>2026-09-02T22:44:51Z</time></trkpt><trkpt lat="59.5581169892" lon="31.2608599942"><ele>244.79</ele><time>2026-09-02T22:44:52Z</time></trkpt><trkpt lat="59.5581097808" lon="31.2608647719"><ele>244.79</ele><time>2026-09-02T22:44:53Z</time></trkpt><trkpt lat="59.5581030753" lon="31.2608653586"><ele>244.79</ele><time>2026-09-02T22:44:54Z</time></trkpt><trkpt lat="59.5580967888" lon="31.2608675379"><ele>244.79</ele><time>2026-09-02T22:44:55Z</time></trkpt><trkpt lat="59.5580939390" lon="31.2608697172"><ele>244.79</ele><time>2026-09-02T22:44:56Z</time></trkpt><trkpt lat="59.5580913406" lon="31.2608712260"><ele>244.79</ele><time>2026-09-02T22:44:57Z</time></trkpt><trkpt lat="59.5580830425" lon="31.2608842179"><ele>244.79</ele><time>2026-09-02T22:44:58Z</time></trkpt><trkpt lat="59.5580772590" lon="31.2608885765"><ele>244.79</ele><time>2026-09-02T22:44:59Z</time></trkpt><trkpt lat="59.5580715593" lon="31.2608956173"><ele>244.79</ele><time>2026-09-02T22:45:00Z</time></trkpt><trkpt lat="59.5580666978" lon="31.2609043345"><ele>244.79</ele><time>2026-09-02T22:45:01Z</time></trkpt><trkpt lat="59.5580621716" lon="31.2609083578"><ele>244.79</ele><time>2026-09-02T22:45:02Z</time></trkpt><trkpt lat="59.5580597408" lon="31.2609170750"><ele>244.79</ele><time>2026-09-02T22:45:03Z</time></trkpt><trkpt lat="59.5580568910" lon="31.2609256245"><ele>244.79</ele><time>2026-09-02T22:45:04Z</time></trkpt><trkpt lat="59.5580532867" lon="31.2609329168"><ele>244.79</ele><time>2026-09-02T22:45:05Z</time></trkpt><trkpt lat="59.5580480900" lon="31.2609415501"><ele>244.79</ele><time>2026-09-02T22:45:06Z</time></trkpt><trkpt lat="59.5580451563" lon="31.2609512731"><ele>244.79</ele><time>2026-09-02T22:45:07Z</time></trkpt><trkpt lat="59.5580394566" lon="31.2609602418"><ele>244.79</ele><time>2026-09-02T22:45:08Z</time></trkpt><trkpt lat="59.5580333378" lon="31.2609656900"><ele>244.79</ele><time>2026-09-02T22:45:09Z</time></trkpt><trkpt lat="59.5580275543" lon="31.2609680369"><ele>244.79</ele><time>2026-09-02T22:45:10Z</time></trkpt><trkpt lat="59.5580212679" lon="31.2609689590"><ele>244.79</ele><time>2026-09-02T22:45:11Z</time></trkpt><trkpt lat="59.5580127183" lon="31.2609744910"><ele>244.79</ele><time>2026-09-02T22:45:12Z</time></trkpt><trkpt lat="59.5580090303" lon="31.2609819509"><ele>244.79</ele><time>2026-09-02T22:45:13Z</time></trkpt><trkpt lat="59.5580057614" lon="31.2609889917"><ele>244.79</ele><time>2026-09-02T22:45:14Z</time></trkpt><trkpt lat="59.5580004808" lon="31.2609950267"><ele>244.79</ele><time>2026-09-02T22:45:15Z</time></trkpt><trkpt lat="59.5579939429" lon="31.2609997205"><ele>244.79</ele><time>2026-09-02T22:45:16Z</time></trkpt><trkpt lat="59.5579899196" lon="31.2610049173"><ele>244.31</ele><time>2026-09-02T22:45:17Z</time></trkpt><trkpt lat="59.5579854771" lon="31.2610114552"><ele>244.31</ele><time>2026-09-02T22:45:18Z</time></trkpt><trkpt lat="59.5579783525" lon="31.2610243633"><ele>244.31</ele><time>2026-09-02T22:45:19Z</time></trkpt><trkpt lat="59.5579715632" lon="31.2610360980"><ele>244.31</ele><time>2026-09-02T22:45:20Z</time></trkpt><trkpt lat="59.5579738263" lon="31.2610309850"><ele>244.31</ele><time>2026-09-02T22:45:21Z</time></trkpt><trkpt lat="59.5579697192" lon="31.2610383611"><ele>244.31</ele><time>2026-09-02T22:45:22Z</time></trkpt><trkpt lat="59.5579706412" lon="31.2610447314"><ele>244.31</ele><time>2026-09-02T22:45:23Z</time></trkpt><trkpt lat="59.5579710603" lon="31.2610555440"><ele>244.31</ele><time>2026-09-02T22:45:24Z</time></trkpt><trkpt lat="59.5579678752" lon="31.2610640936"><ele>244.31</ele><time>2026-09-02T22:45:25Z</time></trkpt><trkpt lat="59.5579635166" lon="31.2610712182"><ele>244.31</ele><time>2026-09-02T22:45:26Z</time></trkpt><trkpt lat="59.5579569787" lon="31.2610878982"><ele>244.31</ele><time>2026-09-02T22:45:27Z</time></trkpt><trkpt lat="59.5579521172" lon="31.2610934302"><ele>244.31</ele><time>2026-09-02T22:45:28Z</time></trkpt><trkpt lat="59.5579435676" lon="31.2610985432"><ele>244.31</ele><time>2026-09-02T22:45:29Z</time></trkpt><trkpt lat="59.5579360239" lon="31.2611120380"><ele>244.31</ele><time>2026-09-02T22:45:30Z</time></trkpt><trkpt lat="59.5579284802" lon="31.2611115351"><ele>244.31</ele><time>2026-09-02T22:45:31Z</time></trkpt><trkpt lat="59.5579260495" lon="31.2611063384"><ele>244.31</ele><time>2026-09-02T22:45:32Z</time></trkpt><trkpt lat="59.5579189248" lon="31.2611081824"><ele>244.31</ele><time>2026-09-02T22:45:33Z</time></trkpt><trkpt lat="59.5579138957" lon="31.2611074280"><ele>244.31</ele><time>2026-09-02T22:45:34Z</time></trkpt><trkpt lat="59.5579087827" lon="31.2611062545"><ele>244.31</ele><time>2026-09-02T22:45:35Z</time></trkpt><trkpt lat="59.5579035860" lon="31.2611070927"><ele>244.31</ele><time>2026-09-02T22:45:36Z</time></trkpt><trkpt lat="59.5578941982" lon="31.2611085176"><ele>244.31</ele><time>2026-09-02T22:45:37Z</time></trkpt><trkpt lat="59.5578879956" lon="31.2611134630"><ele>244.31</ele><time>2026-09-02T22:45:38Z</time></trkpt><trkpt lat="59.5578830503" lon="31.2611190788"><ele>244.31</ele><time>2026-09-02T22:45:39Z</time></trkpt><trkpt lat="59.5578771830" lon="31.2611266226"><ele>244.31</ele><time>2026-09-02T22:45:40Z</time></trkpt><trkpt lat="59.5578702260" lon="31.2611337472"><ele>244.31</ele><time>2026-09-02T22:45:41Z</time></trkpt><trkpt lat="59.5578564797" lon="31.2611425482"><ele>244.31</ele><time>2026-09-02T22:45:42Z</time></trkpt><trkpt lat="59.5578469243" lon="31.2611523550"><ele>244.31</ele><time>2026-09-02T22:45:43Z</time></trkpt><trkpt lat="59.5578409731" lon="31.2611598987"><ele>244.31</ele><time>2026-09-02T22:45:44Z</time></trkpt><trkpt lat="59.5578369498" lon="31.2611638382"><ele>244.31</ele><time>2026-09-02T22:45:45Z</time></trkpt><trkpt lat="59.5578311663" lon="31.2611707952"><ele>244.31</ele><time>2026-09-02T22:45:46Z</time></trkpt><trkpt lat="59.5578267239" lon="31.2611779198"><ele>244.31</ele><time>2026-09-02T22:45:47Z</time></trkpt><trkpt lat="59.5578283165" lon="31.2611751538"><ele>244.31</ele><time>2026-09-02T22:45:48Z</time></trkpt><trkpt lat="59.5578254666" lon="31.2611804344"><ele>244.31</ele><time>2026-09-02T22:45:49Z</time></trkpt><trkpt lat="59.5578252990" lon="31.2611816917"><ele>244.31</ele><time>2026-09-02T22:45:50Z</time></trkpt><trkpt lat="59.5578246284" lon="31.2611825299"><ele>244.31</ele><time>2026-09-02T22:45:51Z</time></trkpt><trkpt lat="59.5578246284" lon="31.2611833680"><ele>244.31</ele><time>2026-09-02T22:45:52Z</time></trkpt><trkpt lat="59.5578214433" lon="31.2611852959"><ele>244.31</ele><time>2026-09-02T22:45:53Z</time></trkpt><trkpt lat="59.5578175876" lon="31.2611889839"><ele>243.83</ele><time>2026-09-02T22:45:54Z</time></trkpt><trkpt lat="59.5578163303" lon="31.2611840386"><ele>243.83</ele><time>2026-09-02T22:45:55Z</time></trkpt><trkpt lat="59.5578115527" lon="31.2611781713"><ele>243.83</ele><time>2026-09-02T22:45:56Z</time></trkpt><trkpt lat="59.5578008238" lon="31.2611840386"><ele>243.83</ele><time>2026-09-02T22:45:57Z</time></trkpt><trkpt lat="59.5577937830" lon="31.2611853797"><ele>243.83</ele><time>2026-09-02T22:45:58Z</time></trkpt><trkpt lat="59.5577893406" lon="31.2611906603"><ele>243.83</ele><time>2026-09-02T22:45:59Z</time></trkpt><trkpt lat="59.5577872451" lon="31.2611864693"><ele>243.83</ele><time>2026-09-02T22:46:00Z</time></trkpt><trkpt lat="59.5577813778" lon="31.2611830328"><ele>244.31</ele><time>2026-09-02T22:46:01Z</time></trkpt><trkpt lat="59.5577774383" lon="31.2611794285"><ele>244.31</ele><time>2026-09-02T22:46:02Z</time></trkpt><trkpt lat="59.5577688888" lon="31.2611797638"><ele>244.31</ele><time>2026-09-02T22:46:03Z</time></trkpt><trkpt lat="59.5577631891" lon="31.2611776683"><ele>244.31</ele><time>2026-09-02T22:46:04Z</time></trkpt><trkpt lat="59.5577567350" lon="31.2611753214"><ele>244.31</ele><time>2026-09-02T22:46:05Z</time></trkpt><trkpt lat="59.5577508677" lon="31.2611754891"><ele>244.31</ele><time>2026-09-02T22:46:06Z</time></trkpt><trkpt lat="59.5577451680" lon="31.2611736450"><ele>244.31</ele><time>2026-09-02T22:46:07Z</time></trkpt><trkpt lat="59.5577381272" lon="31.2611713819"><ele>244.31</ele><time>2026-09-02T22:46:08Z</time></trkpt><trkpt lat="59.5577345230" lon="31.2611749861"><ele>244.31</ele><time>2026-09-02T22:46:09Z</time></trkpt><trkpt lat="59.5577287395" lon="31.2611781713"><ele>244.79</ele><time>2026-09-02T22:46:10Z</time></trkpt><trkpt lat="59.5577226207" lon="31.2611754891"><ele>244.79</ele><time>2026-09-02T22:46:11Z</time></trkpt><trkpt lat="59.5577169210" lon="31.2611777522"><ele>244.79</ele><time>2026-09-02T22:46:12Z</time></trkpt><trkpt lat="59.5577159990" lon="31.2611834519"><ele>244.79</ele><time>2026-09-02T22:46:13Z</time></trkpt><trkpt lat="59.5577133168" lon="31.2611878943"><ele>244.79</ele><time>2026-09-02T22:46:14Z</time></trkpt><trkpt lat="59.5577108860" lon="31.2611963600"><ele>244.79</ele><time>2026-09-02T22:46:15Z</time></trkpt><trkpt lat="59.5577075332" lon="31.2612069212"><ele>244.79</ele><time>2026-09-02T22:46:16Z</time></trkpt><trkpt lat="59.5577039290" lon="31.2612149678"><ele>244.79</ele><time>2026-09-02T22:46:17Z</time></trkpt><trkpt lat="59.5577017497" lon="31.2612268701"><ele>244.79</ele><time>2026-09-02T22:46:18Z</time></trkpt><trkpt lat="59.5576954633" lon="31.2612382695"><ele>244.79</ele><time>2026-09-02T22:46:19Z</time></trkpt><trkpt lat="59.5576887578" lon="31.2612507585"><ele>244.79</ele><time>2026-09-02T22:46:20Z</time></trkpt><trkpt lat="59.5576846506" lon="31.2612548657"><ele>244.79</ele><time>2026-09-02T22:46:21Z</time></trkpt><trkpt lat="59.5576838963" lon="31.2612604816"><ele>244.79</ele><time>2026-09-02T22:46:22Z</time></trkpt><trkpt lat="59.5576829743" lon="31.2612656783"><ele>244.79</ele><time>2026-09-02T22:46:23Z</time></trkpt><trkpt lat="59.5576818846" lon="31.2612673547"><ele>244.79</ele><time>2026-09-02T22:46:24Z</time></trkpt><trkpt lat="59.5576829743" lon="31.2612663489"><ele>244.79</ele><time>2026-09-02T22:46:25Z</time></trkpt><trkpt lat="59.5576820523" lon="31.2612675223"><ele>244.79</ele><time>2026-09-02T22:46:26Z</time></trkpt><trkpt lat="59.5576818846" lon="31.2612677738"><ele>244.79</ele><time>2026-09-02T22:46:27Z</time></trkpt><trkpt lat="59.5576819684" lon="31.2612686958"><ele>244.79</ele><time>2026-09-02T22:46:28Z</time></trkpt><trkpt lat="59.5576816332" lon="31.2612693664"><ele>244.79</ele><time>2026-09-02T22:46:29Z</time></trkpt><trkpt lat="59.5576812979" lon="31.2612702884"><ele>244.79</ele><time>2026-09-02T22:46:30Z</time></trkpt><trkpt lat="59.5576797891" lon="31.2612713780"><ele>244.79</ele><time>2026-09-02T22:46:31Z</time></trkpt><trkpt lat="59.5576785319" lon="31.2612708751"><ele>244.79</ele><time>2026-09-02T22:46:32Z</time></trkpt><trkpt lat="59.5576763526" lon="31.2612717971"><ele>244.79</ele><time>2026-09-02T22:46:33Z</time></trkpt><trkpt lat="59.5576753467" lon="31.2612729706"><ele>244.79</ele><time>2026-09-02T22:46:34Z</time></trkpt><trkpt lat="59.5576748438" lon="31.2612753175"><ele>244.79</ele><time>2026-09-02T22:46:35Z</time></trkpt><trkpt lat="59.5576738380" lon="31.2612778321"><ele>244.79</ele><time>2026-09-02T22:46:36Z</time></trkpt><trkpt lat="59.5576718263" lon="31.2612775806"><ele>244.79</ele><time>2026-09-02T22:46:37Z</time></trkpt><trkpt lat="59.5576722454" lon="31.2612772454"><ele>244.79</ele><time>2026-09-02T22:46:38Z</time></trkpt><trkpt lat="59.5576717425" lon="31.2612780835"><ele>244.79</ele><time>2026-09-02T22:46:39Z</time></trkpt><trkpt lat="59.5576725807" lon="31.2612805981"><ele>244.79</ele><time>2026-09-02T22:46:40Z</time></trkpt><trkpt lat="59.5576701500" lon="31.2612853758"><ele>244.79</ele><time>2026-09-02T22:46:41Z</time></trkpt><trkpt lat="59.5576666296" lon="31.2612903211"><ele>244.79</ele><time>2026-09-02T22:46:42Z</time></trkpt><trkpt lat="59.5576620195" lon="31.2613022234"><ele>244.79</ele><time>2026-09-02T22:46:43Z</time></trkpt><trkpt lat="59.5576617680" lon="31.2613145448"><ele>244.79</ele><time>2026-09-02T22:46:44Z</time></trkpt><trkpt lat="59.5576609299" lon="31.2613264471"><ele>244.79</ele><time>2026-09-02T22:46:45Z</time></trkpt><trkpt lat="59.5576616842" lon="31.2613335717"><ele>244.79</ele><time>2026-09-02T22:46:46Z</time></trkpt><trkpt lat="59.5576619357" lon="31.2613444682"><ele>244.79</ele><time>2026-09-02T22:46:47Z</time></trkpt><trkpt lat="59.5576616842" lon="31.2613473181"><ele>244.79</ele><time>2026-09-02T22:46:48Z</time></trkpt><trkpt lat="59.5576634444" lon="31.2613509223"><ele>244.79</ele><time>2026-09-02T22:46:49Z</time></trkpt><trkpt lat="59.5576651208" lon="31.2613535207"><ele>244.79</ele><time>2026-09-02T22:46:50Z</time></trkpt><trkpt lat="59.5576662943" lon="31.2613594718"><ele>244.79</ele><time>2026-09-02T22:46:51Z</time></trkpt><trkpt lat="59.5576660428" lon="31.2613571249"><ele>244.79</ele><time>2026-09-02T22:46:52Z</time></trkpt><trkpt lat="59.5576669648" lon="31.2613604777"><ele>244.79</ele><time>2026-09-02T22:46:53Z</time></trkpt><trkpt lat="59.5576684736" lon="31.2613643333"><ele>244.79</ele><time>2026-09-02T22:46:54Z</time></trkpt><trkpt lat="59.5576716587" lon="31.2613687757"><ele>245.27</ele><time>2026-09-02T22:46:55Z</time></trkpt><trkpt lat="59.5576734189" lon="31.2613676861"><ele>245.27</ele><time>2026-09-02T22:46:56Z</time></trkpt><trkpt lat="59.5576747600" lon="31.2613686919"><ele>245.27</ele><time>2026-09-02T22:46:57Z</time></trkpt><trkpt lat="59.5576745924" lon="31.2613700330"><ele>245.27</ele><time>2026-09-02T22:46:58Z</time></trkpt><trkpt lat="59.5576760173" lon="31.2613723800"><ele>245.27</ele><time>2026-09-02T22:46:59Z</time></trkpt><trkpt lat="59.5576780289" lon="31.2613784987"><ele>245.27</ele><time>2026-09-02T22:47:00Z</time></trkpt><trkpt lat="59.5576796215" lon="31.2613830250"><ele>245.27</ele><time>2026-09-02T22:47:01Z</time></trkpt><trkpt lat="59.5576801244" lon="31.2613860425"><ele>245.27</ele><time>2026-09-02T22:47:02Z</time></trkpt><trkpt lat="59.5576825552" lon="31.2613906525"><ele>245.27</ele><time>2026-09-02T22:47:03Z</time></trkpt><trkpt lat="59.5576814655" lon="31.2613892276"><ele>245.27</ele><time>2026-09-02T22:47:04Z</time></trkpt><trkpt lat="59.5576835610" lon="31.2613913231"><ele>244.79</ele><time>2026-09-02T22:47:05Z</time></trkpt><trkpt lat="59.5576859917" lon="31.2613899820"><ele>244.79</ele><time>2026-09-02T22:47:06Z</time></trkpt><trkpt lat="59.5576880872" lon="31.2613889761"><ele>244.79</ele><time>2026-09-02T22:47:07Z</time></trkpt><trkpt lat="59.5576909371" lon="31.2613924965"><ele>244.79</ele><time>2026-09-02T22:47:08Z</time></trkpt><trkpt lat="59.5576925296" lon="31.2613942567"><ele>244.79</ele><time>2026-09-02T22:47:09Z</time></trkpt><trkpt lat="59.5576956309" lon="31.2614011299"><ele>244.79</ele><time>2026-09-02T22:47:10Z</time></trkpt><trkpt lat="59.5576996543" lon="31.2614107691"><ele>244.79</ele><time>2026-09-02T22:47:11Z</time></trkpt><trkpt lat="59.5576986484" lon="31.2614069972"><ele>244.79</ele><time>2026-09-02T22:47:12Z</time></trkpt><trkpt lat="59.5577013306" lon="31.2614161335"><ele>244.79</ele><time>2026-09-02T22:47:13Z</time></trkpt><trkpt lat="59.5577026717" lon="31.2614272814"><ele>244.79</ele><time>2026-09-02T22:47:14Z</time></trkpt><trkpt lat="59.5577048510" lon="31.2614370883"><ele>244.79</ele><time>2026-09-02T22:47:15Z</time></trkpt><trkpt lat="59.5577080362" lon="31.2614508346"><ele>244.79</ele><time>2026-09-02T22:47:16Z</time></trkpt><trkpt lat="59.5577091258" lon="31.2614631560"><ele>244.79</ele><time>2026-09-02T22:47:17Z</time></trkpt><trkpt lat="59.5577122271" lon="31.2614773214"><ele>244.79</ele><time>2026-09-02T22:47:18Z</time></trkpt><trkpt lat="59.5577141549" lon="31.2614927441"><ele>244.79</ele><time>2026-09-02T22:47:19Z</time></trkpt><trkpt lat="59.5577157475" lon="31.2615052331"><ele>244.79</ele><time>2026-09-02T22:47:20Z</time></trkpt><trkpt lat="59.5577167533" lon="31.2615193985"><ele>244.79</ele><time>2026-09-02T22:47:21Z</time></trkpt><trkpt lat="59.5577184297" lon="31.2615365814"><ele>244.79</ele><time>2026-09-02T22:47:22Z</time></trkpt><trkpt lat="59.5577212796" lon="31.2615545187"><ele>244.79</ele><time>2026-09-02T22:47:23Z</time></trkpt><trkpt lat="59.5577248838" lon="31.2615718693"><ele>244.79</ele><time>2026-09-02T22:47:24Z</time></trkpt><trkpt lat="59.5577288233" lon="31.2615862861"><ele>244.79</ele><time>2026-09-02T22:47:25Z</time></trkpt><trkpt lat="59.5577279851" lon="31.2616030499"><ele>244.79</ele><time>2026-09-02T22:47:26Z</time></trkpt><trkpt lat="59.5577287395" lon="31.2616203167"><ele>244.79</ele><time>2026-09-02T22:47:27Z</time></trkpt><trkpt lat="59.5577273984" lon="31.2616351526"><ele>244.79</ele><time>2026-09-02T22:47:28Z</time></trkpt><trkpt lat="59.5577238780" lon="31.2616523355"><ele>244.79</ele><time>2026-09-02T22:47:29Z</time></trkpt><trkpt lat="59.5577205252" lon="31.2616658304"><ele>244.31</ele><time>2026-09-02T22:47:30Z</time></trkpt><trkpt lat="59.5577137358" lon="31.2616767269"><ele>244.31</ele><time>2026-09-02T22:47:31Z</time></trkpt><trkpt lat="59.5577054378" lon="31.2616892997"><ele>244.31</ele><time>2026-09-02T22:47:32Z</time></trkpt><trkpt lat="59.5576979779" lon="31.2616980169"><ele>244.31</ele><time>2026-09-02T22:47:33Z</time></trkpt><trkpt lat="59.5576903503" lon="31.2617073208"><ele>244.31</ele><time>2026-09-02T22:47:34Z</time></trkpt><trkpt lat="59.5576801244" lon="31.2617241684"><ele>244.31</ele><time>2026-09-02T22:47:35Z</time></trkpt><trkpt lat="59.5576740894" lon="31.2617344782"><ele>244.31</ele><time>2026-09-02T22:47:36Z</time></trkpt><trkpt lat="59.5576649532" lon="31.2617503200"><ele>244.31</ele><time>2026-09-02T22:47:37Z</time></trkpt><trkpt lat="59.5576585829" lon="31.2617614679"><ele>244.31</ele><time>2026-09-02T22:47:38Z</time></trkpt><trkpt lat="59.5576516259" lon="31.2617744599"><ele>244.31</ele><time>2026-09-02T22:47:39Z</time></trkpt><trkpt lat="59.5576444175" lon="31.2617838476"><ele>244.31</ele><time>2026-09-02T22:47:40Z</time></trkpt><trkpt lat="59.5576345269" lon="31.2617986836"><ele>244.31</ele><time>2026-09-02T22:47:41Z</time></trkpt><trkpt lat="59.5576222893" lon="31.2618186325"><ele>244.31</ele><time>2026-09-02T22:47:42Z</time></trkpt><trkpt lat="59.5576075371" lon="31.2618431915"><ele>244.31</ele><time>2026-09-02T22:47:43Z</time></trkpt><trkpt lat="59.5575995743" lon="31.2618572731"><ele>244.31</ele><time>2026-09-02T22:47:44Z</time></trkpt><trkpt lat="59.5575904381" lon="31.2618695945"><ele>244.31</ele><time>2026-09-02T22:47:45Z</time></trkpt><trkpt lat="59.5575842354" lon="31.2618776411"><ele>244.31</ele><time>2026-09-02T22:47:46Z</time></trkpt><trkpt lat="59.5575760212" lon="31.2618850172"><ele>244.31</ele><time>2026-09-02T22:47:47Z</time></trkpt><trkpt lat="59.5575628616" lon="31.2618942373"><ele>244.31</ele><time>2026-09-02T22:47:48Z</time></trkpt><trkpt lat="59.5575486962" lon="31.2619007751"><ele>244.31</ele><time>2026-09-02T22:47:49Z</time></trkpt><trkpt lat="59.5575387217" lon="31.2619044632"><ele>244.31</ele><time>2026-09-02T22:47:50Z</time></trkpt><trkpt lat="59.5575314295" lon="31.2619081512"><ele>244.31</ele><time>2026-09-02T22:47:51Z</time></trkpt><trkpt lat="59.5575245563" lon="31.2619158626"><ele>244.31</ele><time>2026-09-02T22:47:52Z</time></trkpt><trkpt lat="59.5575165935" lon="31.2619183771"><ele>244.31</ele><time>2026-09-02T22:47:53Z</time></trkpt><trkpt lat="59.5575103909" lon="31.2619252503"><ele>244.31</ele><time>2026-09-02T22:47:54Z</time></trkpt><trkpt lat="59.5575052779" lon="31.2619347218"><ele>244.31</ele><time>2026-09-02T22:47:55Z</time></trkpt><trkpt lat="59.5574996620" lon="31.2619485520"><ele>244.31</ele><time>2026-09-02T22:47:56Z</time></trkpt><trkpt lat="59.5574943814" lon="31.2619600352"><ele>244.31</ele><time>2026-09-02T22:47:57Z</time></trkpt><trkpt lat="59.5574928727" lon="31.2619681656"><ele>244.31</ele><time>2026-09-02T22:47:58Z</time></trkpt><trkpt lat="59.5574879274" lon="31.2619753741"><ele>244.79</ele><time>2026-09-02T22:47:59Z</time></trkpt><trkpt lat="59.5574841555" lon="31.2619843427"><ele>244.79</ele><time>2026-09-02T22:48:00Z</time></trkpt><trkpt lat="59.5574784558" lon="31.2619927246"><ele>244.79</ele><time>2026-09-02T22:48:01Z</time></trkpt><trkpt lat="59.5574744325" lon="31.2619936466"><ele>244.79</ele><time>2026-09-02T22:48:02Z</time></trkpt><trkpt lat="59.5574721694" lon="31.2619965803"><ele>244.31</ele><time>2026-09-02T22:48:03Z</time></trkpt><trkpt lat="59.5574706607" lon="31.2620008551"><ele>244.31</ele><time>2026-09-02T22:48:04Z</time></trkpt><trkpt lat="59.5574703254" lon="31.2620049622"><ele>244.31</ele><time>2026-09-02T22:48:05Z</time></trkpt><trkpt lat="59.5574688166" lon="31.2620034534"><ele>244.31</ele><time>2026-09-02T22:48:06Z</time></trkpt><trkpt lat="59.5574671403" lon="31.2620030344"><ele>244.31</ele><time>2026-09-02T22:48:07Z</time></trkpt><trkpt lat="59.5574598480" lon="31.2619930599"><ele>244.31</ele><time>2026-09-02T22:48:08Z</time></trkpt><trkpt lat="59.5574555732" lon="31.2619899586"><ele>244.31</ele><time>2026-09-02T22:48:09Z</time></trkpt><trkpt lat="59.5574521367" lon="31.2619884498"><ele>244.31</ele><time>2026-09-02T22:48:10Z</time></trkpt><trkpt lat="59.5574495383" lon="31.2619892880"><ele>244.31</ele><time>2026-09-02T22:48:11Z</time></trkpt><trkpt lat="59.5574452635" lon="31.2619932275"><ele>244.31</ele><time>2026-09-02T22:48:12Z</time></trkpt><trkpt lat="59.5574406534" lon="31.2619982567"><ele>244.31</ele><time>2026-09-02T22:48:13Z</time></trkpt><trkpt lat="59.5574374683" lon="31.2620015256"><ele>244.31</ele><time>2026-09-02T22:48:14Z</time></trkpt><trkpt lat="59.5574319363" lon="31.2620103266"><ele>244.31</ele><time>2026-09-02T22:48:15Z</time></trkpt><trkpt lat="59.5574261528" lon="31.2620201334"><ele>244.31</ele><time>2026-09-02T22:48:16Z</time></trkpt><trkpt lat="59.5574214589" lon="31.2620325387"><ele>244.31</ele><time>2026-09-02T22:48:17Z</time></trkpt><trkpt lat="59.5574157592" lon="31.2620477937"><ele>244.31</ele><time>2026-09-02T22:48:18Z</time></trkpt><trkpt lat="59.5574073773" lon="31.2620624620"><ele>244.31</ele><time>2026-09-02T22:48:19Z</time></trkpt><trkpt lat="59.5574022643" lon="31.2620741967"><ele>244.31</ele><time>2026-09-02T22:48:20Z</time></trkpt><trkpt lat="59.5573974866" lon="31.2620811537"><ele>244.31</ele><time>2026-09-02T22:48:21Z</time></trkpt><trkpt lat="59.5573928766" lon="31.2620836683"><ele>244.31</ele><time>2026-09-02T22:48:22Z</time></trkpt><trkpt lat="59.5573865902" lon="31.2620886974"><ele>244.31</ele><time>2026-09-02T22:48:23Z</time></trkpt><trkpt lat="59.5573795494" lon="31.2620903738"><ele>244.31</ele><time>2026-09-02T22:48:24Z</time></trkpt><trkpt lat="59.5573743526" lon="31.2620945647"><ele>244.31</ele><time>2026-09-02T22:48:25Z</time></trkpt><trkpt lat="59.5573681500" lon="31.2620980851"><ele>244.31</ele><time>2026-09-02T22:48:26Z</time></trkpt><trkpt lat="59.5573618636" lon="31.2621033657"><ele>244.31</ele><time>2026-09-02T22:48:27Z</time></trkpt><trkpt lat="59.5573552419" lon="31.2621092331"><ele>244.31</ele><time>2026-09-02T22:48:28Z</time></trkpt><trkpt lat="59.5573492907" lon="31.2621181179"><ele>244.31</ele><time>2026-09-02T22:48:29Z</time></trkpt><trkpt lat="59.5573415793" lon="31.2621220574"><ele>244.31</ele><time>2026-09-02T22:48:30Z</time></trkpt><trkpt lat="59.5573342871" lon="31.2621249910"><ele>244.31</ele><time>2026-09-02T22:48:31Z</time></trkpt><trkpt lat="59.5573282521" lon="31.2621273380"><ele>244.31</ele><time>2026-09-02T22:48:32Z</time></trkpt><trkpt lat="59.5573196188" lon="31.2621289305"><ele>244.31</ele><time>2026-09-02T22:48:33Z</time></trkpt><trkpt lat="59.5573099796" lon="31.2621305231"><ele>244.31</ele><time>2026-09-02T22:48:34Z</time></trkpt><trkpt lat="59.5572974905" lon="31.2621383183"><ele>244.31</ele><time>2026-09-02T22:48:35Z</time></trkpt><trkpt lat="59.5572892763" lon="31.2621469516"><ele>244.31</ele><time>2026-09-02T22:48:36Z</time></trkpt><trkpt lat="59.5572803915" lon="31.2621524837"><ele>244.31</ele><time>2026-09-02T22:48:37Z</time></trkpt><trkpt lat="59.5572705846" lon="31.2621551659"><ele>244.31</ele><time>2026-09-02T22:48:38Z</time></trkpt><trkpt lat="59.5572617836" lon="31.2621566746"><ele>244.31</ele><time>2026-09-02T22:48:39Z</time></trkpt><trkpt lat="59.5572511386" lon="31.2621603627"><ele>244.31</ele><time>2026-09-02T22:48:40Z</time></trkpt><trkpt lat="59.5572436787" lon="31.2621663976"><ele>244.31</ele><time>2026-09-02T22:48:41Z</time></trkpt><trkpt lat="59.5572366379" lon="31.2621717621"><ele>244.31</ele><time>2026-09-02T22:48:42Z</time></trkpt><trkpt lat="59.5572313573" lon="31.2621789705"><ele>244.31</ele><time>2026-09-02T22:48:43Z</time></trkpt><trkpt lat="59.5572225563" lon="31.2621875200"><ele>244.31</ele><time>2026-09-02T22:48:44Z</time></trkpt><trkpt lat="59.5572189521" lon="31.2621937227"><ele>244.31</ele><time>2026-09-02T22:48:45Z</time></trkpt><trkpt lat="59.5572154317" lon="31.2621982489"><ele>244.31</ele><time>2026-09-02T22:48:46Z</time></trkpt><trkpt lat="59.5572150964" lon="31.2621988356"><ele>244.31</ele><time>2026-09-02T22:48:47Z</time></trkpt><trkpt lat="59.5572130848" lon="31.2621982489"><ele>244.31</ele><time>2026-09-02T22:48:48Z</time></trkpt><trkpt lat="59.5572127495" lon="31.2622004282"><ele>244.31</ele><time>2026-09-02T22:48:49Z</time></trkpt><trkpt lat="59.5572103187" lon="31.2621989194"><ele>244.31</ele><time>2026-09-02T22:48:50Z</time></trkpt><trkpt lat="59.5572080556" lon="31.2621954829"><ele>244.31</ele><time>2026-09-02T22:48:51Z</time></trkpt><trkpt lat="59.5572059602" lon="31.2621959858"><ele>244.31</ele><time>2026-09-02T22:48:52Z</time></trkpt><trkpt lat="59.5572048705" lon="31.2621964887"><ele>244.31</ele><time>2026-09-02T22:48:53Z</time></trkpt><trkpt lat="59.5572010987" lon="31.2621957343"><ele>244.31</ele><time>2026-09-02T22:48:54Z</time></trkpt><trkpt lat="59.5571966562" lon="31.2621963210"><ele>244.31</ele><time>2026-09-02T22:48:55Z</time></trkpt><trkpt lat="59.5571925491" lon="31.2621939741"><ele>244.31</ele><time>2026-09-02T22:48:56Z</time></trkpt><trkpt lat="59.5571900345" lon="31.2621902861"><ele>244.79</ele><time>2026-09-02T22:48:57Z</time></trkpt><trkpt lat="59.5571853407" lon="31.2621868495"><ele>244.79</ele><time>2026-09-02T22:48:58Z</time></trkpt><trkpt lat="59.5571833290" lon="31.2621843349"><ele>244.79</ele><time>2026-09-02T22:48:59Z</time></trkpt><trkpt lat="59.5571805630" lon="31.2621843349"><ele>244.79</ele><time>2026-09-02T22:49:00Z</time></trkpt><trkpt lat="59.5571754500" lon="31.2621862628"><ele>244.79</ele><time>2026-09-02T22:49:01Z</time></trkpt><trkpt lat="59.5571682416" lon="31.2621892802"><ele>244.79</ele><time>2026-09-02T22:49:02Z</time></trkpt><trkpt lat="59.5571647212" lon="31.2621902861"><ele>244.79</ele><time>2026-09-02T22:49:03Z</time></trkpt><trkpt lat="59.5571604464" lon="31.2621928845"><ele>244.79</ele><time>2026-09-02T22:49:04Z</time></trkpt><trkpt lat="59.5571533218" lon="31.2621987518"><ele>244.79</ele><time>2026-09-02T22:49:05Z</time></trkpt><trkpt lat="59.5571498852" lon="31.2622125819"><ele>244.79</ele><time>2026-09-02T22:49:06Z</time></trkpt><trkpt lat="59.5571464486" lon="31.2622171920"><ele>244.31</ele><time>2026-09-02T22:49:07Z</time></trkpt><trkpt lat="59.5571386535" lon="31.2622184493"><ele>244.31</ele><time>2026-09-02T22:49:08Z</time></trkpt><trkpt lat="59.5571291819" lon="31.2622175273"><ele>244.31</ele><time>2026-09-02T22:49:09Z</time></trkpt><trkpt lat="59.5571207162" lon="31.2622157671"><ele>244.31</ele><time>2026-09-02T22:49:10Z</time></trkpt><trkpt lat="59.5571159385" lon="31.2622179464"><ele>244.31</ele><time>2026-09-02T22:49:11Z</time></trkpt><trkpt lat="59.5571124181" lon="31.2622212991"><ele>244.31</ele><time>2026-09-02T22:49:12Z</time></trkpt><trkpt lat="59.5571078919" lon="31.2622280885"><ele>244.31</ele><time>2026-09-02T22:49:13Z</time></trkpt><trkpt lat="59.5571011864" lon="31.2622364704"><ele>244.31</ele><time>2026-09-02T22:49:14Z</time></trkpt><trkpt lat="59.5570924692" lon="31.2622397393"><ele>244.31</ele><time>2026-09-02T22:49:15Z</time></trkpt><trkpt lat="59.5570874400" lon="31.2622487918"><ele>244.31</ele><time>2026-09-02T22:49:16Z</time></trkpt><trkpt lat="59.5570782200" lon="31.2622583471"><ele>244.31</ele><time>2026-09-02T22:49:17Z</time></trkpt><trkpt lat="59.5570706762" lon="31.2622680701"><ele>244.31</ele><time>2026-09-02T22:49:18Z</time></trkpt><trkpt lat="59.5570640545" lon="31.2622789666"><ele>244.31</ele><time>2026-09-02T22:49:19Z</time></trkpt><trkpt lat="59.5570571814" lon="31.2622905336"><ele>244.31</ele><time>2026-09-02T22:49:20Z</time></trkpt><trkpt lat="59.5570474584" lon="31.2622996699"><ele>244.31</ele><time>2026-09-02T22:49:21Z</time></trkpt><trkpt lat="59.5570388250" lon="31.2623037770"><ele>244.31</ele><time>2026-09-02T22:49:22Z</time></trkpt><trkpt lat="59.5570303593" lon="31.2623066269"><ele>244.31</ele><time>2026-09-02T22:49:23Z</time></trkpt><trkpt lat="59.5570201334" lon="31.2623073813"><ele>244.31</ele><time>2026-09-02T22:49:24Z</time></trkpt><trkpt lat="59.5570087340" lon="31.2623047829"><ele>244.31</ele><time>2026-09-02T22:49:25Z</time></trkpt><trkpt lat="59.5569986757" lon="31.2623037770"><ele>243.83</ele><time>2026-09-02T22:49:26Z</time></trkpt><trkpt lat="59.5569900423" lon="31.2623066269"><ele>243.83</ele><time>2026-09-02T22:49:27Z</time></trkpt><trkpt lat="59.5569817442" lon="31.2623090576"><ele>243.83</ele><time>2026-09-02T22:49:28Z</time></trkpt><trkpt lat="59.5569730271" lon="31.2623113208"><ele>244.31</ele><time>2026-09-02T22:49:29Z</time></trkpt><trkpt lat="59.5569654834" lon="31.2623150926"><ele>244.31</ele><time>2026-09-02T22:49:30Z</time></trkpt><trkpt lat="59.5569591969" lon="31.2623147573"><ele>244.31</ele><time>2026-09-02T22:49:31Z</time></trkpt><trkpt lat="59.5569519885" lon="31.2623158470"><ele>244.31</ele><time>2026-09-02T22:49:32Z</time></trkpt><trkpt lat="59.5569434389" lon="31.2623155955"><ele>244.31</ele><time>2026-09-02T22:49:33Z</time></trkpt><trkpt lat="59.5569370687" lon="31.2623145897"><ele>244.31</ele><time>2026-09-02T22:49:34Z</time></trkpt><trkpt lat="59.5569315366" lon="31.2623160984"><ele>244.31</ele><time>2026-09-02T22:49:35Z</time></trkpt><trkpt lat="59.5569248311" lon="31.2623197865"><ele>244.31</ele><time>2026-09-02T22:49:36Z</time></trkpt><trkpt lat="59.5569179580" lon="31.2623267435"><ele>244.31</ele><time>2026-09-02T22:49:37Z</time></trkpt><trkpt lat="59.5569127612" lon="31.2623326946"><ele>244.31</ele><time>2026-09-02T22:49:38Z</time></trkpt><trkpt lat="59.5569115877" lon="31.2623451836"><ele>244.31</ele><time>2026-09-02T22:49:39Z</time></trkpt><trkpt lat="59.5569102466" lon="31.2623443455"><ele>244.31</ele><time>2026-09-02T22:49:40Z</time></trkpt><trkpt lat="59.5569030382" lon="31.2623491231"><ele>244.31</ele><time>2026-09-02T22:49:41Z</time></trkpt><trkpt lat="59.5568994340" lon="31.2623526435"><ele>243.83</ele><time>2026-09-02T22:49:42Z</time></trkpt><trkpt lat="59.5568964165" lon="31.2623557448"><ele>243.83</ele><time>2026-09-02T22:49:43Z</time></trkpt><trkpt lat="59.5568905491" lon="31.2623589300"><ele>243.83</ele><time>2026-09-02T22:49:44Z</time></trkpt><trkpt lat="59.5568936504" lon="31.2623564992"><ele>243.83</ele><time>2026-09-02T22:49:45Z</time></trkpt><trkpt lat="59.5568897948" lon="31.2623587623"><ele>243.83</ele><time>2026-09-02T22:49:46Z</time></trkpt><trkpt lat="59.5568872802" lon="31.2623592652"><ele>243.83</ele><time>2026-09-02T22:49:47Z</time></trkpt><trkpt lat="59.5568832569" lon="31.2623620313"><ele>243.83</ele><time>2026-09-02T22:49:48Z</time></trkpt><trkpt lat="59.5568813290" lon="31.2623657193"><ele>243.83</ele><time>2026-09-02T22:49:49Z</time></trkpt><trkpt lat="59.5568790659" lon="31.2623716705"><ele>243.83</ele><time>2026-09-02T22:49:50Z</time></trkpt><trkpt lat="59.5568762999" lon="31.2623781245"><ele>243.83</ele><time>2026-09-02T22:49:51Z</time></trkpt><trkpt lat="59.5568745397" lon="31.2623860873"><ele>243.83</ele><time>2026-09-02T22:49:52Z</time></trkpt><trkpt lat="59.5568725280" lon="31.2623937987"><ele>243.83</ele><time>2026-09-02T22:49:53Z</time></trkpt><trkpt lat="59.5568694267" lon="31.2624012586"><ele>243.83</ele><time>2026-09-02T22:49:54Z</time></trkpt><trkpt lat="59.5568683371" lon="31.2624075450"><ele>243.83</ele><time>2026-09-02T22:49:55Z</time></trkpt><trkpt lat="59.5568649843" lon="31.2624184415"><ele>243.83</ele><time>2026-09-02T22:49:56Z</time></trkpt><trkpt lat="59.5568648167" lon="31.2624286674"><ele>243.83</ele><time>2026-09-02T22:49:57Z</time></trkpt><trkpt lat="59.5568633918" lon="31.2624340318"><ele>243.83</ele><time>2026-09-02T22:49:58Z</time></trkpt><trkpt lat="59.5568645652" lon="31.2624428328"><ele>243.83</ele><time>2026-09-02T22:49:59Z</time></trkpt><trkpt lat="59.5568655711" lon="31.2624497898"><ele>243.83</ele><time>2026-09-02T22:50:00Z</time></trkpt><trkpt lat="59.5568637270" lon="31.2624554895"><ele>243.83</ele><time>2026-09-02T22:50:01Z</time></trkpt><trkpt lat="59.5568654872" lon="31.2624555733"><ele>243.83</ele><time>2026-09-02T22:50:02Z</time></trkpt><trkpt lat="59.5568633918" lon="31.2624624465"><ele>243.83</ele><time>2026-09-02T22:50:03Z</time></trkpt><trkpt lat="59.5568602905" lon="31.2624683976"><ele>243.83</ele><time>2026-09-02T22:50:04Z</time></trkpt><trkpt lat="59.5568574406" lon="31.2624773663"><ele>243.83</ele><time>2026-09-02T22:50:05Z</time></trkpt><trkpt lat="59.5568566862" lon="31.2624876760"><ele>243.83</ele><time>2026-09-02T22:50:06Z</time></trkpt><trkpt lat="59.5568565186" lon="31.2624933757"><ele>243.83</ele><time>2026-09-02T22:50:07Z</time></trkpt><trkpt lat="59.5568555966" lon="31.2624991592"><ele>243.83</ele><time>2026-09-02T22:50:08Z</time></trkpt><trkpt lat="59.5568555966" lon="31.2625069544"><ele>243.83</ele><time>2026-09-02T22:50:09Z</time></trkpt><trkpt lat="59.5568597876" lon="31.2625206169"><ele>243.83</ele><time>2026-09-02T22:50:10Z</time></trkpt><trkpt lat="59.5568608772" lon="31.2625309266"><ele>243.83</ele><time>2026-09-02T22:50:11Z</time></trkpt><trkpt lat="59.5568577759" lon="31.2625443377"><ele>243.83</ele><time>2026-09-02T22:50:12Z</time></trkpt><trkpt lat="59.5568540879" lon="31.2625511270"><ele>243.83</ele><time>2026-09-02T22:50:13Z</time></trkpt><trkpt lat="59.5568489749" lon="31.2625587545"><ele>243.83</ele><time>2026-09-02T22:50:14Z</time></trkpt><trkpt lat="59.5568419341" lon="31.2625648733"><ele>243.83</ele><time>2026-09-02T22:50:15Z</time></trkpt><trkpt lat="59.5568343904" lon="31.2625723332"><ele>243.83</ele><time>2026-09-02T22:50:16Z</time></trkpt><trkpt lat="59.5568278525" lon="31.2625782844"><ele>243.83</ele><time>2026-09-02T22:50:17Z</time></trkpt><trkpt lat="59.5568227395" lon="31.2625803798"><ele>243.83</ele><time>2026-09-02T22:50:18Z</time></trkpt><trkpt lat="59.5568165369" lon="31.2625865825"><ele>243.83</ele><time>2026-09-02T22:50:19Z</time></trkpt><trkpt lat="59.5568125974" lon="31.2625888456"><ele>243.83</ele><time>2026-09-02T22:50:20Z</time></trkpt><trkpt lat="59.5568085741" lon="31.2625931203"><ele>243.83</ele><time>2026-09-02T22:50:21Z</time></trkpt><trkpt lat="59.5568085741" lon="31.2625907734"><ele>243.83</ele><time>2026-09-02T22:50:22Z</time></trkpt><trkpt lat="59.5568060596" lon="31.2625948805"><ele>243.83</ele><time>2026-09-02T22:50:23Z</time></trkpt><trkpt lat="59.5568055566" lon="31.2626025919"><ele>243.83</ele><time>2026-09-02T22:50:24Z</time></trkpt><trkpt lat="59.5568080712" lon="31.2626148295"><ele>243.83</ele><time>2026-09-02T22:50:25Z</time></trkpt><trkpt lat="59.5568065625" lon="31.2626242172"><ele>243.83</ele><time>2026-09-02T22:50:26Z</time></trkpt><trkpt lat="59.5568054728" lon="31.2626394723"><ele>243.83</ele><time>2026-09-02T22:50:27Z</time></trkpt><trkpt lat="59.5568054728" lon="31.2626544759"><ele>243.83</ele><time>2026-09-02T22:50:28Z</time></trkpt><trkpt lat="59.5568057243" lon="31.2626666296"><ele>243.83</ele><time>2026-09-02T22:50:29Z</time></trkpt><trkpt lat="59.5568058919" lon="31.2626794539"><ele>243.83</ele><time>2026-09-02T22:50:30Z</time></trkpt><trkpt lat="59.5568034612" lon="31.2626955472"><ele>243.35</ele><time>2026-09-02T22:50:31Z</time></trkpt><trkpt lat="59.5568035450" lon="31.2627030909"><ele>243.35</ele><time>2026-09-02T22:50:32Z</time></trkpt><trkpt lat="59.5568027906" lon="31.2627176754"><ele>243.35</ele><time>2026-09-02T22:50:33Z</time></trkpt><trkpt lat="59.5568009466" lon="31.2627337687"><ele>243.35</ele><time>2026-09-02T22:50:34Z</time></trkpt><trkpt lat="59.5568002760" lon="31.2627503648"><ele>243.35</ele><time>2026-09-02T22:50:35Z</time></trkpt><trkpt lat="59.5567951631" lon="31.2627623510"><ele>243.35</ele><time>2026-09-02T22:50:36Z</time></trkpt><trkpt lat="59.5567894634" lon="31.2627791986"><ele>243.35</ele><time>2026-09-02T22:50:37Z</time></trkpt><trkpt lat="59.5567835961" lon="31.2627952918"><ele>243.35</ele><time>2026-09-02T22:50:38Z</time></trkpt><trkpt lat="59.5567785669" lon="31.2628080323"><ele>243.35</ele><time>2026-09-02T22:50:39Z</time></trkpt><trkpt lat="59.5567731187" lon="31.2628214434"><ele>243.35</ele><time>2026-09-02T22:50:40Z</time></trkpt><trkpt lat="59.5567651559" lon="31.2628372852"><ele>243.35</ele><time>2026-09-02T22:50:41Z</time></trkpt><trkpt lat="59.5567590371" lon="31.2628529593"><ele>243.35</ele><time>2026-09-02T22:50:42Z</time></trkpt><trkpt lat="59.5567545947" lon="31.2628677953"><ele>243.35</ele><time>2026-09-02T22:50:43Z</time></trkpt><trkpt lat="59.5567487273" lon="31.2628797814"><ele>243.35</ele><time>2026-09-02T22:50:44Z</time></trkpt><trkpt lat="59.5567372441" lon="31.2628932763"><ele>243.35</ele><time>2026-09-02T22:50:45Z</time></trkpt><trkpt lat="59.5567297842" lon="31.2629005685"><ele>243.35</ele><time>2026-09-02T22:50:46Z</time></trkpt><trkpt lat="59.5567230787" lon="31.2629111297"><ele>243.35</ele><time>2026-09-02T22:50:47Z</time></trkpt><trkpt lat="59.5567133557" lon="31.2629233673"><ele>243.35</ele><time>2026-09-02T22:50:48Z</time></trkpt><trkpt lat="59.5567033812" lon="31.2629346829"><ele>243.35</ele><time>2026-09-02T22:50:49Z</time></trkpt><trkpt lat="59.5566933230" lon="31.2629504409"><ele>242.87</ele><time>2026-09-02T22:50:50Z</time></trkpt><trkpt lat="59.5566855278" lon="31.2629611697"><ele>242.87</ele><time>2026-09-02T22:50:51Z</time></trkpt><trkpt lat="59.5566774812" lon="31.2629653607"><ele>242.87</ele><time>2026-09-02T22:50:52Z</time></trkpt><trkpt lat="59.5566687640" lon="31.2629699707"><ele>242.87</ele><time>2026-09-02T22:50:53Z</time></trkpt><trkpt lat="59.5566606335" lon="31.2629750837"><ele>242.87</ele><time>2026-09-02T22:50:54Z</time></trkpt><trkpt lat="59.5566541795" lon="31.2629819568"><ele>242.87</ele><time>2026-09-02T22:50:55Z</time></trkpt><trkpt lat="59.5566465519" lon="31.2629888300"><ele>242.87</ele><time>2026-09-02T22:50:56Z</time></trkpt><trkpt lat="59.5566395950" lon="31.2629954517"><ele>242.87</ele><time>2026-09-02T22:50:57Z</time></trkpt><trkpt lat="59.5566317998" lon="31.2630002294"><ele>242.87</ele><time>2026-09-02T22:50:58Z</time></trkpt><trkpt lat="59.5566241723" lon="31.2630095333"><ele>242.87</ele><time>2026-09-02T22:50:59Z</time></trkpt><trkpt lat="59.5566194784" lon="31.2630218547"><ele>242.87</ele><time>2026-09-02T22:51:00Z</time></trkpt><trkpt lat="59.5566125214" lon="31.2630320806"><ele>242.87</ele><time>2026-09-02T22:51:01Z</time></trkpt><trkpt lat="59.5566063188" lon="31.2630389538"><ele>242.87</ele><time>2026-09-02T22:51:02Z</time></trkpt><trkpt lat="59.5566013735" lon="31.2630457431"><ele>242.87</ele><time>2026-09-02T22:51:03Z</time></trkpt><trkpt lat="59.5566011220" lon="31.2630473357"><ele>242.87</ele><time>2026-09-02T22:51:04Z</time></trkpt><trkpt lat="59.5565995295" lon="31.2630522810"><ele>242.87</ele><time>2026-09-02T22:51:05Z</time></trkpt><trkpt lat="59.5565969311" lon="31.2630639318"><ele>242.87</ele><time>2026-09-02T22:51:06Z</time></trkpt><trkpt lat="59.5565947518" lon="31.2630744930"><ele>242.87</ele><time>2026-09-02T22:51:07Z</time></trkpt><trkpt lat="59.5565929916" lon="31.2630828749"><ele>242.87</ele><time>2026-09-02T22:51:08Z</time></trkpt><trkpt lat="59.5565932430" lon="31.2630824558"><ele>242.87</ele><time>2026-09-02T22:51:09Z</time></trkpt><trkpt lat="59.5565918181" lon="31.2630868983"><ele>242.87</ele><time>2026-09-02T22:51:10Z</time></trkpt><trkpt lat="59.5565919857" lon="31.2630864792"><ele>242.87</ele><time>2026-09-02T22:51:11Z</time></trkpt><trkpt lat="59.5565913990" lon="31.2630878203"><ele>242.87</ele><time>2026-09-02T22:51:12Z</time></trkpt><trkpt lat="59.5565894712" lon="31.2630891614"><ele>242.87</ele><time>2026-09-02T22:51:13Z</time></trkpt><trkpt lat="59.5565871242" lon="31.2630896643"><ele>242.87</ele><time>2026-09-02T22:51:14Z</time></trkpt><trkpt lat="59.5565842744" lon="31.2630934361"><ele>242.87</ele><time>2026-09-02T22:51:15Z</time></trkpt><trkpt lat="59.5565815922" lon="31.2630992197"><ele>242.87</ele><time>2026-09-02T22:51:16Z</time></trkpt><trkpt lat="59.5565821789" lon="31.2630948611"><ele>242.87</ele><time>2026-09-02T22:51:17Z</time></trkpt><trkpt lat="59.5565800834" lon="31.2631000578"><ele>242.87</ele><time>2026-09-02T22:51:18Z</time></trkpt><trkpt lat="59.5565791614" lon="31.2630992197"><ele>242.87</ele><time>2026-09-02T22:51:19Z</time></trkpt><trkpt lat="59.5565778203" lon="31.2630980462"><ele>242.87</ele><time>2026-09-02T22:51:20Z</time></trkpt><trkpt lat="59.5565788262" lon="31.2630959507"><ele>242.87</ele><time>2026-09-02T22:51:21Z</time></trkpt><trkpt lat="59.5565788262" lon="31.2630979624"><ele>242.87</ele><time>2026-09-02T22:51:22Z</time></trkpt><trkpt lat="59.5565785747" lon="31.2631026562"><ele>242.87</ele><time>2026-09-02T22:51:23Z</time></trkpt><trkpt lat="59.5565735456" lon="31.2631008960"><ele>242.87</ele><time>2026-09-02T22:51:24Z</time></trkpt><trkpt lat="59.5565772336" lon="31.2631035782"><ele>242.87</ele><time>2026-09-02T22:51:25Z</time></trkpt><trkpt lat="59.5565737970" lon="31.2631031591"><ele>242.87</ele><time>2026-09-02T22:51:26Z</time></trkpt><trkpt lat="59.5565753896" lon="31.2631034944"><ele>242.87</ele><time>2026-09-02T22:51:27Z</time></trkpt><trkpt lat="59.5565763954" lon="31.2631046679"><ele>242.87</ele><time>2026-09-02T22:51:28Z</time></trkpt><trkpt lat="59.5565732941" lon="31.2631040812"><ele>243.35</ele><time>2026-09-02T22:51:29Z</time></trkpt><trkpt lat="59.5565700252" lon="31.2631034944"><ele>243.35</ele><time>2026-09-02T22:51:30Z</time></trkpt><trkpt lat="59.5565683488" lon="31.2631058414"><ele>243.35</ele><time>2026-09-02T22:51:31Z</time></trkpt><trkpt lat="59.5565662533" lon="31.2631049193"><ele>243.35</ele><time>2026-09-02T22:51:32Z</time></trkpt><trkpt lat="59.5565639902" lon="31.2631051708"><ele>243.35</ele><time>2026-09-02T22:51:33Z</time></trkpt><trkpt lat="59.5565632358" lon="31.2631049193"><ele>243.83</ele><time>2026-09-02T22:51:34Z</time></trkpt><trkpt lat="59.5565609727" lon="31.2631064281"><ele>243.83</ele><time>2026-09-02T22:51:35Z</time></trkpt><trkpt lat="59.5565588772" lon="31.2631112896"><ele>243.83</ele><time>2026-09-02T22:51:36Z</time></trkpt><trkpt lat="59.5565578714" lon="31.2631117925"><ele>243.83</ele><time>2026-09-02T22:51:37Z</time></trkpt><trkpt lat="59.5565569494" lon="31.2631121278"><ele>244.31</ele><time>2026-09-02T22:51:38Z</time></trkpt><trkpt lat="59.5565573685" lon="31.2631108705"><ele>244.31</ele><time>2026-09-02T22:51:39Z</time></trkpt><trkpt lat="59.5565555245" lon="31.2631135527"><ele>244.31</ele><time>2026-09-02T22:51:40Z</time></trkpt><trkpt lat="59.5565547701" lon="31.2631002255"><ele>244.31</ele><time>2026-09-02T22:51:41Z</time></trkpt><trkpt lat="59.5565538481" lon="31.2630883232"><ele>244.31</ele><time>2026-09-02T22:51:42Z</time></trkpt><trkpt lat="59.5565530937" lon="31.2630832940"><ele>244.31</ele><time>2026-09-02T22:51:43Z</time></trkpt><trkpt lat="59.5565500762" lon="31.2630869821"><ele>244.31</ele><time>2026-09-02T22:51:44Z</time></trkpt><trkpt lat="59.5565484837" lon="31.2630834617"><ele>244.31</ele><time>2026-09-02T22:51:45Z</time></trkpt><trkpt lat="59.5565470587" lon="31.2630833779"><ele>244.31</ele><time>2026-09-02T22:51:46Z</time></trkpt><trkpt lat="59.5565438736" lon="31.2630844675"><ele>244.31</ele><time>2026-09-02T22:51:47Z</time></trkpt><trkpt lat="59.5565411914" lon="31.2630867306"><ele>244.31</ele><time>2026-09-02T22:51:48Z</time></trkpt><trkpt lat="59.5565387607" lon="31.2630874850"><ele>243.83</ele><time>2026-09-02T22:51:49Z</time></trkpt><trkpt lat="59.5565371681" lon="31.2630857248"><ele>243.83</ele><time>2026-09-02T22:51:50Z</time></trkpt><trkpt lat="59.5565371681" lon="31.2630872335"><ele>243.83</ele><time>2026-09-02T22:51:51Z</time></trkpt><trkpt lat="59.5565360785" lon="31.2630855571"><ele>243.83</ele><time>2026-09-02T22:51:52Z</time></trkpt><trkpt lat="59.5565345697" lon="31.2630864792"><ele>243.83</ele><time>2026-09-02T22:51:53Z</time></trkpt><trkpt lat="59.5565329771" lon="31.2630828749"><ele>243.83</ele><time>2026-09-02T22:51:54Z</time></trkpt><trkpt lat="59.5565319713" lon="31.2630807795"><ele>243.83</ele><time>2026-09-02T22:51:55Z</time></trkpt><trkpt lat="59.5565298758" lon="31.2630748283"><ele>243.83</ele><time>2026-09-02T22:51:56Z</time></trkpt><trkpt lat="59.5565276965" lon="31.2630700506"><ele>243.83</ele><time>2026-09-02T22:51:57Z</time></trkpt><trkpt lat="59.5565237571" lon="31.2630667817"><ele>243.83</ele><time>2026-09-02T22:51:58Z</time></trkpt><trkpt lat="59.5565197337" lon="31.2630619202"><ele>243.35</ele><time>2026-09-02T22:51:59Z</time></trkpt><trkpt lat="59.5565174706" lon="31.2630558852"><ele>243.35</ele><time>2026-09-02T22:52:00Z</time></trkpt><trkpt lat="59.5565145370" lon="31.2630499341"><ele>243.35</ele><time>2026-09-02T22:52:01Z</time></trkpt><trkpt lat="59.5565111842" lon="31.2630419713"><ele>243.35</ele><time>2026-09-02T22:52:02Z</time></trkpt><trkpt lat="59.5565049816" lon="31.2630360201"><ele>243.35</ele><time>2026-09-02T22:52:03Z</time></trkpt><trkpt lat="59.5564992819" lon="31.2630335893"><ele>243.35</ele><time>2026-09-02T22:52:04Z</time></trkpt><trkpt lat="59.5564960968" lon="31.2630341761"><ele>243.35</ele><time>2026-09-02T22:52:05Z</time></trkpt><trkpt lat="59.5564913191" lon="31.2630336732"><ele>243.35</ele><time>2026-09-02T22:52:06Z</time></trkpt><trkpt lat="59.5564883854" lon="31.2630294822"><ele>243.35</ele><time>2026-09-02T22:52:07Z</time></trkpt><trkpt lat="59.5564867929" lon="31.2630269676"><ele>243.35</ele><time>2026-09-02T22:52:08Z</time></trkpt><trkpt lat="59.5564828534" lon="31.2630266324"><ele>243.35</ele><time>2026-09-02T22:52:09Z</time></trkpt><trkpt lat="59.5564799197" lon="31.2630238663"><ele>243.35</ele><time>2026-09-02T22:52:10Z</time></trkpt><trkpt lat="59.5564802550" lon="31.2630197592"><ele>243.35</ele><time>2026-09-02T22:52:11Z</time></trkpt><trkpt lat="59.5564791653" lon="31.2630193401"><ele>243.35</ele><time>2026-09-02T22:52:12Z</time></trkpt><trkpt lat="59.5564792491" lon="31.2630161550"><ele>243.35</ele><time>2026-09-02T22:52:13Z</time></trkpt><trkpt lat="59.5564791653" lon="31.2630140595"><ele>243.35</ele><time>2026-09-02T22:52:14Z</time></trkpt><trkpt lat="59.5564787462" lon="31.2630119640"><ele>243.35</ele><time>2026-09-02T22:52:15Z</time></trkpt><trkpt lat="59.5564772375" lon="31.2630063482"><ele>243.35</ele><time>2026-09-02T22:52:16Z</time></trkpt><trkpt lat="59.5564771537" lon="31.2629980501"><ele>243.83</ele><time>2026-09-02T22:52:17Z</time></trkpt><trkpt lat="59.5564770699" lon="31.2629892491"><ele>243.83</ele><time>2026-09-02T22:52:18Z</time></trkpt><trkpt lat="59.5564801712" lon="31.2629762571"><ele>243.83</ele><time>2026-09-02T22:52:19Z</time></trkpt><trkpt lat="59.5564823505" lon="31.2629633490"><ele>243.83</ele><time>2026-09-02T22:52:20Z</time></trkpt><trkpt lat="59.5564817637" lon="31.2629494350"><ele>243.35</ele><time>2026-09-02T22:52:21Z</time></trkpt><trkpt lat="59.5564846974" lon="31.2629336771"><ele>243.35</ele><time>2026-09-02T22:52:22Z</time></trkpt><trkpt lat="59.5564857870" lon="31.2629209366"><ele>243.35</ele><time>2026-09-02T22:52:23Z</time></trkpt><trkpt lat="59.5564867929" lon="31.2629096210"><ele>243.35</ele><time>2026-09-02T22:52:24Z</time></trkpt><trkpt lat="59.5564866252" lon="31.2629000656"><ele>243.35</ele><time>2026-09-02T22:52:25Z</time></trkpt><trkpt lat="59.5564879663" lon="31.2628894206"><ele>243.83</ele><time>2026-09-02T22:52:26Z</time></trkpt><trkpt lat="59.5564875472" lon="31.2628767639"><ele>243.83</ele><time>2026-09-02T22:52:27Z</time></trkpt><trkpt lat="59.5564892236" lon="31.2628621794"><ele>243.83</ele><time>2026-09-02T22:52:28Z</time></trkpt><trkpt lat="59.5564892236" lon="31.2628477626"><ele>243.83</ele><time>2026-09-02T22:52:29Z</time></trkpt><trkpt lat="59.5564903971" lon="31.2628346868"><ele>243.83</ele><time>2026-09-02T22:52:30Z</time></trkpt><trkpt lat="59.5564897265" lon="31.2628205214"><ele>243.83</ele><time>2026-09-02T22:52:31Z</time></trkpt><trkpt lat="59.5564902294" lon="31.2628091220"><ele>243.83</ele><time>2026-09-02T22:52:32Z</time></trkpt><trkpt lat="59.5564899780" lon="31.2627991475"><ele>243.83</ele><time>2026-09-02T22:52:33Z</time></trkpt><trkpt lat="59.5564909000" lon="31.2627886701"><ele>243.83</ele><time>2026-09-02T22:52:34Z</time></trkpt><trkpt lat="59.5564926602" lon="31.2627774384"><ele>243.83</ele><time>2026-09-02T22:52:35Z</time></trkpt><trkpt lat="59.5564929955" lon="31.2627672963"><ele>243.83</ele><time>2026-09-02T22:52:36Z</time></trkpt><trkpt lat="59.5564918220" lon="31.2627548911"><ele>243.83</ele><time>2026-09-02T22:52:37Z</time></trkpt><trkpt lat="59.5564916544" lon="31.2627442461"><ele>243.83</ele><time>2026-09-02T22:52:38Z</time></trkpt><trkpt lat="59.5564921573" lon="31.2627332658"><ele>243.83</ele><time>2026-09-02T22:52:39Z</time></trkpt><trkpt lat="59.5564966835" lon="31.2627169210"><ele>243.83</ele><time>2026-09-02T22:52:40Z</time></trkpt><trkpt lat="59.5564988628" lon="31.2627026718"><ele>243.83</ele><time>2026-09-02T22:52:41Z</time></trkpt><trkpt lat="59.5564997848" lon="31.2626936194"><ele>243.83</ele><time>2026-09-02T22:52:42Z</time></trkpt><trkpt lat="59.5564992819" lon="31.2626807950"><ele>243.83</ele><time>2026-09-02T22:52:43Z</time></trkpt><trkpt lat="59.5564986952" lon="31.2626689766"><ele>243.83</ele><time>2026-09-02T22:52:44Z</time></trkpt><trkpt lat="59.5564986952" lon="31.2626542244"><ele>243.83</ele><time>2026-09-02T22:52:45Z</time></trkpt><trkpt lat="59.5564983599" lon="31.2626380473"><ele>243.83</ele><time>2026-09-02T22:52:46Z</time></trkpt><trkpt lat="59.5564996172" lon="31.2626277376"><ele>243.83</ele><time>2026-09-02T22:52:47Z</time></trkpt><trkpt lat="59.5564995334" lon="31.2626146618"><ele>243.83</ele><time>2026-09-02T22:52:48Z</time></trkpt><trkpt lat="59.5564986952" lon="31.2626042683"><ele>243.83</ele><time>2026-09-02T22:52:49Z</time></trkpt><trkpt lat="59.5564996172" lon="31.2626005802"><ele>243.83</ele><time>2026-09-02T22:52:50Z</time></trkpt><trkpt lat="59.5565019641" lon="31.2626001611"><ele>243.83</ele><time>2026-09-02T22:52:51Z</time></trkpt><trkpt lat="59.5565000363" lon="31.2625972275"><ele>243.83</ele><time>2026-09-02T22:52:52Z</time></trkpt><trkpt lat="59.5565011259" lon="31.2625980657"><ele>243.83</ele><time>2026-09-02T22:52:53Z</time></trkpt><trkpt lat="59.5565011259" lon="31.2625982333"><ele>243.83</ele><time>2026-09-02T22:52:54Z</time></trkpt><trkpt lat="59.5565011259" lon="31.2625987362"><ele>243.83</ele><time>2026-09-02T22:52:55Z</time></trkpt><trkpt lat="59.5565017965" lon="31.2625985686"><ele>243.83</ele><time>2026-09-02T22:52:56Z</time></trkpt><trkpt lat="59.5565024670" lon="31.2626000773"><ele>243.83</ele><time>2026-09-02T22:52:57Z</time></trkpt><trkpt lat="59.5565028861" lon="31.2625994906"><ele>243.83</ele><time>2026-09-02T22:52:58Z</time></trkpt><trkpt lat="59.5565034728" lon="31.2625987362"><ele>243.83</ele><time>2026-09-02T22:52:59Z</time></trkpt><trkpt lat="59.5565039758" lon="31.2625988200"><ele>243.83</ele><time>2026-09-02T22:53:00Z</time></trkpt><trkpt lat="59.5565043949" lon="31.2625987362"><ele>243.83</ele><time>2026-09-02T22:53:01Z</time></trkpt><trkpt lat="59.5565046463" lon="31.2625986524"><ele>243.83</ele><time>2026-09-02T22:53:02Z</time></trkpt><trkpt lat="59.5565045625" lon="31.2625989877"><ele>243.83</ele><time>2026-09-02T22:53:03Z</time></trkpt><trkpt lat="59.5565047301" lon="31.2625986524"><ele>243.83</ele><time>2026-09-02T22:53:04Z</time></trkpt><trkpt lat="59.5565048978" lon="31.2625979818"><ele>243.83</ele><time>2026-09-02T22:53:05Z</time></trkpt><trkpt lat="59.5565051492" lon="31.2625967246"><ele>243.83</ele><time>2026-09-02T22:53:06Z</time></trkpt><trkpt lat="59.5565049816" lon="31.2625965569"><ele>243.83</ele><time>2026-09-02T22:53:07Z</time></trkpt><trkpt lat="59.5565048978" lon="31.2625965569"><ele>243.83</ele><time>2026-09-02T22:53:08Z</time></trkpt><trkpt lat="59.5565050654" lon="31.2625957187"><ele>243.83</ele><time>2026-09-02T22:53:09Z</time></trkpt><trkpt lat="59.5565052330" lon="31.2625946291"><ele>243.83</ele><time>2026-09-02T22:53:10Z</time></trkpt><trkpt lat="59.5565051492" lon="31.2625929527"><ele>243.83</ele><time>2026-09-02T22:53:11Z</time></trkpt><trkpt lat="59.5565055683" lon="31.2625917792"><ele>243.83</ele><time>2026-09-02T22:53:12Z</time></trkpt><trkpt lat="59.5565054845" lon="31.2625920307"><ele>243.83</ele><time>2026-09-02T22:53:13Z</time></trkpt><trkpt lat="59.5565056521" lon="31.2625914440"><ele>243.83</ele><time>2026-09-02T22:53:14Z</time></trkpt><trkpt lat="59.5565061551" lon="31.2625918631"><ele>243.83</ele><time>2026-09-02T22:53:15Z</time></trkpt><trkpt lat="59.5565057360" lon="31.2625915278"><ele>243.83</ele><time>2026-09-02T22:53:16Z</time></trkpt><trkpt lat="59.5565066580" lon="31.2625902705"><ele>243.83</ele><time>2026-09-02T22:53:17Z</time></trkpt><trkpt lat="59.5565099269" lon="31.2625838164"><ele>243.83</ele><time>2026-09-02T22:53:18Z</time></trkpt><trkpt lat="59.5565149561" lon="31.2625759374"><ele>243.83</ele><time>2026-09-02T22:53:19Z</time></trkpt><trkpt lat="59.5565193985" lon="31.2625628617"><ele>243.83</ele><time>2026-09-02T22:53:20Z</time></trkpt><trkpt lat="59.5565233380" lon="31.2625507917"><ele>243.83</ele><time>2026-09-02T22:53:21Z</time></trkpt><trkpt lat="59.5565257687" lon="31.2625354528"><ele>243.83</ele><time>2026-09-02T22:53:22Z</time></trkpt><trkpt lat="59.5565302949" lon="31.2625233829"><ele>243.83</ele><time>2026-09-02T22:53:23Z</time></trkpt><trkpt lat="59.5565322228" lon="31.2625073735"><ele>243.83</ele><time>2026-09-02T22:53:24Z</time></trkpt><trkpt lat="59.5565333962" lon="31.2624917831"><ele>243.83</ele><time>2026-09-02T22:53:25Z</time></trkpt><trkpt lat="59.5565352403" lon="31.2624755222"><ele>243.83</ele><time>2026-09-02T22:53:26Z</time></trkpt><trkpt lat="59.5565370843" lon="31.2624597643"><ele>243.83</ele><time>2026-09-02T22:53:27Z</time></trkpt><trkpt lat="59.5565373357" lon="31.2624405697"><ele>243.83</ele><time>2026-09-02T22:53:28Z</time></trkpt><trkpt lat="59.5565383416" lon="31.2624213751"><ele>243.83</ele><time>2026-09-02T22:53:29Z</time></trkpt><trkpt lat="59.5565387607" lon="31.2624004204"><ele>243.83</ele><time>2026-09-02T22:53:30Z</time></trkpt><trkpt lat="59.5565398503" lon="31.2623799685"><ele>243.83</ele><time>2026-09-02T22:53:31Z</time></trkpt><trkpt lat="59.5565396827" lon="31.2623603549"><ele>243.83</ele><time>2026-09-02T22:53:32Z</time></trkpt><trkpt lat="59.5565388445" lon="31.2623357959"><ele>243.83</ele><time>2026-09-02T22:53:33Z</time></trkpt><trkpt lat="59.5565397665" lon="31.2623184454"><ele>243.83</ele><time>2026-09-02T22:53:34Z</time></trkpt><trkpt lat="59.5565393474" lon="31.2622957304"><ele>243.83</ele><time>2026-09-02T22:53:35Z</time></trkpt><trkpt lat="59.5565398503" lon="31.2622734345"><ele>244.31</ele><time>2026-09-02T22:53:36Z</time></trkpt><trkpt lat="59.5565410238" lon="31.2622530665"><ele>244.31</ele><time>2026-09-02T22:53:37Z</time></trkpt><trkpt lat="59.5565441251" lon="31.2622299325"><ele>244.31</ele><time>2026-09-02T22:53:38Z</time></trkpt><trkpt lat="59.5565446280" lon="31.2622075528"><ele>244.31</ele><time>2026-09-02T22:53:39Z</time></trkpt><trkpt lat="59.5565464720" lon="31.2621873524"><ele>244.31</ele><time>2026-09-02T22:53:40Z</time></trkpt><trkpt lat="59.5565511659" lon="31.2621697504"><ele>244.31</ele><time>2026-09-02T22:53:41Z</time></trkpt><trkpt lat="59.5565531775" lon="31.2621542439"><ele>244.31</ele><time>2026-09-02T22:53:42Z</time></trkpt><trkpt lat="59.5565569494" lon="31.2621355522"><ele>244.31</ele><time>2026-09-02T22:53:43Z</time></trkpt><trkpt lat="59.5565613918" lon="31.2621213868"><ele>244.31</ele><time>2026-09-02T22:53:44Z</time></trkpt><trkpt lat="59.5565663371" lon="31.2621032819"><ele>244.31</ele><time>2026-09-02T22:53:45Z</time></trkpt><trkpt lat="59.5565687679" lon="31.2620755378"><ele>244.31</ele><time>2026-09-02T22:53:46Z</time></trkpt><trkpt lat="59.5565709472" lon="31.2620593607"><ele>244.31</ele><time>2026-09-02T22:53:47Z</time></trkpt><trkpt lat="59.5565748867" lon="31.2620415911"><ele>244.31</ele><time>2026-09-02T22:53:48Z</time></trkpt><trkpt lat="59.5565775689" lon="31.2620243244"><ele>244.31</ele><time>2026-09-02T22:53:49Z</time></trkpt><trkpt lat="59.5565804187" lon="31.2620038725"><ele>244.79</ele><time>2026-09-02T22:53:50Z</time></trkpt><trkpt lat="59.5565831847" lon="31.2619825825"><ele>244.79</ele><time>2026-09-02T22:53:51Z</time></trkpt><trkpt lat="59.5565855317" lon="31.2619628850"><ele>244.79</ele><time>2026-09-02T22:53:52Z</time></trkpt><trkpt lat="59.5565896388" lon="31.2619408406"><ele>244.79</ele><time>2026-09-02T22:53:53Z</time></trkpt><trkpt lat="59.5565915667" lon="31.2619193830"><ele>244.79</ele><time>2026-09-02T22:53:54Z</time></trkpt><trkpt lat="59.5565932430" lon="31.2618892919"><ele>244.79</ele><time>2026-09-02T22:53:55Z</time></trkpt><trkpt lat="59.5565947518" lon="31.2618674990"><ele>244.79</ele><time>2026-09-02T22:53:56Z</time></trkpt><trkpt lat="59.5565957576" lon="31.2618468795"><ele>244.79</ele><time>2026-09-02T22:53:57Z</time></trkpt><trkpt lat="59.5565993618" lon="31.2618273497"><ele>244.79</ele><time>2026-09-02T22:53:58Z</time></trkpt><trkpt lat="59.5566033851" lon="31.2618095800"><ele>244.79</ele><time>2026-09-02T22:53:59Z</time></trkpt><trkpt lat="59.5566079952" lon="31.2617885415"><ele>244.79</ele><time>2026-09-02T22:54:00Z</time></trkpt><trkpt lat="59.5566105936" lon="31.2617682572"><ele>244.79</ele><time>2026-09-02T22:54:01Z</time></trkpt><trkpt lat="59.5566133596" lon="31.2617480569"><ele>244.79</ele><time>2026-09-02T22:54:02Z</time></trkpt><trkpt lat="59.5566179696" lon="31.2617280241"><ele>244.79</ele><time>2026-09-02T22:54:03Z</time></trkpt><trkpt lat="59.5566217415" lon="31.2617057282"><ele>245.27</ele><time>2026-09-02T22:54:04Z</time></trkpt><trkpt lat="59.5566244237" lon="31.2616835162"><ele>245.27</ele><time>2026-09-02T22:54:05Z</time></trkpt><trkpt lat="59.5566264354" lon="31.2616645731"><ele>245.27</ele><time>2026-09-02T22:54:06Z</time></trkpt><trkpt lat="59.5566292852" lon="31.2616457976"><ele>245.27</ele><time>2026-09-02T22:54:07Z</time></trkpt><trkpt lat="59.5566314645" lon="31.2616280280"><ele>245.27</ele><time>2026-09-02T22:54:08Z</time></trkpt><trkpt lat="59.5566339791" lon="31.2616088334"><ele>245.27</ele><time>2026-09-02T22:54:09Z</time></trkpt><trkpt lat="59.5566354878" lon="31.2615902256"><ele>245.27</ele><time>2026-09-02T22:54:10Z</time></trkpt><trkpt lat="59.5566380862" lon="31.2615715340"><ele>245.75</ele><time>2026-09-02T22:54:11Z</time></trkpt><trkpt lat="59.5566419419" lon="31.2615534291"><ele>245.75</ele><time>2026-09-02T22:54:12Z</time></trkpt><trkpt lat="59.5566456299" lon="31.2615344860"><ele>245.75</ele><time>2026-09-02T22:54:13Z</time></trkpt><trkpt lat="59.5566488989" lon="31.2615121901"><ele>245.75</ele><time>2026-09-02T22:54:14Z</time></trkpt><trkpt lat="59.5566512458" lon="31.2614943366"><ele>245.75</ele><time>2026-09-02T22:54:15Z</time></trkpt><trkpt lat="59.5566551853" lon="31.2614756450"><ele>245.75</ele><time>2026-09-02T22:54:16Z</time></trkpt><trkpt lat="59.5566604659" lon="31.2614566181"><ele>246.23</ele><time>2026-09-02T22:54:17Z</time></trkpt><trkpt lat="59.5566650759" lon="31.2614355795"><ele>246.23</ele><time>2026-09-02T22:54:18Z</time></trkpt><trkpt lat="59.5566700213" lon="31.2614163850"><ele>246.23</ele><time>2026-09-02T22:54:19Z</time></trkpt><trkpt lat="59.5566741284" lon="31.2614004593"><ele>246.23</ele><time>2026-09-02T22:54:20Z</time></trkpt><trkpt lat="59.5566789899" lon="31.2613831926"><ele>246.23</ele><time>2026-09-02T22:54:21Z</time></trkpt><trkpt lat="59.5566846896" lon="31.2613651715"><ele>246.23</ele><time>2026-09-02T22:54:22Z</time></trkpt><trkpt lat="59.5566893835" lon="31.2613456417"><ele>246.23</ele><time>2026-09-02T22:54:23Z</time></trkpt><trkpt lat="59.5566925686" lon="31.2613261957"><ele>246.23</ele><time>2026-09-02T22:54:24Z</time></trkpt><trkpt lat="59.5566954184" lon="31.2613094319"><ele>246.23</ele><time>2026-09-02T22:54:25Z</time></trkpt><trkpt lat="59.5566983521" lon="31.2612877227"><ele>246.23</ele><time>2026-09-02T22:54:26Z</time></trkpt><trkpt lat="59.5567018725" lon="31.2612689473"><ele>246.23</ele><time>2026-09-02T22:54:27Z</time></trkpt><trkpt lat="59.5567052253" lon="31.2612468190"><ele>246.23</ele><time>2026-09-02T22:54:28Z</time></trkpt><trkpt lat="59.5567065664" lon="31.2612262834"><ele>246.72</ele><time>2026-09-02T22:54:29Z</time></trkpt><trkpt lat="59.5567084942" lon="31.2612075917"><ele>246.72</ele><time>2026-09-02T22:54:30Z</time></trkpt><trkpt lat="59.5567134395" lon="31.2611881457"><ele>246.72</ele><time>2026-09-02T22:54:31Z</time></trkpt><trkpt lat="59.5567181334" lon="31.2611689512"><ele>246.72</ele><time>2026-09-02T22:54:32Z</time></trkpt><trkpt lat="59.5567212347" lon="31.2611480802"><ele>246.72</ele><time>2026-09-02T22:54:33Z</time></trkpt><trkpt lat="59.5567239169" lon="31.2611279637"><ele>246.72</ele><time>2026-09-02T22:54:34Z</time></trkpt><trkpt lat="59.5567271858" lon="31.2611096911"><ele>246.72</ele><time>2026-09-02T22:54:35Z</time></trkpt><trkpt lat="59.5567336399" lon="31.2610909995"><ele>246.72</ele><time>2026-09-02T22:54:36Z</time></trkpt><trkpt lat="59.5567393396" lon="31.2610737327"><ele>247.20</ele><time>2026-09-02T22:54:37Z</time></trkpt><trkpt lat="59.5567437820" lon="31.2610537838"><ele>247.20</ele><time>2026-09-02T22:54:38Z</time></trkpt><trkpt lat="59.5567494817" lon="31.2610327452"><ele>247.20</ele><time>2026-09-02T22:54:39Z</time></trkpt><trkpt lat="59.5567541756" lon="31.2610149756"><ele>247.20</ele><time>2026-09-02T22:54:40Z</time></trkpt><trkpt lat="59.5567599591" lon="31.2609976251"><ele>247.20</ele><time>2026-09-02T22:54:41Z</time></trkpt><trkpt lat="59.5567654911" lon="31.2609784305"><ele>247.20</ele><time>2026-09-02T22:54:42Z</time></trkpt><trkpt lat="59.5567693468" lon="31.2609577272"><ele>247.20</ele><time>2026-09-02T22:54:43Z</time></trkpt><trkpt lat="59.5567731187" lon="31.2609346770"><ele>247.20</ele><time>2026-09-02T22:54:44Z</time></trkpt><trkpt lat="59.5567771420" lon="31.2609152310"><ele>247.20</ele><time>2026-09-02T22:54:45Z</time></trkpt><trkpt lat="59.5567816682" lon="31.2608948629"><ele>247.20</ele><time>2026-09-02T22:54:46Z</time></trkpt><trkpt lat="59.5567860268" lon="31.2608736567"><ele>247.20</ele><time>2026-09-02T22:54:47Z</time></trkpt><trkpt lat="59.5567896310" lon="31.2608527858"><ele>247.20</ele><time>2026-09-02T22:54:48Z</time></trkpt><trkpt lat="59.5567923971" lon="31.2608296517"><ele>247.20</ele><time>2026-09-02T22:54:49Z</time></trkpt><trkpt lat="59.5567938220" lon="31.2608091999"><ele>247.20</ele><time>2026-09-02T22:54:50Z</time></trkpt><trkpt lat="59.5567967556" lon="31.2607927714"><ele>247.20</ele><time>2026-09-02T22:54:51Z</time></trkpt><trkpt lat="59.5567998569" lon="31.2607749179"><ele>247.20</ele><time>2026-09-02T22:54:52Z</time></trkpt><trkpt lat="59.5568016171" lon="31.2607557233"><ele>247.20</ele><time>2026-09-02T22:54:53Z</time></trkpt><trkpt lat="59.5568008628" lon="31.2607370317"><ele>247.20</ele><time>2026-09-02T22:54:54Z</time></trkpt><trkpt lat="59.5567994379" lon="31.2607172504"><ele>247.20</ele><time>2026-09-02T22:54:55Z</time></trkpt><trkpt lat="59.5567980967" lon="31.2606992293"><ele>247.20</ele><time>2026-09-02T22:54:56Z</time></trkpt><trkpt lat="59.5567947440" lon="31.2606848963"><ele>247.20</ele><time>2026-09-02T22:54:57Z</time></trkpt><trkpt lat="59.5567936543" lon="31.2606692221"><ele>247.20</ele><time>2026-09-02T22:54:58Z</time></trkpt><trkpt lat="59.5567899663" lon="31.2606524583"><ele>247.20</ele><time>2026-09-02T22:54:59Z</time></trkpt><trkpt lat="59.5567846857" lon="31.2606371194"><ele>247.20</ele><time>2026-09-02T22:55:00Z</time></trkpt><trkpt lat="59.5567810815" lon="31.2606203556"><ele>247.20</ele><time>2026-09-02T22:55:01Z</time></trkpt><trkpt lat="59.5567774773" lon="31.2606055196"><ele>247.20</ele><time>2026-09-02T22:55:02Z</time></trkpt><trkpt lat="59.5567736216" lon="31.2605896778"><ele>247.20</ele><time>2026-09-02T22:55:03Z</time></trkpt><trkpt lat="59.5567674190" lon="31.2605715729"><ele>247.20</ele><time>2026-09-02T22:55:04Z</time></trkpt><trkpt lat="59.5567619707" lon="31.2605551444"><ele>247.20</ele><time>2026-09-02T22:55:05Z</time></trkpt><trkpt lat="59.5567594562" lon="31.2605407275"><ele>247.20</ele><time>2026-09-02T22:55:06Z</time></trkpt><trkpt lat="59.5567546785" lon="31.2605253886"><ele>247.20</ele><time>2026-09-02T22:55:07Z</time></trkpt><trkpt lat="59.5567504875" lon="31.2605101336"><ele>247.20</ele><time>2026-09-02T22:55:08Z</time></trkpt><trkpt lat="59.5567431953" lon="31.2604956329"><ele>247.20</ele><time>2026-09-02T22:55:09Z</time></trkpt><trkpt lat="59.5567365736" lon="31.2604807969"><ele>247.68</ele><time>2026-09-02T22:55:10Z</time></trkpt><trkpt lat="59.5567317959" lon="31.2604650389"><ele>247.68</ele><time>2026-09-02T22:55:11Z</time></trkpt><trkpt lat="59.5567256771" lon="31.2604468502"><ele>247.68</ele><time>2026-09-02T22:55:12Z</time></trkpt><trkpt lat="59.5567187201" lon="31.2604310922"><ele>247.68</ele><time>2026-09-02T22:55:13Z</time></trkpt><trkpt lat="59.5567115955" lon="31.2604168430"><ele>247.68</ele><time>2026-09-02T22:55:14Z</time></trkpt><trkpt lat="59.5567029621" lon="31.2604012527"><ele>247.68</ele><time>2026-09-02T22:55:15Z</time></trkpt><trkpt lat="59.5566957537" lon="31.2603900209"><ele>247.68</ele><time>2026-09-02T22:55:16Z</time></trkpt><trkpt lat="59.5566889644" lon="31.2603733409"><ele>247.68</ele><time>2026-09-02T22:55:17Z</time></trkpt><trkpt lat="59.5566831809" lon="31.2603537273"><ele>247.68</ele><time>2026-09-02T22:55:18Z</time></trkpt><trkpt lat="59.5566770621" lon="31.2603361253"><ele>247.68</ele><time>2026-09-02T22:55:19Z</time></trkpt><trkpt lat="59.5566696860" lon="31.2603190262"><ele>247.68</ele><time>2026-09-02T22:55:20Z</time></trkpt><trkpt lat="59.5566619746" lon="31.2603003345"><ele>247.68</ele><time>2026-09-02T22:55:21Z</time></trkpt><trkpt lat="59.5566553529" lon="31.2602830678"><ele>247.68</ele><time>2026-09-02T22:55:22Z</time></trkpt><trkpt lat="59.5566494856" lon="31.2602626998"><ele>247.68</ele><time>2026-09-02T22:55:23Z</time></trkpt><trkpt lat="59.5566434506" lon="31.2602450978"><ele>247.68</ele><time>2026-09-02T22:55:24Z</time></trkpt><trkpt lat="59.5566372480" lon="31.2602293398"><ele>247.68</ele><time>2026-09-02T22:55:25Z</time></trkpt><trkpt lat="59.5566295367" lon="31.2602065410"><ele>247.68</ele><time>2026-09-02T22:55:26Z</time></trkpt><trkpt lat="59.5566216577" lon="31.2601873465"><ele>247.20</ele><time>2026-09-02T22:55:27Z</time></trkpt><trkpt lat="59.5566137787" lon="31.2601690739"><ele>247.20</ele><time>2026-09-02T22:55:28Z</time></trkpt><trkpt lat="59.5566052292" lon="31.2601578422"><ele>247.20</ele><time>2026-09-02T22:55:29Z</time></trkpt><trkpt lat="59.5565963443" lon="31.2601420842"><ele>247.20</ele><time>2026-09-02T22:55:30Z</time></trkpt><trkpt lat="59.5565870404" lon="31.2601293437"><ele>247.20</ele><time>2026-09-02T22:55:31Z</time></trkpt><trkpt lat="59.5565788262" lon="31.2601158489"><ele>247.20</ele><time>2026-09-02T22:55:32Z</time></trkpt><trkpt lat="59.5565679297" lon="31.2600978278"><ele>247.20</ele><time>2026-09-02T22:55:33Z</time></trkpt><trkpt lat="59.5565589610" lon="31.2600862607"><ele>247.20</ele><time>2026-09-02T22:55:34Z</time></trkpt><trkpt lat="59.5565502439" lon="31.2600835785"><ele>247.20</ele><time>2026-09-02T22:55:35Z</time></trkpt><trkpt lat="59.5565415267" lon="31.2600844167"><ele>247.20</ele><time>2026-09-02T22:55:36Z</time></trkpt><trkpt lat="59.5565319713" lon="31.2600861769"><ele>246.72</ele><time>2026-09-02T22:55:37Z</time></trkpt><trkpt lat="59.5565221645" lon="31.2600861769"><ele>246.72</ele><time>2026-09-02T22:55:38Z</time></trkpt><trkpt lat="59.5565126929" lon="31.2600810640"><ele>246.72</ele><time>2026-09-02T22:55:39Z</time></trkpt><trkpt lat="59.5565026347" lon="31.2600696646"><ele>246.72</ele><time>2026-09-02T22:55:40Z</time></trkpt><trkpt lat="59.5564916544" lon="31.2600565888"><ele>246.72</ele><time>2026-09-02T22:55:41Z</time></trkpt><trkpt lat="59.5564793330" lon="31.2600400764"><ele>246.23</ele><time>2026-09-02T22:55:42Z</time></trkpt><trkpt lat="59.5564726274" lon="31.2600262463"><ele>246.23</ele><time>2026-09-02T22:55:43Z</time></trkpt><trkpt lat="59.5564714540" lon="31.2600097340"><ele>246.23</ele><time>2026-09-02T22:55:44Z</time></trkpt><trkpt lat="59.5564752258" lon="31.2599864323"><ele>246.23</ele><time>2026-09-02T22:55:45Z</time></trkpt><trkpt lat="59.5564805903" lon="31.2599682435"><ele>246.23</ele><time>2026-09-02T22:55:46Z</time></trkpt><trkpt lat="59.5564834401" lon="31.2599482946"><ele>246.23</ele><time>2026-09-02T22:55:47Z</time></trkpt><trkpt lat="59.5564869605" lon="31.2599296868"><ele>246.23</ele><time>2026-09-02T22:55:48Z</time></trkpt><trkpt lat="59.5564925764" lon="31.2599136773"><ele>246.23</ele><time>2026-09-02T22:55:49Z</time></trkpt><trkpt lat="59.5565010421" lon="31.2599007692"><ele>246.23</ele><time>2026-09-02T22:55:50Z</time></trkpt><trkpt lat="59.5565115195" lon="31.2598910462"><ele>246.23</ele><time>2026-09-02T22:55:51Z</time></trkpt><trkpt lat="59.5565200690" lon="31.2598826643"><ele>246.23</ele><time>2026-09-02T22:55:52Z</time></trkpt><trkpt lat="59.5565274451" lon="31.2598746177"><ele>246.23</ele><time>2026-09-02T22:55:53Z</time></trkpt><trkpt lat="59.5565348212" lon="31.2598675769"><ele>246.23</ele><time>2026-09-02T22:55:54Z</time></trkpt><trkpt lat="59.5565433707" lon="31.2598639727"><ele>246.23</ele><time>2026-09-02T22:55:55Z</time></trkpt><trkpt lat="59.5565522555" lon="31.2598579377"><ele>246.23</ele><time>2026-09-02T22:55:56Z</time></trkpt><trkpt lat="59.5565593801" lon="31.2598487176"><ele>246.23</ele><time>2026-09-02T22:55:57Z</time></trkpt><trkpt lat="59.5565661695" lon="31.2598393299"><ele>246.23</ele><time>2026-09-02T22:55:58Z</time></trkpt><trkpt lat="59.5565699413" lon="31.2598312832"><ele>246.23</ele><time>2026-09-02T22:55:59Z</time></trkpt><trkpt lat="59.5565755572" lon="31.2598274276"><ele>246.23</ele><time>2026-09-02T22:56:00Z</time></trkpt><trkpt lat="59.5565785747" lon="31.2598276790"><ele>246.23</ele><time>2026-09-02T22:56:01Z</time></trkpt><trkpt lat="59.5565835200" lon="31.2598303612"><ele>246.23</ele><time>2026-09-02T22:56:02Z</time></trkpt><trkpt lat="59.5565889683" lon="31.2598314509"><ele>246.23</ele><time>2026-09-02T22:56:03Z</time></trkpt><trkpt lat="59.5565840229" lon="31.2598314509"><ele>246.23</ele><time>2026-09-02T22:56:04Z</time></trkpt><trkpt lat="59.5565881301" lon="31.2598320376"><ele>246.23</ele><time>2026-09-02T22:56:05Z</time></trkpt><trkpt lat="59.5565873757" lon="31.2598306965"><ele>246.23</ele><time>2026-09-02T22:56:06Z</time></trkpt><trkpt lat="59.5565875433" lon="31.2598303612"><ele>246.23</ele><time>2026-09-02T22:56:07Z</time></trkpt><trkpt lat="59.5565886330" lon="31.2598301936"><ele>246.23</ele><time>2026-09-02T22:56:08Z</time></trkpt><trkpt lat="59.5565894712" lon="31.2598310318"><ele>246.23</ele><time>2026-09-02T22:56:09Z</time></trkpt><trkpt lat="59.5565899741" lon="31.2598311994"><ele>246.23</ele><time>2026-09-02T22:56:10Z</time></trkpt><trkpt lat="59.5565889683" lon="31.2598326243"><ele>246.23</ele><time>2026-09-02T22:56:11Z</time></trkpt><trkpt lat="59.5565883815" lon="31.2598367315"><ele>246.23</ele><time>2026-09-02T22:56:12Z</time></trkpt><trkpt lat="59.5565858670" lon="31.2598356418"><ele>246.23</ele><time>2026-09-02T22:56:13Z</time></trkpt><trkpt lat="59.5565859508" lon="31.2598370668"><ele>246.23</ele><time>2026-09-02T22:56:14Z</time></trkpt><trkpt lat="59.5565864537" lon="31.2598377373"><ele>246.23</ele><time>2026-09-02T22:56:15Z</time></trkpt><trkpt lat="59.5565873757" lon="31.2598380726"><ele>246.23</ele><time>2026-09-02T22:56:16Z</time></trkpt><trkpt lat="59.5565881301" lon="31.2598374858"><ele>246.72</ele><time>2026-09-02T22:56:17Z</time></trkpt><trkpt lat="59.5565888844" lon="31.2598372344"><ele>246.72</ele><time>2026-09-02T22:56:18Z</time></trkpt><trkpt lat="59.5565899741" lon="31.2598375697"><ele>246.72</ele><time>2026-09-02T22:56:19Z</time></trkpt><trkpt lat="59.5565907285" lon="31.2598383240"><ele>246.72</ele><time>2026-09-02T22:56:20Z</time></trkpt><trkpt lat="59.5565913990" lon="31.2598394975"><ele>246.72</ele><time>2026-09-02T22:56:21Z</time></trkpt><trkpt lat="59.5565918181" lon="31.2598401681"><ele>246.72</ele><time>2026-09-02T22:56:22Z</time></trkpt><trkpt lat="59.5565924887" lon="31.2598402519"><ele>246.72</ele><time>2026-09-02T22:56:23Z</time></trkpt></trkseg></trk></gpx>